<?xml version="1.0" encoding="UTF-8" standalone="no" ?>
<gpx xmlns="http://www.topografix.com/GPX/1/1" xmlns:xsi="http://www.w3.org/2001/XMLSchema-instance" xsi:schemaLocation="http://www.topografix.com/GPX/1/1 http://www.topografix.com/GPX/1/1/gpx.xsd" version="1.1" creator="VisuGPX - https://www.visugpx.com">
  <metadata>
    <name>Crémieu-Gravel_SecteurSud #01</name>
  </metadata>
  <trk>
    <name><![CDATA[Crémieu-Gravel_SecteurSud-Rep#01]]></name>
    <desc><![CDATA[]]></desc>
    <extensions>
      <line xmlns="http://www.topografix.com/GPX/gpx_style/0/2">
        <color>0000FF</color>
        <width>4</width>
      </line>
    </extensions>
    <trkseg>
      <trkpt lat="45.71452" lon="5.23575">
        <ele>236</ele>
        <time>2025-05-18T09:21:57Z</time>
      </trkpt>
      <trkpt lat="45.71448" lon="5.23574">
        <ele>236</ele>
        <time>2025-05-18T09:21:58Z</time>
      </trkpt>
      <trkpt lat="45.71445" lon="5.23572">
        <ele>236.2</ele>
        <time>2025-05-18T09:21:59Z</time>
      </trkpt>
      <trkpt lat="45.71442" lon="5.23571">
        <ele>236.2</ele>
        <time>2025-05-18T09:22:00Z</time>
      </trkpt>
      <trkpt lat="45.7144" lon="5.2357">
        <ele>236.2</ele>
        <time>2025-05-18T09:22:01Z</time>
      </trkpt>
      <trkpt lat="45.71437" lon="5.23569">
        <ele>236.2</ele>
        <time>2025-05-18T09:22:02Z</time>
      </trkpt>
      <trkpt lat="45.71434" lon="5.23568">
        <ele>236.6</ele>
        <time>2025-05-18T09:22:03Z</time>
      </trkpt>
      <trkpt lat="45.71431" lon="5.23566">
        <ele>236.6</ele>
        <time>2025-05-18T09:22:04Z</time>
      </trkpt>
      <trkpt lat="45.71428" lon="5.23565">
        <ele>236.6</ele>
        <time>2025-05-18T09:22:05Z</time>
      </trkpt>
      <trkpt lat="45.71424" lon="5.23564">
        <ele>236.6</ele>
        <time>2025-05-18T09:22:06Z</time>
      </trkpt>
      <trkpt lat="45.71421" lon="5.23562">
        <ele>236.8</ele>
        <time>2025-05-18T09:22:07Z</time>
      </trkpt>
      <trkpt lat="45.71418" lon="5.2356">
        <ele>236.8</ele>
        <time>2025-05-18T09:22:08Z</time>
      </trkpt>
      <trkpt lat="45.71414" lon="5.23558">
        <ele>236.8</ele>
        <time>2025-05-18T09:22:09Z</time>
      </trkpt>
      <trkpt lat="45.7141" lon="5.23557">
        <ele>236.8</ele>
        <time>2025-05-18T09:22:10Z</time>
      </trkpt>
      <trkpt lat="45.71407" lon="5.23555">
        <ele>236.8</ele>
        <time>2025-05-18T09:22:11Z</time>
      </trkpt>
      <trkpt lat="45.71403" lon="5.23554">
        <ele>236.8</ele>
        <time>2025-05-18T09:22:12Z</time>
      </trkpt>
      <trkpt lat="45.714" lon="5.23552">
        <ele>237.2</ele>
        <time>2025-05-18T09:22:13Z</time>
      </trkpt>
      <trkpt lat="45.71396" lon="5.23551">
        <ele>237.2</ele>
        <time>2025-05-18T09:22:14Z</time>
      </trkpt>
      <trkpt lat="45.71393" lon="5.2355">
        <ele>237.2</ele>
        <time>2025-05-18T09:22:15Z</time>
      </trkpt>
      <trkpt lat="45.7139" lon="5.23548">
        <ele>237.4</ele>
        <time>2025-05-18T09:22:16Z</time>
      </trkpt>
      <trkpt lat="45.71387" lon="5.23546">
        <ele>237.6</ele>
        <time>2025-05-18T09:22:17Z</time>
      </trkpt>
      <trkpt lat="45.71383" lon="5.23545">
        <ele>237.8</ele>
        <time>2025-05-18T09:22:18Z</time>
      </trkpt>
      <trkpt lat="45.7138" lon="5.23543">
        <ele>238</ele>
        <time>2025-05-18T09:22:19Z</time>
      </trkpt>
      <trkpt lat="45.71377" lon="5.23542">
        <ele>238</ele>
        <time>2025-05-18T09:22:20Z</time>
      </trkpt>
      <trkpt lat="45.71374" lon="5.2354">
        <ele>238.4</ele>
        <time>2025-05-18T09:22:21Z</time>
      </trkpt>
      <trkpt lat="45.71371" lon="5.23538">
        <ele>238.6</ele>
        <time>2025-05-18T09:22:22Z</time>
      </trkpt>
      <trkpt lat="45.71368" lon="5.23537">
        <ele>239</ele>
        <time>2025-05-18T09:22:23Z</time>
      </trkpt>
      <trkpt lat="45.71365" lon="5.23535">
        <ele>239.4</ele>
        <time>2025-05-18T09:22:24Z</time>
      </trkpt>
      <trkpt lat="45.71363" lon="5.23534">
        <ele>239.4</ele>
        <time>2025-05-18T09:22:25Z</time>
      </trkpt>
      <trkpt lat="45.71361" lon="5.23532">
        <ele>239.4</ele>
        <time>2025-05-18T09:22:26Z</time>
      </trkpt>
      <trkpt lat="45.71358" lon="5.2353">
        <ele>239.6</ele>
        <time>2025-05-18T09:22:27Z</time>
      </trkpt>
      <trkpt lat="45.71356" lon="5.23527">
        <ele>239.6</ele>
        <time>2025-05-18T09:22:28Z</time>
      </trkpt>
      <trkpt lat="45.71353" lon="5.23525">
        <ele>240.2</ele>
        <time>2025-05-18T09:22:29Z</time>
      </trkpt>
      <trkpt lat="45.71351" lon="5.23523">
        <ele>240.4</ele>
        <time>2025-05-18T09:22:30Z</time>
      </trkpt>
      <trkpt lat="45.7135" lon="5.23522">
        <ele>240.8</ele>
        <time>2025-05-18T09:22:31Z</time>
      </trkpt>
      <trkpt lat="45.71348" lon="5.23521">
        <ele>241</ele>
        <time>2025-05-18T09:22:32Z</time>
      </trkpt>
      <trkpt lat="45.71346" lon="5.23519">
        <ele>241.4</ele>
        <time>2025-05-18T09:22:33Z</time>
      </trkpt>
      <trkpt lat="45.71345" lon="5.23517">
        <ele>241.6</ele>
        <time>2025-05-18T09:22:34Z</time>
      </trkpt>
      <trkpt lat="45.71343" lon="5.23514">
        <ele>241.8</ele>
        <time>2025-05-18T09:22:35Z</time>
      </trkpt>
      <trkpt lat="45.71343" lon="5.23512">
        <ele>242.2</ele>
        <time>2025-05-18T09:22:36Z</time>
      </trkpt>
      <trkpt lat="45.71342" lon="5.23509">
        <ele>242.2</ele>
        <time>2025-05-18T09:22:37Z</time>
      </trkpt>
      <trkpt lat="45.71341" lon="5.23507">
        <ele>242.6</ele>
        <time>2025-05-18T09:22:38Z</time>
      </trkpt>
      <trkpt lat="45.71339" lon="5.23505">
        <ele>242.6</ele>
        <time>2025-05-18T09:22:39Z</time>
      </trkpt>
      <trkpt lat="45.71338" lon="5.23503">
        <ele>243.2</ele>
        <time>2025-05-18T09:22:40Z</time>
      </trkpt>
      <trkpt lat="45.71337" lon="5.23501">
        <ele>243.4</ele>
        <time>2025-05-18T09:22:41Z</time>
      </trkpt>
      <trkpt lat="45.71337" lon="5.23499">
        <ele>243.6</ele>
        <time>2025-05-18T09:22:42Z</time>
      </trkpt>
      <trkpt lat="45.71337" lon="5.23497">
        <ele>243.6</ele>
        <time>2025-05-18T09:22:43Z</time>
      </trkpt>
      <trkpt lat="45.71337" lon="5.23495">
        <ele>244.2</ele>
        <time>2025-05-18T09:22:44Z</time>
      </trkpt>
      <trkpt lat="45.71336" lon="5.23494">
        <ele>244.2</ele>
        <time>2025-05-18T09:22:45Z</time>
      </trkpt>
      <trkpt lat="45.71335" lon="5.23492">
        <ele>244.8</ele>
        <time>2025-05-18T09:22:46Z</time>
      </trkpt>
      <trkpt lat="45.71334" lon="5.2349">
        <ele>245</ele>
        <time>2025-05-18T09:22:47Z</time>
      </trkpt>
      <trkpt lat="45.71333" lon="5.23488">
        <ele>245</ele>
        <time>2025-05-18T09:22:48Z</time>
      </trkpt>
      <trkpt lat="45.71332" lon="5.23486">
        <ele>245.4</ele>
        <time>2025-05-18T09:22:49Z</time>
      </trkpt>
      <trkpt lat="45.71331" lon="5.23483">
        <ele>245.6</ele>
        <time>2025-05-18T09:22:50Z</time>
      </trkpt>
      <trkpt lat="45.71331" lon="5.23481">
        <ele>245.6</ele>
        <time>2025-05-18T09:22:51Z</time>
      </trkpt>
      <trkpt lat="45.7133" lon="5.23479">
        <ele>246</ele>
        <time>2025-05-18T09:22:52Z</time>
      </trkpt>
      <trkpt lat="45.7133" lon="5.23478">
        <ele>246.4</ele>
        <time>2025-05-18T09:22:53Z</time>
      </trkpt>
      <trkpt lat="45.71329" lon="5.23476">
        <ele>246.4</ele>
        <time>2025-05-18T09:22:54Z</time>
      </trkpt>
      <trkpt lat="45.71328" lon="5.23474">
        <ele>246.8</ele>
        <time>2025-05-18T09:22:55Z</time>
      </trkpt>
      <trkpt lat="45.71327" lon="5.23472">
        <ele>247.4</ele>
        <time>2025-05-18T09:22:56Z</time>
      </trkpt>
      <trkpt lat="45.71326" lon="5.2347">
        <ele>247.8</ele>
        <time>2025-05-18T09:22:57Z</time>
      </trkpt>
      <trkpt lat="45.71325" lon="5.23468">
        <ele>248</ele>
        <time>2025-05-18T09:22:58Z</time>
      </trkpt>
      <trkpt lat="45.71324" lon="5.23466">
        <ele>248.4</ele>
        <time>2025-05-18T09:22:59Z</time>
      </trkpt>
      <trkpt lat="45.71323" lon="5.23464">
        <ele>248.4</ele>
        <time>2025-05-18T09:23:00Z</time>
      </trkpt>
      <trkpt lat="45.71322" lon="5.23462">
        <ele>248.8</ele>
        <time>2025-05-18T09:23:01Z</time>
      </trkpt>
      <trkpt lat="45.71321" lon="5.23461">
        <ele>249</ele>
        <time>2025-05-18T09:23:02Z</time>
      </trkpt>
      <trkpt lat="45.71321" lon="5.23459">
        <ele>249</ele>
        <time>2025-05-18T09:23:03Z</time>
      </trkpt>
      <trkpt lat="45.7132" lon="5.23457">
        <ele>249.4</ele>
        <time>2025-05-18T09:23:04Z</time>
      </trkpt>
      <trkpt lat="45.71319" lon="5.23456">
        <ele>249.6</ele>
        <time>2025-05-18T09:23:05Z</time>
      </trkpt>
      <trkpt lat="45.71318" lon="5.23454">
        <ele>250</ele>
        <time>2025-05-18T09:23:06Z</time>
      </trkpt>
      <trkpt lat="45.71317" lon="5.23452">
        <ele>250</ele>
        <time>2025-05-18T09:23:07Z</time>
      </trkpt>
      <trkpt lat="45.71316" lon="5.2345">
        <ele>250.4</ele>
        <time>2025-05-18T09:23:08Z</time>
      </trkpt>
      <trkpt lat="45.71315" lon="5.23448">
        <ele>250.6</ele>
        <time>2025-05-18T09:23:09Z</time>
      </trkpt>
      <trkpt lat="45.71314" lon="5.23446">
        <ele>250.6</ele>
        <time>2025-05-18T09:23:10Z</time>
      </trkpt>
      <trkpt lat="45.71313" lon="5.23444">
        <ele>251</ele>
        <time>2025-05-18T09:23:11Z</time>
      </trkpt>
      <trkpt lat="45.71312" lon="5.23441">
        <ele>251</ele>
        <time>2025-05-18T09:23:12Z</time>
      </trkpt>
      <trkpt lat="45.7131" lon="5.23439">
        <ele>251.4</ele>
        <time>2025-05-18T09:23:13Z</time>
      </trkpt>
      <trkpt lat="45.71309" lon="5.23437">
        <ele>251.4</ele>
        <time>2025-05-18T09:23:14Z</time>
      </trkpt>
      <trkpt lat="45.71307" lon="5.23436">
        <ele>251.8</ele>
        <time>2025-05-18T09:23:15Z</time>
      </trkpt>
      <trkpt lat="45.71305" lon="5.23435">
        <ele>252</ele>
        <time>2025-05-18T09:23:16Z</time>
      </trkpt>
      <trkpt lat="45.71303" lon="5.23433">
        <ele>252</ele>
        <time>2025-05-18T09:23:17Z</time>
      </trkpt>
      <trkpt lat="45.71302" lon="5.23431">
        <ele>252</ele>
        <time>2025-05-18T09:23:18Z</time>
      </trkpt>
      <trkpt lat="45.71301" lon="5.23429">
        <ele>252.4</ele>
        <time>2025-05-18T09:23:19Z</time>
      </trkpt>
      <trkpt lat="45.713" lon="5.23426">
        <ele>252.4</ele>
        <time>2025-05-18T09:23:20Z</time>
      </trkpt>
      <trkpt lat="45.713" lon="5.23424">
        <ele>252.4</ele>
        <time>2025-05-18T09:23:21Z</time>
      </trkpt>
      <trkpt lat="45.71299" lon="5.23421">
        <ele>252.8</ele>
        <time>2025-05-18T09:23:22Z</time>
      </trkpt>
      <trkpt lat="45.71298" lon="5.23418">
        <ele>252.8</ele>
        <time>2025-05-18T09:23:23Z</time>
      </trkpt>
      <trkpt lat="45.71297" lon="5.23415">
        <ele>252.8</ele>
        <time>2025-05-18T09:23:24Z</time>
      </trkpt>
      <trkpt lat="45.71295" lon="5.23413">
        <ele>253</ele>
        <time>2025-05-18T09:23:25Z</time>
      </trkpt>
      <trkpt lat="45.71294" lon="5.2341">
        <ele>253</ele>
        <time>2025-05-18T09:23:26Z</time>
      </trkpt>
      <trkpt lat="45.71293" lon="5.23407">
        <ele>253.2</ele>
        <time>2025-05-18T09:23:27Z</time>
      </trkpt>
      <trkpt lat="45.71293" lon="5.23404">
        <ele>253.2</ele>
        <time>2025-05-18T09:23:28Z</time>
      </trkpt>
      <trkpt lat="45.71292" lon="5.23401">
        <ele>253.2</ele>
        <time>2025-05-18T09:23:29Z</time>
      </trkpt>
      <trkpt lat="45.71291" lon="5.23398">
        <ele>253.4</ele>
        <time>2025-05-18T09:23:30Z</time>
      </trkpt>
      <trkpt lat="45.7129" lon="5.23395">
        <ele>253.4</ele>
        <time>2025-05-18T09:23:31Z</time>
      </trkpt>
      <trkpt lat="45.71288" lon="5.23392">
        <ele>253.4</ele>
        <time>2025-05-18T09:23:32Z</time>
      </trkpt>
      <trkpt lat="45.71287" lon="5.23388">
        <ele>253.8</ele>
        <time>2025-05-18T09:23:33Z</time>
      </trkpt>
      <trkpt lat="45.71285" lon="5.23384">
        <ele>253.8</ele>
        <time>2025-05-18T09:23:34Z</time>
      </trkpt>
      <trkpt lat="45.71284" lon="5.2338">
        <ele>254</ele>
        <time>2025-05-18T09:23:35Z</time>
      </trkpt>
      <trkpt lat="45.71283" lon="5.23377">
        <ele>254</ele>
        <time>2025-05-18T09:23:36Z</time>
      </trkpt>
      <trkpt lat="45.71282" lon="5.23373">
        <ele>254</ele>
        <time>2025-05-18T09:23:37Z</time>
      </trkpt>
      <trkpt lat="45.71281" lon="5.23368">
        <ele>254.2</ele>
        <time>2025-05-18T09:23:38Z</time>
      </trkpt>
      <trkpt lat="45.7128" lon="5.23365">
        <ele>254.2</ele>
        <time>2025-05-18T09:23:39Z</time>
      </trkpt>
      <trkpt lat="45.71278" lon="5.23361">
        <ele>254.2</ele>
        <time>2025-05-18T09:23:40Z</time>
      </trkpt>
      <trkpt lat="45.71277" lon="5.23358">
        <ele>254.2</ele>
        <time>2025-05-18T09:23:41Z</time>
      </trkpt>
      <trkpt lat="45.71275" lon="5.23355">
        <ele>254.2</ele>
        <time>2025-05-18T09:23:42Z</time>
      </trkpt>
      <trkpt lat="45.71275" lon="5.23355">
        <ele>254.2</ele>
        <time>2025-05-18T09:23:43Z</time>
      </trkpt>
      <trkpt lat="45.71275" lon="5.23355">
        <ele>254.2</ele>
        <time>2025-05-18T09:23:44Z</time>
      </trkpt>
      <trkpt lat="45.71271" lon="5.23343">
        <ele>254.2</ele>
        <time>2025-05-18T09:23:45Z</time>
      </trkpt>
      <trkpt lat="45.71269" lon="5.23338">
        <ele>254</ele>
        <time>2025-05-18T09:23:46Z</time>
      </trkpt>
      <trkpt lat="45.71267" lon="5.23333">
        <ele>253.8</ele>
        <time>2025-05-18T09:23:47Z</time>
      </trkpt>
      <trkpt lat="45.71266" lon="5.23326">
        <ele>253.8</ele>
        <time>2025-05-18T09:23:48Z</time>
      </trkpt>
      <trkpt lat="45.71264" lon="5.2332">
        <ele>253.4</ele>
        <time>2025-05-18T09:23:49Z</time>
      </trkpt>
      <trkpt lat="45.7126" lon="5.23313">
        <ele>253.2</ele>
        <time>2025-05-18T09:23:50Z</time>
      </trkpt>
      <trkpt lat="45.71257" lon="5.23306">
        <ele>252.6</ele>
        <time>2025-05-18T09:23:51Z</time>
      </trkpt>
      <trkpt lat="45.71254" lon="5.23299">
        <ele>252.2</ele>
        <time>2025-05-18T09:23:52Z</time>
      </trkpt>
      <trkpt lat="45.7125" lon="5.23292">
        <ele>252</ele>
        <time>2025-05-18T09:23:53Z</time>
      </trkpt>
      <trkpt lat="45.71247" lon="5.23284">
        <ele>252</ele>
        <time>2025-05-18T09:23:54Z</time>
      </trkpt>
      <trkpt lat="45.71244" lon="5.23277">
        <ele>251.6</ele>
        <time>2025-05-18T09:23:55Z</time>
      </trkpt>
      <trkpt lat="45.71239" lon="5.2327">
        <ele>251.6</ele>
        <time>2025-05-18T09:23:56Z</time>
      </trkpt>
      <trkpt lat="45.71236" lon="5.23261">
        <ele>251.2</ele>
        <time>2025-05-18T09:23:57Z</time>
      </trkpt>
      <trkpt lat="45.71232" lon="5.23253">
        <ele>250.2</ele>
        <time>2025-05-18T09:23:58Z</time>
      </trkpt>
      <trkpt lat="45.71229" lon="5.23245">
        <ele>250</ele>
        <time>2025-05-18T09:23:59Z</time>
      </trkpt>
      <trkpt lat="45.71225" lon="5.23236">
        <ele>248.8</ele>
        <time>2025-05-18T09:24:00Z</time>
      </trkpt>
      <trkpt lat="45.7122" lon="5.23228">
        <ele>248.8</ele>
        <time>2025-05-18T09:24:01Z</time>
      </trkpt>
      <trkpt lat="45.71215" lon="5.2322">
        <ele>248.8</ele>
        <time>2025-05-18T09:24:02Z</time>
      </trkpt>
      <trkpt lat="45.71211" lon="5.23213">
        <ele>248.8</ele>
        <time>2025-05-18T09:24:03Z</time>
      </trkpt>
      <trkpt lat="45.71206" lon="5.23205">
        <ele>248.8</ele>
        <time>2025-05-18T09:24:04Z</time>
      </trkpt>
      <trkpt lat="45.71202" lon="5.23197">
        <ele>248.6</ele>
        <time>2025-05-18T09:24:05Z</time>
      </trkpt>
      <trkpt lat="45.71196" lon="5.23192">
        <ele>248.6</ele>
        <time>2025-05-18T09:24:06Z</time>
      </trkpt>
      <trkpt lat="45.71193" lon="5.23184">
        <ele>248.6</ele>
        <time>2025-05-18T09:24:07Z</time>
      </trkpt>
      <trkpt lat="45.71188" lon="5.23175">
        <ele>248.6</ele>
        <time>2025-05-18T09:24:08Z</time>
      </trkpt>
      <trkpt lat="45.71185" lon="5.23167">
        <ele>248.6</ele>
        <time>2025-05-18T09:24:09Z</time>
      </trkpt>
      <trkpt lat="45.71181" lon="5.23159">
        <ele>248.6</ele>
        <time>2025-05-18T09:24:10Z</time>
      </trkpt>
      <trkpt lat="45.71178" lon="5.23151">
        <ele>248.2</ele>
        <time>2025-05-18T09:24:11Z</time>
      </trkpt>
      <trkpt lat="45.71175" lon="5.23142">
        <ele>248.2</ele>
        <time>2025-05-18T09:24:12Z</time>
      </trkpt>
      <trkpt lat="45.7117" lon="5.23125">
        <ele>248</ele>
        <time>2025-05-18T09:24:13Z</time>
      </trkpt>
      <trkpt lat="45.71167" lon="5.23116">
        <ele>248</ele>
        <time>2025-05-18T09:24:14Z</time>
      </trkpt>
      <trkpt lat="45.71164" lon="5.23107">
        <ele>248</ele>
        <time>2025-05-18T09:24:15Z</time>
      </trkpt>
      <trkpt lat="45.71162" lon="5.23097">
        <ele>248</ele>
        <time>2025-05-18T09:24:16Z</time>
      </trkpt>
      <trkpt lat="45.7116" lon="5.23089">
        <ele>248</ele>
        <time>2025-05-18T09:24:17Z</time>
      </trkpt>
      <trkpt lat="45.71157" lon="5.2308">
        <ele>248</ele>
        <time>2025-05-18T09:24:18Z</time>
      </trkpt>
      <trkpt lat="45.71155" lon="5.23072">
        <ele>248</ele>
        <time>2025-05-18T09:24:19Z</time>
      </trkpt>
      <trkpt lat="45.71153" lon="5.23063">
        <ele>248.4</ele>
        <time>2025-05-18T09:24:20Z</time>
      </trkpt>
      <trkpt lat="45.7115" lon="5.23055">
        <ele>248.4</ele>
        <time>2025-05-18T09:24:21Z</time>
      </trkpt>
      <trkpt lat="45.71148" lon="5.23047">
        <ele>248.8</ele>
        <time>2025-05-18T09:24:22Z</time>
      </trkpt>
      <trkpt lat="45.71147" lon="5.23039">
        <ele>248.8</ele>
        <time>2025-05-18T09:24:23Z</time>
      </trkpt>
      <trkpt lat="45.71145" lon="5.23032">
        <ele>249.2</ele>
        <time>2025-05-18T09:24:24Z</time>
      </trkpt>
      <trkpt lat="45.71143" lon="5.23024">
        <ele>249.2</ele>
        <time>2025-05-18T09:24:25Z</time>
      </trkpt>
      <trkpt lat="45.71141" lon="5.23017">
        <ele>249.6</ele>
        <time>2025-05-18T09:24:26Z</time>
      </trkpt>
      <trkpt lat="45.71139" lon="5.2301">
        <ele>249.8</ele>
        <time>2025-05-18T09:24:27Z</time>
      </trkpt>
      <trkpt lat="45.71137" lon="5.23004">
        <ele>249.8</ele>
        <time>2025-05-18T09:24:28Z</time>
      </trkpt>
      <trkpt lat="45.71136" lon="5.22997">
        <ele>249.8</ele>
        <time>2025-05-18T09:24:29Z</time>
      </trkpt>
      <trkpt lat="45.71134" lon="5.2299">
        <ele>250</ele>
        <time>2025-05-18T09:24:30Z</time>
      </trkpt>
      <trkpt lat="45.71132" lon="5.22983">
        <ele>250</ele>
        <time>2025-05-18T09:24:31Z</time>
      </trkpt>
      <trkpt lat="45.71129" lon="5.22977">
        <ele>250</ele>
        <time>2025-05-18T09:24:32Z</time>
      </trkpt>
      <trkpt lat="45.71127" lon="5.22974">
        <ele>250</ele>
        <time>2025-05-18T09:24:33Z</time>
      </trkpt>
      <trkpt lat="45.71124" lon="5.22972">
        <ele>250.4</ele>
        <time>2025-05-18T09:24:34Z</time>
      </trkpt>
      <trkpt lat="45.71121" lon="5.22972">
        <ele>250.4</ele>
        <time>2025-05-18T09:24:35Z</time>
      </trkpt>
      <trkpt lat="45.71118" lon="5.22973">
        <ele>251</ele>
        <time>2025-05-18T09:24:36Z</time>
      </trkpt>
      <trkpt lat="45.71117" lon="5.22975">
        <ele>251.2</ele>
        <time>2025-05-18T09:24:37Z</time>
      </trkpt>
      <trkpt lat="45.71116" lon="5.22977">
        <ele>251.4</ele>
        <time>2025-05-18T09:24:38Z</time>
      </trkpt>
      <trkpt lat="45.71114" lon="5.22978">
        <ele>252</ele>
        <time>2025-05-18T09:24:39Z</time>
      </trkpt>
      <trkpt lat="45.71115" lon="5.22977">
        <ele>252</ele>
        <time>2025-05-18T09:24:40Z</time>
      </trkpt>
      <trkpt lat="45.71113" lon="5.22979">
        <ele>252.4</ele>
        <time>2025-05-18T09:24:41Z</time>
      </trkpt>
      <trkpt lat="45.71111" lon="5.2298">
        <ele>252.4</ele>
        <time>2025-05-18T09:24:42Z</time>
      </trkpt>
      <trkpt lat="45.71109" lon="5.22981">
        <ele>252.4</ele>
        <time>2025-05-18T09:24:43Z</time>
      </trkpt>
      <trkpt lat="45.71107" lon="5.22981">
        <ele>252.4</ele>
        <time>2025-05-18T09:24:44Z</time>
      </trkpt>
      <trkpt lat="45.71105" lon="5.22981">
        <ele>252.4</ele>
        <time>2025-05-18T09:24:45Z</time>
      </trkpt>
      <trkpt lat="45.71102" lon="5.22982">
        <ele>252.4</ele>
        <time>2025-05-18T09:24:46Z</time>
      </trkpt>
      <trkpt lat="45.71099" lon="5.22983">
        <ele>252.4</ele>
        <time>2025-05-18T09:24:47Z</time>
      </trkpt>
      <trkpt lat="45.71096" lon="5.22984">
        <ele>252.2</ele>
        <time>2025-05-18T09:24:48Z</time>
      </trkpt>
      <trkpt lat="45.71094" lon="5.22985">
        <ele>252.2</ele>
        <time>2025-05-18T09:24:49Z</time>
      </trkpt>
      <trkpt lat="45.71092" lon="5.22985">
        <ele>252.6</ele>
        <time>2025-05-18T09:24:50Z</time>
      </trkpt>
      <trkpt lat="45.7109" lon="5.22985">
        <ele>252.8</ele>
        <time>2025-05-18T09:24:51Z</time>
      </trkpt>
      <trkpt lat="45.71087" lon="5.22984">
        <ele>253</ele>
        <time>2025-05-18T09:24:52Z</time>
      </trkpt>
      <trkpt lat="45.71085" lon="5.22982">
        <ele>253.4</ele>
        <time>2025-05-18T09:24:53Z</time>
      </trkpt>
      <trkpt lat="45.71085" lon="5.22981">
        <ele>254</ele>
        <time>2025-05-18T09:24:54Z</time>
      </trkpt>
      <trkpt lat="45.71084" lon="5.22979">
        <ele>254.4</ele>
        <time>2025-05-18T09:24:55Z</time>
      </trkpt>
      <trkpt lat="45.71084" lon="5.22977">
        <ele>254.4</ele>
        <time>2025-05-18T09:24:56Z</time>
      </trkpt>
      <trkpt lat="45.71083" lon="5.22976">
        <ele>254.4</ele>
        <time>2025-05-18T09:24:57Z</time>
      </trkpt>
      <trkpt lat="45.71082" lon="5.22974">
        <ele>254.8</ele>
        <time>2025-05-18T09:24:58Z</time>
      </trkpt>
      <trkpt lat="45.71081" lon="5.22972">
        <ele>254.8</ele>
        <time>2025-05-18T09:24:59Z</time>
      </trkpt>
      <trkpt lat="45.7108" lon="5.2297">
        <ele>255.4</ele>
        <time>2025-05-18T09:25:00Z</time>
      </trkpt>
      <trkpt lat="45.71079" lon="5.22968">
        <ele>255.4</ele>
        <time>2025-05-18T09:25:01Z</time>
      </trkpt>
      <trkpt lat="45.71077" lon="5.22965">
        <ele>255.4</ele>
        <time>2025-05-18T09:25:02Z</time>
      </trkpt>
      <trkpt lat="45.71076" lon="5.22963">
        <ele>255.8</ele>
        <time>2025-05-18T09:25:03Z</time>
      </trkpt>
      <trkpt lat="45.71075" lon="5.2296">
        <ele>256</ele>
        <time>2025-05-18T09:25:04Z</time>
      </trkpt>
      <trkpt lat="45.71074" lon="5.22958">
        <ele>256.4</ele>
        <time>2025-05-18T09:25:05Z</time>
      </trkpt>
      <trkpt lat="45.71073" lon="5.22955">
        <ele>256.4</ele>
        <time>2025-05-18T09:25:06Z</time>
      </trkpt>
      <trkpt lat="45.71072" lon="5.22951">
        <ele>256.8</ele>
        <time>2025-05-18T09:25:07Z</time>
      </trkpt>
      <trkpt lat="45.71071" lon="5.22947">
        <ele>256.8</ele>
        <time>2025-05-18T09:25:08Z</time>
      </trkpt>
      <trkpt lat="45.7107" lon="5.22945">
        <ele>257.2</ele>
        <time>2025-05-18T09:25:09Z</time>
      </trkpt>
      <trkpt lat="45.71069" lon="5.22941">
        <ele>257.4</ele>
        <time>2025-05-18T09:25:10Z</time>
      </trkpt>
      <trkpt lat="45.71069" lon="5.22939">
        <ele>257.4</ele>
        <time>2025-05-18T09:25:11Z</time>
      </trkpt>
      <trkpt lat="45.71068" lon="5.22937">
        <ele>257.6</ele>
        <time>2025-05-18T09:25:12Z</time>
      </trkpt>
      <trkpt lat="45.71066" lon="5.22934">
        <ele>257.6</ele>
        <time>2025-05-18T09:25:13Z</time>
      </trkpt>
      <trkpt lat="45.71066" lon="5.22932">
        <ele>258</ele>
        <time>2025-05-18T09:25:14Z</time>
      </trkpt>
      <trkpt lat="45.71065" lon="5.22931">
        <ele>258</ele>
        <time>2025-05-18T09:25:15Z</time>
      </trkpt>
      <trkpt lat="45.71064" lon="5.22929">
        <ele>258.6</ele>
        <time>2025-05-18T09:25:16Z</time>
      </trkpt>
      <trkpt lat="45.71064" lon="5.22926">
        <ele>258.6</ele>
        <time>2025-05-18T09:25:17Z</time>
      </trkpt>
      <trkpt lat="45.71063" lon="5.22924">
        <ele>258.8</ele>
        <time>2025-05-18T09:25:18Z</time>
      </trkpt>
      <trkpt lat="45.71063" lon="5.22921">
        <ele>258.6</ele>
        <time>2025-05-18T09:25:19Z</time>
      </trkpt>
      <trkpt lat="45.71061" lon="5.22919">
        <ele>258.6</ele>
        <time>2025-05-18T09:25:20Z</time>
      </trkpt>
      <trkpt lat="45.7106" lon="5.22917">
        <ele>259.2</ele>
        <time>2025-05-18T09:25:21Z</time>
      </trkpt>
      <trkpt lat="45.71059" lon="5.22916">
        <ele>259.4</ele>
        <time>2025-05-18T09:25:22Z</time>
      </trkpt>
      <trkpt lat="45.71058" lon="5.22915">
        <ele>259.4</ele>
        <time>2025-05-18T09:25:23Z</time>
      </trkpt>
      <trkpt lat="45.71056" lon="5.22914">
        <ele>259.8</ele>
        <time>2025-05-18T09:25:24Z</time>
      </trkpt>
      <trkpt lat="45.71055" lon="5.22912">
        <ele>259.6</ele>
        <time>2025-05-18T09:25:25Z</time>
      </trkpt>
      <trkpt lat="45.71054" lon="5.2291">
        <ele>260.4</ele>
        <time>2025-05-18T09:25:26Z</time>
      </trkpt>
      <trkpt lat="45.71053" lon="5.22907">
        <ele>260.6</ele>
        <time>2025-05-18T09:25:27Z</time>
      </trkpt>
      <trkpt lat="45.71052" lon="5.22905">
        <ele>261</ele>
        <time>2025-05-18T09:25:28Z</time>
      </trkpt>
      <trkpt lat="45.71052" lon="5.22903">
        <ele>261.4</ele>
        <time>2025-05-18T09:25:29Z</time>
      </trkpt>
      <trkpt lat="45.7105" lon="5.22902">
        <ele>261.6</ele>
        <time>2025-05-18T09:25:30Z</time>
      </trkpt>
      <trkpt lat="45.71049" lon="5.22899">
        <ele>261.8</ele>
        <time>2025-05-18T09:25:31Z</time>
      </trkpt>
      <trkpt lat="45.71049" lon="5.22898">
        <ele>262.4</ele>
        <time>2025-05-18T09:25:32Z</time>
      </trkpt>
      <trkpt lat="45.71049" lon="5.22898">
        <ele>262.4</ele>
        <time>2025-05-18T09:25:33Z</time>
      </trkpt>
      <trkpt lat="45.71049" lon="5.22896">
        <ele>262.4</ele>
        <time>2025-05-18T09:25:34Z</time>
      </trkpt>
      <trkpt lat="45.71048" lon="5.22894">
        <ele>263</ele>
        <time>2025-05-18T09:25:35Z</time>
      </trkpt>
      <trkpt lat="45.71047" lon="5.22893">
        <ele>263.2</ele>
        <time>2025-05-18T09:25:36Z</time>
      </trkpt>
      <trkpt lat="45.71047" lon="5.22891">
        <ele>263.2</ele>
        <time>2025-05-18T09:25:37Z</time>
      </trkpt>
      <trkpt lat="45.71046" lon="5.22888">
        <ele>263.6</ele>
        <time>2025-05-18T09:25:38Z</time>
      </trkpt>
      <trkpt lat="45.71045" lon="5.22888">
        <ele>263.6</ele>
        <time>2025-05-18T09:25:39Z</time>
      </trkpt>
      <trkpt lat="45.71045" lon="5.22887">
        <ele>263.6</ele>
        <time>2025-05-18T09:25:40Z</time>
      </trkpt>
      <trkpt lat="45.71045" lon="5.22888">
        <ele>264</ele>
        <time>2025-05-18T09:25:41Z</time>
      </trkpt>
      <trkpt lat="45.71045" lon="5.22889">
        <ele>264</ele>
        <time>2025-05-18T09:25:42Z</time>
      </trkpt>
      <trkpt lat="45.71045" lon="5.22888">
        <ele>264.2</ele>
        <time>2025-05-18T09:25:46Z</time>
      </trkpt>
      <trkpt lat="45.71043" lon="5.22886">
        <ele>264.2</ele>
        <time>2025-05-18T09:25:47Z</time>
      </trkpt>
      <trkpt lat="45.71042" lon="5.22885">
        <ele>264.2</ele>
        <time>2025-05-18T09:25:48Z</time>
      </trkpt>
      <trkpt lat="45.71041" lon="5.22884">
        <ele>264.4</ele>
        <time>2025-05-18T09:25:49Z</time>
      </trkpt>
      <trkpt lat="45.7104" lon="5.22883">
        <ele>264.4</ele>
        <time>2025-05-18T09:25:50Z</time>
      </trkpt>
      <trkpt lat="45.7104" lon="5.22881">
        <ele>264.8</ele>
        <time>2025-05-18T09:25:51Z</time>
      </trkpt>
      <trkpt lat="45.7104" lon="5.2288">
        <ele>264.8</ele>
        <time>2025-05-18T09:25:52Z</time>
      </trkpt>
      <trkpt lat="45.7104" lon="5.22879">
        <ele>264.8</ele>
        <time>2025-05-18T09:25:53Z</time>
      </trkpt>
      <trkpt lat="45.71039" lon="5.22877">
        <ele>265.2</ele>
        <time>2025-05-18T09:25:54Z</time>
      </trkpt>
      <trkpt lat="45.71039" lon="5.22876">
        <ele>265.6</ele>
        <time>2025-05-18T09:25:55Z</time>
      </trkpt>
      <trkpt lat="45.71038" lon="5.22874">
        <ele>265.8</ele>
        <time>2025-05-18T09:25:56Z</time>
      </trkpt>
      <trkpt lat="45.71038" lon="5.22873">
        <ele>266.2</ele>
        <time>2025-05-18T09:25:57Z</time>
      </trkpt>
      <trkpt lat="45.71037" lon="5.22872">
        <ele>266.2</ele>
        <time>2025-05-18T09:25:58Z</time>
      </trkpt>
      <trkpt lat="45.71037" lon="5.2287">
        <ele>266.4</ele>
        <time>2025-05-18T09:25:59Z</time>
      </trkpt>
      <trkpt lat="45.71037" lon="5.2287">
        <ele>266.4</ele>
        <time>2025-05-18T09:26:00Z</time>
      </trkpt>
      <trkpt lat="45.71037" lon="5.22869">
        <ele>266.4</ele>
        <time>2025-05-18T09:26:01Z</time>
      </trkpt>
      <trkpt lat="45.71037" lon="5.22868">
        <ele>266.8</ele>
        <time>2025-05-18T09:26:02Z</time>
      </trkpt>
      <trkpt lat="45.71036" lon="5.22866">
        <ele>267</ele>
        <time>2025-05-18T09:26:03Z</time>
      </trkpt>
      <trkpt lat="45.71036" lon="5.22865">
        <ele>267</ele>
        <time>2025-05-18T09:26:04Z</time>
      </trkpt>
      <trkpt lat="45.71035" lon="5.22864">
        <ele>267</ele>
        <time>2025-05-18T09:26:05Z</time>
      </trkpt>
      <trkpt lat="45.71034" lon="5.22863">
        <ele>267.6</ele>
        <time>2025-05-18T09:26:06Z</time>
      </trkpt>
      <trkpt lat="45.71033" lon="5.22862">
        <ele>267.8</ele>
        <time>2025-05-18T09:26:07Z</time>
      </trkpt>
      <trkpt lat="45.71033" lon="5.22861">
        <ele>267.8</ele>
        <time>2025-05-18T09:26:08Z</time>
      </trkpt>
      <trkpt lat="45.71032" lon="5.22862">
        <ele>268.2</ele>
        <time>2025-05-18T09:26:09Z</time>
      </trkpt>
      <trkpt lat="45.71032" lon="5.22862">
        <ele>268.2</ele>
        <time>2025-05-18T09:26:10Z</time>
      </trkpt>
      <trkpt lat="45.71028" lon="5.22859">
        <ele>268.4</ele>
        <time>2025-05-18T09:26:17Z</time>
      </trkpt>
      <trkpt lat="45.71027" lon="5.22858">
        <ele>269</ele>
        <time>2025-05-18T09:26:18Z</time>
      </trkpt>
      <trkpt lat="45.71025" lon="5.22857">
        <ele>269</ele>
        <time>2025-05-18T09:26:19Z</time>
      </trkpt>
      <trkpt lat="45.71024" lon="5.22856">
        <ele>269</ele>
        <time>2025-05-18T09:26:20Z</time>
      </trkpt>
      <trkpt lat="45.71023" lon="5.22855">
        <ele>269.4</ele>
        <time>2025-05-18T09:26:21Z</time>
      </trkpt>
      <trkpt lat="45.71021" lon="5.22853">
        <ele>269.4</ele>
        <time>2025-05-18T09:26:22Z</time>
      </trkpt>
      <trkpt lat="45.7102" lon="5.22852">
        <ele>269.6</ele>
        <time>2025-05-18T09:26:23Z</time>
      </trkpt>
      <trkpt lat="45.71019" lon="5.22851">
        <ele>270.2</ele>
        <time>2025-05-18T09:26:24Z</time>
      </trkpt>
      <trkpt lat="45.71017" lon="5.2285">
        <ele>270.4</ele>
        <time>2025-05-18T09:26:25Z</time>
      </trkpt>
      <trkpt lat="45.71016" lon="5.22849">
        <ele>270.4</ele>
        <time>2025-05-18T09:26:26Z</time>
      </trkpt>
      <trkpt lat="45.71014" lon="5.22848">
        <ele>270.6</ele>
        <time>2025-05-18T09:26:27Z</time>
      </trkpt>
      <trkpt lat="45.71012" lon="5.22847">
        <ele>270.6</ele>
        <time>2025-05-18T09:26:28Z</time>
      </trkpt>
      <trkpt lat="45.71011" lon="5.22846">
        <ele>271</ele>
        <time>2025-05-18T09:26:29Z</time>
      </trkpt>
      <trkpt lat="45.71009" lon="5.22845">
        <ele>271.2</ele>
        <time>2025-05-18T09:26:30Z</time>
      </trkpt>
      <trkpt lat="45.71008" lon="5.22843">
        <ele>271.4</ele>
        <time>2025-05-18T09:26:31Z</time>
      </trkpt>
      <trkpt lat="45.71006" lon="5.22842">
        <ele>271.4</ele>
        <time>2025-05-18T09:26:32Z</time>
      </trkpt>
      <trkpt lat="45.71006" lon="5.22841">
        <ele>271.8</ele>
        <time>2025-05-18T09:26:33Z</time>
      </trkpt>
      <trkpt lat="45.71005" lon="5.22841">
        <ele>272</ele>
        <time>2025-05-18T09:26:34Z</time>
      </trkpt>
      <trkpt lat="45.71005" lon="5.2284">
        <ele>272.2</ele>
        <time>2025-05-18T09:26:35Z</time>
      </trkpt>
      <trkpt lat="45.71005" lon="5.22839">
        <ele>272.4</ele>
        <time>2025-05-18T09:26:40Z</time>
      </trkpt>
      <trkpt lat="45.71005" lon="5.22838">
        <ele>272.8</ele>
        <time>2025-05-18T09:26:41Z</time>
      </trkpt>
      <trkpt lat="45.71004" lon="5.22838">
        <ele>272.8</ele>
        <time>2025-05-18T09:26:42Z</time>
      </trkpt>
      <trkpt lat="45.71003" lon="5.22837">
        <ele>273.2</ele>
        <time>2025-05-18T09:26:43Z</time>
      </trkpt>
      <trkpt lat="45.71002" lon="5.22836">
        <ele>273.6</ele>
        <time>2025-05-18T09:26:44Z</time>
      </trkpt>
      <trkpt lat="45.71001" lon="5.22835">
        <ele>273.6</ele>
        <time>2025-05-18T09:26:45Z</time>
      </trkpt>
      <trkpt lat="45.71001" lon="5.22834">
        <ele>274</ele>
        <time>2025-05-18T09:26:46Z</time>
      </trkpt>
      <trkpt lat="45.71" lon="5.22834">
        <ele>274.2</ele>
        <time>2025-05-18T09:26:47Z</time>
      </trkpt>
      <trkpt lat="45.70998" lon="5.22834">
        <ele>274.4</ele>
        <time>2025-05-18T09:26:48Z</time>
      </trkpt>
      <trkpt lat="45.70997" lon="5.22834">
        <ele>274.6</ele>
        <time>2025-05-18T09:26:49Z</time>
      </trkpt>
      <trkpt lat="45.70996" lon="5.22834">
        <ele>275</ele>
        <time>2025-05-18T09:26:50Z</time>
      </trkpt>
      <trkpt lat="45.70994" lon="5.22834">
        <ele>275</ele>
        <time>2025-05-18T09:26:51Z</time>
      </trkpt>
      <trkpt lat="45.70994" lon="5.22835">
        <ele>275</ele>
        <time>2025-05-18T09:26:52Z</time>
      </trkpt>
      <trkpt lat="45.70993" lon="5.22835">
        <ele>275.2</ele>
        <time>2025-05-18T09:26:53Z</time>
      </trkpt>
      <trkpt lat="45.70992" lon="5.22835">
        <ele>275.6</ele>
        <time>2025-05-18T09:26:54Z</time>
      </trkpt>
      <trkpt lat="45.70991" lon="5.22836">
        <ele>275.8</ele>
        <time>2025-05-18T09:26:55Z</time>
      </trkpt>
      <trkpt lat="45.7099" lon="5.22837">
        <ele>275.8</ele>
        <time>2025-05-18T09:26:56Z</time>
      </trkpt>
      <trkpt lat="45.7099" lon="5.22838">
        <ele>275.8</ele>
        <time>2025-05-18T09:26:57Z</time>
      </trkpt>
      <trkpt lat="45.70989" lon="5.22839">
        <ele>276.2</ele>
        <time>2025-05-18T09:26:58Z</time>
      </trkpt>
      <trkpt lat="45.70989" lon="5.2284">
        <ele>276.2</ele>
        <time>2025-05-18T09:26:59Z</time>
      </trkpt>
      <trkpt lat="45.70989" lon="5.2284">
        <ele>276.4</ele>
        <time>2025-05-18T09:27:00Z</time>
      </trkpt>
      <trkpt lat="45.7099" lon="5.22841">
        <ele>276.4</ele>
        <time>2025-05-18T09:27:01Z</time>
      </trkpt>
      <trkpt lat="45.7099" lon="5.22842">
        <ele>277</ele>
        <time>2025-05-18T09:27:02Z</time>
      </trkpt>
      <trkpt lat="45.7099" lon="5.22842">
        <ele>277</ele>
        <time>2025-05-18T09:27:03Z</time>
      </trkpt>
      <trkpt lat="45.7099" lon="5.22844">
        <ele>277.2</ele>
        <time>2025-05-18T09:27:04Z</time>
      </trkpt>
      <trkpt lat="45.7099" lon="5.22845">
        <ele>277.2</ele>
        <time>2025-05-18T09:27:05Z</time>
      </trkpt>
      <trkpt lat="45.7099" lon="5.22845">
        <ele>277.4</ele>
        <time>2025-05-18T09:27:06Z</time>
      </trkpt>
      <trkpt lat="45.7099" lon="5.22845">
        <ele>277.6</ele>
        <time>2025-05-18T09:27:07Z</time>
      </trkpt>
      <trkpt lat="45.7099" lon="5.22846">
        <ele>277.6</ele>
        <time>2025-05-18T09:27:08Z</time>
      </trkpt>
      <trkpt lat="45.70989" lon="5.22845">
        <ele>278</ele>
        <time>2025-05-18T09:27:09Z</time>
      </trkpt>
      <trkpt lat="45.70989" lon="5.22847">
        <ele>278.2</ele>
        <time>2025-05-18T09:27:10Z</time>
      </trkpt>
      <trkpt lat="45.70989" lon="5.22848">
        <ele>278.4</ele>
        <time>2025-05-18T09:27:11Z</time>
      </trkpt>
      <trkpt lat="45.70989" lon="5.2285">
        <ele>278.8</ele>
        <time>2025-05-18T09:27:12Z</time>
      </trkpt>
      <trkpt lat="45.70989" lon="5.22851">
        <ele>279.2</ele>
        <time>2025-05-18T09:27:13Z</time>
      </trkpt>
      <trkpt lat="45.70989" lon="5.22852">
        <ele>279.2</ele>
        <time>2025-05-18T09:27:14Z</time>
      </trkpt>
      <trkpt lat="45.7099" lon="5.22855">
        <ele>279.4</ele>
        <time>2025-05-18T09:27:15Z</time>
      </trkpt>
      <trkpt lat="45.70991" lon="5.22856">
        <ele>279.4</ele>
        <time>2025-05-18T09:27:16Z</time>
      </trkpt>
      <trkpt lat="45.70991" lon="5.22857">
        <ele>280</ele>
        <time>2025-05-18T09:27:17Z</time>
      </trkpt>
      <trkpt lat="45.70991" lon="5.22858">
        <ele>280</ele>
        <time>2025-05-18T09:27:18Z</time>
      </trkpt>
      <trkpt lat="45.70991" lon="5.22859">
        <ele>280</ele>
        <time>2025-05-18T09:27:19Z</time>
      </trkpt>
      <trkpt lat="45.7099" lon="5.2286">
        <ele>280.2</ele>
        <time>2025-05-18T09:27:20Z</time>
      </trkpt>
      <trkpt lat="45.7099" lon="5.2286">
        <ele>280.4</ele>
        <time>2025-05-18T09:27:21Z</time>
      </trkpt>
      <trkpt lat="45.70989" lon="5.22861">
        <ele>281</ele>
        <time>2025-05-18T09:27:22Z</time>
      </trkpt>
      <trkpt lat="45.70989" lon="5.22861">
        <ele>281.2</ele>
        <time>2025-05-18T09:27:23Z</time>
      </trkpt>
      <trkpt lat="45.70989" lon="5.22862">
        <ele>281.6</ele>
        <time>2025-05-18T09:27:24Z</time>
      </trkpt>
      <trkpt lat="45.70989" lon="5.22863">
        <ele>281.8</ele>
        <time>2025-05-18T09:27:25Z</time>
      </trkpt>
      <trkpt lat="45.7099" lon="5.22865">
        <ele>282</ele>
        <time>2025-05-18T09:27:26Z</time>
      </trkpt>
      <trkpt lat="45.7099" lon="5.22866">
        <ele>282.4</ele>
        <time>2025-05-18T09:27:27Z</time>
      </trkpt>
      <trkpt lat="45.70991" lon="5.22868">
        <ele>282.6</ele>
        <time>2025-05-18T09:27:28Z</time>
      </trkpt>
      <trkpt lat="45.70991" lon="5.22869">
        <ele>283</ele>
        <time>2025-05-18T09:27:29Z</time>
      </trkpt>
      <trkpt lat="45.70991" lon="5.2287">
        <ele>283</ele>
        <time>2025-05-18T09:27:30Z</time>
      </trkpt>
      <trkpt lat="45.70991" lon="5.22871">
        <ele>283.2</ele>
        <time>2025-05-18T09:27:31Z</time>
      </trkpt>
      <trkpt lat="45.7099" lon="5.22873">
        <ele>283.2</ele>
        <time>2025-05-18T09:27:32Z</time>
      </trkpt>
      <trkpt lat="45.7099" lon="5.22874">
        <ele>283.2</ele>
        <time>2025-05-18T09:27:33Z</time>
      </trkpt>
      <trkpt lat="45.7099" lon="5.22875">
        <ele>283.4</ele>
        <time>2025-05-18T09:27:34Z</time>
      </trkpt>
      <trkpt lat="45.7099" lon="5.22876">
        <ele>284</ele>
        <time>2025-05-18T09:27:35Z</time>
      </trkpt>
      <trkpt lat="45.7099" lon="5.22877">
        <ele>284</ele>
        <time>2025-05-18T09:27:36Z</time>
      </trkpt>
      <trkpt lat="45.7099" lon="5.22879">
        <ele>284</ele>
        <time>2025-05-18T09:27:37Z</time>
      </trkpt>
      <trkpt lat="45.7099" lon="5.2288">
        <ele>284.4</ele>
        <time>2025-05-18T09:27:38Z</time>
      </trkpt>
      <trkpt lat="45.7099" lon="5.22881">
        <ele>284.4</ele>
        <time>2025-05-18T09:27:39Z</time>
      </trkpt>
      <trkpt lat="45.7099" lon="5.22882">
        <ele>284.8</ele>
        <time>2025-05-18T09:27:40Z</time>
      </trkpt>
      <trkpt lat="45.7099" lon="5.22883">
        <ele>284.8</ele>
        <time>2025-05-18T09:27:41Z</time>
      </trkpt>
      <trkpt lat="45.7099" lon="5.22884">
        <ele>285.2</ele>
        <time>2025-05-18T09:27:42Z</time>
      </trkpt>
      <trkpt lat="45.70989" lon="5.22885">
        <ele>285.2</ele>
        <time>2025-05-18T09:27:43Z</time>
      </trkpt>
      <trkpt lat="45.70989" lon="5.22886">
        <ele>285.6</ele>
        <time>2025-05-18T09:27:44Z</time>
      </trkpt>
      <trkpt lat="45.70989" lon="5.22887">
        <ele>285.8</ele>
        <time>2025-05-18T09:27:45Z</time>
      </trkpt>
      <trkpt lat="45.70989" lon="5.22889">
        <ele>285.8</ele>
        <time>2025-05-18T09:27:46Z</time>
      </trkpt>
      <trkpt lat="45.70989" lon="5.2289">
        <ele>285.8</ele>
        <time>2025-05-18T09:27:47Z</time>
      </trkpt>
      <trkpt lat="45.70988" lon="5.22891">
        <ele>286.2</ele>
        <time>2025-05-18T09:27:48Z</time>
      </trkpt>
      <trkpt lat="45.70987" lon="5.22893">
        <ele>286.6</ele>
        <time>2025-05-18T09:27:49Z</time>
      </trkpt>
      <trkpt lat="45.70987" lon="5.22894">
        <ele>286.6</ele>
        <time>2025-05-18T09:27:50Z</time>
      </trkpt>
      <trkpt lat="45.70986" lon="5.22895">
        <ele>287</ele>
        <time>2025-05-18T09:27:51Z</time>
      </trkpt>
      <trkpt lat="45.70986" lon="5.22896">
        <ele>287.2</ele>
        <time>2025-05-18T09:27:52Z</time>
      </trkpt>
      <trkpt lat="45.70985" lon="5.22897">
        <ele>287.2</ele>
        <time>2025-05-18T09:27:53Z</time>
      </trkpt>
      <trkpt lat="45.70986" lon="5.22897">
        <ele>287.6</ele>
        <time>2025-05-18T09:27:54Z</time>
      </trkpt>
      <trkpt lat="45.70986" lon="5.22898">
        <ele>287.6</ele>
        <time>2025-05-18T09:27:55Z</time>
      </trkpt>
      <trkpt lat="45.70987" lon="5.22899">
        <ele>288</ele>
        <time>2025-05-18T09:27:56Z</time>
      </trkpt>
      <trkpt lat="45.70987" lon="5.22899">
        <ele>288.2</ele>
        <time>2025-05-18T09:27:57Z</time>
      </trkpt>
      <trkpt lat="45.70988" lon="5.229">
        <ele>288.2</ele>
        <time>2025-05-18T09:27:58Z</time>
      </trkpt>
      <trkpt lat="45.70988" lon="5.229">
        <ele>288.4</ele>
        <time>2025-05-18T09:27:59Z</time>
      </trkpt>
      <trkpt lat="45.70989" lon="5.22901">
        <ele>289</ele>
        <time>2025-05-18T09:28:00Z</time>
      </trkpt>
      <trkpt lat="45.70989" lon="5.22902">
        <ele>289.2</ele>
        <time>2025-05-18T09:28:01Z</time>
      </trkpt>
      <trkpt lat="45.7099" lon="5.22902">
        <ele>289.4</ele>
        <time>2025-05-18T09:28:02Z</time>
      </trkpt>
      <trkpt lat="45.7099" lon="5.22903">
        <ele>289.4</ele>
        <time>2025-05-18T09:28:03Z</time>
      </trkpt>
      <trkpt lat="45.70991" lon="5.22904">
        <ele>289.4</ele>
        <time>2025-05-18T09:28:04Z</time>
      </trkpt>
      <trkpt lat="45.70991" lon="5.22905">
        <ele>289.8</ele>
        <time>2025-05-18T09:28:05Z</time>
      </trkpt>
      <trkpt lat="45.70992" lon="5.22905">
        <ele>290.2</ele>
        <time>2025-05-18T09:28:06Z</time>
      </trkpt>
      <trkpt lat="45.70992" lon="5.22906">
        <ele>290.2</ele>
        <time>2025-05-18T09:28:07Z</time>
      </trkpt>
      <trkpt lat="45.70992" lon="5.22906">
        <ele>290.2</ele>
        <time>2025-05-18T09:28:08Z</time>
      </trkpt>
      <trkpt lat="45.70992" lon="5.22907">
        <ele>290.6</ele>
        <time>2025-05-18T09:28:09Z</time>
      </trkpt>
      <trkpt lat="45.70992" lon="5.22908">
        <ele>290.6</ele>
        <time>2025-05-18T09:28:10Z</time>
      </trkpt>
      <trkpt lat="45.70993" lon="5.22909">
        <ele>290.8</ele>
        <time>2025-05-18T09:28:11Z</time>
      </trkpt>
      <trkpt lat="45.70993" lon="5.2291">
        <ele>290.8</ele>
        <time>2025-05-18T09:28:12Z</time>
      </trkpt>
      <trkpt lat="45.70994" lon="5.22911">
        <ele>291.2</ele>
        <time>2025-05-18T09:28:13Z</time>
      </trkpt>
      <trkpt lat="45.70995" lon="5.22912">
        <ele>291.4</ele>
        <time>2025-05-18T09:28:14Z</time>
      </trkpt>
      <trkpt lat="45.70996" lon="5.22914">
        <ele>291.6</ele>
        <time>2025-05-18T09:28:15Z</time>
      </trkpt>
      <trkpt lat="45.70996" lon="5.22915">
        <ele>291.6</ele>
        <time>2025-05-18T09:28:16Z</time>
      </trkpt>
      <trkpt lat="45.70995" lon="5.22917">
        <ele>291.8</ele>
        <time>2025-05-18T09:28:17Z</time>
      </trkpt>
      <trkpt lat="45.70995" lon="5.22918">
        <ele>292.2</ele>
        <time>2025-05-18T09:28:18Z</time>
      </trkpt>
      <trkpt lat="45.70995" lon="5.22919">
        <ele>292.4</ele>
        <time>2025-05-18T09:28:19Z</time>
      </trkpt>
      <trkpt lat="45.70996" lon="5.22921">
        <ele>292.4</ele>
        <time>2025-05-18T09:28:20Z</time>
      </trkpt>
      <trkpt lat="45.70996" lon="5.22922">
        <ele>292.6</ele>
        <time>2025-05-18T09:28:21Z</time>
      </trkpt>
      <trkpt lat="45.70996" lon="5.22924">
        <ele>292.6</ele>
        <time>2025-05-18T09:28:22Z</time>
      </trkpt>
      <trkpt lat="45.70996" lon="5.22925">
        <ele>293</ele>
        <time>2025-05-18T09:28:23Z</time>
      </trkpt>
      <trkpt lat="45.70996" lon="5.22927">
        <ele>293</ele>
        <time>2025-05-18T09:28:24Z</time>
      </trkpt>
      <trkpt lat="45.70996" lon="5.22928">
        <ele>293.4</ele>
        <time>2025-05-18T09:28:25Z</time>
      </trkpt>
      <trkpt lat="45.70997" lon="5.22929">
        <ele>293.6</ele>
        <time>2025-05-18T09:28:26Z</time>
      </trkpt>
      <trkpt lat="45.70997" lon="5.2293">
        <ele>293.6</ele>
        <time>2025-05-18T09:28:27Z</time>
      </trkpt>
      <trkpt lat="45.70998" lon="5.22931">
        <ele>294</ele>
        <time>2025-05-18T09:28:28Z</time>
      </trkpt>
      <trkpt lat="45.70998" lon="5.22933">
        <ele>294.2</ele>
        <time>2025-05-18T09:28:29Z</time>
      </trkpt>
      <trkpt lat="45.70998" lon="5.22934">
        <ele>294.2</ele>
        <time>2025-05-18T09:28:30Z</time>
      </trkpt>
      <trkpt lat="45.70999" lon="5.22936">
        <ele>294.2</ele>
        <time>2025-05-18T09:28:31Z</time>
      </trkpt>
      <trkpt lat="45.70999" lon="5.22937">
        <ele>294.6</ele>
        <time>2025-05-18T09:28:32Z</time>
      </trkpt>
      <trkpt lat="45.70999" lon="5.22938">
        <ele>294.8</ele>
        <time>2025-05-18T09:28:33Z</time>
      </trkpt>
      <trkpt lat="45.70999" lon="5.22939">
        <ele>295</ele>
        <time>2025-05-18T09:28:34Z</time>
      </trkpt>
      <trkpt lat="45.71" lon="5.22941">
        <ele>295</ele>
        <time>2025-05-18T09:28:35Z</time>
      </trkpt>
      <trkpt lat="45.71" lon="5.22942">
        <ele>295</ele>
        <time>2025-05-18T09:28:36Z</time>
      </trkpt>
      <trkpt lat="45.71" lon="5.22943">
        <ele>295.4</ele>
        <time>2025-05-18T09:28:37Z</time>
      </trkpt>
      <trkpt lat="45.71" lon="5.22944">
        <ele>295.6</ele>
        <time>2025-05-18T09:28:38Z</time>
      </trkpt>
      <trkpt lat="45.70999" lon="5.22945">
        <ele>295.6</ele>
        <time>2025-05-18T09:28:39Z</time>
      </trkpt>
      <trkpt lat="45.70999" lon="5.22947">
        <ele>295.8</ele>
        <time>2025-05-18T09:28:40Z</time>
      </trkpt>
      <trkpt lat="45.70999" lon="5.22948">
        <ele>295.8</ele>
        <time>2025-05-18T09:28:41Z</time>
      </trkpt>
      <trkpt lat="45.70999" lon="5.22949">
        <ele>295.8</ele>
        <time>2025-05-18T09:28:42Z</time>
      </trkpt>
      <trkpt lat="45.70999" lon="5.22949">
        <ele>296.2</ele>
        <time>2025-05-18T09:28:43Z</time>
      </trkpt>
      <trkpt lat="45.70999" lon="5.22949">
        <ele>296.2</ele>
        <time>2025-05-18T09:28:44Z</time>
      </trkpt>
      <trkpt lat="45.70999" lon="5.2295">
        <ele>296.4</ele>
        <time>2025-05-18T09:28:45Z</time>
      </trkpt>
      <trkpt lat="45.70998" lon="5.2295">
        <ele>296.4</ele>
        <time>2025-05-18T09:28:46Z</time>
      </trkpt>
      <trkpt lat="45.70999" lon="5.22952">
        <ele>296.4</ele>
        <time>2025-05-18T09:28:47Z</time>
      </trkpt>
      <trkpt lat="45.71" lon="5.22955">
        <ele>296.4</ele>
        <time>2025-05-18T09:28:48Z</time>
      </trkpt>
      <trkpt lat="45.71001" lon="5.22958">
        <ele>296.8</ele>
        <time>2025-05-18T09:28:49Z</time>
      </trkpt>
      <trkpt lat="45.71002" lon="5.2296">
        <ele>297</ele>
        <time>2025-05-18T09:28:50Z</time>
      </trkpt>
      <trkpt lat="45.71002" lon="5.22963">
        <ele>297</ele>
        <time>2025-05-18T09:28:51Z</time>
      </trkpt>
      <trkpt lat="45.71003" lon="5.22966">
        <ele>297.4</ele>
        <time>2025-05-18T09:28:52Z</time>
      </trkpt>
      <trkpt lat="45.71003" lon="5.22968">
        <ele>297.4</ele>
        <time>2025-05-18T09:28:53Z</time>
      </trkpt>
      <trkpt lat="45.71004" lon="5.2297">
        <ele>297.4</ele>
        <time>2025-05-18T09:28:54Z</time>
      </trkpt>
      <trkpt lat="45.71005" lon="5.22973">
        <ele>297.6</ele>
        <time>2025-05-18T09:28:55Z</time>
      </trkpt>
      <trkpt lat="45.71006" lon="5.22976">
        <ele>297.6</ele>
        <time>2025-05-18T09:28:56Z</time>
      </trkpt>
      <trkpt lat="45.71006" lon="5.22976">
        <ele>297.6</ele>
        <time>2025-05-18T09:28:57Z</time>
      </trkpt>
      <trkpt lat="45.71007" lon="5.22979">
        <ele>297.6</ele>
        <time>2025-05-18T09:28:58Z</time>
      </trkpt>
      <trkpt lat="45.71008" lon="5.22981">
        <ele>297.6</ele>
        <time>2025-05-18T09:28:59Z</time>
      </trkpt>
      <trkpt lat="45.7101" lon="5.22984">
        <ele>297.8</ele>
        <time>2025-05-18T09:29:00Z</time>
      </trkpt>
      <trkpt lat="45.71011" lon="5.22987">
        <ele>298</ele>
        <time>2025-05-18T09:29:01Z</time>
      </trkpt>
      <trkpt lat="45.71012" lon="5.22989">
        <ele>298.4</ele>
        <time>2025-05-18T09:29:02Z</time>
      </trkpt>
      <trkpt lat="45.71014" lon="5.22992">
        <ele>298.4</ele>
        <time>2025-05-18T09:29:03Z</time>
      </trkpt>
      <trkpt lat="45.71015" lon="5.22995">
        <ele>298.2</ele>
        <time>2025-05-18T09:29:04Z</time>
      </trkpt>
      <trkpt lat="45.71016" lon="5.22998">
        <ele>298.4</ele>
        <time>2025-05-18T09:29:05Z</time>
      </trkpt>
      <trkpt lat="45.71017" lon="5.23001">
        <ele>298.4</ele>
        <time>2025-05-18T09:29:06Z</time>
      </trkpt>
      <trkpt lat="45.71018" lon="5.23005">
        <ele>298.6</ele>
        <time>2025-05-18T09:29:07Z</time>
      </trkpt>
      <trkpt lat="45.71019" lon="5.23008">
        <ele>298.4</ele>
        <time>2025-05-18T09:29:08Z</time>
      </trkpt>
      <trkpt lat="45.71021" lon="5.23011">
        <ele>298</ele>
        <time>2025-05-18T09:29:09Z</time>
      </trkpt>
      <trkpt lat="45.71023" lon="5.23014">
        <ele>297.6</ele>
        <time>2025-05-18T09:29:10Z</time>
      </trkpt>
      <trkpt lat="45.71026" lon="5.23019">
        <ele>297</ele>
        <time>2025-05-18T09:29:11Z</time>
      </trkpt>
      <trkpt lat="45.71029" lon="5.23024">
        <ele>297</ele>
        <time>2025-05-18T09:29:12Z</time>
      </trkpt>
      <trkpt lat="45.71032" lon="5.23029">
        <ele>296.2</ele>
        <time>2025-05-18T09:29:13Z</time>
      </trkpt>
      <trkpt lat="45.71036" lon="5.23035">
        <ele>295.6</ele>
        <time>2025-05-18T09:29:14Z</time>
      </trkpt>
      <trkpt lat="45.7104" lon="5.23042">
        <ele>294.6</ele>
        <time>2025-05-18T09:29:15Z</time>
      </trkpt>
      <trkpt lat="45.71043" lon="5.23048">
        <ele>294.6</ele>
        <time>2025-05-18T09:29:16Z</time>
      </trkpt>
      <trkpt lat="45.71045" lon="5.23053">
        <ele>294.2</ele>
        <time>2025-05-18T09:29:17Z</time>
      </trkpt>
      <trkpt lat="45.71048" lon="5.2306">
        <ele>293.8</ele>
        <time>2025-05-18T09:29:18Z</time>
      </trkpt>
      <trkpt lat="45.71049" lon="5.23065">
        <ele>294.2</ele>
        <time>2025-05-18T09:29:19Z</time>
      </trkpt>
      <trkpt lat="45.7105" lon="5.23071">
        <ele>294</ele>
        <time>2025-05-18T09:29:20Z</time>
      </trkpt>
      <trkpt lat="45.71051" lon="5.23077">
        <ele>293.4</ele>
        <time>2025-05-18T09:29:21Z</time>
      </trkpt>
      <trkpt lat="45.71051" lon="5.2308">
        <ele>293.4</ele>
        <time>2025-05-18T09:29:22Z</time>
      </trkpt>
      <trkpt lat="45.71051" lon="5.23086">
        <ele>293.8</ele>
        <time>2025-05-18T09:29:23Z</time>
      </trkpt>
      <trkpt lat="45.7105" lon="5.23091">
        <ele>293.8</ele>
        <time>2025-05-18T09:29:24Z</time>
      </trkpt>
      <trkpt lat="45.7105" lon="5.23092">
        <ele>294.2</ele>
        <time>2025-05-18T09:29:25Z</time>
      </trkpt>
      <trkpt lat="45.71049" lon="5.23093">
        <ele>294.2</ele>
        <time>2025-05-18T09:29:26Z</time>
      </trkpt>
      <trkpt lat="45.71049" lon="5.23094">
        <ele>294.2</ele>
        <time>2025-05-18T09:29:27Z</time>
      </trkpt>
      <trkpt lat="45.71049" lon="5.23094">
        <ele>294.2</ele>
        <time>2025-05-18T09:29:28Z</time>
      </trkpt>
      <trkpt lat="45.71049" lon="5.23097">
        <ele>294</ele>
        <time>2025-05-18T09:29:36Z</time>
      </trkpt>
      <trkpt lat="45.71048" lon="5.23099">
        <ele>294</ele>
        <time>2025-05-18T09:29:37Z</time>
      </trkpt>
      <trkpt lat="45.71048" lon="5.23101">
        <ele>294</ele>
        <time>2025-05-18T09:29:38Z</time>
      </trkpt>
      <trkpt lat="45.71049" lon="5.23103">
        <ele>294</ele>
        <time>2025-05-18T09:29:39Z</time>
      </trkpt>
      <trkpt lat="45.7105" lon="5.23104">
        <ele>294</ele>
        <time>2025-05-18T09:29:40Z</time>
      </trkpt>
      <trkpt lat="45.7105" lon="5.23106">
        <ele>294</ele>
        <time>2025-05-18T09:29:41Z</time>
      </trkpt>
      <trkpt lat="45.71048" lon="5.23108">
        <ele>294</ele>
        <time>2025-05-18T09:29:42Z</time>
      </trkpt>
      <trkpt lat="45.71045" lon="5.2311">
        <ele>294</ele>
        <time>2025-05-18T09:29:43Z</time>
      </trkpt>
      <trkpt lat="45.71043" lon="5.23111">
        <ele>294</ele>
        <time>2025-05-18T09:29:44Z</time>
      </trkpt>
      <trkpt lat="45.71041" lon="5.23113">
        <ele>294.6</ele>
        <time>2025-05-18T09:29:45Z</time>
      </trkpt>
      <trkpt lat="45.71039" lon="5.23114">
        <ele>294.6</ele>
        <time>2025-05-18T09:29:46Z</time>
      </trkpt>
      <trkpt lat="45.71038" lon="5.23114">
        <ele>294.6</ele>
        <time>2025-05-18T09:29:47Z</time>
      </trkpt>
      <trkpt lat="45.71037" lon="5.23116">
        <ele>294.6</ele>
        <time>2025-05-18T09:29:48Z</time>
      </trkpt>
      <trkpt lat="45.71034" lon="5.23118">
        <ele>294.8</ele>
        <time>2025-05-18T09:29:49Z</time>
      </trkpt>
      <trkpt lat="45.71032" lon="5.23121">
        <ele>295.2</ele>
        <time>2025-05-18T09:29:50Z</time>
      </trkpt>
      <trkpt lat="45.71031" lon="5.23123">
        <ele>295.6</ele>
        <time>2025-05-18T09:29:51Z</time>
      </trkpt>
      <trkpt lat="45.7103" lon="5.23125">
        <ele>296</ele>
        <time>2025-05-18T09:29:52Z</time>
      </trkpt>
      <trkpt lat="45.71029" lon="5.23127">
        <ele>296.4</ele>
        <time>2025-05-18T09:29:53Z</time>
      </trkpt>
      <trkpt lat="45.71029" lon="5.2313">
        <ele>297</ele>
        <time>2025-05-18T09:29:54Z</time>
      </trkpt>
      <trkpt lat="45.71028" lon="5.23133">
        <ele>297</ele>
        <time>2025-05-18T09:29:55Z</time>
      </trkpt>
      <trkpt lat="45.71028" lon="5.23135">
        <ele>297</ele>
        <time>2025-05-18T09:29:56Z</time>
      </trkpt>
      <trkpt lat="45.71028" lon="5.23138">
        <ele>297.4</ele>
        <time>2025-05-18T09:29:57Z</time>
      </trkpt>
      <trkpt lat="45.71028" lon="5.23141">
        <ele>297.8</ele>
        <time>2025-05-18T09:29:58Z</time>
      </trkpt>
      <trkpt lat="45.71027" lon="5.23143">
        <ele>298.2</ele>
        <time>2025-05-18T09:29:59Z</time>
      </trkpt>
      <trkpt lat="45.71026" lon="5.23145">
        <ele>298.4</ele>
        <time>2025-05-18T09:30:00Z</time>
      </trkpt>
      <trkpt lat="45.71026" lon="5.23148">
        <ele>298.4</ele>
        <time>2025-05-18T09:30:01Z</time>
      </trkpt>
      <trkpt lat="45.71025" lon="5.2315">
        <ele>299</ele>
        <time>2025-05-18T09:30:02Z</time>
      </trkpt>
      <trkpt lat="45.71025" lon="5.23153">
        <ele>299.6</ele>
        <time>2025-05-18T09:30:03Z</time>
      </trkpt>
      <trkpt lat="45.71025" lon="5.23154">
        <ele>299.6</ele>
        <time>2025-05-18T09:30:04Z</time>
      </trkpt>
      <trkpt lat="45.71025" lon="5.23155">
        <ele>299.8</ele>
        <time>2025-05-18T09:30:05Z</time>
      </trkpt>
      <trkpt lat="45.71025" lon="5.23157">
        <ele>300.4</ele>
        <time>2025-05-18T09:30:06Z</time>
      </trkpt>
      <trkpt lat="45.71024" lon="5.23158">
        <ele>300.8</ele>
        <time>2025-05-18T09:30:07Z</time>
      </trkpt>
      <trkpt lat="45.71024" lon="5.2316">
        <ele>301</ele>
        <time>2025-05-18T09:30:08Z</time>
      </trkpt>
      <trkpt lat="45.71024" lon="5.23162">
        <ele>301.4</ele>
        <time>2025-05-18T09:30:09Z</time>
      </trkpt>
      <trkpt lat="45.71025" lon="5.23164">
        <ele>301.8</ele>
        <time>2025-05-18T09:30:10Z</time>
      </trkpt>
      <trkpt lat="45.71026" lon="5.23165">
        <ele>302</ele>
        <time>2025-05-18T09:30:11Z</time>
      </trkpt>
      <trkpt lat="45.71026" lon="5.23167">
        <ele>302.4</ele>
        <time>2025-05-18T09:30:12Z</time>
      </trkpt>
      <trkpt lat="45.71025" lon="5.23169">
        <ele>302.4</ele>
        <time>2025-05-18T09:30:13Z</time>
      </trkpt>
      <trkpt lat="45.71025" lon="5.23171">
        <ele>302.8</ele>
        <time>2025-05-18T09:30:14Z</time>
      </trkpt>
      <trkpt lat="45.71025" lon="5.23173">
        <ele>303</ele>
        <time>2025-05-18T09:30:15Z</time>
      </trkpt>
      <trkpt lat="45.71025" lon="5.23175">
        <ele>303.4</ele>
        <time>2025-05-18T09:30:16Z</time>
      </trkpt>
      <trkpt lat="45.71026" lon="5.23176">
        <ele>303.8</ele>
        <time>2025-05-18T09:30:17Z</time>
      </trkpt>
      <trkpt lat="45.71026" lon="5.2318">
        <ele>304.2</ele>
        <time>2025-05-18T09:30:18Z</time>
      </trkpt>
      <trkpt lat="45.71026" lon="5.23183">
        <ele>304.2</ele>
        <time>2025-05-18T09:30:19Z</time>
      </trkpt>
      <trkpt lat="45.71026" lon="5.23184">
        <ele>304.4</ele>
        <time>2025-05-18T09:30:20Z</time>
      </trkpt>
      <trkpt lat="45.71026" lon="5.23186">
        <ele>304.6</ele>
        <time>2025-05-18T09:30:21Z</time>
      </trkpt>
      <trkpt lat="45.71027" lon="5.23188">
        <ele>304.6</ele>
        <time>2025-05-18T09:30:22Z</time>
      </trkpt>
      <trkpt lat="45.71027" lon="5.2319">
        <ele>305</ele>
        <time>2025-05-18T09:30:23Z</time>
      </trkpt>
      <trkpt lat="45.71026" lon="5.23192">
        <ele>305.4</ele>
        <time>2025-05-18T09:30:24Z</time>
      </trkpt>
      <trkpt lat="45.71026" lon="5.23193">
        <ele>305.8</ele>
        <time>2025-05-18T09:30:25Z</time>
      </trkpt>
      <trkpt lat="45.71025" lon="5.23195">
        <ele>305.8</ele>
        <time>2025-05-18T09:30:26Z</time>
      </trkpt>
      <trkpt lat="45.71025" lon="5.23196">
        <ele>306.2</ele>
        <time>2025-05-18T09:30:27Z</time>
      </trkpt>
      <trkpt lat="45.71024" lon="5.23198">
        <ele>306.6</ele>
        <time>2025-05-18T09:30:28Z</time>
      </trkpt>
      <trkpt lat="45.71024" lon="5.23199">
        <ele>307</ele>
        <time>2025-05-18T09:30:29Z</time>
      </trkpt>
      <trkpt lat="45.71024" lon="5.23202">
        <ele>307.2</ele>
        <time>2025-05-18T09:30:30Z</time>
      </trkpt>
      <trkpt lat="45.71024" lon="5.23204">
        <ele>307.4</ele>
        <time>2025-05-18T09:30:31Z</time>
      </trkpt>
      <trkpt lat="45.71024" lon="5.23206">
        <ele>307.6</ele>
        <time>2025-05-18T09:30:32Z</time>
      </trkpt>
      <trkpt lat="45.71024" lon="5.23209">
        <ele>307.8</ele>
        <time>2025-05-18T09:30:33Z</time>
      </trkpt>
      <trkpt lat="45.71024" lon="5.23211">
        <ele>308.2</ele>
        <time>2025-05-18T09:30:34Z</time>
      </trkpt>
      <trkpt lat="45.71024" lon="5.23213">
        <ele>308.2</ele>
        <time>2025-05-18T09:30:35Z</time>
      </trkpt>
      <trkpt lat="45.71024" lon="5.23215">
        <ele>308.6</ele>
        <time>2025-05-18T09:30:36Z</time>
      </trkpt>
      <trkpt lat="45.71024" lon="5.23218">
        <ele>308.6</ele>
        <time>2025-05-18T09:30:37Z</time>
      </trkpt>
      <trkpt lat="45.71024" lon="5.2322">
        <ele>309</ele>
        <time>2025-05-18T09:30:38Z</time>
      </trkpt>
      <trkpt lat="45.71024" lon="5.23222">
        <ele>309</ele>
        <time>2025-05-18T09:30:39Z</time>
      </trkpt>
      <trkpt lat="45.71025" lon="5.23224">
        <ele>309.2</ele>
        <time>2025-05-18T09:30:40Z</time>
      </trkpt>
      <trkpt lat="45.71025" lon="5.23226">
        <ele>309.6</ele>
        <time>2025-05-18T09:30:41Z</time>
      </trkpt>
      <trkpt lat="45.71026" lon="5.23228">
        <ele>309.6</ele>
        <time>2025-05-18T09:30:42Z</time>
      </trkpt>
      <trkpt lat="45.71026" lon="5.23231">
        <ele>310</ele>
        <time>2025-05-18T09:30:43Z</time>
      </trkpt>
      <trkpt lat="45.71026" lon="5.23234">
        <ele>310.4</ele>
        <time>2025-05-18T09:30:44Z</time>
      </trkpt>
      <trkpt lat="45.71026" lon="5.23236">
        <ele>310.4</ele>
        <time>2025-05-18T09:30:45Z</time>
      </trkpt>
      <trkpt lat="45.71026" lon="5.23238">
        <ele>310.8</ele>
        <time>2025-05-18T09:30:46Z</time>
      </trkpt>
      <trkpt lat="45.71027" lon="5.2324">
        <ele>310.8</ele>
        <time>2025-05-18T09:30:47Z</time>
      </trkpt>
      <trkpt lat="45.71028" lon="5.23241">
        <ele>311</ele>
        <time>2025-05-18T09:30:48Z</time>
      </trkpt>
      <trkpt lat="45.71028" lon="5.23243">
        <ele>311.4</ele>
        <time>2025-05-18T09:30:49Z</time>
      </trkpt>
      <trkpt lat="45.71029" lon="5.23244">
        <ele>311.4</ele>
        <time>2025-05-18T09:30:50Z</time>
      </trkpt>
      <trkpt lat="45.71029" lon="5.23245">
        <ele>311.8</ele>
        <time>2025-05-18T09:30:51Z</time>
      </trkpt>
      <trkpt lat="45.71029" lon="5.23246">
        <ele>311.8</ele>
        <time>2025-05-18T09:30:52Z</time>
      </trkpt>
      <trkpt lat="45.71029" lon="5.23247">
        <ele>312.2</ele>
        <time>2025-05-18T09:30:53Z</time>
      </trkpt>
      <trkpt lat="45.71029" lon="5.23249">
        <ele>312.2</ele>
        <time>2025-05-18T09:30:54Z</time>
      </trkpt>
      <trkpt lat="45.71029" lon="5.2325">
        <ele>312.2</ele>
        <time>2025-05-18T09:30:55Z</time>
      </trkpt>
      <trkpt lat="45.71029" lon="5.23253">
        <ele>312.6</ele>
        <time>2025-05-18T09:30:56Z</time>
      </trkpt>
      <trkpt lat="45.71029" lon="5.23254">
        <ele>312.6</ele>
        <time>2025-05-18T09:30:57Z</time>
      </trkpt>
      <trkpt lat="45.71029" lon="5.23254">
        <ele>312.8</ele>
        <time>2025-05-18T09:30:58Z</time>
      </trkpt>
      <trkpt lat="45.7103" lon="5.23255">
        <ele>313</ele>
        <time>2025-05-18T09:30:59Z</time>
      </trkpt>
      <trkpt lat="45.7103" lon="5.23257">
        <ele>313.6</ele>
        <time>2025-05-18T09:31:00Z</time>
      </trkpt>
      <trkpt lat="45.7103" lon="5.23258">
        <ele>314</ele>
        <time>2025-05-18T09:31:01Z</time>
      </trkpt>
      <trkpt lat="45.7103" lon="5.23259">
        <ele>314</ele>
        <time>2025-05-18T09:31:02Z</time>
      </trkpt>
      <trkpt lat="45.7103" lon="5.23261">
        <ele>314.4</ele>
        <time>2025-05-18T09:31:03Z</time>
      </trkpt>
      <trkpt lat="45.71031" lon="5.23263">
        <ele>314.6</ele>
        <time>2025-05-18T09:31:04Z</time>
      </trkpt>
      <trkpt lat="45.71032" lon="5.23264">
        <ele>314.8</ele>
        <time>2025-05-18T09:31:05Z</time>
      </trkpt>
      <trkpt lat="45.71032" lon="5.23265">
        <ele>314.8</ele>
        <time>2025-05-18T09:31:06Z</time>
      </trkpt>
      <trkpt lat="45.71032" lon="5.23266">
        <ele>315.4</ele>
        <time>2025-05-18T09:31:07Z</time>
      </trkpt>
      <trkpt lat="45.71032" lon="5.23266">
        <ele>315.6</ele>
        <time>2025-05-18T09:31:08Z</time>
      </trkpt>
      <trkpt lat="45.71032" lon="5.23266">
        <ele>315.6</ele>
        <time>2025-05-18T09:31:09Z</time>
      </trkpt>
      <trkpt lat="45.71031" lon="5.2327">
        <ele>316.4</ele>
        <time>2025-05-18T09:31:14Z</time>
      </trkpt>
      <trkpt lat="45.71031" lon="5.23271">
        <ele>316.4</ele>
        <time>2025-05-18T09:31:15Z</time>
      </trkpt>
      <trkpt lat="45.71032" lon="5.23272">
        <ele>316.4</ele>
        <time>2025-05-18T09:31:16Z</time>
      </trkpt>
      <trkpt lat="45.71033" lon="5.23274">
        <ele>316.8</ele>
        <time>2025-05-18T09:31:17Z</time>
      </trkpt>
      <trkpt lat="45.71033" lon="5.23275">
        <ele>316.8</ele>
        <time>2025-05-18T09:31:18Z</time>
      </trkpt>
      <trkpt lat="45.71034" lon="5.23276">
        <ele>317</ele>
        <time>2025-05-18T09:31:19Z</time>
      </trkpt>
      <trkpt lat="45.71034" lon="5.23278">
        <ele>317</ele>
        <time>2025-05-18T09:31:20Z</time>
      </trkpt>
      <trkpt lat="45.71035" lon="5.23279">
        <ele>317.4</ele>
        <time>2025-05-18T09:31:21Z</time>
      </trkpt>
      <trkpt lat="45.71035" lon="5.2328">
        <ele>317.4</ele>
        <time>2025-05-18T09:31:22Z</time>
      </trkpt>
      <trkpt lat="45.71036" lon="5.23282">
        <ele>317.8</ele>
        <time>2025-05-18T09:31:23Z</time>
      </trkpt>
      <trkpt lat="45.71038" lon="5.23283">
        <ele>317.8</ele>
        <time>2025-05-18T09:31:24Z</time>
      </trkpt>
      <trkpt lat="45.71038" lon="5.23285">
        <ele>317.8</ele>
        <time>2025-05-18T09:31:25Z</time>
      </trkpt>
      <trkpt lat="45.71039" lon="5.23286">
        <ele>318</ele>
        <time>2025-05-18T09:31:26Z</time>
      </trkpt>
      <trkpt lat="45.71039" lon="5.23287">
        <ele>318</ele>
        <time>2025-05-18T09:31:27Z</time>
      </trkpt>
      <trkpt lat="45.71039" lon="5.23289">
        <ele>318</ele>
        <time>2025-05-18T09:31:28Z</time>
      </trkpt>
      <trkpt lat="45.7104" lon="5.2329">
        <ele>318</ele>
        <time>2025-05-18T09:31:29Z</time>
      </trkpt>
      <trkpt lat="45.71041" lon="5.23292">
        <ele>318.4</ele>
        <time>2025-05-18T09:31:30Z</time>
      </trkpt>
      <trkpt lat="45.71042" lon="5.23293">
        <ele>318.4</ele>
        <time>2025-05-18T09:31:31Z</time>
      </trkpt>
      <trkpt lat="45.71043" lon="5.23294">
        <ele>318.6</ele>
        <time>2025-05-18T09:31:32Z</time>
      </trkpt>
      <trkpt lat="45.71044" lon="5.23295">
        <ele>319</ele>
        <time>2025-05-18T09:31:33Z</time>
      </trkpt>
      <trkpt lat="45.71045" lon="5.23295">
        <ele>319.2</ele>
        <time>2025-05-18T09:31:34Z</time>
      </trkpt>
      <trkpt lat="45.71047" lon="5.23297">
        <ele>319.4</ele>
        <time>2025-05-18T09:31:35Z</time>
      </trkpt>
      <trkpt lat="45.71048" lon="5.23298">
        <ele>319.4</ele>
        <time>2025-05-18T09:31:36Z</time>
      </trkpt>
      <trkpt lat="45.71049" lon="5.23299">
        <ele>319.4</ele>
        <time>2025-05-18T09:31:37Z</time>
      </trkpt>
      <trkpt lat="45.7105" lon="5.23299">
        <ele>319.6</ele>
        <time>2025-05-18T09:31:38Z</time>
      </trkpt>
      <trkpt lat="45.7105" lon="5.23299">
        <ele>319.6</ele>
        <time>2025-05-18T09:31:39Z</time>
      </trkpt>
      <trkpt lat="45.7105" lon="5.23298">
        <ele>319.8</ele>
        <time>2025-05-18T09:31:40Z</time>
      </trkpt>
      <trkpt lat="45.71052" lon="5.23301">
        <ele>320</ele>
        <time>2025-05-18T09:31:43Z</time>
      </trkpt>
      <trkpt lat="45.71053" lon="5.23303">
        <ele>320</ele>
        <time>2025-05-18T09:31:44Z</time>
      </trkpt>
      <trkpt lat="45.71053" lon="5.23305">
        <ele>320</ele>
        <time>2025-05-18T09:31:45Z</time>
      </trkpt>
      <trkpt lat="45.71053" lon="5.23307">
        <ele>320</ele>
        <time>2025-05-18T09:31:46Z</time>
      </trkpt>
      <trkpt lat="45.71054" lon="5.23311">
        <ele>320</ele>
        <time>2025-05-18T09:31:47Z</time>
      </trkpt>
      <trkpt lat="45.71056" lon="5.23315">
        <ele>320</ele>
        <time>2025-05-18T09:31:48Z</time>
      </trkpt>
      <trkpt lat="45.71059" lon="5.23318">
        <ele>320</ele>
        <time>2025-05-18T09:31:49Z</time>
      </trkpt>
      <trkpt lat="45.71061" lon="5.2332">
        <ele>320</ele>
        <time>2025-05-18T09:31:50Z</time>
      </trkpt>
      <trkpt lat="45.71063" lon="5.23323">
        <ele>320</ele>
        <time>2025-05-18T09:31:51Z</time>
      </trkpt>
      <trkpt lat="45.71065" lon="5.23326">
        <ele>320</ele>
        <time>2025-05-18T09:31:52Z</time>
      </trkpt>
      <trkpt lat="45.71067" lon="5.23328">
        <ele>320</ele>
        <time>2025-05-18T09:31:53Z</time>
      </trkpt>
      <trkpt lat="45.71069" lon="5.23331">
        <ele>320</ele>
        <time>2025-05-18T09:31:54Z</time>
      </trkpt>
      <trkpt lat="45.71071" lon="5.23334">
        <ele>319.8</ele>
        <time>2025-05-18T09:31:55Z</time>
      </trkpt>
      <trkpt lat="45.71072" lon="5.23336">
        <ele>319.8</ele>
        <time>2025-05-18T09:31:56Z</time>
      </trkpt>
      <trkpt lat="45.71072" lon="5.23338">
        <ele>319.8</ele>
        <time>2025-05-18T09:31:57Z</time>
      </trkpt>
      <trkpt lat="45.71072" lon="5.23339">
        <ele>319.4</ele>
        <time>2025-05-18T09:31:58Z</time>
      </trkpt>
      <trkpt lat="45.71073" lon="5.23342">
        <ele>319.4</ele>
        <time>2025-05-18T09:31:59Z</time>
      </trkpt>
      <trkpt lat="45.71073" lon="5.23345">
        <ele>319</ele>
        <time>2025-05-18T09:32:00Z</time>
      </trkpt>
      <trkpt lat="45.71074" lon="5.23347">
        <ele>319</ele>
        <time>2025-05-18T09:32:01Z</time>
      </trkpt>
      <trkpt lat="45.71076" lon="5.23349">
        <ele>319</ele>
        <time>2025-05-18T09:32:02Z</time>
      </trkpt>
      <trkpt lat="45.71077" lon="5.2335">
        <ele>318.8</ele>
        <time>2025-05-18T09:32:03Z</time>
      </trkpt>
      <trkpt lat="45.71078" lon="5.23352">
        <ele>318.8</ele>
        <time>2025-05-18T09:32:04Z</time>
      </trkpt>
      <trkpt lat="45.7108" lon="5.23356">
        <ele>318.6</ele>
        <time>2025-05-18T09:32:05Z</time>
      </trkpt>
      <trkpt lat="45.71082" lon="5.2336">
        <ele>318.4</ele>
        <time>2025-05-18T09:32:06Z</time>
      </trkpt>
      <trkpt lat="45.71083" lon="5.23363">
        <ele>318.4</ele>
        <time>2025-05-18T09:32:07Z</time>
      </trkpt>
      <trkpt lat="45.71085" lon="5.23367">
        <ele>317.8</ele>
        <time>2025-05-18T09:32:08Z</time>
      </trkpt>
      <trkpt lat="45.71089" lon="5.23371">
        <ele>317.8</ele>
        <time>2025-05-18T09:32:09Z</time>
      </trkpt>
      <trkpt lat="45.71092" lon="5.23374">
        <ele>318.6</ele>
        <time>2025-05-18T09:32:10Z</time>
      </trkpt>
      <trkpt lat="45.71094" lon="5.23376">
        <ele>318.6</ele>
        <time>2025-05-18T09:32:11Z</time>
      </trkpt>
      <trkpt lat="45.71097" lon="5.23378">
        <ele>318.4</ele>
        <time>2025-05-18T09:32:12Z</time>
      </trkpt>
      <trkpt lat="45.71099" lon="5.2338">
        <ele>318.4</ele>
        <time>2025-05-18T09:32:13Z</time>
      </trkpt>
      <trkpt lat="45.71102" lon="5.23382">
        <ele>318.4</ele>
        <time>2025-05-18T09:32:14Z</time>
      </trkpt>
      <trkpt lat="45.71104" lon="5.23386">
        <ele>318.4</ele>
        <time>2025-05-18T09:32:15Z</time>
      </trkpt>
      <trkpt lat="45.71106" lon="5.23389">
        <ele>318.4</ele>
        <time>2025-05-18T09:32:16Z</time>
      </trkpt>
      <trkpt lat="45.71109" lon="5.23393">
        <ele>318.4</ele>
        <time>2025-05-18T09:32:17Z</time>
      </trkpt>
      <trkpt lat="45.71109" lon="5.23393">
        <ele>318.2</ele>
        <time>2025-05-18T09:32:18Z</time>
      </trkpt>
      <trkpt lat="45.71112" lon="5.23397">
        <ele>318.2</ele>
        <time>2025-05-18T09:32:19Z</time>
      </trkpt>
      <trkpt lat="45.71116" lon="5.234">
        <ele>318.2</ele>
        <time>2025-05-18T09:32:20Z</time>
      </trkpt>
      <trkpt lat="45.71121" lon="5.23402">
        <ele>318</ele>
        <time>2025-05-18T09:32:21Z</time>
      </trkpt>
      <trkpt lat="45.71125" lon="5.23404">
        <ele>318</ele>
        <time>2025-05-18T09:32:22Z</time>
      </trkpt>
      <trkpt lat="45.71128" lon="5.23407">
        <ele>318</ele>
        <time>2025-05-18T09:32:23Z</time>
      </trkpt>
      <trkpt lat="45.71131" lon="5.2341">
        <ele>318.4</ele>
        <time>2025-05-18T09:32:24Z</time>
      </trkpt>
      <trkpt lat="45.71134" lon="5.23413">
        <ele>318.4</ele>
        <time>2025-05-18T09:32:25Z</time>
      </trkpt>
      <trkpt lat="45.71136" lon="5.23416">
        <ele>318</ele>
        <time>2025-05-18T09:32:26Z</time>
      </trkpt>
      <trkpt lat="45.71138" lon="5.23419">
        <ele>318.4</ele>
        <time>2025-05-18T09:32:27Z</time>
      </trkpt>
      <trkpt lat="45.71141" lon="5.23422">
        <ele>318.6</ele>
        <time>2025-05-18T09:32:28Z</time>
      </trkpt>
      <trkpt lat="45.71147" lon="5.23427">
        <ele>317.4</ele>
        <time>2025-05-18T09:32:29Z</time>
      </trkpt>
      <trkpt lat="45.7115" lon="5.23431">
        <ele>318.2</ele>
        <time>2025-05-18T09:32:30Z</time>
      </trkpt>
      <trkpt lat="45.71153" lon="5.23434">
        <ele>318.4</ele>
        <time>2025-05-18T09:32:31Z</time>
      </trkpt>
      <trkpt lat="45.71156" lon="5.23437">
        <ele>319</ele>
        <time>2025-05-18T09:32:32Z</time>
      </trkpt>
      <trkpt lat="45.71159" lon="5.23441">
        <ele>319</ele>
        <time>2025-05-18T09:32:33Z</time>
      </trkpt>
      <trkpt lat="45.71159" lon="5.23444">
        <ele>319.4</ele>
        <time>2025-05-18T09:32:34Z</time>
      </trkpt>
      <trkpt lat="45.71161" lon="5.23449">
        <ele>319.4</ele>
        <time>2025-05-18T09:32:35Z</time>
      </trkpt>
      <trkpt lat="45.71165" lon="5.23452">
        <ele>319.6</ele>
        <time>2025-05-18T09:32:36Z</time>
      </trkpt>
      <trkpt lat="45.71166" lon="5.23456">
        <ele>319.6</ele>
        <time>2025-05-18T09:32:37Z</time>
      </trkpt>
      <trkpt lat="45.71165" lon="5.2346">
        <ele>320.4</ele>
        <time>2025-05-18T09:32:38Z</time>
      </trkpt>
      <trkpt lat="45.71166" lon="5.23462">
        <ele>320.8</ele>
        <time>2025-05-18T09:32:39Z</time>
      </trkpt>
      <trkpt lat="45.71167" lon="5.23465">
        <ele>321</ele>
        <time>2025-05-18T09:32:40Z</time>
      </trkpt>
      <trkpt lat="45.71169" lon="5.23468">
        <ele>321.4</ele>
        <time>2025-05-18T09:32:41Z</time>
      </trkpt>
      <trkpt lat="45.7117" lon="5.2347">
        <ele>321.4</ele>
        <time>2025-05-18T09:32:42Z</time>
      </trkpt>
      <trkpt lat="45.71171" lon="5.23473">
        <ele>321.8</ele>
        <time>2025-05-18T09:32:43Z</time>
      </trkpt>
      <trkpt lat="45.71172" lon="5.23475">
        <ele>322</ele>
        <time>2025-05-18T09:32:44Z</time>
      </trkpt>
      <trkpt lat="45.71172" lon="5.23477">
        <ele>322</ele>
        <time>2025-05-18T09:32:45Z</time>
      </trkpt>
      <trkpt lat="45.71172" lon="5.2348">
        <ele>322.4</ele>
        <time>2025-05-18T09:32:46Z</time>
      </trkpt>
      <trkpt lat="45.71173" lon="5.23483">
        <ele>322.6</ele>
        <time>2025-05-18T09:32:47Z</time>
      </trkpt>
      <trkpt lat="45.71174" lon="5.23485">
        <ele>322.6</ele>
        <time>2025-05-18T09:32:48Z</time>
      </trkpt>
      <trkpt lat="45.71175" lon="5.23489">
        <ele>323.2</ele>
        <time>2025-05-18T09:32:49Z</time>
      </trkpt>
      <trkpt lat="45.71176" lon="5.23491">
        <ele>323.4</ele>
        <time>2025-05-18T09:32:50Z</time>
      </trkpt>
      <trkpt lat="45.71176" lon="5.23494">
        <ele>323.4</ele>
        <time>2025-05-18T09:32:51Z</time>
      </trkpt>
      <trkpt lat="45.71176" lon="5.23496">
        <ele>323.8</ele>
        <time>2025-05-18T09:32:52Z</time>
      </trkpt>
      <trkpt lat="45.71175" lon="5.23498">
        <ele>323.8</ele>
        <time>2025-05-18T09:32:53Z</time>
      </trkpt>
      <trkpt lat="45.71175" lon="5.23501">
        <ele>324.2</ele>
        <time>2025-05-18T09:32:54Z</time>
      </trkpt>
      <trkpt lat="45.71175" lon="5.23503">
        <ele>324.6</ele>
        <time>2025-05-18T09:32:55Z</time>
      </trkpt>
      <trkpt lat="45.71175" lon="5.23506">
        <ele>325</ele>
        <time>2025-05-18T09:32:56Z</time>
      </trkpt>
      <trkpt lat="45.71175" lon="5.23508">
        <ele>325.4</ele>
        <time>2025-05-18T09:32:57Z</time>
      </trkpt>
      <trkpt lat="45.71175" lon="5.23511">
        <ele>326</ele>
        <time>2025-05-18T09:32:58Z</time>
      </trkpt>
      <trkpt lat="45.71175" lon="5.23513">
        <ele>326.2</ele>
        <time>2025-05-18T09:32:59Z</time>
      </trkpt>
      <trkpt lat="45.71175" lon="5.23516">
        <ele>326.2</ele>
        <time>2025-05-18T09:33:00Z</time>
      </trkpt>
      <trkpt lat="45.71175" lon="5.23518">
        <ele>326.6</ele>
        <time>2025-05-18T09:33:01Z</time>
      </trkpt>
      <trkpt lat="45.71174" lon="5.23521">
        <ele>326.6</ele>
        <time>2025-05-18T09:33:02Z</time>
      </trkpt>
      <trkpt lat="45.71174" lon="5.23523">
        <ele>326.6</ele>
        <time>2025-05-18T09:33:03Z</time>
      </trkpt>
      <trkpt lat="45.71173" lon="5.23526">
        <ele>326.6</ele>
        <time>2025-05-18T09:33:04Z</time>
      </trkpt>
      <trkpt lat="45.71172" lon="5.23529">
        <ele>326.6</ele>
        <time>2025-05-18T09:33:05Z</time>
      </trkpt>
      <trkpt lat="45.71171" lon="5.23533">
        <ele>326.6</ele>
        <time>2025-05-18T09:33:06Z</time>
      </trkpt>
      <trkpt lat="45.71169" lon="5.23537">
        <ele>326.8</ele>
        <time>2025-05-18T09:33:07Z</time>
      </trkpt>
      <trkpt lat="45.71168" lon="5.2354">
        <ele>326.2</ele>
        <time>2025-05-18T09:33:08Z</time>
      </trkpt>
      <trkpt lat="45.71166" lon="5.23543">
        <ele>326.2</ele>
        <time>2025-05-18T09:33:09Z</time>
      </trkpt>
      <trkpt lat="45.71164" lon="5.23547">
        <ele>325.6</ele>
        <time>2025-05-18T09:33:10Z</time>
      </trkpt>
      <trkpt lat="45.71161" lon="5.23551">
        <ele>324.8</ele>
        <time>2025-05-18T09:33:11Z</time>
      </trkpt>
      <trkpt lat="45.71157" lon="5.23555">
        <ele>324</ele>
        <time>2025-05-18T09:33:12Z</time>
      </trkpt>
      <trkpt lat="45.71154" lon="5.23559">
        <ele>324</ele>
        <time>2025-05-18T09:33:13Z</time>
      </trkpt>
      <trkpt lat="45.7115" lon="5.23562">
        <ele>324</ele>
        <time>2025-05-18T09:33:14Z</time>
      </trkpt>
      <trkpt lat="45.71147" lon="5.23566">
        <ele>324</ele>
        <time>2025-05-18T09:33:15Z</time>
      </trkpt>
      <trkpt lat="45.71143" lon="5.2357">
        <ele>324.2</ele>
        <time>2025-05-18T09:33:16Z</time>
      </trkpt>
      <trkpt lat="45.71141" lon="5.23572">
        <ele>324.4</ele>
        <time>2025-05-18T09:33:17Z</time>
      </trkpt>
      <trkpt lat="45.71139" lon="5.23575">
        <ele>324.4</ele>
        <time>2025-05-18T09:33:18Z</time>
      </trkpt>
      <trkpt lat="45.71137" lon="5.23577">
        <ele>324.6</ele>
        <time>2025-05-18T09:33:19Z</time>
      </trkpt>
      <trkpt lat="45.71135" lon="5.23578">
        <ele>324.4</ele>
        <time>2025-05-18T09:33:20Z</time>
      </trkpt>
      <trkpt lat="45.71134" lon="5.2358">
        <ele>324.4</ele>
        <time>2025-05-18T09:33:21Z</time>
      </trkpt>
      <trkpt lat="45.71133" lon="5.2358">
        <ele>324.8</ele>
        <time>2025-05-18T09:33:22Z</time>
      </trkpt>
      <trkpt lat="45.71132" lon="5.23582">
        <ele>324.8</ele>
        <time>2025-05-18T09:33:23Z</time>
      </trkpt>
      <trkpt lat="45.71131" lon="5.23582">
        <ele>325</ele>
        <time>2025-05-18T09:33:24Z</time>
      </trkpt>
      <trkpt lat="45.71128" lon="5.23584">
        <ele>325</ele>
        <time>2025-05-18T09:33:25Z</time>
      </trkpt>
      <trkpt lat="45.71126" lon="5.23585">
        <ele>325</ele>
        <time>2025-05-18T09:33:26Z</time>
      </trkpt>
      <trkpt lat="45.71124" lon="5.23587">
        <ele>325.2</ele>
        <time>2025-05-18T09:33:27Z</time>
      </trkpt>
      <trkpt lat="45.71122" lon="5.23589">
        <ele>325.6</ele>
        <time>2025-05-18T09:33:28Z</time>
      </trkpt>
      <trkpt lat="45.7112" lon="5.23591">
        <ele>325.6</ele>
        <time>2025-05-18T09:33:29Z</time>
      </trkpt>
      <trkpt lat="45.71118" lon="5.23593">
        <ele>325.6</ele>
        <time>2025-05-18T09:33:30Z</time>
      </trkpt>
      <trkpt lat="45.71116" lon="5.23595">
        <ele>325.6</ele>
        <time>2025-05-18T09:33:31Z</time>
      </trkpt>
      <trkpt lat="45.71115" lon="5.23596">
        <ele>325.2</ele>
        <time>2025-05-18T09:33:32Z</time>
      </trkpt>
      <trkpt lat="45.71114" lon="5.23598">
        <ele>325.2</ele>
        <time>2025-05-18T09:33:33Z</time>
      </trkpt>
      <trkpt lat="45.71112" lon="5.236">
        <ele>325.2</ele>
        <time>2025-05-18T09:33:34Z</time>
      </trkpt>
      <trkpt lat="45.71111" lon="5.23602">
        <ele>325.2</ele>
        <time>2025-05-18T09:33:35Z</time>
      </trkpt>
      <trkpt lat="45.71109" lon="5.23605">
        <ele>325.2</ele>
        <time>2025-05-18T09:33:36Z</time>
      </trkpt>
      <trkpt lat="45.71106" lon="5.23608">
        <ele>325.2</ele>
        <time>2025-05-18T09:33:37Z</time>
      </trkpt>
      <trkpt lat="45.71103" lon="5.2361">
        <ele>325.2</ele>
        <time>2025-05-18T09:33:38Z</time>
      </trkpt>
      <trkpt lat="45.71099" lon="5.23612">
        <ele>324.8</ele>
        <time>2025-05-18T09:33:39Z</time>
      </trkpt>
      <trkpt lat="45.71096" lon="5.23614">
        <ele>324.8</ele>
        <time>2025-05-18T09:33:40Z</time>
      </trkpt>
      <trkpt lat="45.71093" lon="5.23615">
        <ele>325.2</ele>
        <time>2025-05-18T09:33:41Z</time>
      </trkpt>
      <trkpt lat="45.71089" lon="5.23617">
        <ele>325.6</ele>
        <time>2025-05-18T09:33:42Z</time>
      </trkpt>
      <trkpt lat="45.71086" lon="5.23619">
        <ele>325.8</ele>
        <time>2025-05-18T09:33:43Z</time>
      </trkpt>
      <trkpt lat="45.71086" lon="5.23619">
        <ele>325.8</ele>
        <time>2025-05-18T09:33:44Z</time>
      </trkpt>
      <trkpt lat="45.71078" lon="5.23624">
        <ele>325.8</ele>
        <time>2025-05-18T09:33:47Z</time>
      </trkpt>
      <trkpt lat="45.71076" lon="5.23625">
        <ele>326.2</ele>
        <time>2025-05-18T09:33:48Z</time>
      </trkpt>
      <trkpt lat="45.71075" lon="5.23627">
        <ele>326.2</ele>
        <time>2025-05-18T09:33:49Z</time>
      </trkpt>
      <trkpt lat="45.71072" lon="5.2363">
        <ele>326.2</ele>
        <time>2025-05-18T09:33:50Z</time>
      </trkpt>
      <trkpt lat="45.71071" lon="5.23632">
        <ele>326.4</ele>
        <time>2025-05-18T09:33:51Z</time>
      </trkpt>
      <trkpt lat="45.71069" lon="5.23634">
        <ele>326.2</ele>
        <time>2025-05-18T09:33:52Z</time>
      </trkpt>
      <trkpt lat="45.71067" lon="5.23638">
        <ele>326.2</ele>
        <time>2025-05-18T09:33:53Z</time>
      </trkpt>
      <trkpt lat="45.71064" lon="5.23641">
        <ele>326.6</ele>
        <time>2025-05-18T09:33:54Z</time>
      </trkpt>
      <trkpt lat="45.71061" lon="5.23644">
        <ele>326.4</ele>
        <time>2025-05-18T09:33:55Z</time>
      </trkpt>
      <trkpt lat="45.71059" lon="5.23647">
        <ele>326.4</ele>
        <time>2025-05-18T09:33:56Z</time>
      </trkpt>
      <trkpt lat="45.71056" lon="5.2365">
        <ele>326.4</ele>
        <time>2025-05-18T09:33:57Z</time>
      </trkpt>
      <trkpt lat="45.71053" lon="5.23652">
        <ele>326.4</ele>
        <time>2025-05-18T09:33:58Z</time>
      </trkpt>
      <trkpt lat="45.71049" lon="5.23655">
        <ele>326.4</ele>
        <time>2025-05-18T09:33:59Z</time>
      </trkpt>
      <trkpt lat="45.71045" lon="5.23657">
        <ele>325.8</ele>
        <time>2025-05-18T09:34:00Z</time>
      </trkpt>
      <trkpt lat="45.71041" lon="5.23659">
        <ele>325.8</ele>
        <time>2025-05-18T09:34:01Z</time>
      </trkpt>
      <trkpt lat="45.71036" lon="5.23659">
        <ele>325.2</ele>
        <time>2025-05-18T09:34:02Z</time>
      </trkpt>
      <trkpt lat="45.71032" lon="5.23661">
        <ele>325.2</ele>
        <time>2025-05-18T09:34:03Z</time>
      </trkpt>
      <trkpt lat="45.71027" lon="5.23663">
        <ele>325.2</ele>
        <time>2025-05-18T09:34:04Z</time>
      </trkpt>
      <trkpt lat="45.71023" lon="5.23665">
        <ele>325.2</ele>
        <time>2025-05-18T09:34:05Z</time>
      </trkpt>
      <trkpt lat="45.71019" lon="5.23668">
        <ele>325.2</ele>
        <time>2025-05-18T09:34:06Z</time>
      </trkpt>
      <trkpt lat="45.71016" lon="5.2367">
        <ele>325</ele>
        <time>2025-05-18T09:34:07Z</time>
      </trkpt>
      <trkpt lat="45.71012" lon="5.23672">
        <ele>325</ele>
        <time>2025-05-18T09:34:08Z</time>
      </trkpt>
      <trkpt lat="45.71008" lon="5.23674">
        <ele>325</ele>
        <time>2025-05-18T09:34:09Z</time>
      </trkpt>
      <trkpt lat="45.71005" lon="5.23675">
        <ele>325</ele>
        <time>2025-05-18T09:34:10Z</time>
      </trkpt>
      <trkpt lat="45.71" lon="5.23677">
        <ele>325.2</ele>
        <time>2025-05-18T09:34:11Z</time>
      </trkpt>
      <trkpt lat="45.70996" lon="5.23679">
        <ele>325.2</ele>
        <time>2025-05-18T09:34:12Z</time>
      </trkpt>
      <trkpt lat="45.70991" lon="5.23681">
        <ele>325.6</ele>
        <time>2025-05-18T09:34:13Z</time>
      </trkpt>
      <trkpt lat="45.70987" lon="5.23684">
        <ele>324.8</ele>
        <time>2025-05-18T09:34:14Z</time>
      </trkpt>
      <trkpt lat="45.70982" lon="5.23684">
        <ele>323.2</ele>
        <time>2025-05-18T09:34:15Z</time>
      </trkpt>
      <trkpt lat="45.70978" lon="5.23686">
        <ele>323.2</ele>
        <time>2025-05-18T09:34:16Z</time>
      </trkpt>
      <trkpt lat="45.70975" lon="5.23686">
        <ele>323.8</ele>
        <time>2025-05-18T09:34:17Z</time>
      </trkpt>
      <trkpt lat="45.70972" lon="5.23688">
        <ele>323.8</ele>
        <time>2025-05-18T09:34:18Z</time>
      </trkpt>
      <trkpt lat="45.70968" lon="5.23689">
        <ele>324.2</ele>
        <time>2025-05-18T09:34:19Z</time>
      </trkpt>
      <trkpt lat="45.70965" lon="5.23691">
        <ele>324.2</ele>
        <time>2025-05-18T09:34:20Z</time>
      </trkpt>
      <trkpt lat="45.70962" lon="5.23692">
        <ele>324.4</ele>
        <time>2025-05-18T09:34:21Z</time>
      </trkpt>
      <trkpt lat="45.70959" lon="5.23693">
        <ele>324.4</ele>
        <time>2025-05-18T09:34:22Z</time>
      </trkpt>
      <trkpt lat="45.70956" lon="5.23694">
        <ele>323.8</ele>
        <time>2025-05-18T09:34:23Z</time>
      </trkpt>
      <trkpt lat="45.70953" lon="5.23694">
        <ele>323.8</ele>
        <time>2025-05-18T09:34:24Z</time>
      </trkpt>
      <trkpt lat="45.70949" lon="5.23694">
        <ele>324.4</ele>
        <time>2025-05-18T09:34:25Z</time>
      </trkpt>
      <trkpt lat="45.70945" lon="5.23694">
        <ele>324.6</ele>
        <time>2025-05-18T09:34:26Z</time>
      </trkpt>
      <trkpt lat="45.70945" lon="5.23694">
        <ele>324.6</ele>
        <time>2025-05-18T09:34:27Z</time>
      </trkpt>
      <trkpt lat="45.70945" lon="5.23694">
        <ele>325.4</ele>
        <time>2025-05-18T09:34:28Z</time>
      </trkpt>
      <trkpt lat="45.70934" lon="5.23696">
        <ele>325.6</ele>
        <time>2025-05-18T09:34:29Z</time>
      </trkpt>
      <trkpt lat="45.7093" lon="5.23697">
        <ele>325.6</ele>
        <time>2025-05-18T09:34:30Z</time>
      </trkpt>
      <trkpt lat="45.70926" lon="5.23698">
        <ele>326</ele>
        <time>2025-05-18T09:34:31Z</time>
      </trkpt>
      <trkpt lat="45.70922" lon="5.23699">
        <ele>326</ele>
        <time>2025-05-18T09:34:32Z</time>
      </trkpt>
      <trkpt lat="45.70919" lon="5.23701">
        <ele>326.4</ele>
        <time>2025-05-18T09:34:33Z</time>
      </trkpt>
      <trkpt lat="45.70915" lon="5.23703">
        <ele>326.4</ele>
        <time>2025-05-18T09:34:34Z</time>
      </trkpt>
      <trkpt lat="45.70912" lon="5.23704">
        <ele>326.4</ele>
        <time>2025-05-18T09:34:35Z</time>
      </trkpt>
      <trkpt lat="45.7091" lon="5.23705">
        <ele>326.8</ele>
        <time>2025-05-18T09:34:36Z</time>
      </trkpt>
      <trkpt lat="45.70906" lon="5.23705">
        <ele>327</ele>
        <time>2025-05-18T09:34:37Z</time>
      </trkpt>
      <trkpt lat="45.70903" lon="5.23705">
        <ele>327.4</ele>
        <time>2025-05-18T09:34:38Z</time>
      </trkpt>
      <trkpt lat="45.709" lon="5.23705">
        <ele>327.8</ele>
        <time>2025-05-18T09:34:39Z</time>
      </trkpt>
      <trkpt lat="45.70898" lon="5.23704">
        <ele>328.4</ele>
        <time>2025-05-18T09:34:40Z</time>
      </trkpt>
      <trkpt lat="45.70895" lon="5.23704">
        <ele>328.6</ele>
        <time>2025-05-18T09:34:41Z</time>
      </trkpt>
      <trkpt lat="45.70893" lon="5.23704">
        <ele>328.6</ele>
        <time>2025-05-18T09:34:42Z</time>
      </trkpt>
      <trkpt lat="45.7089" lon="5.23704">
        <ele>328.6</ele>
        <time>2025-05-18T09:34:43Z</time>
      </trkpt>
      <trkpt lat="45.70888" lon="5.23704">
        <ele>329</ele>
        <time>2025-05-18T09:34:44Z</time>
      </trkpt>
      <trkpt lat="45.70887" lon="5.23703">
        <ele>329.4</ele>
        <time>2025-05-18T09:34:45Z</time>
      </trkpt>
      <trkpt lat="45.70885" lon="5.23702">
        <ele>329.4</ele>
        <time>2025-05-18T09:34:46Z</time>
      </trkpt>
      <trkpt lat="45.70882" lon="5.23701">
        <ele>329.6</ele>
        <time>2025-05-18T09:34:47Z</time>
      </trkpt>
      <trkpt lat="45.70879" lon="5.237">
        <ele>329.8</ele>
        <time>2025-05-18T09:34:48Z</time>
      </trkpt>
      <trkpt lat="45.70877" lon="5.23699">
        <ele>329.8</ele>
        <time>2025-05-18T09:34:49Z</time>
      </trkpt>
      <trkpt lat="45.70875" lon="5.23698">
        <ele>329.8</ele>
        <time>2025-05-18T09:34:50Z</time>
      </trkpt>
      <trkpt lat="45.70873" lon="5.23698">
        <ele>330</ele>
        <time>2025-05-18T09:34:51Z</time>
      </trkpt>
      <trkpt lat="45.70872" lon="5.23697">
        <ele>330.4</ele>
        <time>2025-05-18T09:34:52Z</time>
      </trkpt>
      <trkpt lat="45.7087" lon="5.23696">
        <ele>330.8</ele>
        <time>2025-05-18T09:34:53Z</time>
      </trkpt>
      <trkpt lat="45.70869" lon="5.23695">
        <ele>331.2</ele>
        <time>2025-05-18T09:34:54Z</time>
      </trkpt>
      <trkpt lat="45.70867" lon="5.23695">
        <ele>331.8</ele>
        <time>2025-05-18T09:34:55Z</time>
      </trkpt>
      <trkpt lat="45.70865" lon="5.23694">
        <ele>332</ele>
        <time>2025-05-18T09:34:56Z</time>
      </trkpt>
      <trkpt lat="45.70864" lon="5.23694">
        <ele>332</ele>
        <time>2025-05-18T09:34:57Z</time>
      </trkpt>
      <trkpt lat="45.70863" lon="5.23695">
        <ele>332.4</ele>
        <time>2025-05-18T09:34:58Z</time>
      </trkpt>
      <trkpt lat="45.70861" lon="5.23696">
        <ele>332.4</ele>
        <time>2025-05-18T09:34:59Z</time>
      </trkpt>
      <trkpt lat="45.70859" lon="5.23697">
        <ele>332.4</ele>
        <time>2025-05-18T09:35:00Z</time>
      </trkpt>
      <trkpt lat="45.70857" lon="5.23698">
        <ele>332.4</ele>
        <time>2025-05-18T09:35:01Z</time>
      </trkpt>
      <trkpt lat="45.70855" lon="5.23699">
        <ele>332.4</ele>
        <time>2025-05-18T09:35:02Z</time>
      </trkpt>
      <trkpt lat="45.70853" lon="5.23699">
        <ele>332.6</ele>
        <time>2025-05-18T09:35:03Z</time>
      </trkpt>
      <trkpt lat="45.7085" lon="5.23699">
        <ele>332.6</ele>
        <time>2025-05-18T09:35:04Z</time>
      </trkpt>
      <trkpt lat="45.70847" lon="5.237">
        <ele>332.6</ele>
        <time>2025-05-18T09:35:05Z</time>
      </trkpt>
      <trkpt lat="45.70845" lon="5.237">
        <ele>332.6</ele>
        <time>2025-05-18T09:35:06Z</time>
      </trkpt>
      <trkpt lat="45.70842" lon="5.23701">
        <ele>332.8</ele>
        <time>2025-05-18T09:35:07Z</time>
      </trkpt>
      <trkpt lat="45.70839" lon="5.23702">
        <ele>332.8</ele>
        <time>2025-05-18T09:35:08Z</time>
      </trkpt>
      <trkpt lat="45.70836" lon="5.23702">
        <ele>332.8</ele>
        <time>2025-05-18T09:35:09Z</time>
      </trkpt>
      <trkpt lat="45.70833" lon="5.23702">
        <ele>332.8</ele>
        <time>2025-05-18T09:35:10Z</time>
      </trkpt>
      <trkpt lat="45.7083" lon="5.23703">
        <ele>332.8</ele>
        <time>2025-05-18T09:35:11Z</time>
      </trkpt>
      <trkpt lat="45.70826" lon="5.23703">
        <ele>332.8</ele>
        <time>2025-05-18T09:35:12Z</time>
      </trkpt>
      <trkpt lat="45.70824" lon="5.23704">
        <ele>332.8</ele>
        <time>2025-05-18T09:35:13Z</time>
      </trkpt>
      <trkpt lat="45.7082" lon="5.23705">
        <ele>333.2</ele>
        <time>2025-05-18T09:35:14Z</time>
      </trkpt>
      <trkpt lat="45.70815" lon="5.23705">
        <ele>333.2</ele>
        <time>2025-05-18T09:35:15Z</time>
      </trkpt>
      <trkpt lat="45.70811" lon="5.23706">
        <ele>333.2</ele>
        <time>2025-05-18T09:35:16Z</time>
      </trkpt>
      <trkpt lat="45.70808" lon="5.23707">
        <ele>333.4</ele>
        <time>2025-05-18T09:35:17Z</time>
      </trkpt>
      <trkpt lat="45.70804" lon="5.23709">
        <ele>333</ele>
        <time>2025-05-18T09:35:18Z</time>
      </trkpt>
      <trkpt lat="45.70801" lon="5.23711">
        <ele>332.6</ele>
        <time>2025-05-18T09:35:19Z</time>
      </trkpt>
      <trkpt lat="45.70799" lon="5.23713">
        <ele>333</ele>
        <time>2025-05-18T09:35:20Z</time>
      </trkpt>
      <trkpt lat="45.70797" lon="5.23716">
        <ele>333</ele>
        <time>2025-05-18T09:35:21Z</time>
      </trkpt>
      <trkpt lat="45.70795" lon="5.23719">
        <ele>333.2</ele>
        <time>2025-05-18T09:35:22Z</time>
      </trkpt>
      <trkpt lat="45.70793" lon="5.23723">
        <ele>333.6</ele>
        <time>2025-05-18T09:35:23Z</time>
      </trkpt>
      <trkpt lat="45.7079" lon="5.23727">
        <ele>334</ele>
        <time>2025-05-18T09:35:24Z</time>
      </trkpt>
      <trkpt lat="45.70787" lon="5.23731">
        <ele>334</ele>
        <time>2025-05-18T09:35:25Z</time>
      </trkpt>
      <trkpt lat="45.70784" lon="5.23735">
        <ele>333.8</ele>
        <time>2025-05-18T09:35:26Z</time>
      </trkpt>
      <trkpt lat="45.70782" lon="5.23739">
        <ele>333.8</ele>
        <time>2025-05-18T09:35:27Z</time>
      </trkpt>
      <trkpt lat="45.7078" lon="5.23746">
        <ele>334</ele>
        <time>2025-05-18T09:35:28Z</time>
      </trkpt>
      <trkpt lat="45.70777" lon="5.2375">
        <ele>334</ele>
        <time>2025-05-18T09:35:29Z</time>
      </trkpt>
      <trkpt lat="45.70776" lon="5.23753">
        <ele>334</ele>
        <time>2025-05-18T09:35:30Z</time>
      </trkpt>
      <trkpt lat="45.70773" lon="5.23756">
        <ele>334</ele>
        <time>2025-05-18T09:35:31Z</time>
      </trkpt>
      <trkpt lat="45.7077" lon="5.23758">
        <ele>333.6</ele>
        <time>2025-05-18T09:35:32Z</time>
      </trkpt>
      <trkpt lat="45.70768" lon="5.23763">
        <ele>333.8</ele>
        <time>2025-05-18T09:35:33Z</time>
      </trkpt>
      <trkpt lat="45.70765" lon="5.23763">
        <ele>334.6</ele>
        <time>2025-05-18T09:35:34Z</time>
      </trkpt>
      <trkpt lat="45.70764" lon="5.23766">
        <ele>334.6</ele>
        <time>2025-05-18T09:35:35Z</time>
      </trkpt>
      <trkpt lat="45.70761" lon="5.23768">
        <ele>335</ele>
        <time>2025-05-18T09:35:36Z</time>
      </trkpt>
      <trkpt lat="45.70758" lon="5.23771">
        <ele>334.8</ele>
        <time>2025-05-18T09:35:37Z</time>
      </trkpt>
      <trkpt lat="45.70755" lon="5.23773">
        <ele>335</ele>
        <time>2025-05-18T09:35:38Z</time>
      </trkpt>
      <trkpt lat="45.70752" lon="5.23775">
        <ele>335.4</ele>
        <time>2025-05-18T09:35:39Z</time>
      </trkpt>
      <trkpt lat="45.70749" lon="5.23776">
        <ele>335.4</ele>
        <time>2025-05-18T09:35:40Z</time>
      </trkpt>
      <trkpt lat="45.70746" lon="5.23777">
        <ele>335.6</ele>
        <time>2025-05-18T09:35:41Z</time>
      </trkpt>
      <trkpt lat="45.70744" lon="5.23777">
        <ele>336</ele>
        <time>2025-05-18T09:35:42Z</time>
      </trkpt>
      <trkpt lat="45.70743" lon="5.23778">
        <ele>336.4</ele>
        <time>2025-05-18T09:35:43Z</time>
      </trkpt>
      <trkpt lat="45.70742" lon="5.23779">
        <ele>336.4</ele>
        <time>2025-05-18T09:35:44Z</time>
      </trkpt>
      <trkpt lat="45.70741" lon="5.2378">
        <ele>336.6</ele>
        <time>2025-05-18T09:35:45Z</time>
      </trkpt>
      <trkpt lat="45.7074" lon="5.23781">
        <ele>337.2</ele>
        <time>2025-05-18T09:35:46Z</time>
      </trkpt>
      <trkpt lat="45.70738" lon="5.23782">
        <ele>337.2</ele>
        <time>2025-05-18T09:35:47Z</time>
      </trkpt>
      <trkpt lat="45.70738" lon="5.23784">
        <ele>337.6</ele>
        <time>2025-05-18T09:35:48Z</time>
      </trkpt>
      <trkpt lat="45.70737" lon="5.23786">
        <ele>337.8</ele>
        <time>2025-05-18T09:35:49Z</time>
      </trkpt>
      <trkpt lat="45.70736" lon="5.23787">
        <ele>338.2</ele>
        <time>2025-05-18T09:35:50Z</time>
      </trkpt>
      <trkpt lat="45.70735" lon="5.23788">
        <ele>338.4</ele>
        <time>2025-05-18T09:35:51Z</time>
      </trkpt>
      <trkpt lat="45.70734" lon="5.23789">
        <ele>338.4</ele>
        <time>2025-05-18T09:35:52Z</time>
      </trkpt>
      <trkpt lat="45.70733" lon="5.2379">
        <ele>339</ele>
        <time>2025-05-18T09:35:53Z</time>
      </trkpt>
      <trkpt lat="45.70732" lon="5.23791">
        <ele>339.4</ele>
        <time>2025-05-18T09:35:54Z</time>
      </trkpt>
      <trkpt lat="45.70731" lon="5.23792">
        <ele>339.8</ele>
        <time>2025-05-18T09:35:55Z</time>
      </trkpt>
      <trkpt lat="45.70731" lon="5.23792">
        <ele>340</ele>
        <time>2025-05-18T09:35:56Z</time>
      </trkpt>
      <trkpt lat="45.7073" lon="5.23793">
        <ele>340.4</ele>
        <time>2025-05-18T09:35:57Z</time>
      </trkpt>
      <trkpt lat="45.7073" lon="5.23793">
        <ele>340.6</ele>
        <time>2025-05-18T09:35:58Z</time>
      </trkpt>
      <trkpt lat="45.70729" lon="5.23794">
        <ele>340.6</ele>
        <time>2025-05-18T09:35:59Z</time>
      </trkpt>
      <trkpt lat="45.70728" lon="5.23796">
        <ele>341</ele>
        <time>2025-05-18T09:36:00Z</time>
      </trkpt>
      <trkpt lat="45.70726" lon="5.23797">
        <ele>341.2</ele>
        <time>2025-05-18T09:36:01Z</time>
      </trkpt>
      <trkpt lat="45.70724" lon="5.23798">
        <ele>341.6</ele>
        <time>2025-05-18T09:36:02Z</time>
      </trkpt>
      <trkpt lat="45.70723" lon="5.23799">
        <ele>341.8</ele>
        <time>2025-05-18T09:36:03Z</time>
      </trkpt>
      <trkpt lat="45.70721" lon="5.23799">
        <ele>342</ele>
        <time>2025-05-18T09:36:04Z</time>
      </trkpt>
      <trkpt lat="45.7072" lon="5.238">
        <ele>342.4</ele>
        <time>2025-05-18T09:36:05Z</time>
      </trkpt>
      <trkpt lat="45.70719" lon="5.238">
        <ele>342.6</ele>
        <time>2025-05-18T09:36:06Z</time>
      </trkpt>
      <trkpt lat="45.70717" lon="5.23801">
        <ele>342.6</ele>
        <time>2025-05-18T09:36:07Z</time>
      </trkpt>
      <trkpt lat="45.70716" lon="5.23802">
        <ele>342.8</ele>
        <time>2025-05-18T09:36:08Z</time>
      </trkpt>
      <trkpt lat="45.70716" lon="5.23803">
        <ele>343.2</ele>
        <time>2025-05-18T09:36:09Z</time>
      </trkpt>
      <trkpt lat="45.70715" lon="5.23804">
        <ele>343.6</ele>
        <time>2025-05-18T09:36:10Z</time>
      </trkpt>
      <trkpt lat="45.70715" lon="5.23806">
        <ele>343.8</ele>
        <time>2025-05-18T09:36:11Z</time>
      </trkpt>
      <trkpt lat="45.70714" lon="5.23808">
        <ele>344.2</ele>
        <time>2025-05-18T09:36:12Z</time>
      </trkpt>
      <trkpt lat="45.70713" lon="5.23809">
        <ele>344.4</ele>
        <time>2025-05-18T09:36:13Z</time>
      </trkpt>
      <trkpt lat="45.70712" lon="5.23811">
        <ele>344.6</ele>
        <time>2025-05-18T09:36:14Z</time>
      </trkpt>
      <trkpt lat="45.70711" lon="5.23812">
        <ele>345</ele>
        <time>2025-05-18T09:36:15Z</time>
      </trkpt>
      <trkpt lat="45.7071" lon="5.23813">
        <ele>345.4</ele>
        <time>2025-05-18T09:36:16Z</time>
      </trkpt>
      <trkpt lat="45.70709" lon="5.23814">
        <ele>345.6</ele>
        <time>2025-05-18T09:36:17Z</time>
      </trkpt>
      <trkpt lat="45.70709" lon="5.23815">
        <ele>345.6</ele>
        <time>2025-05-18T09:36:18Z</time>
      </trkpt>
      <trkpt lat="45.70708" lon="5.23816">
        <ele>345.8</ele>
        <time>2025-05-18T09:36:19Z</time>
      </trkpt>
      <trkpt lat="45.70709" lon="5.23818">
        <ele>346.2</ele>
        <time>2025-05-18T09:36:20Z</time>
      </trkpt>
      <trkpt lat="45.70709" lon="5.23819">
        <ele>346.4</ele>
        <time>2025-05-18T09:36:21Z</time>
      </trkpt>
      <trkpt lat="45.70709" lon="5.2382">
        <ele>346.8</ele>
        <time>2025-05-18T09:36:22Z</time>
      </trkpt>
      <trkpt lat="45.70709" lon="5.23822">
        <ele>347</ele>
        <time>2025-05-18T09:36:23Z</time>
      </trkpt>
      <trkpt lat="45.70708" lon="5.23823">
        <ele>347.4</ele>
        <time>2025-05-18T09:36:24Z</time>
      </trkpt>
      <trkpt lat="45.70708" lon="5.23824">
        <ele>347.6</ele>
        <time>2025-05-18T09:36:25Z</time>
      </trkpt>
      <trkpt lat="45.70707" lon="5.23825">
        <ele>347.8</ele>
        <time>2025-05-18T09:36:26Z</time>
      </trkpt>
      <trkpt lat="45.70705" lon="5.23827">
        <ele>348.2</ele>
        <time>2025-05-18T09:36:27Z</time>
      </trkpt>
      <trkpt lat="45.70704" lon="5.23828">
        <ele>348.4</ele>
        <time>2025-05-18T09:36:28Z</time>
      </trkpt>
      <trkpt lat="45.70702" lon="5.23829">
        <ele>348.4</ele>
        <time>2025-05-18T09:36:29Z</time>
      </trkpt>
      <trkpt lat="45.70701" lon="5.2383">
        <ele>348.4</ele>
        <time>2025-05-18T09:36:30Z</time>
      </trkpt>
      <trkpt lat="45.70699" lon="5.23831">
        <ele>348.6</ele>
        <time>2025-05-18T09:36:31Z</time>
      </trkpt>
      <trkpt lat="45.70698" lon="5.23832">
        <ele>349.4</ele>
        <time>2025-05-18T09:36:32Z</time>
      </trkpt>
      <trkpt lat="45.70697" lon="5.23833">
        <ele>349.4</ele>
        <time>2025-05-18T09:36:33Z</time>
      </trkpt>
      <trkpt lat="45.70696" lon="5.23834">
        <ele>349.8</ele>
        <time>2025-05-18T09:36:34Z</time>
      </trkpt>
      <trkpt lat="45.70696" lon="5.23835">
        <ele>350</ele>
        <time>2025-05-18T09:36:35Z</time>
      </trkpt>
      <trkpt lat="45.70696" lon="5.23835">
        <ele>350.4</ele>
        <time>2025-05-18T09:36:36Z</time>
      </trkpt>
      <trkpt lat="45.70695" lon="5.23836">
        <ele>350.6</ele>
        <time>2025-05-18T09:36:39Z</time>
      </trkpt>
      <trkpt lat="45.70694" lon="5.23838">
        <ele>350.6</ele>
        <time>2025-05-18T09:36:40Z</time>
      </trkpt>
      <trkpt lat="45.70693" lon="5.23839">
        <ele>351</ele>
        <time>2025-05-18T09:36:41Z</time>
      </trkpt>
      <trkpt lat="45.70691" lon="5.2384">
        <ele>351.2</ele>
        <time>2025-05-18T09:36:42Z</time>
      </trkpt>
      <trkpt lat="45.70689" lon="5.23842">
        <ele>351.4</ele>
        <time>2025-05-18T09:36:43Z</time>
      </trkpt>
      <trkpt lat="45.70688" lon="5.23843">
        <ele>351.4</ele>
        <time>2025-05-18T09:36:44Z</time>
      </trkpt>
      <trkpt lat="45.70687" lon="5.23844">
        <ele>351.8</ele>
        <time>2025-05-18T09:36:45Z</time>
      </trkpt>
      <trkpt lat="45.70685" lon="5.23846">
        <ele>352</ele>
        <time>2025-05-18T09:36:46Z</time>
      </trkpt>
      <trkpt lat="45.70683" lon="5.23848">
        <ele>352.2</ele>
        <time>2025-05-18T09:36:47Z</time>
      </trkpt>
      <trkpt lat="45.70682" lon="5.23849">
        <ele>352.2</ele>
        <time>2025-05-18T09:36:48Z</time>
      </trkpt>
      <trkpt lat="45.7068" lon="5.2385">
        <ele>352.6</ele>
        <time>2025-05-18T09:36:49Z</time>
      </trkpt>
      <trkpt lat="45.70679" lon="5.23851">
        <ele>352.8</ele>
        <time>2025-05-18T09:36:50Z</time>
      </trkpt>
      <trkpt lat="45.70678" lon="5.23852">
        <ele>353</ele>
        <time>2025-05-18T09:36:51Z</time>
      </trkpt>
      <trkpt lat="45.70677" lon="5.23853">
        <ele>353.4</ele>
        <time>2025-05-18T09:36:52Z</time>
      </trkpt>
      <trkpt lat="45.70676" lon="5.23855">
        <ele>353.4</ele>
        <time>2025-05-18T09:36:53Z</time>
      </trkpt>
      <trkpt lat="45.70674" lon="5.23857">
        <ele>353.4</ele>
        <time>2025-05-18T09:36:54Z</time>
      </trkpt>
      <trkpt lat="45.70672" lon="5.23859">
        <ele>354</ele>
        <time>2025-05-18T09:36:55Z</time>
      </trkpt>
      <trkpt lat="45.70671" lon="5.2386">
        <ele>354</ele>
        <time>2025-05-18T09:36:56Z</time>
      </trkpt>
      <trkpt lat="45.7067" lon="5.23861">
        <ele>354.4</ele>
        <time>2025-05-18T09:36:57Z</time>
      </trkpt>
      <trkpt lat="45.70668" lon="5.23861">
        <ele>354.6</ele>
        <time>2025-05-18T09:36:58Z</time>
      </trkpt>
      <trkpt lat="45.70667" lon="5.23862">
        <ele>355</ele>
        <time>2025-05-18T09:36:59Z</time>
      </trkpt>
      <trkpt lat="45.70667" lon="5.23863">
        <ele>355</ele>
        <time>2025-05-18T09:37:00Z</time>
      </trkpt>
      <trkpt lat="45.70666" lon="5.23864">
        <ele>355.2</ele>
        <time>2025-05-18T09:37:01Z</time>
      </trkpt>
      <trkpt lat="45.70664" lon="5.23866">
        <ele>355.4</ele>
        <time>2025-05-18T09:37:02Z</time>
      </trkpt>
      <trkpt lat="45.70662" lon="5.23867">
        <ele>355.4</ele>
        <time>2025-05-18T09:37:03Z</time>
      </trkpt>
      <trkpt lat="45.70659" lon="5.23869">
        <ele>355.8</ele>
        <time>2025-05-18T09:37:04Z</time>
      </trkpt>
      <trkpt lat="45.70658" lon="5.23871">
        <ele>355.8</ele>
        <time>2025-05-18T09:37:05Z</time>
      </trkpt>
      <trkpt lat="45.70658" lon="5.23871">
        <ele>356.2</ele>
        <time>2025-05-18T09:37:06Z</time>
      </trkpt>
      <trkpt lat="45.70658" lon="5.23872">
        <ele>356.6</ele>
        <time>2025-05-18T09:37:07Z</time>
      </trkpt>
      <trkpt lat="45.70657" lon="5.23873">
        <ele>356.6</ele>
        <time>2025-05-18T09:37:08Z</time>
      </trkpt>
      <trkpt lat="45.70656" lon="5.23873">
        <ele>356.8</ele>
        <time>2025-05-18T09:37:09Z</time>
      </trkpt>
      <trkpt lat="45.70656" lon="5.23874">
        <ele>356.8</ele>
        <time>2025-05-18T09:37:10Z</time>
      </trkpt>
      <trkpt lat="45.70655" lon="5.23875">
        <ele>357.4</ele>
        <time>2025-05-18T09:37:11Z</time>
      </trkpt>
      <trkpt lat="45.70654" lon="5.23876">
        <ele>357.8</ele>
        <time>2025-05-18T09:37:12Z</time>
      </trkpt>
      <trkpt lat="45.70653" lon="5.23876">
        <ele>358</ele>
        <time>2025-05-18T09:37:13Z</time>
      </trkpt>
      <trkpt lat="45.70652" lon="5.23877">
        <ele>358</ele>
        <time>2025-05-18T09:37:14Z</time>
      </trkpt>
      <trkpt lat="45.70651" lon="5.23878">
        <ele>358.4</ele>
        <time>2025-05-18T09:37:15Z</time>
      </trkpt>
      <trkpt lat="45.7065" lon="5.23879">
        <ele>358.8</ele>
        <time>2025-05-18T09:37:16Z</time>
      </trkpt>
      <trkpt lat="45.70649" lon="5.23881">
        <ele>359</ele>
        <time>2025-05-18T09:37:17Z</time>
      </trkpt>
      <trkpt lat="45.70648" lon="5.23881">
        <ele>359.2</ele>
        <time>2025-05-18T09:37:18Z</time>
      </trkpt>
      <trkpt lat="45.70647" lon="5.23883">
        <ele>359.2</ele>
        <time>2025-05-18T09:37:19Z</time>
      </trkpt>
      <trkpt lat="45.70646" lon="5.23884">
        <ele>359.2</ele>
        <time>2025-05-18T09:37:20Z</time>
      </trkpt>
      <trkpt lat="45.70645" lon="5.23885">
        <ele>359.6</ele>
        <time>2025-05-18T09:37:21Z</time>
      </trkpt>
      <trkpt lat="45.70644" lon="5.23886">
        <ele>360</ele>
        <time>2025-05-18T09:37:22Z</time>
      </trkpt>
      <trkpt lat="45.70644" lon="5.23886">
        <ele>360.4</ele>
        <time>2025-05-18T09:37:23Z</time>
      </trkpt>
      <trkpt lat="45.70642" lon="5.23887">
        <ele>360.6</ele>
        <time>2025-05-18T09:37:24Z</time>
      </trkpt>
      <trkpt lat="45.70641" lon="5.23887">
        <ele>360.6</ele>
        <time>2025-05-18T09:37:25Z</time>
      </trkpt>
      <trkpt lat="45.7064" lon="5.23888">
        <ele>361</ele>
        <time>2025-05-18T09:37:26Z</time>
      </trkpt>
      <trkpt lat="45.70639" lon="5.2389">
        <ele>361</ele>
        <time>2025-05-18T09:37:27Z</time>
      </trkpt>
      <trkpt lat="45.70638" lon="5.23891">
        <ele>361.2</ele>
        <time>2025-05-18T09:37:28Z</time>
      </trkpt>
      <trkpt lat="45.70637" lon="5.23892">
        <ele>361.2</ele>
        <time>2025-05-18T09:37:29Z</time>
      </trkpt>
      <trkpt lat="45.70635" lon="5.23893">
        <ele>361.6</ele>
        <time>2025-05-18T09:37:30Z</time>
      </trkpt>
      <trkpt lat="45.70633" lon="5.23893">
        <ele>361.6</ele>
        <time>2025-05-18T09:37:31Z</time>
      </trkpt>
      <trkpt lat="45.70631" lon="5.23894">
        <ele>361.8</ele>
        <time>2025-05-18T09:37:32Z</time>
      </trkpt>
      <trkpt lat="45.70629" lon="5.23895">
        <ele>361.8</ele>
        <time>2025-05-18T09:37:33Z</time>
      </trkpt>
      <trkpt lat="45.70628" lon="5.23896">
        <ele>362.2</ele>
        <time>2025-05-18T09:37:34Z</time>
      </trkpt>
      <trkpt lat="45.70627" lon="5.23897">
        <ele>362.6</ele>
        <time>2025-05-18T09:37:35Z</time>
      </trkpt>
      <trkpt lat="45.70626" lon="5.23897">
        <ele>362.8</ele>
        <time>2025-05-18T09:37:36Z</time>
      </trkpt>
      <trkpt lat="45.70625" lon="5.23897">
        <ele>363</ele>
        <time>2025-05-18T09:37:37Z</time>
      </trkpt>
      <trkpt lat="45.70623" lon="5.23897">
        <ele>363.4</ele>
        <time>2025-05-18T09:37:38Z</time>
      </trkpt>
      <trkpt lat="45.70622" lon="5.23897">
        <ele>363.4</ele>
        <time>2025-05-18T09:37:39Z</time>
      </trkpt>
      <trkpt lat="45.70621" lon="5.23897">
        <ele>364</ele>
        <time>2025-05-18T09:37:40Z</time>
      </trkpt>
      <trkpt lat="45.7062" lon="5.23897">
        <ele>364.4</ele>
        <time>2025-05-18T09:37:41Z</time>
      </trkpt>
      <trkpt lat="45.70619" lon="5.23898">
        <ele>364.6</ele>
        <time>2025-05-18T09:37:42Z</time>
      </trkpt>
      <trkpt lat="45.70618" lon="5.23898">
        <ele>364.6</ele>
        <time>2025-05-18T09:37:43Z</time>
      </trkpt>
      <trkpt lat="45.70617" lon="5.23898">
        <ele>365</ele>
        <time>2025-05-18T09:37:44Z</time>
      </trkpt>
      <trkpt lat="45.70616" lon="5.23898">
        <ele>365.2</ele>
        <time>2025-05-18T09:37:45Z</time>
      </trkpt>
      <trkpt lat="45.70615" lon="5.23898">
        <ele>365.4</ele>
        <time>2025-05-18T09:37:46Z</time>
      </trkpt>
      <trkpt lat="45.70614" lon="5.23898">
        <ele>365.4</ele>
        <time>2025-05-18T09:37:47Z</time>
      </trkpt>
      <trkpt lat="45.70614" lon="5.23898">
        <ele>365.4</ele>
        <time>2025-05-18T09:37:48Z</time>
      </trkpt>
      <trkpt lat="45.70614" lon="5.23899">
        <ele>365.4</ele>
        <time>2025-05-18T09:37:49Z</time>
      </trkpt>
      <trkpt lat="45.70614" lon="5.23899">
        <ele>365.4</ele>
        <time>2025-05-18T09:37:52Z</time>
      </trkpt>
      <trkpt lat="45.70613" lon="5.23898">
        <ele>365.6</ele>
        <time>2025-05-18T09:37:53Z</time>
      </trkpt>
      <trkpt lat="45.70612" lon="5.23898">
        <ele>365.6</ele>
        <time>2025-05-18T09:37:54Z</time>
      </trkpt>
      <trkpt lat="45.70612" lon="5.23898">
        <ele>365.6</ele>
        <time>2025-05-18T09:37:55Z</time>
      </trkpt>
      <trkpt lat="45.70611" lon="5.23898">
        <ele>365.8</ele>
        <time>2025-05-18T09:37:56Z</time>
      </trkpt>
      <trkpt lat="45.7061" lon="5.23899">
        <ele>365.8</ele>
        <time>2025-05-18T09:37:57Z</time>
      </trkpt>
      <trkpt lat="45.7061" lon="5.23899">
        <ele>366.2</ele>
        <time>2025-05-18T09:37:58Z</time>
      </trkpt>
      <trkpt lat="45.70609" lon="5.23899">
        <ele>366.2</ele>
        <time>2025-05-18T09:37:59Z</time>
      </trkpt>
      <trkpt lat="45.70608" lon="5.23899">
        <ele>366.4</ele>
        <time>2025-05-18T09:38:00Z</time>
      </trkpt>
      <trkpt lat="45.70608" lon="5.23899">
        <ele>366.6</ele>
        <time>2025-05-18T09:38:01Z</time>
      </trkpt>
      <trkpt lat="45.70607" lon="5.23899">
        <ele>366.8</ele>
        <time>2025-05-18T09:38:02Z</time>
      </trkpt>
      <trkpt lat="45.70605" lon="5.23899">
        <ele>366.8</ele>
        <time>2025-05-18T09:38:03Z</time>
      </trkpt>
      <trkpt lat="45.70604" lon="5.23899">
        <ele>367</ele>
        <time>2025-05-18T09:38:04Z</time>
      </trkpt>
      <trkpt lat="45.70603" lon="5.23899">
        <ele>367</ele>
        <time>2025-05-18T09:38:05Z</time>
      </trkpt>
      <trkpt lat="45.70602" lon="5.23899">
        <ele>367</ele>
        <time>2025-05-18T09:38:06Z</time>
      </trkpt>
      <trkpt lat="45.70602" lon="5.239">
        <ele>367</ele>
        <time>2025-05-18T09:38:07Z</time>
      </trkpt>
      <trkpt lat="45.70602" lon="5.239">
        <ele>367</ele>
        <time>2025-05-18T09:38:08Z</time>
      </trkpt>
      <trkpt lat="45.70601" lon="5.239">
        <ele>367.4</ele>
        <time>2025-05-18T09:38:09Z</time>
      </trkpt>
      <trkpt lat="45.706" lon="5.23901">
        <ele>367.8</ele>
        <time>2025-05-18T09:38:10Z</time>
      </trkpt>
      <trkpt lat="45.70599" lon="5.23901">
        <ele>367.8</ele>
        <time>2025-05-18T09:38:11Z</time>
      </trkpt>
      <trkpt lat="45.70598" lon="5.23902">
        <ele>368</ele>
        <time>2025-05-18T09:38:12Z</time>
      </trkpt>
      <trkpt lat="45.70597" lon="5.23903">
        <ele>368</ele>
        <time>2025-05-18T09:38:13Z</time>
      </trkpt>
      <trkpt lat="45.70596" lon="5.23904">
        <ele>368.2</ele>
        <time>2025-05-18T09:38:14Z</time>
      </trkpt>
      <trkpt lat="45.70595" lon="5.23904">
        <ele>368.2</ele>
        <time>2025-05-18T09:38:15Z</time>
      </trkpt>
      <trkpt lat="45.70594" lon="5.23905">
        <ele>368.4</ele>
        <time>2025-05-18T09:38:16Z</time>
      </trkpt>
      <trkpt lat="45.70593" lon="5.23905">
        <ele>368.4</ele>
        <time>2025-05-18T09:38:17Z</time>
      </trkpt>
      <trkpt lat="45.70591" lon="5.23905">
        <ele>368.4</ele>
        <time>2025-05-18T09:38:18Z</time>
      </trkpt>
      <trkpt lat="45.7059" lon="5.23906">
        <ele>368.4</ele>
        <time>2025-05-18T09:38:19Z</time>
      </trkpt>
      <trkpt lat="45.70589" lon="5.23906">
        <ele>368.8</ele>
        <time>2025-05-18T09:38:20Z</time>
      </trkpt>
      <trkpt lat="45.70588" lon="5.23906">
        <ele>368.8</ele>
        <time>2025-05-18T09:38:21Z</time>
      </trkpt>
      <trkpt lat="45.70587" lon="5.23906">
        <ele>369.2</ele>
        <time>2025-05-18T09:38:22Z</time>
      </trkpt>
      <trkpt lat="45.70586" lon="5.23907">
        <ele>369.2</ele>
        <time>2025-05-18T09:38:23Z</time>
      </trkpt>
      <trkpt lat="45.70586" lon="5.23907">
        <ele>369.2</ele>
        <time>2025-05-18T09:38:24Z</time>
      </trkpt>
      <trkpt lat="45.70586" lon="5.23907">
        <ele>369.2</ele>
        <time>2025-05-18T09:38:25Z</time>
      </trkpt>
      <trkpt lat="45.70585" lon="5.23907">
        <ele>369.4</ele>
        <time>2025-05-18T09:38:31Z</time>
      </trkpt>
      <trkpt lat="45.70584" lon="5.23907">
        <ele>369.4</ele>
        <time>2025-05-18T09:38:32Z</time>
      </trkpt>
      <trkpt lat="45.70584" lon="5.23908">
        <ele>369.4</ele>
        <time>2025-05-18T09:38:33Z</time>
      </trkpt>
      <trkpt lat="45.70584" lon="5.23907">
        <ele>369.4</ele>
        <time>2025-05-18T09:38:34Z</time>
      </trkpt>
      <trkpt lat="45.70584" lon="5.23906">
        <ele>369.4</ele>
        <time>2025-05-18T09:38:37Z</time>
      </trkpt>
      <trkpt lat="45.70583" lon="5.23907">
        <ele>369.4</ele>
        <time>2025-05-18T09:38:38Z</time>
      </trkpt>
      <trkpt lat="45.70581" lon="5.23907">
        <ele>369.4</ele>
        <time>2025-05-18T09:38:39Z</time>
      </trkpt>
      <trkpt lat="45.7058" lon="5.23909">
        <ele>369.4</ele>
        <time>2025-05-18T09:38:40Z</time>
      </trkpt>
      <trkpt lat="45.70578" lon="5.2391">
        <ele>369.8</ele>
        <time>2025-05-18T09:38:41Z</time>
      </trkpt>
      <trkpt lat="45.70577" lon="5.23912">
        <ele>370.2</ele>
        <time>2025-05-18T09:38:42Z</time>
      </trkpt>
      <trkpt lat="45.70576" lon="5.23913">
        <ele>370.2</ele>
        <time>2025-05-18T09:38:43Z</time>
      </trkpt>
      <trkpt lat="45.70574" lon="5.23914">
        <ele>370.6</ele>
        <time>2025-05-18T09:38:44Z</time>
      </trkpt>
      <trkpt lat="45.70572" lon="5.23916">
        <ele>370.6</ele>
        <time>2025-05-18T09:38:45Z</time>
      </trkpt>
      <trkpt lat="45.7057" lon="5.23918">
        <ele>371</ele>
        <time>2025-05-18T09:38:46Z</time>
      </trkpt>
      <trkpt lat="45.70568" lon="5.23919">
        <ele>371</ele>
        <time>2025-05-18T09:38:47Z</time>
      </trkpt>
      <trkpt lat="45.70566" lon="5.2392">
        <ele>371</ele>
        <time>2025-05-18T09:38:48Z</time>
      </trkpt>
      <trkpt lat="45.70564" lon="5.2392">
        <ele>371</ele>
        <time>2025-05-18T09:38:49Z</time>
      </trkpt>
      <trkpt lat="45.70562" lon="5.23921">
        <ele>371</ele>
        <time>2025-05-18T09:38:50Z</time>
      </trkpt>
      <trkpt lat="45.70561" lon="5.23922">
        <ele>371.4</ele>
        <time>2025-05-18T09:38:51Z</time>
      </trkpt>
      <trkpt lat="45.70559" lon="5.23922">
        <ele>371.4</ele>
        <time>2025-05-18T09:38:52Z</time>
      </trkpt>
      <trkpt lat="45.70558" lon="5.23923">
        <ele>371.4</ele>
        <time>2025-05-18T09:38:53Z</time>
      </trkpt>
      <trkpt lat="45.70556" lon="5.23925">
        <ele>371.4</ele>
        <time>2025-05-18T09:38:54Z</time>
      </trkpt>
      <trkpt lat="45.70554" lon="5.23926">
        <ele>371.6</ele>
        <time>2025-05-18T09:38:55Z</time>
      </trkpt>
      <trkpt lat="45.70553" lon="5.23928">
        <ele>372</ele>
        <time>2025-05-18T09:38:56Z</time>
      </trkpt>
      <trkpt lat="45.70551" lon="5.23928">
        <ele>372</ele>
        <time>2025-05-18T09:38:57Z</time>
      </trkpt>
      <trkpt lat="45.70549" lon="5.23928">
        <ele>372.4</ele>
        <time>2025-05-18T09:38:58Z</time>
      </trkpt>
      <trkpt lat="45.70547" lon="5.23927">
        <ele>372.6</ele>
        <time>2025-05-18T09:38:59Z</time>
      </trkpt>
      <trkpt lat="45.70545" lon="5.23926">
        <ele>373</ele>
        <time>2025-05-18T09:39:00Z</time>
      </trkpt>
      <trkpt lat="45.70542" lon="5.23927">
        <ele>373</ele>
        <time>2025-05-18T09:39:01Z</time>
      </trkpt>
      <trkpt lat="45.70541" lon="5.23927">
        <ele>373.2</ele>
        <time>2025-05-18T09:39:02Z</time>
      </trkpt>
      <trkpt lat="45.7054" lon="5.23928">
        <ele>373.4</ele>
        <time>2025-05-18T09:39:03Z</time>
      </trkpt>
      <trkpt lat="45.70538" lon="5.23929">
        <ele>373.8</ele>
        <time>2025-05-18T09:39:04Z</time>
      </trkpt>
      <trkpt lat="45.70537" lon="5.23929">
        <ele>373.8</ele>
        <time>2025-05-18T09:39:05Z</time>
      </trkpt>
      <trkpt lat="45.70536" lon="5.23929">
        <ele>373.8</ele>
        <time>2025-05-18T09:39:06Z</time>
      </trkpt>
      <trkpt lat="45.70534" lon="5.23929">
        <ele>374</ele>
        <time>2025-05-18T09:39:07Z</time>
      </trkpt>
      <trkpt lat="45.70532" lon="5.23929">
        <ele>374.4</ele>
        <time>2025-05-18T09:39:08Z</time>
      </trkpt>
      <trkpt lat="45.70531" lon="5.2393">
        <ele>374.8</ele>
        <time>2025-05-18T09:39:09Z</time>
      </trkpt>
      <trkpt lat="45.7053" lon="5.23931">
        <ele>375</ele>
        <time>2025-05-18T09:39:10Z</time>
      </trkpt>
      <trkpt lat="45.70528" lon="5.23931">
        <ele>375</ele>
        <time>2025-05-18T09:39:11Z</time>
      </trkpt>
      <trkpt lat="45.70526" lon="5.23931">
        <ele>375.2</ele>
        <time>2025-05-18T09:39:12Z</time>
      </trkpt>
      <trkpt lat="45.70524" lon="5.23932">
        <ele>375.2</ele>
        <time>2025-05-18T09:39:13Z</time>
      </trkpt>
      <trkpt lat="45.70522" lon="5.23934">
        <ele>375.2</ele>
        <time>2025-05-18T09:39:14Z</time>
      </trkpt>
      <trkpt lat="45.7052" lon="5.23935">
        <ele>375.2</ele>
        <time>2025-05-18T09:39:15Z</time>
      </trkpt>
      <trkpt lat="45.70518" lon="5.23937">
        <ele>375.4</ele>
        <time>2025-05-18T09:39:16Z</time>
      </trkpt>
      <trkpt lat="45.70517" lon="5.23938">
        <ele>375.4</ele>
        <time>2025-05-18T09:39:17Z</time>
      </trkpt>
      <trkpt lat="45.70515" lon="5.23938">
        <ele>375.4</ele>
        <time>2025-05-18T09:39:18Z</time>
      </trkpt>
      <trkpt lat="45.70512" lon="5.23938">
        <ele>375.8</ele>
        <time>2025-05-18T09:39:19Z</time>
      </trkpt>
      <trkpt lat="45.70511" lon="5.23938">
        <ele>375.8</ele>
        <time>2025-05-18T09:39:20Z</time>
      </trkpt>
      <trkpt lat="45.70509" lon="5.23939">
        <ele>375.8</ele>
        <time>2025-05-18T09:39:21Z</time>
      </trkpt>
      <trkpt lat="45.70507" lon="5.23939">
        <ele>376</ele>
        <time>2025-05-18T09:39:22Z</time>
      </trkpt>
      <trkpt lat="45.70506" lon="5.23938">
        <ele>376</ele>
        <time>2025-05-18T09:39:23Z</time>
      </trkpt>
      <trkpt lat="45.70505" lon="5.23937">
        <ele>376</ele>
        <time>2025-05-18T09:39:24Z</time>
      </trkpt>
      <trkpt lat="45.70504" lon="5.23937">
        <ele>376.6</ele>
        <time>2025-05-18T09:39:25Z</time>
      </trkpt>
      <trkpt lat="45.70503" lon="5.23938">
        <ele>376.6</ele>
        <time>2025-05-18T09:39:26Z</time>
      </trkpt>
      <trkpt lat="45.70501" lon="5.2394">
        <ele>376.8</ele>
        <time>2025-05-18T09:39:27Z</time>
      </trkpt>
      <trkpt lat="45.70499" lon="5.23942">
        <ele>376.8</ele>
        <time>2025-05-18T09:39:28Z</time>
      </trkpt>
      <trkpt lat="45.70498" lon="5.23943">
        <ele>377.2</ele>
        <time>2025-05-18T09:39:29Z</time>
      </trkpt>
      <trkpt lat="45.70496" lon="5.23944">
        <ele>377.8</ele>
        <time>2025-05-18T09:39:30Z</time>
      </trkpt>
      <trkpt lat="45.70495" lon="5.23946">
        <ele>377.8</ele>
        <time>2025-05-18T09:39:31Z</time>
      </trkpt>
      <trkpt lat="45.70493" lon="5.23948">
        <ele>378.2</ele>
        <time>2025-05-18T09:39:32Z</time>
      </trkpt>
      <trkpt lat="45.70492" lon="5.23949">
        <ele>378.4</ele>
        <time>2025-05-18T09:39:33Z</time>
      </trkpt>
      <trkpt lat="45.7049" lon="5.23951">
        <ele>378.4</ele>
        <time>2025-05-18T09:39:34Z</time>
      </trkpt>
      <trkpt lat="45.70488" lon="5.23953">
        <ele>378.8</ele>
        <time>2025-05-18T09:39:35Z</time>
      </trkpt>
      <trkpt lat="45.70486" lon="5.23955">
        <ele>378.8</ele>
        <time>2025-05-18T09:39:36Z</time>
      </trkpt>
      <trkpt lat="45.70485" lon="5.23956">
        <ele>379</ele>
        <time>2025-05-18T09:39:37Z</time>
      </trkpt>
      <trkpt lat="45.70484" lon="5.23957">
        <ele>379</ele>
        <time>2025-05-18T09:39:38Z</time>
      </trkpt>
      <trkpt lat="45.70482" lon="5.23956">
        <ele>379.2</ele>
        <time>2025-05-18T09:39:39Z</time>
      </trkpt>
      <trkpt lat="45.7048" lon="5.23956">
        <ele>379.2</ele>
        <time>2025-05-18T09:39:40Z</time>
      </trkpt>
      <trkpt lat="45.70478" lon="5.23956">
        <ele>379.8</ele>
        <time>2025-05-18T09:39:41Z</time>
      </trkpt>
      <trkpt lat="45.70476" lon="5.23957">
        <ele>379.8</ele>
        <time>2025-05-18T09:39:42Z</time>
      </trkpt>
      <trkpt lat="45.70475" lon="5.23957">
        <ele>379.8</ele>
        <time>2025-05-18T09:39:43Z</time>
      </trkpt>
      <trkpt lat="45.70474" lon="5.23958">
        <ele>380</ele>
        <time>2025-05-18T09:39:44Z</time>
      </trkpt>
      <trkpt lat="45.7047" lon="5.23961">
        <ele>380</ele>
        <time>2025-05-18T09:39:45Z</time>
      </trkpt>
      <trkpt lat="45.70469" lon="5.23962">
        <ele>380.6</ele>
        <time>2025-05-18T09:39:46Z</time>
      </trkpt>
      <trkpt lat="45.70467" lon="5.23963">
        <ele>381</ele>
        <time>2025-05-18T09:39:47Z</time>
      </trkpt>
      <trkpt lat="45.70467" lon="5.23963">
        <ele>381</ele>
        <time>2025-05-18T09:39:48Z</time>
      </trkpt>
      <trkpt lat="45.70467" lon="5.23963">
        <ele>381.6</ele>
        <time>2025-05-18T09:39:49Z</time>
      </trkpt>
      <trkpt lat="45.70465" lon="5.23964">
        <ele>381.6</ele>
        <time>2025-05-18T09:39:50Z</time>
      </trkpt>
      <trkpt lat="45.70464" lon="5.23965">
        <ele>381.8</ele>
        <time>2025-05-18T09:39:51Z</time>
      </trkpt>
      <trkpt lat="45.70462" lon="5.23965">
        <ele>382</ele>
        <time>2025-05-18T09:39:52Z</time>
      </trkpt>
      <trkpt lat="45.7046" lon="5.23966">
        <ele>382.4</ele>
        <time>2025-05-18T09:39:53Z</time>
      </trkpt>
      <trkpt lat="45.70459" lon="5.23966">
        <ele>382.6</ele>
        <time>2025-05-18T09:39:54Z</time>
      </trkpt>
      <trkpt lat="45.70457" lon="5.23965">
        <ele>382.8</ele>
        <time>2025-05-18T09:39:55Z</time>
      </trkpt>
      <trkpt lat="45.70456" lon="5.23965">
        <ele>383</ele>
        <time>2025-05-18T09:39:56Z</time>
      </trkpt>
      <trkpt lat="45.70454" lon="5.23966">
        <ele>383</ele>
        <time>2025-05-18T09:39:57Z</time>
      </trkpt>
      <trkpt lat="45.70452" lon="5.23966">
        <ele>383.4</ele>
        <time>2025-05-18T09:39:58Z</time>
      </trkpt>
      <trkpt lat="45.70451" lon="5.23966">
        <ele>383.4</ele>
        <time>2025-05-18T09:39:59Z</time>
      </trkpt>
      <trkpt lat="45.70449" lon="5.23966">
        <ele>383.6</ele>
        <time>2025-05-18T09:40:00Z</time>
      </trkpt>
      <trkpt lat="45.70448" lon="5.23967">
        <ele>383.8</ele>
        <time>2025-05-18T09:40:01Z</time>
      </trkpt>
      <trkpt lat="45.70446" lon="5.23968">
        <ele>383.8</ele>
        <time>2025-05-18T09:40:02Z</time>
      </trkpt>
      <trkpt lat="45.70445" lon="5.23969">
        <ele>384</ele>
        <time>2025-05-18T09:40:03Z</time>
      </trkpt>
      <trkpt lat="45.70443" lon="5.2397">
        <ele>384</ele>
        <time>2025-05-18T09:40:04Z</time>
      </trkpt>
      <trkpt lat="45.70441" lon="5.23971">
        <ele>384.4</ele>
        <time>2025-05-18T09:40:05Z</time>
      </trkpt>
      <trkpt lat="45.70439" lon="5.23971">
        <ele>384.4</ele>
        <time>2025-05-18T09:40:06Z</time>
      </trkpt>
      <trkpt lat="45.70438" lon="5.23971">
        <ele>384.8</ele>
        <time>2025-05-18T09:40:07Z</time>
      </trkpt>
      <trkpt lat="45.70437" lon="5.23971">
        <ele>385.2</ele>
        <time>2025-05-18T09:40:08Z</time>
      </trkpt>
      <trkpt lat="45.70435" lon="5.23972">
        <ele>385.4</ele>
        <time>2025-05-18T09:40:09Z</time>
      </trkpt>
      <trkpt lat="45.70433" lon="5.23972">
        <ele>385.6</ele>
        <time>2025-05-18T09:40:10Z</time>
      </trkpt>
      <trkpt lat="45.70431" lon="5.23972">
        <ele>386</ele>
        <time>2025-05-18T09:40:11Z</time>
      </trkpt>
      <trkpt lat="45.7043" lon="5.23972">
        <ele>386.2</ele>
        <time>2025-05-18T09:40:12Z</time>
      </trkpt>
      <trkpt lat="45.70428" lon="5.23973">
        <ele>386.2</ele>
        <time>2025-05-18T09:40:13Z</time>
      </trkpt>
      <trkpt lat="45.70426" lon="5.23974">
        <ele>386.2</ele>
        <time>2025-05-18T09:40:14Z</time>
      </trkpt>
      <trkpt lat="45.70425" lon="5.23976">
        <ele>386.4</ele>
        <time>2025-05-18T09:40:15Z</time>
      </trkpt>
      <trkpt lat="45.70423" lon="5.23977">
        <ele>386.8</ele>
        <time>2025-05-18T09:40:16Z</time>
      </trkpt>
      <trkpt lat="45.70422" lon="5.23978">
        <ele>386.8</ele>
        <time>2025-05-18T09:40:17Z</time>
      </trkpt>
      <trkpt lat="45.70421" lon="5.23978">
        <ele>387</ele>
        <time>2025-05-18T09:40:18Z</time>
      </trkpt>
      <trkpt lat="45.70419" lon="5.23978">
        <ele>387</ele>
        <time>2025-05-18T09:40:19Z</time>
      </trkpt>
      <trkpt lat="45.70417" lon="5.23978">
        <ele>387.4</ele>
        <time>2025-05-18T09:40:20Z</time>
      </trkpt>
      <trkpt lat="45.70416" lon="5.23979">
        <ele>387.6</ele>
        <time>2025-05-18T09:40:21Z</time>
      </trkpt>
      <trkpt lat="45.70414" lon="5.23979">
        <ele>387.6</ele>
        <time>2025-05-18T09:40:22Z</time>
      </trkpt>
      <trkpt lat="45.70412" lon="5.23979">
        <ele>387.8</ele>
        <time>2025-05-18T09:40:23Z</time>
      </trkpt>
      <trkpt lat="45.70411" lon="5.2398">
        <ele>387.8</ele>
        <time>2025-05-18T09:40:24Z</time>
      </trkpt>
      <trkpt lat="45.7041" lon="5.2398">
        <ele>388.2</ele>
        <time>2025-05-18T09:40:25Z</time>
      </trkpt>
      <trkpt lat="45.70409" lon="5.23981">
        <ele>388.2</ele>
        <time>2025-05-18T09:40:26Z</time>
      </trkpt>
      <trkpt lat="45.70407" lon="5.23981">
        <ele>388.6</ele>
        <time>2025-05-18T09:40:27Z</time>
      </trkpt>
      <trkpt lat="45.70406" lon="5.23981">
        <ele>388.8</ele>
        <time>2025-05-18T09:40:28Z</time>
      </trkpt>
      <trkpt lat="45.70404" lon="5.23981">
        <ele>389.2</ele>
        <time>2025-05-18T09:40:29Z</time>
      </trkpt>
      <trkpt lat="45.70403" lon="5.23982">
        <ele>389.2</ele>
        <time>2025-05-18T09:40:30Z</time>
      </trkpt>
      <trkpt lat="45.70401" lon="5.23982">
        <ele>389.6</ele>
        <time>2025-05-18T09:40:31Z</time>
      </trkpt>
      <trkpt lat="45.70401" lon="5.23982">
        <ele>389.8</ele>
        <time>2025-05-18T09:40:32Z</time>
      </trkpt>
      <trkpt lat="45.704" lon="5.23983">
        <ele>390</ele>
        <time>2025-05-18T09:40:33Z</time>
      </trkpt>
      <trkpt lat="45.70398" lon="5.23983">
        <ele>390</ele>
        <time>2025-05-18T09:40:34Z</time>
      </trkpt>
      <trkpt lat="45.70396" lon="5.23984">
        <ele>390.4</ele>
        <time>2025-05-18T09:40:35Z</time>
      </trkpt>
      <trkpt lat="45.70394" lon="5.23985">
        <ele>390.6</ele>
        <time>2025-05-18T09:40:36Z</time>
      </trkpt>
      <trkpt lat="45.70393" lon="5.23985">
        <ele>390.6</ele>
        <time>2025-05-18T09:40:37Z</time>
      </trkpt>
      <trkpt lat="45.70392" lon="5.23985">
        <ele>391.4</ele>
        <time>2025-05-18T09:40:38Z</time>
      </trkpt>
      <trkpt lat="45.70391" lon="5.23985">
        <ele>391.4</ele>
        <time>2025-05-18T09:40:39Z</time>
      </trkpt>
      <trkpt lat="45.70389" lon="5.23985">
        <ele>391.4</ele>
        <time>2025-05-18T09:40:40Z</time>
      </trkpt>
      <trkpt lat="45.70388" lon="5.23985">
        <ele>391.4</ele>
        <time>2025-05-18T09:40:41Z</time>
      </trkpt>
      <trkpt lat="45.70387" lon="5.23984">
        <ele>391.4</ele>
        <time>2025-05-18T09:40:42Z</time>
      </trkpt>
      <trkpt lat="45.70386" lon="5.23983">
        <ele>392</ele>
        <time>2025-05-18T09:40:43Z</time>
      </trkpt>
      <trkpt lat="45.70385" lon="5.23982">
        <ele>392.2</ele>
        <time>2025-05-18T09:40:44Z</time>
      </trkpt>
      <trkpt lat="45.70384" lon="5.23981">
        <ele>392.6</ele>
        <time>2025-05-18T09:40:45Z</time>
      </trkpt>
      <trkpt lat="45.70382" lon="5.2398">
        <ele>393</ele>
        <time>2025-05-18T09:40:46Z</time>
      </trkpt>
      <trkpt lat="45.70381" lon="5.23979">
        <ele>393</ele>
        <time>2025-05-18T09:40:47Z</time>
      </trkpt>
      <trkpt lat="45.70381" lon="5.23977">
        <ele>393</ele>
        <time>2025-05-18T09:40:48Z</time>
      </trkpt>
      <trkpt lat="45.7038" lon="5.23976">
        <ele>393.2</ele>
        <time>2025-05-18T09:40:49Z</time>
      </trkpt>
      <trkpt lat="45.70379" lon="5.23974">
        <ele>393.2</ele>
        <time>2025-05-18T09:40:50Z</time>
      </trkpt>
      <trkpt lat="45.70379" lon="5.23972">
        <ele>393.4</ele>
        <time>2025-05-18T09:40:51Z</time>
      </trkpt>
      <trkpt lat="45.70378" lon="5.23971">
        <ele>393.4</ele>
        <time>2025-05-18T09:40:52Z</time>
      </trkpt>
      <trkpt lat="45.70377" lon="5.2397">
        <ele>393.8</ele>
        <time>2025-05-18T09:40:53Z</time>
      </trkpt>
      <trkpt lat="45.70375" lon="5.23969">
        <ele>393.8</ele>
        <time>2025-05-18T09:40:54Z</time>
      </trkpt>
      <trkpt lat="45.70373" lon="5.23968">
        <ele>394.2</ele>
        <time>2025-05-18T09:40:55Z</time>
      </trkpt>
      <trkpt lat="45.70372" lon="5.23967">
        <ele>394.6</ele>
        <time>2025-05-18T09:40:56Z</time>
      </trkpt>
      <trkpt lat="45.70371" lon="5.23966">
        <ele>395</ele>
        <time>2025-05-18T09:40:57Z</time>
      </trkpt>
      <trkpt lat="45.70369" lon="5.23965">
        <ele>395.2</ele>
        <time>2025-05-18T09:40:58Z</time>
      </trkpt>
      <trkpt lat="45.70368" lon="5.23964">
        <ele>395.2</ele>
        <time>2025-05-18T09:40:59Z</time>
      </trkpt>
      <trkpt lat="45.70366" lon="5.23962">
        <ele>395.2</ele>
        <time>2025-05-18T09:41:00Z</time>
      </trkpt>
      <trkpt lat="45.70365" lon="5.23961">
        <ele>395.2</ele>
        <time>2025-05-18T09:41:01Z</time>
      </trkpt>
      <trkpt lat="45.70364" lon="5.23959">
        <ele>395.4</ele>
        <time>2025-05-18T09:41:02Z</time>
      </trkpt>
      <trkpt lat="45.70362" lon="5.23957">
        <ele>395.4</ele>
        <time>2025-05-18T09:41:03Z</time>
      </trkpt>
      <trkpt lat="45.7036" lon="5.23955">
        <ele>395.8</ele>
        <time>2025-05-18T09:41:04Z</time>
      </trkpt>
      <trkpt lat="45.70359" lon="5.23954">
        <ele>395.8</ele>
        <time>2025-05-18T09:41:05Z</time>
      </trkpt>
      <trkpt lat="45.70357" lon="5.23951">
        <ele>396.2</ele>
        <time>2025-05-18T09:41:06Z</time>
      </trkpt>
      <trkpt lat="45.70356" lon="5.23949">
        <ele>396.2</ele>
        <time>2025-05-18T09:41:07Z</time>
      </trkpt>
      <trkpt lat="45.70355" lon="5.23948">
        <ele>396.2</ele>
        <time>2025-05-18T09:41:08Z</time>
      </trkpt>
      <trkpt lat="45.70353" lon="5.23947">
        <ele>396.2</ele>
        <time>2025-05-18T09:41:09Z</time>
      </trkpt>
      <trkpt lat="45.70352" lon="5.23946">
        <ele>396.4</ele>
        <time>2025-05-18T09:41:10Z</time>
      </trkpt>
      <trkpt lat="45.70351" lon="5.23944">
        <ele>396.4</ele>
        <time>2025-05-18T09:41:11Z</time>
      </trkpt>
      <trkpt lat="45.70349" lon="5.23942">
        <ele>396.8</ele>
        <time>2025-05-18T09:41:12Z</time>
      </trkpt>
      <trkpt lat="45.70349" lon="5.23941">
        <ele>396.8</ele>
        <time>2025-05-18T09:41:13Z</time>
      </trkpt>
      <trkpt lat="45.70347" lon="5.2394">
        <ele>396.8</ele>
        <time>2025-05-18T09:41:14Z</time>
      </trkpt>
      <trkpt lat="45.70345" lon="5.23938">
        <ele>397</ele>
        <time>2025-05-18T09:41:15Z</time>
      </trkpt>
      <trkpt lat="45.70343" lon="5.23937">
        <ele>396.6</ele>
        <time>2025-05-18T09:41:16Z</time>
      </trkpt>
      <trkpt lat="45.70342" lon="5.23936">
        <ele>396.8</ele>
        <time>2025-05-18T09:41:17Z</time>
      </trkpt>
      <trkpt lat="45.7034" lon="5.23935">
        <ele>396.8</ele>
        <time>2025-05-18T09:41:18Z</time>
      </trkpt>
      <trkpt lat="45.70339" lon="5.23933">
        <ele>396.8</ele>
        <time>2025-05-18T09:41:19Z</time>
      </trkpt>
      <trkpt lat="45.70337" lon="5.23931">
        <ele>396.8</ele>
        <time>2025-05-18T09:41:20Z</time>
      </trkpt>
      <trkpt lat="45.70334" lon="5.23929">
        <ele>397.2</ele>
        <time>2025-05-18T09:41:21Z</time>
      </trkpt>
      <trkpt lat="45.70332" lon="5.23927">
        <ele>397.2</ele>
        <time>2025-05-18T09:41:22Z</time>
      </trkpt>
      <trkpt lat="45.7033" lon="5.23925">
        <ele>397.2</ele>
        <time>2025-05-18T09:41:23Z</time>
      </trkpt>
      <trkpt lat="45.70329" lon="5.23923">
        <ele>397.2</ele>
        <time>2025-05-18T09:41:24Z</time>
      </trkpt>
      <trkpt lat="45.70327" lon="5.23922">
        <ele>397</ele>
        <time>2025-05-18T09:41:25Z</time>
      </trkpt>
      <trkpt lat="45.70324" lon="5.2392">
        <ele>397</ele>
        <time>2025-05-18T09:41:26Z</time>
      </trkpt>
      <trkpt lat="45.70322" lon="5.23918">
        <ele>397</ele>
        <time>2025-05-18T09:41:27Z</time>
      </trkpt>
      <trkpt lat="45.70319" lon="5.23916">
        <ele>397</ele>
        <time>2025-05-18T09:41:28Z</time>
      </trkpt>
      <trkpt lat="45.70316" lon="5.23915">
        <ele>397</ele>
        <time>2025-05-18T09:41:29Z</time>
      </trkpt>
      <trkpt lat="45.70314" lon="5.23913">
        <ele>397.2</ele>
        <time>2025-05-18T09:41:30Z</time>
      </trkpt>
      <trkpt lat="45.70311" lon="5.23912">
        <ele>397.2</ele>
        <time>2025-05-18T09:41:31Z</time>
      </trkpt>
      <trkpt lat="45.70309" lon="5.2391">
        <ele>397.6</ele>
        <time>2025-05-18T09:41:32Z</time>
      </trkpt>
      <trkpt lat="45.70306" lon="5.23909">
        <ele>397.8</ele>
        <time>2025-05-18T09:41:33Z</time>
      </trkpt>
      <trkpt lat="45.70303" lon="5.23908">
        <ele>397.8</ele>
        <time>2025-05-18T09:41:34Z</time>
      </trkpt>
      <trkpt lat="45.70301" lon="5.23907">
        <ele>397.8</ele>
        <time>2025-05-18T09:41:35Z</time>
      </trkpt>
      <trkpt lat="45.70299" lon="5.23907">
        <ele>398</ele>
        <time>2025-05-18T09:41:36Z</time>
      </trkpt>
      <trkpt lat="45.70297" lon="5.23906">
        <ele>397.8</ele>
        <time>2025-05-18T09:41:37Z</time>
      </trkpt>
      <trkpt lat="45.70295" lon="5.23905">
        <ele>397.8</ele>
        <time>2025-05-18T09:41:38Z</time>
      </trkpt>
      <trkpt lat="45.70293" lon="5.23904">
        <ele>398</ele>
        <time>2025-05-18T09:41:39Z</time>
      </trkpt>
      <trkpt lat="45.7029" lon="5.23902">
        <ele>398</ele>
        <time>2025-05-18T09:41:40Z</time>
      </trkpt>
      <trkpt lat="45.70288" lon="5.239">
        <ele>398</ele>
        <time>2025-05-18T09:41:41Z</time>
      </trkpt>
      <trkpt lat="45.70285" lon="5.23898">
        <ele>398.4</ele>
        <time>2025-05-18T09:41:42Z</time>
      </trkpt>
      <trkpt lat="45.70282" lon="5.23896">
        <ele>398.4</ele>
        <time>2025-05-18T09:41:43Z</time>
      </trkpt>
      <trkpt lat="45.70279" lon="5.23894">
        <ele>398.4</ele>
        <time>2025-05-18T09:41:44Z</time>
      </trkpt>
      <trkpt lat="45.70277" lon="5.23893">
        <ele>398.4</ele>
        <time>2025-05-18T09:41:45Z</time>
      </trkpt>
      <trkpt lat="45.70275" lon="5.23892">
        <ele>398.6</ele>
        <time>2025-05-18T09:41:46Z</time>
      </trkpt>
      <trkpt lat="45.70274" lon="5.23892">
        <ele>398.8</ele>
        <time>2025-05-18T09:41:47Z</time>
      </trkpt>
      <trkpt lat="45.70273" lon="5.23892">
        <ele>398.8</ele>
        <time>2025-05-18T09:41:48Z</time>
      </trkpt>
      <trkpt lat="45.70272" lon="5.23891">
        <ele>398.8</ele>
        <time>2025-05-18T09:41:49Z</time>
      </trkpt>
      <trkpt lat="45.7027" lon="5.2389">
        <ele>398.8</ele>
        <time>2025-05-18T09:41:50Z</time>
      </trkpt>
      <trkpt lat="45.70269" lon="5.23888">
        <ele>398.8</ele>
        <time>2025-05-18T09:41:51Z</time>
      </trkpt>
      <trkpt lat="45.70268" lon="5.23885">
        <ele>398.8</ele>
        <time>2025-05-18T09:41:52Z</time>
      </trkpt>
      <trkpt lat="45.70266" lon="5.23883">
        <ele>398.4</ele>
        <time>2025-05-18T09:41:53Z</time>
      </trkpt>
      <trkpt lat="45.70265" lon="5.23882">
        <ele>398.4</ele>
        <time>2025-05-18T09:41:54Z</time>
      </trkpt>
      <trkpt lat="45.70265" lon="5.23881">
        <ele>398.4</ele>
        <time>2025-05-18T09:41:55Z</time>
      </trkpt>
      <trkpt lat="45.70265" lon="5.23881">
        <ele>398.4</ele>
        <time>2025-05-18T09:41:56Z</time>
      </trkpt>
      <trkpt lat="45.70265" lon="5.2388">
        <ele>398.8</ele>
        <time>2025-05-18T09:41:57Z</time>
      </trkpt>
      <trkpt lat="45.70266" lon="5.23875">
        <ele>398.8</ele>
        <time>2025-05-18T09:43:23Z</time>
      </trkpt>
      <trkpt lat="45.70265" lon="5.23872">
        <ele>398.4</ele>
        <time>2025-05-18T09:43:24Z</time>
      </trkpt>
      <trkpt lat="45.70264" lon="5.23868">
        <ele>397.6</ele>
        <time>2025-05-18T09:43:25Z</time>
      </trkpt>
      <trkpt lat="45.70263" lon="5.23865">
        <ele>397.6</ele>
        <time>2025-05-18T09:43:26Z</time>
      </trkpt>
      <trkpt lat="45.70262" lon="5.23864">
        <ele>398.6</ele>
        <time>2025-05-18T09:43:27Z</time>
      </trkpt>
      <trkpt lat="45.70261" lon="5.23863">
        <ele>398.8</ele>
        <time>2025-05-18T09:43:28Z</time>
      </trkpt>
      <trkpt lat="45.7026" lon="5.23862">
        <ele>397.4</ele>
        <time>2025-05-18T09:43:29Z</time>
      </trkpt>
      <trkpt lat="45.7026" lon="5.23861">
        <ele>398.4</ele>
        <time>2025-05-18T09:43:30Z</time>
      </trkpt>
      <trkpt lat="45.70259" lon="5.2386">
        <ele>399</ele>
        <time>2025-05-18T09:43:31Z</time>
      </trkpt>
      <trkpt lat="45.70257" lon="5.23858">
        <ele>399</ele>
        <time>2025-05-18T09:43:32Z</time>
      </trkpt>
      <trkpt lat="45.70256" lon="5.23856">
        <ele>398.6</ele>
        <time>2025-05-18T09:43:33Z</time>
      </trkpt>
      <trkpt lat="45.70255" lon="5.23854">
        <ele>398</ele>
        <time>2025-05-18T09:43:34Z</time>
      </trkpt>
      <trkpt lat="45.70254" lon="5.23852">
        <ele>397.8</ele>
        <time>2025-05-18T09:43:35Z</time>
      </trkpt>
      <trkpt lat="45.70252" lon="5.23848">
        <ele>398</ele>
        <time>2025-05-18T09:43:36Z</time>
      </trkpt>
      <trkpt lat="45.7025" lon="5.23844">
        <ele>397.8</ele>
        <time>2025-05-18T09:43:37Z</time>
      </trkpt>
      <trkpt lat="45.70249" lon="5.2384">
        <ele>397.4</ele>
        <time>2025-05-18T09:43:38Z</time>
      </trkpt>
      <trkpt lat="45.70248" lon="5.23835">
        <ele>396.8</ele>
        <time>2025-05-18T09:43:39Z</time>
      </trkpt>
      <trkpt lat="45.70247" lon="5.23831">
        <ele>396.2</ele>
        <time>2025-05-18T09:43:40Z</time>
      </trkpt>
      <trkpt lat="45.70247" lon="5.23826">
        <ele>395.6</ele>
        <time>2025-05-18T09:43:41Z</time>
      </trkpt>
      <trkpt lat="45.70246" lon="5.23821">
        <ele>395.6</ele>
        <time>2025-05-18T09:43:42Z</time>
      </trkpt>
      <trkpt lat="45.70245" lon="5.23817">
        <ele>395.6</ele>
        <time>2025-05-18T09:43:43Z</time>
      </trkpt>
      <trkpt lat="45.70245" lon="5.23812">
        <ele>395</ele>
        <time>2025-05-18T09:43:44Z</time>
      </trkpt>
      <trkpt lat="45.70244" lon="5.23806">
        <ele>395</ele>
        <time>2025-05-18T09:43:45Z</time>
      </trkpt>
      <trkpt lat="45.70242" lon="5.238">
        <ele>394.8</ele>
        <time>2025-05-18T09:43:46Z</time>
      </trkpt>
      <trkpt lat="45.7024" lon="5.23795">
        <ele>394.6</ele>
        <time>2025-05-18T09:43:47Z</time>
      </trkpt>
      <trkpt lat="45.70238" lon="5.23791">
        <ele>394</ele>
        <time>2025-05-18T09:43:48Z</time>
      </trkpt>
      <trkpt lat="45.70237" lon="5.23787">
        <ele>393.6</ele>
        <time>2025-05-18T09:43:49Z</time>
      </trkpt>
      <trkpt lat="45.70234" lon="5.23782">
        <ele>393.4</ele>
        <time>2025-05-18T09:43:50Z</time>
      </trkpt>
      <trkpt lat="45.70231" lon="5.23777">
        <ele>393</ele>
        <time>2025-05-18T09:43:51Z</time>
      </trkpt>
      <trkpt lat="45.70228" lon="5.23774">
        <ele>393</ele>
        <time>2025-05-18T09:43:52Z</time>
      </trkpt>
      <trkpt lat="45.70225" lon="5.2377">
        <ele>391.8</ele>
        <time>2025-05-18T09:43:53Z</time>
      </trkpt>
      <trkpt lat="45.70221" lon="5.23767">
        <ele>391.8</ele>
        <time>2025-05-18T09:43:54Z</time>
      </trkpt>
      <trkpt lat="45.70219" lon="5.23765">
        <ele>391.8</ele>
        <time>2025-05-18T09:43:55Z</time>
      </trkpt>
      <trkpt lat="45.70217" lon="5.23761">
        <ele>391.4</ele>
        <time>2025-05-18T09:43:56Z</time>
      </trkpt>
      <trkpt lat="45.70214" lon="5.23756">
        <ele>391.4</ele>
        <time>2025-05-18T09:43:57Z</time>
      </trkpt>
      <trkpt lat="45.70212" lon="5.23752">
        <ele>390.4</ele>
        <time>2025-05-18T09:43:58Z</time>
      </trkpt>
      <trkpt lat="45.7021" lon="5.23747">
        <ele>390.2</ele>
        <time>2025-05-18T09:43:59Z</time>
      </trkpt>
      <trkpt lat="45.70208" lon="5.23743">
        <ele>389.4</ele>
        <time>2025-05-18T09:44:00Z</time>
      </trkpt>
      <trkpt lat="45.70206" lon="5.23739">
        <ele>389.4</ele>
        <time>2025-05-18T09:44:01Z</time>
      </trkpt>
      <trkpt lat="45.70202" lon="5.23734">
        <ele>390.6</ele>
        <time>2025-05-18T09:44:02Z</time>
      </trkpt>
      <trkpt lat="45.70199" lon="5.23731">
        <ele>389.8</ele>
        <time>2025-05-18T09:44:03Z</time>
      </trkpt>
      <trkpt lat="45.70195" lon="5.23728">
        <ele>389.4</ele>
        <time>2025-05-18T09:44:04Z</time>
      </trkpt>
      <trkpt lat="45.70192" lon="5.23725">
        <ele>388.6</ele>
        <time>2025-05-18T09:44:05Z</time>
      </trkpt>
      <trkpt lat="45.70189" lon="5.23722">
        <ele>388.6</ele>
        <time>2025-05-18T09:44:06Z</time>
      </trkpt>
      <trkpt lat="45.70185" lon="5.2372">
        <ele>388</ele>
        <time>2025-05-18T09:44:07Z</time>
      </trkpt>
      <trkpt lat="45.70182" lon="5.23718">
        <ele>387.2</ele>
        <time>2025-05-18T09:44:08Z</time>
      </trkpt>
      <trkpt lat="45.70179" lon="5.23718">
        <ele>386.6</ele>
        <time>2025-05-18T09:44:09Z</time>
      </trkpt>
      <trkpt lat="45.70176" lon="5.23717">
        <ele>386.4</ele>
        <time>2025-05-18T09:44:10Z</time>
      </trkpt>
      <trkpt lat="45.70173" lon="5.23716">
        <ele>385.8</ele>
        <time>2025-05-18T09:44:11Z</time>
      </trkpt>
      <trkpt lat="45.7017" lon="5.23715">
        <ele>385.6</ele>
        <time>2025-05-18T09:44:12Z</time>
      </trkpt>
      <trkpt lat="45.70167" lon="5.23713">
        <ele>385.4</ele>
        <time>2025-05-18T09:44:13Z</time>
      </trkpt>
      <trkpt lat="45.70163" lon="5.23712">
        <ele>385</ele>
        <time>2025-05-18T09:44:14Z</time>
      </trkpt>
      <trkpt lat="45.7016" lon="5.2371">
        <ele>385</ele>
        <time>2025-05-18T09:44:15Z</time>
      </trkpt>
      <trkpt lat="45.70158" lon="5.23709">
        <ele>384.4</ele>
        <time>2025-05-18T09:44:16Z</time>
      </trkpt>
      <trkpt lat="45.70157" lon="5.23707">
        <ele>384.2</ele>
        <time>2025-05-18T09:44:17Z</time>
      </trkpt>
      <trkpt lat="45.70156" lon="5.23706">
        <ele>383.8</ele>
        <time>2025-05-18T09:44:18Z</time>
      </trkpt>
      <trkpt lat="45.70156" lon="5.23705">
        <ele>383.8</ele>
        <time>2025-05-18T09:44:19Z</time>
      </trkpt>
      <trkpt lat="45.70155" lon="5.23703">
        <ele>383.6</ele>
        <time>2025-05-18T09:44:20Z</time>
      </trkpt>
      <trkpt lat="45.70155" lon="5.23703">
        <ele>383.6</ele>
        <time>2025-05-18T09:44:21Z</time>
      </trkpt>
      <trkpt lat="45.70155" lon="5.23703">
        <ele>383.6</ele>
        <time>2025-05-18T09:44:22Z</time>
      </trkpt>
      <trkpt lat="45.70155" lon="5.23703">
        <ele>383.6</ele>
        <time>2025-05-18T09:44:23Z</time>
      </trkpt>
      <trkpt lat="45.70152" lon="5.23702">
        <ele>383.4</ele>
        <time>2025-05-18T09:45:14Z</time>
      </trkpt>
      <trkpt lat="45.70151" lon="5.23701">
        <ele>383.2</ele>
        <time>2025-05-18T09:45:15Z</time>
      </trkpt>
      <trkpt lat="45.7015" lon="5.237">
        <ele>383.2</ele>
        <time>2025-05-18T09:45:16Z</time>
        <extensions>
          <visugpx:TrkExtension xmlns:visugpx="https://www.visugpx.com/editgpx/">
            <visugpx:node>1</visugpx:node>
            </visugpx:TrkExtension>
        </extensions>
      </trkpt>
      <trkpt lat="45.70135" lon="5.23701">
        <ele>380.2</ele>
        <time>2025-05-27T08:16:51Z</time>
        <extensions>
          <visugpx:TrkExtension xmlns:visugpx="https://www.visugpx.com/editgpx/">
            <visugpx:node>2</visugpx:node>
            </visugpx:TrkExtension>
        </extensions>
      </trkpt>
      <trkpt lat="45.70137" lon="5.237">
        <ele>380.2</ele>
        <time>2025-05-27T08:16:52Z</time>
      </trkpt>
      <trkpt lat="45.70138" lon="5.237">
        <ele>380.2</ele>
        <time>2025-05-27T08:16:53Z</time>
      </trkpt>
      <trkpt lat="45.70139" lon="5.23699">
        <ele>380.6</ele>
        <time>2025-05-27T08:16:54Z</time>
      </trkpt>
      <trkpt lat="45.7014" lon="5.23699">
        <ele>380.6</ele>
        <time>2025-05-27T08:16:55Z</time>
      </trkpt>
      <trkpt lat="45.7014" lon="5.23697">
        <ele>380.6</ele>
        <time>2025-05-27T08:16:56Z</time>
      </trkpt>
      <trkpt lat="45.7014" lon="5.23695">
        <ele>380.8</ele>
        <time>2025-05-27T08:16:57Z</time>
      </trkpt>
      <trkpt lat="45.7014" lon="5.23693">
        <ele>380.8</ele>
        <time>2025-05-27T08:16:58Z</time>
      </trkpt>
      <trkpt lat="45.7014" lon="5.23691">
        <ele>380.8</ele>
        <time>2025-05-27T08:16:59Z</time>
      </trkpt>
      <trkpt lat="45.7014" lon="5.23691">
        <ele>380.6</ele>
        <time>2025-05-27T08:17:00Z</time>
      </trkpt>
      <trkpt lat="45.70139" lon="5.23685">
        <ele>380.2</ele>
        <time>2025-05-27T08:17:01Z</time>
      </trkpt>
      <trkpt lat="45.70139" lon="5.2368">
        <ele>380.4</ele>
        <time>2025-05-27T08:17:02Z</time>
      </trkpt>
      <trkpt lat="45.70139" lon="5.23675">
        <ele>380</ele>
        <time>2025-05-27T08:17:03Z</time>
      </trkpt>
      <trkpt lat="45.70138" lon="5.23671">
        <ele>379.4</ele>
        <time>2025-05-27T08:17:04Z</time>
      </trkpt>
      <trkpt lat="45.70137" lon="5.23666">
        <ele>379</ele>
        <time>2025-05-27T08:17:05Z</time>
      </trkpt>
      <trkpt lat="45.70136" lon="5.23661">
        <ele>378.2</ele>
        <time>2025-05-27T08:17:06Z</time>
      </trkpt>
      <trkpt lat="45.70135" lon="5.23655">
        <ele>378</ele>
        <time>2025-05-27T08:17:07Z</time>
      </trkpt>
      <trkpt lat="45.70133" lon="5.2365">
        <ele>377.2</ele>
        <time>2025-05-27T08:17:08Z</time>
      </trkpt>
      <trkpt lat="45.70133" lon="5.23639">
        <ele>377.2</ele>
        <time>2025-05-27T08:17:09Z</time>
      </trkpt>
      <trkpt lat="45.70131" lon="5.23632">
        <ele>377.6</ele>
        <time>2025-05-27T08:17:10Z</time>
      </trkpt>
      <trkpt lat="45.70131" lon="5.23629">
        <ele>377.2</ele>
        <time>2025-05-27T08:17:11Z</time>
      </trkpt>
      <trkpt lat="45.7013" lon="5.23625">
        <ele>376.8</ele>
        <time>2025-05-27T08:17:12Z</time>
      </trkpt>
      <trkpt lat="45.70128" lon="5.23624">
        <ele>376.4</ele>
        <time>2025-05-27T08:17:13Z</time>
      </trkpt>
      <trkpt lat="45.70128" lon="5.23622">
        <ele>376.4</ele>
        <time>2025-05-27T08:17:14Z</time>
      </trkpt>
      <trkpt lat="45.70127" lon="5.23622">
        <ele>376.2</ele>
        <time>2025-05-27T08:17:15Z</time>
      </trkpt>
      <trkpt lat="45.70127" lon="5.2362">
        <ele>375.8</ele>
        <time>2025-05-27T08:17:16Z</time>
      </trkpt>
      <trkpt lat="45.70125" lon="5.23617">
        <ele>375.6</ele>
        <time>2025-05-27T08:17:23Z</time>
      </trkpt>
      <trkpt lat="45.70124" lon="5.23613">
        <ele>375.2</ele>
        <time>2025-05-27T08:17:24Z</time>
      </trkpt>
      <trkpt lat="45.70126" lon="5.23609">
        <ele>374.8</ele>
        <time>2025-05-27T08:17:25Z</time>
      </trkpt>
      <trkpt lat="45.70126" lon="5.23606">
        <ele>374.4</ele>
        <time>2025-05-27T08:17:26Z</time>
      </trkpt>
      <trkpt lat="45.70126" lon="5.23602">
        <ele>374</ele>
        <time>2025-05-27T08:17:27Z</time>
      </trkpt>
      <trkpt lat="45.70126" lon="5.23596">
        <ele>373.4</ele>
        <time>2025-05-27T08:17:28Z</time>
      </trkpt>
      <trkpt lat="45.70127" lon="5.23591">
        <ele>373.4</ele>
        <time>2025-05-27T08:17:29Z</time>
      </trkpt>
      <trkpt lat="45.70127" lon="5.23588">
        <ele>373.2</ele>
        <time>2025-05-27T08:17:30Z</time>
      </trkpt>
      <trkpt lat="45.70127" lon="5.23586">
        <ele>373</ele>
        <time>2025-05-27T08:17:31Z</time>
      </trkpt>
      <trkpt lat="45.70127" lon="5.23581">
        <ele>373</ele>
        <time>2025-05-27T08:17:32Z</time>
      </trkpt>
      <trkpt lat="45.70126" lon="5.23575">
        <ele>372.4</ele>
        <time>2025-05-27T08:17:33Z</time>
      </trkpt>
      <trkpt lat="45.70126" lon="5.23569">
        <ele>370.8</ele>
        <time>2025-05-27T08:17:34Z</time>
      </trkpt>
      <trkpt lat="45.70127" lon="5.23564">
        <ele>371</ele>
        <time>2025-05-27T08:17:35Z</time>
      </trkpt>
      <trkpt lat="45.70129" lon="5.2356">
        <ele>371.6</ele>
        <time>2025-05-27T08:17:36Z</time>
      </trkpt>
      <trkpt lat="45.70131" lon="5.23557">
        <ele>372</ele>
        <time>2025-05-27T08:17:37Z</time>
      </trkpt>
      <trkpt lat="45.70133" lon="5.23554">
        <ele>372.4</ele>
        <time>2025-05-27T08:17:38Z</time>
      </trkpt>
      <trkpt lat="45.70135" lon="5.23552">
        <ele>373</ele>
        <time>2025-05-27T08:17:39Z</time>
      </trkpt>
      <trkpt lat="45.70137" lon="5.23549">
        <ele>373.6</ele>
        <time>2025-05-27T08:17:40Z</time>
      </trkpt>
      <trkpt lat="45.70139" lon="5.23547">
        <ele>374</ele>
        <time>2025-05-27T08:17:41Z</time>
      </trkpt>
      <trkpt lat="45.70141" lon="5.23545">
        <ele>374.2</ele>
        <time>2025-05-27T08:17:42Z</time>
      </trkpt>
      <trkpt lat="45.70143" lon="5.23543">
        <ele>374.2</ele>
        <time>2025-05-27T08:17:43Z</time>
      </trkpt>
      <trkpt lat="45.70144" lon="5.2354">
        <ele>374.6</ele>
        <time>2025-05-27T08:17:44Z</time>
      </trkpt>
      <trkpt lat="45.70145" lon="5.23535">
        <ele>375</ele>
        <time>2025-05-27T08:17:45Z</time>
      </trkpt>
      <trkpt lat="45.70146" lon="5.2353">
        <ele>375.2</ele>
        <time>2025-05-27T08:17:46Z</time>
      </trkpt>
      <trkpt lat="45.70147" lon="5.23527">
        <ele>375.2</ele>
        <time>2025-05-27T08:17:47Z</time>
      </trkpt>
      <trkpt lat="45.70148" lon="5.23524">
        <ele>375.4</ele>
        <time>2025-05-27T08:17:48Z</time>
      </trkpt>
      <trkpt lat="45.7015" lon="5.23521">
        <ele>375.8</ele>
        <time>2025-05-27T08:17:49Z</time>
      </trkpt>
      <trkpt lat="45.70151" lon="5.23518">
        <ele>375.8</ele>
        <time>2025-05-27T08:17:50Z</time>
      </trkpt>
      <trkpt lat="45.70153" lon="5.23516">
        <ele>376.2</ele>
        <time>2025-05-27T08:17:51Z</time>
      </trkpt>
      <trkpt lat="45.70155" lon="5.23513">
        <ele>376.4</ele>
        <time>2025-05-27T08:17:52Z</time>
      </trkpt>
      <trkpt lat="45.70157" lon="5.23512">
        <ele>376.4</ele>
        <time>2025-05-27T08:17:53Z</time>
      </trkpt>
      <trkpt lat="45.7016" lon="5.2351">
        <ele>376.8</ele>
        <time>2025-05-27T08:17:54Z</time>
      </trkpt>
      <trkpt lat="45.70162" lon="5.23509">
        <ele>377.2</ele>
        <time>2025-05-27T08:17:55Z</time>
      </trkpt>
      <trkpt lat="45.70165" lon="5.23509">
        <ele>377.6</ele>
        <time>2025-05-27T08:17:56Z</time>
      </trkpt>
      <trkpt lat="45.70167" lon="5.23509">
        <ele>378</ele>
        <time>2025-05-27T08:17:57Z</time>
      </trkpt>
      <trkpt lat="45.70168" lon="5.23509">
        <ele>378</ele>
        <time>2025-05-27T08:17:58Z</time>
      </trkpt>
      <trkpt lat="45.7017" lon="5.23509">
        <ele>378.4</ele>
        <time>2025-05-27T08:17:59Z</time>
      </trkpt>
      <trkpt lat="45.70172" lon="5.23509">
        <ele>378.8</ele>
        <time>2025-05-27T08:18:00Z</time>
      </trkpt>
      <trkpt lat="45.70175" lon="5.23509">
        <ele>379.2</ele>
        <time>2025-05-27T08:18:01Z</time>
      </trkpt>
      <trkpt lat="45.70177" lon="5.2351">
        <ele>379.6</ele>
        <time>2025-05-27T08:18:02Z</time>
      </trkpt>
      <trkpt lat="45.70178" lon="5.23511">
        <ele>379.6</ele>
        <time>2025-05-27T08:18:03Z</time>
      </trkpt>
      <trkpt lat="45.7018" lon="5.23512">
        <ele>380.4</ele>
        <time>2025-05-27T08:18:04Z</time>
      </trkpt>
      <trkpt lat="45.70182" lon="5.23513">
        <ele>380.4</ele>
        <time>2025-05-27T08:18:05Z</time>
      </trkpt>
      <trkpt lat="45.70184" lon="5.23513">
        <ele>380.4</ele>
        <time>2025-05-27T08:18:06Z</time>
      </trkpt>
      <trkpt lat="45.70187" lon="5.23512">
        <ele>380.4</ele>
        <time>2025-05-27T08:18:07Z</time>
      </trkpt>
      <trkpt lat="45.7019" lon="5.2351">
        <ele>379.8</ele>
        <time>2025-05-27T08:18:08Z</time>
      </trkpt>
      <trkpt lat="45.70192" lon="5.23508">
        <ele>379.8</ele>
        <time>2025-05-27T08:18:09Z</time>
      </trkpt>
      <trkpt lat="45.70195" lon="5.23504">
        <ele>379.8</ele>
        <time>2025-05-27T08:18:10Z</time>
      </trkpt>
      <trkpt lat="45.70198" lon="5.23501">
        <ele>379.8</ele>
        <time>2025-05-27T08:18:11Z</time>
      </trkpt>
      <trkpt lat="45.70199" lon="5.23498">
        <ele>380.2</ele>
        <time>2025-05-27T08:18:12Z</time>
      </trkpt>
      <trkpt lat="45.702" lon="5.23494">
        <ele>380.2</ele>
        <time>2025-05-27T08:18:13Z</time>
      </trkpt>
      <trkpt lat="45.70201" lon="5.23489">
        <ele>380.2</ele>
        <time>2025-05-27T08:18:14Z</time>
      </trkpt>
      <trkpt lat="45.70202" lon="5.23485">
        <ele>379.8</ele>
        <time>2025-05-27T08:18:15Z</time>
      </trkpt>
      <trkpt lat="45.70203" lon="5.23483">
        <ele>381</ele>
        <time>2025-05-27T08:18:16Z</time>
      </trkpt>
      <trkpt lat="45.70203" lon="5.23481">
        <ele>381</ele>
        <time>2025-05-27T08:18:17Z</time>
      </trkpt>
      <trkpt lat="45.70204" lon="5.23479">
        <ele>381</ele>
        <time>2025-05-27T08:18:18Z</time>
      </trkpt>
      <trkpt lat="45.70206" lon="5.23476">
        <ele>381</ele>
        <time>2025-05-27T08:18:19Z</time>
      </trkpt>
      <trkpt lat="45.70209" lon="5.23473">
        <ele>381</ele>
        <time>2025-05-27T08:18:20Z</time>
      </trkpt>
      <trkpt lat="45.70212" lon="5.23472">
        <ele>381</ele>
        <time>2025-05-27T08:18:21Z</time>
      </trkpt>
      <trkpt lat="45.70215" lon="5.23469">
        <ele>381</ele>
        <time>2025-05-27T08:18:22Z</time>
      </trkpt>
      <trkpt lat="45.70217" lon="5.23467">
        <ele>381</ele>
        <time>2025-05-27T08:18:23Z</time>
      </trkpt>
      <trkpt lat="45.7022" lon="5.23465">
        <ele>381.6</ele>
        <time>2025-05-27T08:18:24Z</time>
      </trkpt>
      <trkpt lat="45.70222" lon="5.23463">
        <ele>381.6</ele>
        <time>2025-05-27T08:18:25Z</time>
      </trkpt>
      <trkpt lat="45.70223" lon="5.23462">
        <ele>381.8</ele>
        <time>2025-05-27T08:18:26Z</time>
      </trkpt>
      <trkpt lat="45.70223" lon="5.23462">
        <ele>381.8</ele>
        <time>2025-05-27T08:18:27Z</time>
      </trkpt>
      <trkpt lat="45.70223" lon="5.23453">
        <ele>381.8</ele>
        <time>2025-05-27T08:19:30Z</time>
      </trkpt>
      <trkpt lat="45.70225" lon="5.23452">
        <ele>381.8</ele>
        <time>2025-05-27T08:19:31Z</time>
      </trkpt>
      <trkpt lat="45.70227" lon="5.23451">
        <ele>381.6</ele>
        <time>2025-05-27T08:19:32Z</time>
      </trkpt>
      <trkpt lat="45.70229" lon="5.2345">
        <ele>381.2</ele>
        <time>2025-05-27T08:19:33Z</time>
      </trkpt>
      <trkpt lat="45.70233" lon="5.23448">
        <ele>380.6</ele>
        <time>2025-05-27T08:19:34Z</time>
      </trkpt>
      <trkpt lat="45.70238" lon="5.23446">
        <ele>380.6</ele>
        <time>2025-05-27T08:19:35Z</time>
      </trkpt>
      <trkpt lat="45.70242" lon="5.23446">
        <ele>380.2</ele>
        <time>2025-05-27T08:19:36Z</time>
      </trkpt>
      <trkpt lat="45.70246" lon="5.23447">
        <ele>379.8</ele>
        <time>2025-05-27T08:19:37Z</time>
      </trkpt>
      <trkpt lat="45.70251" lon="5.23448">
        <ele>379.8</ele>
        <time>2025-05-27T08:19:38Z</time>
      </trkpt>
      <trkpt lat="45.70255" lon="5.23449">
        <ele>379.8</ele>
        <time>2025-05-27T08:19:39Z</time>
      </trkpt>
      <trkpt lat="45.70259" lon="5.2345">
        <ele>379.8</ele>
        <time>2025-05-27T08:19:40Z</time>
      </trkpt>
      <trkpt lat="45.70262" lon="5.23452">
        <ele>380</ele>
        <time>2025-05-27T08:19:41Z</time>
      </trkpt>
      <trkpt lat="45.70266" lon="5.23453">
        <ele>380</ele>
        <time>2025-05-27T08:19:42Z</time>
      </trkpt>
      <trkpt lat="45.7027" lon="5.23455">
        <ele>380.6</ele>
        <time>2025-05-27T08:19:43Z</time>
      </trkpt>
      <trkpt lat="45.70272" lon="5.23457">
        <ele>380.6</ele>
        <time>2025-05-27T08:19:44Z</time>
      </trkpt>
      <trkpt lat="45.70275" lon="5.23459">
        <ele>380.6</ele>
        <time>2025-05-27T08:19:45Z</time>
      </trkpt>
      <trkpt lat="45.70279" lon="5.23461">
        <ele>380.6</ele>
        <time>2025-05-27T08:19:46Z</time>
      </trkpt>
      <trkpt lat="45.70283" lon="5.23463">
        <ele>380.6</ele>
        <time>2025-05-27T08:19:47Z</time>
      </trkpt>
      <trkpt lat="45.70287" lon="5.23464">
        <ele>380.6</ele>
        <time>2025-05-27T08:19:48Z</time>
      </trkpt>
      <trkpt lat="45.7029" lon="5.23464">
        <ele>380.4</ele>
        <time>2025-05-27T08:19:49Z</time>
      </trkpt>
      <trkpt lat="45.70293" lon="5.23465">
        <ele>380.4</ele>
        <time>2025-05-27T08:19:50Z</time>
      </trkpt>
      <trkpt lat="45.70293" lon="5.23465">
        <ele>381</ele>
        <time>2025-05-27T08:19:51Z</time>
      </trkpt>
      <trkpt lat="45.70297" lon="5.23466">
        <ele>381</ele>
        <time>2025-05-27T08:19:52Z</time>
      </trkpt>
      <trkpt lat="45.70305" lon="5.23468">
        <ele>381</ele>
        <time>2025-05-27T08:19:53Z</time>
      </trkpt>
      <trkpt lat="45.7031" lon="5.23467">
        <ele>380.8</ele>
        <time>2025-05-27T08:19:54Z</time>
      </trkpt>
      <trkpt lat="45.70315" lon="5.23469">
        <ele>380.2</ele>
        <time>2025-05-27T08:19:55Z</time>
      </trkpt>
      <trkpt lat="45.70319" lon="5.2347">
        <ele>379.8</ele>
        <time>2025-05-27T08:19:56Z</time>
      </trkpt>
      <trkpt lat="45.70325" lon="5.23472">
        <ele>379.8</ele>
        <time>2025-05-27T08:19:57Z</time>
      </trkpt>
      <trkpt lat="45.7033" lon="5.23472">
        <ele>379.8</ele>
        <time>2025-05-27T08:19:58Z</time>
      </trkpt>
      <trkpt lat="45.70335" lon="5.23472">
        <ele>379.4</ele>
        <time>2025-05-27T08:19:59Z</time>
      </trkpt>
      <trkpt lat="45.70339" lon="5.23473">
        <ele>379.2</ele>
        <time>2025-05-27T08:20:00Z</time>
      </trkpt>
      <trkpt lat="45.70345" lon="5.23473">
        <ele>379.2</ele>
        <time>2025-05-27T08:20:01Z</time>
      </trkpt>
      <trkpt lat="45.7035" lon="5.23475">
        <ele>378.8</ele>
        <time>2025-05-27T08:20:02Z</time>
      </trkpt>
      <trkpt lat="45.70354" lon="5.23476">
        <ele>377.2</ele>
        <time>2025-05-27T08:20:03Z</time>
      </trkpt>
      <trkpt lat="45.7036" lon="5.23479">
        <ele>378</ele>
        <time>2025-05-27T08:20:04Z</time>
      </trkpt>
      <trkpt lat="45.70364" lon="5.23482">
        <ele>378.4</ele>
        <time>2025-05-27T08:20:05Z</time>
      </trkpt>
      <trkpt lat="45.70371" lon="5.23489">
        <ele>378.4</ele>
        <time>2025-05-27T08:20:06Z</time>
      </trkpt>
      <trkpt lat="45.70376" lon="5.23492">
        <ele>378.2</ele>
        <time>2025-05-27T08:20:07Z</time>
      </trkpt>
      <trkpt lat="45.70381" lon="5.23497">
        <ele>378.2</ele>
        <time>2025-05-27T08:20:08Z</time>
      </trkpt>
      <trkpt lat="45.70387" lon="5.23499">
        <ele>377.8</ele>
        <time>2025-05-27T08:20:09Z</time>
      </trkpt>
      <trkpt lat="45.70392" lon="5.23502">
        <ele>377.4</ele>
        <time>2025-05-27T08:20:10Z</time>
      </trkpt>
      <trkpt lat="45.70398" lon="5.23505">
        <ele>377.4</ele>
        <time>2025-05-27T08:20:11Z</time>
      </trkpt>
      <trkpt lat="45.70402" lon="5.23507">
        <ele>376.8</ele>
        <time>2025-05-27T08:20:12Z</time>
      </trkpt>
      <trkpt lat="45.70405" lon="5.23507">
        <ele>376.8</ele>
        <time>2025-05-27T08:20:13Z</time>
      </trkpt>
      <trkpt lat="45.70408" lon="5.23511">
        <ele>376.8</ele>
        <time>2025-05-27T08:20:14Z</time>
      </trkpt>
      <trkpt lat="45.7041" lon="5.23513">
        <ele>376.4</ele>
        <time>2025-05-27T08:20:15Z</time>
      </trkpt>
      <trkpt lat="45.70412" lon="5.23514">
        <ele>376</ele>
        <time>2025-05-27T08:20:16Z</time>
      </trkpt>
      <trkpt lat="45.70414" lon="5.23513">
        <ele>375.2</ele>
        <time>2025-05-27T08:20:17Z</time>
      </trkpt>
      <trkpt lat="45.70416" lon="5.23514">
        <ele>374.4</ele>
        <time>2025-05-27T08:20:18Z</time>
      </trkpt>
      <trkpt lat="45.70423" lon="5.23513">
        <ele>373.8</ele>
        <time>2025-05-27T08:20:19Z</time>
      </trkpt>
      <trkpt lat="45.70428" lon="5.23513">
        <ele>373.8</ele>
        <time>2025-05-27T08:20:20Z</time>
      </trkpt>
      <trkpt lat="45.70432" lon="5.23514">
        <ele>373.2</ele>
        <time>2025-05-27T08:20:21Z</time>
      </trkpt>
      <trkpt lat="45.70437" lon="5.23516">
        <ele>373.2</ele>
        <time>2025-05-27T08:20:22Z</time>
      </trkpt>
      <trkpt lat="45.70439" lon="5.23517">
        <ele>372.8</ele>
        <time>2025-05-27T08:20:23Z</time>
      </trkpt>
      <trkpt lat="45.70443" lon="5.23518">
        <ele>372.2</ele>
        <time>2025-05-27T08:20:24Z</time>
      </trkpt>
      <trkpt lat="45.70446" lon="5.23515">
        <ele>371.8</ele>
        <time>2025-05-27T08:20:25Z</time>
      </trkpt>
      <trkpt lat="45.70451" lon="5.23513">
        <ele>371</ele>
        <time>2025-05-27T08:20:26Z</time>
      </trkpt>
      <trkpt lat="45.70456" lon="5.23507">
        <ele>370.2</ele>
        <time>2025-05-27T08:20:27Z</time>
      </trkpt>
      <trkpt lat="45.70457" lon="5.23506">
        <ele>369.6</ele>
        <time>2025-05-27T08:20:28Z</time>
      </trkpt>
      <trkpt lat="45.70462" lon="5.23502">
        <ele>369.6</ele>
        <time>2025-05-27T08:20:29Z</time>
      </trkpt>
      <trkpt lat="45.70466" lon="5.23499">
        <ele>368</ele>
        <time>2025-05-27T08:20:30Z</time>
      </trkpt>
      <trkpt lat="45.70471" lon="5.23497">
        <ele>368</ele>
        <time>2025-05-27T08:20:31Z</time>
      </trkpt>
      <trkpt lat="45.70475" lon="5.23497">
        <ele>367.8</ele>
        <time>2025-05-27T08:20:32Z</time>
      </trkpt>
      <trkpt lat="45.70479" lon="5.23499">
        <ele>367.2</ele>
        <time>2025-05-27T08:20:33Z</time>
      </trkpt>
      <trkpt lat="45.70485" lon="5.235">
        <ele>366.8</ele>
        <time>2025-05-27T08:20:34Z</time>
      </trkpt>
      <trkpt lat="45.70491" lon="5.23502">
        <ele>366.6</ele>
        <time>2025-05-27T08:20:35Z</time>
      </trkpt>
      <trkpt lat="45.70496" lon="5.23501">
        <ele>366.2</ele>
        <time>2025-05-27T08:20:36Z</time>
      </trkpt>
      <trkpt lat="45.70501" lon="5.235">
        <ele>365.4</ele>
        <time>2025-05-27T08:20:37Z</time>
      </trkpt>
      <trkpt lat="45.70504" lon="5.23497">
        <ele>365.4</ele>
        <time>2025-05-27T08:20:38Z</time>
      </trkpt>
      <trkpt lat="45.70507" lon="5.23494">
        <ele>364.8</ele>
        <time>2025-05-27T08:20:39Z</time>
      </trkpt>
      <trkpt lat="45.70508" lon="5.23492">
        <ele>366</ele>
        <time>2025-05-27T08:20:40Z</time>
      </trkpt>
      <trkpt lat="45.70511" lon="5.23487">
        <ele>365.6</ele>
        <time>2025-05-27T08:20:41Z</time>
      </trkpt>
      <trkpt lat="45.70513" lon="5.23482">
        <ele>365</ele>
        <time>2025-05-27T08:20:42Z</time>
      </trkpt>
      <trkpt lat="45.70517" lon="5.23476">
        <ele>364.6</ele>
        <time>2025-05-27T08:20:43Z</time>
      </trkpt>
      <trkpt lat="45.70521" lon="5.23471">
        <ele>364</ele>
        <time>2025-05-27T08:20:44Z</time>
      </trkpt>
      <trkpt lat="45.70525" lon="5.23467">
        <ele>364</ele>
        <time>2025-05-27T08:20:45Z</time>
      </trkpt>
      <trkpt lat="45.70529" lon="5.23465">
        <ele>363.4</ele>
        <time>2025-05-27T08:20:46Z</time>
      </trkpt>
      <trkpt lat="45.70533" lon="5.23462">
        <ele>363.2</ele>
        <time>2025-05-27T08:20:47Z</time>
      </trkpt>
      <trkpt lat="45.70537" lon="5.23458">
        <ele>362.2</ele>
        <time>2025-05-27T08:20:48Z</time>
      </trkpt>
      <trkpt lat="45.70539" lon="5.23455">
        <ele>361.6</ele>
        <time>2025-05-27T08:20:49Z</time>
      </trkpt>
      <trkpt lat="45.70542" lon="5.23454">
        <ele>362.2</ele>
        <time>2025-05-27T08:20:50Z</time>
      </trkpt>
      <trkpt lat="45.70546" lon="5.23452">
        <ele>362.8</ele>
        <time>2025-05-27T08:20:51Z</time>
      </trkpt>
      <trkpt lat="45.70549" lon="5.2345">
        <ele>363.2</ele>
        <time>2025-05-27T08:20:52Z</time>
      </trkpt>
      <trkpt lat="45.70553" lon="5.23448">
        <ele>362.2</ele>
        <time>2025-05-27T08:20:53Z</time>
      </trkpt>
      <trkpt lat="45.70556" lon="5.23446">
        <ele>362.2</ele>
        <time>2025-05-27T08:20:54Z</time>
      </trkpt>
      <trkpt lat="45.70561" lon="5.23445">
        <ele>361.6</ele>
        <time>2025-05-27T08:20:55Z</time>
      </trkpt>
      <trkpt lat="45.70565" lon="5.23444">
        <ele>360.8</ele>
        <time>2025-05-27T08:20:56Z</time>
      </trkpt>
      <trkpt lat="45.70569" lon="5.2344">
        <ele>360</ele>
        <time>2025-05-27T08:20:57Z</time>
      </trkpt>
      <trkpt lat="45.70572" lon="5.23438">
        <ele>359.8</ele>
        <time>2025-05-27T08:20:58Z</time>
      </trkpt>
      <trkpt lat="45.70575" lon="5.23437">
        <ele>359</ele>
        <time>2025-05-27T08:20:59Z</time>
      </trkpt>
      <trkpt lat="45.70579" lon="5.23433">
        <ele>359</ele>
        <time>2025-05-27T08:21:00Z</time>
      </trkpt>
      <trkpt lat="45.70583" lon="5.2343">
        <ele>358.4</ele>
        <time>2025-05-27T08:21:01Z</time>
      </trkpt>
      <trkpt lat="45.70587" lon="5.2343">
        <ele>358.2</ele>
        <time>2025-05-27T08:21:02Z</time>
      </trkpt>
      <trkpt lat="45.7059" lon="5.23429">
        <ele>358.2</ele>
        <time>2025-05-27T08:21:03Z</time>
      </trkpt>
      <trkpt lat="45.70594" lon="5.23427">
        <ele>358.2</ele>
        <time>2025-05-27T08:21:04Z</time>
      </trkpt>
      <trkpt lat="45.70596" lon="5.23424">
        <ele>357.4</ele>
        <time>2025-05-27T08:21:05Z</time>
      </trkpt>
      <trkpt lat="45.70599" lon="5.23422">
        <ele>357.4</ele>
        <time>2025-05-27T08:21:06Z</time>
      </trkpt>
      <trkpt lat="45.70602" lon="5.23419">
        <ele>356.8</ele>
        <time>2025-05-27T08:21:07Z</time>
      </trkpt>
      <trkpt lat="45.70605" lon="5.23418">
        <ele>356.8</ele>
        <time>2025-05-27T08:21:08Z</time>
      </trkpt>
      <trkpt lat="45.70607" lon="5.23416">
        <ele>356.2</ele>
        <time>2025-05-27T08:21:09Z</time>
      </trkpt>
      <trkpt lat="45.70609" lon="5.23415">
        <ele>356</ele>
        <time>2025-05-27T08:21:10Z</time>
      </trkpt>
      <trkpt lat="45.70611" lon="5.23412">
        <ele>355.6</ele>
        <time>2025-05-27T08:21:11Z</time>
      </trkpt>
      <trkpt lat="45.70613" lon="5.23409">
        <ele>355.2</ele>
        <time>2025-05-27T08:21:12Z</time>
      </trkpt>
      <trkpt lat="45.70616" lon="5.23404">
        <ele>354.6</ele>
        <time>2025-05-27T08:21:13Z</time>
      </trkpt>
      <trkpt lat="45.70617" lon="5.23399">
        <ele>354</ele>
        <time>2025-05-27T08:21:14Z</time>
      </trkpt>
      <trkpt lat="45.70619" lon="5.23394">
        <ele>354</ele>
        <time>2025-05-27T08:21:15Z</time>
      </trkpt>
      <trkpt lat="45.70619" lon="5.23389">
        <ele>352.8</ele>
        <time>2025-05-27T08:21:16Z</time>
      </trkpt>
      <trkpt lat="45.7062" lon="5.23385">
        <ele>352.2</ele>
        <time>2025-05-27T08:21:17Z</time>
      </trkpt>
      <trkpt lat="45.70622" lon="5.23382">
        <ele>353</ele>
        <time>2025-05-27T08:21:18Z</time>
      </trkpt>
      <trkpt lat="45.70623" lon="5.23379">
        <ele>352.6</ele>
        <time>2025-05-27T08:21:19Z</time>
      </trkpt>
      <trkpt lat="45.70625" lon="5.23375">
        <ele>351</ele>
        <time>2025-05-27T08:21:20Z</time>
      </trkpt>
      <trkpt lat="45.70626" lon="5.23371">
        <ele>350.4</ele>
        <time>2025-05-27T08:21:21Z</time>
      </trkpt>
      <trkpt lat="45.70628" lon="5.23368">
        <ele>349.8</ele>
        <time>2025-05-27T08:21:22Z</time>
      </trkpt>
      <trkpt lat="45.70629" lon="5.23364">
        <ele>349.4</ele>
        <time>2025-05-27T08:21:23Z</time>
      </trkpt>
      <trkpt lat="45.7063" lon="5.2336">
        <ele>349.8</ele>
        <time>2025-05-27T08:21:24Z</time>
      </trkpt>
      <trkpt lat="45.7063" lon="5.23357">
        <ele>349.4</ele>
        <time>2025-05-27T08:21:25Z</time>
      </trkpt>
      <trkpt lat="45.70631" lon="5.23353">
        <ele>349.2</ele>
        <time>2025-05-27T08:21:26Z</time>
      </trkpt>
      <trkpt lat="45.70631" lon="5.23348">
        <ele>348</ele>
        <time>2025-05-27T08:21:27Z</time>
      </trkpt>
      <trkpt lat="45.7063" lon="5.23344">
        <ele>348.4</ele>
        <time>2025-05-27T08:21:28Z</time>
      </trkpt>
      <trkpt lat="45.7063" lon="5.2334">
        <ele>348.4</ele>
        <time>2025-05-27T08:21:29Z</time>
      </trkpt>
      <trkpt lat="45.70629" lon="5.23334">
        <ele>347.4</ele>
        <time>2025-05-27T08:21:30Z</time>
      </trkpt>
      <trkpt lat="45.7063" lon="5.23329">
        <ele>348</ele>
        <time>2025-05-27T08:21:31Z</time>
      </trkpt>
      <trkpt lat="45.70631" lon="5.23324">
        <ele>348</ele>
        <time>2025-05-27T08:21:32Z</time>
      </trkpt>
      <trkpt lat="45.70632" lon="5.23318">
        <ele>347.2</ele>
        <time>2025-05-27T08:21:33Z</time>
      </trkpt>
      <trkpt lat="45.70633" lon="5.23313">
        <ele>347.6</ele>
        <time>2025-05-27T08:21:34Z</time>
      </trkpt>
      <trkpt lat="45.70633" lon="5.23308">
        <ele>348.8</ele>
        <time>2025-05-27T08:21:35Z</time>
      </trkpt>
      <trkpt lat="45.70633" lon="5.23304">
        <ele>348.8</ele>
        <time>2025-05-27T08:21:36Z</time>
      </trkpt>
      <trkpt lat="45.70633" lon="5.23301">
        <ele>348</ele>
        <time>2025-05-27T08:21:37Z</time>
      </trkpt>
      <trkpt lat="45.70633" lon="5.23298">
        <ele>347.8</ele>
        <time>2025-05-27T08:21:38Z</time>
      </trkpt>
      <trkpt lat="45.70633" lon="5.23295">
        <ele>347</ele>
        <time>2025-05-27T08:21:39Z</time>
      </trkpt>
      <trkpt lat="45.70632" lon="5.23291">
        <ele>346.6</ele>
        <time>2025-05-27T08:21:40Z</time>
      </trkpt>
      <trkpt lat="45.70632" lon="5.23288">
        <ele>346.6</ele>
        <time>2025-05-27T08:21:41Z</time>
      </trkpt>
      <trkpt lat="45.70632" lon="5.23285">
        <ele>346.2</ele>
        <time>2025-05-27T08:21:42Z</time>
      </trkpt>
      <trkpt lat="45.70633" lon="5.23283">
        <ele>345.8</ele>
        <time>2025-05-27T08:21:43Z</time>
      </trkpt>
      <trkpt lat="45.70633" lon="5.2328">
        <ele>345.8</ele>
        <time>2025-05-27T08:21:44Z</time>
      </trkpt>
      <trkpt lat="45.70633" lon="5.23278">
        <ele>345.2</ele>
        <time>2025-05-27T08:21:45Z</time>
      </trkpt>
      <trkpt lat="45.70633" lon="5.23276">
        <ele>345.2</ele>
        <time>2025-05-27T08:21:46Z</time>
      </trkpt>
      <trkpt lat="45.70633" lon="5.23274">
        <ele>344.8</ele>
        <time>2025-05-27T08:21:47Z</time>
      </trkpt>
      <trkpt lat="45.70633" lon="5.23272">
        <ele>344.6</ele>
        <time>2025-05-27T08:21:48Z</time>
      </trkpt>
      <trkpt lat="45.70633" lon="5.2327">
        <ele>345.2</ele>
        <time>2025-05-27T08:21:49Z</time>
      </trkpt>
      <trkpt lat="45.70633" lon="5.23267">
        <ele>344.6</ele>
        <time>2025-05-27T08:21:50Z</time>
      </trkpt>
      <trkpt lat="45.70633" lon="5.23266">
        <ele>344.6</ele>
        <time>2025-05-27T08:21:51Z</time>
      </trkpt>
      <trkpt lat="45.70632" lon="5.23264">
        <ele>344.4</ele>
        <time>2025-05-27T08:21:52Z</time>
      </trkpt>
      <trkpt lat="45.70631" lon="5.23262">
        <ele>344.4</ele>
        <time>2025-05-27T08:21:53Z</time>
      </trkpt>
      <trkpt lat="45.7063" lon="5.2326">
        <ele>344</ele>
        <time>2025-05-27T08:21:54Z</time>
      </trkpt>
      <trkpt lat="45.7063" lon="5.23258">
        <ele>344</ele>
        <time>2025-05-27T08:21:55Z</time>
      </trkpt>
      <trkpt lat="45.70631" lon="5.23254">
        <ele>344.8</ele>
        <time>2025-05-27T08:21:56Z</time>
      </trkpt>
      <trkpt lat="45.70631" lon="5.23252">
        <ele>344</ele>
        <time>2025-05-27T08:21:57Z</time>
      </trkpt>
      <trkpt lat="45.70631" lon="5.2325">
        <ele>343.2</ele>
        <time>2025-05-27T08:21:58Z</time>
      </trkpt>
      <trkpt lat="45.70632" lon="5.23248">
        <ele>342.6</ele>
        <time>2025-05-27T08:21:59Z</time>
      </trkpt>
      <trkpt lat="45.70633" lon="5.23245">
        <ele>342.6</ele>
        <time>2025-05-27T08:22:00Z</time>
      </trkpt>
      <trkpt lat="45.70634" lon="5.23242">
        <ele>342.2</ele>
        <time>2025-05-27T08:22:01Z</time>
      </trkpt>
      <trkpt lat="45.70635" lon="5.2324">
        <ele>341.8</ele>
        <time>2025-05-27T08:22:02Z</time>
      </trkpt>
      <trkpt lat="45.70635" lon="5.23237">
        <ele>341.8</ele>
        <time>2025-05-27T08:22:03Z</time>
      </trkpt>
      <trkpt lat="45.70635" lon="5.23234">
        <ele>341.4</ele>
        <time>2025-05-27T08:22:04Z</time>
      </trkpt>
      <trkpt lat="45.70635" lon="5.23233">
        <ele>341</ele>
        <time>2025-05-27T08:22:05Z</time>
      </trkpt>
      <trkpt lat="45.70634" lon="5.2323">
        <ele>341</ele>
        <time>2025-05-27T08:22:06Z</time>
      </trkpt>
      <trkpt lat="45.70633" lon="5.23227">
        <ele>340.6</ele>
        <time>2025-05-27T08:22:07Z</time>
      </trkpt>
      <trkpt lat="45.70633" lon="5.23224">
        <ele>340.2</ele>
        <time>2025-05-27T08:22:08Z</time>
      </trkpt>
      <trkpt lat="45.70633" lon="5.23221">
        <ele>340</ele>
        <time>2025-05-27T08:22:09Z</time>
      </trkpt>
      <trkpt lat="45.70633" lon="5.23219">
        <ele>339.6</ele>
        <time>2025-05-27T08:22:10Z</time>
      </trkpt>
      <trkpt lat="45.70633" lon="5.23216">
        <ele>339.2</ele>
        <time>2025-05-27T08:22:11Z</time>
      </trkpt>
      <trkpt lat="45.70633" lon="5.23213">
        <ele>338.6</ele>
        <time>2025-05-27T08:22:12Z</time>
      </trkpt>
      <trkpt lat="45.70632" lon="5.2321">
        <ele>338</ele>
        <time>2025-05-27T08:22:13Z</time>
      </trkpt>
      <trkpt lat="45.7063" lon="5.23206">
        <ele>338</ele>
        <time>2025-05-27T08:22:14Z</time>
      </trkpt>
      <trkpt lat="45.7063" lon="5.23203">
        <ele>337.4</ele>
        <time>2025-05-27T08:22:15Z</time>
      </trkpt>
      <trkpt lat="45.70629" lon="5.23201">
        <ele>337.4</ele>
        <time>2025-05-27T08:22:16Z</time>
      </trkpt>
      <trkpt lat="45.70629" lon="5.23199">
        <ele>337.4</ele>
        <time>2025-05-27T08:22:17Z</time>
      </trkpt>
      <trkpt lat="45.70629" lon="5.23197">
        <ele>337.4</ele>
        <time>2025-05-27T08:22:18Z</time>
      </trkpt>
      <trkpt lat="45.70629" lon="5.23194">
        <ele>337.4</ele>
        <time>2025-05-27T08:22:19Z</time>
      </trkpt>
      <trkpt lat="45.7063" lon="5.23191">
        <ele>337</ele>
        <time>2025-05-27T08:22:20Z</time>
      </trkpt>
      <trkpt lat="45.7063" lon="5.23189">
        <ele>336.2</ele>
        <time>2025-05-27T08:22:21Z</time>
      </trkpt>
      <trkpt lat="45.70629" lon="5.23187">
        <ele>336</ele>
        <time>2025-05-27T08:22:22Z</time>
      </trkpt>
      <trkpt lat="45.70628" lon="5.23185">
        <ele>335.6</ele>
        <time>2025-05-27T08:22:23Z</time>
      </trkpt>
      <trkpt lat="45.70628" lon="5.23183">
        <ele>335.6</ele>
        <time>2025-05-27T08:22:24Z</time>
      </trkpt>
      <trkpt lat="45.70627" lon="5.23181">
        <ele>335.4</ele>
        <time>2025-05-27T08:22:25Z</time>
      </trkpt>
      <trkpt lat="45.70628" lon="5.2318">
        <ele>335.2</ele>
        <time>2025-05-27T08:22:26Z</time>
      </trkpt>
      <trkpt lat="45.7063" lon="5.23173">
        <ele>335.2</ele>
        <time>2025-05-27T08:22:50Z</time>
      </trkpt>
      <trkpt lat="45.70631" lon="5.2317">
        <ele>334.6</ele>
        <time>2025-05-27T08:22:51Z</time>
      </trkpt>
      <trkpt lat="45.70632" lon="5.23167">
        <ele>334.6</ele>
        <time>2025-05-27T08:22:52Z</time>
      </trkpt>
      <trkpt lat="45.70633" lon="5.23165">
        <ele>334.4</ele>
        <time>2025-05-27T08:22:53Z</time>
      </trkpt>
      <trkpt lat="45.70635" lon="5.23162">
        <ele>334.4</ele>
        <time>2025-05-27T08:22:54Z</time>
      </trkpt>
      <trkpt lat="45.70636" lon="5.23159">
        <ele>334</ele>
        <time>2025-05-27T08:22:55Z</time>
      </trkpt>
      <trkpt lat="45.70637" lon="5.23155">
        <ele>334</ele>
        <time>2025-05-27T08:22:56Z</time>
      </trkpt>
      <trkpt lat="45.70637" lon="5.23153">
        <ele>334</ele>
        <time>2025-05-27T08:22:57Z</time>
      </trkpt>
      <trkpt lat="45.70637" lon="5.23153">
        <ele>334</ele>
        <time>2025-05-27T08:22:58Z</time>
      </trkpt>
      <trkpt lat="45.70637" lon="5.23151">
        <ele>333.6</ele>
        <time>2025-05-27T08:22:59Z</time>
      </trkpt>
      <trkpt lat="45.70637" lon="5.23149">
        <ele>333.6</ele>
        <time>2025-05-27T08:23:00Z</time>
      </trkpt>
      <trkpt lat="45.70638" lon="5.23147">
        <ele>333.6</ele>
        <time>2025-05-27T08:23:01Z</time>
      </trkpt>
      <trkpt lat="45.70638" lon="5.23146">
        <ele>333.6</ele>
        <time>2025-05-27T08:23:02Z</time>
      </trkpt>
      <trkpt lat="45.70638" lon="5.23145">
        <ele>333.4</ele>
        <time>2025-05-27T08:23:03Z</time>
      </trkpt>
      <trkpt lat="45.70638" lon="5.23145">
        <ele>333.4</ele>
        <time>2025-05-27T08:23:04Z</time>
      </trkpt>
      <trkpt lat="45.70636" lon="5.23143">
        <ele>332.8</ele>
        <time>2025-05-27T08:23:12Z</time>
      </trkpt>
      <trkpt lat="45.70636" lon="5.23143">
        <ele>332.8</ele>
        <time>2025-05-27T08:23:13Z</time>
      </trkpt>
      <trkpt lat="45.70635" lon="5.23143">
        <ele>332.8</ele>
        <time>2025-05-27T08:23:14Z</time>
      </trkpt>
      <trkpt lat="45.70634" lon="5.23143">
        <ele>332.6</ele>
        <time>2025-05-27T08:23:15Z</time>
      </trkpt>
      <trkpt lat="45.70634" lon="5.23142">
        <ele>332.6</ele>
        <time>2025-05-27T08:23:16Z</time>
      </trkpt>
      <trkpt lat="45.70633" lon="5.23142">
        <ele>332.6</ele>
        <time>2025-05-27T08:23:17Z</time>
      </trkpt>
      <trkpt lat="45.70632" lon="5.23141">
        <ele>332.6</ele>
        <time>2025-05-27T08:23:21Z</time>
      </trkpt>
      <trkpt lat="45.7063" lon="5.23141">
        <ele>332.2</ele>
        <time>2025-05-27T08:23:22Z</time>
      </trkpt>
      <trkpt lat="45.70628" lon="5.23142">
        <ele>332.2</ele>
        <time>2025-05-27T08:23:23Z</time>
      </trkpt>
      <trkpt lat="45.70626" lon="5.23143">
        <ele>332</ele>
        <time>2025-05-27T08:23:24Z</time>
      </trkpt>
      <trkpt lat="45.70623" lon="5.23144">
        <ele>331.6</ele>
        <time>2025-05-27T08:23:25Z</time>
      </trkpt>
      <trkpt lat="45.7062" lon="5.23145">
        <ele>331.6</ele>
        <time>2025-05-27T08:23:26Z</time>
      </trkpt>
      <trkpt lat="45.70618" lon="5.23143">
        <ele>331.4</ele>
        <time>2025-05-27T08:23:27Z</time>
      </trkpt>
      <trkpt lat="45.70615" lon="5.23142">
        <ele>331.4</ele>
        <time>2025-05-27T08:23:28Z</time>
      </trkpt>
      <trkpt lat="45.70612" lon="5.2314">
        <ele>331.4</ele>
        <time>2025-05-27T08:23:29Z</time>
      </trkpt>
      <trkpt lat="45.7061" lon="5.23139">
        <ele>331.4</ele>
        <time>2025-05-27T08:23:30Z</time>
      </trkpt>
      <trkpt lat="45.70608" lon="5.23138">
        <ele>331.4</ele>
        <time>2025-05-27T08:23:31Z</time>
      </trkpt>
      <trkpt lat="45.70604" lon="5.23137">
        <ele>331.4</ele>
        <time>2025-05-27T08:23:32Z</time>
      </trkpt>
      <trkpt lat="45.70601" lon="5.23137">
        <ele>331.4</ele>
        <time>2025-05-27T08:23:33Z</time>
      </trkpt>
      <trkpt lat="45.70598" lon="5.23136">
        <ele>331.4</ele>
        <time>2025-05-27T08:23:34Z</time>
      </trkpt>
      <trkpt lat="45.70595" lon="5.23136">
        <ele>331.8</ele>
        <time>2025-05-27T08:23:35Z</time>
      </trkpt>
      <trkpt lat="45.70591" lon="5.23136">
        <ele>331.8</ele>
        <time>2025-05-27T08:23:36Z</time>
      </trkpt>
      <trkpt lat="45.70588" lon="5.23135">
        <ele>331.8</ele>
        <time>2025-05-27T08:23:37Z</time>
      </trkpt>
      <trkpt lat="45.70585" lon="5.23134">
        <ele>331.8</ele>
        <time>2025-05-27T08:23:38Z</time>
      </trkpt>
      <trkpt lat="45.70584" lon="5.23134">
        <ele>332.2</ele>
        <time>2025-05-27T08:23:39Z</time>
      </trkpt>
      <trkpt lat="45.70583" lon="5.23133">
        <ele>332.6</ele>
        <time>2025-05-27T08:23:40Z</time>
      </trkpt>
      <trkpt lat="45.70583" lon="5.23132">
        <ele>332.8</ele>
        <time>2025-05-27T08:23:41Z</time>
      </trkpt>
      <trkpt lat="45.70582" lon="5.2313">
        <ele>332.8</ele>
        <time>2025-05-27T08:23:42Z</time>
      </trkpt>
      <trkpt lat="45.70581" lon="5.23128">
        <ele>332.8</ele>
        <time>2025-05-27T08:23:43Z</time>
      </trkpt>
      <trkpt lat="45.70578" lon="5.23128">
        <ele>333.2</ele>
        <time>2025-05-27T08:23:44Z</time>
      </trkpt>
      <trkpt lat="45.70576" lon="5.23129">
        <ele>333.6</ele>
        <time>2025-05-27T08:23:45Z</time>
      </trkpt>
      <trkpt lat="45.70575" lon="5.23129">
        <ele>333.8</ele>
        <time>2025-05-27T08:23:46Z</time>
      </trkpt>
      <trkpt lat="45.70573" lon="5.23129">
        <ele>333.8</ele>
        <time>2025-05-27T08:23:47Z</time>
      </trkpt>
      <trkpt lat="45.70571" lon="5.23128">
        <ele>333.8</ele>
        <time>2025-05-27T08:23:48Z</time>
      </trkpt>
      <trkpt lat="45.70569" lon="5.23127">
        <ele>333.8</ele>
        <time>2025-05-27T08:23:49Z</time>
      </trkpt>
      <trkpt lat="45.70568" lon="5.23126">
        <ele>333.8</ele>
        <time>2025-05-27T08:23:50Z</time>
      </trkpt>
      <trkpt lat="45.70567" lon="5.23123">
        <ele>333.8</ele>
        <time>2025-05-27T08:23:51Z</time>
      </trkpt>
      <trkpt lat="45.70566" lon="5.23119">
        <ele>333.8</ele>
        <time>2025-05-27T08:23:52Z</time>
      </trkpt>
      <trkpt lat="45.70565" lon="5.23116">
        <ele>334</ele>
        <time>2025-05-27T08:23:53Z</time>
      </trkpt>
      <trkpt lat="45.70563" lon="5.23112">
        <ele>334</ele>
        <time>2025-05-27T08:23:54Z</time>
      </trkpt>
      <trkpt lat="45.70562" lon="5.2311">
        <ele>334.2</ele>
        <time>2025-05-27T08:23:55Z</time>
      </trkpt>
      <trkpt lat="45.70561" lon="5.23108">
        <ele>334.2</ele>
        <time>2025-05-27T08:23:56Z</time>
      </trkpt>
      <trkpt lat="45.7056" lon="5.23107">
        <ele>334.2</ele>
        <time>2025-05-27T08:23:57Z</time>
      </trkpt>
      <trkpt lat="45.7056" lon="5.23107">
        <ele>334.6</ele>
        <time>2025-05-27T08:23:58Z</time>
      </trkpt>
      <trkpt lat="45.70561" lon="5.23107">
        <ele>334.6</ele>
        <time>2025-05-27T08:23:59Z</time>
      </trkpt>
      <trkpt lat="45.7056" lon="5.23105">
        <ele>334.6</ele>
        <time>2025-05-27T08:24:00Z</time>
      </trkpt>
      <trkpt lat="45.70559" lon="5.23104">
        <ele>334.8</ele>
        <time>2025-05-27T08:24:01Z</time>
      </trkpt>
      <trkpt lat="45.70558" lon="5.23103">
        <ele>334.8</ele>
        <time>2025-05-27T08:24:02Z</time>
      </trkpt>
      <trkpt lat="45.70558" lon="5.23103">
        <ele>334.8</ele>
        <time>2025-05-27T08:24:03Z</time>
      </trkpt>
      <trkpt lat="45.70558" lon="5.231">
        <ele>334.6</ele>
        <time>2025-05-27T08:24:06Z</time>
      </trkpt>
      <trkpt lat="45.70559" lon="5.23096">
        <ele>334</ele>
        <time>2025-05-27T08:24:07Z</time>
      </trkpt>
      <trkpt lat="45.7056" lon="5.2309">
        <ele>333.6</ele>
        <time>2025-05-27T08:24:08Z</time>
      </trkpt>
      <trkpt lat="45.70561" lon="5.23085">
        <ele>333.4</ele>
        <time>2025-05-27T08:24:09Z</time>
      </trkpt>
      <trkpt lat="45.70561" lon="5.2308">
        <ele>333.6</ele>
        <time>2025-05-27T08:24:10Z</time>
      </trkpt>
      <trkpt lat="45.7056" lon="5.23075">
        <ele>333.8</ele>
        <time>2025-05-27T08:24:11Z</time>
      </trkpt>
      <trkpt lat="45.70559" lon="5.23071">
        <ele>333.4</ele>
        <time>2025-05-27T08:24:12Z</time>
      </trkpt>
      <trkpt lat="45.70557" lon="5.23066">
        <ele>333.4</ele>
        <time>2025-05-27T08:24:13Z</time>
      </trkpt>
      <trkpt lat="45.70556" lon="5.23062">
        <ele>333.4</ele>
        <time>2025-05-27T08:24:14Z</time>
      </trkpt>
      <trkpt lat="45.70555" lon="5.23059">
        <ele>333.4</ele>
        <time>2025-05-27T08:24:15Z</time>
      </trkpt>
      <trkpt lat="45.70554" lon="5.23054">
        <ele>333.6</ele>
        <time>2025-05-27T08:24:16Z</time>
      </trkpt>
      <trkpt lat="45.70553" lon="5.23051">
        <ele>333.4</ele>
        <time>2025-05-27T08:24:17Z</time>
      </trkpt>
      <trkpt lat="45.70552" lon="5.23047">
        <ele>333.6</ele>
        <time>2025-05-27T08:24:18Z</time>
      </trkpt>
      <trkpt lat="45.70552" lon="5.23043">
        <ele>334</ele>
        <time>2025-05-27T08:24:19Z</time>
      </trkpt>
      <trkpt lat="45.70551" lon="5.23039">
        <ele>334</ele>
        <time>2025-05-27T08:24:20Z</time>
      </trkpt>
      <trkpt lat="45.70551" lon="5.23036">
        <ele>334</ele>
        <time>2025-05-27T08:24:21Z</time>
      </trkpt>
      <trkpt lat="45.70551" lon="5.23032">
        <ele>333.8</ele>
        <time>2025-05-27T08:24:22Z</time>
      </trkpt>
      <trkpt lat="45.70552" lon="5.23028">
        <ele>333.4</ele>
        <time>2025-05-27T08:24:23Z</time>
      </trkpt>
      <trkpt lat="45.70552" lon="5.23024">
        <ele>333.8</ele>
        <time>2025-05-27T08:24:24Z</time>
      </trkpt>
      <trkpt lat="45.7055" lon="5.2302">
        <ele>334.2</ele>
        <time>2025-05-27T08:24:25Z</time>
      </trkpt>
      <trkpt lat="45.70549" lon="5.23018">
        <ele>334.4</ele>
        <time>2025-05-27T08:24:26Z</time>
      </trkpt>
      <trkpt lat="45.70548" lon="5.23016">
        <ele>334.4</ele>
        <time>2025-05-27T08:24:27Z</time>
      </trkpt>
      <trkpt lat="45.70546" lon="5.23013">
        <ele>334.4</ele>
        <time>2025-05-27T08:24:28Z</time>
      </trkpt>
      <trkpt lat="45.70545" lon="5.23011">
        <ele>334.4</ele>
        <time>2025-05-27T08:24:29Z</time>
      </trkpt>
      <trkpt lat="45.70544" lon="5.23008">
        <ele>334.4</ele>
        <time>2025-05-27T08:24:30Z</time>
      </trkpt>
      <trkpt lat="45.70542" lon="5.23005">
        <ele>334.4</ele>
        <time>2025-05-27T08:24:31Z</time>
      </trkpt>
      <trkpt lat="45.7054" lon="5.23003">
        <ele>334.4</ele>
        <time>2025-05-27T08:24:32Z</time>
      </trkpt>
      <trkpt lat="45.70537" lon="5.23">
        <ele>334.4</ele>
        <time>2025-05-27T08:24:33Z</time>
      </trkpt>
      <trkpt lat="45.70536" lon="5.22998">
        <ele>334.4</ele>
        <time>2025-05-27T08:24:34Z</time>
      </trkpt>
      <trkpt lat="45.70535" lon="5.22996">
        <ele>334.4</ele>
        <time>2025-05-27T08:24:35Z</time>
      </trkpt>
      <trkpt lat="45.70534" lon="5.22993">
        <ele>334.4</ele>
        <time>2025-05-27T08:24:36Z</time>
      </trkpt>
      <trkpt lat="45.70533" lon="5.22991">
        <ele>334.6</ele>
        <time>2025-05-27T08:24:37Z</time>
      </trkpt>
      <trkpt lat="45.70532" lon="5.22989">
        <ele>334.6</ele>
        <time>2025-05-27T08:24:38Z</time>
      </trkpt>
      <trkpt lat="45.7053" lon="5.22988">
        <ele>334.6</ele>
        <time>2025-05-27T08:24:39Z</time>
      </trkpt>
      <trkpt lat="45.70528" lon="5.22988">
        <ele>334.6</ele>
        <time>2025-05-27T08:24:40Z</time>
      </trkpt>
      <trkpt lat="45.70525" lon="5.22987">
        <ele>334.6</ele>
        <time>2025-05-27T08:24:41Z</time>
      </trkpt>
      <trkpt lat="45.70523" lon="5.22986">
        <ele>334.6</ele>
        <time>2025-05-27T08:24:42Z</time>
      </trkpt>
      <trkpt lat="45.70521" lon="5.22985">
        <ele>334.6</ele>
        <time>2025-05-27T08:24:43Z</time>
      </trkpt>
      <trkpt lat="45.70519" lon="5.22983">
        <ele>334.6</ele>
        <time>2025-05-27T08:24:44Z</time>
      </trkpt>
      <trkpt lat="45.70517" lon="5.22983">
        <ele>334.6</ele>
        <time>2025-05-27T08:24:45Z</time>
      </trkpt>
      <trkpt lat="45.70514" lon="5.22983">
        <ele>334.6</ele>
        <time>2025-05-27T08:24:46Z</time>
      </trkpt>
      <trkpt lat="45.70511" lon="5.22982">
        <ele>334.2</ele>
        <time>2025-05-27T08:24:47Z</time>
      </trkpt>
      <trkpt lat="45.70509" lon="5.22982">
        <ele>334.2</ele>
        <time>2025-05-27T08:24:48Z</time>
      </trkpt>
      <trkpt lat="45.70506" lon="5.22981">
        <ele>333.8</ele>
        <time>2025-05-27T08:24:49Z</time>
      </trkpt>
      <trkpt lat="45.70504" lon="5.22981">
        <ele>333.6</ele>
        <time>2025-05-27T08:24:50Z</time>
      </trkpt>
      <trkpt lat="45.70502" lon="5.2298">
        <ele>333.4</ele>
        <time>2025-05-27T08:24:51Z</time>
      </trkpt>
      <trkpt lat="45.705" lon="5.2298">
        <ele>333.4</ele>
        <time>2025-05-27T08:24:52Z</time>
      </trkpt>
      <trkpt lat="45.705" lon="5.2298">
        <ele>333</ele>
        <time>2025-05-27T08:24:53Z</time>
      </trkpt>
      <trkpt lat="45.705" lon="5.22981">
        <ele>333</ele>
        <time>2025-05-27T08:24:54Z</time>
      </trkpt>
      <trkpt lat="45.70504" lon="5.22979">
        <ele>332.4</ele>
        <time>2025-05-27T08:25:50Z</time>
      </trkpt>
      <trkpt lat="45.705" lon="5.22979">
        <ele>332.4</ele>
        <time>2025-05-27T08:25:51Z</time>
      </trkpt>
      <trkpt lat="45.70497" lon="5.22978">
        <ele>331.8</ele>
        <time>2025-05-27T08:25:52Z</time>
      </trkpt>
      <trkpt lat="45.70493" lon="5.22977">
        <ele>331.4</ele>
        <time>2025-05-27T08:25:53Z</time>
      </trkpt>
      <trkpt lat="45.70489" lon="5.22975">
        <ele>330.4</ele>
        <time>2025-05-27T08:25:54Z</time>
      </trkpt>
      <trkpt lat="45.70485" lon="5.22973">
        <ele>329.8</ele>
        <time>2025-05-27T08:25:55Z</time>
      </trkpt>
      <trkpt lat="45.70481" lon="5.22972">
        <ele>329.2</ele>
        <time>2025-05-27T08:25:56Z</time>
      </trkpt>
      <trkpt lat="45.70478" lon="5.22971">
        <ele>328.6</ele>
        <time>2025-05-27T08:25:57Z</time>
      </trkpt>
      <trkpt lat="45.70474" lon="5.2297">
        <ele>328.2</ele>
        <time>2025-05-27T08:25:58Z</time>
      </trkpt>
      <trkpt lat="45.7047" lon="5.22969">
        <ele>328.2</ele>
        <time>2025-05-27T08:25:59Z</time>
      </trkpt>
      <trkpt lat="45.70466" lon="5.22969">
        <ele>327.4</ele>
        <time>2025-05-27T08:26:00Z</time>
      </trkpt>
      <trkpt lat="45.70463" lon="5.22969">
        <ele>327</ele>
        <time>2025-05-27T08:26:01Z</time>
      </trkpt>
      <trkpt lat="45.70459" lon="5.22969">
        <ele>326.6</ele>
        <time>2025-05-27T08:26:02Z</time>
      </trkpt>
      <trkpt lat="45.70455" lon="5.22969">
        <ele>326</ele>
        <time>2025-05-27T08:26:03Z</time>
      </trkpt>
      <trkpt lat="45.70453" lon="5.2297">
        <ele>325.4</ele>
        <time>2025-05-27T08:26:04Z</time>
      </trkpt>
      <trkpt lat="45.70452" lon="5.22971">
        <ele>325</ele>
        <time>2025-05-27T08:26:05Z</time>
      </trkpt>
      <trkpt lat="45.7045" lon="5.2297">
        <ele>324.6</ele>
        <time>2025-05-27T08:26:06Z</time>
      </trkpt>
      <trkpt lat="45.70448" lon="5.2297">
        <ele>324.4</ele>
        <time>2025-05-27T08:26:07Z</time>
      </trkpt>
      <trkpt lat="45.70447" lon="5.22969">
        <ele>324</ele>
        <time>2025-05-27T08:26:08Z</time>
      </trkpt>
      <trkpt lat="45.70445" lon="5.2297">
        <ele>324</ele>
        <time>2025-05-27T08:26:09Z</time>
      </trkpt>
      <trkpt lat="45.70445" lon="5.2297">
        <ele>323.4</ele>
        <time>2025-05-27T08:26:10Z</time>
      </trkpt>
      <trkpt lat="45.70444" lon="5.22971">
        <ele>323.2</ele>
        <time>2025-05-27T08:26:11Z</time>
      </trkpt>
      <trkpt lat="45.70443" lon="5.22971">
        <ele>322.8</ele>
        <time>2025-05-27T08:26:12Z</time>
      </trkpt>
      <trkpt lat="45.70443" lon="5.22972">
        <ele>322.4</ele>
        <time>2025-05-27T08:26:13Z</time>
      </trkpt>
      <trkpt lat="45.70442" lon="5.22972">
        <ele>322.2</ele>
        <time>2025-05-27T08:26:14Z</time>
      </trkpt>
      <trkpt lat="45.70441" lon="5.22973">
        <ele>322.2</ele>
        <time>2025-05-27T08:26:15Z</time>
      </trkpt>
      <trkpt lat="45.70441" lon="5.22973">
        <ele>321.8</ele>
        <time>2025-05-27T08:26:16Z</time>
      </trkpt>
      <trkpt lat="45.7044" lon="5.22972">
        <ele>321.6</ele>
        <time>2025-05-27T08:26:17Z</time>
      </trkpt>
      <trkpt lat="45.7044" lon="5.22972">
        <ele>321.6</ele>
        <time>2025-05-27T08:26:18Z</time>
      </trkpt>
      <trkpt lat="45.7044" lon="5.22971">
        <ele>321</ele>
        <time>2025-05-27T08:26:21Z</time>
      </trkpt>
      <trkpt lat="45.7044" lon="5.2297">
        <ele>321</ele>
        <time>2025-05-27T08:26:22Z</time>
      </trkpt>
      <trkpt lat="45.70441" lon="5.2297">
        <ele>320.8</ele>
        <time>2025-05-27T08:26:23Z</time>
      </trkpt>
      <trkpt lat="45.70442" lon="5.22969">
        <ele>320.4</ele>
        <time>2025-05-27T08:26:24Z</time>
      </trkpt>
      <trkpt lat="45.70443" lon="5.22969">
        <ele>320.4</ele>
        <time>2025-05-27T08:26:25Z</time>
      </trkpt>
      <trkpt lat="45.70443" lon="5.22967">
        <ele>320</ele>
        <time>2025-05-27T08:26:26Z</time>
      </trkpt>
      <trkpt lat="45.70444" lon="5.22966">
        <ele>320</ele>
        <time>2025-05-27T08:26:27Z</time>
      </trkpt>
      <trkpt lat="45.70444" lon="5.22966">
        <ele>319.8</ele>
        <time>2025-05-27T08:26:28Z</time>
      </trkpt>
      <trkpt lat="45.70444" lon="5.22963">
        <ele>319</ele>
        <time>2025-05-27T08:26:32Z</time>
      </trkpt>
      <trkpt lat="45.70444" lon="5.22962">
        <ele>318.8</ele>
        <time>2025-05-27T08:26:33Z</time>
      </trkpt>
      <trkpt lat="45.70443" lon="5.22962">
        <ele>318.8</ele>
        <time>2025-05-27T08:26:34Z</time>
      </trkpt>
      <trkpt lat="45.70443" lon="5.22961">
        <ele>318.4</ele>
        <time>2025-05-27T08:26:35Z</time>
      </trkpt>
      <trkpt lat="45.70443" lon="5.2296">
        <ele>318.2</ele>
        <time>2025-05-27T08:26:36Z</time>
      </trkpt>
      <trkpt lat="45.70443" lon="5.2296">
        <ele>318.2</ele>
        <time>2025-05-27T08:26:37Z</time>
      </trkpt>
      <trkpt lat="45.70443" lon="5.22959">
        <ele>317.6</ele>
        <time>2025-05-27T08:26:38Z</time>
      </trkpt>
      <trkpt lat="45.70442" lon="5.22959">
        <ele>317.6</ele>
        <time>2025-05-27T08:26:39Z</time>
      </trkpt>
      <trkpt lat="45.70441" lon="5.22957">
        <ele>317.4</ele>
        <time>2025-05-27T08:26:40Z</time>
      </trkpt>
      <trkpt lat="45.70441" lon="5.22956">
        <ele>317</ele>
        <time>2025-05-27T08:26:41Z</time>
      </trkpt>
      <trkpt lat="45.70441" lon="5.22956">
        <ele>316.6</ele>
        <time>2025-05-27T08:26:42Z</time>
      </trkpt>
      <trkpt lat="45.7044" lon="5.22955">
        <ele>316.4</ele>
        <time>2025-05-27T08:26:43Z</time>
      </trkpt>
      <trkpt lat="45.70439" lon="5.22954">
        <ele>316</ele>
        <time>2025-05-27T08:26:44Z</time>
      </trkpt>
      <trkpt lat="45.70438" lon="5.22954">
        <ele>315.8</ele>
        <time>2025-05-27T08:26:45Z</time>
      </trkpt>
      <trkpt lat="45.70437" lon="5.22954">
        <ele>315.2</ele>
        <time>2025-05-27T08:26:46Z</time>
      </trkpt>
      <trkpt lat="45.70436" lon="5.22953">
        <ele>314.8</ele>
        <time>2025-05-27T08:26:47Z</time>
      </trkpt>
      <trkpt lat="45.70436" lon="5.22953">
        <ele>314.6</ele>
        <time>2025-05-27T08:26:48Z</time>
      </trkpt>
      <trkpt lat="45.70437" lon="5.22954">
        <ele>314.2</ele>
        <time>2025-05-27T08:26:49Z</time>
      </trkpt>
      <trkpt lat="45.70437" lon="5.22954">
        <ele>314.2</ele>
        <time>2025-05-27T08:26:50Z</time>
      </trkpt>
      <trkpt lat="45.70437" lon="5.22953">
        <ele>313.8</ele>
        <time>2025-05-27T08:26:51Z</time>
      </trkpt>
      <trkpt lat="45.70438" lon="5.22952">
        <ele>313.8</ele>
        <time>2025-05-27T08:26:52Z</time>
      </trkpt>
      <trkpt lat="45.70438" lon="5.22951">
        <ele>313.8</ele>
        <time>2025-05-27T08:26:53Z</time>
      </trkpt>
      <trkpt lat="45.70438" lon="5.2295">
        <ele>313.2</ele>
        <time>2025-05-27T08:26:54Z</time>
      </trkpt>
      <trkpt lat="45.70437" lon="5.22948">
        <ele>313</ele>
        <time>2025-05-27T08:26:55Z</time>
      </trkpt>
      <trkpt lat="45.70437" lon="5.22946">
        <ele>313</ele>
        <time>2025-05-27T08:26:56Z</time>
      </trkpt>
      <trkpt lat="45.70436" lon="5.22944">
        <ele>312.4</ele>
        <time>2025-05-27T08:26:57Z</time>
      </trkpt>
      <trkpt lat="45.70435" lon="5.22943">
        <ele>312.4</ele>
        <time>2025-05-27T08:26:58Z</time>
      </trkpt>
      <trkpt lat="45.70435" lon="5.22943">
        <ele>312.2</ele>
        <time>2025-05-27T08:26:59Z</time>
      </trkpt>
      <trkpt lat="45.70434" lon="5.22942">
        <ele>312.2</ele>
        <time>2025-05-27T08:27:00Z</time>
      </trkpt>
      <trkpt lat="45.70434" lon="5.22942">
        <ele>312.2</ele>
        <time>2025-05-27T08:27:01Z</time>
      </trkpt>
      <trkpt lat="45.70433" lon="5.22943">
        <ele>312.2</ele>
        <time>2025-05-27T08:27:02Z</time>
      </trkpt>
      <trkpt lat="45.70433" lon="5.22944">
        <ele>312</ele>
        <time>2025-05-27T08:27:03Z</time>
      </trkpt>
      <trkpt lat="45.70433" lon="5.22945">
        <ele>312</ele>
        <time>2025-05-27T08:27:04Z</time>
      </trkpt>
      <trkpt lat="45.70433" lon="5.22945">
        <ele>312</ele>
        <time>2025-05-27T08:27:05Z</time>
      </trkpt>
      <trkpt lat="45.70433" lon="5.22945">
        <ele>312</ele>
        <time>2025-05-27T08:27:06Z</time>
      </trkpt>
      <trkpt lat="45.7043" lon="5.22947">
        <ele>311</ele>
        <time>2025-05-27T08:27:09Z</time>
      </trkpt>
      <trkpt lat="45.70427" lon="5.22949">
        <ele>310.2</ele>
        <time>2025-05-27T08:27:10Z</time>
      </trkpt>
      <trkpt lat="45.70424" lon="5.2295">
        <ele>309.6</ele>
        <time>2025-05-27T08:27:11Z</time>
      </trkpt>
      <trkpt lat="45.70421" lon="5.22951">
        <ele>309.2</ele>
        <time>2025-05-27T08:27:12Z</time>
      </trkpt>
      <trkpt lat="45.70418" lon="5.22951">
        <ele>309.2</ele>
        <time>2025-05-27T08:27:13Z</time>
      </trkpt>
      <trkpt lat="45.70415" lon="5.2295">
        <ele>309.2</ele>
        <time>2025-05-27T08:27:14Z</time>
      </trkpt>
      <trkpt lat="45.70412" lon="5.22948">
        <ele>309.2</ele>
        <time>2025-05-27T08:27:15Z</time>
      </trkpt>
      <trkpt lat="45.70409" lon="5.22945">
        <ele>309.2</ele>
        <time>2025-05-27T08:27:16Z</time>
      </trkpt>
      <trkpt lat="45.70406" lon="5.22944">
        <ele>309</ele>
        <time>2025-05-27T08:27:17Z</time>
      </trkpt>
      <trkpt lat="45.70402" lon="5.22942">
        <ele>309</ele>
        <time>2025-05-27T08:27:18Z</time>
      </trkpt>
      <trkpt lat="45.704" lon="5.2294">
        <ele>308.8</ele>
        <time>2025-05-27T08:27:19Z</time>
      </trkpt>
      <trkpt lat="45.70396" lon="5.22939">
        <ele>308.6</ele>
        <time>2025-05-27T08:27:20Z</time>
      </trkpt>
      <trkpt lat="45.70392" lon="5.22939">
        <ele>308.6</ele>
        <time>2025-05-27T08:27:21Z</time>
      </trkpt>
      <trkpt lat="45.70392" lon="5.22939">
        <ele>308.4</ele>
        <time>2025-05-27T08:27:22Z</time>
      </trkpt>
      <trkpt lat="45.70388" lon="5.22939">
        <ele>308.4</ele>
        <time>2025-05-27T08:27:23Z</time>
      </trkpt>
      <trkpt lat="45.70385" lon="5.22939">
        <ele>307.6</ele>
        <time>2025-05-27T08:27:24Z</time>
      </trkpt>
      <trkpt lat="45.70381" lon="5.22939">
        <ele>307.6</ele>
        <time>2025-05-27T08:27:25Z</time>
      </trkpt>
      <trkpt lat="45.70378" lon="5.22939">
        <ele>307</ele>
        <time>2025-05-27T08:27:26Z</time>
      </trkpt>
      <trkpt lat="45.70375" lon="5.22939">
        <ele>306.6</ele>
        <time>2025-05-27T08:27:27Z</time>
      </trkpt>
      <trkpt lat="45.70372" lon="5.22939">
        <ele>305.6</ele>
        <time>2025-05-27T08:27:28Z</time>
      </trkpt>
      <trkpt lat="45.7037" lon="5.22938">
        <ele>304.8</ele>
        <time>2025-05-27T08:27:29Z</time>
      </trkpt>
      <trkpt lat="45.70367" lon="5.22937">
        <ele>304.8</ele>
        <time>2025-05-27T08:27:30Z</time>
      </trkpt>
      <trkpt lat="45.70363" lon="5.22937">
        <ele>304.8</ele>
        <time>2025-05-27T08:27:31Z</time>
      </trkpt>
      <trkpt lat="45.70359" lon="5.22939">
        <ele>305.4</ele>
        <time>2025-05-27T08:27:32Z</time>
      </trkpt>
      <trkpt lat="45.70356" lon="5.22941">
        <ele>305</ele>
        <time>2025-05-27T08:27:33Z</time>
      </trkpt>
      <trkpt lat="45.70353" lon="5.22943">
        <ele>304.8</ele>
        <time>2025-05-27T08:27:34Z</time>
      </trkpt>
      <trkpt lat="45.70346" lon="5.22946">
        <ele>304.2</ele>
        <time>2025-05-27T08:27:35Z</time>
      </trkpt>
      <trkpt lat="45.7034" lon="5.22948">
        <ele>303.8</ele>
        <time>2025-05-27T08:27:36Z</time>
      </trkpt>
      <trkpt lat="45.70335" lon="5.22952">
        <ele>303.8</ele>
        <time>2025-05-27T08:27:37Z</time>
      </trkpt>
      <trkpt lat="45.7033" lon="5.22954">
        <ele>303.2</ele>
        <time>2025-05-27T08:27:38Z</time>
      </trkpt>
      <trkpt lat="45.70325" lon="5.22957">
        <ele>302.8</ele>
        <time>2025-05-27T08:27:39Z</time>
      </trkpt>
      <trkpt lat="45.70319" lon="5.22959">
        <ele>303</ele>
        <time>2025-05-27T08:27:40Z</time>
      </trkpt>
      <trkpt lat="45.70318" lon="5.22962">
        <ele>303</ele>
        <time>2025-05-27T08:27:41Z</time>
      </trkpt>
      <trkpt lat="45.70314" lon="5.22966">
        <ele>303.8</ele>
        <time>2025-05-27T08:27:42Z</time>
      </trkpt>
      <trkpt lat="45.7031" lon="5.22969">
        <ele>304</ele>
        <time>2025-05-27T08:27:43Z</time>
      </trkpt>
      <trkpt lat="45.70306" lon="5.2297">
        <ele>304.4</ele>
        <time>2025-05-27T08:27:44Z</time>
      </trkpt>
      <trkpt lat="45.70303" lon="5.22972">
        <ele>304.4</ele>
        <time>2025-05-27T08:27:45Z</time>
      </trkpt>
      <trkpt lat="45.70303" lon="5.22972">
        <ele>303.8</ele>
        <time>2025-05-27T08:27:46Z</time>
      </trkpt>
      <trkpt lat="45.70303" lon="5.22972">
        <ele>304.2</ele>
        <time>2025-05-27T08:27:47Z</time>
      </trkpt>
      <trkpt lat="45.70287" lon="5.22963">
        <ele>303.6</ele>
        <time>2025-05-27T08:27:49Z</time>
      </trkpt>
      <trkpt lat="45.70282" lon="5.2296">
        <ele>302.4</ele>
        <time>2025-05-27T08:27:50Z</time>
      </trkpt>
      <trkpt lat="45.70279" lon="5.22961">
        <ele>301.6</ele>
        <time>2025-05-27T08:27:51Z</time>
      </trkpt>
      <trkpt lat="45.70273" lon="5.22961">
        <ele>300.4</ele>
        <time>2025-05-27T08:27:52Z</time>
      </trkpt>
      <trkpt lat="45.70269" lon="5.22963">
        <ele>299.4</ele>
        <time>2025-05-27T08:27:53Z</time>
      </trkpt>
      <trkpt lat="45.70263" lon="5.22964">
        <ele>298.4</ele>
        <time>2025-05-27T08:27:54Z</time>
      </trkpt>
      <trkpt lat="45.70258" lon="5.22964">
        <ele>298.4</ele>
        <time>2025-05-27T08:27:55Z</time>
      </trkpt>
      <trkpt lat="45.70255" lon="5.22963">
        <ele>298</ele>
        <time>2025-05-27T08:27:56Z</time>
      </trkpt>
      <trkpt lat="45.70251" lon="5.22961">
        <ele>297.8</ele>
        <time>2025-05-27T08:27:57Z</time>
      </trkpt>
      <trkpt lat="45.70246" lon="5.22961">
        <ele>297.8</ele>
        <time>2025-05-27T08:27:58Z</time>
      </trkpt>
      <trkpt lat="45.70242" lon="5.22964">
        <ele>297.4</ele>
        <time>2025-05-27T08:27:59Z</time>
      </trkpt>
      <trkpt lat="45.70239" lon="5.22966">
        <ele>296.8</ele>
        <time>2025-05-27T08:28:00Z</time>
      </trkpt>
      <trkpt lat="45.70235" lon="5.2297">
        <ele>296.4</ele>
        <time>2025-05-27T08:28:01Z</time>
      </trkpt>
      <trkpt lat="45.70233" lon="5.22975">
        <ele>296.4</ele>
        <time>2025-05-27T08:28:02Z</time>
      </trkpt>
      <trkpt lat="45.7023" lon="5.22979">
        <ele>296.8</ele>
        <time>2025-05-27T08:28:03Z</time>
      </trkpt>
      <trkpt lat="45.70227" lon="5.22982">
        <ele>296.8</ele>
        <time>2025-05-27T08:28:04Z</time>
      </trkpt>
      <trkpt lat="45.70224" lon="5.22986">
        <ele>296.8</ele>
        <time>2025-05-27T08:28:05Z</time>
      </trkpt>
      <trkpt lat="45.70222" lon="5.2299">
        <ele>296.8</ele>
        <time>2025-05-27T08:28:06Z</time>
      </trkpt>
      <trkpt lat="45.70218" lon="5.22994">
        <ele>296.8</ele>
        <time>2025-05-27T08:28:07Z</time>
      </trkpt>
      <trkpt lat="45.70216" lon="5.22999">
        <ele>296.4</ele>
        <time>2025-05-27T08:28:08Z</time>
      </trkpt>
      <trkpt lat="45.70213" lon="5.23003">
        <ele>296.4</ele>
        <time>2025-05-27T08:28:09Z</time>
      </trkpt>
      <trkpt lat="45.7021" lon="5.23006">
        <ele>297.2</ele>
        <time>2025-05-27T08:28:10Z</time>
      </trkpt>
      <trkpt lat="45.70207" lon="5.23011">
        <ele>297.6</ele>
        <time>2025-05-27T08:28:11Z</time>
      </trkpt>
      <trkpt lat="45.70205" lon="5.23014">
        <ele>297.6</ele>
        <time>2025-05-27T08:28:12Z</time>
      </trkpt>
      <trkpt lat="45.70202" lon="5.23017">
        <ele>297</ele>
        <time>2025-05-27T08:28:13Z</time>
      </trkpt>
      <trkpt lat="45.702" lon="5.23021">
        <ele>297</ele>
        <time>2025-05-27T08:28:14Z</time>
      </trkpt>
      <trkpt lat="45.70197" lon="5.23025">
        <ele>297</ele>
        <time>2025-05-27T08:28:15Z</time>
      </trkpt>
      <trkpt lat="45.70196" lon="5.23026">
        <ele>297.6</ele>
        <time>2025-05-27T08:28:16Z</time>
      </trkpt>
      <trkpt lat="45.70193" lon="5.23031">
        <ele>298</ele>
        <time>2025-05-27T08:28:17Z</time>
      </trkpt>
      <trkpt lat="45.70189" lon="5.23036">
        <ele>297.8</ele>
        <time>2025-05-27T08:28:18Z</time>
      </trkpt>
      <trkpt lat="45.70186" lon="5.23037">
        <ele>298</ele>
        <time>2025-05-27T08:28:19Z</time>
      </trkpt>
      <trkpt lat="45.70183" lon="5.23043">
        <ele>297.6</ele>
        <time>2025-05-27T08:28:20Z</time>
      </trkpt>
      <trkpt lat="45.70179" lon="5.23047">
        <ele>297.6</ele>
        <time>2025-05-27T08:28:21Z</time>
      </trkpt>
      <trkpt lat="45.70177" lon="5.23054">
        <ele>297.6</ele>
        <time>2025-05-27T08:28:22Z</time>
      </trkpt>
      <trkpt lat="45.70177" lon="5.23054">
        <ele>297.6</ele>
        <time>2025-05-27T08:28:23Z</time>
      </trkpt>
      <trkpt lat="45.70169" lon="5.23062">
        <ele>297.4</ele>
        <time>2025-05-27T08:28:24Z</time>
      </trkpt>
      <trkpt lat="45.70166" lon="5.23068">
        <ele>296.6</ele>
        <time>2025-05-27T08:28:25Z</time>
      </trkpt>
      <trkpt lat="45.7016" lon="5.23071">
        <ele>296.6</ele>
        <time>2025-05-27T08:28:26Z</time>
      </trkpt>
      <trkpt lat="45.70158" lon="5.23075">
        <ele>296.6</ele>
        <time>2025-05-27T08:28:27Z</time>
      </trkpt>
      <trkpt lat="45.70156" lon="5.2308">
        <ele>296.6</ele>
        <time>2025-05-27T08:28:28Z</time>
      </trkpt>
      <trkpt lat="45.70153" lon="5.23083">
        <ele>296.6</ele>
        <time>2025-05-27T08:28:29Z</time>
      </trkpt>
      <trkpt lat="45.70151" lon="5.23087">
        <ele>296.6</ele>
        <time>2025-05-27T08:28:30Z</time>
      </trkpt>
      <trkpt lat="45.70147" lon="5.23089">
        <ele>297.2</ele>
        <time>2025-05-27T08:28:31Z</time>
      </trkpt>
      <trkpt lat="45.70143" lon="5.23093">
        <ele>297.2</ele>
        <time>2025-05-27T08:28:32Z</time>
      </trkpt>
      <trkpt lat="45.70139" lon="5.23098">
        <ele>297.2</ele>
        <time>2025-05-27T08:28:33Z</time>
      </trkpt>
      <trkpt lat="45.70134" lon="5.23102">
        <ele>297</ele>
        <time>2025-05-27T08:28:34Z</time>
      </trkpt>
      <trkpt lat="45.70131" lon="5.23105">
        <ele>297</ele>
        <time>2025-05-27T08:28:35Z</time>
      </trkpt>
      <trkpt lat="45.70128" lon="5.23107">
        <ele>297.4</ele>
        <time>2025-05-27T08:28:36Z</time>
      </trkpt>
      <trkpt lat="45.70125" lon="5.23109">
        <ele>298</ele>
        <time>2025-05-27T08:28:37Z</time>
      </trkpt>
      <trkpt lat="45.70123" lon="5.23112">
        <ele>298</ele>
        <time>2025-05-27T08:28:38Z</time>
      </trkpt>
      <trkpt lat="45.70118" lon="5.23115">
        <ele>298.6</ele>
        <time>2025-05-27T08:28:39Z</time>
      </trkpt>
      <trkpt lat="45.70116" lon="5.23117">
        <ele>298.8</ele>
        <time>2025-05-27T08:28:40Z</time>
      </trkpt>
      <trkpt lat="45.70113" lon="5.23118">
        <ele>299.6</ele>
        <time>2025-05-27T08:28:41Z</time>
      </trkpt>
      <trkpt lat="45.70107" lon="5.2312">
        <ele>299.4</ele>
        <time>2025-05-27T08:28:42Z</time>
      </trkpt>
      <trkpt lat="45.70104" lon="5.23122">
        <ele>299.4</ele>
        <time>2025-05-27T08:28:43Z</time>
      </trkpt>
      <trkpt lat="45.70101" lon="5.23125">
        <ele>300.2</ele>
        <time>2025-05-27T08:28:44Z</time>
      </trkpt>
      <trkpt lat="45.70098" lon="5.23127">
        <ele>299.8</ele>
        <time>2025-05-27T08:28:45Z</time>
      </trkpt>
      <trkpt lat="45.70094" lon="5.23129">
        <ele>300</ele>
        <time>2025-05-27T08:28:46Z</time>
      </trkpt>
      <trkpt lat="45.70091" lon="5.23131">
        <ele>300.2</ele>
        <time>2025-05-27T08:28:47Z</time>
      </trkpt>
      <trkpt lat="45.70087" lon="5.23133">
        <ele>300.2</ele>
        <time>2025-05-27T08:28:48Z</time>
      </trkpt>
      <trkpt lat="45.70084" lon="5.23134">
        <ele>300.2</ele>
        <time>2025-05-27T08:28:49Z</time>
      </trkpt>
      <trkpt lat="45.7008" lon="5.23135">
        <ele>300.8</ele>
        <time>2025-05-27T08:28:50Z</time>
      </trkpt>
      <trkpt lat="45.70077" lon="5.23136">
        <ele>300.8</ele>
        <time>2025-05-27T08:28:51Z</time>
      </trkpt>
      <trkpt lat="45.70073" lon="5.23138">
        <ele>300.6</ele>
        <time>2025-05-27T08:28:52Z</time>
      </trkpt>
      <trkpt lat="45.7007" lon="5.2314">
        <ele>300.6</ele>
        <time>2025-05-27T08:28:53Z</time>
      </trkpt>
      <trkpt lat="45.70066" lon="5.23141">
        <ele>300.6</ele>
        <time>2025-05-27T08:28:54Z</time>
      </trkpt>
      <trkpt lat="45.70062" lon="5.23142">
        <ele>300.2</ele>
        <time>2025-05-27T08:28:55Z</time>
      </trkpt>
      <trkpt lat="45.70059" lon="5.23143">
        <ele>300.2</ele>
        <time>2025-05-27T08:28:56Z</time>
      </trkpt>
      <trkpt lat="45.70056" lon="5.23146">
        <ele>300.8</ele>
        <time>2025-05-27T08:28:57Z</time>
      </trkpt>
      <trkpt lat="45.70053" lon="5.23148">
        <ele>300.8</ele>
        <time>2025-05-27T08:28:58Z</time>
        <extensions>
          <visugpx:TrkExtension xmlns:visugpx="https://www.visugpx.com/editgpx/">
            <visugpx:node>4</visugpx:node>
            </visugpx:TrkExtension>
        </extensions>
      </trkpt>
      <trkpt lat="45.70053" lon="5.23148">
        <ele>300.8</ele>
        <time>2025-05-27T08:28:58Z</time>
        <extensions>
          <visugpx:TrkExtension xmlns:visugpx="https://www.visugpx.com/editgpx/">
            <visugpx:node>4</visugpx:node>
            </visugpx:TrkExtension>
        </extensions>
      </trkpt>
      <trkpt lat="45.70051" lon="5.23148">
        <ele>300.8</ele>
        <time>2025-05-27T08:28:59Z</time>
      </trkpt>
      <trkpt lat="45.7005" lon="5.23148">
        <ele>300.8</ele>
        <time>2025-05-27T08:29:00Z</time>
      </trkpt>
      <trkpt lat="45.7005" lon="5.23148">
        <ele>300.8</ele>
        <time>2025-05-27T08:29:01Z</time>
      </trkpt>
      <trkpt lat="45.7005" lon="5.23147">
        <ele>301</ele>
        <time>2025-05-27T08:29:02Z</time>
      </trkpt>
      <trkpt lat="45.70049" lon="5.23148">
        <ele>301.2</ele>
        <time>2025-05-27T08:29:56Z</time>
      </trkpt>
      <trkpt lat="45.70047" lon="5.23146">
        <ele>301.2</ele>
        <time>2025-05-27T08:29:57Z</time>
      </trkpt>
      <trkpt lat="45.70046" lon="5.23144">
        <ele>300.8</ele>
        <time>2025-05-27T08:29:58Z</time>
      </trkpt>
      <trkpt lat="45.70046" lon="5.23139">
        <ele>300</ele>
        <time>2025-05-27T08:29:59Z</time>
      </trkpt>
      <trkpt lat="45.70046" lon="5.23133">
        <ele>300</ele>
        <time>2025-05-27T08:30:00Z</time>
      </trkpt>
      <trkpt lat="45.70046" lon="5.23128">
        <ele>299.6</ele>
        <time>2025-05-27T08:30:01Z</time>
      </trkpt>
      <trkpt lat="45.70046" lon="5.23118">
        <ele>297.6</ele>
        <time>2025-05-27T08:30:02Z</time>
      </trkpt>
      <trkpt lat="45.70047" lon="5.2311">
        <ele>296</ele>
        <time>2025-05-27T08:30:03Z</time>
      </trkpt>
      <trkpt lat="45.70048" lon="5.23103">
        <ele>295.8</ele>
        <time>2025-05-27T08:30:04Z</time>
      </trkpt>
      <trkpt lat="45.7005" lon="5.23096">
        <ele>296.4</ele>
        <time>2025-05-27T08:30:05Z</time>
      </trkpt>
      <trkpt lat="45.7005" lon="5.23088">
        <ele>295.4</ele>
        <time>2025-05-27T08:30:06Z</time>
      </trkpt>
      <trkpt lat="45.70051" lon="5.23081">
        <ele>294.6</ele>
        <time>2025-05-27T08:30:07Z</time>
      </trkpt>
      <trkpt lat="45.7005" lon="5.23071">
        <ele>294.6</ele>
        <time>2025-05-27T08:30:08Z</time>
      </trkpt>
      <trkpt lat="45.70047" lon="5.23063">
        <ele>293</ele>
        <time>2025-05-27T08:30:09Z</time>
      </trkpt>
      <trkpt lat="45.70043" lon="5.23059">
        <ele>292</ele>
        <time>2025-05-27T08:30:10Z</time>
      </trkpt>
      <trkpt lat="45.70038" lon="5.23052">
        <ele>291.2</ele>
        <time>2025-05-27T08:30:11Z</time>
      </trkpt>
      <trkpt lat="45.70034" lon="5.23046">
        <ele>291.2</ele>
        <time>2025-05-27T08:30:12Z</time>
      </trkpt>
      <trkpt lat="45.70029" lon="5.23039">
        <ele>290.4</ele>
        <time>2025-05-27T08:30:13Z</time>
      </trkpt>
      <trkpt lat="45.70016" lon="5.23029">
        <ele>290.4</ele>
        <time>2025-05-27T08:30:14Z</time>
      </trkpt>
      <trkpt lat="45.7001" lon="5.23023">
        <ele>290</ele>
        <time>2025-05-27T08:30:15Z</time>
      </trkpt>
      <trkpt lat="45.70005" lon="5.23018">
        <ele>289.2</ele>
        <time>2025-05-27T08:30:16Z</time>
      </trkpt>
      <trkpt lat="45.7" lon="5.23013">
        <ele>288.8</ele>
        <time>2025-05-27T08:30:17Z</time>
      </trkpt>
      <trkpt lat="45.69995" lon="5.23009">
        <ele>288.6</ele>
        <time>2025-05-27T08:30:18Z</time>
      </trkpt>
      <trkpt lat="45.6999" lon="5.23004">
        <ele>288.6</ele>
        <time>2025-05-27T08:30:19Z</time>
      </trkpt>
      <trkpt lat="45.69985" lon="5.23001">
        <ele>289</ele>
        <time>2025-05-27T08:30:20Z</time>
      </trkpt>
      <trkpt lat="45.6998" lon="5.22997">
        <ele>289.4</ele>
        <time>2025-05-27T08:30:21Z</time>
      </trkpt>
      <trkpt lat="45.69976" lon="5.22992">
        <ele>288.8</ele>
        <time>2025-05-27T08:30:22Z</time>
      </trkpt>
      <trkpt lat="45.69972" lon="5.22988">
        <ele>289.2</ele>
        <time>2025-05-27T08:30:23Z</time>
      </trkpt>
      <trkpt lat="45.69968" lon="5.22984">
        <ele>288.8</ele>
        <time>2025-05-27T08:30:24Z</time>
      </trkpt>
      <trkpt lat="45.69965" lon="5.2298">
        <ele>288.8</ele>
        <time>2025-05-27T08:30:25Z</time>
      </trkpt>
      <trkpt lat="45.69963" lon="5.22976">
        <ele>288.8</ele>
        <time>2025-05-27T08:30:26Z</time>
      </trkpt>
      <trkpt lat="45.69962" lon="5.22973">
        <ele>288.8</ele>
        <time>2025-05-27T08:30:27Z</time>
      </trkpt>
      <trkpt lat="45.69962" lon="5.2297">
        <ele>288.8</ele>
        <time>2025-05-27T08:30:28Z</time>
      </trkpt>
      <trkpt lat="45.69961" lon="5.22968">
        <ele>288.8</ele>
        <time>2025-05-27T08:30:29Z</time>
      </trkpt>
      <trkpt lat="45.69961" lon="5.22968">
        <ele>289</ele>
        <time>2025-05-27T08:30:30Z</time>
      </trkpt>
      <trkpt lat="45.6996" lon="5.22967">
        <ele>289</ele>
        <time>2025-05-27T08:30:31Z</time>
      </trkpt>
      <trkpt lat="45.69959" lon="5.22964">
        <ele>289</ele>
        <time>2025-05-27T08:30:32Z</time>
      </trkpt>
      <trkpt lat="45.69958" lon="5.22963">
        <ele>289</ele>
        <time>2025-05-27T08:30:33Z</time>
      </trkpt>
      <trkpt lat="45.69957" lon="5.22963">
        <ele>289</ele>
        <time>2025-05-27T08:30:34Z</time>
      </trkpt>
      <trkpt lat="45.69955" lon="5.22964">
        <ele>289</ele>
        <time>2025-05-27T08:30:35Z</time>
      </trkpt>
      <trkpt lat="45.69953" lon="5.22964">
        <ele>289</ele>
        <time>2025-05-27T08:30:36Z</time>
      </trkpt>
      <trkpt lat="45.6995" lon="5.22965">
        <ele>289</ele>
        <time>2025-05-27T08:30:37Z</time>
      </trkpt>
      <trkpt lat="45.69948" lon="5.22964">
        <ele>289</ele>
        <time>2025-05-27T08:30:38Z</time>
      </trkpt>
      <trkpt lat="45.69946" lon="5.22965">
        <ele>289</ele>
        <time>2025-05-27T08:30:39Z</time>
      </trkpt>
      <trkpt lat="45.69943" lon="5.22965">
        <ele>289</ele>
        <time>2025-05-27T08:30:40Z</time>
      </trkpt>
      <trkpt lat="45.69941" lon="5.22965">
        <ele>289</ele>
        <time>2025-05-27T08:30:41Z</time>
      </trkpt>
      <trkpt lat="45.69938" lon="5.22966">
        <ele>289</ele>
        <time>2025-05-27T08:30:42Z</time>
      </trkpt>
      <trkpt lat="45.69934" lon="5.22966">
        <ele>289</ele>
        <time>2025-05-27T08:30:43Z</time>
      </trkpt>
      <trkpt lat="45.6993" lon="5.22966">
        <ele>289.4</ele>
        <time>2025-05-27T08:30:44Z</time>
      </trkpt>
      <trkpt lat="45.69927" lon="5.22967">
        <ele>289.4</ele>
        <time>2025-05-27T08:30:45Z</time>
      </trkpt>
      <trkpt lat="45.69923" lon="5.22968">
        <ele>289</ele>
        <time>2025-05-27T08:30:46Z</time>
      </trkpt>
      <trkpt lat="45.69918" lon="5.22971">
        <ele>288.6</ele>
        <time>2025-05-27T08:30:47Z</time>
      </trkpt>
      <trkpt lat="45.69915" lon="5.22973">
        <ele>289.2</ele>
        <time>2025-05-27T08:30:48Z</time>
      </trkpt>
      <trkpt lat="45.69911" lon="5.22978">
        <ele>289.2</ele>
        <time>2025-05-27T08:30:49Z</time>
      </trkpt>
      <trkpt lat="45.69907" lon="5.22982">
        <ele>289.6</ele>
        <time>2025-05-27T08:30:50Z</time>
      </trkpt>
      <trkpt lat="45.69905" lon="5.22986">
        <ele>289.4</ele>
        <time>2025-05-27T08:30:51Z</time>
      </trkpt>
      <trkpt lat="45.69901" lon="5.2299">
        <ele>288.8</ele>
        <time>2025-05-27T08:30:52Z</time>
      </trkpt>
      <trkpt lat="45.69897" lon="5.22994">
        <ele>289.2</ele>
        <time>2025-05-27T08:30:53Z</time>
      </trkpt>
      <trkpt lat="45.69895" lon="5.22999">
        <ele>289.2</ele>
        <time>2025-05-27T08:30:54Z</time>
      </trkpt>
      <trkpt lat="45.69891" lon="5.23003">
        <ele>289.6</ele>
        <time>2025-05-27T08:30:55Z</time>
      </trkpt>
      <trkpt lat="45.69887" lon="5.23008">
        <ele>289.8</ele>
        <time>2025-05-27T08:30:56Z</time>
      </trkpt>
      <trkpt lat="45.69883" lon="5.23012">
        <ele>290.2</ele>
        <time>2025-05-27T08:30:57Z</time>
      </trkpt>
      <trkpt lat="45.69879" lon="5.23016">
        <ele>290.8</ele>
        <time>2025-05-27T08:30:58Z</time>
      </trkpt>
      <trkpt lat="45.69876" lon="5.2302">
        <ele>290.6</ele>
        <time>2025-05-27T08:30:59Z</time>
      </trkpt>
      <trkpt lat="45.69873" lon="5.23025">
        <ele>289.4</ele>
        <time>2025-05-27T08:31:00Z</time>
      </trkpt>
      <trkpt lat="45.69871" lon="5.23031">
        <ele>289.4</ele>
        <time>2025-05-27T08:31:01Z</time>
      </trkpt>
      <trkpt lat="45.69868" lon="5.23036">
        <ele>289.4</ele>
        <time>2025-05-27T08:31:02Z</time>
      </trkpt>
      <trkpt lat="45.69866" lon="5.23042">
        <ele>290.4</ele>
        <time>2025-05-27T08:31:03Z</time>
      </trkpt>
      <trkpt lat="45.69865" lon="5.23048">
        <ele>290.4</ele>
        <time>2025-05-27T08:31:04Z</time>
      </trkpt>
      <trkpt lat="45.69864" lon="5.23054">
        <ele>290.6</ele>
        <time>2025-05-27T08:31:05Z</time>
      </trkpt>
      <trkpt lat="45.69862" lon="5.2306">
        <ele>290.2</ele>
        <time>2025-05-27T08:31:06Z</time>
      </trkpt>
      <trkpt lat="45.69862" lon="5.23068">
        <ele>290.2</ele>
        <time>2025-05-27T08:31:07Z</time>
      </trkpt>
      <trkpt lat="45.69859" lon="5.23075">
        <ele>290.6</ele>
        <time>2025-05-27T08:31:08Z</time>
      </trkpt>
      <trkpt lat="45.69857" lon="5.23082">
        <ele>290.6</ele>
        <time>2025-05-27T08:31:09Z</time>
      </trkpt>
      <trkpt lat="45.69853" lon="5.2309">
        <ele>290.6</ele>
        <time>2025-05-27T08:31:10Z</time>
      </trkpt>
      <trkpt lat="45.6985" lon="5.23097">
        <ele>290</ele>
        <time>2025-05-27T08:31:11Z</time>
      </trkpt>
      <trkpt lat="45.69847" lon="5.23103">
        <ele>289.4</ele>
        <time>2025-05-27T08:31:12Z</time>
      </trkpt>
      <trkpt lat="45.69844" lon="5.23109">
        <ele>289.4</ele>
        <time>2025-05-27T08:31:13Z</time>
      </trkpt>
      <trkpt lat="45.69839" lon="5.23114">
        <ele>289.4</ele>
        <time>2025-05-27T08:31:14Z</time>
      </trkpt>
      <trkpt lat="45.69836" lon="5.2312">
        <ele>289.4</ele>
        <time>2025-05-27T08:31:15Z</time>
      </trkpt>
      <trkpt lat="45.69833" lon="5.23126">
        <ele>289.4</ele>
        <time>2025-05-27T08:31:16Z</time>
      </trkpt>
      <trkpt lat="45.69829" lon="5.23132">
        <ele>289.4</ele>
        <time>2025-05-27T08:31:17Z</time>
      </trkpt>
      <trkpt lat="45.69825" lon="5.23136">
        <ele>289.4</ele>
        <time>2025-05-27T08:31:18Z</time>
      </trkpt>
      <trkpt lat="45.69822" lon="5.23141">
        <ele>290</ele>
        <time>2025-05-27T08:31:19Z</time>
      </trkpt>
      <trkpt lat="45.6982" lon="5.23145">
        <ele>290.4</ele>
        <time>2025-05-27T08:31:20Z</time>
      </trkpt>
      <trkpt lat="45.69816" lon="5.23151">
        <ele>291</ele>
        <time>2025-05-27T08:31:21Z</time>
      </trkpt>
      <trkpt lat="45.69812" lon="5.23155">
        <ele>291.2</ele>
        <time>2025-05-27T08:31:22Z</time>
      </trkpt>
      <trkpt lat="45.69808" lon="5.2316">
        <ele>290.6</ele>
        <time>2025-05-27T08:31:23Z</time>
      </trkpt>
      <trkpt lat="45.69805" lon="5.23164">
        <ele>290.6</ele>
        <time>2025-05-27T08:31:24Z</time>
      </trkpt>
      <trkpt lat="45.69802" lon="5.23169">
        <ele>290.4</ele>
        <time>2025-05-27T08:31:25Z</time>
      </trkpt>
      <trkpt lat="45.69799" lon="5.23175">
        <ele>290.4</ele>
        <time>2025-05-27T08:31:26Z</time>
      </trkpt>
      <trkpt lat="45.69796" lon="5.23181">
        <ele>290.4</ele>
        <time>2025-05-27T08:31:27Z</time>
      </trkpt>
      <trkpt lat="45.69792" lon="5.23186">
        <ele>290.4</ele>
        <time>2025-05-27T08:31:28Z</time>
      </trkpt>
      <trkpt lat="45.69789" lon="5.23192">
        <ele>290</ele>
        <time>2025-05-27T08:31:29Z</time>
      </trkpt>
      <trkpt lat="45.69787" lon="5.23198">
        <ele>289.4</ele>
        <time>2025-05-27T08:31:30Z</time>
      </trkpt>
      <trkpt lat="45.69784" lon="5.23203">
        <ele>289.6</ele>
        <time>2025-05-27T08:31:31Z</time>
      </trkpt>
      <trkpt lat="45.69781" lon="5.23208">
        <ele>289.6</ele>
        <time>2025-05-27T08:31:32Z</time>
      </trkpt>
      <trkpt lat="45.69778" lon="5.23214">
        <ele>290</ele>
        <time>2025-05-27T08:31:33Z</time>
      </trkpt>
      <trkpt lat="45.69775" lon="5.23217">
        <ele>290</ele>
        <time>2025-05-27T08:31:34Z</time>
      </trkpt>
      <trkpt lat="45.69773" lon="5.23222">
        <ele>290.4</ele>
        <time>2025-05-27T08:31:35Z</time>
      </trkpt>
      <trkpt lat="45.69771" lon="5.23226">
        <ele>290.6</ele>
        <time>2025-05-27T08:31:36Z</time>
      </trkpt>
      <trkpt lat="45.69769" lon="5.23229">
        <ele>290.8</ele>
        <time>2025-05-27T08:31:37Z</time>
      </trkpt>
      <trkpt lat="45.69767" lon="5.23233">
        <ele>290.8</ele>
        <time>2025-05-27T08:31:38Z</time>
      </trkpt>
      <trkpt lat="45.69765" lon="5.23237">
        <ele>290.8</ele>
        <time>2025-05-27T08:31:39Z</time>
      </trkpt>
      <trkpt lat="45.69763" lon="5.23241">
        <ele>290.4</ele>
        <time>2025-05-27T08:31:40Z</time>
      </trkpt>
      <trkpt lat="45.69761" lon="5.23246">
        <ele>291.4</ele>
        <time>2025-05-27T08:31:41Z</time>
      </trkpt>
      <trkpt lat="45.69759" lon="5.2325">
        <ele>291.6</ele>
        <time>2025-05-27T08:31:42Z</time>
      </trkpt>
      <trkpt lat="45.69757" lon="5.23253">
        <ele>291.2</ele>
        <time>2025-05-27T08:31:43Z</time>
      </trkpt>
      <trkpt lat="45.69755" lon="5.23257">
        <ele>291.2</ele>
        <time>2025-05-27T08:31:44Z</time>
      </trkpt>
      <trkpt lat="45.69753" lon="5.23262">
        <ele>291</ele>
        <time>2025-05-27T08:31:45Z</time>
      </trkpt>
      <trkpt lat="45.69751" lon="5.23267">
        <ele>290.2</ele>
        <time>2025-05-27T08:31:46Z</time>
      </trkpt>
      <trkpt lat="45.69749" lon="5.23272">
        <ele>291.4</ele>
        <time>2025-05-27T08:31:47Z</time>
      </trkpt>
      <trkpt lat="45.69746" lon="5.23277">
        <ele>291.4</ele>
        <time>2025-05-27T08:31:48Z</time>
      </trkpt>
      <trkpt lat="45.69743" lon="5.23281">
        <ele>291.4</ele>
        <time>2025-05-27T08:31:49Z</time>
      </trkpt>
      <trkpt lat="45.6974" lon="5.23286">
        <ele>291.8</ele>
        <time>2025-05-27T08:31:50Z</time>
      </trkpt>
      <trkpt lat="45.69737" lon="5.2329">
        <ele>292.4</ele>
        <time>2025-05-27T08:31:51Z</time>
      </trkpt>
      <trkpt lat="45.69735" lon="5.23294">
        <ele>292</ele>
        <time>2025-05-27T08:31:52Z</time>
      </trkpt>
      <trkpt lat="45.69733" lon="5.23299">
        <ele>292</ele>
        <time>2025-05-27T08:31:53Z</time>
      </trkpt>
      <trkpt lat="45.69729" lon="5.23304">
        <ele>291.8</ele>
        <time>2025-05-27T08:31:54Z</time>
      </trkpt>
      <trkpt lat="45.69727" lon="5.23309">
        <ele>291.8</ele>
        <time>2025-05-27T08:31:55Z</time>
      </trkpt>
      <trkpt lat="45.69723" lon="5.23312">
        <ele>291.8</ele>
        <time>2025-05-27T08:31:56Z</time>
      </trkpt>
      <trkpt lat="45.69721" lon="5.23316">
        <ele>291.8</ele>
        <time>2025-05-27T08:31:57Z</time>
      </trkpt>
      <trkpt lat="45.69718" lon="5.23321">
        <ele>291.6</ele>
        <time>2025-05-27T08:31:58Z</time>
      </trkpt>
      <trkpt lat="45.69715" lon="5.23327">
        <ele>292.2</ele>
        <time>2025-05-27T08:31:59Z</time>
      </trkpt>
      <trkpt lat="45.69713" lon="5.23331">
        <ele>291.8</ele>
        <time>2025-05-27T08:32:00Z</time>
      </trkpt>
      <trkpt lat="45.6971" lon="5.23335">
        <ele>291.6</ele>
        <time>2025-05-27T08:32:01Z</time>
      </trkpt>
      <trkpt lat="45.69708" lon="5.2334">
        <ele>291</ele>
        <time>2025-05-27T08:32:02Z</time>
      </trkpt>
      <trkpt lat="45.69706" lon="5.23345">
        <ele>291</ele>
        <time>2025-05-27T08:32:03Z</time>
      </trkpt>
      <trkpt lat="45.69703" lon="5.23349">
        <ele>291</ele>
        <time>2025-05-27T08:32:04Z</time>
      </trkpt>
      <trkpt lat="45.697" lon="5.23354">
        <ele>291.8</ele>
        <time>2025-05-27T08:32:05Z</time>
      </trkpt>
      <trkpt lat="45.69697" lon="5.23359">
        <ele>292</ele>
        <time>2025-05-27T08:32:06Z</time>
      </trkpt>
      <trkpt lat="45.69694" lon="5.23364">
        <ele>292.2</ele>
        <time>2025-05-27T08:32:07Z</time>
      </trkpt>
      <trkpt lat="45.69691" lon="5.23369">
        <ele>292.2</ele>
        <time>2025-05-27T08:32:08Z</time>
      </trkpt>
      <trkpt lat="45.69687" lon="5.23375">
        <ele>292.2</ele>
        <time>2025-05-27T08:32:09Z</time>
      </trkpt>
      <trkpt lat="45.69684" lon="5.2338">
        <ele>292.6</ele>
        <time>2025-05-27T08:32:10Z</time>
      </trkpt>
      <trkpt lat="45.69681" lon="5.23385">
        <ele>292.6</ele>
        <time>2025-05-27T08:32:11Z</time>
      </trkpt>
      <trkpt lat="45.69679" lon="5.23389">
        <ele>292.6</ele>
        <time>2025-05-27T08:32:12Z</time>
      </trkpt>
      <trkpt lat="45.69675" lon="5.23394">
        <ele>292.4</ele>
        <time>2025-05-27T08:32:13Z</time>
      </trkpt>
      <trkpt lat="45.69672" lon="5.23398">
        <ele>292.4</ele>
        <time>2025-05-27T08:32:14Z</time>
      </trkpt>
      <trkpt lat="45.69669" lon="5.23404">
        <ele>292.4</ele>
        <time>2025-05-27T08:32:15Z</time>
      </trkpt>
      <trkpt lat="45.69666" lon="5.23408">
        <ele>292.4</ele>
        <time>2025-05-27T08:32:16Z</time>
      </trkpt>
      <trkpt lat="45.69663" lon="5.23414">
        <ele>292.4</ele>
        <time>2025-05-27T08:32:17Z</time>
      </trkpt>
      <trkpt lat="45.6966" lon="5.23419">
        <ele>292.8</ele>
        <time>2025-05-27T08:32:18Z</time>
      </trkpt>
      <trkpt lat="45.69657" lon="5.23424">
        <ele>293.2</ele>
        <time>2025-05-27T08:32:19Z</time>
      </trkpt>
      <trkpt lat="45.69654" lon="5.23429">
        <ele>293.2</ele>
        <time>2025-05-27T08:32:20Z</time>
      </trkpt>
      <trkpt lat="45.69651" lon="5.23433">
        <ele>293.2</ele>
        <time>2025-05-27T08:32:21Z</time>
      </trkpt>
      <trkpt lat="45.69649" lon="5.23439">
        <ele>293.2</ele>
        <time>2025-05-27T08:32:22Z</time>
      </trkpt>
      <trkpt lat="45.69646" lon="5.23443">
        <ele>293.2</ele>
        <time>2025-05-27T08:32:23Z</time>
      </trkpt>
      <trkpt lat="45.69643" lon="5.23448">
        <ele>293.6</ele>
        <time>2025-05-27T08:32:24Z</time>
      </trkpt>
      <trkpt lat="45.6964" lon="5.23453">
        <ele>293.6</ele>
        <time>2025-05-27T08:32:25Z</time>
      </trkpt>
      <trkpt lat="45.69637" lon="5.23457">
        <ele>293.8</ele>
        <time>2025-05-27T08:32:26Z</time>
      </trkpt>
      <trkpt lat="45.69634" lon="5.23462">
        <ele>293.8</ele>
        <time>2025-05-27T08:32:27Z</time>
      </trkpt>
      <trkpt lat="45.69632" lon="5.23466">
        <ele>294.2</ele>
        <time>2025-05-27T08:32:28Z</time>
      </trkpt>
      <trkpt lat="45.6963" lon="5.2347">
        <ele>294.2</ele>
        <time>2025-05-27T08:32:29Z</time>
      </trkpt>
      <trkpt lat="45.69628" lon="5.23474">
        <ele>294.8</ele>
        <time>2025-05-27T08:32:30Z</time>
      </trkpt>
      <trkpt lat="45.69625" lon="5.23478">
        <ele>294.8</ele>
        <time>2025-05-27T08:32:31Z</time>
      </trkpt>
      <trkpt lat="45.69623" lon="5.23482">
        <ele>295.8</ele>
        <time>2025-05-27T08:32:32Z</time>
      </trkpt>
      <trkpt lat="45.69621" lon="5.23486">
        <ele>295.8</ele>
        <time>2025-05-27T08:32:33Z</time>
      </trkpt>
      <trkpt lat="45.69619" lon="5.23489">
        <ele>295.8</ele>
        <time>2025-05-27T08:32:34Z</time>
      </trkpt>
      <trkpt lat="45.69617" lon="5.23493">
        <ele>296.4</ele>
        <time>2025-05-27T08:32:35Z</time>
      </trkpt>
      <trkpt lat="45.69615" lon="5.23496">
        <ele>296.4</ele>
        <time>2025-05-27T08:32:36Z</time>
      </trkpt>
      <trkpt lat="45.69613" lon="5.23499">
        <ele>296.8</ele>
        <time>2025-05-27T08:32:37Z</time>
      </trkpt>
      <trkpt lat="45.69611" lon="5.23501">
        <ele>296.8</ele>
        <time>2025-05-27T08:32:38Z</time>
      </trkpt>
      <trkpt lat="45.69609" lon="5.23504">
        <ele>296.8</ele>
        <time>2025-05-27T08:32:39Z</time>
      </trkpt>
      <trkpt lat="45.69607" lon="5.23507">
        <ele>296.8</ele>
        <time>2025-05-27T08:32:40Z</time>
      </trkpt>
      <trkpt lat="45.69606" lon="5.2351">
        <ele>297.6</ele>
        <time>2025-05-27T08:32:41Z</time>
      </trkpt>
      <trkpt lat="45.69604" lon="5.23512">
        <ele>297.8</ele>
        <time>2025-05-27T08:32:42Z</time>
      </trkpt>
      <trkpt lat="45.69602" lon="5.23515">
        <ele>298.2</ele>
        <time>2025-05-27T08:32:43Z</time>
      </trkpt>
      <trkpt lat="45.69601" lon="5.23517">
        <ele>298.6</ele>
        <time>2025-05-27T08:32:44Z</time>
      </trkpt>
      <trkpt lat="45.696" lon="5.23518">
        <ele>298.6</ele>
        <time>2025-05-27T08:32:45Z</time>
      </trkpt>
      <trkpt lat="45.69599" lon="5.2352">
        <ele>298.2</ele>
        <time>2025-05-27T08:32:46Z</time>
      </trkpt>
      <trkpt lat="45.69599" lon="5.23523">
        <ele>298.6</ele>
        <time>2025-05-27T08:32:47Z</time>
      </trkpt>
      <trkpt lat="45.69599" lon="5.23526">
        <ele>298.6</ele>
        <time>2025-05-27T08:32:48Z</time>
      </trkpt>
      <trkpt lat="45.69599" lon="5.23528">
        <ele>299.2</ele>
        <time>2025-05-27T08:32:49Z</time>
      </trkpt>
      <trkpt lat="45.69599" lon="5.23531">
        <ele>299.2</ele>
        <time>2025-05-27T08:32:50Z</time>
      </trkpt>
      <trkpt lat="45.69599" lon="5.23535">
        <ele>299.4</ele>
        <time>2025-05-27T08:32:51Z</time>
      </trkpt>
      <trkpt lat="45.69598" lon="5.23539">
        <ele>299.6</ele>
        <time>2025-05-27T08:32:52Z</time>
      </trkpt>
      <trkpt lat="45.69598" lon="5.23541">
        <ele>300</ele>
        <time>2025-05-27T08:32:53Z</time>
      </trkpt>
      <trkpt lat="45.69598" lon="5.23544">
        <ele>300</ele>
        <time>2025-05-27T08:32:54Z</time>
      </trkpt>
      <trkpt lat="45.69598" lon="5.23547">
        <ele>300.4</ele>
        <time>2025-05-27T08:32:55Z</time>
      </trkpt>
      <trkpt lat="45.69599" lon="5.2355">
        <ele>300.8</ele>
        <time>2025-05-27T08:32:56Z</time>
      </trkpt>
      <trkpt lat="45.69599" lon="5.23552">
        <ele>301.2</ele>
        <time>2025-05-27T08:32:57Z</time>
      </trkpt>
      <trkpt lat="45.69601" lon="5.23555">
        <ele>301</ele>
        <time>2025-05-27T08:32:58Z</time>
      </trkpt>
      <trkpt lat="45.69603" lon="5.23558">
        <ele>301.4</ele>
        <time>2025-05-27T08:32:59Z</time>
      </trkpt>
      <trkpt lat="45.69604" lon="5.23559">
        <ele>301.6</ele>
        <time>2025-05-27T08:33:00Z</time>
      </trkpt>
      <trkpt lat="45.69605" lon="5.23561">
        <ele>301.6</ele>
        <time>2025-05-27T08:33:01Z</time>
      </trkpt>
      <trkpt lat="45.69605" lon="5.23563">
        <ele>302</ele>
        <time>2025-05-27T08:33:02Z</time>
      </trkpt>
      <trkpt lat="45.69606" lon="5.23566">
        <ele>302</ele>
        <time>2025-05-27T08:33:03Z</time>
      </trkpt>
      <trkpt lat="45.69606" lon="5.23569">
        <ele>302.2</ele>
        <time>2025-05-27T08:33:04Z</time>
      </trkpt>
      <trkpt lat="45.69606" lon="5.2357">
        <ele>302.4</ele>
        <time>2025-05-27T08:33:05Z</time>
      </trkpt>
      <trkpt lat="45.69607" lon="5.23572">
        <ele>303.2</ele>
        <time>2025-05-27T08:33:06Z</time>
      </trkpt>
      <trkpt lat="45.69608" lon="5.23574">
        <ele>303.4</ele>
        <time>2025-05-27T08:33:07Z</time>
      </trkpt>
      <trkpt lat="45.69609" lon="5.23576">
        <ele>303.4</ele>
        <time>2025-05-27T08:33:08Z</time>
      </trkpt>
      <trkpt lat="45.6961" lon="5.23577">
        <ele>303.6</ele>
        <time>2025-05-27T08:33:09Z</time>
      </trkpt>
      <trkpt lat="45.69612" lon="5.23579">
        <ele>304</ele>
        <time>2025-05-27T08:33:10Z</time>
      </trkpt>
      <trkpt lat="45.69613" lon="5.2358">
        <ele>304.2</ele>
        <time>2025-05-27T08:33:11Z</time>
      </trkpt>
      <trkpt lat="45.69615" lon="5.23581">
        <ele>304.2</ele>
        <time>2025-05-27T08:33:12Z</time>
      </trkpt>
      <trkpt lat="45.69618" lon="5.23582">
        <ele>304.4</ele>
        <time>2025-05-27T08:33:13Z</time>
      </trkpt>
      <trkpt lat="45.6962" lon="5.23582">
        <ele>304.4</ele>
        <time>2025-05-27T08:33:14Z</time>
      </trkpt>
      <trkpt lat="45.69623" lon="5.23582">
        <ele>305</ele>
        <time>2025-05-27T08:33:15Z</time>
      </trkpt>
      <trkpt lat="45.69624" lon="5.23583">
        <ele>305</ele>
        <time>2025-05-27T08:33:16Z</time>
      </trkpt>
      <trkpt lat="45.69626" lon="5.23584">
        <ele>305.2</ele>
        <time>2025-05-27T08:33:17Z</time>
      </trkpt>
      <trkpt lat="45.69627" lon="5.23585">
        <ele>305.2</ele>
        <time>2025-05-27T08:33:18Z</time>
      </trkpt>
      <trkpt lat="45.69628" lon="5.23587">
        <ele>305.4</ele>
        <time>2025-05-27T08:33:19Z</time>
      </trkpt>
      <trkpt lat="45.69629" lon="5.23588">
        <ele>305.8</ele>
        <time>2025-05-27T08:33:20Z</time>
      </trkpt>
      <trkpt lat="45.69629" lon="5.2359">
        <ele>306</ele>
        <time>2025-05-27T08:33:21Z</time>
      </trkpt>
      <trkpt lat="45.69631" lon="5.23591">
        <ele>306</ele>
        <time>2025-05-27T08:33:22Z</time>
      </trkpt>
      <trkpt lat="45.69632" lon="5.23592">
        <ele>306.4</ele>
        <time>2025-05-27T08:33:23Z</time>
      </trkpt>
      <trkpt lat="45.69633" lon="5.23593">
        <ele>306.8</ele>
        <time>2025-05-27T08:33:24Z</time>
      </trkpt>
      <trkpt lat="45.69633" lon="5.23595">
        <ele>306.8</ele>
        <time>2025-05-27T08:33:25Z</time>
      </trkpt>
      <trkpt lat="45.69634" lon="5.23596">
        <ele>306.8</ele>
        <time>2025-05-27T08:33:26Z</time>
      </trkpt>
      <trkpt lat="45.69635" lon="5.23598">
        <ele>306.8</ele>
        <time>2025-05-27T08:33:27Z</time>
      </trkpt>
      <trkpt lat="45.69636" lon="5.236">
        <ele>307.2</ele>
        <time>2025-05-27T08:33:28Z</time>
      </trkpt>
      <trkpt lat="45.69637" lon="5.23602">
        <ele>307.2</ele>
        <time>2025-05-27T08:33:29Z</time>
      </trkpt>
      <trkpt lat="45.69638" lon="5.23603">
        <ele>307.4</ele>
        <time>2025-05-27T08:33:30Z</time>
      </trkpt>
      <trkpt lat="45.69638" lon="5.23605">
        <ele>307.6</ele>
        <time>2025-05-27T08:33:31Z</time>
      </trkpt>
      <trkpt lat="45.69639" lon="5.23606">
        <ele>307.2</ele>
        <time>2025-05-27T08:33:32Z</time>
      </trkpt>
      <trkpt lat="45.6964" lon="5.23608">
        <ele>307.2</ele>
        <time>2025-05-27T08:33:33Z</time>
      </trkpt>
      <trkpt lat="45.69641" lon="5.23609">
        <ele>307.8</ele>
        <time>2025-05-27T08:33:34Z</time>
      </trkpt>
      <trkpt lat="45.69642" lon="5.23611">
        <ele>308.4</ele>
        <time>2025-05-27T08:33:35Z</time>
      </trkpt>
      <trkpt lat="45.69643" lon="5.23613">
        <ele>308.8</ele>
        <time>2025-05-27T08:33:36Z</time>
      </trkpt>
      <trkpt lat="45.69644" lon="5.23614">
        <ele>308.8</ele>
        <time>2025-05-27T08:33:37Z</time>
      </trkpt>
      <trkpt lat="45.69645" lon="5.23616">
        <ele>309</ele>
        <time>2025-05-27T08:33:38Z</time>
      </trkpt>
      <trkpt lat="45.69646" lon="5.23618">
        <ele>309</ele>
        <time>2025-05-27T08:33:39Z</time>
      </trkpt>
      <trkpt lat="45.69647" lon="5.2362">
        <ele>309</ele>
        <time>2025-05-27T08:33:40Z</time>
      </trkpt>
      <trkpt lat="45.69647" lon="5.23622">
        <ele>309</ele>
        <time>2025-05-27T08:33:41Z</time>
      </trkpt>
      <trkpt lat="45.69647" lon="5.23623">
        <ele>309.6</ele>
        <time>2025-05-27T08:33:42Z</time>
      </trkpt>
      <trkpt lat="45.69647" lon="5.23625">
        <ele>309.8</ele>
        <time>2025-05-27T08:33:43Z</time>
      </trkpt>
      <trkpt lat="45.69647" lon="5.23627">
        <ele>309.8</ele>
        <time>2025-05-27T08:33:44Z</time>
      </trkpt>
      <trkpt lat="45.69647" lon="5.23628">
        <ele>309.8</ele>
        <time>2025-05-27T08:33:45Z</time>
      </trkpt>
      <trkpt lat="45.69647" lon="5.2363">
        <ele>310.4</ele>
        <time>2025-05-27T08:33:46Z</time>
      </trkpt>
      <trkpt lat="45.69648" lon="5.23632">
        <ele>310.6</ele>
        <time>2025-05-27T08:33:47Z</time>
      </trkpt>
      <trkpt lat="45.69648" lon="5.23633">
        <ele>310.6</ele>
        <time>2025-05-27T08:33:48Z</time>
      </trkpt>
      <trkpt lat="45.69649" lon="5.23634">
        <ele>311</ele>
        <time>2025-05-27T08:33:49Z</time>
      </trkpt>
      <trkpt lat="45.69651" lon="5.23636">
        <ele>311.2</ele>
        <time>2025-05-27T08:33:50Z</time>
      </trkpt>
      <trkpt lat="45.69651" lon="5.23638">
        <ele>311.4</ele>
        <time>2025-05-27T08:33:51Z</time>
      </trkpt>
      <trkpt lat="45.69652" lon="5.2364">
        <ele>311.6</ele>
        <time>2025-05-27T08:33:52Z</time>
      </trkpt>
      <trkpt lat="45.69652" lon="5.23642">
        <ele>312</ele>
        <time>2025-05-27T08:33:53Z</time>
      </trkpt>
      <trkpt lat="45.69653" lon="5.23644">
        <ele>312</ele>
        <time>2025-05-27T08:33:54Z</time>
      </trkpt>
      <trkpt lat="45.69653" lon="5.23645">
        <ele>312.2</ele>
        <time>2025-05-27T08:33:55Z</time>
      </trkpt>
      <trkpt lat="45.69653" lon="5.23646">
        <ele>312.6</ele>
        <time>2025-05-27T08:33:56Z</time>
      </trkpt>
      <trkpt lat="45.69653" lon="5.23649">
        <ele>312.6</ele>
        <time>2025-05-27T08:33:57Z</time>
      </trkpt>
      <trkpt lat="45.69653" lon="5.23651">
        <ele>312.6</ele>
        <time>2025-05-27T08:33:58Z</time>
      </trkpt>
      <trkpt lat="45.69653" lon="5.23654">
        <ele>313</ele>
        <time>2025-05-27T08:33:59Z</time>
      </trkpt>
      <trkpt lat="45.69654" lon="5.23655">
        <ele>313</ele>
        <time>2025-05-27T08:34:00Z</time>
      </trkpt>
      <trkpt lat="45.69654" lon="5.23658">
        <ele>313</ele>
        <time>2025-05-27T08:34:01Z</time>
      </trkpt>
      <trkpt lat="45.69654" lon="5.2366">
        <ele>313.4</ele>
        <time>2025-05-27T08:34:02Z</time>
      </trkpt>
      <trkpt lat="45.69654" lon="5.23663">
        <ele>313.4</ele>
        <time>2025-05-27T08:34:03Z</time>
      </trkpt>
      <trkpt lat="45.69654" lon="5.23666">
        <ele>313.8</ele>
        <time>2025-05-27T08:34:04Z</time>
      </trkpt>
      <trkpt lat="45.69655" lon="5.23669">
        <ele>313.8</ele>
        <time>2025-05-27T08:34:05Z</time>
      </trkpt>
      <trkpt lat="45.69655" lon="5.23671">
        <ele>314</ele>
        <time>2025-05-27T08:34:06Z</time>
      </trkpt>
      <trkpt lat="45.69654" lon="5.23673">
        <ele>314</ele>
        <time>2025-05-27T08:34:07Z</time>
      </trkpt>
      <trkpt lat="45.69653" lon="5.23676">
        <ele>314</ele>
        <time>2025-05-27T08:34:08Z</time>
      </trkpt>
      <trkpt lat="45.69653" lon="5.23679">
        <ele>314</ele>
        <time>2025-05-27T08:34:09Z</time>
      </trkpt>
      <trkpt lat="45.69652" lon="5.23682">
        <ele>314.4</ele>
        <time>2025-05-27T08:34:10Z</time>
      </trkpt>
      <trkpt lat="45.69652" lon="5.23682">
        <ele>314.2</ele>
        <time>2025-05-27T08:34:11Z</time>
      </trkpt>
      <trkpt lat="45.69652" lon="5.23685">
        <ele>314.2</ele>
        <time>2025-05-27T08:34:12Z</time>
      </trkpt>
      <trkpt lat="45.69652" lon="5.23687">
        <ele>314.2</ele>
        <time>2025-05-27T08:34:13Z</time>
      </trkpt>
      <trkpt lat="45.69651" lon="5.2369">
        <ele>314.2</ele>
        <time>2025-05-27T08:34:14Z</time>
      </trkpt>
      <trkpt lat="45.6965" lon="5.23693">
        <ele>314.4</ele>
        <time>2025-05-27T08:34:15Z</time>
      </trkpt>
      <trkpt lat="45.6965" lon="5.23696">
        <ele>314.8</ele>
        <time>2025-05-27T08:34:16Z</time>
      </trkpt>
      <trkpt lat="45.69649" lon="5.23699">
        <ele>314.8</ele>
        <time>2025-05-27T08:34:17Z</time>
      </trkpt>
      <trkpt lat="45.69648" lon="5.23702">
        <ele>315.2</ele>
        <time>2025-05-27T08:34:18Z</time>
      </trkpt>
      <trkpt lat="45.69648" lon="5.23704">
        <ele>315.4</ele>
        <time>2025-05-27T08:34:19Z</time>
      </trkpt>
      <trkpt lat="45.69648" lon="5.23707">
        <ele>315.4</ele>
        <time>2025-05-27T08:34:20Z</time>
      </trkpt>
      <trkpt lat="45.69648" lon="5.23709">
        <ele>315.4</ele>
        <time>2025-05-27T08:34:21Z</time>
      </trkpt>
      <trkpt lat="45.69647" lon="5.23711">
        <ele>315.8</ele>
        <time>2025-05-27T08:34:22Z</time>
      </trkpt>
      <trkpt lat="45.69647" lon="5.23714">
        <ele>315.8</ele>
        <time>2025-05-27T08:34:23Z</time>
      </trkpt>
      <trkpt lat="45.69646" lon="5.23717">
        <ele>316</ele>
        <time>2025-05-27T08:34:24Z</time>
      </trkpt>
      <trkpt lat="45.69646" lon="5.2372">
        <ele>316</ele>
        <time>2025-05-27T08:34:25Z</time>
      </trkpt>
      <trkpt lat="45.69646" lon="5.23723">
        <ele>316.4</ele>
        <time>2025-05-27T08:34:26Z</time>
      </trkpt>
      <trkpt lat="45.69647" lon="5.23726">
        <ele>316.4</ele>
        <time>2025-05-27T08:34:27Z</time>
      </trkpt>
      <trkpt lat="45.69648" lon="5.23728">
        <ele>316.6</ele>
        <time>2025-05-27T08:34:28Z</time>
      </trkpt>
      <trkpt lat="45.69648" lon="5.2373">
        <ele>317</ele>
        <time>2025-05-27T08:34:29Z</time>
      </trkpt>
      <trkpt lat="45.69648" lon="5.23733">
        <ele>317</ele>
        <time>2025-05-27T08:34:30Z</time>
      </trkpt>
      <trkpt lat="45.69648" lon="5.23736">
        <ele>317</ele>
        <time>2025-05-27T08:34:31Z</time>
      </trkpt>
      <trkpt lat="45.69648" lon="5.23738">
        <ele>317</ele>
        <time>2025-05-27T08:34:32Z</time>
      </trkpt>
      <trkpt lat="45.69647" lon="5.2374">
        <ele>317.2</ele>
        <time>2025-05-27T08:34:33Z</time>
      </trkpt>
      <trkpt lat="45.69647" lon="5.23742">
        <ele>317.6</ele>
        <time>2025-05-27T08:34:34Z</time>
      </trkpt>
      <trkpt lat="45.69646" lon="5.23745">
        <ele>317.6</ele>
        <time>2025-05-27T08:34:35Z</time>
      </trkpt>
      <trkpt lat="45.69646" lon="5.23747">
        <ele>317.6</ele>
        <time>2025-05-27T08:34:36Z</time>
      </trkpt>
      <trkpt lat="45.69646" lon="5.2375">
        <ele>317.6</ele>
        <time>2025-05-27T08:34:37Z</time>
      </trkpt>
      <trkpt lat="45.69646" lon="5.23753">
        <ele>317.6</ele>
        <time>2025-05-27T08:34:38Z</time>
      </trkpt>
      <trkpt lat="45.69646" lon="5.23756">
        <ele>317.8</ele>
        <time>2025-05-27T08:34:39Z</time>
      </trkpt>
      <trkpt lat="45.69645" lon="5.2376">
        <ele>318</ele>
        <time>2025-05-27T08:34:40Z</time>
      </trkpt>
      <trkpt lat="45.69645" lon="5.23762">
        <ele>318</ele>
        <time>2025-05-27T08:34:41Z</time>
      </trkpt>
      <trkpt lat="45.69644" lon="5.23764">
        <ele>318</ele>
        <time>2025-05-27T08:34:42Z</time>
      </trkpt>
      <trkpt lat="45.69644" lon="5.23767">
        <ele>318</ele>
        <time>2025-05-27T08:34:43Z</time>
      </trkpt>
      <trkpt lat="45.69644" lon="5.23769">
        <ele>318</ele>
        <time>2025-05-27T08:34:44Z</time>
      </trkpt>
      <trkpt lat="45.69643" lon="5.23772">
        <ele>318.4</ele>
        <time>2025-05-27T08:34:45Z</time>
      </trkpt>
      <trkpt lat="45.69644" lon="5.23775">
        <ele>318.8</ele>
        <time>2025-05-27T08:34:46Z</time>
      </trkpt>
      <trkpt lat="45.69644" lon="5.23778">
        <ele>319</ele>
        <time>2025-05-27T08:34:47Z</time>
      </trkpt>
      <trkpt lat="45.69644" lon="5.23781">
        <ele>319</ele>
        <time>2025-05-27T08:34:48Z</time>
      </trkpt>
      <trkpt lat="45.69644" lon="5.23784">
        <ele>319</ele>
        <time>2025-05-27T08:34:49Z</time>
      </trkpt>
      <trkpt lat="45.69644" lon="5.23787">
        <ele>319.6</ele>
        <time>2025-05-27T08:34:50Z</time>
      </trkpt>
      <trkpt lat="45.69645" lon="5.2379">
        <ele>319.6</ele>
        <time>2025-05-27T08:34:51Z</time>
      </trkpt>
      <trkpt lat="45.69645" lon="5.23793">
        <ele>320</ele>
        <time>2025-05-27T08:34:52Z</time>
      </trkpt>
      <trkpt lat="45.69644" lon="5.23795">
        <ele>320</ele>
        <time>2025-05-27T08:34:53Z</time>
      </trkpt>
      <trkpt lat="45.69644" lon="5.23798">
        <ele>320.2</ele>
        <time>2025-05-27T08:34:54Z</time>
      </trkpt>
      <trkpt lat="45.69644" lon="5.23801">
        <ele>320.2</ele>
        <time>2025-05-27T08:34:55Z</time>
      </trkpt>
      <trkpt lat="45.69644" lon="5.23804">
        <ele>320.2</ele>
        <time>2025-05-27T08:34:56Z</time>
      </trkpt>
      <trkpt lat="45.69645" lon="5.23807">
        <ele>320.6</ele>
        <time>2025-05-27T08:34:57Z</time>
      </trkpt>
      <trkpt lat="45.69645" lon="5.23809">
        <ele>321</ele>
        <time>2025-05-27T08:34:58Z</time>
      </trkpt>
      <trkpt lat="45.69646" lon="5.23811">
        <ele>321.2</ele>
        <time>2025-05-27T08:34:59Z</time>
      </trkpt>
      <trkpt lat="45.69646" lon="5.23813">
        <ele>321.2</ele>
        <time>2025-05-27T08:35:00Z</time>
      </trkpt>
      <trkpt lat="45.69646" lon="5.23815">
        <ele>320.8</ele>
        <time>2025-05-27T08:35:01Z</time>
      </trkpt>
      <trkpt lat="45.69646" lon="5.23817">
        <ele>321.2</ele>
        <time>2025-05-27T08:35:02Z</time>
      </trkpt>
      <trkpt lat="45.69646" lon="5.23819">
        <ele>321.2</ele>
        <time>2025-05-27T08:35:03Z</time>
      </trkpt>
      <trkpt lat="45.69646" lon="5.23821">
        <ele>321.6</ele>
        <time>2025-05-27T08:35:04Z</time>
      </trkpt>
      <trkpt lat="45.69647" lon="5.23823">
        <ele>321.8</ele>
        <time>2025-05-27T08:35:05Z</time>
      </trkpt>
      <trkpt lat="45.69648" lon="5.23824">
        <ele>322</ele>
        <time>2025-05-27T08:35:06Z</time>
      </trkpt>
      <trkpt lat="45.69648" lon="5.23826">
        <ele>322</ele>
        <time>2025-05-27T08:35:07Z</time>
      </trkpt>
      <trkpt lat="45.69647" lon="5.23829">
        <ele>322</ele>
        <time>2025-05-27T08:35:08Z</time>
      </trkpt>
      <trkpt lat="45.69647" lon="5.23832">
        <ele>322.4</ele>
        <time>2025-05-27T08:35:09Z</time>
      </trkpt>
      <trkpt lat="45.69647" lon="5.23834">
        <ele>322.8</ele>
        <time>2025-05-27T08:35:10Z</time>
      </trkpt>
      <trkpt lat="45.69647" lon="5.23836">
        <ele>322.8</ele>
        <time>2025-05-27T08:35:11Z</time>
      </trkpt>
      <trkpt lat="45.69648" lon="5.23839">
        <ele>322.8</ele>
        <time>2025-05-27T08:35:12Z</time>
      </trkpt>
      <trkpt lat="45.69649" lon="5.23841">
        <ele>322.8</ele>
        <time>2025-05-27T08:35:13Z</time>
      </trkpt>
      <trkpt lat="45.6965" lon="5.23843">
        <ele>323</ele>
        <time>2025-05-27T08:35:14Z</time>
      </trkpt>
      <trkpt lat="45.69651" lon="5.23846">
        <ele>323.4</ele>
        <time>2025-05-27T08:35:15Z</time>
      </trkpt>
      <trkpt lat="45.69651" lon="5.23848">
        <ele>323.4</ele>
        <time>2025-05-27T08:35:16Z</time>
      </trkpt>
      <trkpt lat="45.69652" lon="5.2385">
        <ele>323.8</ele>
        <time>2025-05-27T08:35:17Z</time>
      </trkpt>
      <trkpt lat="45.69652" lon="5.23852">
        <ele>324</ele>
        <time>2025-05-27T08:35:18Z</time>
      </trkpt>
      <trkpt lat="45.69652" lon="5.23855">
        <ele>324.2</ele>
        <time>2025-05-27T08:35:19Z</time>
      </trkpt>
      <trkpt lat="45.69652" lon="5.23857">
        <ele>324.2</ele>
        <time>2025-05-27T08:35:20Z</time>
      </trkpt>
      <trkpt lat="45.69652" lon="5.2386">
        <ele>324.2</ele>
        <time>2025-05-27T08:35:21Z</time>
      </trkpt>
      <trkpt lat="45.69653" lon="5.23862">
        <ele>324.6</ele>
        <time>2025-05-27T08:35:22Z</time>
      </trkpt>
      <trkpt lat="45.69653" lon="5.23864">
        <ele>324.4</ele>
        <time>2025-05-27T08:35:23Z</time>
      </trkpt>
      <trkpt lat="45.69653" lon="5.23866">
        <ele>324.4</ele>
        <time>2025-05-27T08:35:24Z</time>
      </trkpt>
      <trkpt lat="45.69653" lon="5.23868">
        <ele>325</ele>
        <time>2025-05-27T08:35:25Z</time>
      </trkpt>
      <trkpt lat="45.69653" lon="5.2387">
        <ele>325</ele>
        <time>2025-05-27T08:35:26Z</time>
      </trkpt>
      <trkpt lat="45.69653" lon="5.23872">
        <ele>325.4</ele>
        <time>2025-05-27T08:35:27Z</time>
      </trkpt>
      <trkpt lat="45.69653" lon="5.23875">
        <ele>325.4</ele>
        <time>2025-05-27T08:35:28Z</time>
      </trkpt>
      <trkpt lat="45.69653" lon="5.23877">
        <ele>325.4</ele>
        <time>2025-05-27T08:35:29Z</time>
      </trkpt>
      <trkpt lat="45.69652" lon="5.23879">
        <ele>325.4</ele>
        <time>2025-05-27T08:35:30Z</time>
      </trkpt>
      <trkpt lat="45.69652" lon="5.23881">
        <ele>325.8</ele>
        <time>2025-05-27T08:35:31Z</time>
      </trkpt>
      <trkpt lat="45.69652" lon="5.23883">
        <ele>325.8</ele>
        <time>2025-05-27T08:35:32Z</time>
      </trkpt>
      <trkpt lat="45.69653" lon="5.23885">
        <ele>326</ele>
        <time>2025-05-27T08:35:33Z</time>
      </trkpt>
      <trkpt lat="45.69653" lon="5.23886">
        <ele>326.2</ele>
        <time>2025-05-27T08:35:34Z</time>
      </trkpt>
      <trkpt lat="45.69654" lon="5.23888">
        <ele>326.2</ele>
        <time>2025-05-27T08:35:35Z</time>
      </trkpt>
      <trkpt lat="45.69654" lon="5.2389">
        <ele>326.2</ele>
        <time>2025-05-27T08:35:36Z</time>
      </trkpt>
      <trkpt lat="45.69655" lon="5.23892">
        <ele>326.2</ele>
        <time>2025-05-27T08:35:37Z</time>
      </trkpt>
      <trkpt lat="45.69655" lon="5.23894">
        <ele>326.2</ele>
        <time>2025-05-27T08:35:38Z</time>
      </trkpt>
      <trkpt lat="45.69656" lon="5.23897">
        <ele>326.6</ele>
        <time>2025-05-27T08:35:39Z</time>
      </trkpt>
      <trkpt lat="45.69656" lon="5.23899">
        <ele>326.6</ele>
        <time>2025-05-27T08:35:40Z</time>
      </trkpt>
      <trkpt lat="45.69656" lon="5.23901">
        <ele>326.8</ele>
        <time>2025-05-27T08:35:41Z</time>
      </trkpt>
      <trkpt lat="45.69656" lon="5.23904">
        <ele>326.8</ele>
        <time>2025-05-27T08:35:42Z</time>
      </trkpt>
      <trkpt lat="45.69656" lon="5.23906">
        <ele>326.8</ele>
        <time>2025-05-27T08:35:43Z</time>
      </trkpt>
      <trkpt lat="45.69656" lon="5.23908">
        <ele>326.8</ele>
        <time>2025-05-27T08:35:44Z</time>
      </trkpt>
      <trkpt lat="45.69656" lon="5.2391">
        <ele>326.8</ele>
        <time>2025-05-27T08:35:45Z</time>
      </trkpt>
      <trkpt lat="45.69656" lon="5.23912">
        <ele>326.8</ele>
        <time>2025-05-27T08:35:46Z</time>
      </trkpt>
      <trkpt lat="45.69656" lon="5.23914">
        <ele>326.8</ele>
        <time>2025-05-27T08:35:47Z</time>
      </trkpt>
      <trkpt lat="45.69656" lon="5.23917">
        <ele>327.2</ele>
        <time>2025-05-27T08:35:48Z</time>
      </trkpt>
      <trkpt lat="45.69657" lon="5.23919">
        <ele>327.4</ele>
        <time>2025-05-27T08:35:49Z</time>
      </trkpt>
      <trkpt lat="45.69657" lon="5.23921">
        <ele>327.6</ele>
        <time>2025-05-27T08:35:50Z</time>
      </trkpt>
      <trkpt lat="45.69657" lon="5.23923">
        <ele>327.8</ele>
        <time>2025-05-27T08:35:51Z</time>
      </trkpt>
      <trkpt lat="45.69657" lon="5.23924">
        <ele>328.4</ele>
        <time>2025-05-27T08:35:52Z</time>
      </trkpt>
      <trkpt lat="45.69657" lon="5.23927">
        <ele>328.8</ele>
        <time>2025-05-27T08:35:53Z</time>
      </trkpt>
      <trkpt lat="45.69657" lon="5.23929">
        <ele>329</ele>
        <time>2025-05-27T08:35:54Z</time>
      </trkpt>
      <trkpt lat="45.69656" lon="5.2393">
        <ele>329</ele>
        <time>2025-05-27T08:35:55Z</time>
      </trkpt>
      <trkpt lat="45.69656" lon="5.23932">
        <ele>329.4</ele>
        <time>2025-05-27T08:35:56Z</time>
      </trkpt>
      <trkpt lat="45.69656" lon="5.23934">
        <ele>329.6</ele>
        <time>2025-05-27T08:35:57Z</time>
      </trkpt>
      <trkpt lat="45.69655" lon="5.23936">
        <ele>329.6</ele>
        <time>2025-05-27T08:35:58Z</time>
      </trkpt>
      <trkpt lat="45.69655" lon="5.23938">
        <ele>329.6</ele>
        <time>2025-05-27T08:35:59Z</time>
      </trkpt>
      <trkpt lat="45.69655" lon="5.2394">
        <ele>329.6</ele>
        <time>2025-05-27T08:36:00Z</time>
      </trkpt>
      <trkpt lat="45.69655" lon="5.23941">
        <ele>329.8</ele>
        <time>2025-05-27T08:36:01Z</time>
      </trkpt>
      <trkpt lat="45.69655" lon="5.23943">
        <ele>329.8</ele>
        <time>2025-05-27T08:36:02Z</time>
      </trkpt>
      <trkpt lat="45.69655" lon="5.23945">
        <ele>329.8</ele>
        <time>2025-05-27T08:36:03Z</time>
      </trkpt>
      <trkpt lat="45.69654" lon="5.23947">
        <ele>330.4</ele>
        <time>2025-05-27T08:36:04Z</time>
      </trkpt>
      <trkpt lat="45.69654" lon="5.23949">
        <ele>330.4</ele>
        <time>2025-05-27T08:36:05Z</time>
      </trkpt>
      <trkpt lat="45.69654" lon="5.23951">
        <ele>330.4</ele>
        <time>2025-05-27T08:36:06Z</time>
      </trkpt>
      <trkpt lat="45.69654" lon="5.23953">
        <ele>330.6</ele>
        <time>2025-05-27T08:36:07Z</time>
      </trkpt>
      <trkpt lat="45.69653" lon="5.23955">
        <ele>330.8</ele>
        <time>2025-05-27T08:36:08Z</time>
      </trkpt>
      <trkpt lat="45.69653" lon="5.23956">
        <ele>331.2</ele>
        <time>2025-05-27T08:36:09Z</time>
      </trkpt>
      <trkpt lat="45.69653" lon="5.23958">
        <ele>331.2</ele>
        <time>2025-05-27T08:36:10Z</time>
      </trkpt>
      <trkpt lat="45.69652" lon="5.23959">
        <ele>331.4</ele>
        <time>2025-05-27T08:36:11Z</time>
      </trkpt>
      <trkpt lat="45.69652" lon="5.23961">
        <ele>331.6</ele>
        <time>2025-05-27T08:36:12Z</time>
      </trkpt>
      <trkpt lat="45.69651" lon="5.23962">
        <ele>332</ele>
        <time>2025-05-27T08:36:13Z</time>
      </trkpt>
      <trkpt lat="45.6965" lon="5.23963">
        <ele>332.4</ele>
        <time>2025-05-27T08:36:14Z</time>
      </trkpt>
      <trkpt lat="45.69649" lon="5.23964">
        <ele>332.4</ele>
        <time>2025-05-27T08:36:15Z</time>
      </trkpt>
      <trkpt lat="45.69648" lon="5.23965">
        <ele>332.6</ele>
        <time>2025-05-27T08:36:16Z</time>
      </trkpt>
      <trkpt lat="45.69647" lon="5.23967">
        <ele>333</ele>
        <time>2025-05-27T08:36:17Z</time>
      </trkpt>
      <trkpt lat="45.69647" lon="5.23968">
        <ele>333</ele>
        <time>2025-05-27T08:36:18Z</time>
      </trkpt>
      <trkpt lat="45.69646" lon="5.2397">
        <ele>333.4</ele>
        <time>2025-05-27T08:36:19Z</time>
      </trkpt>
      <trkpt lat="45.69646" lon="5.23971">
        <ele>333.4</ele>
        <time>2025-05-27T08:36:20Z</time>
      </trkpt>
      <trkpt lat="45.69645" lon="5.23972">
        <ele>333.4</ele>
        <time>2025-05-27T08:36:21Z</time>
      </trkpt>
      <trkpt lat="45.69645" lon="5.23973">
        <ele>333.4</ele>
        <time>2025-05-27T08:36:22Z</time>
      </trkpt>
      <trkpt lat="45.69644" lon="5.23975">
        <ele>333.4</ele>
        <time>2025-05-27T08:36:23Z</time>
      </trkpt>
      <trkpt lat="45.69643" lon="5.23977">
        <ele>333.6</ele>
        <time>2025-05-27T08:36:24Z</time>
      </trkpt>
      <trkpt lat="45.69643" lon="5.23979">
        <ele>333.6</ele>
        <time>2025-05-27T08:36:25Z</time>
      </trkpt>
      <trkpt lat="45.69643" lon="5.23981">
        <ele>334.2</ele>
        <time>2025-05-27T08:36:26Z</time>
      </trkpt>
      <trkpt lat="45.69642" lon="5.23983">
        <ele>334.2</ele>
        <time>2025-05-27T08:36:27Z</time>
      </trkpt>
      <trkpt lat="45.69642" lon="5.23985">
        <ele>334.2</ele>
        <time>2025-05-27T08:36:28Z</time>
      </trkpt>
      <trkpt lat="45.69641" lon="5.23987">
        <ele>334.4</ele>
        <time>2025-05-27T08:36:29Z</time>
      </trkpt>
      <trkpt lat="45.6964" lon="5.23989">
        <ele>334.4</ele>
        <time>2025-05-27T08:36:30Z</time>
      </trkpt>
      <trkpt lat="45.6964" lon="5.23991">
        <ele>334.4</ele>
        <time>2025-05-27T08:36:31Z</time>
      </trkpt>
      <trkpt lat="45.69639" lon="5.23993">
        <ele>334.4</ele>
        <time>2025-05-27T08:36:32Z</time>
      </trkpt>
      <trkpt lat="45.69638" lon="5.23995">
        <ele>334.8</ele>
        <time>2025-05-27T08:36:33Z</time>
      </trkpt>
      <trkpt lat="45.69637" lon="5.23997">
        <ele>335</ele>
        <time>2025-05-27T08:36:34Z</time>
      </trkpt>
      <trkpt lat="45.69636" lon="5.23999">
        <ele>335</ele>
        <time>2025-05-27T08:36:35Z</time>
      </trkpt>
      <trkpt lat="45.69635" lon="5.24">
        <ele>335.4</ele>
        <time>2025-05-27T08:36:36Z</time>
      </trkpt>
      <trkpt lat="45.69634" lon="5.24002">
        <ele>335.4</ele>
        <time>2025-05-27T08:36:37Z</time>
      </trkpt>
      <trkpt lat="45.69633" lon="5.24004">
        <ele>335.8</ele>
        <time>2025-05-27T08:36:38Z</time>
      </trkpt>
      <trkpt lat="45.69633" lon="5.24006">
        <ele>336</ele>
        <time>2025-05-27T08:36:39Z</time>
      </trkpt>
      <trkpt lat="45.69632" lon="5.24008">
        <ele>336</ele>
        <time>2025-05-27T08:36:40Z</time>
      </trkpt>
      <trkpt lat="45.69632" lon="5.2401">
        <ele>336.4</ele>
        <time>2025-05-27T08:36:41Z</time>
      </trkpt>
      <trkpt lat="45.69631" lon="5.24013">
        <ele>336.4</ele>
        <time>2025-05-27T08:36:42Z</time>
      </trkpt>
      <trkpt lat="45.6963" lon="5.24015">
        <ele>336.8</ele>
        <time>2025-05-27T08:36:43Z</time>
      </trkpt>
      <trkpt lat="45.69629" lon="5.24017">
        <ele>336.8</ele>
        <time>2025-05-27T08:36:44Z</time>
      </trkpt>
      <trkpt lat="45.69629" lon="5.24019">
        <ele>337.2</ele>
        <time>2025-05-27T08:36:45Z</time>
      </trkpt>
      <trkpt lat="45.69629" lon="5.24021">
        <ele>337.2</ele>
        <time>2025-05-27T08:36:46Z</time>
      </trkpt>
      <trkpt lat="45.69629" lon="5.24023">
        <ele>337.2</ele>
        <time>2025-05-27T08:36:47Z</time>
      </trkpt>
      <trkpt lat="45.69629" lon="5.24025">
        <ele>337.2</ele>
        <time>2025-05-27T08:36:48Z</time>
      </trkpt>
      <trkpt lat="45.69629" lon="5.24028">
        <ele>337.2</ele>
        <time>2025-05-27T08:36:49Z</time>
      </trkpt>
      <trkpt lat="45.69629" lon="5.2403">
        <ele>337.6</ele>
        <time>2025-05-27T08:36:50Z</time>
      </trkpt>
      <trkpt lat="45.69628" lon="5.24032">
        <ele>337.8</ele>
        <time>2025-05-27T08:36:51Z</time>
      </trkpt>
      <trkpt lat="45.69628" lon="5.24034">
        <ele>337.8</ele>
        <time>2025-05-27T08:36:52Z</time>
      </trkpt>
      <trkpt lat="45.69628" lon="5.24036">
        <ele>338</ele>
        <time>2025-05-27T08:36:53Z</time>
      </trkpt>
      <trkpt lat="45.69628" lon="5.24038">
        <ele>338</ele>
        <time>2025-05-27T08:36:54Z</time>
      </trkpt>
      <trkpt lat="45.69628" lon="5.2404">
        <ele>338</ele>
        <time>2025-05-27T08:36:55Z</time>
      </trkpt>
      <trkpt lat="45.69628" lon="5.24043">
        <ele>338</ele>
        <time>2025-05-27T08:36:56Z</time>
      </trkpt>
      <trkpt lat="45.69628" lon="5.24045">
        <ele>338</ele>
        <time>2025-05-27T08:36:57Z</time>
      </trkpt>
      <trkpt lat="45.69629" lon="5.24047">
        <ele>338</ele>
        <time>2025-05-27T08:36:58Z</time>
      </trkpt>
      <trkpt lat="45.6963" lon="5.2405">
        <ele>338</ele>
        <time>2025-05-27T08:36:59Z</time>
      </trkpt>
      <trkpt lat="45.6963" lon="5.24051">
        <ele>338</ele>
        <time>2025-05-27T08:37:00Z</time>
      </trkpt>
      <trkpt lat="45.69631" lon="5.24052">
        <ele>338</ele>
        <time>2025-05-27T08:37:01Z</time>
      </trkpt>
      <trkpt lat="45.69632" lon="5.24054">
        <ele>338.2</ele>
        <time>2025-05-27T08:37:02Z</time>
      </trkpt>
      <trkpt lat="45.69634" lon="5.24055">
        <ele>338.2</ele>
        <time>2025-05-27T08:37:03Z</time>
      </trkpt>
      <trkpt lat="45.69635" lon="5.24056">
        <ele>338.2</ele>
        <time>2025-05-27T08:37:04Z</time>
      </trkpt>
      <trkpt lat="45.69637" lon="5.24057">
        <ele>338.4</ele>
        <time>2025-05-27T08:37:05Z</time>
      </trkpt>
      <trkpt lat="45.69638" lon="5.24058">
        <ele>338.6</ele>
        <time>2025-05-27T08:37:06Z</time>
      </trkpt>
      <trkpt lat="45.6964" lon="5.2406">
        <ele>338.6</ele>
        <time>2025-05-27T08:37:07Z</time>
      </trkpt>
      <trkpt lat="45.69641" lon="5.24061">
        <ele>338.4</ele>
        <time>2025-05-27T08:37:08Z</time>
      </trkpt>
      <trkpt lat="45.69643" lon="5.24061">
        <ele>338.6</ele>
        <time>2025-05-27T08:37:09Z</time>
      </trkpt>
      <trkpt lat="45.69644" lon="5.24062">
        <ele>338.6</ele>
        <time>2025-05-27T08:37:10Z</time>
      </trkpt>
      <trkpt lat="45.69646" lon="5.24062">
        <ele>338.6</ele>
        <time>2025-05-27T08:37:11Z</time>
      </trkpt>
      <trkpt lat="45.69648" lon="5.24063">
        <ele>338.6</ele>
        <time>2025-05-27T08:37:12Z</time>
      </trkpt>
      <trkpt lat="45.6965" lon="5.24064">
        <ele>338.6</ele>
        <time>2025-05-27T08:37:13Z</time>
      </trkpt>
      <trkpt lat="45.69652" lon="5.24065">
        <ele>339.2</ele>
        <time>2025-05-27T08:37:14Z</time>
      </trkpt>
      <trkpt lat="45.69654" lon="5.24066">
        <ele>339.6</ele>
        <time>2025-05-27T08:37:15Z</time>
      </trkpt>
      <trkpt lat="45.69656" lon="5.24068">
        <ele>340</ele>
        <time>2025-05-27T08:37:16Z</time>
      </trkpt>
      <trkpt lat="45.69659" lon="5.24069">
        <ele>340</ele>
        <time>2025-05-27T08:37:17Z</time>
      </trkpt>
      <trkpt lat="45.69661" lon="5.24071">
        <ele>340</ele>
        <time>2025-05-27T08:37:18Z</time>
      </trkpt>
      <trkpt lat="45.69663" lon="5.24071">
        <ele>340.2</ele>
        <time>2025-05-27T08:37:19Z</time>
      </trkpt>
      <trkpt lat="45.69665" lon="5.24072">
        <ele>340.2</ele>
        <time>2025-05-27T08:37:20Z</time>
      </trkpt>
      <trkpt lat="45.69666" lon="5.24073">
        <ele>340.6</ele>
        <time>2025-05-27T08:37:21Z</time>
      </trkpt>
      <trkpt lat="45.69668" lon="5.24074">
        <ele>341</ele>
        <time>2025-05-27T08:37:22Z</time>
      </trkpt>
      <trkpt lat="45.6967" lon="5.24075">
        <ele>341</ele>
        <time>2025-05-27T08:37:23Z</time>
      </trkpt>
      <trkpt lat="45.69671" lon="5.24077">
        <ele>341.4</ele>
        <time>2025-05-27T08:37:24Z</time>
      </trkpt>
      <trkpt lat="45.69672" lon="5.24081">
        <ele>341.4</ele>
        <time>2025-05-27T08:37:25Z</time>
      </trkpt>
      <trkpt lat="45.69673" lon="5.24082">
        <ele>341.8</ele>
        <time>2025-05-27T08:37:26Z</time>
      </trkpt>
      <trkpt lat="45.69674" lon="5.24083">
        <ele>342</ele>
        <time>2025-05-27T08:37:27Z</time>
      </trkpt>
      <trkpt lat="45.69676" lon="5.24085">
        <ele>342</ele>
        <time>2025-05-27T08:37:28Z</time>
      </trkpt>
      <trkpt lat="45.69677" lon="5.24087">
        <ele>342.4</ele>
        <time>2025-05-27T08:37:29Z</time>
      </trkpt>
      <trkpt lat="45.69677" lon="5.24088">
        <ele>342.4</ele>
        <time>2025-05-27T08:37:30Z</time>
      </trkpt>
      <trkpt lat="45.69678" lon="5.24091">
        <ele>342.4</ele>
        <time>2025-05-27T08:37:31Z</time>
      </trkpt>
      <trkpt lat="45.69679" lon="5.24093">
        <ele>342.6</ele>
        <time>2025-05-27T08:37:32Z</time>
      </trkpt>
      <trkpt lat="45.69679" lon="5.24095">
        <ele>342.6</ele>
        <time>2025-05-27T08:37:33Z</time>
      </trkpt>
      <trkpt lat="45.69679" lon="5.24098">
        <ele>342.8</ele>
        <time>2025-05-27T08:37:34Z</time>
      </trkpt>
      <trkpt lat="45.69678" lon="5.241">
        <ele>342.8</ele>
        <time>2025-05-27T08:37:35Z</time>
      </trkpt>
      <trkpt lat="45.69677" lon="5.24103">
        <ele>343.2</ele>
        <time>2025-05-27T08:37:36Z</time>
      </trkpt>
      <trkpt lat="45.69676" lon="5.24105">
        <ele>342.8</ele>
        <time>2025-05-27T08:37:37Z</time>
      </trkpt>
      <trkpt lat="45.69675" lon="5.24108">
        <ele>342.8</ele>
        <time>2025-05-27T08:37:38Z</time>
      </trkpt>
      <trkpt lat="45.69674" lon="5.24111">
        <ele>342.8</ele>
        <time>2025-05-27T08:37:39Z</time>
      </trkpt>
      <trkpt lat="45.69673" lon="5.24114">
        <ele>342.8</ele>
        <time>2025-05-27T08:37:40Z</time>
      </trkpt>
      <trkpt lat="45.69673" lon="5.24114">
        <ele>342.8</ele>
        <time>2025-05-27T08:37:41Z</time>
      </trkpt>
      <trkpt lat="45.69672" lon="5.24118">
        <ele>342.8</ele>
        <time>2025-05-27T08:37:42Z</time>
      </trkpt>
      <trkpt lat="45.69672" lon="5.24121">
        <ele>343</ele>
        <time>2025-05-27T08:37:43Z</time>
      </trkpt>
      <trkpt lat="45.69671" lon="5.24123">
        <ele>343</ele>
        <time>2025-05-27T08:37:44Z</time>
      </trkpt>
      <trkpt lat="45.69671" lon="5.24125">
        <ele>343.4</ele>
        <time>2025-05-27T08:37:45Z</time>
      </trkpt>
      <trkpt lat="45.69671" lon="5.24128">
        <ele>343.4</ele>
        <time>2025-05-27T08:37:46Z</time>
      </trkpt>
      <trkpt lat="45.69671" lon="5.24132">
        <ele>343.4</ele>
        <time>2025-05-27T08:37:47Z</time>
      </trkpt>
      <trkpt lat="45.6967" lon="5.24135">
        <ele>343.4</ele>
        <time>2025-05-27T08:37:48Z</time>
      </trkpt>
      <trkpt lat="45.69669" lon="5.24138">
        <ele>343.4</ele>
        <time>2025-05-27T08:37:49Z</time>
      </trkpt>
      <trkpt lat="45.69668" lon="5.24142">
        <ele>343.4</ele>
        <time>2025-05-27T08:37:50Z</time>
      </trkpt>
      <trkpt lat="45.69667" lon="5.24145">
        <ele>343.4</ele>
        <time>2025-05-27T08:37:51Z</time>
      </trkpt>
      <trkpt lat="45.69666" lon="5.24148">
        <ele>343</ele>
        <time>2025-05-27T08:37:52Z</time>
      </trkpt>
      <trkpt lat="45.69665" lon="5.24151">
        <ele>342.6</ele>
        <time>2025-05-27T08:37:53Z</time>
      </trkpt>
      <trkpt lat="45.69664" lon="5.24154">
        <ele>343</ele>
        <time>2025-05-27T08:37:54Z</time>
      </trkpt>
      <trkpt lat="45.69663" lon="5.24156">
        <ele>343.4</ele>
        <time>2025-05-27T08:37:55Z</time>
      </trkpt>
      <trkpt lat="45.69662" lon="5.24159">
        <ele>344</ele>
        <time>2025-05-27T08:37:56Z</time>
      </trkpt>
      <trkpt lat="45.69661" lon="5.24161">
        <ele>344</ele>
        <time>2025-05-27T08:37:57Z</time>
      </trkpt>
      <trkpt lat="45.6966" lon="5.24163">
        <ele>344</ele>
        <time>2025-05-27T08:37:58Z</time>
      </trkpt>
      <trkpt lat="45.69659" lon="5.24166">
        <ele>343.6</ele>
        <time>2025-05-27T08:37:59Z</time>
      </trkpt>
      <trkpt lat="45.69657" lon="5.24169">
        <ele>343</ele>
        <time>2025-05-27T08:38:00Z</time>
      </trkpt>
      <trkpt lat="45.69655" lon="5.24172">
        <ele>343.4</ele>
        <time>2025-05-27T08:38:01Z</time>
      </trkpt>
      <trkpt lat="45.69653" lon="5.24175">
        <ele>343.4</ele>
        <time>2025-05-27T08:38:02Z</time>
      </trkpt>
      <trkpt lat="45.69651" lon="5.24179">
        <ele>343.8</ele>
        <time>2025-05-27T08:38:03Z</time>
      </trkpt>
      <trkpt lat="45.6965" lon="5.24184">
        <ele>343.8</ele>
        <time>2025-05-27T08:38:04Z</time>
      </trkpt>
      <trkpt lat="45.69648" lon="5.24188">
        <ele>343.8</ele>
        <time>2025-05-27T08:38:05Z</time>
      </trkpt>
      <trkpt lat="45.69646" lon="5.24191">
        <ele>342.6</ele>
        <time>2025-05-27T08:38:06Z</time>
      </trkpt>
      <trkpt lat="45.69644" lon="5.24195">
        <ele>343.2</ele>
        <time>2025-05-27T08:38:07Z</time>
      </trkpt>
      <trkpt lat="45.69642" lon="5.24199">
        <ele>343.2</ele>
        <time>2025-05-27T08:38:08Z</time>
      </trkpt>
      <trkpt lat="45.69641" lon="5.24203">
        <ele>344</ele>
        <time>2025-05-27T08:38:09Z</time>
      </trkpt>
      <trkpt lat="45.69639" lon="5.24207">
        <ele>344.4</ele>
        <time>2025-05-27T08:38:10Z</time>
      </trkpt>
      <trkpt lat="45.69638" lon="5.24211">
        <ele>345</ele>
        <time>2025-05-27T08:38:11Z</time>
      </trkpt>
      <trkpt lat="45.69636" lon="5.24214">
        <ele>345</ele>
        <time>2025-05-27T08:38:12Z</time>
      </trkpt>
      <trkpt lat="45.69635" lon="5.24217">
        <ele>345</ele>
        <time>2025-05-27T08:38:13Z</time>
      </trkpt>
      <trkpt lat="45.69633" lon="5.24221">
        <ele>345.6</ele>
        <time>2025-05-27T08:38:14Z</time>
      </trkpt>
      <trkpt lat="45.69632" lon="5.24224">
        <ele>345.6</ele>
        <time>2025-05-27T08:38:15Z</time>
      </trkpt>
      <trkpt lat="45.69631" lon="5.24228">
        <ele>345.6</ele>
        <time>2025-05-27T08:38:16Z</time>
      </trkpt>
      <trkpt lat="45.6963" lon="5.24231">
        <ele>345.6</ele>
        <time>2025-05-27T08:38:17Z</time>
      </trkpt>
      <trkpt lat="45.69629" lon="5.24235">
        <ele>346</ele>
        <time>2025-05-27T08:38:18Z</time>
      </trkpt>
      <trkpt lat="45.69629" lon="5.24238">
        <ele>346.4</ele>
        <time>2025-05-27T08:38:19Z</time>
      </trkpt>
      <trkpt lat="45.69628" lon="5.24241">
        <ele>346.4</ele>
        <time>2025-05-27T08:38:20Z</time>
      </trkpt>
      <trkpt lat="45.69628" lon="5.24244">
        <ele>346.4</ele>
        <time>2025-05-27T08:38:21Z</time>
      </trkpt>
      <trkpt lat="45.69628" lon="5.24247">
        <ele>346.8</ele>
        <time>2025-05-27T08:38:22Z</time>
      </trkpt>
      <trkpt lat="45.69628" lon="5.24251">
        <ele>346.8</ele>
        <time>2025-05-27T08:38:23Z</time>
      </trkpt>
      <trkpt lat="45.69628" lon="5.24253">
        <ele>346.8</ele>
        <time>2025-05-27T08:38:24Z</time>
      </trkpt>
      <trkpt lat="45.69628" lon="5.24257">
        <ele>346.8</ele>
        <time>2025-05-27T08:38:25Z</time>
      </trkpt>
      <trkpt lat="45.69628" lon="5.2426">
        <ele>347.2</ele>
        <time>2025-05-27T08:38:26Z</time>
      </trkpt>
      <trkpt lat="45.69628" lon="5.24263">
        <ele>347.8</ele>
        <time>2025-05-27T08:38:27Z</time>
      </trkpt>
      <trkpt lat="45.69629" lon="5.24266">
        <ele>347.8</ele>
        <time>2025-05-27T08:38:28Z</time>
      </trkpt>
      <trkpt lat="45.69629" lon="5.24269">
        <ele>348.2</ele>
        <time>2025-05-27T08:38:29Z</time>
      </trkpt>
      <trkpt lat="45.6963" lon="5.24271">
        <ele>348.6</ele>
        <time>2025-05-27T08:38:30Z</time>
      </trkpt>
      <trkpt lat="45.6963" lon="5.24271">
        <ele>348.6</ele>
        <time>2025-05-27T08:38:31Z</time>
      </trkpt>
      <trkpt lat="45.6963" lon="5.24271">
        <ele>348.6</ele>
        <time>2025-05-27T08:38:32Z</time>
      </trkpt>
      <trkpt lat="45.69632" lon="5.24283">
        <ele>349.4</ele>
        <time>2025-05-27T08:38:34Z</time>
      </trkpt>
      <trkpt lat="45.69632" lon="5.24286">
        <ele>349.8</ele>
        <time>2025-05-27T08:38:35Z</time>
      </trkpt>
      <trkpt lat="45.69632" lon="5.2429">
        <ele>349.4</ele>
        <time>2025-05-27T08:38:36Z</time>
      </trkpt>
      <trkpt lat="45.69632" lon="5.24293">
        <ele>349</ele>
        <time>2025-05-27T08:38:37Z</time>
      </trkpt>
      <trkpt lat="45.69633" lon="5.24296">
        <ele>349</ele>
        <time>2025-05-27T08:38:38Z</time>
      </trkpt>
      <trkpt lat="45.69633" lon="5.24299">
        <ele>349.4</ele>
        <time>2025-05-27T08:38:39Z</time>
      </trkpt>
      <trkpt lat="45.69633" lon="5.24302">
        <ele>349.6</ele>
        <time>2025-05-27T08:38:40Z</time>
      </trkpt>
      <trkpt lat="45.69633" lon="5.24305">
        <ele>350</ele>
        <time>2025-05-27T08:38:41Z</time>
      </trkpt>
      <trkpt lat="45.69633" lon="5.24307">
        <ele>350</ele>
        <time>2025-05-27T08:38:42Z</time>
      </trkpt>
      <trkpt lat="45.69633" lon="5.2431">
        <ele>350.2</ele>
        <time>2025-05-27T08:38:43Z</time>
      </trkpt>
      <trkpt lat="45.69633" lon="5.24313">
        <ele>350.2</ele>
        <time>2025-05-27T08:38:44Z</time>
      </trkpt>
      <trkpt lat="45.69632" lon="5.24316">
        <ele>350.6</ele>
        <time>2025-05-27T08:38:45Z</time>
      </trkpt>
      <trkpt lat="45.69631" lon="5.24319">
        <ele>350.6</ele>
        <time>2025-05-27T08:38:46Z</time>
      </trkpt>
      <trkpt lat="45.6963" lon="5.24322">
        <ele>350.6</ele>
        <time>2025-05-27T08:38:47Z</time>
      </trkpt>
      <trkpt lat="45.6963" lon="5.24325">
        <ele>350.8</ele>
        <time>2025-05-27T08:38:48Z</time>
      </trkpt>
      <trkpt lat="45.69629" lon="5.24329">
        <ele>350.6</ele>
        <time>2025-05-27T08:38:49Z</time>
      </trkpt>
      <trkpt lat="45.69628" lon="5.24332">
        <ele>350.6</ele>
        <time>2025-05-27T08:38:50Z</time>
      </trkpt>
      <trkpt lat="45.69627" lon="5.24335">
        <ele>350.6</ele>
        <time>2025-05-27T08:38:51Z</time>
      </trkpt>
      <trkpt lat="45.69624" lon="5.24337">
        <ele>350.6</ele>
        <time>2025-05-27T08:38:52Z</time>
      </trkpt>
      <trkpt lat="45.69622" lon="5.2434">
        <ele>351</ele>
        <time>2025-05-27T08:38:53Z</time>
      </trkpt>
      <trkpt lat="45.69619" lon="5.24342">
        <ele>351.2</ele>
        <time>2025-05-27T08:38:54Z</time>
      </trkpt>
      <trkpt lat="45.69617" lon="5.24345">
        <ele>351.2</ele>
        <time>2025-05-27T08:38:55Z</time>
      </trkpt>
      <trkpt lat="45.69614" lon="5.24347">
        <ele>351.2</ele>
        <time>2025-05-27T08:38:56Z</time>
      </trkpt>
      <trkpt lat="45.69611" lon="5.24348">
        <ele>351.2</ele>
        <time>2025-05-27T08:38:57Z</time>
      </trkpt>
      <trkpt lat="45.69609" lon="5.24349">
        <ele>350.8</ele>
        <time>2025-05-27T08:38:58Z</time>
      </trkpt>
      <trkpt lat="45.69607" lon="5.2435">
        <ele>350.8</ele>
        <time>2025-05-27T08:38:59Z</time>
      </trkpt>
      <trkpt lat="45.69607" lon="5.2435">
        <ele>351.4</ele>
        <time>2025-05-27T08:39:00Z</time>
      </trkpt>
      <trkpt lat="45.69607" lon="5.2435">
        <ele>351</ele>
        <time>2025-05-27T08:39:01Z</time>
      </trkpt>
      <trkpt lat="45.69599" lon="5.24354">
        <ele>350.2</ele>
        <time>2025-05-27T08:39:02Z</time>
      </trkpt>
      <trkpt lat="45.69596" lon="5.24355">
        <ele>349.8</ele>
        <time>2025-05-27T08:39:03Z</time>
      </trkpt>
      <trkpt lat="45.69593" lon="5.24356">
        <ele>350</ele>
        <time>2025-05-27T08:39:04Z</time>
      </trkpt>
      <trkpt lat="45.6959" lon="5.24357">
        <ele>350</ele>
        <time>2025-05-27T08:39:05Z</time>
      </trkpt>
      <trkpt lat="45.69587" lon="5.24359">
        <ele>349.4</ele>
        <time>2025-05-27T08:39:06Z</time>
      </trkpt>
      <trkpt lat="45.69583" lon="5.24363">
        <ele>349</ele>
        <time>2025-05-27T08:39:07Z</time>
      </trkpt>
      <trkpt lat="45.69579" lon="5.24366">
        <ele>348</ele>
        <time>2025-05-27T08:39:08Z</time>
      </trkpt>
      <trkpt lat="45.69576" lon="5.24369">
        <ele>346.8</ele>
        <time>2025-05-27T08:39:09Z</time>
      </trkpt>
      <trkpt lat="45.69572" lon="5.24374">
        <ele>345.6</ele>
        <time>2025-05-27T08:39:10Z</time>
      </trkpt>
      <trkpt lat="45.69568" lon="5.24379">
        <ele>345.2</ele>
        <time>2025-05-27T08:39:11Z</time>
      </trkpt>
      <trkpt lat="45.69563" lon="5.24383">
        <ele>345.4</ele>
        <time>2025-05-27T08:39:12Z</time>
      </trkpt>
      <trkpt lat="45.69559" lon="5.24387">
        <ele>345.4</ele>
        <time>2025-05-27T08:39:13Z</time>
      </trkpt>
      <trkpt lat="45.69554" lon="5.24393">
        <ele>345.2</ele>
        <time>2025-05-27T08:39:14Z</time>
      </trkpt>
      <trkpt lat="45.69548" lon="5.24398">
        <ele>344</ele>
        <time>2025-05-27T08:39:15Z</time>
      </trkpt>
      <trkpt lat="45.69543" lon="5.24406">
        <ele>344</ele>
        <time>2025-05-27T08:39:16Z</time>
      </trkpt>
      <trkpt lat="45.69539" lon="5.24411">
        <ele>342.2</ele>
        <time>2025-05-27T08:39:17Z</time>
      </trkpt>
      <trkpt lat="45.69534" lon="5.24416">
        <ele>341.4</ele>
        <time>2025-05-27T08:39:18Z</time>
      </trkpt>
      <trkpt lat="45.69529" lon="5.24422">
        <ele>340</ele>
        <time>2025-05-27T08:39:19Z</time>
      </trkpt>
      <trkpt lat="45.69525" lon="5.24428">
        <ele>340.4</ele>
        <time>2025-05-27T08:39:20Z</time>
      </trkpt>
      <trkpt lat="45.69521" lon="5.24432">
        <ele>341</ele>
        <time>2025-05-27T08:39:21Z</time>
      </trkpt>
      <trkpt lat="45.69518" lon="5.24438">
        <ele>339.6</ele>
        <time>2025-05-27T08:39:22Z</time>
      </trkpt>
      <trkpt lat="45.69514" lon="5.24442">
        <ele>339.2</ele>
        <time>2025-05-27T08:39:23Z</time>
      </trkpt>
      <trkpt lat="45.69511" lon="5.24447">
        <ele>339</ele>
        <time>2025-05-27T08:39:24Z</time>
      </trkpt>
      <trkpt lat="45.69507" lon="5.24451">
        <ele>339.2</ele>
        <time>2025-05-27T08:39:25Z</time>
      </trkpt>
      <trkpt lat="45.69504" lon="5.24456">
        <ele>339</ele>
        <time>2025-05-27T08:39:26Z</time>
      </trkpt>
      <trkpt lat="45.69501" lon="5.24461">
        <ele>339</ele>
        <time>2025-05-27T08:39:27Z</time>
      </trkpt>
      <trkpt lat="45.69497" lon="5.24465">
        <ele>338.2</ele>
        <time>2025-05-27T08:39:28Z</time>
      </trkpt>
      <trkpt lat="45.69492" lon="5.24468">
        <ele>338</ele>
        <time>2025-05-27T08:39:29Z</time>
      </trkpt>
      <trkpt lat="45.69487" lon="5.24471">
        <ele>337.6</ele>
        <time>2025-05-27T08:39:30Z</time>
      </trkpt>
      <trkpt lat="45.69481" lon="5.2447">
        <ele>336.8</ele>
        <time>2025-05-27T08:39:31Z</time>
      </trkpt>
      <trkpt lat="45.69475" lon="5.24471">
        <ele>336.6</ele>
        <time>2025-05-27T08:39:32Z</time>
      </trkpt>
      <trkpt lat="45.69468" lon="5.24471">
        <ele>335.6</ele>
        <time>2025-05-27T08:39:33Z</time>
      </trkpt>
      <trkpt lat="45.69463" lon="5.24471">
        <ele>334.8</ele>
        <time>2025-05-27T08:39:34Z</time>
      </trkpt>
      <trkpt lat="45.69458" lon="5.24473">
        <ele>334.8</ele>
        <time>2025-05-27T08:39:35Z</time>
      </trkpt>
      <trkpt lat="45.69454" lon="5.24477">
        <ele>334.8</ele>
        <time>2025-05-27T08:39:36Z</time>
      </trkpt>
      <trkpt lat="45.6945" lon="5.24483">
        <ele>334.8</ele>
        <time>2025-05-27T08:39:37Z</time>
      </trkpt>
      <trkpt lat="45.69447" lon="5.2449">
        <ele>334.4</ele>
        <time>2025-05-27T08:39:38Z</time>
      </trkpt>
      <trkpt lat="45.69444" lon="5.24497">
        <ele>333.8</ele>
        <time>2025-05-27T08:39:39Z</time>
      </trkpt>
      <trkpt lat="45.69442" lon="5.24506">
        <ele>333.8</ele>
        <time>2025-05-27T08:39:40Z</time>
      </trkpt>
      <trkpt lat="45.6944" lon="5.24513">
        <ele>333.4</ele>
        <time>2025-05-27T08:39:41Z</time>
      </trkpt>
      <trkpt lat="45.69439" lon="5.24521">
        <ele>333.4</ele>
        <time>2025-05-27T08:39:42Z</time>
      </trkpt>
      <trkpt lat="45.69438" lon="5.24529">
        <ele>333</ele>
        <time>2025-05-27T08:39:43Z</time>
      </trkpt>
      <trkpt lat="45.69436" lon="5.24537">
        <ele>332.4</ele>
        <time>2025-05-27T08:39:44Z</time>
      </trkpt>
      <trkpt lat="45.69435" lon="5.24545">
        <ele>332</ele>
        <time>2025-05-27T08:39:45Z</time>
      </trkpt>
      <trkpt lat="45.69432" lon="5.24553">
        <ele>331</ele>
        <time>2025-05-27T08:39:46Z</time>
      </trkpt>
      <trkpt lat="45.6943" lon="5.2456">
        <ele>331.4</ele>
        <time>2025-05-27T08:39:47Z</time>
      </trkpt>
      <trkpt lat="45.69426" lon="5.24568">
        <ele>331.4</ele>
        <time>2025-05-27T08:39:48Z</time>
      </trkpt>
      <trkpt lat="45.69423" lon="5.24573">
        <ele>331.4</ele>
        <time>2025-05-27T08:39:49Z</time>
      </trkpt>
      <trkpt lat="45.69419" lon="5.24579">
        <ele>331</ele>
        <time>2025-05-27T08:39:50Z</time>
      </trkpt>
      <trkpt lat="45.69414" lon="5.24584">
        <ele>330.4</ele>
        <time>2025-05-27T08:39:51Z</time>
      </trkpt>
      <trkpt lat="45.69409" lon="5.24589">
        <ele>329.8</ele>
        <time>2025-05-27T08:39:52Z</time>
      </trkpt>
      <trkpt lat="45.69404" lon="5.24594">
        <ele>329.8</ele>
        <time>2025-05-27T08:39:53Z</time>
      </trkpt>
      <trkpt lat="45.69398" lon="5.24599">
        <ele>329.8</ele>
        <time>2025-05-27T08:39:54Z</time>
      </trkpt>
      <trkpt lat="45.69394" lon="5.24604">
        <ele>329.8</ele>
        <time>2025-05-27T08:39:55Z</time>
      </trkpt>
      <trkpt lat="45.69389" lon="5.24608">
        <ele>330.4</ele>
        <time>2025-05-27T08:39:56Z</time>
      </trkpt>
      <trkpt lat="45.69383" lon="5.24612">
        <ele>330.4</ele>
        <time>2025-05-27T08:39:57Z</time>
      </trkpt>
      <trkpt lat="45.69378" lon="5.24615">
        <ele>330.4</ele>
        <time>2025-05-27T08:39:58Z</time>
      </trkpt>
      <trkpt lat="45.69373" lon="5.24617">
        <ele>330</ele>
        <time>2025-05-27T08:39:59Z</time>
      </trkpt>
      <trkpt lat="45.69367" lon="5.24617">
        <ele>330</ele>
        <time>2025-05-27T08:40:00Z</time>
      </trkpt>
      <trkpt lat="45.69361" lon="5.24618">
        <ele>329</ele>
        <time>2025-05-27T08:40:01Z</time>
      </trkpt>
      <trkpt lat="45.69356" lon="5.24616">
        <ele>328.6</ele>
        <time>2025-05-27T08:40:02Z</time>
      </trkpt>
      <trkpt lat="45.69351" lon="5.24615">
        <ele>328.2</ele>
        <time>2025-05-27T08:40:03Z</time>
      </trkpt>
      <trkpt lat="45.69345" lon="5.24612">
        <ele>327.8</ele>
        <time>2025-05-27T08:40:04Z</time>
      </trkpt>
      <trkpt lat="45.69338" lon="5.24608">
        <ele>327</ele>
        <time>2025-05-27T08:40:05Z</time>
      </trkpt>
      <trkpt lat="45.6933" lon="5.24603">
        <ele>326.2</ele>
        <time>2025-05-27T08:40:06Z</time>
      </trkpt>
      <trkpt lat="45.69322" lon="5.24601">
        <ele>325.6</ele>
        <time>2025-05-27T08:40:07Z</time>
      </trkpt>
      <trkpt lat="45.69317" lon="5.24595">
        <ele>324.8</ele>
        <time>2025-05-27T08:40:08Z</time>
      </trkpt>
      <trkpt lat="45.69312" lon="5.2459">
        <ele>323.8</ele>
        <time>2025-05-27T08:40:09Z</time>
      </trkpt>
      <trkpt lat="45.69307" lon="5.24582">
        <ele>323</ele>
        <time>2025-05-27T08:40:10Z</time>
      </trkpt>
      <trkpt lat="45.69305" lon="5.24571">
        <ele>322</ele>
        <time>2025-05-27T08:40:11Z</time>
      </trkpt>
      <trkpt lat="45.69303" lon="5.24561">
        <ele>321.6</ele>
        <time>2025-05-27T08:40:12Z</time>
      </trkpt>
      <trkpt lat="45.693" lon="5.24551">
        <ele>321.2</ele>
        <time>2025-05-27T08:40:13Z</time>
      </trkpt>
      <trkpt lat="45.69298" lon="5.2454">
        <ele>320.6</ele>
        <time>2025-05-27T08:40:14Z</time>
      </trkpt>
      <trkpt lat="45.69296" lon="5.24529">
        <ele>320.6</ele>
        <time>2025-05-27T08:40:15Z</time>
      </trkpt>
      <trkpt lat="45.69295" lon="5.24519">
        <ele>320</ele>
        <time>2025-05-27T08:40:16Z</time>
      </trkpt>
      <trkpt lat="45.69293" lon="5.24509">
        <ele>319.6</ele>
        <time>2025-05-27T08:40:17Z</time>
      </trkpt>
      <trkpt lat="45.6929" lon="5.24498">
        <ele>319</ele>
        <time>2025-05-27T08:40:18Z</time>
      </trkpt>
      <trkpt lat="45.69286" lon="5.24487">
        <ele>319</ele>
        <time>2025-05-27T08:40:19Z</time>
      </trkpt>
      <trkpt lat="45.69282" lon="5.24477">
        <ele>318.8</ele>
        <time>2025-05-27T08:40:20Z</time>
      </trkpt>
      <trkpt lat="45.69278" lon="5.24467">
        <ele>318.8</ele>
        <time>2025-05-27T08:40:21Z</time>
      </trkpt>
      <trkpt lat="45.69274" lon="5.24456">
        <ele>318.8</ele>
        <time>2025-05-27T08:40:22Z</time>
      </trkpt>
      <trkpt lat="45.6927" lon="5.24446">
        <ele>318.4</ele>
        <time>2025-05-27T08:40:23Z</time>
      </trkpt>
      <trkpt lat="45.69266" lon="5.24436">
        <ele>317.8</ele>
        <time>2025-05-27T08:40:24Z</time>
      </trkpt>
      <trkpt lat="45.69262" lon="5.24425">
        <ele>317.8</ele>
        <time>2025-05-27T08:40:25Z</time>
      </trkpt>
      <trkpt lat="45.69257" lon="5.24415">
        <ele>317.6</ele>
        <time>2025-05-27T08:40:26Z</time>
      </trkpt>
      <trkpt lat="45.69254" lon="5.24404">
        <ele>317</ele>
        <time>2025-05-27T08:40:27Z</time>
      </trkpt>
      <trkpt lat="45.69251" lon="5.24392">
        <ele>316.2</ele>
        <time>2025-05-27T08:40:28Z</time>
      </trkpt>
      <trkpt lat="45.69249" lon="5.24379">
        <ele>315.8</ele>
        <time>2025-05-27T08:40:29Z</time>
      </trkpt>
      <trkpt lat="45.69249" lon="5.24367">
        <ele>315.2</ele>
        <time>2025-05-27T08:40:30Z</time>
      </trkpt>
      <trkpt lat="45.69248" lon="5.24354">
        <ele>315</ele>
        <time>2025-05-27T08:40:31Z</time>
      </trkpt>
      <trkpt lat="45.69247" lon="5.24341">
        <ele>314.6</ele>
        <time>2025-05-27T08:40:32Z</time>
      </trkpt>
      <trkpt lat="45.69246" lon="5.24329">
        <ele>314.2</ele>
        <time>2025-05-27T08:40:33Z</time>
      </trkpt>
      <trkpt lat="45.69245" lon="5.24317">
        <ele>313.8</ele>
        <time>2025-05-27T08:40:34Z</time>
      </trkpt>
      <trkpt lat="45.69242" lon="5.24306">
        <ele>313.8</ele>
        <time>2025-05-27T08:40:35Z</time>
      </trkpt>
      <trkpt lat="45.69237" lon="5.24297">
        <ele>314.2</ele>
        <time>2025-05-27T08:40:36Z</time>
      </trkpt>
      <trkpt lat="45.69232" lon="5.24289">
        <ele>313.8</ele>
        <time>2025-05-27T08:40:37Z</time>
      </trkpt>
      <trkpt lat="45.69226" lon="5.24282">
        <ele>313.6</ele>
        <time>2025-05-27T08:40:38Z</time>
      </trkpt>
      <trkpt lat="45.6922" lon="5.24276">
        <ele>313.2</ele>
        <time>2025-05-27T08:40:39Z</time>
      </trkpt>
      <trkpt lat="45.69216" lon="5.24271">
        <ele>313.2</ele>
        <time>2025-05-27T08:40:40Z</time>
      </trkpt>
      <trkpt lat="45.6921" lon="5.24266">
        <ele>313.6</ele>
        <time>2025-05-27T08:40:41Z</time>
      </trkpt>
      <trkpt lat="45.69205" lon="5.24259">
        <ele>313.6</ele>
        <time>2025-05-27T08:40:42Z</time>
      </trkpt>
      <trkpt lat="45.69201" lon="5.24254">
        <ele>314</ele>
        <time>2025-05-27T08:40:43Z</time>
      </trkpt>
      <trkpt lat="45.69198" lon="5.2425">
        <ele>314.4</ele>
        <time>2025-05-27T08:40:44Z</time>
      </trkpt>
      <trkpt lat="45.69196" lon="5.24247">
        <ele>314.6</ele>
        <time>2025-05-27T08:40:45Z</time>
      </trkpt>
      <trkpt lat="45.69195" lon="5.24245">
        <ele>314.8</ele>
        <time>2025-05-27T08:40:46Z</time>
      </trkpt>
      <trkpt lat="45.69193" lon="5.24244">
        <ele>314.8</ele>
        <time>2025-05-27T08:40:47Z</time>
      </trkpt>
      <trkpt lat="45.69192" lon="5.24241">
        <ele>315.2</ele>
        <time>2025-05-27T08:40:48Z</time>
      </trkpt>
      <trkpt lat="45.69192" lon="5.2424">
        <ele>315.6</ele>
        <time>2025-05-27T08:40:49Z</time>
      </trkpt>
      <trkpt lat="45.69191" lon="5.24239">
        <ele>316</ele>
        <time>2025-05-27T08:40:50Z</time>
      </trkpt>
      <trkpt lat="45.69191" lon="5.2424">
        <ele>316.2</ele>
        <time>2025-05-27T08:40:51Z</time>
      </trkpt>
      <trkpt lat="45.69189" lon="5.24241">
        <ele>316.6</ele>
        <time>2025-05-27T08:40:55Z</time>
      </trkpt>
      <trkpt lat="45.69189" lon="5.24241">
        <ele>316.6</ele>
        <time>2025-05-27T08:40:56Z</time>
      </trkpt>
      <trkpt lat="45.69189" lon="5.24241">
        <ele>316.6</ele>
        <time>2025-05-27T08:40:57Z</time>
      </trkpt>
      <trkpt lat="45.69191" lon="5.2424">
        <ele>316.6</ele>
        <time>2025-05-27T08:41:56Z</time>
      </trkpt>
      <trkpt lat="45.69189" lon="5.24239">
        <ele>316.6</ele>
        <time>2025-05-27T08:41:57Z</time>
      </trkpt>
      <trkpt lat="45.69188" lon="5.24237">
        <ele>316.6</ele>
        <time>2025-05-27T08:41:58Z</time>
      </trkpt>
      <trkpt lat="45.69187" lon="5.24235">
        <ele>316.6</ele>
        <time>2025-05-27T08:41:59Z</time>
      </trkpt>
      <trkpt lat="45.69186" lon="5.24233">
        <ele>316.6</ele>
        <time>2025-05-27T08:42:00Z</time>
      </trkpt>
      <trkpt lat="45.69184" lon="5.24231">
        <ele>316.6</ele>
        <time>2025-05-27T08:42:01Z</time>
      </trkpt>
      <trkpt lat="45.69183" lon="5.24229">
        <ele>316.6</ele>
        <time>2025-05-27T08:42:02Z</time>
      </trkpt>
      <trkpt lat="45.69182" lon="5.24227">
        <ele>316.6</ele>
        <time>2025-05-27T08:42:03Z</time>
      </trkpt>
      <trkpt lat="45.69182" lon="5.24225">
        <ele>316.6</ele>
        <time>2025-05-27T08:42:04Z</time>
      </trkpt>
      <trkpt lat="45.69182" lon="5.24223">
        <ele>316.8</ele>
        <time>2025-05-27T08:42:05Z</time>
      </trkpt>
      <trkpt lat="45.69182" lon="5.2422">
        <ele>317.2</ele>
        <time>2025-05-27T08:42:06Z</time>
      </trkpt>
      <trkpt lat="45.69182" lon="5.24217">
        <ele>317.2</ele>
        <time>2025-05-27T08:42:07Z</time>
      </trkpt>
      <trkpt lat="45.69181" lon="5.24214">
        <ele>317.4</ele>
        <time>2025-05-27T08:42:08Z</time>
      </trkpt>
      <trkpt lat="45.6918" lon="5.2421">
        <ele>317.4</ele>
        <time>2025-05-27T08:42:09Z</time>
      </trkpt>
      <trkpt lat="45.6918" lon="5.24206">
        <ele>317.8</ele>
        <time>2025-05-27T08:42:10Z</time>
      </trkpt>
      <trkpt lat="45.69179" lon="5.24202">
        <ele>318</ele>
        <time>2025-05-27T08:42:11Z</time>
      </trkpt>
      <trkpt lat="45.69178" lon="5.24198">
        <ele>318</ele>
        <time>2025-05-27T08:42:12Z</time>
      </trkpt>
      <trkpt lat="45.69177" lon="5.24194">
        <ele>318.4</ele>
        <time>2025-05-27T08:42:13Z</time>
      </trkpt>
      <trkpt lat="45.69176" lon="5.24189">
        <ele>318.4</ele>
        <time>2025-05-27T08:42:14Z</time>
      </trkpt>
      <trkpt lat="45.69176" lon="5.24185">
        <ele>318.6</ele>
        <time>2025-05-27T08:42:15Z</time>
      </trkpt>
      <trkpt lat="45.69176" lon="5.2418">
        <ele>318.8</ele>
        <time>2025-05-27T08:42:16Z</time>
      </trkpt>
      <trkpt lat="45.69177" lon="5.24176">
        <ele>318.8</ele>
        <time>2025-05-27T08:42:17Z</time>
      </trkpt>
      <trkpt lat="45.69177" lon="5.24172">
        <ele>319.2</ele>
        <time>2025-05-27T08:42:18Z</time>
      </trkpt>
      <trkpt lat="45.69177" lon="5.24169">
        <ele>319.6</ele>
        <time>2025-05-27T08:42:19Z</time>
      </trkpt>
      <trkpt lat="45.69177" lon="5.24164">
        <ele>319.6</ele>
        <time>2025-05-27T08:42:20Z</time>
      </trkpt>
      <trkpt lat="45.69177" lon="5.24159">
        <ele>319.6</ele>
        <time>2025-05-27T08:42:21Z</time>
      </trkpt>
      <trkpt lat="45.69178" lon="5.24155">
        <ele>319.6</ele>
        <time>2025-05-27T08:42:22Z</time>
      </trkpt>
      <trkpt lat="45.69178" lon="5.2415">
        <ele>319.8</ele>
        <time>2025-05-27T08:42:23Z</time>
      </trkpt>
      <trkpt lat="45.69178" lon="5.24145">
        <ele>319.8</ele>
        <time>2025-05-27T08:42:24Z</time>
      </trkpt>
      <trkpt lat="45.69179" lon="5.2414">
        <ele>319.8</ele>
        <time>2025-05-27T08:42:25Z</time>
      </trkpt>
      <trkpt lat="45.69179" lon="5.24135">
        <ele>319.8</ele>
        <time>2025-05-27T08:42:26Z</time>
      </trkpt>
      <trkpt lat="45.6918" lon="5.2413">
        <ele>319.8</ele>
        <time>2025-05-27T08:42:27Z</time>
      </trkpt>
      <trkpt lat="45.6918" lon="5.24124">
        <ele>319.8</ele>
        <time>2025-05-27T08:42:28Z</time>
      </trkpt>
      <trkpt lat="45.69181" lon="5.24117">
        <ele>319.8</ele>
        <time>2025-05-27T08:42:29Z</time>
      </trkpt>
      <trkpt lat="45.69182" lon="5.2411">
        <ele>319.8</ele>
        <time>2025-05-27T08:42:30Z</time>
      </trkpt>
      <trkpt lat="45.69182" lon="5.24103">
        <ele>319.6</ele>
        <time>2025-05-27T08:42:31Z</time>
      </trkpt>
      <trkpt lat="45.69183" lon="5.24096">
        <ele>319.2</ele>
        <time>2025-05-27T08:42:32Z</time>
      </trkpt>
      <trkpt lat="45.69184" lon="5.24087">
        <ele>318.8</ele>
        <time>2025-05-27T08:42:33Z</time>
      </trkpt>
      <trkpt lat="45.69184" lon="5.24079">
        <ele>318</ele>
        <time>2025-05-27T08:42:34Z</time>
      </trkpt>
      <trkpt lat="45.69185" lon="5.2407">
        <ele>318.2</ele>
        <time>2025-05-27T08:42:35Z</time>
      </trkpt>
      <trkpt lat="45.69185" lon="5.24061">
        <ele>318</ele>
        <time>2025-05-27T08:42:36Z</time>
      </trkpt>
      <trkpt lat="45.69186" lon="5.24052">
        <ele>318</ele>
        <time>2025-05-27T08:42:37Z</time>
      </trkpt>
      <trkpt lat="45.69186" lon="5.24042">
        <ele>317.6</ele>
        <time>2025-05-27T08:42:38Z</time>
      </trkpt>
      <trkpt lat="45.69187" lon="5.24033">
        <ele>317.2</ele>
        <time>2025-05-27T08:42:39Z</time>
      </trkpt>
      <trkpt lat="45.69188" lon="5.24024">
        <ele>317</ele>
        <time>2025-05-27T08:42:40Z</time>
      </trkpt>
      <trkpt lat="45.69188" lon="5.24016">
        <ele>317</ele>
        <time>2025-05-27T08:42:41Z</time>
      </trkpt>
      <trkpt lat="45.69189" lon="5.24007">
        <ele>317</ele>
        <time>2025-05-27T08:42:42Z</time>
      </trkpt>
      <trkpt lat="45.6919" lon="5.23999">
        <ele>317</ele>
        <time>2025-05-27T08:42:43Z</time>
      </trkpt>
      <trkpt lat="45.6919" lon="5.23991">
        <ele>317.2</ele>
        <time>2025-05-27T08:42:44Z</time>
      </trkpt>
      <trkpt lat="45.69189" lon="5.23983">
        <ele>316.8</ele>
        <time>2025-05-27T08:42:45Z</time>
      </trkpt>
      <trkpt lat="45.69189" lon="5.23975">
        <ele>316.8</ele>
        <time>2025-05-27T08:42:46Z</time>
      </trkpt>
      <trkpt lat="45.69189" lon="5.23966">
        <ele>316.4</ele>
        <time>2025-05-27T08:42:47Z</time>
      </trkpt>
      <trkpt lat="45.69188" lon="5.23958">
        <ele>316.4</ele>
        <time>2025-05-27T08:42:48Z</time>
      </trkpt>
      <trkpt lat="45.69188" lon="5.23949">
        <ele>315.8</ele>
        <time>2025-05-27T08:42:49Z</time>
      </trkpt>
      <trkpt lat="45.69188" lon="5.2394">
        <ele>315</ele>
        <time>2025-05-27T08:42:50Z</time>
      </trkpt>
      <trkpt lat="45.69186" lon="5.23932">
        <ele>314.2</ele>
        <time>2025-05-27T08:42:51Z</time>
      </trkpt>
      <trkpt lat="45.69184" lon="5.23923">
        <ele>314.2</ele>
        <time>2025-05-27T08:42:52Z</time>
      </trkpt>
      <trkpt lat="45.69184" lon="5.23915">
        <ele>314.2</ele>
        <time>2025-05-27T08:42:53Z</time>
      </trkpt>
      <trkpt lat="45.69183" lon="5.23908">
        <ele>314.2</ele>
        <time>2025-05-27T08:42:54Z</time>
      </trkpt>
      <trkpt lat="45.69182" lon="5.23905">
        <ele>314.2</ele>
        <time>2025-05-27T08:42:55Z</time>
      </trkpt>
      <trkpt lat="45.69179" lon="5.23901">
        <ele>314.2</ele>
        <time>2025-05-27T08:42:56Z</time>
      </trkpt>
      <trkpt lat="45.69176" lon="5.239">
        <ele>314.2</ele>
        <time>2025-05-27T08:42:57Z</time>
      </trkpt>
      <trkpt lat="45.69173" lon="5.23899">
        <ele>314.6</ele>
        <time>2025-05-27T08:42:58Z</time>
      </trkpt>
      <trkpt lat="45.69169" lon="5.23899">
        <ele>314.2</ele>
        <time>2025-05-27T08:42:59Z</time>
      </trkpt>
      <trkpt lat="45.69165" lon="5.23899">
        <ele>313.8</ele>
        <time>2025-05-27T08:43:00Z</time>
      </trkpt>
      <trkpt lat="45.69159" lon="5.23901">
        <ele>313.2</ele>
        <time>2025-05-27T08:43:01Z</time>
      </trkpt>
      <trkpt lat="45.69153" lon="5.23902">
        <ele>313</ele>
        <time>2025-05-27T08:43:02Z</time>
      </trkpt>
      <trkpt lat="45.69148" lon="5.23904">
        <ele>312.2</ele>
        <time>2025-05-27T08:43:03Z</time>
      </trkpt>
      <trkpt lat="45.69142" lon="5.23905">
        <ele>311.6</ele>
        <time>2025-05-27T08:43:04Z</time>
      </trkpt>
      <trkpt lat="45.69138" lon="5.23907">
        <ele>312</ele>
        <time>2025-05-27T08:43:05Z</time>
      </trkpt>
      <trkpt lat="45.69132" lon="5.23908">
        <ele>312</ele>
        <time>2025-05-27T08:43:06Z</time>
      </trkpt>
      <trkpt lat="45.69127" lon="5.23909">
        <ele>312</ele>
        <time>2025-05-27T08:43:07Z</time>
      </trkpt>
      <trkpt lat="45.69121" lon="5.23911">
        <ele>312</ele>
        <time>2025-05-27T08:43:08Z</time>
      </trkpt>
      <trkpt lat="45.69117" lon="5.23913">
        <ele>312</ele>
        <time>2025-05-27T08:43:09Z</time>
      </trkpt>
      <trkpt lat="45.69112" lon="5.23915">
        <ele>311.8</ele>
        <time>2025-05-27T08:43:10Z</time>
      </trkpt>
      <trkpt lat="45.69107" lon="5.23915">
        <ele>312.4</ele>
        <time>2025-05-27T08:43:11Z</time>
      </trkpt>
      <trkpt lat="45.69102" lon="5.23918">
        <ele>312.8</ele>
        <time>2025-05-27T08:43:12Z</time>
      </trkpt>
      <trkpt lat="45.69098" lon="5.23919">
        <ele>312.8</ele>
        <time>2025-05-27T08:43:13Z</time>
      </trkpt>
      <trkpt lat="45.69094" lon="5.23916">
        <ele>312.8</ele>
        <time>2025-05-27T08:43:14Z</time>
      </trkpt>
      <trkpt lat="45.69092" lon="5.23913">
        <ele>312.8</ele>
        <time>2025-05-27T08:43:15Z</time>
      </trkpt>
      <trkpt lat="45.69089" lon="5.23912">
        <ele>313.4</ele>
        <time>2025-05-27T08:43:16Z</time>
      </trkpt>
      <trkpt lat="45.69087" lon="5.2391">
        <ele>314</ele>
        <time>2025-05-27T08:43:17Z</time>
      </trkpt>
      <trkpt lat="45.69085" lon="5.23909">
        <ele>314.2</ele>
        <time>2025-05-27T08:43:18Z</time>
      </trkpt>
      <trkpt lat="45.69084" lon="5.23908">
        <ele>314</ele>
        <time>2025-05-27T08:43:19Z</time>
      </trkpt>
      <trkpt lat="45.69082" lon="5.23907">
        <ele>314.4</ele>
        <time>2025-05-27T08:43:20Z</time>
      </trkpt>
      <trkpt lat="45.69079" lon="5.23907">
        <ele>314.4</ele>
        <time>2025-05-27T08:43:21Z</time>
      </trkpt>
      <trkpt lat="45.69076" lon="5.23908">
        <ele>314.4</ele>
        <time>2025-05-27T08:43:22Z</time>
      </trkpt>
      <trkpt lat="45.69072" lon="5.23911">
        <ele>314.8</ele>
        <time>2025-05-27T08:43:23Z</time>
      </trkpt>
      <trkpt lat="45.69069" lon="5.23913">
        <ele>315.2</ele>
        <time>2025-05-27T08:43:24Z</time>
      </trkpt>
      <trkpt lat="45.69068" lon="5.23916">
        <ele>315.6</ele>
        <time>2025-05-27T08:43:25Z</time>
      </trkpt>
      <trkpt lat="45.69066" lon="5.23919">
        <ele>316</ele>
        <time>2025-05-27T08:43:26Z</time>
      </trkpt>
      <trkpt lat="45.69066" lon="5.23921">
        <ele>316.4</ele>
        <time>2025-05-27T08:43:27Z</time>
      </trkpt>
      <trkpt lat="45.69066" lon="5.23924">
        <ele>316.8</ele>
        <time>2025-05-27T08:43:28Z</time>
      </trkpt>
      <trkpt lat="45.69066" lon="5.23926">
        <ele>317.2</ele>
        <time>2025-05-27T08:43:29Z</time>
      </trkpt>
      <trkpt lat="45.69065" lon="5.23928">
        <ele>317.4</ele>
        <time>2025-05-27T08:43:30Z</time>
      </trkpt>
      <trkpt lat="45.69064" lon="5.2393">
        <ele>317.8</ele>
        <time>2025-05-27T08:43:31Z</time>
      </trkpt>
      <trkpt lat="45.69063" lon="5.23932">
        <ele>317.8</ele>
        <time>2025-05-27T08:43:32Z</time>
      </trkpt>
      <trkpt lat="45.69062" lon="5.23933">
        <ele>318.4</ele>
        <time>2025-05-27T08:43:33Z</time>
      </trkpt>
      <trkpt lat="45.6906" lon="5.23934">
        <ele>318.8</ele>
        <time>2025-05-27T08:43:34Z</time>
      </trkpt>
      <trkpt lat="45.69059" lon="5.23935">
        <ele>318.8</ele>
        <time>2025-05-27T08:43:35Z</time>
      </trkpt>
      <trkpt lat="45.69057" lon="5.23936">
        <ele>319.2</ele>
        <time>2025-05-27T08:43:36Z</time>
      </trkpt>
      <trkpt lat="45.69055" lon="5.23936">
        <ele>319.4</ele>
        <time>2025-05-27T08:43:37Z</time>
      </trkpt>
      <trkpt lat="45.69054" lon="5.23936">
        <ele>319.8</ele>
        <time>2025-05-27T08:43:38Z</time>
      </trkpt>
      <trkpt lat="45.69053" lon="5.23936">
        <ele>320</ele>
        <time>2025-05-27T08:43:39Z</time>
      </trkpt>
      <trkpt lat="45.69051" lon="5.23937">
        <ele>320</ele>
        <time>2025-05-27T08:43:40Z</time>
      </trkpt>
      <trkpt lat="45.6905" lon="5.23937">
        <ele>320</ele>
        <time>2025-05-27T08:43:41Z</time>
      </trkpt>
      <trkpt lat="45.69049" lon="5.23938">
        <ele>320.6</ele>
        <time>2025-05-27T08:43:42Z</time>
      </trkpt>
      <trkpt lat="45.69048" lon="5.23938">
        <ele>320.8</ele>
        <time>2025-05-27T08:43:43Z</time>
      </trkpt>
      <trkpt lat="45.69046" lon="5.23938">
        <ele>320.8</ele>
        <time>2025-05-27T08:43:44Z</time>
      </trkpt>
      <trkpt lat="45.69045" lon="5.23938">
        <ele>321.2</ele>
        <time>2025-05-27T08:43:45Z</time>
      </trkpt>
      <trkpt lat="45.69043" lon="5.23938">
        <ele>321.2</ele>
        <time>2025-05-27T08:43:46Z</time>
      </trkpt>
      <trkpt lat="45.69041" lon="5.23938">
        <ele>321.4</ele>
        <time>2025-05-27T08:43:47Z</time>
      </trkpt>
      <trkpt lat="45.6904" lon="5.23938">
        <ele>321.8</ele>
        <time>2025-05-27T08:43:48Z</time>
      </trkpt>
      <trkpt lat="45.69038" lon="5.23938">
        <ele>322</ele>
        <time>2025-05-27T08:43:49Z</time>
      </trkpt>
      <trkpt lat="45.69037" lon="5.23937">
        <ele>322.4</ele>
        <time>2025-05-27T08:43:50Z</time>
      </trkpt>
      <trkpt lat="45.69036" lon="5.23937">
        <ele>322.6</ele>
        <time>2025-05-27T08:43:51Z</time>
      </trkpt>
      <trkpt lat="45.69034" lon="5.23937">
        <ele>322.6</ele>
        <time>2025-05-27T08:43:52Z</time>
      </trkpt>
      <trkpt lat="45.69033" lon="5.23937">
        <ele>323</ele>
        <time>2025-05-27T08:43:53Z</time>
      </trkpt>
      <trkpt lat="45.69031" lon="5.23937">
        <ele>323.6</ele>
        <time>2025-05-27T08:43:54Z</time>
      </trkpt>
      <trkpt lat="45.6903" lon="5.23937">
        <ele>323.8</ele>
        <time>2025-05-27T08:43:55Z</time>
      </trkpt>
      <trkpt lat="45.69028" lon="5.23936">
        <ele>323.8</ele>
        <time>2025-05-27T08:43:56Z</time>
      </trkpt>
      <trkpt lat="45.69026" lon="5.23936">
        <ele>324.2</ele>
        <time>2025-05-27T08:43:57Z</time>
      </trkpt>
      <trkpt lat="45.69025" lon="5.23935">
        <ele>324.4</ele>
        <time>2025-05-27T08:43:58Z</time>
      </trkpt>
      <trkpt lat="45.69024" lon="5.23935">
        <ele>324.6</ele>
        <time>2025-05-27T08:43:59Z</time>
      </trkpt>
      <trkpt lat="45.69022" lon="5.23935">
        <ele>324.6</ele>
        <time>2025-05-27T08:44:00Z</time>
      </trkpt>
      <trkpt lat="45.6902" lon="5.23934">
        <ele>324.6</ele>
        <time>2025-05-27T08:44:01Z</time>
      </trkpt>
      <trkpt lat="45.69019" lon="5.23934">
        <ele>324.6</ele>
        <time>2025-05-27T08:44:02Z</time>
      </trkpt>
      <trkpt lat="45.69017" lon="5.23933">
        <ele>325</ele>
        <time>2025-05-27T08:44:03Z</time>
      </trkpt>
      <trkpt lat="45.69016" lon="5.23932">
        <ele>325</ele>
        <time>2025-05-27T08:44:04Z</time>
      </trkpt>
      <trkpt lat="45.69014" lon="5.23932">
        <ele>325.2</ele>
        <time>2025-05-27T08:44:05Z</time>
      </trkpt>
      <trkpt lat="45.69013" lon="5.23931">
        <ele>325.4</ele>
        <time>2025-05-27T08:44:06Z</time>
      </trkpt>
      <trkpt lat="45.69012" lon="5.23931">
        <ele>325.4</ele>
        <time>2025-05-27T08:44:07Z</time>
      </trkpt>
      <trkpt lat="45.6901" lon="5.2393">
        <ele>325.4</ele>
        <time>2025-05-27T08:44:08Z</time>
      </trkpt>
      <trkpt lat="45.69009" lon="5.2393">
        <ele>325.8</ele>
        <time>2025-05-27T08:44:09Z</time>
      </trkpt>
      <trkpt lat="45.69007" lon="5.23929">
        <ele>325.8</ele>
        <time>2025-05-27T08:44:10Z</time>
      </trkpt>
      <trkpt lat="45.69006" lon="5.23928">
        <ele>326</ele>
        <time>2025-05-27T08:44:11Z</time>
      </trkpt>
      <trkpt lat="45.69005" lon="5.23927">
        <ele>326.2</ele>
        <time>2025-05-27T08:44:12Z</time>
      </trkpt>
      <trkpt lat="45.69004" lon="5.23926">
        <ele>326.6</ele>
        <time>2025-05-27T08:44:13Z</time>
      </trkpt>
      <trkpt lat="45.69002" lon="5.23926">
        <ele>326.6</ele>
        <time>2025-05-27T08:44:14Z</time>
      </trkpt>
      <trkpt lat="45.69001" lon="5.23925">
        <ele>326.6</ele>
        <time>2025-05-27T08:44:15Z</time>
      </trkpt>
      <trkpt lat="45.69001" lon="5.23924">
        <ele>327</ele>
        <time>2025-05-27T08:44:16Z</time>
      </trkpt>
      <trkpt lat="45.69" lon="5.23923">
        <ele>327</ele>
        <time>2025-05-27T08:44:17Z</time>
      </trkpt>
      <trkpt lat="45.69" lon="5.23922">
        <ele>327.2</ele>
        <time>2025-05-27T08:44:18Z</time>
      </trkpt>
      <trkpt lat="45.68999" lon="5.2392">
        <ele>327.4</ele>
        <time>2025-05-27T08:44:19Z</time>
      </trkpt>
      <trkpt lat="45.68998" lon="5.23919">
        <ele>327.4</ele>
        <time>2025-05-27T08:44:20Z</time>
      </trkpt>
      <trkpt lat="45.68996" lon="5.23919">
        <ele>327.8</ele>
        <time>2025-05-27T08:44:21Z</time>
      </trkpt>
      <trkpt lat="45.68995" lon="5.23918">
        <ele>328</ele>
        <time>2025-05-27T08:44:22Z</time>
      </trkpt>
      <trkpt lat="45.68994" lon="5.23917">
        <ele>328.2</ele>
        <time>2025-05-27T08:44:23Z</time>
      </trkpt>
      <trkpt lat="45.68992" lon="5.23917">
        <ele>328.2</ele>
        <time>2025-05-27T08:44:24Z</time>
      </trkpt>
      <trkpt lat="45.6899" lon="5.23917">
        <ele>328.6</ele>
        <time>2025-05-27T08:44:25Z</time>
      </trkpt>
      <trkpt lat="45.68989" lon="5.23916">
        <ele>328.8</ele>
        <time>2025-05-27T08:44:26Z</time>
      </trkpt>
      <trkpt lat="45.68987" lon="5.23916">
        <ele>328.8</ele>
        <time>2025-05-27T08:44:27Z</time>
      </trkpt>
      <trkpt lat="45.68985" lon="5.23915">
        <ele>329</ele>
        <time>2025-05-27T08:44:28Z</time>
      </trkpt>
      <trkpt lat="45.68984" lon="5.23913">
        <ele>329.4</ele>
        <time>2025-05-27T08:44:29Z</time>
      </trkpt>
      <trkpt lat="45.68983" lon="5.23912">
        <ele>329.4</ele>
        <time>2025-05-27T08:44:30Z</time>
      </trkpt>
      <trkpt lat="45.68982" lon="5.2391">
        <ele>329.4</ele>
        <time>2025-05-27T08:44:31Z</time>
      </trkpt>
      <trkpt lat="45.68981" lon="5.23909">
        <ele>329.8</ele>
        <time>2025-05-27T08:44:32Z</time>
      </trkpt>
      <trkpt lat="45.68979" lon="5.23909">
        <ele>329.8</ele>
        <time>2025-05-27T08:44:33Z</time>
      </trkpt>
      <trkpt lat="45.68977" lon="5.23908">
        <ele>329.8</ele>
        <time>2025-05-27T08:44:34Z</time>
      </trkpt>
      <trkpt lat="45.68975" lon="5.23908">
        <ele>329.8</ele>
        <time>2025-05-27T08:44:35Z</time>
      </trkpt>
      <trkpt lat="45.68973" lon="5.23908">
        <ele>330</ele>
        <time>2025-05-27T08:44:36Z</time>
      </trkpt>
      <trkpt lat="45.68971" lon="5.23907">
        <ele>330</ele>
        <time>2025-05-27T08:44:37Z</time>
      </trkpt>
      <trkpt lat="45.6897" lon="5.23906">
        <ele>330.4</ele>
        <time>2025-05-27T08:44:38Z</time>
      </trkpt>
      <trkpt lat="45.68969" lon="5.23904">
        <ele>330.6</ele>
        <time>2025-05-27T08:44:39Z</time>
      </trkpt>
      <trkpt lat="45.68968" lon="5.23903">
        <ele>330.6</ele>
        <time>2025-05-27T08:44:40Z</time>
      </trkpt>
      <trkpt lat="45.68966" lon="5.23903">
        <ele>330.6</ele>
        <time>2025-05-27T08:44:41Z</time>
      </trkpt>
      <trkpt lat="45.68964" lon="5.23902">
        <ele>330.6</ele>
        <time>2025-05-27T08:44:42Z</time>
      </trkpt>
      <trkpt lat="45.68963" lon="5.23902">
        <ele>330.6</ele>
        <time>2025-05-27T08:44:43Z</time>
      </trkpt>
      <trkpt lat="45.68961" lon="5.23901">
        <ele>331</ele>
        <time>2025-05-27T08:44:44Z</time>
      </trkpt>
      <trkpt lat="45.6896" lon="5.239">
        <ele>331.4</ele>
        <time>2025-05-27T08:44:45Z</time>
      </trkpt>
      <trkpt lat="45.68958" lon="5.23899">
        <ele>331.4</ele>
        <time>2025-05-27T08:44:46Z</time>
      </trkpt>
      <trkpt lat="45.68956" lon="5.23899">
        <ele>331.6</ele>
        <time>2025-05-27T08:44:47Z</time>
      </trkpt>
      <trkpt lat="45.68954" lon="5.23898">
        <ele>331.6</ele>
        <time>2025-05-27T08:44:48Z</time>
      </trkpt>
      <trkpt lat="45.68952" lon="5.23897">
        <ele>332</ele>
        <time>2025-05-27T08:44:49Z</time>
      </trkpt>
      <trkpt lat="45.68951" lon="5.23896">
        <ele>332.2</ele>
        <time>2025-05-27T08:44:50Z</time>
      </trkpt>
      <trkpt lat="45.6895" lon="5.23895">
        <ele>332.2</ele>
        <time>2025-05-27T08:44:51Z</time>
      </trkpt>
      <trkpt lat="45.68949" lon="5.23894">
        <ele>332.4</ele>
        <time>2025-05-27T08:44:52Z</time>
      </trkpt>
      <trkpt lat="45.68947" lon="5.23893">
        <ele>332.4</ele>
        <time>2025-05-27T08:44:53Z</time>
      </trkpt>
      <trkpt lat="45.68945" lon="5.23892">
        <ele>332.8</ele>
        <time>2025-05-27T08:44:54Z</time>
      </trkpt>
      <trkpt lat="45.68941" lon="5.23891">
        <ele>332.8</ele>
        <time>2025-05-27T08:44:55Z</time>
      </trkpt>
      <trkpt lat="45.6894" lon="5.2389">
        <ele>333.2</ele>
        <time>2025-05-27T08:44:56Z</time>
      </trkpt>
      <trkpt lat="45.68938" lon="5.23889">
        <ele>333.4</ele>
        <time>2025-05-27T08:44:57Z</time>
      </trkpt>
      <trkpt lat="45.68936" lon="5.23888">
        <ele>333.4</ele>
        <time>2025-05-27T08:44:58Z</time>
      </trkpt>
      <trkpt lat="45.68935" lon="5.23887">
        <ele>333.4</ele>
        <time>2025-05-27T08:44:59Z</time>
      </trkpt>
      <trkpt lat="45.68933" lon="5.23886">
        <ele>333.4</ele>
        <time>2025-05-27T08:45:00Z</time>
      </trkpt>
      <trkpt lat="45.68932" lon="5.23885">
        <ele>333.6</ele>
        <time>2025-05-27T08:45:01Z</time>
      </trkpt>
      <trkpt lat="45.68931" lon="5.23883">
        <ele>333.8</ele>
        <time>2025-05-27T08:45:02Z</time>
      </trkpt>
      <trkpt lat="45.68929" lon="5.23882">
        <ele>333.8</ele>
        <time>2025-05-27T08:45:03Z</time>
      </trkpt>
      <trkpt lat="45.68928" lon="5.23881">
        <ele>334.2</ele>
        <time>2025-05-27T08:45:04Z</time>
      </trkpt>
      <trkpt lat="45.68927" lon="5.2388">
        <ele>334.2</ele>
        <time>2025-05-27T08:45:05Z</time>
      </trkpt>
      <trkpt lat="45.68926" lon="5.23879">
        <ele>334.4</ele>
        <time>2025-05-27T08:45:06Z</time>
      </trkpt>
      <trkpt lat="45.68924" lon="5.23878">
        <ele>334.4</ele>
        <time>2025-05-27T08:45:07Z</time>
      </trkpt>
      <trkpt lat="45.68923" lon="5.23877">
        <ele>334.4</ele>
        <time>2025-05-27T08:45:08Z</time>
      </trkpt>
      <trkpt lat="45.68921" lon="5.23876">
        <ele>334.8</ele>
        <time>2025-05-27T08:45:09Z</time>
      </trkpt>
      <trkpt lat="45.68919" lon="5.23875">
        <ele>334.8</ele>
        <time>2025-05-27T08:45:10Z</time>
      </trkpt>
      <trkpt lat="45.68918" lon="5.23874">
        <ele>334.8</ele>
        <time>2025-05-27T08:45:11Z</time>
      </trkpt>
      <trkpt lat="45.68916" lon="5.23872">
        <ele>334.8</ele>
        <time>2025-05-27T08:45:12Z</time>
      </trkpt>
      <trkpt lat="45.68914" lon="5.23871">
        <ele>334.8</ele>
        <time>2025-05-27T08:45:13Z</time>
      </trkpt>
      <trkpt lat="45.68914" lon="5.23871">
        <ele>335</ele>
        <time>2025-05-27T08:45:14Z</time>
      </trkpt>
      <trkpt lat="45.68912" lon="5.2387">
        <ele>335</ele>
        <time>2025-05-27T08:45:15Z</time>
      </trkpt>
      <trkpt lat="45.6891" lon="5.23868">
        <ele>335.4</ele>
        <time>2025-05-27T08:45:16Z</time>
      </trkpt>
      <trkpt lat="45.68908" lon="5.23867">
        <ele>335.4</ele>
        <time>2025-05-27T08:45:17Z</time>
      </trkpt>
      <trkpt lat="45.68906" lon="5.23865">
        <ele>335.4</ele>
        <time>2025-05-27T08:45:18Z</time>
      </trkpt>
      <trkpt lat="45.68904" lon="5.23864">
        <ele>335.6</ele>
        <time>2025-05-27T08:45:19Z</time>
      </trkpt>
      <trkpt lat="45.68902" lon="5.23862">
        <ele>335.6</ele>
        <time>2025-05-27T08:45:20Z</time>
      </trkpt>
      <trkpt lat="45.689" lon="5.23862">
        <ele>335.6</ele>
        <time>2025-05-27T08:45:21Z</time>
      </trkpt>
      <trkpt lat="45.68897" lon="5.23861">
        <ele>335.6</ele>
        <time>2025-05-27T08:45:22Z</time>
      </trkpt>
      <trkpt lat="45.68894" lon="5.23861">
        <ele>335.8</ele>
        <time>2025-05-27T08:45:23Z</time>
      </trkpt>
      <trkpt lat="45.68891" lon="5.2386">
        <ele>336.2</ele>
        <time>2025-05-27T08:45:24Z</time>
      </trkpt>
      <trkpt lat="45.68888" lon="5.23859">
        <ele>336.8</ele>
        <time>2025-05-27T08:45:25Z</time>
      </trkpt>
      <trkpt lat="45.68885" lon="5.23858">
        <ele>336.8</ele>
        <time>2025-05-27T08:45:26Z</time>
      </trkpt>
      <trkpt lat="45.68881" lon="5.23856">
        <ele>336.6</ele>
        <time>2025-05-27T08:45:27Z</time>
      </trkpt>
      <trkpt lat="45.68879" lon="5.23855">
        <ele>336.6</ele>
        <time>2025-05-27T08:45:28Z</time>
      </trkpt>
      <trkpt lat="45.68876" lon="5.23853">
        <ele>336.8</ele>
        <time>2025-05-27T08:45:29Z</time>
      </trkpt>
      <trkpt lat="45.68874" lon="5.23852">
        <ele>336.8</ele>
        <time>2025-05-27T08:45:30Z</time>
      </trkpt>
      <trkpt lat="45.68871" lon="5.23851">
        <ele>336.8</ele>
        <time>2025-05-27T08:45:31Z</time>
      </trkpt>
      <trkpt lat="45.68868" lon="5.2385">
        <ele>337.2</ele>
        <time>2025-05-27T08:45:32Z</time>
      </trkpt>
      <trkpt lat="45.68866" lon="5.23848">
        <ele>337.2</ele>
        <time>2025-05-27T08:45:33Z</time>
      </trkpt>
      <trkpt lat="45.68863" lon="5.23847">
        <ele>337.2</ele>
        <time>2025-05-27T08:45:34Z</time>
      </trkpt>
      <trkpt lat="45.68861" lon="5.23846">
        <ele>337.4</ele>
        <time>2025-05-27T08:45:35Z</time>
      </trkpt>
      <trkpt lat="45.68859" lon="5.23845">
        <ele>337.4</ele>
        <time>2025-05-27T08:45:36Z</time>
      </trkpt>
      <trkpt lat="45.68858" lon="5.23844">
        <ele>337.8</ele>
        <time>2025-05-27T08:45:37Z</time>
      </trkpt>
      <trkpt lat="45.68856" lon="5.23843">
        <ele>337.6</ele>
        <time>2025-05-27T08:45:38Z</time>
      </trkpt>
      <trkpt lat="45.68855" lon="5.23842">
        <ele>338</ele>
        <time>2025-05-27T08:45:39Z</time>
      </trkpt>
      <trkpt lat="45.68853" lon="5.23841">
        <ele>338</ele>
        <time>2025-05-27T08:45:40Z</time>
      </trkpt>
      <trkpt lat="45.6885" lon="5.2384">
        <ele>338.4</ele>
        <time>2025-05-27T08:45:41Z</time>
      </trkpt>
      <trkpt lat="45.68849" lon="5.23839">
        <ele>338.6</ele>
        <time>2025-05-27T08:45:42Z</time>
      </trkpt>
      <trkpt lat="45.68847" lon="5.23838">
        <ele>338.8</ele>
        <time>2025-05-27T08:45:43Z</time>
      </trkpt>
      <trkpt lat="45.68844" lon="5.23837">
        <ele>339</ele>
        <time>2025-05-27T08:45:44Z</time>
      </trkpt>
      <trkpt lat="45.68842" lon="5.23836">
        <ele>339</ele>
        <time>2025-05-27T08:45:45Z</time>
      </trkpt>
      <trkpt lat="45.6884" lon="5.23836">
        <ele>339.6</ele>
        <time>2025-05-27T08:45:46Z</time>
      </trkpt>
      <trkpt lat="45.68838" lon="5.23835">
        <ele>339.8</ele>
        <time>2025-05-27T08:45:47Z</time>
      </trkpt>
      <trkpt lat="45.68835" lon="5.23833">
        <ele>340.2</ele>
        <time>2025-05-27T08:45:48Z</time>
      </trkpt>
      <trkpt lat="45.68834" lon="5.23833">
        <ele>340.4</ele>
        <time>2025-05-27T08:45:49Z</time>
      </trkpt>
      <trkpt lat="45.68832" lon="5.23832">
        <ele>340.6</ele>
        <time>2025-05-27T08:45:50Z</time>
      </trkpt>
      <trkpt lat="45.6883" lon="5.23831">
        <ele>341</ele>
        <time>2025-05-27T08:45:51Z</time>
      </trkpt>
      <trkpt lat="45.68828" lon="5.2383">
        <ele>341.4</ele>
        <time>2025-05-27T08:45:52Z</time>
      </trkpt>
      <trkpt lat="45.68826" lon="5.2383">
        <ele>341.4</ele>
        <time>2025-05-27T08:45:53Z</time>
      </trkpt>
      <trkpt lat="45.68825" lon="5.23829">
        <ele>341.8</ele>
        <time>2025-05-27T08:45:54Z</time>
      </trkpt>
      <trkpt lat="45.68823" lon="5.23828">
        <ele>342</ele>
        <time>2025-05-27T08:45:55Z</time>
      </trkpt>
      <trkpt lat="45.68821" lon="5.23827">
        <ele>342</ele>
        <time>2025-05-27T08:45:56Z</time>
      </trkpt>
      <trkpt lat="45.68819" lon="5.23826">
        <ele>342.4</ele>
        <time>2025-05-27T08:45:57Z</time>
      </trkpt>
      <trkpt lat="45.68818" lon="5.23826">
        <ele>342.4</ele>
        <time>2025-05-27T08:45:58Z</time>
      </trkpt>
      <trkpt lat="45.68816" lon="5.23825">
        <ele>342.6</ele>
        <time>2025-05-27T08:45:59Z</time>
      </trkpt>
      <trkpt lat="45.68815" lon="5.23825">
        <ele>342.6</ele>
        <time>2025-05-27T08:46:00Z</time>
      </trkpt>
      <trkpt lat="45.68813" lon="5.23824">
        <ele>343</ele>
        <time>2025-05-27T08:46:01Z</time>
      </trkpt>
      <trkpt lat="45.68811" lon="5.23824">
        <ele>343</ele>
        <time>2025-05-27T08:46:02Z</time>
      </trkpt>
      <trkpt lat="45.6881" lon="5.23823">
        <ele>343</ele>
        <time>2025-05-27T08:46:03Z</time>
      </trkpt>
      <trkpt lat="45.68808" lon="5.23823">
        <ele>343</ele>
        <time>2025-05-27T08:46:04Z</time>
      </trkpt>
      <trkpt lat="45.68806" lon="5.23823">
        <ele>343.4</ele>
        <time>2025-05-27T08:46:05Z</time>
      </trkpt>
      <trkpt lat="45.68804" lon="5.23823">
        <ele>343.6</ele>
        <time>2025-05-27T08:46:06Z</time>
      </trkpt>
      <trkpt lat="45.68803" lon="5.23823">
        <ele>344</ele>
        <time>2025-05-27T08:46:07Z</time>
      </trkpt>
      <trkpt lat="45.68801" lon="5.23822">
        <ele>344.2</ele>
        <time>2025-05-27T08:46:08Z</time>
      </trkpt>
      <trkpt lat="45.68799" lon="5.23822">
        <ele>344.2</ele>
        <time>2025-05-27T08:46:09Z</time>
      </trkpt>
      <trkpt lat="45.68797" lon="5.23821">
        <ele>344.4</ele>
        <time>2025-05-27T08:46:10Z</time>
      </trkpt>
      <trkpt lat="45.68795" lon="5.23821">
        <ele>344.6</ele>
        <time>2025-05-27T08:46:11Z</time>
      </trkpt>
      <trkpt lat="45.68794" lon="5.23821">
        <ele>345</ele>
        <time>2025-05-27T08:46:12Z</time>
      </trkpt>
      <trkpt lat="45.68792" lon="5.23821">
        <ele>345.2</ele>
        <time>2025-05-27T08:46:13Z</time>
      </trkpt>
      <trkpt lat="45.68791" lon="5.23821">
        <ele>345.4</ele>
        <time>2025-05-27T08:46:14Z</time>
      </trkpt>
      <trkpt lat="45.6879" lon="5.2382">
        <ele>345.4</ele>
        <time>2025-05-27T08:46:15Z</time>
      </trkpt>
      <trkpt lat="45.68788" lon="5.2382">
        <ele>345.6</ele>
        <time>2025-05-27T08:46:16Z</time>
      </trkpt>
      <trkpt lat="45.68787" lon="5.23821">
        <ele>345.6</ele>
        <time>2025-05-27T08:46:17Z</time>
      </trkpt>
      <trkpt lat="45.68785" lon="5.23821">
        <ele>346</ele>
        <time>2025-05-27T08:46:18Z</time>
      </trkpt>
      <trkpt lat="45.68784" lon="5.23821">
        <ele>346</ele>
        <time>2025-05-27T08:46:19Z</time>
      </trkpt>
      <trkpt lat="45.68783" lon="5.23821">
        <ele>346</ele>
        <time>2025-05-27T08:46:20Z</time>
      </trkpt>
      <trkpt lat="45.68781" lon="5.23821">
        <ele>346</ele>
        <time>2025-05-27T08:46:21Z</time>
      </trkpt>
      <trkpt lat="45.6878" lon="5.2382">
        <ele>346.2</ele>
        <time>2025-05-27T08:46:22Z</time>
      </trkpt>
      <trkpt lat="45.68779" lon="5.23819">
        <ele>346.2</ele>
        <time>2025-05-27T08:46:23Z</time>
      </trkpt>
      <trkpt lat="45.68778" lon="5.23818">
        <ele>346.4</ele>
        <time>2025-05-27T08:46:24Z</time>
      </trkpt>
      <trkpt lat="45.68776" lon="5.23818">
        <ele>346.8</ele>
        <time>2025-05-27T08:46:25Z</time>
      </trkpt>
      <trkpt lat="45.68775" lon="5.23817">
        <ele>347.4</ele>
        <time>2025-05-27T08:46:26Z</time>
      </trkpt>
      <trkpt lat="45.68774" lon="5.23817">
        <ele>347.6</ele>
        <time>2025-05-27T08:46:27Z</time>
      </trkpt>
      <trkpt lat="45.68773" lon="5.23817">
        <ele>347.6</ele>
        <time>2025-05-27T08:46:28Z</time>
      </trkpt>
      <trkpt lat="45.68772" lon="5.23817">
        <ele>347.8</ele>
        <time>2025-05-27T08:46:29Z</time>
      </trkpt>
      <trkpt lat="45.6877" lon="5.23817">
        <ele>347.8</ele>
        <time>2025-05-27T08:46:30Z</time>
      </trkpt>
      <trkpt lat="45.68769" lon="5.23817">
        <ele>347.8</ele>
        <time>2025-05-27T08:46:31Z</time>
      </trkpt>
      <trkpt lat="45.68767" lon="5.23817">
        <ele>348.2</ele>
        <time>2025-05-27T08:46:32Z</time>
      </trkpt>
      <trkpt lat="45.68766" lon="5.23817">
        <ele>348.4</ele>
        <time>2025-05-27T08:46:33Z</time>
      </trkpt>
      <trkpt lat="45.68764" lon="5.23818">
        <ele>348.4</ele>
        <time>2025-05-27T08:46:34Z</time>
      </trkpt>
      <trkpt lat="45.68763" lon="5.23818">
        <ele>348.4</ele>
        <time>2025-05-27T08:46:35Z</time>
      </trkpt>
      <trkpt lat="45.68761" lon="5.23818">
        <ele>348.4</ele>
        <time>2025-05-27T08:46:36Z</time>
      </trkpt>
      <trkpt lat="45.6876" lon="5.23819">
        <ele>348.8</ele>
        <time>2025-05-27T08:46:37Z</time>
      </trkpt>
      <trkpt lat="45.68758" lon="5.23819">
        <ele>349</ele>
        <time>2025-05-27T08:46:38Z</time>
      </trkpt>
      <trkpt lat="45.68756" lon="5.23819">
        <ele>349.4</ele>
        <time>2025-05-27T08:46:39Z</time>
      </trkpt>
      <trkpt lat="45.68755" lon="5.23819">
        <ele>349.6</ele>
        <time>2025-05-27T08:46:40Z</time>
      </trkpt>
      <trkpt lat="45.68753" lon="5.23819">
        <ele>350</ele>
        <time>2025-05-27T08:46:41Z</time>
      </trkpt>
      <trkpt lat="45.68752" lon="5.23819">
        <ele>350.2</ele>
        <time>2025-05-27T08:46:42Z</time>
      </trkpt>
      <trkpt lat="45.6875" lon="5.23819">
        <ele>350.4</ele>
        <time>2025-05-27T08:46:43Z</time>
      </trkpt>
      <trkpt lat="45.68748" lon="5.23819">
        <ele>350.4</ele>
        <time>2025-05-27T08:46:44Z</time>
      </trkpt>
      <trkpt lat="45.68747" lon="5.23818">
        <ele>350.8</ele>
        <time>2025-05-27T08:46:45Z</time>
      </trkpt>
      <trkpt lat="45.68745" lon="5.23818">
        <ele>350.8</ele>
        <time>2025-05-27T08:46:46Z</time>
      </trkpt>
      <trkpt lat="45.68744" lon="5.23818">
        <ele>351</ele>
        <time>2025-05-27T08:46:47Z</time>
      </trkpt>
      <trkpt lat="45.68742" lon="5.23819">
        <ele>351</ele>
        <time>2025-05-27T08:46:48Z</time>
      </trkpt>
      <trkpt lat="45.6874" lon="5.23819">
        <ele>351.4</ele>
        <time>2025-05-27T08:46:49Z</time>
      </trkpt>
      <trkpt lat="45.68738" lon="5.23819">
        <ele>351.4</ele>
        <time>2025-05-27T08:46:50Z</time>
      </trkpt>
      <trkpt lat="45.68736" lon="5.2382">
        <ele>351.8</ele>
        <time>2025-05-27T08:46:51Z</time>
      </trkpt>
      <trkpt lat="45.68734" lon="5.2382">
        <ele>352.2</ele>
        <time>2025-05-27T08:46:52Z</time>
      </trkpt>
      <trkpt lat="45.68733" lon="5.2382">
        <ele>352.6</ele>
        <time>2025-05-27T08:46:53Z</time>
      </trkpt>
      <trkpt lat="45.68732" lon="5.23821">
        <ele>352.8</ele>
        <time>2025-05-27T08:46:54Z</time>
      </trkpt>
      <trkpt lat="45.6873" lon="5.23821">
        <ele>352.8</ele>
        <time>2025-05-27T08:46:55Z</time>
      </trkpt>
      <trkpt lat="45.68729" lon="5.23821">
        <ele>352.8</ele>
        <time>2025-05-27T08:46:56Z</time>
      </trkpt>
      <trkpt lat="45.68727" lon="5.23821">
        <ele>353.2</ele>
        <time>2025-05-27T08:46:57Z</time>
      </trkpt>
      <trkpt lat="45.68726" lon="5.23821">
        <ele>353.4</ele>
        <time>2025-05-27T08:46:58Z</time>
      </trkpt>
      <trkpt lat="45.68724" lon="5.23821">
        <ele>353.4</ele>
        <time>2025-05-27T08:46:59Z</time>
      </trkpt>
      <trkpt lat="45.68723" lon="5.23822">
        <ele>354</ele>
        <time>2025-05-27T08:47:00Z</time>
      </trkpt>
      <trkpt lat="45.68722" lon="5.23823">
        <ele>354</ele>
        <time>2025-05-27T08:47:01Z</time>
      </trkpt>
      <trkpt lat="45.6872" lon="5.23824">
        <ele>354.4</ele>
        <time>2025-05-27T08:47:02Z</time>
      </trkpt>
      <trkpt lat="45.68719" lon="5.23824">
        <ele>354.6</ele>
        <time>2025-05-27T08:47:03Z</time>
      </trkpt>
      <trkpt lat="45.68717" lon="5.23824">
        <ele>355</ele>
        <time>2025-05-27T08:47:04Z</time>
      </trkpt>
      <trkpt lat="45.68715" lon="5.23825">
        <ele>355</ele>
        <time>2025-05-27T08:47:05Z</time>
      </trkpt>
      <trkpt lat="45.68713" lon="5.23825">
        <ele>355.4</ele>
        <time>2025-05-27T08:47:06Z</time>
      </trkpt>
      <trkpt lat="45.68711" lon="5.23826">
        <ele>355.4</ele>
        <time>2025-05-27T08:47:07Z</time>
      </trkpt>
      <trkpt lat="45.68709" lon="5.23827">
        <ele>355.6</ele>
        <time>2025-05-27T08:47:08Z</time>
      </trkpt>
      <trkpt lat="45.68707" lon="5.23828">
        <ele>355.6</ele>
        <time>2025-05-27T08:47:09Z</time>
      </trkpt>
      <trkpt lat="45.68705" lon="5.23829">
        <ele>355.6</ele>
        <time>2025-05-27T08:47:10Z</time>
      </trkpt>
      <trkpt lat="45.68704" lon="5.23829">
        <ele>355.6</ele>
        <time>2025-05-27T08:47:11Z</time>
      </trkpt>
      <trkpt lat="45.68703" lon="5.23829">
        <ele>355.8</ele>
        <time>2025-05-27T08:47:12Z</time>
      </trkpt>
      <trkpt lat="45.68701" lon="5.2383">
        <ele>355.8</ele>
        <time>2025-05-27T08:47:13Z</time>
      </trkpt>
      <trkpt lat="45.68699" lon="5.23831">
        <ele>355.8</ele>
        <time>2025-05-27T08:47:14Z</time>
      </trkpt>
      <trkpt lat="45.68697" lon="5.23831">
        <ele>355.8</ele>
        <time>2025-05-27T08:47:15Z</time>
      </trkpt>
      <trkpt lat="45.68695" lon="5.23832">
        <ele>355.8</ele>
        <time>2025-05-27T08:47:16Z</time>
      </trkpt>
      <trkpt lat="45.68694" lon="5.23833">
        <ele>356.2</ele>
        <time>2025-05-27T08:47:17Z</time>
      </trkpt>
      <trkpt lat="45.68692" lon="5.23833">
        <ele>356.2</ele>
        <time>2025-05-27T08:47:18Z</time>
      </trkpt>
      <trkpt lat="45.68691" lon="5.23834">
        <ele>356.6</ele>
        <time>2025-05-27T08:47:19Z</time>
      </trkpt>
      <trkpt lat="45.68689" lon="5.23835">
        <ele>357</ele>
        <time>2025-05-27T08:47:20Z</time>
      </trkpt>
      <trkpt lat="45.68687" lon="5.23835">
        <ele>357</ele>
        <time>2025-05-27T08:47:21Z</time>
      </trkpt>
      <trkpt lat="45.68685" lon="5.23836">
        <ele>357</ele>
        <time>2025-05-27T08:47:22Z</time>
      </trkpt>
      <trkpt lat="45.68684" lon="5.23837">
        <ele>357.2</ele>
        <time>2025-05-27T08:47:23Z</time>
      </trkpt>
      <trkpt lat="45.68682" lon="5.23837">
        <ele>355.6</ele>
        <time>2025-05-27T08:47:24Z</time>
      </trkpt>
      <trkpt lat="45.6868" lon="5.23838">
        <ele>356.2</ele>
        <time>2025-05-27T08:47:25Z</time>
      </trkpt>
      <trkpt lat="45.68679" lon="5.23838">
        <ele>356.4</ele>
        <time>2025-05-27T08:47:26Z</time>
      </trkpt>
      <trkpt lat="45.68677" lon="5.23839">
        <ele>356.4</ele>
        <time>2025-05-27T08:47:27Z</time>
      </trkpt>
      <trkpt lat="45.68675" lon="5.23839">
        <ele>356.8</ele>
        <time>2025-05-27T08:47:28Z</time>
      </trkpt>
      <trkpt lat="45.68674" lon="5.2384">
        <ele>357</ele>
        <time>2025-05-27T08:47:29Z</time>
      </trkpt>
      <trkpt lat="45.68672" lon="5.2384">
        <ele>357</ele>
        <time>2025-05-27T08:47:30Z</time>
      </trkpt>
      <trkpt lat="45.6867" lon="5.23841">
        <ele>357.2</ele>
        <time>2025-05-27T08:47:31Z</time>
      </trkpt>
      <trkpt lat="45.68668" lon="5.23841">
        <ele>357.2</ele>
        <time>2025-05-27T08:47:32Z</time>
      </trkpt>
      <trkpt lat="45.68665" lon="5.23842">
        <ele>357.4</ele>
        <time>2025-05-27T08:47:33Z</time>
      </trkpt>
      <trkpt lat="45.68662" lon="5.23842">
        <ele>357.4</ele>
        <time>2025-05-27T08:47:34Z</time>
      </trkpt>
      <trkpt lat="45.6866" lon="5.23842">
        <ele>357.8</ele>
        <time>2025-05-27T08:47:35Z</time>
      </trkpt>
      <trkpt lat="45.68658" lon="5.23842">
        <ele>357.8</ele>
        <time>2025-05-27T08:47:36Z</time>
      </trkpt>
      <trkpt lat="45.68657" lon="5.23842">
        <ele>358</ele>
        <time>2025-05-27T08:47:37Z</time>
      </trkpt>
      <trkpt lat="45.68656" lon="5.23842">
        <ele>358</ele>
        <time>2025-05-27T08:47:38Z</time>
      </trkpt>
      <trkpt lat="45.68655" lon="5.23842">
        <ele>358.2</ele>
        <time>2025-05-27T08:47:39Z</time>
      </trkpt>
      <trkpt lat="45.68655" lon="5.23842">
        <ele>358.2</ele>
        <time>2025-05-27T08:47:40Z</time>
      </trkpt>
      <trkpt lat="45.68654" lon="5.23842">
        <ele>359.4</ele>
        <time>2025-05-27T08:47:51Z</time>
      </trkpt>
      <trkpt lat="45.68652" lon="5.23842">
        <ele>359</ele>
        <time>2025-05-27T08:47:52Z</time>
      </trkpt>
      <trkpt lat="45.68651" lon="5.23842">
        <ele>359</ele>
        <time>2025-05-27T08:47:53Z</time>
      </trkpt>
      <trkpt lat="45.68648" lon="5.23842">
        <ele>359</ele>
        <time>2025-05-27T08:47:54Z</time>
      </trkpt>
      <trkpt lat="45.68646" lon="5.23841">
        <ele>358.6</ele>
        <time>2025-05-27T08:47:55Z</time>
      </trkpt>
      <trkpt lat="45.68644" lon="5.23841">
        <ele>358.6</ele>
        <time>2025-05-27T08:47:56Z</time>
      </trkpt>
      <trkpt lat="45.68641" lon="5.23841">
        <ele>358.6</ele>
        <time>2025-05-27T08:47:57Z</time>
      </trkpt>
      <trkpt lat="45.68638" lon="5.23841">
        <ele>358.6</ele>
        <time>2025-05-27T08:47:58Z</time>
      </trkpt>
      <trkpt lat="45.68636" lon="5.23841">
        <ele>358.4</ele>
        <time>2025-05-27T08:47:59Z</time>
      </trkpt>
      <trkpt lat="45.68633" lon="5.23841">
        <ele>358.2</ele>
        <time>2025-05-27T08:48:00Z</time>
      </trkpt>
      <trkpt lat="45.6863" lon="5.23841">
        <ele>358.2</ele>
        <time>2025-05-27T08:48:01Z</time>
      </trkpt>
      <trkpt lat="45.68627" lon="5.23841">
        <ele>357.8</ele>
        <time>2025-05-27T08:48:02Z</time>
      </trkpt>
      <trkpt lat="45.68624" lon="5.23841">
        <ele>357.8</ele>
        <time>2025-05-27T08:48:03Z</time>
      </trkpt>
      <trkpt lat="45.68621" lon="5.23841">
        <ele>357.8</ele>
        <time>2025-05-27T08:48:04Z</time>
      </trkpt>
      <trkpt lat="45.68618" lon="5.23841">
        <ele>357.8</ele>
        <time>2025-05-27T08:48:05Z</time>
      </trkpt>
      <trkpt lat="45.68615" lon="5.23841">
        <ele>357.8</ele>
        <time>2025-05-27T08:48:06Z</time>
      </trkpt>
      <trkpt lat="45.68611" lon="5.23841">
        <ele>357.6</ele>
        <time>2025-05-27T08:48:07Z</time>
      </trkpt>
      <trkpt lat="45.68608" lon="5.23841">
        <ele>357.6</ele>
        <time>2025-05-27T08:48:08Z</time>
      </trkpt>
      <trkpt lat="45.68606" lon="5.23841">
        <ele>357.4</ele>
        <time>2025-05-27T08:48:09Z</time>
      </trkpt>
      <trkpt lat="45.68603" lon="5.23841">
        <ele>357.4</ele>
        <time>2025-05-27T08:48:10Z</time>
      </trkpt>
      <trkpt lat="45.686" lon="5.23841">
        <ele>357.4</ele>
        <time>2025-05-27T08:48:11Z</time>
      </trkpt>
      <trkpt lat="45.68597" lon="5.2384">
        <ele>357.4</ele>
        <time>2025-05-27T08:48:12Z</time>
      </trkpt>
      <trkpt lat="45.68594" lon="5.2384">
        <ele>357.8</ele>
        <time>2025-05-27T08:48:13Z</time>
      </trkpt>
      <trkpt lat="45.68591" lon="5.2384">
        <ele>357.8</ele>
        <time>2025-05-27T08:48:14Z</time>
      </trkpt>
      <trkpt lat="45.68588" lon="5.23841">
        <ele>358.2</ele>
        <time>2025-05-27T08:48:15Z</time>
      </trkpt>
      <trkpt lat="45.68585" lon="5.23841">
        <ele>358.2</ele>
        <time>2025-05-27T08:48:16Z</time>
      </trkpt>
      <trkpt lat="45.68583" lon="5.23842">
        <ele>359</ele>
        <time>2025-05-27T08:48:17Z</time>
      </trkpt>
      <trkpt lat="45.6858" lon="5.23842">
        <ele>359</ele>
        <time>2025-05-27T08:48:18Z</time>
      </trkpt>
      <trkpt lat="45.68578" lon="5.23842">
        <ele>359</ele>
        <time>2025-05-27T08:48:19Z</time>
      </trkpt>
      <trkpt lat="45.68576" lon="5.23843">
        <ele>359.4</ele>
        <time>2025-05-27T08:48:20Z</time>
      </trkpt>
      <trkpt lat="45.68574" lon="5.23843">
        <ele>359.8</ele>
        <time>2025-05-27T08:48:21Z</time>
      </trkpt>
      <trkpt lat="45.68572" lon="5.23843">
        <ele>359.8</ele>
        <time>2025-05-27T08:48:22Z</time>
      </trkpt>
      <trkpt lat="45.6857" lon="5.23843">
        <ele>359.8</ele>
        <time>2025-05-27T08:48:23Z</time>
      </trkpt>
      <trkpt lat="45.68568" lon="5.23843">
        <ele>359.8</ele>
        <time>2025-05-27T08:48:24Z</time>
      </trkpt>
      <trkpt lat="45.68566" lon="5.23843">
        <ele>359.8</ele>
        <time>2025-05-27T08:48:25Z</time>
      </trkpt>
      <trkpt lat="45.68563" lon="5.23845">
        <ele>360</ele>
        <time>2025-05-27T08:48:26Z</time>
      </trkpt>
      <trkpt lat="45.6856" lon="5.23845">
        <ele>359.8</ele>
        <time>2025-05-27T08:48:27Z</time>
      </trkpt>
      <trkpt lat="45.68558" lon="5.23845">
        <ele>360.4</ele>
        <time>2025-05-27T08:48:28Z</time>
      </trkpt>
      <trkpt lat="45.68557" lon="5.23844">
        <ele>360.8</ele>
        <time>2025-05-27T08:48:29Z</time>
      </trkpt>
      <trkpt lat="45.68556" lon="5.23843">
        <ele>361.4</ele>
        <time>2025-05-27T08:48:30Z</time>
      </trkpt>
      <trkpt lat="45.68555" lon="5.23841">
        <ele>361.6</ele>
        <time>2025-05-27T08:48:31Z</time>
      </trkpt>
      <trkpt lat="45.68554" lon="5.2384">
        <ele>362.4</ele>
        <time>2025-05-27T08:48:32Z</time>
      </trkpt>
      <trkpt lat="45.68554" lon="5.23839">
        <ele>362.8</ele>
        <time>2025-05-27T08:48:33Z</time>
      </trkpt>
      <trkpt lat="45.68553" lon="5.23838">
        <ele>362.8</ele>
        <time>2025-05-27T08:48:34Z</time>
      </trkpt>
      <trkpt lat="45.68553" lon="5.23835">
        <ele>363.4</ele>
        <time>2025-05-27T08:48:35Z</time>
      </trkpt>
      <trkpt lat="45.68553" lon="5.23833">
        <ele>363.4</ele>
        <time>2025-05-27T08:48:36Z</time>
      </trkpt>
      <trkpt lat="45.68552" lon="5.23831">
        <ele>363.8</ele>
        <time>2025-05-27T08:48:37Z</time>
      </trkpt>
      <trkpt lat="45.68552" lon="5.23828">
        <ele>364.2</ele>
        <time>2025-05-27T08:48:38Z</time>
      </trkpt>
      <trkpt lat="45.68551" lon="5.23826">
        <ele>364.6</ele>
        <time>2025-05-27T08:48:39Z</time>
      </trkpt>
      <trkpt lat="45.68551" lon="5.23824">
        <ele>364.6</ele>
        <time>2025-05-27T08:48:40Z</time>
      </trkpt>
      <trkpt lat="45.6855" lon="5.23822">
        <ele>364.8</ele>
        <time>2025-05-27T08:48:41Z</time>
      </trkpt>
      <trkpt lat="45.68549" lon="5.2382">
        <ele>365</ele>
        <time>2025-05-27T08:48:42Z</time>
      </trkpt>
      <trkpt lat="45.68548" lon="5.23817">
        <ele>365.4</ele>
        <time>2025-05-27T08:48:43Z</time>
      </trkpt>
      <trkpt lat="45.68548" lon="5.23817">
        <ele>365.4</ele>
        <time>2025-05-27T08:48:44Z</time>
      </trkpt>
      <trkpt lat="45.68547" lon="5.23815">
        <ele>365.4</ele>
        <time>2025-05-27T08:48:45Z</time>
      </trkpt>
      <trkpt lat="45.68547" lon="5.23813">
        <ele>365.8</ele>
        <time>2025-05-27T08:48:46Z</time>
      </trkpt>
      <trkpt lat="45.68546" lon="5.23811">
        <ele>366.2</ele>
        <time>2025-05-27T08:48:47Z</time>
      </trkpt>
      <trkpt lat="45.68546" lon="5.2381">
        <ele>366.2</ele>
        <time>2025-05-27T08:48:48Z</time>
      </trkpt>
      <trkpt lat="45.68545" lon="5.23808">
        <ele>367</ele>
        <time>2025-05-27T08:48:49Z</time>
      </trkpt>
      <trkpt lat="45.68545" lon="5.23806">
        <ele>367.2</ele>
        <time>2025-05-27T08:48:50Z</time>
      </trkpt>
      <trkpt lat="45.68545" lon="5.23805">
        <ele>367.2</ele>
        <time>2025-05-27T08:48:51Z</time>
      </trkpt>
      <trkpt lat="45.68544" lon="5.23804">
        <ele>367.8</ele>
        <time>2025-05-27T08:48:52Z</time>
      </trkpt>
      <trkpt lat="45.68543" lon="5.23804">
        <ele>367.8</ele>
        <time>2025-05-27T08:48:53Z</time>
      </trkpt>
      <trkpt lat="45.68543" lon="5.23802">
        <ele>368</ele>
        <time>2025-05-27T08:48:54Z</time>
      </trkpt>
      <trkpt lat="45.68542" lon="5.23801">
        <ele>368</ele>
        <time>2025-05-27T08:48:55Z</time>
      </trkpt>
      <trkpt lat="45.68541" lon="5.238">
        <ele>368</ele>
        <time>2025-05-27T08:48:56Z</time>
      </trkpt>
      <trkpt lat="45.68541" lon="5.238">
        <ele>368.4</ele>
        <time>2025-05-27T08:48:57Z</time>
      </trkpt>
      <trkpt lat="45.6854" lon="5.23798">
        <ele>368.4</ele>
        <time>2025-05-27T08:48:58Z</time>
      </trkpt>
      <trkpt lat="45.68539" lon="5.23797">
        <ele>368.4</ele>
        <time>2025-05-27T08:48:59Z</time>
      </trkpt>
      <trkpt lat="45.68538" lon="5.23797">
        <ele>368.8</ele>
        <time>2025-05-27T08:49:00Z</time>
      </trkpt>
      <trkpt lat="45.68537" lon="5.23796">
        <ele>369</ele>
        <time>2025-05-27T08:49:01Z</time>
      </trkpt>
      <trkpt lat="45.68536" lon="5.23795">
        <ele>369</ele>
        <time>2025-05-27T08:49:02Z</time>
      </trkpt>
      <trkpt lat="45.68535" lon="5.23794">
        <ele>369.6</ele>
        <time>2025-05-27T08:49:03Z</time>
      </trkpt>
      <trkpt lat="45.68534" lon="5.23793">
        <ele>369.6</ele>
        <time>2025-05-27T08:49:04Z</time>
      </trkpt>
      <trkpt lat="45.68533" lon="5.23792">
        <ele>369.8</ele>
        <time>2025-05-27T08:49:05Z</time>
      </trkpt>
      <trkpt lat="45.68531" lon="5.23791">
        <ele>369.8</ele>
        <time>2025-05-27T08:49:06Z</time>
      </trkpt>
      <trkpt lat="45.6853" lon="5.2379">
        <ele>370.4</ele>
        <time>2025-05-27T08:49:07Z</time>
      </trkpt>
      <trkpt lat="45.68529" lon="5.2379">
        <ele>370.6</ele>
        <time>2025-05-27T08:49:08Z</time>
      </trkpt>
      <trkpt lat="45.68527" lon="5.2379">
        <ele>371</ele>
        <time>2025-05-27T08:49:09Z</time>
      </trkpt>
      <trkpt lat="45.68526" lon="5.23789">
        <ele>371</ele>
        <time>2025-05-27T08:49:10Z</time>
      </trkpt>
      <trkpt lat="45.68526" lon="5.23788">
        <ele>371.2</ele>
        <time>2025-05-27T08:49:11Z</time>
      </trkpt>
      <trkpt lat="45.68525" lon="5.23787">
        <ele>371.2</ele>
        <time>2025-05-27T08:49:12Z</time>
      </trkpt>
      <trkpt lat="45.68525" lon="5.23786">
        <ele>371.6</ele>
        <time>2025-05-27T08:49:13Z</time>
      </trkpt>
      <trkpt lat="45.68525" lon="5.23784">
        <ele>372</ele>
        <time>2025-05-27T08:49:14Z</time>
      </trkpt>
      <trkpt lat="45.68524" lon="5.23782">
        <ele>372.2</ele>
        <time>2025-05-27T08:49:15Z</time>
      </trkpt>
      <trkpt lat="45.68523" lon="5.2378">
        <ele>372.2</ele>
        <time>2025-05-27T08:49:16Z</time>
      </trkpt>
      <trkpt lat="45.68521" lon="5.23778">
        <ele>372</ele>
        <time>2025-05-27T08:49:17Z</time>
      </trkpt>
      <trkpt lat="45.6852" lon="5.23776">
        <ele>372.2</ele>
        <time>2025-05-27T08:49:18Z</time>
      </trkpt>
      <trkpt lat="45.6852" lon="5.23775">
        <ele>372.2</ele>
        <time>2025-05-27T08:49:19Z</time>
      </trkpt>
      <trkpt lat="45.68519" lon="5.23774">
        <ele>372.2</ele>
        <time>2025-05-27T08:49:20Z</time>
      </trkpt>
      <trkpt lat="45.68519" lon="5.23773">
        <ele>372.8</ele>
        <time>2025-05-27T08:49:21Z</time>
      </trkpt>
      <trkpt lat="45.68518" lon="5.23772">
        <ele>373</ele>
        <time>2025-05-27T08:49:22Z</time>
      </trkpt>
      <trkpt lat="45.68518" lon="5.23771">
        <ele>373.2</ele>
        <time>2025-05-27T08:49:23Z</time>
      </trkpt>
      <trkpt lat="45.68517" lon="5.2377">
        <ele>373.4</ele>
        <time>2025-05-27T08:49:24Z</time>
      </trkpt>
      <trkpt lat="45.68517" lon="5.23769">
        <ele>373.4</ele>
        <time>2025-05-27T08:49:25Z</time>
      </trkpt>
      <trkpt lat="45.68516" lon="5.23767">
        <ele>374</ele>
        <time>2025-05-27T08:49:26Z</time>
      </trkpt>
      <trkpt lat="45.68515" lon="5.23766">
        <ele>374</ele>
        <time>2025-05-27T08:49:27Z</time>
      </trkpt>
      <trkpt lat="45.68514" lon="5.23764">
        <ele>374.2</ele>
        <time>2025-05-27T08:49:28Z</time>
      </trkpt>
      <trkpt lat="45.68513" lon="5.23762">
        <ele>374.6</ele>
        <time>2025-05-27T08:49:29Z</time>
      </trkpt>
      <trkpt lat="45.68513" lon="5.2376">
        <ele>374.8</ele>
        <time>2025-05-27T08:49:30Z</time>
      </trkpt>
      <trkpt lat="45.68512" lon="5.23759">
        <ele>374.8</ele>
        <time>2025-05-27T08:49:31Z</time>
      </trkpt>
      <trkpt lat="45.68511" lon="5.23757">
        <ele>374.8</ele>
        <time>2025-05-27T08:49:32Z</time>
      </trkpt>
      <trkpt lat="45.6851" lon="5.23755">
        <ele>375.4</ele>
        <time>2025-05-27T08:49:33Z</time>
      </trkpt>
      <trkpt lat="45.68509" lon="5.23754">
        <ele>375.6</ele>
        <time>2025-05-27T08:49:34Z</time>
      </trkpt>
      <trkpt lat="45.68509" lon="5.23752">
        <ele>375.6</ele>
        <time>2025-05-27T08:49:35Z</time>
      </trkpt>
      <trkpt lat="45.68508" lon="5.2375">
        <ele>376</ele>
        <time>2025-05-27T08:49:36Z</time>
      </trkpt>
      <trkpt lat="45.68507" lon="5.23749">
        <ele>376.2</ele>
        <time>2025-05-27T08:49:37Z</time>
      </trkpt>
      <trkpt lat="45.68506" lon="5.23747">
        <ele>376.2</ele>
        <time>2025-05-27T08:49:38Z</time>
      </trkpt>
      <trkpt lat="45.68506" lon="5.23746">
        <ele>376.4</ele>
        <time>2025-05-27T08:49:39Z</time>
      </trkpt>
      <trkpt lat="45.68505" lon="5.23744">
        <ele>376.4</ele>
        <time>2025-05-27T08:49:40Z</time>
      </trkpt>
      <trkpt lat="45.68505" lon="5.23742">
        <ele>376.4</ele>
        <time>2025-05-27T08:49:41Z</time>
      </trkpt>
      <trkpt lat="45.68505" lon="5.23742">
        <ele>376.8</ele>
        <time>2025-05-27T08:49:42Z</time>
      </trkpt>
      <trkpt lat="45.68505" lon="5.23742">
        <ele>376.8</ele>
        <time>2025-05-27T08:49:43Z</time>
      </trkpt>
      <trkpt lat="45.68502" lon="5.23735">
        <ele>376.8</ele>
        <time>2025-05-27T08:49:45Z</time>
      </trkpt>
      <trkpt lat="45.68502" lon="5.23732">
        <ele>376.6</ele>
        <time>2025-05-27T08:49:46Z</time>
      </trkpt>
      <trkpt lat="45.68501" lon="5.2373">
        <ele>376.6</ele>
        <time>2025-05-27T08:49:47Z</time>
      </trkpt>
      <trkpt lat="45.68501" lon="5.23728">
        <ele>376.6</ele>
        <time>2025-05-27T08:49:48Z</time>
      </trkpt>
      <trkpt lat="45.685" lon="5.23726">
        <ele>376.8</ele>
        <time>2025-05-27T08:49:49Z</time>
      </trkpt>
      <trkpt lat="45.685" lon="5.23723">
        <ele>376.8</ele>
        <time>2025-05-27T08:49:50Z</time>
      </trkpt>
      <trkpt lat="45.68499" lon="5.2372">
        <ele>376.8</ele>
        <time>2025-05-27T08:49:51Z</time>
      </trkpt>
      <trkpt lat="45.68498" lon="5.23717">
        <ele>377.2</ele>
        <time>2025-05-27T08:49:52Z</time>
      </trkpt>
      <trkpt lat="45.68497" lon="5.23714">
        <ele>377.2</ele>
        <time>2025-05-27T08:49:53Z</time>
      </trkpt>
      <trkpt lat="45.68495" lon="5.23712">
        <ele>377.2</ele>
        <time>2025-05-27T08:49:54Z</time>
      </trkpt>
      <trkpt lat="45.68494" lon="5.23709">
        <ele>377.2</ele>
        <time>2025-05-27T08:49:55Z</time>
      </trkpt>
      <trkpt lat="45.68494" lon="5.23706">
        <ele>377.2</ele>
        <time>2025-05-27T08:49:56Z</time>
      </trkpt>
      <trkpt lat="45.68493" lon="5.23704">
        <ele>377.4</ele>
        <time>2025-05-27T08:49:57Z</time>
      </trkpt>
      <trkpt lat="45.68491" lon="5.23701">
        <ele>377.4</ele>
        <time>2025-05-27T08:49:58Z</time>
      </trkpt>
      <trkpt lat="45.6849" lon="5.23699">
        <ele>377.6</ele>
        <time>2025-05-27T08:49:59Z</time>
      </trkpt>
      <trkpt lat="45.68488" lon="5.23697">
        <ele>377.6</ele>
        <time>2025-05-27T08:50:00Z</time>
      </trkpt>
      <trkpt lat="45.68487" lon="5.23695">
        <ele>377.8</ele>
        <time>2025-05-27T08:50:01Z</time>
      </trkpt>
      <trkpt lat="45.68487" lon="5.23693">
        <ele>378</ele>
        <time>2025-05-27T08:50:02Z</time>
      </trkpt>
      <trkpt lat="45.68486" lon="5.2369">
        <ele>378.4</ele>
        <time>2025-05-27T08:50:03Z</time>
      </trkpt>
      <trkpt lat="45.68484" lon="5.23688">
        <ele>378.4</ele>
        <time>2025-05-27T08:50:04Z</time>
      </trkpt>
      <trkpt lat="45.68483" lon="5.23687">
        <ele>378.4</ele>
        <time>2025-05-27T08:50:05Z</time>
      </trkpt>
      <trkpt lat="45.68483" lon="5.23685">
        <ele>379</ele>
        <time>2025-05-27T08:50:06Z</time>
      </trkpt>
      <trkpt lat="45.68482" lon="5.23684">
        <ele>379</ele>
        <time>2025-05-27T08:50:07Z</time>
      </trkpt>
      <trkpt lat="45.68481" lon="5.23682">
        <ele>379.2</ele>
        <time>2025-05-27T08:50:08Z</time>
      </trkpt>
      <trkpt lat="45.6848" lon="5.2368">
        <ele>379.2</ele>
        <time>2025-05-27T08:50:09Z</time>
      </trkpt>
      <trkpt lat="45.6848" lon="5.23678">
        <ele>379.4</ele>
        <time>2025-05-27T08:50:10Z</time>
      </trkpt>
      <trkpt lat="45.68479" lon="5.23676">
        <ele>379.4</ele>
        <time>2025-05-27T08:50:11Z</time>
      </trkpt>
      <trkpt lat="45.68478" lon="5.23673">
        <ele>379.4</ele>
        <time>2025-05-27T08:50:12Z</time>
      </trkpt>
      <trkpt lat="45.68477" lon="5.2367">
        <ele>379.4</ele>
        <time>2025-05-27T08:50:13Z</time>
      </trkpt>
      <trkpt lat="45.68476" lon="5.23667">
        <ele>379.4</ele>
        <time>2025-05-27T08:50:14Z</time>
      </trkpt>
      <trkpt lat="45.68475" lon="5.23664">
        <ele>379.4</ele>
        <time>2025-05-27T08:50:15Z</time>
      </trkpt>
      <trkpt lat="45.68474" lon="5.23661">
        <ele>379.6</ele>
        <time>2025-05-27T08:50:16Z</time>
      </trkpt>
      <trkpt lat="45.68473" lon="5.23657">
        <ele>379.6</ele>
        <time>2025-05-27T08:50:17Z</time>
      </trkpt>
      <trkpt lat="45.68472" lon="5.23654">
        <ele>379.6</ele>
        <time>2025-05-27T08:50:18Z</time>
      </trkpt>
      <trkpt lat="45.68471" lon="5.2365">
        <ele>379.6</ele>
        <time>2025-05-27T08:50:19Z</time>
      </trkpt>
      <trkpt lat="45.6847" lon="5.23646">
        <ele>379.6</ele>
        <time>2025-05-27T08:50:20Z</time>
      </trkpt>
      <trkpt lat="45.68469" lon="5.23642">
        <ele>379.6</ele>
        <time>2025-05-27T08:50:21Z</time>
      </trkpt>
      <trkpt lat="45.68468" lon="5.23638">
        <ele>379.4</ele>
        <time>2025-05-27T08:50:22Z</time>
      </trkpt>
      <trkpt lat="45.68467" lon="5.23634">
        <ele>379.4</ele>
        <time>2025-05-27T08:50:23Z</time>
      </trkpt>
      <trkpt lat="45.68466" lon="5.2363">
        <ele>380</ele>
        <time>2025-05-27T08:50:24Z</time>
      </trkpt>
      <trkpt lat="45.68465" lon="5.23626">
        <ele>379.8</ele>
        <time>2025-05-27T08:50:25Z</time>
      </trkpt>
      <trkpt lat="45.68464" lon="5.23622">
        <ele>379.8</ele>
        <time>2025-05-27T08:50:26Z</time>
      </trkpt>
      <trkpt lat="45.68463" lon="5.23618">
        <ele>379.8</ele>
        <time>2025-05-27T08:50:27Z</time>
      </trkpt>
      <trkpt lat="45.68462" lon="5.23613">
        <ele>379.4</ele>
        <time>2025-05-27T08:50:28Z</time>
      </trkpt>
      <trkpt lat="45.68461" lon="5.23609">
        <ele>379.4</ele>
        <time>2025-05-27T08:50:29Z</time>
      </trkpt>
      <trkpt lat="45.6846" lon="5.23604">
        <ele>379.4</ele>
        <time>2025-05-27T08:50:30Z</time>
      </trkpt>
      <trkpt lat="45.68459" lon="5.236">
        <ele>379.4</ele>
        <time>2025-05-27T08:50:31Z</time>
      </trkpt>
      <trkpt lat="45.68458" lon="5.23596">
        <ele>379.4</ele>
        <time>2025-05-27T08:50:32Z</time>
      </trkpt>
      <trkpt lat="45.68456" lon="5.23591">
        <ele>379.4</ele>
        <time>2025-05-27T08:50:33Z</time>
      </trkpt>
      <trkpt lat="45.68456" lon="5.23588">
        <ele>379.4</ele>
        <time>2025-05-27T08:50:34Z</time>
      </trkpt>
      <trkpt lat="45.68455" lon="5.23585">
        <ele>379.4</ele>
        <time>2025-05-27T08:50:35Z</time>
      </trkpt>
      <trkpt lat="45.68453" lon="5.23583">
        <ele>379.8</ele>
        <time>2025-05-27T08:50:36Z</time>
      </trkpt>
      <trkpt lat="45.68453" lon="5.23583">
        <ele>379.8</ele>
        <time>2025-05-27T08:50:37Z</time>
      </trkpt>
      <trkpt lat="45.68448" lon="5.23574">
        <ele>380.2</ele>
        <time>2025-05-27T08:50:38Z</time>
      </trkpt>
      <trkpt lat="45.68448" lon="5.23571">
        <ele>380.2</ele>
        <time>2025-05-27T08:50:39Z</time>
      </trkpt>
      <trkpt lat="45.68448" lon="5.23571">
        <ele>380.4</ele>
        <time>2025-05-27T08:50:40Z</time>
      </trkpt>
      <trkpt lat="45.68447" lon="5.23567">
        <ele>380.8</ele>
        <time>2025-05-27T08:50:41Z</time>
      </trkpt>
      <trkpt lat="45.68446" lon="5.23563">
        <ele>380.8</ele>
        <time>2025-05-27T08:50:42Z</time>
      </trkpt>
      <trkpt lat="45.68445" lon="5.2356">
        <ele>381</ele>
        <time>2025-05-27T08:50:43Z</time>
      </trkpt>
      <trkpt lat="45.68445" lon="5.23556">
        <ele>381</ele>
        <time>2025-05-27T08:50:44Z</time>
      </trkpt>
      <trkpt lat="45.68444" lon="5.23552">
        <ele>380.8</ele>
        <time>2025-05-27T08:50:45Z</time>
      </trkpt>
      <trkpt lat="45.68443" lon="5.23547">
        <ele>380.8</ele>
        <time>2025-05-27T08:50:46Z</time>
      </trkpt>
      <trkpt lat="45.68442" lon="5.23544">
        <ele>380.8</ele>
        <time>2025-05-27T08:50:47Z</time>
      </trkpt>
      <trkpt lat="45.68442" lon="5.23541">
        <ele>380.8</ele>
        <time>2025-05-27T08:50:48Z</time>
      </trkpt>
      <trkpt lat="45.68441" lon="5.2354">
        <ele>381</ele>
        <time>2025-05-27T08:50:49Z</time>
      </trkpt>
      <trkpt lat="45.68441" lon="5.23539">
        <ele>381</ele>
        <time>2025-05-27T08:50:50Z</time>
      </trkpt>
      <trkpt lat="45.68441" lon="5.23539">
        <ele>381</ele>
        <time>2025-05-27T08:50:51Z</time>
      </trkpt>
      <trkpt lat="45.68439" lon="5.23534">
        <ele>381.8</ele>
        <time>2025-05-27T08:52:02Z</time>
      </trkpt>
      <trkpt lat="45.68438" lon="5.23531">
        <ele>381.8</ele>
        <time>2025-05-27T08:52:03Z</time>
      </trkpt>
      <trkpt lat="45.68436" lon="5.23528">
        <ele>381.8</ele>
        <time>2025-05-27T08:52:04Z</time>
      </trkpt>
      <trkpt lat="45.68434" lon="5.23526">
        <ele>381.8</ele>
        <time>2025-05-27T08:52:05Z</time>
      </trkpt>
      <trkpt lat="45.68432" lon="5.23523">
        <ele>381.8</ele>
        <time>2025-05-27T08:52:06Z</time>
      </trkpt>
      <trkpt lat="45.68431" lon="5.23519">
        <ele>381.8</ele>
        <time>2025-05-27T08:52:07Z</time>
      </trkpt>
      <trkpt lat="45.68429" lon="5.23516">
        <ele>382.4</ele>
        <time>2025-05-27T08:52:08Z</time>
      </trkpt>
      <trkpt lat="45.68428" lon="5.23512">
        <ele>381.8</ele>
        <time>2025-05-27T08:52:09Z</time>
      </trkpt>
      <trkpt lat="45.68426" lon="5.23509">
        <ele>382</ele>
        <time>2025-05-27T08:52:10Z</time>
      </trkpt>
      <trkpt lat="45.68425" lon="5.23505">
        <ele>382</ele>
        <time>2025-05-27T08:52:11Z</time>
      </trkpt>
      <trkpt lat="45.68423" lon="5.23501">
        <ele>381.8</ele>
        <time>2025-05-27T08:52:12Z</time>
      </trkpt>
      <trkpt lat="45.6842" lon="5.23498">
        <ele>381.6</ele>
        <time>2025-05-27T08:52:13Z</time>
      </trkpt>
      <trkpt lat="45.68418" lon="5.23494">
        <ele>381.6</ele>
        <time>2025-05-27T08:52:14Z</time>
      </trkpt>
      <trkpt lat="45.68416" lon="5.23491">
        <ele>381.6</ele>
        <time>2025-05-27T08:52:15Z</time>
      </trkpt>
      <trkpt lat="45.68415" lon="5.23489">
        <ele>381.4</ele>
        <time>2025-05-27T08:52:16Z</time>
      </trkpt>
      <trkpt lat="45.68414" lon="5.23487">
        <ele>381</ele>
        <time>2025-05-27T08:52:17Z</time>
      </trkpt>
      <trkpt lat="45.68414" lon="5.23485">
        <ele>381</ele>
        <time>2025-05-27T08:52:18Z</time>
      </trkpt>
      <trkpt lat="45.68413" lon="5.23482">
        <ele>381.2</ele>
        <time>2025-05-27T08:52:19Z</time>
      </trkpt>
      <trkpt lat="45.68411" lon="5.23479">
        <ele>381.6</ele>
        <time>2025-05-27T08:52:20Z</time>
      </trkpt>
      <trkpt lat="45.68409" lon="5.23475">
        <ele>381.6</ele>
        <time>2025-05-27T08:52:21Z</time>
      </trkpt>
      <trkpt lat="45.68406" lon="5.23472">
        <ele>381.6</ele>
        <time>2025-05-27T08:52:22Z</time>
      </trkpt>
      <trkpt lat="45.68404" lon="5.23469">
        <ele>381.6</ele>
        <time>2025-05-27T08:52:23Z</time>
      </trkpt>
      <trkpt lat="45.68402" lon="5.23467">
        <ele>381.6</ele>
        <time>2025-05-27T08:52:24Z</time>
      </trkpt>
      <trkpt lat="45.684" lon="5.23464">
        <ele>381.6</ele>
        <time>2025-05-27T08:52:25Z</time>
      </trkpt>
      <trkpt lat="45.68398" lon="5.23461">
        <ele>381.6</ele>
        <time>2025-05-27T08:52:26Z</time>
      </trkpt>
      <trkpt lat="45.68396" lon="5.23459">
        <ele>381.6</ele>
        <time>2025-05-27T08:52:27Z</time>
      </trkpt>
      <trkpt lat="45.68393" lon="5.23457">
        <ele>382.2</ele>
        <time>2025-05-27T08:52:28Z</time>
      </trkpt>
      <trkpt lat="45.68391" lon="5.23456">
        <ele>382.4</ele>
        <time>2025-05-27T08:52:29Z</time>
      </trkpt>
      <trkpt lat="45.68388" lon="5.23454">
        <ele>382.6</ele>
        <time>2025-05-27T08:52:30Z</time>
      </trkpt>
      <trkpt lat="45.68385" lon="5.23453">
        <ele>382.8</ele>
        <time>2025-05-27T08:52:31Z</time>
      </trkpt>
      <trkpt lat="45.68382" lon="5.23452">
        <ele>382.8</ele>
        <time>2025-05-27T08:52:32Z</time>
      </trkpt>
      <trkpt lat="45.6838" lon="5.2345">
        <ele>383.2</ele>
        <time>2025-05-27T08:52:33Z</time>
      </trkpt>
      <trkpt lat="45.68377" lon="5.23449">
        <ele>383.4</ele>
        <time>2025-05-27T08:52:34Z</time>
      </trkpt>
      <trkpt lat="45.68374" lon="5.23447">
        <ele>383.4</ele>
        <time>2025-05-27T08:52:35Z</time>
      </trkpt>
      <trkpt lat="45.68371" lon="5.23445">
        <ele>383.8</ele>
        <time>2025-05-27T08:52:36Z</time>
      </trkpt>
      <trkpt lat="45.68368" lon="5.23443">
        <ele>383.8</ele>
        <time>2025-05-27T08:52:37Z</time>
      </trkpt>
      <trkpt lat="45.68365" lon="5.23441">
        <ele>383.8</ele>
        <time>2025-05-27T08:52:38Z</time>
      </trkpt>
      <trkpt lat="45.68363" lon="5.23438">
        <ele>383.8</ele>
        <time>2025-05-27T08:52:39Z</time>
      </trkpt>
      <trkpt lat="45.68358" lon="5.23431">
        <ele>383.8</ele>
        <time>2025-05-27T08:52:40Z</time>
      </trkpt>
      <trkpt lat="45.68356" lon="5.23427">
        <ele>383.8</ele>
        <time>2025-05-27T08:52:41Z</time>
      </trkpt>
      <trkpt lat="45.68354" lon="5.23422">
        <ele>383.2</ele>
        <time>2025-05-27T08:52:42Z</time>
      </trkpt>
      <trkpt lat="45.68351" lon="5.23418">
        <ele>383.2</ele>
        <time>2025-05-27T08:52:43Z</time>
      </trkpt>
      <trkpt lat="45.68348" lon="5.23413">
        <ele>383.2</ele>
        <time>2025-05-27T08:52:44Z</time>
      </trkpt>
      <trkpt lat="45.68346" lon="5.23408">
        <ele>383.2</ele>
        <time>2025-05-27T08:52:45Z</time>
      </trkpt>
      <trkpt lat="45.68343" lon="5.23402">
        <ele>383.2</ele>
        <time>2025-05-27T08:52:46Z</time>
      </trkpt>
      <trkpt lat="45.68339" lon="5.23398">
        <ele>383.2</ele>
        <time>2025-05-27T08:52:47Z</time>
      </trkpt>
      <trkpt lat="45.68336" lon="5.23395">
        <ele>383</ele>
        <time>2025-05-27T08:52:48Z</time>
      </trkpt>
      <trkpt lat="45.68332" lon="5.23392">
        <ele>383.2</ele>
        <time>2025-05-27T08:52:49Z</time>
      </trkpt>
      <trkpt lat="45.68328" lon="5.23391">
        <ele>383.2</ele>
        <time>2025-05-27T08:52:50Z</time>
      </trkpt>
      <trkpt lat="45.68323" lon="5.2339">
        <ele>382.6</ele>
        <time>2025-05-27T08:52:51Z</time>
      </trkpt>
      <trkpt lat="45.6832" lon="5.23388">
        <ele>382.6</ele>
        <time>2025-05-27T08:52:52Z</time>
      </trkpt>
      <trkpt lat="45.68316" lon="5.23387">
        <ele>382.6</ele>
        <time>2025-05-27T08:52:53Z</time>
      </trkpt>
      <trkpt lat="45.68312" lon="5.23385">
        <ele>382.2</ele>
        <time>2025-05-27T08:52:54Z</time>
      </trkpt>
      <trkpt lat="45.68309" lon="5.23385">
        <ele>382.4</ele>
        <time>2025-05-27T08:52:55Z</time>
      </trkpt>
      <trkpt lat="45.68304" lon="5.23383">
        <ele>382.4</ele>
        <time>2025-05-27T08:52:56Z</time>
      </trkpt>
      <trkpt lat="45.683" lon="5.23381">
        <ele>382.4</ele>
        <time>2025-05-27T08:52:57Z</time>
      </trkpt>
      <trkpt lat="45.68296" lon="5.2338">
        <ele>382</ele>
        <time>2025-05-27T08:52:58Z</time>
      </trkpt>
      <trkpt lat="45.68292" lon="5.23379">
        <ele>382</ele>
        <time>2025-05-27T08:52:59Z</time>
      </trkpt>
      <trkpt lat="45.68288" lon="5.23379">
        <ele>382</ele>
        <time>2025-05-27T08:53:00Z</time>
      </trkpt>
      <trkpt lat="45.68285" lon="5.2338">
        <ele>381.6</ele>
        <time>2025-05-27T08:53:01Z</time>
      </trkpt>
      <trkpt lat="45.68281" lon="5.23381">
        <ele>382.2</ele>
        <time>2025-05-27T08:53:02Z</time>
      </trkpt>
      <trkpt lat="45.68277" lon="5.23383">
        <ele>382</ele>
        <time>2025-05-27T08:53:03Z</time>
      </trkpt>
      <trkpt lat="45.68273" lon="5.23386">
        <ele>382</ele>
        <time>2025-05-27T08:53:04Z</time>
      </trkpt>
      <trkpt lat="45.68271" lon="5.23388">
        <ele>381.6</ele>
        <time>2025-05-27T08:53:05Z</time>
      </trkpt>
      <trkpt lat="45.68268" lon="5.23392">
        <ele>381.6</ele>
        <time>2025-05-27T08:53:06Z</time>
      </trkpt>
      <trkpt lat="45.68266" lon="5.23396">
        <ele>382.6</ele>
        <time>2025-05-27T08:53:07Z</time>
      </trkpt>
      <trkpt lat="45.68265" lon="5.23401">
        <ele>383</ele>
        <time>2025-05-27T08:53:08Z</time>
      </trkpt>
      <trkpt lat="45.68264" lon="5.23404">
        <ele>383.2</ele>
        <time>2025-05-27T08:53:09Z</time>
      </trkpt>
      <trkpt lat="45.68263" lon="5.23407">
        <ele>383.2</ele>
        <time>2025-05-27T08:53:10Z</time>
      </trkpt>
      <trkpt lat="45.68262" lon="5.2341">
        <ele>383.2</ele>
        <time>2025-05-27T08:53:11Z</time>
      </trkpt>
      <trkpt lat="45.68261" lon="5.23412">
        <ele>383.4</ele>
        <time>2025-05-27T08:53:12Z</time>
      </trkpt>
      <trkpt lat="45.6826" lon="5.23417">
        <ele>383.4</ele>
        <time>2025-05-27T08:53:13Z</time>
      </trkpt>
      <trkpt lat="45.68258" lon="5.2342">
        <ele>383.8</ele>
        <time>2025-05-27T08:53:14Z</time>
      </trkpt>
      <trkpt lat="45.68257" lon="5.23424">
        <ele>384</ele>
        <time>2025-05-27T08:53:15Z</time>
      </trkpt>
      <trkpt lat="45.68256" lon="5.23427">
        <ele>384</ele>
        <time>2025-05-27T08:53:16Z</time>
      </trkpt>
      <trkpt lat="45.68255" lon="5.23431">
        <ele>384.4</ele>
        <time>2025-05-27T08:53:17Z</time>
      </trkpt>
      <trkpt lat="45.68254" lon="5.23435">
        <ele>384.4</ele>
        <time>2025-05-27T08:53:18Z</time>
      </trkpt>
      <trkpt lat="45.68253" lon="5.2344">
        <ele>385</ele>
        <time>2025-05-27T08:53:19Z</time>
      </trkpt>
      <trkpt lat="45.68252" lon="5.23444">
        <ele>385.2</ele>
        <time>2025-05-27T08:53:20Z</time>
      </trkpt>
      <trkpt lat="45.68251" lon="5.23447">
        <ele>385.2</ele>
        <time>2025-05-27T08:53:21Z</time>
      </trkpt>
      <trkpt lat="45.68251" lon="5.23451">
        <ele>385.2</ele>
        <time>2025-05-27T08:53:22Z</time>
      </trkpt>
      <trkpt lat="45.68249" lon="5.23455">
        <ele>385.6</ele>
        <time>2025-05-27T08:53:23Z</time>
      </trkpt>
      <trkpt lat="45.68248" lon="5.23459">
        <ele>385.6</ele>
        <time>2025-05-27T08:53:24Z</time>
      </trkpt>
      <trkpt lat="45.68247" lon="5.23462">
        <ele>385.6</ele>
        <time>2025-05-27T08:53:25Z</time>
      </trkpt>
      <trkpt lat="45.68246" lon="5.23466">
        <ele>385.6</ele>
        <time>2025-05-27T08:53:26Z</time>
      </trkpt>
      <trkpt lat="45.68245" lon="5.23468">
        <ele>385.6</ele>
        <time>2025-05-27T08:53:27Z</time>
      </trkpt>
      <trkpt lat="45.68243" lon="5.23472">
        <ele>385.8</ele>
        <time>2025-05-27T08:53:28Z</time>
      </trkpt>
      <trkpt lat="45.68242" lon="5.23475">
        <ele>386</ele>
        <time>2025-05-27T08:53:29Z</time>
      </trkpt>
      <trkpt lat="45.6824" lon="5.23478">
        <ele>386.4</ele>
        <time>2025-05-27T08:53:30Z</time>
      </trkpt>
      <trkpt lat="45.68239" lon="5.23481">
        <ele>386.4</ele>
        <time>2025-05-27T08:53:31Z</time>
      </trkpt>
      <trkpt lat="45.68238" lon="5.23484">
        <ele>386.6</ele>
        <time>2025-05-27T08:53:32Z</time>
      </trkpt>
      <trkpt lat="45.68238" lon="5.23486">
        <ele>387.2</ele>
        <time>2025-05-27T08:53:33Z</time>
      </trkpt>
      <trkpt lat="45.68238" lon="5.2349">
        <ele>387.6</ele>
        <time>2025-05-27T08:53:34Z</time>
      </trkpt>
      <trkpt lat="45.68237" lon="5.23493">
        <ele>387.6</ele>
        <time>2025-05-27T08:53:35Z</time>
      </trkpt>
      <trkpt lat="45.68236" lon="5.23496">
        <ele>388</ele>
        <time>2025-05-27T08:53:36Z</time>
      </trkpt>
      <trkpt lat="45.68235" lon="5.23498">
        <ele>388</ele>
        <time>2025-05-27T08:53:37Z</time>
      </trkpt>
      <trkpt lat="45.68234" lon="5.23499">
        <ele>388.4</ele>
        <time>2025-05-27T08:53:38Z</time>
      </trkpt>
      <trkpt lat="45.68233" lon="5.23501">
        <ele>388.6</ele>
        <time>2025-05-27T08:53:39Z</time>
      </trkpt>
      <trkpt lat="45.68231" lon="5.23503">
        <ele>388.6</ele>
        <time>2025-05-27T08:53:40Z</time>
      </trkpt>
      <trkpt lat="45.6823" lon="5.23505">
        <ele>389</ele>
        <time>2025-05-27T08:53:41Z</time>
      </trkpt>
      <trkpt lat="45.68229" lon="5.23508">
        <ele>389</ele>
        <time>2025-05-27T08:53:42Z</time>
      </trkpt>
      <trkpt lat="45.68228" lon="5.2351">
        <ele>389</ele>
        <time>2025-05-27T08:53:43Z</time>
      </trkpt>
      <trkpt lat="45.68228" lon="5.23512">
        <ele>389</ele>
        <time>2025-05-27T08:53:44Z</time>
      </trkpt>
      <trkpt lat="45.68227" lon="5.23514">
        <ele>389</ele>
        <time>2025-05-27T08:53:45Z</time>
      </trkpt>
      <trkpt lat="45.68225" lon="5.23518">
        <ele>389</ele>
        <time>2025-05-27T08:53:46Z</time>
      </trkpt>
      <trkpt lat="45.68224" lon="5.23521">
        <ele>389</ele>
        <time>2025-05-27T08:53:47Z</time>
      </trkpt>
      <trkpt lat="45.68223" lon="5.23524">
        <ele>389.2</ele>
        <time>2025-05-27T08:53:48Z</time>
      </trkpt>
      <trkpt lat="45.68222" lon="5.23526">
        <ele>389.4</ele>
        <time>2025-05-27T08:53:49Z</time>
      </trkpt>
      <trkpt lat="45.68221" lon="5.23529">
        <ele>389.4</ele>
        <time>2025-05-27T08:53:50Z</time>
      </trkpt>
      <trkpt lat="45.6822" lon="5.23532">
        <ele>389.8</ele>
        <time>2025-05-27T08:53:51Z</time>
      </trkpt>
      <trkpt lat="45.68218" lon="5.23534">
        <ele>389.8</ele>
        <time>2025-05-27T08:53:52Z</time>
      </trkpt>
      <trkpt lat="45.68216" lon="5.23536">
        <ele>389.8</ele>
        <time>2025-05-27T08:53:53Z</time>
      </trkpt>
      <trkpt lat="45.68212" lon="5.23538">
        <ele>389.8</ele>
        <time>2025-05-27T08:53:54Z</time>
      </trkpt>
      <trkpt lat="45.68209" lon="5.2354">
        <ele>389.4</ele>
        <time>2025-05-27T08:53:55Z</time>
      </trkpt>
      <trkpt lat="45.68205" lon="5.23542">
        <ele>389.4</ele>
        <time>2025-05-27T08:53:56Z</time>
      </trkpt>
      <trkpt lat="45.68201" lon="5.23543">
        <ele>389</ele>
        <time>2025-05-27T08:53:57Z</time>
      </trkpt>
      <trkpt lat="45.68197" lon="5.23543">
        <ele>388.8</ele>
        <time>2025-05-27T08:53:58Z</time>
      </trkpt>
      <trkpt lat="45.68194" lon="5.23543">
        <ele>388.8</ele>
        <time>2025-05-27T08:53:59Z</time>
      </trkpt>
      <trkpt lat="45.6819" lon="5.23543">
        <ele>388.4</ele>
        <time>2025-05-27T08:54:00Z</time>
      </trkpt>
      <trkpt lat="45.68183" lon="5.23543">
        <ele>388.4</ele>
        <time>2025-05-27T08:54:01Z</time>
      </trkpt>
      <trkpt lat="45.68179" lon="5.23543">
        <ele>388.4</ele>
        <time>2025-05-27T08:54:02Z</time>
      </trkpt>
      <trkpt lat="45.68174" lon="5.23544">
        <ele>388.2</ele>
        <time>2025-05-27T08:54:03Z</time>
      </trkpt>
      <trkpt lat="45.68169" lon="5.23543">
        <ele>388.2</ele>
        <time>2025-05-27T08:54:04Z</time>
      </trkpt>
      <trkpt lat="45.68164" lon="5.23544">
        <ele>388.2</ele>
        <time>2025-05-27T08:54:05Z</time>
      </trkpt>
      <trkpt lat="45.68158" lon="5.23545">
        <ele>388.2</ele>
        <time>2025-05-27T08:54:06Z</time>
      </trkpt>
      <trkpt lat="45.68154" lon="5.23546">
        <ele>388.2</ele>
        <time>2025-05-27T08:54:07Z</time>
      </trkpt>
      <trkpt lat="45.68149" lon="5.23547">
        <ele>388</ele>
        <time>2025-05-27T08:54:08Z</time>
      </trkpt>
      <trkpt lat="45.68145" lon="5.23546">
        <ele>388</ele>
        <time>2025-05-27T08:54:09Z</time>
      </trkpt>
      <trkpt lat="45.68141" lon="5.23546">
        <ele>388.2</ele>
        <time>2025-05-27T08:54:10Z</time>
      </trkpt>
      <trkpt lat="45.68136" lon="5.23544">
        <ele>388.2</ele>
        <time>2025-05-27T08:54:11Z</time>
      </trkpt>
      <trkpt lat="45.68132" lon="5.23543">
        <ele>388.2</ele>
        <time>2025-05-27T08:54:12Z</time>
      </trkpt>
      <trkpt lat="45.68128" lon="5.23542">
        <ele>388.2</ele>
        <time>2025-05-27T08:54:13Z</time>
      </trkpt>
      <trkpt lat="45.68125" lon="5.23543">
        <ele>388.2</ele>
        <time>2025-05-27T08:54:14Z</time>
      </trkpt>
      <trkpt lat="45.6812" lon="5.23544">
        <ele>388.4</ele>
        <time>2025-05-27T08:54:15Z</time>
      </trkpt>
      <trkpt lat="45.68116" lon="5.23545">
        <ele>388</ele>
        <time>2025-05-27T08:54:16Z</time>
      </trkpt>
      <trkpt lat="45.68112" lon="5.23546">
        <ele>388</ele>
        <time>2025-05-27T08:54:17Z</time>
      </trkpt>
      <trkpt lat="45.68108" lon="5.23547">
        <ele>388.4</ele>
        <time>2025-05-27T08:54:18Z</time>
      </trkpt>
      <trkpt lat="45.68104" lon="5.23549">
        <ele>388.4</ele>
        <time>2025-05-27T08:54:19Z</time>
      </trkpt>
      <trkpt lat="45.68102" lon="5.23549">
        <ele>388.4</ele>
        <time>2025-05-27T08:54:20Z</time>
      </trkpt>
      <trkpt lat="45.68097" lon="5.23551">
        <ele>388.6</ele>
        <time>2025-05-27T08:54:21Z</time>
      </trkpt>
      <trkpt lat="45.68093" lon="5.23552">
        <ele>388.6</ele>
        <time>2025-05-27T08:54:22Z</time>
      </trkpt>
      <trkpt lat="45.68089" lon="5.23554">
        <ele>388.6</ele>
        <time>2025-05-27T08:54:23Z</time>
      </trkpt>
      <trkpt lat="45.68086" lon="5.23558">
        <ele>388.8</ele>
        <time>2025-05-27T08:54:24Z</time>
      </trkpt>
      <trkpt lat="45.68086" lon="5.23562">
        <ele>388.8</ele>
        <time>2025-05-27T08:54:25Z</time>
      </trkpt>
      <trkpt lat="45.68084" lon="5.23565">
        <ele>390</ele>
        <time>2025-05-27T08:54:26Z</time>
      </trkpt>
      <trkpt lat="45.6808" lon="5.23573">
        <ele>390.4</ele>
        <time>2025-05-27T08:54:27Z</time>
      </trkpt>
      <trkpt lat="45.68079" lon="5.23576">
        <ele>390.8</ele>
        <time>2025-05-27T08:54:28Z</time>
      </trkpt>
      <trkpt lat="45.68078" lon="5.2358">
        <ele>391</ele>
        <time>2025-05-27T08:54:29Z</time>
      </trkpt>
      <trkpt lat="45.68078" lon="5.23583">
        <ele>391.4</ele>
        <time>2025-05-27T08:54:30Z</time>
      </trkpt>
      <trkpt lat="45.68077" lon="5.23589">
        <ele>391.4</ele>
        <time>2025-05-27T08:54:31Z</time>
      </trkpt>
      <trkpt lat="45.68077" lon="5.23593">
        <ele>391.8</ele>
        <time>2025-05-27T08:54:32Z</time>
      </trkpt>
      <trkpt lat="45.68078" lon="5.23597">
        <ele>392.2</ele>
        <time>2025-05-27T08:54:33Z</time>
      </trkpt>
      <trkpt lat="45.6808" lon="5.23602">
        <ele>392.4</ele>
        <time>2025-05-27T08:54:34Z</time>
      </trkpt>
      <trkpt lat="45.68081" lon="5.23606">
        <ele>392.6</ele>
        <time>2025-05-27T08:54:35Z</time>
      </trkpt>
      <trkpt lat="45.68083" lon="5.2361">
        <ele>392.6</ele>
        <time>2025-05-27T08:54:36Z</time>
      </trkpt>
      <trkpt lat="45.68084" lon="5.23614">
        <ele>393.4</ele>
        <time>2025-05-27T08:54:37Z</time>
      </trkpt>
      <trkpt lat="45.68086" lon="5.23618">
        <ele>393.6</ele>
        <time>2025-05-27T08:54:38Z</time>
      </trkpt>
      <trkpt lat="45.68087" lon="5.23621">
        <ele>394</ele>
        <time>2025-05-27T08:54:39Z</time>
      </trkpt>
      <trkpt lat="45.68088" lon="5.23623">
        <ele>394.6</ele>
        <time>2025-05-27T08:54:40Z</time>
      </trkpt>
      <trkpt lat="45.68088" lon="5.23627">
        <ele>394.6</ele>
        <time>2025-05-27T08:54:41Z</time>
      </trkpt>
      <trkpt lat="45.68088" lon="5.2363">
        <ele>395.6</ele>
        <time>2025-05-27T08:54:42Z</time>
      </trkpt>
      <trkpt lat="45.68088" lon="5.23633">
        <ele>395.8</ele>
        <time>2025-05-27T08:54:43Z</time>
      </trkpt>
      <trkpt lat="45.68089" lon="5.23637">
        <ele>395.4</ele>
        <time>2025-05-27T08:54:44Z</time>
      </trkpt>
      <trkpt lat="45.68089" lon="5.2364">
        <ele>395.2</ele>
        <time>2025-05-27T08:54:45Z</time>
      </trkpt>
      <trkpt lat="45.6809" lon="5.23643">
        <ele>395.4</ele>
        <time>2025-05-27T08:54:46Z</time>
      </trkpt>
      <trkpt lat="45.6809" lon="5.23646">
        <ele>396</ele>
        <time>2025-05-27T08:54:47Z</time>
      </trkpt>
      <trkpt lat="45.6809" lon="5.2365">
        <ele>396</ele>
        <time>2025-05-27T08:54:48Z</time>
      </trkpt>
      <trkpt lat="45.68089" lon="5.23654">
        <ele>396.4</ele>
        <time>2025-05-27T08:54:49Z</time>
      </trkpt>
      <trkpt lat="45.68089" lon="5.23654">
        <ele>396.4</ele>
        <time>2025-05-27T08:54:50Z</time>
      </trkpt>
      <trkpt lat="45.68088" lon="5.23658">
        <ele>396.4</ele>
        <time>2025-05-27T08:54:51Z</time>
      </trkpt>
      <trkpt lat="45.68087" lon="5.23661">
        <ele>396.4</ele>
        <time>2025-05-27T08:54:52Z</time>
      </trkpt>
      <trkpt lat="45.68086" lon="5.23664">
        <ele>396.2</ele>
        <time>2025-05-27T08:54:53Z</time>
      </trkpt>
      <trkpt lat="45.68084" lon="5.23668">
        <ele>395.8</ele>
        <time>2025-05-27T08:54:54Z</time>
      </trkpt>
      <trkpt lat="45.68081" lon="5.23672">
        <ele>395.4</ele>
        <time>2025-05-27T08:54:55Z</time>
      </trkpt>
      <trkpt lat="45.68079" lon="5.23676">
        <ele>395.2</ele>
        <time>2025-05-27T08:54:56Z</time>
      </trkpt>
      <trkpt lat="45.68077" lon="5.23679">
        <ele>395</ele>
        <time>2025-05-27T08:54:57Z</time>
      </trkpt>
      <trkpt lat="45.68075" lon="5.23684">
        <ele>395</ele>
        <time>2025-05-27T08:54:58Z</time>
      </trkpt>
      <trkpt lat="45.68073" lon="5.23689">
        <ele>394.6</ele>
        <time>2025-05-27T08:54:59Z</time>
      </trkpt>
      <trkpt lat="45.68074" lon="5.23698">
        <ele>394.4</ele>
        <time>2025-05-27T08:55:00Z</time>
      </trkpt>
      <trkpt lat="45.68073" lon="5.23702">
        <ele>394</ele>
        <time>2025-05-27T08:55:01Z</time>
      </trkpt>
      <trkpt lat="45.68074" lon="5.23707">
        <ele>394</ele>
        <time>2025-05-27T08:55:02Z</time>
      </trkpt>
      <trkpt lat="45.68079" lon="5.23708">
        <ele>394</ele>
        <time>2025-05-27T08:55:03Z</time>
      </trkpt>
      <trkpt lat="45.68082" lon="5.23711">
        <ele>394</ele>
        <time>2025-05-27T08:55:04Z</time>
      </trkpt>
      <trkpt lat="45.68084" lon="5.23715">
        <ele>394</ele>
        <time>2025-05-27T08:55:05Z</time>
      </trkpt>
      <trkpt lat="45.68088" lon="5.23716">
        <ele>393.4</ele>
        <time>2025-05-27T08:55:06Z</time>
      </trkpt>
      <trkpt lat="45.68093" lon="5.23717">
        <ele>393.4</ele>
        <time>2025-05-27T08:55:07Z</time>
      </trkpt>
      <trkpt lat="45.68096" lon="5.23718">
        <ele>393.8</ele>
        <time>2025-05-27T08:55:08Z</time>
      </trkpt>
      <trkpt lat="45.68101" lon="5.23719">
        <ele>393.8</ele>
        <time>2025-05-27T08:55:09Z</time>
      </trkpt>
      <trkpt lat="45.68105" lon="5.2372">
        <ele>394</ele>
        <time>2025-05-27T08:55:10Z</time>
      </trkpt>
      <trkpt lat="45.68109" lon="5.2372">
        <ele>394.2</ele>
        <time>2025-05-27T08:55:11Z</time>
      </trkpt>
      <trkpt lat="45.68112" lon="5.2372">
        <ele>394.2</ele>
        <time>2025-05-27T08:55:12Z</time>
      </trkpt>
      <trkpt lat="45.68116" lon="5.23721">
        <ele>394.2</ele>
        <time>2025-05-27T08:55:13Z</time>
      </trkpt>
      <trkpt lat="45.68119" lon="5.23722">
        <ele>394.6</ele>
        <time>2025-05-27T08:55:14Z</time>
      </trkpt>
      <trkpt lat="45.68123" lon="5.23725">
        <ele>394.6</ele>
        <time>2025-05-27T08:55:15Z</time>
      </trkpt>
      <trkpt lat="45.68127" lon="5.23727">
        <ele>394.8</ele>
        <time>2025-05-27T08:55:16Z</time>
      </trkpt>
      <trkpt lat="45.6813" lon="5.23729">
        <ele>394.8</ele>
        <time>2025-05-27T08:55:17Z</time>
      </trkpt>
      <trkpt lat="45.68133" lon="5.23732">
        <ele>394.8</ele>
        <time>2025-05-27T08:55:18Z</time>
      </trkpt>
      <trkpt lat="45.68137" lon="5.23736">
        <ele>394.8</ele>
        <time>2025-05-27T08:55:19Z</time>
      </trkpt>
      <trkpt lat="45.6814" lon="5.23741">
        <ele>394.8</ele>
        <time>2025-05-27T08:55:20Z</time>
      </trkpt>
      <trkpt lat="45.68143" lon="5.23745">
        <ele>393</ele>
        <time>2025-05-27T08:55:21Z</time>
      </trkpt>
      <trkpt lat="45.68146" lon="5.2375">
        <ele>393.6</ele>
        <time>2025-05-27T08:55:22Z</time>
      </trkpt>
      <trkpt lat="45.68148" lon="5.23754">
        <ele>393.6</ele>
        <time>2025-05-27T08:55:23Z</time>
      </trkpt>
      <trkpt lat="45.68151" lon="5.23758">
        <ele>394</ele>
        <time>2025-05-27T08:55:24Z</time>
      </trkpt>
      <trkpt lat="45.68154" lon="5.23761">
        <ele>394</ele>
        <time>2025-05-27T08:55:25Z</time>
      </trkpt>
      <trkpt lat="45.68158" lon="5.23764">
        <ele>394.4</ele>
        <time>2025-05-27T08:55:26Z</time>
      </trkpt>
      <trkpt lat="45.68161" lon="5.23768">
        <ele>394.4</ele>
        <time>2025-05-27T08:55:27Z</time>
      </trkpt>
      <trkpt lat="45.68165" lon="5.23771">
        <ele>395</ele>
        <time>2025-05-27T08:55:28Z</time>
      </trkpt>
      <trkpt lat="45.68168" lon="5.23774">
        <ele>395</ele>
        <time>2025-05-27T08:55:29Z</time>
      </trkpt>
      <trkpt lat="45.6817" lon="5.23777">
        <ele>395</ele>
        <time>2025-05-27T08:55:30Z</time>
      </trkpt>
      <trkpt lat="45.68172" lon="5.2378">
        <ele>395</ele>
        <time>2025-05-27T08:55:31Z</time>
      </trkpt>
      <trkpt lat="45.68174" lon="5.23783">
        <ele>395</ele>
        <time>2025-05-27T08:55:32Z</time>
      </trkpt>
      <trkpt lat="45.68176" lon="5.23787">
        <ele>395</ele>
        <time>2025-05-27T08:55:33Z</time>
      </trkpt>
      <trkpt lat="45.68177" lon="5.23791">
        <ele>394.8</ele>
        <time>2025-05-27T08:55:34Z</time>
      </trkpt>
      <trkpt lat="45.68177" lon="5.23793">
        <ele>394.8</ele>
        <time>2025-05-27T08:55:35Z</time>
      </trkpt>
      <trkpt lat="45.68177" lon="5.23794">
        <ele>395</ele>
        <time>2025-05-27T08:55:36Z</time>
      </trkpt>
      <trkpt lat="45.68177" lon="5.23794">
        <ele>395</ele>
        <time>2025-05-27T08:55:37Z</time>
      </trkpt>
      <trkpt lat="45.68177" lon="5.23796">
        <ele>395.2</ele>
        <time>2025-05-27T08:55:44Z</time>
      </trkpt>
      <trkpt lat="45.68176" lon="5.23799">
        <ele>395.2</ele>
        <time>2025-05-27T08:55:45Z</time>
      </trkpt>
      <trkpt lat="45.68175" lon="5.23803">
        <ele>395.2</ele>
        <time>2025-05-27T08:55:46Z</time>
      </trkpt>
      <trkpt lat="45.68173" lon="5.23806">
        <ele>395.2</ele>
        <time>2025-05-27T08:55:47Z</time>
      </trkpt>
      <trkpt lat="45.68172" lon="5.23809">
        <ele>395</ele>
        <time>2025-05-27T08:55:48Z</time>
      </trkpt>
      <trkpt lat="45.68167" lon="5.23816">
        <ele>394.6</ele>
        <time>2025-05-27T08:55:49Z</time>
      </trkpt>
      <trkpt lat="45.68166" lon="5.2382">
        <ele>394</ele>
        <time>2025-05-27T08:55:50Z</time>
      </trkpt>
      <trkpt lat="45.68164" lon="5.23824">
        <ele>393.6</ele>
        <time>2025-05-27T08:55:51Z</time>
      </trkpt>
      <trkpt lat="45.68162" lon="5.23827">
        <ele>393.6</ele>
        <time>2025-05-27T08:55:52Z</time>
      </trkpt>
      <trkpt lat="45.68157" lon="5.23833">
        <ele>393.6</ele>
        <time>2025-05-27T08:55:53Z</time>
      </trkpt>
      <trkpt lat="45.68153" lon="5.23838">
        <ele>392.6</ele>
        <time>2025-05-27T08:55:54Z</time>
      </trkpt>
      <trkpt lat="45.6815" lon="5.23841">
        <ele>392.2</ele>
        <time>2025-05-27T08:55:55Z</time>
      </trkpt>
      <trkpt lat="45.68144" lon="5.23846">
        <ele>391.8</ele>
        <time>2025-05-27T08:55:56Z</time>
      </trkpt>
      <trkpt lat="45.6814" lon="5.2385">
        <ele>391.8</ele>
        <time>2025-05-27T08:55:57Z</time>
      </trkpt>
      <trkpt lat="45.68136" lon="5.23854">
        <ele>390.4</ele>
        <time>2025-05-27T08:55:58Z</time>
      </trkpt>
      <trkpt lat="45.68131" lon="5.23858">
        <ele>390.6</ele>
        <time>2025-05-27T08:55:59Z</time>
      </trkpt>
      <trkpt lat="45.68126" lon="5.23864">
        <ele>390.6</ele>
        <time>2025-05-27T08:56:00Z</time>
      </trkpt>
      <trkpt lat="45.68122" lon="5.23869">
        <ele>390</ele>
        <time>2025-05-27T08:56:01Z</time>
      </trkpt>
      <trkpt lat="45.68119" lon="5.23875">
        <ele>390.6</ele>
        <time>2025-05-27T08:56:02Z</time>
      </trkpt>
      <trkpt lat="45.68115" lon="5.23881">
        <ele>390.2</ele>
        <time>2025-05-27T08:56:03Z</time>
      </trkpt>
      <trkpt lat="45.68112" lon="5.23885">
        <ele>390</ele>
        <time>2025-05-27T08:56:04Z</time>
      </trkpt>
      <trkpt lat="45.68109" lon="5.2389">
        <ele>389.2</ele>
        <time>2025-05-27T08:56:05Z</time>
      </trkpt>
      <trkpt lat="45.68105" lon="5.23897">
        <ele>388.8</ele>
        <time>2025-05-27T08:56:06Z</time>
      </trkpt>
      <trkpt lat="45.68102" lon="5.23903">
        <ele>388.4</ele>
        <time>2025-05-27T08:56:07Z</time>
      </trkpt>
      <trkpt lat="45.68101" lon="5.23909">
        <ele>390</ele>
        <time>2025-05-27T08:56:08Z</time>
      </trkpt>
      <trkpt lat="45.68099" lon="5.23915">
        <ele>389.2</ele>
        <time>2025-05-27T08:56:09Z</time>
      </trkpt>
      <trkpt lat="45.68097" lon="5.23922">
        <ele>388</ele>
        <time>2025-05-27T08:56:10Z</time>
      </trkpt>
      <trkpt lat="45.68096" lon="5.23931">
        <ele>386.8</ele>
        <time>2025-05-27T08:56:11Z</time>
      </trkpt>
      <trkpt lat="45.68095" lon="5.23939">
        <ele>385.4</ele>
        <time>2025-05-27T08:56:12Z</time>
      </trkpt>
      <trkpt lat="45.68096" lon="5.23946">
        <ele>385</ele>
        <time>2025-05-27T08:56:13Z</time>
      </trkpt>
      <trkpt lat="45.68096" lon="5.23952">
        <ele>384.6</ele>
        <time>2025-05-27T08:56:14Z</time>
      </trkpt>
      <trkpt lat="45.68095" lon="5.23956">
        <ele>384</ele>
        <time>2025-05-27T08:56:15Z</time>
      </trkpt>
      <trkpt lat="45.68095" lon="5.23962">
        <ele>383.4</ele>
        <time>2025-05-27T08:56:16Z</time>
      </trkpt>
      <trkpt lat="45.68095" lon="5.23966">
        <ele>383.4</ele>
        <time>2025-05-27T08:56:17Z</time>
      </trkpt>
      <trkpt lat="45.68095" lon="5.2397">
        <ele>382.8</ele>
        <time>2025-05-27T08:56:18Z</time>
      </trkpt>
      <trkpt lat="45.68096" lon="5.23977">
        <ele>382.2</ele>
        <time>2025-05-27T08:56:19Z</time>
      </trkpt>
      <trkpt lat="45.68098" lon="5.23983">
        <ele>381.4</ele>
        <time>2025-05-27T08:56:20Z</time>
      </trkpt>
      <trkpt lat="45.681" lon="5.2399">
        <ele>381</ele>
        <time>2025-05-27T08:56:21Z</time>
      </trkpt>
      <trkpt lat="45.68101" lon="5.23997">
        <ele>380.6</ele>
        <time>2025-05-27T08:56:22Z</time>
      </trkpt>
      <trkpt lat="45.68101" lon="5.24005">
        <ele>380.6</ele>
        <time>2025-05-27T08:56:23Z</time>
      </trkpt>
      <trkpt lat="45.68103" lon="5.24014">
        <ele>380.4</ele>
        <time>2025-05-27T08:56:24Z</time>
      </trkpt>
      <trkpt lat="45.68106" lon="5.24018">
        <ele>380.4</ele>
        <time>2025-05-27T08:56:25Z</time>
      </trkpt>
      <trkpt lat="45.68106" lon="5.24029">
        <ele>380</ele>
        <time>2025-05-27T08:56:26Z</time>
      </trkpt>
      <trkpt lat="45.68105" lon="5.24035">
        <ele>379.2</ele>
        <time>2025-05-27T08:56:27Z</time>
      </trkpt>
      <trkpt lat="45.68104" lon="5.24043">
        <ele>379.2</ele>
        <time>2025-05-27T08:56:28Z</time>
      </trkpt>
      <trkpt lat="45.68103" lon="5.2405">
        <ele>379.6</ele>
        <time>2025-05-27T08:56:29Z</time>
      </trkpt>
      <trkpt lat="45.68101" lon="5.24059">
        <ele>378.6</ele>
        <time>2025-05-27T08:56:30Z</time>
      </trkpt>
      <trkpt lat="45.68101" lon="5.24064">
        <ele>378</ele>
        <time>2025-05-27T08:56:31Z</time>
      </trkpt>
      <trkpt lat="45.681" lon="5.24073">
        <ele>377.6</ele>
        <time>2025-05-27T08:56:32Z</time>
      </trkpt>
      <trkpt lat="45.681" lon="5.24079">
        <ele>375.6</ele>
        <time>2025-05-27T08:56:33Z</time>
      </trkpt>
      <trkpt lat="45.681" lon="5.24087">
        <ele>375</ele>
        <time>2025-05-27T08:56:34Z</time>
      </trkpt>
      <trkpt lat="45.68099" lon="5.24093">
        <ele>375.2</ele>
        <time>2025-05-27T08:56:35Z</time>
      </trkpt>
      <trkpt lat="45.68099" lon="5.24099">
        <ele>375.2</ele>
        <time>2025-05-27T08:56:36Z</time>
      </trkpt>
      <trkpt lat="45.68098" lon="5.24105">
        <ele>375.6</ele>
        <time>2025-05-27T08:56:37Z</time>
      </trkpt>
      <trkpt lat="45.68099" lon="5.2411">
        <ele>375.6</ele>
        <time>2025-05-27T08:56:38Z</time>
      </trkpt>
      <trkpt lat="45.68099" lon="5.24116">
        <ele>375.6</ele>
        <time>2025-05-27T08:56:39Z</time>
      </trkpt>
      <trkpt lat="45.68098" lon="5.24125">
        <ele>376.2</ele>
        <time>2025-05-27T08:56:40Z</time>
      </trkpt>
      <trkpt lat="45.68097" lon="5.24132">
        <ele>376.2</ele>
        <time>2025-05-27T08:56:41Z</time>
      </trkpt>
      <trkpt lat="45.68096" lon="5.2414">
        <ele>376.2</ele>
        <time>2025-05-27T08:56:42Z</time>
      </trkpt>
      <trkpt lat="45.68096" lon="5.24147">
        <ele>376.2</ele>
        <time>2025-05-27T08:56:43Z</time>
      </trkpt>
      <trkpt lat="45.68095" lon="5.24154">
        <ele>376.2</ele>
        <time>2025-05-27T08:56:44Z</time>
      </trkpt>
      <trkpt lat="45.68096" lon="5.24161">
        <ele>376</ele>
        <time>2025-05-27T08:56:45Z</time>
      </trkpt>
      <trkpt lat="45.68095" lon="5.24168">
        <ele>376.4</ele>
        <time>2025-05-27T08:56:46Z</time>
      </trkpt>
      <trkpt lat="45.68098" lon="5.24175">
        <ele>376.4</ele>
        <time>2025-05-27T08:56:47Z</time>
      </trkpt>
      <trkpt lat="45.68102" lon="5.24182">
        <ele>375.4</ele>
        <time>2025-05-27T08:56:48Z</time>
      </trkpt>
      <trkpt lat="45.68106" lon="5.24188">
        <ele>374.6</ele>
        <time>2025-05-27T08:56:49Z</time>
      </trkpt>
      <trkpt lat="45.68109" lon="5.24193">
        <ele>374.6</ele>
        <time>2025-05-27T08:56:50Z</time>
      </trkpt>
      <trkpt lat="45.68113" lon="5.242">
        <ele>374.6</ele>
        <time>2025-05-27T08:56:51Z</time>
      </trkpt>
      <trkpt lat="45.68118" lon="5.24206">
        <ele>373</ele>
        <time>2025-05-27T08:56:52Z</time>
      </trkpt>
      <trkpt lat="45.68121" lon="5.24212">
        <ele>373</ele>
        <time>2025-05-27T08:56:53Z</time>
      </trkpt>
      <trkpt lat="45.68125" lon="5.24218">
        <ele>373.2</ele>
        <time>2025-05-27T08:56:54Z</time>
      </trkpt>
      <trkpt lat="45.68129" lon="5.24224">
        <ele>372.8</ele>
        <time>2025-05-27T08:56:55Z</time>
      </trkpt>
      <trkpt lat="45.68133" lon="5.24229">
        <ele>374.4</ele>
        <time>2025-05-27T08:56:56Z</time>
      </trkpt>
      <trkpt lat="45.68137" lon="5.24233">
        <ele>374.4</ele>
        <time>2025-05-27T08:56:57Z</time>
      </trkpt>
      <trkpt lat="45.68141" lon="5.24237">
        <ele>374.6</ele>
        <time>2025-05-27T08:56:58Z</time>
      </trkpt>
      <trkpt lat="45.68142" lon="5.24242">
        <ele>374.6</ele>
        <time>2025-05-27T08:56:59Z</time>
      </trkpt>
      <trkpt lat="45.68146" lon="5.24246">
        <ele>375.4</ele>
        <time>2025-05-27T08:57:00Z</time>
      </trkpt>
      <trkpt lat="45.6815" lon="5.24252">
        <ele>375</ele>
        <time>2025-05-27T08:57:01Z</time>
      </trkpt>
      <trkpt lat="45.68153" lon="5.24255">
        <ele>375</ele>
        <time>2025-05-27T08:57:02Z</time>
      </trkpt>
      <trkpt lat="45.68158" lon="5.24259">
        <ele>374.6</ele>
        <time>2025-05-27T08:57:03Z</time>
      </trkpt>
      <trkpt lat="45.68162" lon="5.24263">
        <ele>374.6</ele>
        <time>2025-05-27T08:57:04Z</time>
      </trkpt>
      <trkpt lat="45.68165" lon="5.24266">
        <ele>374.6</ele>
        <time>2025-05-27T08:57:05Z</time>
      </trkpt>
      <trkpt lat="45.68168" lon="5.2427">
        <ele>374.2</ele>
        <time>2025-05-27T08:57:06Z</time>
      </trkpt>
      <trkpt lat="45.68171" lon="5.24275">
        <ele>374.4</ele>
        <time>2025-05-27T08:57:07Z</time>
      </trkpt>
      <trkpt lat="45.68175" lon="5.24278">
        <ele>374.4</ele>
        <time>2025-05-27T08:57:08Z</time>
      </trkpt>
      <trkpt lat="45.68179" lon="5.24283">
        <ele>374.2</ele>
        <time>2025-05-27T08:57:09Z</time>
      </trkpt>
      <trkpt lat="45.68181" lon="5.24287">
        <ele>374.2</ele>
        <time>2025-05-27T08:57:10Z</time>
      </trkpt>
      <trkpt lat="45.68184" lon="5.24292">
        <ele>374.2</ele>
        <time>2025-05-27T08:57:11Z</time>
      </trkpt>
      <trkpt lat="45.68188" lon="5.24296">
        <ele>374.2</ele>
        <time>2025-05-27T08:57:12Z</time>
      </trkpt>
      <trkpt lat="45.68193" lon="5.243">
        <ele>374.2</ele>
        <time>2025-05-27T08:57:13Z</time>
      </trkpt>
      <trkpt lat="45.68196" lon="5.24305">
        <ele>374.6</ele>
        <time>2025-05-27T08:57:14Z</time>
      </trkpt>
      <trkpt lat="45.68197" lon="5.2431">
        <ele>374.6</ele>
        <time>2025-05-27T08:57:15Z</time>
      </trkpt>
      <trkpt lat="45.68199" lon="5.24313">
        <ele>374.2</ele>
        <time>2025-05-27T08:57:16Z</time>
      </trkpt>
      <trkpt lat="45.68204" lon="5.24318">
        <ele>374.2</ele>
        <time>2025-05-27T08:57:17Z</time>
      </trkpt>
      <trkpt lat="45.68205" lon="5.24325">
        <ele>374.6</ele>
        <time>2025-05-27T08:57:18Z</time>
      </trkpt>
      <trkpt lat="45.68208" lon="5.24329">
        <ele>374.8</ele>
        <time>2025-05-27T08:57:19Z</time>
      </trkpt>
      <trkpt lat="45.68211" lon="5.24333">
        <ele>374.8</ele>
        <time>2025-05-27T08:57:20Z</time>
      </trkpt>
      <trkpt lat="45.68214" lon="5.24336">
        <ele>375.4</ele>
        <time>2025-05-27T08:57:21Z</time>
      </trkpt>
      <trkpt lat="45.68217" lon="5.24339">
        <ele>376</ele>
        <time>2025-05-27T08:57:22Z</time>
      </trkpt>
      <trkpt lat="45.68216" lon="5.24339">
        <ele>376.8</ele>
        <time>2025-05-27T08:57:23Z</time>
      </trkpt>
      <trkpt lat="45.68219" lon="5.24344">
        <ele>376.8</ele>
        <time>2025-05-27T08:57:24Z</time>
      </trkpt>
      <trkpt lat="45.6822" lon="5.24348">
        <ele>376.8</ele>
        <time>2025-05-27T08:57:25Z</time>
      </trkpt>
      <trkpt lat="45.68223" lon="5.2435">
        <ele>376.8</ele>
        <time>2025-05-27T08:57:26Z</time>
      </trkpt>
      <trkpt lat="45.68225" lon="5.24354">
        <ele>376.8</ele>
        <time>2025-05-27T08:57:27Z</time>
      </trkpt>
      <trkpt lat="45.68227" lon="5.24356">
        <ele>376.8</ele>
        <time>2025-05-27T08:57:28Z</time>
      </trkpt>
      <trkpt lat="45.68228" lon="5.2436">
        <ele>377.4</ele>
        <time>2025-05-27T08:57:29Z</time>
      </trkpt>
      <trkpt lat="45.68228" lon="5.24363">
        <ele>377.6</ele>
        <time>2025-05-27T08:57:30Z</time>
      </trkpt>
      <trkpt lat="45.68227" lon="5.24365">
        <ele>378.4</ele>
        <time>2025-05-27T08:57:31Z</time>
      </trkpt>
      <trkpt lat="45.68226" lon="5.24369">
        <ele>378.4</ele>
        <time>2025-05-27T08:57:32Z</time>
      </trkpt>
      <trkpt lat="45.68225" lon="5.24372">
        <ele>378.8</ele>
        <time>2025-05-27T08:57:33Z</time>
      </trkpt>
      <trkpt lat="45.68224" lon="5.24375">
        <ele>379.2</ele>
        <time>2025-05-27T08:57:34Z</time>
      </trkpt>
      <trkpt lat="45.68223" lon="5.24376">
        <ele>379.2</ele>
        <time>2025-05-27T08:57:35Z</time>
      </trkpt>
      <trkpt lat="45.68222" lon="5.24378">
        <ele>379.8</ele>
        <time>2025-05-27T08:57:36Z</time>
      </trkpt>
      <trkpt lat="45.68221" lon="5.24379">
        <ele>380.2</ele>
        <time>2025-05-27T08:57:37Z</time>
      </trkpt>
      <trkpt lat="45.6822" lon="5.2438">
        <ele>380.6</ele>
        <time>2025-05-27T08:57:38Z</time>
      </trkpt>
      <trkpt lat="45.68219" lon="5.24381">
        <ele>380.8</ele>
        <time>2025-05-27T08:57:39Z</time>
      </trkpt>
      <trkpt lat="45.68218" lon="5.24382">
        <ele>380.8</ele>
        <time>2025-05-27T08:57:40Z</time>
      </trkpt>
      <trkpt lat="45.68218" lon="5.24384">
        <ele>381.2</ele>
        <time>2025-05-27T08:57:41Z</time>
      </trkpt>
      <trkpt lat="45.68218" lon="5.24386">
        <ele>381.2</ele>
        <time>2025-05-27T08:57:42Z</time>
      </trkpt>
      <trkpt lat="45.68219" lon="5.24388">
        <ele>381.6</ele>
        <time>2025-05-27T08:57:43Z</time>
      </trkpt>
      <trkpt lat="45.68219" lon="5.2439">
        <ele>381.8</ele>
        <time>2025-05-27T08:57:44Z</time>
      </trkpt>
      <trkpt lat="45.68218" lon="5.24392">
        <ele>381.8</ele>
        <time>2025-05-27T08:57:45Z</time>
      </trkpt>
      <trkpt lat="45.68218" lon="5.24394">
        <ele>382.6</ele>
        <time>2025-05-27T08:57:46Z</time>
      </trkpt>
      <trkpt lat="45.68218" lon="5.24397">
        <ele>382.6</ele>
        <time>2025-05-27T08:57:47Z</time>
      </trkpt>
      <trkpt lat="45.68217" lon="5.24401">
        <ele>382.6</ele>
        <time>2025-05-27T08:57:48Z</time>
      </trkpt>
      <trkpt lat="45.68216" lon="5.24402">
        <ele>382.6</ele>
        <time>2025-05-27T08:57:49Z</time>
      </trkpt>
      <trkpt lat="45.68216" lon="5.24405">
        <ele>383.2</ele>
        <time>2025-05-27T08:57:50Z</time>
      </trkpt>
      <trkpt lat="45.68214" lon="5.24408">
        <ele>383.2</ele>
        <time>2025-05-27T08:57:51Z</time>
      </trkpt>
      <trkpt lat="45.68213" lon="5.24411">
        <ele>383.2</ele>
        <time>2025-05-27T08:57:52Z</time>
      </trkpt>
      <trkpt lat="45.68212" lon="5.24414">
        <ele>383.6</ele>
        <time>2025-05-27T08:57:53Z</time>
      </trkpt>
      <trkpt lat="45.68211" lon="5.24418">
        <ele>383.6</ele>
        <time>2025-05-27T08:57:54Z</time>
      </trkpt>
      <trkpt lat="45.68211" lon="5.24421">
        <ele>384.2</ele>
        <time>2025-05-27T08:57:55Z</time>
      </trkpt>
      <trkpt lat="45.6821" lon="5.24425">
        <ele>384.4</ele>
        <time>2025-05-27T08:57:56Z</time>
      </trkpt>
      <trkpt lat="45.68211" lon="5.2443">
        <ele>384.8</ele>
        <time>2025-05-27T08:57:57Z</time>
      </trkpt>
      <trkpt lat="45.68212" lon="5.24434">
        <ele>384.4</ele>
        <time>2025-05-27T08:57:58Z</time>
      </trkpt>
      <trkpt lat="45.68215" lon="5.24438">
        <ele>383.6</ele>
        <time>2025-05-27T08:57:59Z</time>
      </trkpt>
      <trkpt lat="45.68223" lon="5.24443">
        <ele>382.6</ele>
        <time>2025-05-27T08:58:00Z</time>
      </trkpt>
      <trkpt lat="45.68226" lon="5.24448">
        <ele>382.4</ele>
        <time>2025-05-27T08:58:01Z</time>
      </trkpt>
      <trkpt lat="45.68229" lon="5.24454">
        <ele>381.8</ele>
        <time>2025-05-27T08:58:02Z</time>
      </trkpt>
      <trkpt lat="45.68233" lon="5.24458">
        <ele>380.8</ele>
        <time>2025-05-27T08:58:03Z</time>
      </trkpt>
      <trkpt lat="45.68235" lon="5.24463">
        <ele>380.4</ele>
        <time>2025-05-27T08:58:04Z</time>
      </trkpt>
      <trkpt lat="45.68236" lon="5.24469">
        <ele>380.4</ele>
        <time>2025-05-27T08:58:05Z</time>
      </trkpt>
      <trkpt lat="45.68235" lon="5.2448">
        <ele>379.2</ele>
        <time>2025-05-27T08:58:06Z</time>
      </trkpt>
      <trkpt lat="45.68236" lon="5.24495">
        <ele>378.6</ele>
        <time>2025-05-27T08:58:07Z</time>
      </trkpt>
      <trkpt lat="45.68236" lon="5.24504">
        <ele>378</ele>
        <time>2025-05-27T08:58:08Z</time>
      </trkpt>
      <trkpt lat="45.68235" lon="5.24512">
        <ele>378</ele>
        <time>2025-05-27T08:58:09Z</time>
      </trkpt>
      <trkpt lat="45.68237" lon="5.24522">
        <ele>377.8</ele>
        <time>2025-05-27T08:58:10Z</time>
      </trkpt>
      <trkpt lat="45.68237" lon="5.2453">
        <ele>377.8</ele>
        <time>2025-05-27T08:58:11Z</time>
      </trkpt>
      <trkpt lat="45.68238" lon="5.24538">
        <ele>377.2</ele>
        <time>2025-05-27T08:58:12Z</time>
      </trkpt>
      <trkpt lat="45.68241" lon="5.24549">
        <ele>377</ele>
        <time>2025-05-27T08:58:13Z</time>
      </trkpt>
      <trkpt lat="45.68242" lon="5.24557">
        <ele>377</ele>
        <time>2025-05-27T08:58:14Z</time>
      </trkpt>
      <trkpt lat="45.68244" lon="5.24566">
        <ele>377.2</ele>
        <time>2025-05-27T08:58:15Z</time>
      </trkpt>
      <trkpt lat="45.68244" lon="5.24575">
        <ele>376.8</ele>
        <time>2025-05-27T08:58:16Z</time>
      </trkpt>
      <trkpt lat="45.68245" lon="5.24585">
        <ele>376.2</ele>
        <time>2025-05-27T08:58:17Z</time>
      </trkpt>
      <trkpt lat="45.68245" lon="5.24593">
        <ele>376.6</ele>
        <time>2025-05-27T08:58:18Z</time>
      </trkpt>
      <trkpt lat="45.68244" lon="5.246">
        <ele>377</ele>
        <time>2025-05-27T08:58:19Z</time>
      </trkpt>
      <trkpt lat="45.68243" lon="5.24608">
        <ele>377</ele>
        <time>2025-05-27T08:58:20Z</time>
      </trkpt>
      <trkpt lat="45.68242" lon="5.24615">
        <ele>377.6</ele>
        <time>2025-05-27T08:58:21Z</time>
      </trkpt>
      <trkpt lat="45.68241" lon="5.24622">
        <ele>377.6</ele>
        <time>2025-05-27T08:58:22Z</time>
      </trkpt>
      <trkpt lat="45.6824" lon="5.2463">
        <ele>377.6</ele>
        <time>2025-05-27T08:58:23Z</time>
      </trkpt>
      <trkpt lat="45.6824" lon="5.2463">
        <ele>377.8</ele>
        <time>2025-05-27T08:58:24Z</time>
      </trkpt>
      <trkpt lat="45.68241" lon="5.24637">
        <ele>377.8</ele>
        <time>2025-05-27T08:58:25Z</time>
      </trkpt>
      <trkpt lat="45.68239" lon="5.24644">
        <ele>378.2</ele>
        <time>2025-05-27T08:58:26Z</time>
      </trkpt>
      <trkpt lat="45.68238" lon="5.24651">
        <ele>378.2</ele>
        <time>2025-05-27T08:58:27Z</time>
      </trkpt>
      <trkpt lat="45.68238" lon="5.24659">
        <ele>378.2</ele>
        <time>2025-05-27T08:58:28Z</time>
      </trkpt>
      <trkpt lat="45.68238" lon="5.24667">
        <ele>378</ele>
        <time>2025-05-27T08:58:29Z</time>
      </trkpt>
      <trkpt lat="45.68237" lon="5.24675">
        <ele>377.6</ele>
        <time>2025-05-27T08:58:30Z</time>
      </trkpt>
      <trkpt lat="45.68237" lon="5.24682">
        <ele>377.6</ele>
        <time>2025-05-27T08:58:31Z</time>
      </trkpt>
      <trkpt lat="45.68236" lon="5.2469">
        <ele>377.8</ele>
        <time>2025-05-27T08:58:32Z</time>
      </trkpt>
      <trkpt lat="45.68234" lon="5.24697">
        <ele>378</ele>
        <time>2025-05-27T08:58:33Z</time>
      </trkpt>
      <trkpt lat="45.68236" lon="5.24702">
        <ele>377.8</ele>
        <time>2025-05-27T08:58:34Z</time>
      </trkpt>
      <trkpt lat="45.68235" lon="5.24711">
        <ele>377.6</ele>
        <time>2025-05-27T08:58:35Z</time>
      </trkpt>
      <trkpt lat="45.68234" lon="5.2472">
        <ele>377.6</ele>
        <time>2025-05-27T08:58:36Z</time>
      </trkpt>
      <trkpt lat="45.68232" lon="5.24729">
        <ele>377.6</ele>
        <time>2025-05-27T08:58:37Z</time>
      </trkpt>
      <trkpt lat="45.68231" lon="5.24738">
        <ele>377.6</ele>
        <time>2025-05-27T08:58:38Z</time>
      </trkpt>
      <trkpt lat="45.68229" lon="5.24747">
        <ele>377.6</ele>
        <time>2025-05-27T08:58:39Z</time>
      </trkpt>
      <trkpt lat="45.68227" lon="5.24757">
        <ele>377.6</ele>
        <time>2025-05-27T08:58:40Z</time>
      </trkpt>
      <trkpt lat="45.68226" lon="5.24766">
        <ele>377.6</ele>
        <time>2025-05-27T08:58:41Z</time>
      </trkpt>
      <trkpt lat="45.68225" lon="5.24776">
        <ele>377</ele>
        <time>2025-05-27T08:58:42Z</time>
      </trkpt>
      <trkpt lat="45.68223" lon="5.24786">
        <ele>376.8</ele>
        <time>2025-05-27T08:58:43Z</time>
      </trkpt>
      <trkpt lat="45.68221" lon="5.24795">
        <ele>377.4</ele>
        <time>2025-05-27T08:58:44Z</time>
      </trkpt>
      <trkpt lat="45.6822" lon="5.24805">
        <ele>376.6</ele>
        <time>2025-05-27T08:58:45Z</time>
      </trkpt>
      <trkpt lat="45.68219" lon="5.24815">
        <ele>377.2</ele>
        <time>2025-05-27T08:58:46Z</time>
      </trkpt>
      <trkpt lat="45.68218" lon="5.24825">
        <ele>376.8</ele>
        <time>2025-05-27T08:58:47Z</time>
      </trkpt>
      <trkpt lat="45.68216" lon="5.24833">
        <ele>376.2</ele>
        <time>2025-05-27T08:58:48Z</time>
      </trkpt>
      <trkpt lat="45.68213" lon="5.24843">
        <ele>376</ele>
        <time>2025-05-27T08:58:49Z</time>
      </trkpt>
      <trkpt lat="45.6821" lon="5.24851">
        <ele>375.4</ele>
        <time>2025-05-27T08:58:50Z</time>
      </trkpt>
      <trkpt lat="45.68205" lon="5.24857">
        <ele>375.4</ele>
        <time>2025-05-27T08:58:51Z</time>
      </trkpt>
      <trkpt lat="45.682" lon="5.24862">
        <ele>375.4</ele>
        <time>2025-05-27T08:58:52Z</time>
      </trkpt>
      <trkpt lat="45.68194" lon="5.24867">
        <ele>375.2</ele>
        <time>2025-05-27T08:58:53Z</time>
      </trkpt>
      <trkpt lat="45.68189" lon="5.24872">
        <ele>374.8</ele>
        <time>2025-05-27T08:58:54Z</time>
      </trkpt>
      <trkpt lat="45.68184" lon="5.24876">
        <ele>375</ele>
        <time>2025-05-27T08:58:55Z</time>
      </trkpt>
      <trkpt lat="45.68178" lon="5.2488">
        <ele>375.8</ele>
        <time>2025-05-27T08:58:56Z</time>
      </trkpt>
      <trkpt lat="45.68174" lon="5.24886">
        <ele>376.2</ele>
        <time>2025-05-27T08:58:57Z</time>
      </trkpt>
      <trkpt lat="45.68168" lon="5.24889">
        <ele>376.6</ele>
        <time>2025-05-27T08:58:58Z</time>
      </trkpt>
      <trkpt lat="45.68163" lon="5.24893">
        <ele>376.2</ele>
        <time>2025-05-27T08:58:59Z</time>
      </trkpt>
      <trkpt lat="45.68158" lon="5.24898">
        <ele>376.6</ele>
        <time>2025-05-27T08:59:00Z</time>
      </trkpt>
      <trkpt lat="45.68153" lon="5.24902">
        <ele>376.6</ele>
        <time>2025-05-27T08:59:01Z</time>
      </trkpt>
      <trkpt lat="45.68148" lon="5.24906">
        <ele>376.6</ele>
        <time>2025-05-27T08:59:02Z</time>
      </trkpt>
      <trkpt lat="45.68143" lon="5.2491">
        <ele>376.6</ele>
        <time>2025-05-27T08:59:03Z</time>
      </trkpt>
      <trkpt lat="45.68137" lon="5.24914">
        <ele>377</ele>
        <time>2025-05-27T08:59:04Z</time>
      </trkpt>
      <trkpt lat="45.68132" lon="5.24918">
        <ele>376.8</ele>
        <time>2025-05-27T08:59:05Z</time>
      </trkpt>
      <trkpt lat="45.68127" lon="5.24922">
        <ele>376.8</ele>
        <time>2025-05-27T08:59:06Z</time>
      </trkpt>
      <trkpt lat="45.68123" lon="5.24927">
        <ele>376.8</ele>
        <time>2025-05-27T08:59:07Z</time>
      </trkpt>
      <trkpt lat="45.68118" lon="5.24931">
        <ele>376.8</ele>
        <time>2025-05-27T08:59:08Z</time>
      </trkpt>
      <trkpt lat="45.68113" lon="5.24935">
        <ele>377.6</ele>
        <time>2025-05-27T08:59:09Z</time>
      </trkpt>
      <trkpt lat="45.68108" lon="5.24939">
        <ele>377.2</ele>
        <time>2025-05-27T08:59:10Z</time>
      </trkpt>
      <trkpt lat="45.68104" lon="5.24942">
        <ele>378.6</ele>
        <time>2025-05-27T08:59:11Z</time>
      </trkpt>
      <trkpt lat="45.681" lon="5.24946">
        <ele>378.6</ele>
        <time>2025-05-27T08:59:12Z</time>
      </trkpt>
      <trkpt lat="45.68097" lon="5.24949">
        <ele>379</ele>
        <time>2025-05-27T08:59:13Z</time>
      </trkpt>
      <trkpt lat="45.68093" lon="5.24952">
        <ele>379</ele>
        <time>2025-05-27T08:59:14Z</time>
      </trkpt>
      <trkpt lat="45.6809" lon="5.24955">
        <ele>379</ele>
        <time>2025-05-27T08:59:15Z</time>
      </trkpt>
      <trkpt lat="45.68087" lon="5.24957">
        <ele>379</ele>
        <time>2025-05-27T08:59:16Z</time>
      </trkpt>
      <trkpt lat="45.68085" lon="5.24959">
        <ele>379.2</ele>
        <time>2025-05-27T08:59:17Z</time>
      </trkpt>
      <trkpt lat="45.68083" lon="5.2496">
        <ele>379.8</ele>
        <time>2025-05-27T08:59:18Z</time>
      </trkpt>
      <trkpt lat="45.68081" lon="5.24962">
        <ele>380.2</ele>
        <time>2025-05-27T08:59:19Z</time>
      </trkpt>
      <trkpt lat="45.6808" lon="5.24965">
        <ele>380.2</ele>
        <time>2025-05-27T08:59:20Z</time>
      </trkpt>
      <trkpt lat="45.68078" lon="5.24968">
        <ele>380.2</ele>
        <time>2025-05-27T08:59:21Z</time>
      </trkpt>
      <trkpt lat="45.68076" lon="5.2497">
        <ele>380.2</ele>
        <time>2025-05-27T08:59:22Z</time>
      </trkpt>
      <trkpt lat="45.68075" lon="5.24973">
        <ele>380.6</ele>
        <time>2025-05-27T08:59:23Z</time>
      </trkpt>
      <trkpt lat="45.68073" lon="5.24976">
        <ele>381</ele>
        <time>2025-05-27T08:59:24Z</time>
      </trkpt>
      <trkpt lat="45.68071" lon="5.24978">
        <ele>381</ele>
        <time>2025-05-27T08:59:25Z</time>
      </trkpt>
      <trkpt lat="45.68069" lon="5.2498">
        <ele>381.4</ele>
        <time>2025-05-27T08:59:26Z</time>
      </trkpt>
      <trkpt lat="45.68067" lon="5.24982">
        <ele>382.2</ele>
        <time>2025-05-27T08:59:27Z</time>
      </trkpt>
      <trkpt lat="45.68065" lon="5.24984">
        <ele>382.2</ele>
        <time>2025-05-27T08:59:28Z</time>
      </trkpt>
      <trkpt lat="45.68063" lon="5.24986">
        <ele>382.4</ele>
        <time>2025-05-27T08:59:29Z</time>
      </trkpt>
      <trkpt lat="45.68061" lon="5.24988">
        <ele>382.4</ele>
        <time>2025-05-27T08:59:30Z</time>
      </trkpt>
      <trkpt lat="45.68059" lon="5.2499">
        <ele>383</ele>
        <time>2025-05-27T08:59:31Z</time>
      </trkpt>
      <trkpt lat="45.68057" lon="5.24993">
        <ele>383.2</ele>
        <time>2025-05-27T08:59:32Z</time>
      </trkpt>
      <trkpt lat="45.68056" lon="5.24995">
        <ele>383.6</ele>
        <time>2025-05-27T08:59:33Z</time>
      </trkpt>
      <trkpt lat="45.68054" lon="5.24997">
        <ele>383.8</ele>
        <time>2025-05-27T08:59:34Z</time>
      </trkpt>
      <trkpt lat="45.68052" lon="5.24999">
        <ele>384.2</ele>
        <time>2025-05-27T08:59:35Z</time>
      </trkpt>
      <trkpt lat="45.6805" lon="5.25001">
        <ele>384.2</ele>
        <time>2025-05-27T08:59:36Z</time>
      </trkpt>
      <trkpt lat="45.68048" lon="5.25003">
        <ele>384.4</ele>
        <time>2025-05-27T08:59:37Z</time>
      </trkpt>
      <trkpt lat="45.68046" lon="5.25005">
        <ele>384</ele>
        <time>2025-05-27T08:59:38Z</time>
      </trkpt>
      <trkpt lat="45.68044" lon="5.25007">
        <ele>383</ele>
        <time>2025-05-27T08:59:39Z</time>
      </trkpt>
      <trkpt lat="45.68042" lon="5.25009">
        <ele>383.6</ele>
        <time>2025-05-27T08:59:40Z</time>
      </trkpt>
      <trkpt lat="45.68041" lon="5.25012">
        <ele>383.6</ele>
        <time>2025-05-27T08:59:41Z</time>
      </trkpt>
      <trkpt lat="45.68039" lon="5.25014">
        <ele>384</ele>
        <time>2025-05-27T08:59:42Z</time>
      </trkpt>
      <trkpt lat="45.68038" lon="5.25017">
        <ele>385</ele>
        <time>2025-05-27T08:59:43Z</time>
      </trkpt>
      <trkpt lat="45.68037" lon="5.25019">
        <ele>385.6</ele>
        <time>2025-05-27T08:59:44Z</time>
      </trkpt>
      <trkpt lat="45.68036" lon="5.25022">
        <ele>386</ele>
        <time>2025-05-27T08:59:45Z</time>
      </trkpt>
      <trkpt lat="45.68035" lon="5.25024">
        <ele>386</ele>
        <time>2025-05-27T08:59:46Z</time>
      </trkpt>
      <trkpt lat="45.68034" lon="5.25027">
        <ele>386</ele>
        <time>2025-05-27T08:59:47Z</time>
      </trkpt>
      <trkpt lat="45.68032" lon="5.2503">
        <ele>386</ele>
        <time>2025-05-27T08:59:48Z</time>
      </trkpt>
      <trkpt lat="45.6803" lon="5.25033">
        <ele>386</ele>
        <time>2025-05-27T08:59:49Z</time>
      </trkpt>
      <trkpt lat="45.68029" lon="5.25035">
        <ele>386.2</ele>
        <time>2025-05-27T08:59:50Z</time>
      </trkpt>
      <trkpt lat="45.68027" lon="5.25038">
        <ele>386.4</ele>
        <time>2025-05-27T08:59:51Z</time>
      </trkpt>
      <trkpt lat="45.68025" lon="5.25041">
        <ele>386.4</ele>
        <time>2025-05-27T08:59:52Z</time>
      </trkpt>
      <trkpt lat="45.68024" lon="5.25045">
        <ele>386.4</ele>
        <time>2025-05-27T08:59:53Z</time>
      </trkpt>
      <trkpt lat="45.68022" lon="5.25048">
        <ele>386.4</ele>
        <time>2025-05-27T08:59:54Z</time>
      </trkpt>
      <trkpt lat="45.6802" lon="5.25051">
        <ele>386.4</ele>
        <time>2025-05-27T08:59:55Z</time>
      </trkpt>
      <trkpt lat="45.68018" lon="5.25054">
        <ele>386.4</ele>
        <time>2025-05-27T08:59:56Z</time>
      </trkpt>
      <trkpt lat="45.68016" lon="5.25057">
        <ele>386.4</ele>
        <time>2025-05-27T08:59:57Z</time>
      </trkpt>
      <trkpt lat="45.68014" lon="5.2506">
        <ele>386.8</ele>
        <time>2025-05-27T08:59:58Z</time>
      </trkpt>
      <trkpt lat="45.68013" lon="5.25063">
        <ele>387.2</ele>
        <time>2025-05-27T08:59:59Z</time>
      </trkpt>
      <trkpt lat="45.68011" lon="5.25066">
        <ele>386.8</ele>
        <time>2025-05-27T09:00:00Z</time>
      </trkpt>
      <trkpt lat="45.68009" lon="5.25069">
        <ele>386.8</ele>
        <time>2025-05-27T09:00:01Z</time>
      </trkpt>
      <trkpt lat="45.68008" lon="5.25072">
        <ele>387.2</ele>
        <time>2025-05-27T09:00:02Z</time>
      </trkpt>
      <trkpt lat="45.68006" lon="5.25074">
        <ele>387.2</ele>
        <time>2025-05-27T09:00:03Z</time>
      </trkpt>
      <trkpt lat="45.68005" lon="5.25077">
        <ele>387.2</ele>
        <time>2025-05-27T09:00:04Z</time>
      </trkpt>
      <trkpt lat="45.68004" lon="5.25079">
        <ele>387.2</ele>
        <time>2025-05-27T09:00:05Z</time>
      </trkpt>
      <trkpt lat="45.68004" lon="5.2508">
        <ele>386.6</ele>
        <time>2025-05-27T09:00:06Z</time>
      </trkpt>
      <trkpt lat="45.68003" lon="5.25084">
        <ele>386.6</ele>
        <time>2025-05-27T09:00:07Z</time>
      </trkpt>
      <trkpt lat="45.68001" lon="5.25087">
        <ele>386.6</ele>
        <time>2025-05-27T09:00:08Z</time>
      </trkpt>
      <trkpt lat="45.67999" lon="5.25091">
        <ele>386.6</ele>
        <time>2025-05-27T09:00:09Z</time>
      </trkpt>
      <trkpt lat="45.67997" lon="5.25094">
        <ele>386.6</ele>
        <time>2025-05-27T09:00:10Z</time>
      </trkpt>
      <trkpt lat="45.67995" lon="5.25097">
        <ele>386.6</ele>
        <time>2025-05-27T09:00:11Z</time>
      </trkpt>
      <trkpt lat="45.67994" lon="5.25101">
        <ele>386.6</ele>
        <time>2025-05-27T09:00:12Z</time>
      </trkpt>
      <trkpt lat="45.67993" lon="5.25103">
        <ele>386.2</ele>
        <time>2025-05-27T09:00:13Z</time>
      </trkpt>
      <trkpt lat="45.67993" lon="5.25107">
        <ele>385.8</ele>
        <time>2025-05-27T09:00:14Z</time>
      </trkpt>
      <trkpt lat="45.67991" lon="5.25112">
        <ele>385.8</ele>
        <time>2025-05-27T09:00:15Z</time>
      </trkpt>
      <trkpt lat="45.67986" lon="5.25118">
        <ele>385.6</ele>
        <time>2025-05-27T09:00:16Z</time>
      </trkpt>
      <trkpt lat="45.67982" lon="5.25125">
        <ele>385.2</ele>
        <time>2025-05-27T09:00:17Z</time>
      </trkpt>
      <trkpt lat="45.67979" lon="5.25131">
        <ele>384.8</ele>
        <time>2025-05-27T09:00:18Z</time>
      </trkpt>
      <trkpt lat="45.67976" lon="5.25138">
        <ele>384.4</ele>
        <time>2025-05-27T09:00:19Z</time>
      </trkpt>
      <trkpt lat="45.67976" lon="5.25138">
        <ele>384</ele>
        <time>2025-05-27T09:00:20Z</time>
      </trkpt>
      <trkpt lat="45.67976" lon="5.25138">
        <ele>383.4</ele>
        <time>2025-05-27T09:00:21Z</time>
      </trkpt>
      <trkpt lat="45.67967" lon="5.25172">
        <ele>383</ele>
        <time>2025-05-27T09:00:23Z</time>
      </trkpt>
      <trkpt lat="45.67966" lon="5.25182">
        <ele>382.6</ele>
        <time>2025-05-27T09:00:24Z</time>
      </trkpt>
      <trkpt lat="45.67965" lon="5.25192">
        <ele>382.6</ele>
        <time>2025-05-27T09:00:25Z</time>
      </trkpt>
      <trkpt lat="45.67964" lon="5.25202">
        <ele>382.4</ele>
        <time>2025-05-27T09:00:26Z</time>
      </trkpt>
      <trkpt lat="45.67964" lon="5.25213">
        <ele>381</ele>
        <time>2025-05-27T09:00:27Z</time>
      </trkpt>
      <trkpt lat="45.67964" lon="5.25224">
        <ele>381.2</ele>
        <time>2025-05-27T09:00:28Z</time>
      </trkpt>
      <trkpt lat="45.67964" lon="5.25235">
        <ele>380.6</ele>
        <time>2025-05-27T09:00:29Z</time>
      </trkpt>
      <trkpt lat="45.67965" lon="5.25246">
        <ele>380.2</ele>
        <time>2025-05-27T09:00:30Z</time>
      </trkpt>
      <trkpt lat="45.67966" lon="5.25257">
        <ele>379.6</ele>
        <time>2025-05-27T09:00:31Z</time>
      </trkpt>
      <trkpt lat="45.67968" lon="5.25266">
        <ele>379</ele>
        <time>2025-05-27T09:00:32Z</time>
      </trkpt>
      <trkpt lat="45.6797" lon="5.25275">
        <ele>378.8</ele>
        <time>2025-05-27T09:00:33Z</time>
      </trkpt>
      <trkpt lat="45.67972" lon="5.25284">
        <ele>378.6</ele>
        <time>2025-05-27T09:00:34Z</time>
      </trkpt>
      <trkpt lat="45.67972" lon="5.25291">
        <ele>378.8</ele>
        <time>2025-05-27T09:00:35Z</time>
      </trkpt>
      <trkpt lat="45.67974" lon="5.25297">
        <ele>379.6</ele>
        <time>2025-05-27T09:00:36Z</time>
      </trkpt>
      <trkpt lat="45.67975" lon="5.25302">
        <ele>379.6</ele>
        <time>2025-05-27T09:00:37Z</time>
      </trkpt>
      <trkpt lat="45.67975" lon="5.25308">
        <ele>379.6</ele>
        <time>2025-05-27T09:00:38Z</time>
      </trkpt>
      <trkpt lat="45.67974" lon="5.25312">
        <ele>379.2</ele>
        <time>2025-05-27T09:00:39Z</time>
      </trkpt>
      <trkpt lat="45.67973" lon="5.25315">
        <ele>379.2</ele>
        <time>2025-05-27T09:00:40Z</time>
      </trkpt>
      <trkpt lat="45.67972" lon="5.2532">
        <ele>378.6</ele>
        <time>2025-05-27T09:00:41Z</time>
      </trkpt>
      <trkpt lat="45.67969" lon="5.25321">
        <ele>378.4</ele>
        <time>2025-05-27T09:00:42Z</time>
      </trkpt>
      <trkpt lat="45.67969" lon="5.25323">
        <ele>378.4</ele>
        <time>2025-05-27T09:00:43Z</time>
      </trkpt>
      <trkpt lat="45.6797" lon="5.25324">
        <ele>378.4</ele>
        <time>2025-05-27T09:00:44Z</time>
      </trkpt>
      <trkpt lat="45.6797" lon="5.25324">
        <ele>378.2</ele>
        <time>2025-05-27T09:00:45Z</time>
      </trkpt>
      <trkpt lat="45.67971" lon="5.25324">
        <ele>378.2</ele>
        <time>2025-05-27T09:00:46Z</time>
      </trkpt>
      <trkpt lat="45.6797" lon="5.25324">
        <ele>378</ele>
        <time>2025-05-27T09:00:47Z</time>
      </trkpt>
      <trkpt lat="45.67971" lon="5.25323">
        <ele>378</ele>
        <time>2025-05-27T09:00:56Z</time>
      </trkpt>
      <trkpt lat="45.67972" lon="5.25322">
        <ele>378</ele>
        <time>2025-05-27T09:00:57Z</time>
      </trkpt>
      <trkpt lat="45.67972" lon="5.25322">
        <ele>378</ele>
        <time>2025-05-27T09:00:58Z</time>
      </trkpt>
      <trkpt lat="45.67972" lon="5.25322">
        <ele>378</ele>
        <time>2025-05-27T09:00:59Z</time>
      </trkpt>
      <trkpt lat="45.67972" lon="5.25322">
        <ele>378</ele>
        <time>2025-05-27T09:01:00Z</time>
      </trkpt>
      <trkpt lat="45.67972" lon="5.25322">
        <ele>378</ele>
        <time>2025-05-27T09:01:01Z</time>
      </trkpt>
      <trkpt lat="45.67969" lon="5.25325">
        <ele>378</ele>
        <time>2025-05-27T09:01:20Z</time>
      </trkpt>
      <trkpt lat="45.67969" lon="5.25325">
        <ele>378</ele>
        <time>2025-05-27T09:01:21Z</time>
      </trkpt>
      <trkpt lat="45.67969" lon="5.25328">
        <ele>377.8</ele>
        <time>2025-05-27T09:01:28Z</time>
      </trkpt>
      <trkpt lat="45.67967" lon="5.2533">
        <ele>377.8</ele>
        <time>2025-05-27T09:01:29Z</time>
      </trkpt>
      <trkpt lat="45.67966" lon="5.25332">
        <ele>377.8</ele>
        <time>2025-05-27T09:01:30Z</time>
      </trkpt>
      <trkpt lat="45.67964" lon="5.25335">
        <ele>377.8</ele>
        <time>2025-05-27T09:01:31Z</time>
      </trkpt>
      <trkpt lat="45.67962" lon="5.25337">
        <ele>377.8</ele>
        <time>2025-05-27T09:01:32Z</time>
      </trkpt>
      <trkpt lat="45.6796" lon="5.25339">
        <ele>377.4</ele>
        <time>2025-05-27T09:01:33Z</time>
      </trkpt>
      <trkpt lat="45.67959" lon="5.25341">
        <ele>376.8</ele>
        <time>2025-05-27T09:01:34Z</time>
      </trkpt>
      <trkpt lat="45.67957" lon="5.25343">
        <ele>377.4</ele>
        <time>2025-05-27T09:01:35Z</time>
      </trkpt>
      <trkpt lat="45.67955" lon="5.25346">
        <ele>375.6</ele>
        <time>2025-05-27T09:01:36Z</time>
      </trkpt>
      <trkpt lat="45.67952" lon="5.2535">
        <ele>377</ele>
        <time>2025-05-27T09:01:37Z</time>
      </trkpt>
      <trkpt lat="45.6795" lon="5.25353">
        <ele>377</ele>
        <time>2025-05-27T09:01:38Z</time>
      </trkpt>
      <trkpt lat="45.67948" lon="5.25356">
        <ele>377</ele>
        <time>2025-05-27T09:01:39Z</time>
      </trkpt>
      <trkpt lat="45.67945" lon="5.25359">
        <ele>377</ele>
        <time>2025-05-27T09:01:40Z</time>
      </trkpt>
      <trkpt lat="45.67942" lon="5.25362">
        <ele>376.6</ele>
        <time>2025-05-27T09:01:41Z</time>
      </trkpt>
      <trkpt lat="45.67939" lon="5.25365">
        <ele>376.2</ele>
        <time>2025-05-27T09:01:42Z</time>
      </trkpt>
      <trkpt lat="45.67936" lon="5.25369">
        <ele>375.8</ele>
        <time>2025-05-27T09:01:43Z</time>
      </trkpt>
      <trkpt lat="45.67933" lon="5.25372">
        <ele>375.6</ele>
        <time>2025-05-27T09:01:44Z</time>
      </trkpt>
      <trkpt lat="45.67931" lon="5.25374">
        <ele>375.2</ele>
        <time>2025-05-27T09:01:45Z</time>
      </trkpt>
      <trkpt lat="45.67929" lon="5.25377">
        <ele>375</ele>
        <time>2025-05-27T09:01:46Z</time>
      </trkpt>
      <trkpt lat="45.67927" lon="5.25379">
        <ele>374.4</ele>
        <time>2025-05-27T09:01:47Z</time>
      </trkpt>
      <trkpt lat="45.67927" lon="5.25382">
        <ele>373.8</ele>
        <time>2025-05-27T09:01:48Z</time>
        <extensions>
          <visugpx:TrkExtension xmlns:visugpx="https://www.visugpx.com/editgpx/">
            <visugpx:node>5</visugpx:node>
            </visugpx:TrkExtension>
        </extensions>
      </trkpt>
      <trkpt lat="45.67912" lon="5.25375">
        <ele>376.1</ele>
        <extensions>
          <visugpx:TrkExtension xmlns:visugpx="https://www.visugpx.com/editgpx/">
            <visugpx:node>6</visugpx:node>
            </visugpx:TrkExtension>
        </extensions>
      </trkpt>
      <trkpt lat="45.67893" lon="5.25344">
        <ele>376.3</ele>
      </trkpt>
      <trkpt lat="45.67882" lon="5.25331">
        <ele>376.7</ele>
      </trkpt>
      <trkpt lat="45.67859" lon="5.25312">
        <ele>377</ele>
      </trkpt>
      <trkpt lat="45.6785" lon="5.25302">
        <ele>376.5</ele>
      </trkpt>
      <trkpt lat="45.67834" lon="5.25273">
        <ele>375.3</ele>
      </trkpt>
      <trkpt lat="45.67822" lon="5.25239">
        <ele>374.6</ele>
      </trkpt>
      <trkpt lat="45.67817" lon="5.2522">
        <ele>374.2</ele>
      </trkpt>
      <trkpt lat="45.67815" lon="5.25209">
        <ele>374.5</ele>
      </trkpt>
      <trkpt lat="45.67809" lon="5.25181">
        <ele>375</ele>
      </trkpt>
      <trkpt lat="45.67808" lon="5.25178">
        <ele>374.9</ele>
      </trkpt>
      <trkpt lat="45.678" lon="5.25139">
        <ele>375.4</ele>
      </trkpt>
      <trkpt lat="45.67789" lon="5.25098">
        <ele>373.2</ele>
      </trkpt>
      <trkpt lat="45.67774" lon="5.25044">
        <ele>371.5</ele>
      </trkpt>
      <trkpt lat="45.67773" lon="5.25021">
        <ele>371.1</ele>
      </trkpt>
      <trkpt lat="45.67777" lon="5.24964">
        <ele>369.6</ele>
      </trkpt>
      <trkpt lat="45.67778" lon="5.24936">
        <ele>368.7</ele>
      </trkpt>
      <trkpt lat="45.67773" lon="5.2488">
        <ele>367.7</ele>
      </trkpt>
      <trkpt lat="45.67774" lon="5.2486">
        <ele>367.7</ele>
      </trkpt>
      <trkpt lat="45.67774" lon="5.24846">
        <ele>367</ele>
      </trkpt>
      <trkpt lat="45.6778" lon="5.24821">
        <ele>365.7</ele>
      </trkpt>
      <trkpt lat="45.67823" lon="5.24746">
        <ele>365.2</ele>
      </trkpt>
      <trkpt lat="45.67826" lon="5.24736">
        <ele>364.7</ele>
      </trkpt>
      <trkpt lat="45.67818" lon="5.24727">
        <ele>363.2</ele>
      </trkpt>
      <trkpt lat="45.67797" lon="5.24718">
        <ele>361.2</ele>
        <extensions>
          <visugpx:TrkExtension xmlns:visugpx="https://www.visugpx.com/editgpx/">
            <visugpx:node>7</visugpx:node>
            </visugpx:TrkExtension>
        </extensions>
      </trkpt>
      <trkpt lat="45.67786" lon="5.24708">
        <ele>360.6</ele>
        <time>2025-05-18T10:30:19Z</time>
        <extensions>
          <visugpx:TrkExtension xmlns:visugpx="https://www.visugpx.com/editgpx/">
            <visugpx:node>8</visugpx:node>
            </visugpx:TrkExtension>
        </extensions>
      </trkpt>
      <trkpt lat="45.67786" lon="5.24707">
        <ele>360.8</ele>
        <time>2025-05-18T10:30:20Z</time>
      </trkpt>
      <trkpt lat="45.67785" lon="5.24708">
        <ele>361</ele>
        <time>2025-05-18T10:31:02Z</time>
      </trkpt>
      <trkpt lat="45.67784" lon="5.24708">
        <ele>361</ele>
        <time>2025-05-18T10:31:03Z</time>
      </trkpt>
      <trkpt lat="45.67783" lon="5.24707">
        <ele>360.6</ele>
        <time>2025-05-18T10:31:04Z</time>
      </trkpt>
      <trkpt lat="45.67783" lon="5.24707">
        <ele>360.6</ele>
        <time>2025-05-18T10:31:05Z</time>
      </trkpt>
      <trkpt lat="45.67783" lon="5.24707">
        <ele>360.6</ele>
        <time>2025-05-18T10:31:06Z</time>
      </trkpt>
      <trkpt lat="45.67782" lon="5.24707">
        <ele>360.6</ele>
        <time>2025-05-18T10:31:07Z</time>
      </trkpt>
      <trkpt lat="45.67781" lon="5.24708">
        <ele>360.6</ele>
        <time>2025-05-18T10:31:08Z</time>
      </trkpt>
      <trkpt lat="45.6778" lon="5.24708">
        <ele>360.6</ele>
        <time>2025-05-18T10:31:09Z</time>
      </trkpt>
      <trkpt lat="45.6778" lon="5.24708">
        <ele>360.4</ele>
        <time>2025-05-18T10:31:10Z</time>
      </trkpt>
      <trkpt lat="45.67779" lon="5.24708">
        <ele>360.4</ele>
        <time>2025-05-18T10:31:11Z</time>
      </trkpt>
      <trkpt lat="45.67779" lon="5.24708">
        <ele>360.4</ele>
        <time>2025-05-18T10:31:12Z</time>
      </trkpt>
      <trkpt lat="45.67777" lon="5.24706">
        <ele>359.8</ele>
        <time>2025-05-18T10:31:22Z</time>
      </trkpt>
      <trkpt lat="45.67775" lon="5.24705">
        <ele>359.8</ele>
        <time>2025-05-18T10:31:23Z</time>
      </trkpt>
      <trkpt lat="45.67774" lon="5.24705">
        <ele>359.6</ele>
        <time>2025-05-18T10:31:24Z</time>
      </trkpt>
      <trkpt lat="45.67772" lon="5.24705">
        <ele>359.6</ele>
        <time>2025-05-18T10:31:25Z</time>
      </trkpt>
      <trkpt lat="45.67771" lon="5.24705">
        <ele>359.6</ele>
        <time>2025-05-18T10:31:26Z</time>
      </trkpt>
      <trkpt lat="45.67769" lon="5.24704">
        <ele>359.6</ele>
        <time>2025-05-18T10:31:27Z</time>
      </trkpt>
      <trkpt lat="45.67767" lon="5.24704">
        <ele>359.6</ele>
        <time>2025-05-18T10:31:28Z</time>
      </trkpt>
      <trkpt lat="45.67765" lon="5.24703">
        <ele>359.6</ele>
        <time>2025-05-18T10:31:29Z</time>
      </trkpt>
      <trkpt lat="45.67763" lon="5.24703">
        <ele>359.2</ele>
        <time>2025-05-18T10:31:30Z</time>
      </trkpt>
      <trkpt lat="45.67762" lon="5.24702">
        <ele>359.2</ele>
        <time>2025-05-18T10:31:31Z</time>
      </trkpt>
      <trkpt lat="45.67759" lon="5.24701">
        <ele>359.2</ele>
        <time>2025-05-18T10:31:32Z</time>
      </trkpt>
      <trkpt lat="45.67757" lon="5.247">
        <ele>359</ele>
        <time>2025-05-18T10:31:33Z</time>
      </trkpt>
      <trkpt lat="45.67755" lon="5.24699">
        <ele>358.8</ele>
        <time>2025-05-18T10:31:34Z</time>
      </trkpt>
      <trkpt lat="45.67752" lon="5.24698">
        <ele>358.8</ele>
        <time>2025-05-18T10:31:35Z</time>
      </trkpt>
      <trkpt lat="45.67749" lon="5.24697">
        <ele>358.8</ele>
        <time>2025-05-18T10:31:36Z</time>
      </trkpt>
      <trkpt lat="45.67745" lon="5.24695">
        <ele>358.8</ele>
        <time>2025-05-18T10:31:37Z</time>
      </trkpt>
      <trkpt lat="45.6774" lon="5.24694">
        <ele>358.2</ele>
        <time>2025-05-18T10:31:38Z</time>
      </trkpt>
      <trkpt lat="45.67736" lon="5.24693">
        <ele>357.8</ele>
        <time>2025-05-18T10:31:39Z</time>
      </trkpt>
      <trkpt lat="45.67731" lon="5.24693">
        <ele>357.8</ele>
        <time>2025-05-18T10:31:40Z</time>
      </trkpt>
      <trkpt lat="45.67726" lon="5.24692">
        <ele>357.2</ele>
        <time>2025-05-18T10:31:41Z</time>
      </trkpt>
      <trkpt lat="45.67722" lon="5.24691">
        <ele>357.2</ele>
        <time>2025-05-18T10:31:42Z</time>
      </trkpt>
      <trkpt lat="45.67719" lon="5.24692">
        <ele>357.6</ele>
        <time>2025-05-18T10:31:43Z</time>
      </trkpt>
      <trkpt lat="45.67715" lon="5.24692">
        <ele>356.6</ele>
        <time>2025-05-18T10:31:44Z</time>
      </trkpt>
      <trkpt lat="45.67712" lon="5.24693">
        <ele>356.6</ele>
        <time>2025-05-18T10:31:45Z</time>
      </trkpt>
      <trkpt lat="45.67708" lon="5.24693">
        <ele>355.6</ele>
        <time>2025-05-18T10:31:46Z</time>
      </trkpt>
      <trkpt lat="45.67706" lon="5.24693">
        <ele>355.2</ele>
        <time>2025-05-18T10:31:47Z</time>
      </trkpt>
      <trkpt lat="45.67704" lon="5.24694">
        <ele>355.2</ele>
        <time>2025-05-18T10:31:48Z</time>
      </trkpt>
      <trkpt lat="45.67702" lon="5.24695">
        <ele>354.6</ele>
        <time>2025-05-18T10:31:49Z</time>
      </trkpt>
      <trkpt lat="45.677" lon="5.24695">
        <ele>354.6</ele>
        <time>2025-05-18T10:31:50Z</time>
      </trkpt>
      <trkpt lat="45.67699" lon="5.24693">
        <ele>354.4</ele>
        <time>2025-05-18T10:31:51Z</time>
      </trkpt>
      <trkpt lat="45.67697" lon="5.2469">
        <ele>354</ele>
        <time>2025-05-18T10:31:52Z</time>
      </trkpt>
      <trkpt lat="45.67695" lon="5.24687">
        <ele>353.8</ele>
        <time>2025-05-18T10:31:53Z</time>
      </trkpt>
      <trkpt lat="45.67692" lon="5.24684">
        <ele>353.2</ele>
        <time>2025-05-18T10:31:54Z</time>
      </trkpt>
      <trkpt lat="45.67688" lon="5.24682">
        <ele>353.2</ele>
        <time>2025-05-18T10:31:55Z</time>
      </trkpt>
      <trkpt lat="45.67684" lon="5.2468">
        <ele>353.2</ele>
        <time>2025-05-18T10:31:56Z</time>
      </trkpt>
      <trkpt lat="45.6768" lon="5.24679">
        <ele>352.6</ele>
        <time>2025-05-18T10:31:57Z</time>
      </trkpt>
      <trkpt lat="45.67673" lon="5.24678">
        <ele>352.6</ele>
        <time>2025-05-18T10:31:58Z</time>
      </trkpt>
      <trkpt lat="45.67668" lon="5.24675">
        <ele>352.6</ele>
        <time>2025-05-18T10:31:59Z</time>
      </trkpt>
      <trkpt lat="45.67663" lon="5.24671">
        <ele>352.2</ele>
        <time>2025-05-18T10:32:00Z</time>
      </trkpt>
      <trkpt lat="45.67659" lon="5.24666">
        <ele>352.2</ele>
        <time>2025-05-18T10:32:01Z</time>
      </trkpt>
      <trkpt lat="45.67654" lon="5.24663">
        <ele>351.8</ele>
        <time>2025-05-18T10:32:02Z</time>
      </trkpt>
      <trkpt lat="45.6765" lon="5.2466">
        <ele>351.6</ele>
        <time>2025-05-18T10:32:03Z</time>
      </trkpt>
      <trkpt lat="45.67646" lon="5.24657">
        <ele>351.6</ele>
        <time>2025-05-18T10:32:04Z</time>
      </trkpt>
      <trkpt lat="45.67642" lon="5.24653">
        <ele>351.4</ele>
        <time>2025-05-18T10:32:05Z</time>
      </trkpt>
      <trkpt lat="45.67638" lon="5.2465">
        <ele>351.4</ele>
        <time>2025-05-18T10:32:06Z</time>
      </trkpt>
      <trkpt lat="45.67634" lon="5.24647">
        <ele>351.4</ele>
        <time>2025-05-18T10:32:07Z</time>
      </trkpt>
      <trkpt lat="45.67631" lon="5.24643">
        <ele>351.2</ele>
        <time>2025-05-18T10:32:08Z</time>
      </trkpt>
      <trkpt lat="45.67629" lon="5.24638">
        <ele>351.2</ele>
        <time>2025-05-18T10:32:09Z</time>
      </trkpt>
      <trkpt lat="45.67629" lon="5.24638">
        <ele>351.2</ele>
        <time>2025-05-18T10:32:10Z</time>
      </trkpt>
      <trkpt lat="45.67628" lon="5.24635">
        <ele>351.6</ele>
        <time>2025-05-18T10:32:11Z</time>
      </trkpt>
      <trkpt lat="45.67628" lon="5.24629">
        <ele>352.2</ele>
        <time>2025-05-18T10:32:12Z</time>
      </trkpt>
      <trkpt lat="45.67628" lon="5.24625">
        <ele>352.2</ele>
        <time>2025-05-18T10:32:13Z</time>
      </trkpt>
      <trkpt lat="45.67628" lon="5.24618">
        <ele>351.6</ele>
        <time>2025-05-18T10:32:14Z</time>
      </trkpt>
      <trkpt lat="45.67631" lon="5.24613">
        <ele>351</ele>
        <time>2025-05-18T10:32:15Z</time>
      </trkpt>
      <trkpt lat="45.67633" lon="5.24607">
        <ele>351.2</ele>
        <time>2025-05-18T10:32:16Z</time>
      </trkpt>
      <trkpt lat="45.67634" lon="5.24599">
        <ele>350.4</ele>
        <time>2025-05-18T10:32:17Z</time>
      </trkpt>
      <trkpt lat="45.67635" lon="5.24592">
        <ele>350.4</ele>
        <time>2025-05-18T10:32:18Z</time>
      </trkpt>
      <trkpt lat="45.67636" lon="5.24584">
        <ele>350.8</ele>
        <time>2025-05-18T10:32:19Z</time>
      </trkpt>
      <trkpt lat="45.67638" lon="5.24576">
        <ele>349.8</ele>
        <time>2025-05-18T10:32:20Z</time>
      </trkpt>
      <trkpt lat="45.6764" lon="5.24569">
        <ele>349</ele>
        <time>2025-05-18T10:32:21Z</time>
      </trkpt>
      <trkpt lat="45.67642" lon="5.24562">
        <ele>349.6</ele>
        <time>2025-05-18T10:32:22Z</time>
      </trkpt>
      <trkpt lat="45.67642" lon="5.24555">
        <ele>348.6</ele>
        <time>2025-05-18T10:32:23Z</time>
      </trkpt>
      <trkpt lat="45.67641" lon="5.24549">
        <ele>348.2</ele>
        <time>2025-05-18T10:32:24Z</time>
      </trkpt>
      <trkpt lat="45.67639" lon="5.24545">
        <ele>347.4</ele>
        <time>2025-05-18T10:32:25Z</time>
      </trkpt>
      <trkpt lat="45.67635" lon="5.2454">
        <ele>347.4</ele>
        <time>2025-05-18T10:32:26Z</time>
      </trkpt>
      <trkpt lat="45.67631" lon="5.24536">
        <ele>347.2</ele>
        <time>2025-05-18T10:32:27Z</time>
      </trkpt>
      <trkpt lat="45.67625" lon="5.24533">
        <ele>346.6</ele>
        <time>2025-05-18T10:32:28Z</time>
      </trkpt>
      <trkpt lat="45.67621" lon="5.24529">
        <ele>346.2</ele>
        <time>2025-05-18T10:32:29Z</time>
      </trkpt>
      <trkpt lat="45.67615" lon="5.24527">
        <ele>345.4</ele>
        <time>2025-05-18T10:32:30Z</time>
      </trkpt>
      <trkpt lat="45.67608" lon="5.24525">
        <ele>345.6</ele>
        <time>2025-05-18T10:32:31Z</time>
      </trkpt>
      <trkpt lat="45.67602" lon="5.24524">
        <ele>345</ele>
        <time>2025-05-18T10:32:32Z</time>
      </trkpt>
      <trkpt lat="45.67597" lon="5.2452">
        <ele>343</ele>
        <time>2025-05-18T10:32:33Z</time>
      </trkpt>
      <trkpt lat="45.67593" lon="5.24516">
        <ele>343.4</ele>
        <time>2025-05-18T10:32:34Z</time>
      </trkpt>
      <trkpt lat="45.67588" lon="5.24512">
        <ele>343</ele>
        <time>2025-05-18T10:32:35Z</time>
      </trkpt>
      <trkpt lat="45.67585" lon="5.24508">
        <ele>342.8</ele>
        <time>2025-05-18T10:32:36Z</time>
      </trkpt>
      <trkpt lat="45.67581" lon="5.24502">
        <ele>341.8</ele>
        <time>2025-05-18T10:32:37Z</time>
      </trkpt>
      <trkpt lat="45.67578" lon="5.24496">
        <ele>343</ele>
        <time>2025-05-18T10:32:38Z</time>
      </trkpt>
      <trkpt lat="45.67576" lon="5.24488">
        <ele>342.4</ele>
        <time>2025-05-18T10:32:39Z</time>
      </trkpt>
      <trkpt lat="45.67573" lon="5.2448">
        <ele>341.8</ele>
        <time>2025-05-18T10:32:40Z</time>
      </trkpt>
      <trkpt lat="45.67572" lon="5.24472">
        <ele>342.2</ele>
        <time>2025-05-18T10:32:41Z</time>
      </trkpt>
      <trkpt lat="45.67571" lon="5.24464">
        <ele>341.6</ele>
        <time>2025-05-18T10:32:42Z</time>
      </trkpt>
      <trkpt lat="45.6757" lon="5.24459">
        <ele>341.6</ele>
        <time>2025-05-18T10:32:43Z</time>
      </trkpt>
      <trkpt lat="45.67569" lon="5.24452">
        <ele>341.8</ele>
        <time>2025-05-18T10:32:44Z</time>
      </trkpt>
      <trkpt lat="45.67568" lon="5.24445">
        <ele>341.8</ele>
        <time>2025-05-18T10:32:45Z</time>
      </trkpt>
      <trkpt lat="45.67568" lon="5.24439">
        <ele>341.8</ele>
        <time>2025-05-18T10:32:46Z</time>
      </trkpt>
      <trkpt lat="45.67568" lon="5.24433">
        <ele>341.8</ele>
        <time>2025-05-18T10:32:47Z</time>
      </trkpt>
      <trkpt lat="45.67569" lon="5.24427">
        <ele>341.2</ele>
        <time>2025-05-18T10:32:48Z</time>
      </trkpt>
      <trkpt lat="45.67569" lon="5.24421">
        <ele>340.8</ele>
        <time>2025-05-18T10:32:49Z</time>
      </trkpt>
      <trkpt lat="45.67567" lon="5.24417">
        <ele>340.8</ele>
        <time>2025-05-18T10:32:50Z</time>
      </trkpt>
      <trkpt lat="45.67567" lon="5.24411">
        <ele>341.2</ele>
        <time>2025-05-18T10:32:51Z</time>
      </trkpt>
      <trkpt lat="45.67565" lon="5.24405">
        <ele>340.4</ele>
        <time>2025-05-18T10:32:52Z</time>
      </trkpt>
      <trkpt lat="45.67564" lon="5.24398">
        <ele>339.8</ele>
        <time>2025-05-18T10:32:53Z</time>
      </trkpt>
      <trkpt lat="45.67562" lon="5.2439">
        <ele>339.6</ele>
        <time>2025-05-18T10:32:54Z</time>
      </trkpt>
      <trkpt lat="45.67559" lon="5.24386">
        <ele>339.6</ele>
        <time>2025-05-18T10:32:55Z</time>
      </trkpt>
      <trkpt lat="45.67557" lon="5.24382">
        <ele>339</ele>
        <time>2025-05-18T10:32:56Z</time>
      </trkpt>
      <trkpt lat="45.67554" lon="5.24376">
        <ele>339</ele>
        <time>2025-05-18T10:32:57Z</time>
      </trkpt>
      <trkpt lat="45.67552" lon="5.2437">
        <ele>336.8</ele>
        <time>2025-05-18T10:32:58Z</time>
      </trkpt>
      <trkpt lat="45.67551" lon="5.24366">
        <ele>337.4</ele>
        <time>2025-05-18T10:32:59Z</time>
      </trkpt>
      <trkpt lat="45.67549" lon="5.2436">
        <ele>337.4</ele>
        <time>2025-05-18T10:33:00Z</time>
      </trkpt>
      <trkpt lat="45.67548" lon="5.24353">
        <ele>337</ele>
        <time>2025-05-18T10:33:01Z</time>
      </trkpt>
      <trkpt lat="45.67545" lon="5.24347">
        <ele>337</ele>
        <time>2025-05-18T10:33:02Z</time>
      </trkpt>
      <trkpt lat="45.67543" lon="5.24342">
        <ele>337.8</ele>
        <time>2025-05-18T10:33:03Z</time>
      </trkpt>
      <trkpt lat="45.6754" lon="5.24336">
        <ele>337.2</ele>
        <time>2025-05-18T10:33:04Z</time>
      </trkpt>
      <trkpt lat="45.67538" lon="5.24329">
        <ele>336.8</ele>
        <time>2025-05-18T10:33:05Z</time>
      </trkpt>
      <trkpt lat="45.67535" lon="5.24323">
        <ele>336.2</ele>
        <time>2025-05-18T10:33:06Z</time>
      </trkpt>
      <trkpt lat="45.67532" lon="5.24318">
        <ele>335.8</ele>
        <time>2025-05-18T10:33:07Z</time>
      </trkpt>
      <trkpt lat="45.67529" lon="5.24315">
        <ele>335.8</ele>
        <time>2025-05-18T10:33:08Z</time>
      </trkpt>
      <trkpt lat="45.67525" lon="5.24309">
        <ele>335.4</ele>
        <time>2025-05-18T10:33:09Z</time>
      </trkpt>
      <trkpt lat="45.67525" lon="5.24304">
        <ele>334.8</ele>
        <time>2025-05-18T10:33:10Z</time>
      </trkpt>
      <trkpt lat="45.67524" lon="5.24299">
        <ele>334.8</ele>
        <time>2025-05-18T10:33:11Z</time>
      </trkpt>
      <trkpt lat="45.67523" lon="5.24294">
        <ele>335.4</ele>
        <time>2025-05-18T10:33:12Z</time>
      </trkpt>
      <trkpt lat="45.67524" lon="5.24289">
        <ele>335.4</ele>
        <time>2025-05-18T10:33:13Z</time>
      </trkpt>
      <trkpt lat="45.67525" lon="5.24285">
        <ele>335.4</ele>
        <time>2025-05-18T10:33:14Z</time>
      </trkpt>
      <trkpt lat="45.67529" lon="5.24277">
        <ele>333.8</ele>
        <time>2025-05-18T10:33:15Z</time>
      </trkpt>
      <trkpt lat="45.67531" lon="5.24271">
        <ele>333.2</ele>
        <time>2025-05-18T10:33:16Z</time>
      </trkpt>
      <trkpt lat="45.67533" lon="5.24265">
        <ele>332.6</ele>
        <time>2025-05-18T10:33:17Z</time>
      </trkpt>
      <trkpt lat="45.67536" lon="5.24258">
        <ele>332.8</ele>
        <time>2025-05-18T10:33:18Z</time>
      </trkpt>
      <trkpt lat="45.67535" lon="5.24252">
        <ele>332.6</ele>
        <time>2025-05-18T10:33:19Z</time>
      </trkpt>
      <trkpt lat="45.67538" lon="5.24244">
        <ele>332.6</ele>
        <time>2025-05-18T10:33:20Z</time>
      </trkpt>
      <trkpt lat="45.67539" lon="5.24236">
        <ele>333.4</ele>
        <time>2025-05-18T10:33:21Z</time>
      </trkpt>
      <trkpt lat="45.67542" lon="5.24229">
        <ele>332.8</ele>
        <time>2025-05-18T10:33:22Z</time>
      </trkpt>
      <trkpt lat="45.67542" lon="5.24223">
        <ele>332.8</ele>
        <time>2025-05-18T10:33:23Z</time>
      </trkpt>
      <trkpt lat="45.67544" lon="5.24216">
        <ele>332.8</ele>
        <time>2025-05-18T10:33:24Z</time>
      </trkpt>
      <trkpt lat="45.67544" lon="5.24209">
        <ele>332.6</ele>
        <time>2025-05-18T10:33:25Z</time>
      </trkpt>
      <trkpt lat="45.67546" lon="5.24201">
        <ele>332.8</ele>
        <time>2025-05-18T10:33:26Z</time>
      </trkpt>
      <trkpt lat="45.67549" lon="5.24195">
        <ele>332.8</ele>
        <time>2025-05-18T10:33:27Z</time>
      </trkpt>
      <trkpt lat="45.67549" lon="5.24187">
        <ele>332.4</ele>
        <time>2025-05-18T10:33:28Z</time>
      </trkpt>
      <trkpt lat="45.67551" lon="5.24181">
        <ele>332.6</ele>
        <time>2025-05-18T10:33:29Z</time>
      </trkpt>
      <trkpt lat="45.6755" lon="5.24174">
        <ele>333</ele>
        <time>2025-05-18T10:33:30Z</time>
      </trkpt>
      <trkpt lat="45.67548" lon="5.24169">
        <ele>334.2</ele>
        <time>2025-05-18T10:33:31Z</time>
      </trkpt>
      <trkpt lat="45.67548" lon="5.24164">
        <ele>334.2</ele>
        <time>2025-05-18T10:33:32Z</time>
      </trkpt>
      <trkpt lat="45.67547" lon="5.2416">
        <ele>332.6</ele>
        <time>2025-05-18T10:33:33Z</time>
      </trkpt>
      <trkpt lat="45.67547" lon="5.24157">
        <ele>333</ele>
        <time>2025-05-18T10:33:34Z</time>
      </trkpt>
      <trkpt lat="45.67546" lon="5.24153">
        <ele>334.4</ele>
        <time>2025-05-18T10:33:35Z</time>
      </trkpt>
      <trkpt lat="45.67546" lon="5.2415">
        <ele>334.4</ele>
        <time>2025-05-18T10:33:36Z</time>
      </trkpt>
      <trkpt lat="45.67545" lon="5.24146">
        <ele>334.8</ele>
        <time>2025-05-18T10:33:37Z</time>
      </trkpt>
      <trkpt lat="45.67546" lon="5.24142">
        <ele>335.2</ele>
        <time>2025-05-18T10:33:38Z</time>
      </trkpt>
      <trkpt lat="45.67545" lon="5.24136">
        <ele>335.4</ele>
        <time>2025-05-18T10:33:39Z</time>
      </trkpt>
      <trkpt lat="45.67544" lon="5.24132">
        <ele>335.8</ele>
        <time>2025-05-18T10:33:40Z</time>
      </trkpt>
      <trkpt lat="45.67544" lon="5.24128">
        <ele>336.2</ele>
        <time>2025-05-18T10:33:41Z</time>
      </trkpt>
      <trkpt lat="45.67544" lon="5.24123">
        <ele>336.4</ele>
        <time>2025-05-18T10:33:42Z</time>
      </trkpt>
      <trkpt lat="45.67545" lon="5.24119">
        <ele>336.4</ele>
        <time>2025-05-18T10:33:43Z</time>
      </trkpt>
      <trkpt lat="45.67545" lon="5.24114">
        <ele>337</ele>
        <time>2025-05-18T10:33:44Z</time>
      </trkpt>
      <trkpt lat="45.67545" lon="5.24109">
        <ele>336.8</ele>
        <time>2025-05-18T10:33:45Z</time>
      </trkpt>
      <trkpt lat="45.67545" lon="5.24103">
        <ele>336.8</ele>
        <time>2025-05-18T10:33:46Z</time>
      </trkpt>
      <trkpt lat="45.67545" lon="5.24098">
        <ele>336.8</ele>
        <time>2025-05-18T10:33:47Z</time>
      </trkpt>
      <trkpt lat="45.67545" lon="5.24093">
        <ele>336.4</ele>
        <time>2025-05-18T10:33:48Z</time>
      </trkpt>
      <trkpt lat="45.67546" lon="5.24088">
        <ele>336.4</ele>
        <time>2025-05-18T10:33:49Z</time>
      </trkpt>
      <trkpt lat="45.67546" lon="5.24082">
        <ele>337.2</ele>
        <time>2025-05-18T10:33:50Z</time>
      </trkpt>
      <trkpt lat="45.67547" lon="5.24076">
        <ele>337.2</ele>
        <time>2025-05-18T10:33:51Z</time>
      </trkpt>
      <trkpt lat="45.67547" lon="5.2407">
        <ele>336.8</ele>
        <time>2025-05-18T10:33:52Z</time>
      </trkpt>
      <trkpt lat="45.67548" lon="5.24065">
        <ele>336.8</ele>
        <time>2025-05-18T10:33:53Z</time>
      </trkpt>
      <trkpt lat="45.67548" lon="5.2406">
        <ele>336.6</ele>
        <time>2025-05-18T10:33:54Z</time>
      </trkpt>
      <trkpt lat="45.6755" lon="5.24052">
        <ele>336.6</ele>
        <time>2025-05-18T10:33:55Z</time>
      </trkpt>
      <trkpt lat="45.67552" lon="5.24048">
        <ele>336.6</ele>
        <time>2025-05-18T10:33:56Z</time>
      </trkpt>
      <trkpt lat="45.67553" lon="5.24043">
        <ele>336.6</ele>
        <time>2025-05-18T10:33:57Z</time>
      </trkpt>
      <trkpt lat="45.67555" lon="5.24036">
        <ele>336.6</ele>
        <time>2025-05-18T10:33:58Z</time>
      </trkpt>
      <trkpt lat="45.67557" lon="5.2403">
        <ele>336.6</ele>
        <time>2025-05-18T10:33:59Z</time>
      </trkpt>
      <trkpt lat="45.67559" lon="5.24024">
        <ele>336</ele>
        <time>2025-05-18T10:34:00Z</time>
      </trkpt>
      <trkpt lat="45.67561" lon="5.24019">
        <ele>335.4</ele>
        <time>2025-05-18T10:34:01Z</time>
      </trkpt>
      <trkpt lat="45.67564" lon="5.24017">
        <ele>335.4</ele>
        <time>2025-05-18T10:34:02Z</time>
      </trkpt>
      <trkpt lat="45.67565" lon="5.24014">
        <ele>334.2</ele>
        <time>2025-05-18T10:34:03Z</time>
      </trkpt>
      <trkpt lat="45.67567" lon="5.24012">
        <ele>334.2</ele>
        <time>2025-05-18T10:34:04Z</time>
      </trkpt>
      <trkpt lat="45.67567" lon="5.24008">
        <ele>333.6</ele>
        <time>2025-05-18T10:34:05Z</time>
      </trkpt>
      <trkpt lat="45.67568" lon="5.24007">
        <ele>333.8</ele>
        <time>2025-05-18T10:34:06Z</time>
      </trkpt>
      <trkpt lat="45.67568" lon="5.24005">
        <ele>334</ele>
        <time>2025-05-18T10:34:07Z</time>
      </trkpt>
      <trkpt lat="45.67569" lon="5.24003">
        <ele>334</ele>
        <time>2025-05-18T10:34:08Z</time>
      </trkpt>
      <trkpt lat="45.67569" lon="5.24002">
        <ele>334.2</ele>
        <time>2025-05-18T10:34:09Z</time>
      </trkpt>
      <trkpt lat="45.67571" lon="5.23998">
        <ele>334.2</ele>
        <time>2025-05-18T10:34:10Z</time>
      </trkpt>
      <trkpt lat="45.67572" lon="5.23995">
        <ele>334</ele>
        <time>2025-05-18T10:34:11Z</time>
      </trkpt>
      <trkpt lat="45.67573" lon="5.23993">
        <ele>334</ele>
        <time>2025-05-18T10:34:12Z</time>
      </trkpt>
      <trkpt lat="45.67574" lon="5.2399">
        <ele>334</ele>
        <time>2025-05-18T10:34:13Z</time>
      </trkpt>
      <trkpt lat="45.67575" lon="5.23987">
        <ele>334</ele>
        <time>2025-05-18T10:34:14Z</time>
      </trkpt>
      <trkpt lat="45.67575" lon="5.23983">
        <ele>334</ele>
        <time>2025-05-18T10:34:15Z</time>
      </trkpt>
      <trkpt lat="45.67576" lon="5.23979">
        <ele>334</ele>
        <time>2025-05-18T10:34:16Z</time>
      </trkpt>
      <trkpt lat="45.67577" lon="5.23977">
        <ele>334.2</ele>
        <time>2025-05-18T10:34:17Z</time>
      </trkpt>
      <trkpt lat="45.67577" lon="5.23975">
        <ele>334.2</ele>
        <time>2025-05-18T10:34:18Z</time>
      </trkpt>
      <trkpt lat="45.67577" lon="5.23974">
        <ele>334.4</ele>
        <time>2025-05-18T10:34:19Z</time>
      </trkpt>
      <trkpt lat="45.67576" lon="5.23972">
        <ele>334.4</ele>
        <time>2025-05-18T10:34:20Z</time>
      </trkpt>
      <trkpt lat="45.67576" lon="5.23971">
        <ele>334.4</ele>
        <time>2025-05-18T10:34:21Z</time>
      </trkpt>
      <trkpt lat="45.67576" lon="5.23971">
        <ele>334.6</ele>
        <time>2025-05-18T10:34:22Z</time>
      </trkpt>
      <trkpt lat="45.67577" lon="5.23972">
        <ele>334.6</ele>
        <time>2025-05-18T10:34:23Z</time>
      </trkpt>
      <trkpt lat="45.67579" lon="5.23967">
        <ele>334.6</ele>
        <time>2025-05-18T10:34:31Z</time>
      </trkpt>
      <trkpt lat="45.6758" lon="5.23963">
        <ele>334.6</ele>
        <time>2025-05-18T10:34:32Z</time>
      </trkpt>
      <trkpt lat="45.67581" lon="5.23959">
        <ele>334.4</ele>
        <time>2025-05-18T10:34:33Z</time>
      </trkpt>
      <trkpt lat="45.67581" lon="5.23957">
        <ele>334.8</ele>
        <time>2025-05-18T10:34:34Z</time>
      </trkpt>
      <trkpt lat="45.67581" lon="5.23956">
        <ele>335</ele>
        <time>2025-05-18T10:34:35Z</time>
      </trkpt>
      <trkpt lat="45.67582" lon="5.23954">
        <ele>335.4</ele>
        <time>2025-05-18T10:34:36Z</time>
      </trkpt>
      <trkpt lat="45.67582" lon="5.23953">
        <ele>335.6</ele>
        <time>2025-05-18T10:34:37Z</time>
      </trkpt>
      <trkpt lat="45.67583" lon="5.23951">
        <ele>336</ele>
        <time>2025-05-18T10:34:38Z</time>
      </trkpt>
      <trkpt lat="45.67583" lon="5.23949">
        <ele>336.4</ele>
        <time>2025-05-18T10:34:39Z</time>
      </trkpt>
      <trkpt lat="45.67583" lon="5.23946">
        <ele>336.6</ele>
        <time>2025-05-18T10:34:40Z</time>
      </trkpt>
      <trkpt lat="45.67584" lon="5.23944">
        <ele>337</ele>
        <time>2025-05-18T10:34:41Z</time>
      </trkpt>
      <trkpt lat="45.67584" lon="5.23943">
        <ele>337</ele>
        <time>2025-05-18T10:34:42Z</time>
      </trkpt>
      <trkpt lat="45.67583" lon="5.23941">
        <ele>337.4</ele>
        <time>2025-05-18T10:34:43Z</time>
      </trkpt>
      <trkpt lat="45.67583" lon="5.23937">
        <ele>338.4</ele>
        <time>2025-05-18T10:34:44Z</time>
      </trkpt>
      <trkpt lat="45.67583" lon="5.23935">
        <ele>338.4</ele>
        <time>2025-05-18T10:34:45Z</time>
      </trkpt>
      <trkpt lat="45.67582" lon="5.23933">
        <ele>337.4</ele>
        <time>2025-05-18T10:34:46Z</time>
      </trkpt>
      <trkpt lat="45.67582" lon="5.23931">
        <ele>338</ele>
        <time>2025-05-18T10:34:47Z</time>
      </trkpt>
      <trkpt lat="45.67582" lon="5.23929">
        <ele>338.4</ele>
        <time>2025-05-18T10:34:48Z</time>
      </trkpt>
      <trkpt lat="45.67581" lon="5.23928">
        <ele>338.4</ele>
        <time>2025-05-18T10:34:49Z</time>
      </trkpt>
      <trkpt lat="45.67581" lon="5.23926">
        <ele>339</ele>
        <time>2025-05-18T10:34:50Z</time>
      </trkpt>
      <trkpt lat="45.6758" lon="5.23924">
        <ele>339.2</ele>
        <time>2025-05-18T10:34:51Z</time>
      </trkpt>
      <trkpt lat="45.6758" lon="5.23922">
        <ele>339.6</ele>
        <time>2025-05-18T10:34:52Z</time>
      </trkpt>
      <trkpt lat="45.6758" lon="5.23921">
        <ele>340</ele>
        <time>2025-05-18T10:34:53Z</time>
      </trkpt>
      <trkpt lat="45.6758" lon="5.2392">
        <ele>340.4</ele>
        <time>2025-05-18T10:34:54Z</time>
      </trkpt>
      <trkpt lat="45.6758" lon="5.23917">
        <ele>340.6</ele>
        <time>2025-05-18T10:34:55Z</time>
      </trkpt>
      <trkpt lat="45.6758" lon="5.23915">
        <ele>340.8</ele>
        <time>2025-05-18T10:34:56Z</time>
      </trkpt>
      <trkpt lat="45.6758" lon="5.23912">
        <ele>341.6</ele>
        <time>2025-05-18T10:34:57Z</time>
      </trkpt>
      <trkpt lat="45.6758" lon="5.23911">
        <ele>342</ele>
        <time>2025-05-18T10:34:58Z</time>
      </trkpt>
      <trkpt lat="45.67581" lon="5.2391">
        <ele>342.4</ele>
        <time>2025-05-18T10:34:59Z</time>
      </trkpt>
      <trkpt lat="45.67581" lon="5.23908">
        <ele>342.6</ele>
        <time>2025-05-18T10:35:00Z</time>
      </trkpt>
      <trkpt lat="45.67582" lon="5.23907">
        <ele>343</ele>
        <time>2025-05-18T10:35:01Z</time>
      </trkpt>
      <trkpt lat="45.67583" lon="5.23906">
        <ele>343.2</ele>
        <time>2025-05-18T10:35:02Z</time>
      </trkpt>
      <trkpt lat="45.67583" lon="5.23904">
        <ele>343.2</ele>
        <time>2025-05-18T10:35:03Z</time>
      </trkpt>
      <trkpt lat="45.67583" lon="5.23903">
        <ele>343.8</ele>
        <time>2025-05-18T10:35:04Z</time>
      </trkpt>
      <trkpt lat="45.67583" lon="5.23902">
        <ele>343.8</ele>
        <time>2025-05-18T10:35:05Z</time>
      </trkpt>
      <trkpt lat="45.67583" lon="5.23899">
        <ele>344</ele>
        <time>2025-05-18T10:35:06Z</time>
      </trkpt>
      <trkpt lat="45.67584" lon="5.23896">
        <ele>344</ele>
        <time>2025-05-18T10:35:07Z</time>
      </trkpt>
      <trkpt lat="45.67585" lon="5.23894">
        <ele>344.4</ele>
        <time>2025-05-18T10:35:08Z</time>
      </trkpt>
      <trkpt lat="45.67585" lon="5.23891">
        <ele>344.4</ele>
        <time>2025-05-18T10:35:09Z</time>
      </trkpt>
      <trkpt lat="45.67586" lon="5.23888">
        <ele>344.4</ele>
        <time>2025-05-18T10:35:10Z</time>
      </trkpt>
      <trkpt lat="45.67587" lon="5.23885">
        <ele>345</ele>
        <time>2025-05-18T10:35:11Z</time>
      </trkpt>
      <trkpt lat="45.67588" lon="5.23882">
        <ele>345</ele>
        <time>2025-05-18T10:35:12Z</time>
      </trkpt>
      <trkpt lat="45.67589" lon="5.23879">
        <ele>345</ele>
        <time>2025-05-18T10:35:13Z</time>
      </trkpt>
      <trkpt lat="45.6759" lon="5.23876">
        <ele>345.2</ele>
        <time>2025-05-18T10:35:14Z</time>
      </trkpt>
      <trkpt lat="45.67591" lon="5.23873">
        <ele>345.2</ele>
        <time>2025-05-18T10:35:15Z</time>
      </trkpt>
      <trkpt lat="45.67592" lon="5.23871">
        <ele>345.6</ele>
        <time>2025-05-18T10:35:16Z</time>
      </trkpt>
      <trkpt lat="45.67593" lon="5.23869">
        <ele>345.6</ele>
        <time>2025-05-18T10:35:17Z</time>
      </trkpt>
      <trkpt lat="45.67595" lon="5.23866">
        <ele>346</ele>
        <time>2025-05-18T10:35:18Z</time>
      </trkpt>
      <trkpt lat="45.67596" lon="5.23864">
        <ele>346.2</ele>
        <time>2025-05-18T10:35:19Z</time>
      </trkpt>
      <trkpt lat="45.67597" lon="5.23861">
        <ele>346.2</ele>
        <time>2025-05-18T10:35:20Z</time>
      </trkpt>
      <trkpt lat="45.67598" lon="5.23858">
        <ele>346.2</ele>
        <time>2025-05-18T10:35:21Z</time>
      </trkpt>
      <trkpt lat="45.67599" lon="5.23854">
        <ele>346.2</ele>
        <time>2025-05-18T10:35:22Z</time>
      </trkpt>
      <trkpt lat="45.676" lon="5.23851">
        <ele>346.2</ele>
        <time>2025-05-18T10:35:23Z</time>
      </trkpt>
      <trkpt lat="45.67601" lon="5.23848">
        <ele>346.4</ele>
        <time>2025-05-18T10:35:24Z</time>
      </trkpt>
      <trkpt lat="45.67601" lon="5.23844">
        <ele>346.4</ele>
        <time>2025-05-18T10:35:25Z</time>
      </trkpt>
      <trkpt lat="45.67601" lon="5.2384">
        <ele>346.4</ele>
        <time>2025-05-18T10:35:26Z</time>
      </trkpt>
      <trkpt lat="45.67602" lon="5.23837">
        <ele>346.2</ele>
        <time>2025-05-18T10:35:27Z</time>
      </trkpt>
      <trkpt lat="45.67602" lon="5.23834">
        <ele>346.2</ele>
        <time>2025-05-18T10:35:28Z</time>
      </trkpt>
      <trkpt lat="45.67603" lon="5.23831">
        <ele>346.6</ele>
        <time>2025-05-18T10:35:29Z</time>
      </trkpt>
      <trkpt lat="45.67604" lon="5.23827">
        <ele>346.6</ele>
        <time>2025-05-18T10:35:30Z</time>
      </trkpt>
      <trkpt lat="45.67604" lon="5.23823">
        <ele>346.6</ele>
        <time>2025-05-18T10:35:31Z</time>
      </trkpt>
      <trkpt lat="45.67604" lon="5.2382">
        <ele>347</ele>
        <time>2025-05-18T10:35:32Z</time>
      </trkpt>
      <trkpt lat="45.67605" lon="5.23816">
        <ele>347.4</ele>
        <time>2025-05-18T10:35:33Z</time>
      </trkpt>
      <trkpt lat="45.67604" lon="5.23813">
        <ele>347.4</ele>
        <time>2025-05-18T10:35:34Z</time>
      </trkpt>
      <trkpt lat="45.67604" lon="5.23813">
        <ele>347.6</ele>
        <time>2025-05-18T10:35:35Z</time>
      </trkpt>
      <trkpt lat="45.67604" lon="5.2381">
        <ele>347.6</ele>
        <time>2025-05-18T10:35:36Z</time>
      </trkpt>
      <trkpt lat="45.67604" lon="5.23808">
        <ele>348.2</ele>
        <time>2025-05-18T10:35:37Z</time>
      </trkpt>
      <trkpt lat="45.67603" lon="5.23806">
        <ele>347.8</ele>
        <time>2025-05-18T10:35:38Z</time>
      </trkpt>
      <trkpt lat="45.67603" lon="5.23802">
        <ele>347.8</ele>
        <time>2025-05-18T10:35:39Z</time>
      </trkpt>
      <trkpt lat="45.67603" lon="5.23798">
        <ele>348</ele>
        <time>2025-05-18T10:35:40Z</time>
      </trkpt>
      <trkpt lat="45.67603" lon="5.23796">
        <ele>348.4</ele>
        <time>2025-05-18T10:35:41Z</time>
      </trkpt>
      <trkpt lat="45.67603" lon="5.23794">
        <ele>348.4</ele>
        <time>2025-05-18T10:35:42Z</time>
      </trkpt>
      <trkpt lat="45.67603" lon="5.23792">
        <ele>348.6</ele>
        <time>2025-05-18T10:35:43Z</time>
      </trkpt>
      <trkpt lat="45.67603" lon="5.23791">
        <ele>348.6</ele>
        <time>2025-05-18T10:35:44Z</time>
      </trkpt>
      <trkpt lat="45.67603" lon="5.23789">
        <ele>348.6</ele>
        <time>2025-05-18T10:35:45Z</time>
      </trkpt>
      <trkpt lat="45.67603" lon="5.23788">
        <ele>348.6</ele>
        <time>2025-05-18T10:35:46Z</time>
      </trkpt>
      <trkpt lat="45.67603" lon="5.23787">
        <ele>348.6</ele>
        <time>2025-05-18T10:35:47Z</time>
      </trkpt>
      <trkpt lat="45.67603" lon="5.23786">
        <ele>349.4</ele>
        <time>2025-05-18T10:35:48Z</time>
      </trkpt>
      <trkpt lat="45.67601" lon="5.2378">
        <ele>348.2</ele>
        <time>2025-05-18T10:35:59Z</time>
      </trkpt>
      <trkpt lat="45.67602" lon="5.2378">
        <ele>348.2</ele>
        <time>2025-05-18T10:36:00Z</time>
      </trkpt>
      <trkpt lat="45.67602" lon="5.23779">
        <ele>348.2</ele>
        <time>2025-05-18T10:36:01Z</time>
      </trkpt>
      <trkpt lat="45.67602" lon="5.23778">
        <ele>347.6</ele>
        <time>2025-05-18T10:36:02Z</time>
      </trkpt>
      <trkpt lat="45.67603" lon="5.23776">
        <ele>347.4</ele>
        <time>2025-05-18T10:36:03Z</time>
      </trkpt>
      <trkpt lat="45.67603" lon="5.23774">
        <ele>347</ele>
        <time>2025-05-18T10:36:04Z</time>
      </trkpt>
      <trkpt lat="45.67604" lon="5.23771">
        <ele>347</ele>
        <time>2025-05-18T10:36:05Z</time>
      </trkpt>
      <trkpt lat="45.67604" lon="5.23768">
        <ele>346.6</ele>
        <time>2025-05-18T10:36:06Z</time>
      </trkpt>
      <trkpt lat="45.67604" lon="5.23765">
        <ele>346.6</ele>
        <time>2025-05-18T10:36:07Z</time>
      </trkpt>
      <trkpt lat="45.67604" lon="5.23761">
        <ele>346.2</ele>
        <time>2025-05-18T10:36:08Z</time>
      </trkpt>
      <trkpt lat="45.67604" lon="5.23757">
        <ele>346.2</ele>
        <time>2025-05-18T10:36:09Z</time>
      </trkpt>
      <trkpt lat="45.67603" lon="5.23753">
        <ele>346.2</ele>
        <time>2025-05-18T10:36:10Z</time>
      </trkpt>
      <trkpt lat="45.67602" lon="5.23749">
        <ele>345.8</ele>
        <time>2025-05-18T10:36:11Z</time>
      </trkpt>
      <trkpt lat="45.67601" lon="5.23747">
        <ele>345.8</ele>
        <time>2025-05-18T10:36:12Z</time>
      </trkpt>
      <trkpt lat="45.676" lon="5.23743">
        <ele>346.6</ele>
        <time>2025-05-18T10:36:13Z</time>
      </trkpt>
      <trkpt lat="45.67599" lon="5.23741">
        <ele>347</ele>
        <time>2025-05-18T10:36:14Z</time>
      </trkpt>
      <trkpt lat="45.67597" lon="5.23739">
        <ele>347.4</ele>
        <time>2025-05-18T10:36:15Z</time>
      </trkpt>
      <trkpt lat="45.67597" lon="5.23737">
        <ele>347.4</ele>
        <time>2025-05-18T10:36:16Z</time>
      </trkpt>
      <trkpt lat="45.67596" lon="5.23734">
        <ele>348</ele>
        <time>2025-05-18T10:36:17Z</time>
      </trkpt>
      <trkpt lat="45.67596" lon="5.23731">
        <ele>348</ele>
        <time>2025-05-18T10:36:18Z</time>
      </trkpt>
      <trkpt lat="45.67596" lon="5.23728">
        <ele>348</ele>
        <time>2025-05-18T10:36:19Z</time>
      </trkpt>
      <trkpt lat="45.67596" lon="5.23724">
        <ele>348</ele>
        <time>2025-05-18T10:36:20Z</time>
      </trkpt>
      <trkpt lat="45.67596" lon="5.2372">
        <ele>348</ele>
        <time>2025-05-18T10:36:21Z</time>
      </trkpt>
      <trkpt lat="45.67596" lon="5.23715">
        <ele>348</ele>
        <time>2025-05-18T10:36:22Z</time>
      </trkpt>
      <trkpt lat="45.67595" lon="5.23711">
        <ele>348</ele>
        <time>2025-05-18T10:36:23Z</time>
      </trkpt>
      <trkpt lat="45.67595" lon="5.23707">
        <ele>348</ele>
        <time>2025-05-18T10:36:24Z</time>
      </trkpt>
      <trkpt lat="45.67595" lon="5.23704">
        <ele>348</ele>
        <time>2025-05-18T10:36:25Z</time>
      </trkpt>
      <trkpt lat="45.67596" lon="5.23699">
        <ele>347.2</ele>
        <time>2025-05-18T10:36:26Z</time>
      </trkpt>
      <trkpt lat="45.67598" lon="5.23695">
        <ele>347</ele>
        <time>2025-05-18T10:36:27Z</time>
      </trkpt>
      <trkpt lat="45.67599" lon="5.2369">
        <ele>347</ele>
        <time>2025-05-18T10:36:28Z</time>
      </trkpt>
      <trkpt lat="45.676" lon="5.23685">
        <ele>346.6</ele>
        <time>2025-05-18T10:36:29Z</time>
      </trkpt>
      <trkpt lat="45.67601" lon="5.23679">
        <ele>346.4</ele>
        <time>2025-05-18T10:36:30Z</time>
      </trkpt>
      <trkpt lat="45.67604" lon="5.2367">
        <ele>345.6</ele>
        <time>2025-05-18T10:36:31Z</time>
      </trkpt>
      <trkpt lat="45.67606" lon="5.23662">
        <ele>345</ele>
        <time>2025-05-18T10:36:32Z</time>
      </trkpt>
      <trkpt lat="45.67606" lon="5.23656">
        <ele>345</ele>
        <time>2025-05-18T10:36:33Z</time>
      </trkpt>
      <trkpt lat="45.67606" lon="5.23651">
        <ele>345</ele>
        <time>2025-05-18T10:36:34Z</time>
      </trkpt>
      <trkpt lat="45.67607" lon="5.23647">
        <ele>345</ele>
        <time>2025-05-18T10:36:35Z</time>
      </trkpt>
      <trkpt lat="45.67607" lon="5.23647">
        <ele>344.8</ele>
        <time>2025-05-18T10:36:36Z</time>
      </trkpt>
      <trkpt lat="45.67607" lon="5.23647">
        <ele>344.4</ele>
        <time>2025-05-18T10:36:37Z</time>
      </trkpt>
      <trkpt lat="45.67605" lon="5.23634">
        <ele>344.4</ele>
        <time>2025-05-18T10:36:38Z</time>
      </trkpt>
      <trkpt lat="45.67603" lon="5.2363">
        <ele>344.4</ele>
        <time>2025-05-18T10:36:39Z</time>
      </trkpt>
      <trkpt lat="45.67602" lon="5.23628">
        <ele>343.6</ele>
        <time>2025-05-18T10:36:40Z</time>
      </trkpt>
      <trkpt lat="45.67602" lon="5.23628">
        <ele>344</ele>
        <time>2025-05-18T10:36:41Z</time>
      </trkpt>
      <trkpt lat="45.676" lon="5.23625">
        <ele>344</ele>
        <time>2025-05-18T10:36:42Z</time>
      </trkpt>
      <trkpt lat="45.67599" lon="5.23622">
        <ele>344.4</ele>
        <time>2025-05-18T10:36:43Z</time>
      </trkpt>
      <trkpt lat="45.67598" lon="5.23619">
        <ele>344.2</ele>
        <time>2025-05-18T10:36:44Z</time>
      </trkpt>
      <trkpt lat="45.67596" lon="5.23615">
        <ele>344.2</ele>
        <time>2025-05-18T10:36:45Z</time>
      </trkpt>
      <trkpt lat="45.67595" lon="5.23611">
        <ele>344.2</ele>
        <time>2025-05-18T10:36:46Z</time>
      </trkpt>
      <trkpt lat="45.67593" lon="5.23605">
        <ele>344.4</ele>
        <time>2025-05-18T10:36:47Z</time>
      </trkpt>
      <trkpt lat="45.67591" lon="5.23599">
        <ele>343.6</ele>
        <time>2025-05-18T10:36:48Z</time>
      </trkpt>
      <trkpt lat="45.67587" lon="5.2359">
        <ele>343.2</ele>
        <time>2025-05-18T10:36:49Z</time>
      </trkpt>
      <trkpt lat="45.67583" lon="5.23582">
        <ele>342.8</ele>
        <time>2025-05-18T10:36:50Z</time>
      </trkpt>
      <trkpt lat="45.6758" lon="5.23577">
        <ele>342.8</ele>
        <time>2025-05-18T10:36:51Z</time>
      </trkpt>
      <trkpt lat="45.67579" lon="5.23573">
        <ele>342.4</ele>
        <time>2025-05-18T10:36:52Z</time>
      </trkpt>
      <trkpt lat="45.67576" lon="5.23567">
        <ele>343</ele>
        <time>2025-05-18T10:36:53Z</time>
      </trkpt>
      <trkpt lat="45.67575" lon="5.23564">
        <ele>343</ele>
        <time>2025-05-18T10:36:54Z</time>
      </trkpt>
      <trkpt lat="45.67573" lon="5.23561">
        <ele>343</ele>
        <time>2025-05-18T10:36:55Z</time>
      </trkpt>
      <trkpt lat="45.67571" lon="5.23557">
        <ele>343</ele>
        <time>2025-05-18T10:36:56Z</time>
      </trkpt>
      <trkpt lat="45.67569" lon="5.23554">
        <ele>343.2</ele>
        <time>2025-05-18T10:36:57Z</time>
      </trkpt>
      <trkpt lat="45.67567" lon="5.2355">
        <ele>343.2</ele>
        <time>2025-05-18T10:36:58Z</time>
      </trkpt>
      <trkpt lat="45.67566" lon="5.23546">
        <ele>343.4</ele>
        <time>2025-05-18T10:36:59Z</time>
      </trkpt>
      <trkpt lat="45.67564" lon="5.23542">
        <ele>343.4</ele>
        <time>2025-05-18T10:37:00Z</time>
      </trkpt>
      <trkpt lat="45.67563" lon="5.23538">
        <ele>343.6</ele>
        <time>2025-05-18T10:37:01Z</time>
      </trkpt>
      <trkpt lat="45.67562" lon="5.23534">
        <ele>344.4</ele>
        <time>2025-05-18T10:37:02Z</time>
      </trkpt>
      <trkpt lat="45.67561" lon="5.23531">
        <ele>344.8</ele>
        <time>2025-05-18T10:37:03Z</time>
      </trkpt>
      <trkpt lat="45.6756" lon="5.23528">
        <ele>345.2</ele>
        <time>2025-05-18T10:37:04Z</time>
      </trkpt>
      <trkpt lat="45.67558" lon="5.23525">
        <ele>345.8</ele>
        <time>2025-05-18T10:37:05Z</time>
      </trkpt>
      <trkpt lat="45.67557" lon="5.23522">
        <ele>345.8</ele>
        <time>2025-05-18T10:37:06Z</time>
      </trkpt>
      <trkpt lat="45.67555" lon="5.2352">
        <ele>346.2</ele>
        <time>2025-05-18T10:37:07Z</time>
      </trkpt>
      <trkpt lat="45.67554" lon="5.23518">
        <ele>346.4</ele>
        <time>2025-05-18T10:37:08Z</time>
      </trkpt>
      <trkpt lat="45.67553" lon="5.23516">
        <ele>346.8</ele>
        <time>2025-05-18T10:37:09Z</time>
      </trkpt>
      <trkpt lat="45.67551" lon="5.23515">
        <ele>347.2</ele>
        <time>2025-05-18T10:37:10Z</time>
      </trkpt>
      <trkpt lat="45.67549" lon="5.23512">
        <ele>347.2</ele>
        <time>2025-05-18T10:37:11Z</time>
      </trkpt>
      <trkpt lat="45.67547" lon="5.2351">
        <ele>347.6</ele>
        <time>2025-05-18T10:37:12Z</time>
      </trkpt>
      <trkpt lat="45.67546" lon="5.23508">
        <ele>347.8</ele>
        <time>2025-05-18T10:37:13Z</time>
      </trkpt>
      <trkpt lat="45.67545" lon="5.23506">
        <ele>347.8</ele>
        <time>2025-05-18T10:37:14Z</time>
      </trkpt>
      <trkpt lat="45.67543" lon="5.23504">
        <ele>348.2</ele>
        <time>2025-05-18T10:37:15Z</time>
      </trkpt>
      <trkpt lat="45.67541" lon="5.23502">
        <ele>348.2</ele>
        <time>2025-05-18T10:37:16Z</time>
      </trkpt>
      <trkpt lat="45.67538" lon="5.235">
        <ele>348.2</ele>
        <time>2025-05-18T10:37:17Z</time>
      </trkpt>
      <trkpt lat="45.67535" lon="5.23497">
        <ele>348.2</ele>
        <time>2025-05-18T10:37:18Z</time>
      </trkpt>
      <trkpt lat="45.67532" lon="5.23494">
        <ele>348.2</ele>
        <time>2025-05-18T10:37:19Z</time>
      </trkpt>
      <trkpt lat="45.67528" lon="5.23491">
        <ele>348.2</ele>
        <time>2025-05-18T10:37:20Z</time>
      </trkpt>
      <trkpt lat="45.67524" lon="5.23487">
        <ele>348.2</ele>
        <time>2025-05-18T10:37:21Z</time>
      </trkpt>
      <trkpt lat="45.67521" lon="5.23483">
        <ele>348.2</ele>
        <time>2025-05-18T10:37:22Z</time>
      </trkpt>
      <trkpt lat="45.67517" lon="5.23479">
        <ele>348.2</ele>
        <time>2025-05-18T10:37:23Z</time>
      </trkpt>
      <trkpt lat="45.67514" lon="5.23476">
        <ele>348.2</ele>
        <time>2025-05-18T10:37:24Z</time>
      </trkpt>
      <trkpt lat="45.67512" lon="5.23473">
        <ele>348.2</ele>
        <time>2025-05-18T10:37:25Z</time>
      </trkpt>
      <trkpt lat="45.67509" lon="5.2347">
        <ele>348.4</ele>
        <time>2025-05-18T10:37:26Z</time>
      </trkpt>
      <trkpt lat="45.67506" lon="5.23467">
        <ele>348.4</ele>
        <time>2025-05-18T10:37:27Z</time>
      </trkpt>
      <trkpt lat="45.67504" lon="5.23463">
        <ele>348.6</ele>
        <time>2025-05-18T10:37:28Z</time>
      </trkpt>
      <trkpt lat="45.67502" lon="5.23459">
        <ele>349</ele>
        <time>2025-05-18T10:37:29Z</time>
      </trkpt>
      <trkpt lat="45.675" lon="5.23455">
        <ele>349.2</ele>
        <time>2025-05-18T10:37:30Z</time>
      </trkpt>
      <trkpt lat="45.67498" lon="5.23451">
        <ele>350</ele>
        <time>2025-05-18T10:37:31Z</time>
      </trkpt>
      <trkpt lat="45.67496" lon="5.23446">
        <ele>350</ele>
        <time>2025-05-18T10:37:32Z</time>
      </trkpt>
      <trkpt lat="45.67494" lon="5.23442">
        <ele>350</ele>
        <time>2025-05-18T10:37:33Z</time>
      </trkpt>
      <trkpt lat="45.67493" lon="5.23437">
        <ele>350</ele>
        <time>2025-05-18T10:37:34Z</time>
      </trkpt>
      <trkpt lat="45.67492" lon="5.23433">
        <ele>350.2</ele>
        <time>2025-05-18T10:37:35Z</time>
      </trkpt>
      <trkpt lat="45.67491" lon="5.2343">
        <ele>350.6</ele>
        <time>2025-05-18T10:37:36Z</time>
      </trkpt>
      <trkpt lat="45.67491" lon="5.23429">
        <ele>350.8</ele>
        <time>2025-05-18T10:37:37Z</time>
      </trkpt>
      <trkpt lat="45.67491" lon="5.23426">
        <ele>351.2</ele>
        <time>2025-05-18T10:37:38Z</time>
      </trkpt>
      <trkpt lat="45.67491" lon="5.23424">
        <ele>351.8</ele>
        <time>2025-05-18T10:37:39Z</time>
      </trkpt>
      <trkpt lat="45.67491" lon="5.23422">
        <ele>352.2</ele>
        <time>2025-05-18T10:37:40Z</time>
      </trkpt>
      <trkpt lat="45.6749" lon="5.2342">
        <ele>352.2</ele>
        <time>2025-05-18T10:37:41Z</time>
      </trkpt>
      <trkpt lat="45.6749" lon="5.23417">
        <ele>352.4</ele>
        <time>2025-05-18T10:37:42Z</time>
      </trkpt>
      <trkpt lat="45.67489" lon="5.23415">
        <ele>352.6</ele>
        <time>2025-05-18T10:37:43Z</time>
      </trkpt>
      <trkpt lat="45.67489" lon="5.23413">
        <ele>352.8</ele>
        <time>2025-05-18T10:37:44Z</time>
      </trkpt>
      <trkpt lat="45.67488" lon="5.23411">
        <ele>353.2</ele>
        <time>2025-05-18T10:37:45Z</time>
      </trkpt>
      <trkpt lat="45.67487" lon="5.23408">
        <ele>353.4</ele>
        <time>2025-05-18T10:37:46Z</time>
      </trkpt>
      <trkpt lat="45.67487" lon="5.23406">
        <ele>353.4</ele>
        <time>2025-05-18T10:37:47Z</time>
      </trkpt>
      <trkpt lat="45.67486" lon="5.23403">
        <ele>353.8</ele>
        <time>2025-05-18T10:37:48Z</time>
      </trkpt>
      <trkpt lat="45.67486" lon="5.234">
        <ele>353.8</ele>
        <time>2025-05-18T10:37:49Z</time>
      </trkpt>
      <trkpt lat="45.67485" lon="5.23398">
        <ele>354</ele>
        <time>2025-05-18T10:37:50Z</time>
      </trkpt>
      <trkpt lat="45.67484" lon="5.23396">
        <ele>354.2</ele>
        <time>2025-05-18T10:37:51Z</time>
      </trkpt>
      <trkpt lat="45.67484" lon="5.23393">
        <ele>354.4</ele>
        <time>2025-05-18T10:37:52Z</time>
      </trkpt>
      <trkpt lat="45.67484" lon="5.23392">
        <ele>354.6</ele>
        <time>2025-05-18T10:37:53Z</time>
      </trkpt>
      <trkpt lat="45.67484" lon="5.2339">
        <ele>355</ele>
        <time>2025-05-18T10:37:54Z</time>
      </trkpt>
      <trkpt lat="45.67484" lon="5.23388">
        <ele>355</ele>
        <time>2025-05-18T10:37:55Z</time>
      </trkpt>
      <trkpt lat="45.67484" lon="5.23387">
        <ele>355.2</ele>
        <time>2025-05-18T10:37:56Z</time>
      </trkpt>
      <trkpt lat="45.67484" lon="5.23385">
        <ele>355.2</ele>
        <time>2025-05-18T10:37:57Z</time>
      </trkpt>
      <trkpt lat="45.67485" lon="5.23382">
        <ele>356</ele>
        <time>2025-05-18T10:37:58Z</time>
      </trkpt>
      <trkpt lat="45.67485" lon="5.23381">
        <ele>356.4</ele>
        <time>2025-05-18T10:37:59Z</time>
      </trkpt>
      <trkpt lat="45.67485" lon="5.23379">
        <ele>356.4</ele>
        <time>2025-05-18T10:38:00Z</time>
      </trkpt>
      <trkpt lat="45.67485" lon="5.23377">
        <ele>356.6</ele>
        <time>2025-05-18T10:38:01Z</time>
      </trkpt>
      <trkpt lat="45.67485" lon="5.23376">
        <ele>356.6</ele>
        <time>2025-05-18T10:38:02Z</time>
      </trkpt>
      <trkpt lat="45.67485" lon="5.23375">
        <ele>357</ele>
        <time>2025-05-18T10:38:03Z</time>
      </trkpt>
      <trkpt lat="45.67485" lon="5.23373">
        <ele>357</ele>
        <time>2025-05-18T10:38:04Z</time>
      </trkpt>
      <trkpt lat="45.67486" lon="5.23371">
        <ele>357.8</ele>
        <time>2025-05-18T10:38:05Z</time>
      </trkpt>
      <trkpt lat="45.67486" lon="5.23369">
        <ele>357.8</ele>
        <time>2025-05-18T10:38:06Z</time>
      </trkpt>
      <trkpt lat="45.67485" lon="5.23367">
        <ele>357.8</ele>
        <time>2025-05-18T10:38:07Z</time>
      </trkpt>
      <trkpt lat="45.67485" lon="5.23364">
        <ele>358.4</ele>
        <time>2025-05-18T10:38:08Z</time>
      </trkpt>
      <trkpt lat="45.67485" lon="5.23362">
        <ele>358.4</ele>
        <time>2025-05-18T10:38:09Z</time>
      </trkpt>
      <trkpt lat="45.67486" lon="5.23359">
        <ele>358.6</ele>
        <time>2025-05-18T10:38:10Z</time>
      </trkpt>
      <trkpt lat="45.67486" lon="5.23356">
        <ele>358.6</ele>
        <time>2025-05-18T10:38:11Z</time>
      </trkpt>
      <trkpt lat="45.67486" lon="5.23353">
        <ele>358.6</ele>
        <time>2025-05-18T10:38:12Z</time>
      </trkpt>
      <trkpt lat="45.67487" lon="5.23346">
        <ele>358.6</ele>
        <time>2025-05-18T10:38:13Z</time>
      </trkpt>
      <trkpt lat="45.67489" lon="5.23343">
        <ele>358.6</ele>
        <time>2025-05-18T10:38:14Z</time>
      </trkpt>
      <trkpt lat="45.67491" lon="5.23341">
        <ele>358.6</ele>
        <time>2025-05-18T10:38:15Z</time>
      </trkpt>
      <trkpt lat="45.67493" lon="5.23339">
        <ele>358.2</ele>
        <time>2025-05-18T10:38:16Z</time>
      </trkpt>
      <trkpt lat="45.67495" lon="5.23335">
        <ele>358.2</ele>
        <time>2025-05-18T10:38:17Z</time>
      </trkpt>
      <trkpt lat="45.67496" lon="5.23331">
        <ele>358</ele>
        <time>2025-05-18T10:38:18Z</time>
      </trkpt>
      <trkpt lat="45.67498" lon="5.23322">
        <ele>357.4</ele>
        <time>2025-05-18T10:38:19Z</time>
      </trkpt>
      <trkpt lat="45.67497" lon="5.23315">
        <ele>357</ele>
        <time>2025-05-18T10:38:20Z</time>
      </trkpt>
      <trkpt lat="45.67498" lon="5.23311">
        <ele>357</ele>
        <time>2025-05-18T10:38:21Z</time>
      </trkpt>
      <trkpt lat="45.67496" lon="5.23306">
        <ele>357</ele>
        <time>2025-05-18T10:38:22Z</time>
      </trkpt>
      <trkpt lat="45.67495" lon="5.23302">
        <ele>356.6</ele>
        <time>2025-05-18T10:38:23Z</time>
      </trkpt>
      <trkpt lat="45.67493" lon="5.23299">
        <ele>357.4</ele>
        <time>2025-05-18T10:38:24Z</time>
      </trkpt>
      <trkpt lat="45.67492" lon="5.23293">
        <ele>357.4</ele>
        <time>2025-05-18T10:38:25Z</time>
      </trkpt>
      <trkpt lat="45.67491" lon="5.23289">
        <ele>357.4</ele>
        <time>2025-05-18T10:38:26Z</time>
      </trkpt>
      <trkpt lat="45.6749" lon="5.23287">
        <ele>357.4</ele>
        <time>2025-05-18T10:38:27Z</time>
      </trkpt>
      <trkpt lat="45.67488" lon="5.23281">
        <ele>357.8</ele>
        <time>2025-05-18T10:38:28Z</time>
      </trkpt>
      <trkpt lat="45.67488" lon="5.23276">
        <ele>358.2</ele>
        <time>2025-05-18T10:38:29Z</time>
      </trkpt>
      <trkpt lat="45.67487" lon="5.23272">
        <ele>358.2</ele>
        <time>2025-05-18T10:38:30Z</time>
      </trkpt>
      <trkpt lat="45.67486" lon="5.23267">
        <ele>358.2</ele>
        <time>2025-05-18T10:38:31Z</time>
      </trkpt>
      <trkpt lat="45.67487" lon="5.23263">
        <ele>358.6</ele>
        <time>2025-05-18T10:38:32Z</time>
      </trkpt>
      <trkpt lat="45.67487" lon="5.23259">
        <ele>358.6</ele>
        <time>2025-05-18T10:38:33Z</time>
      </trkpt>
      <trkpt lat="45.67487" lon="5.23254">
        <ele>358.8</ele>
        <time>2025-05-18T10:38:34Z</time>
      </trkpt>
      <trkpt lat="45.67488" lon="5.23249">
        <ele>359.2</ele>
        <time>2025-05-18T10:38:35Z</time>
      </trkpt>
      <trkpt lat="45.67488" lon="5.23244">
        <ele>359.2</ele>
        <time>2025-05-18T10:38:36Z</time>
      </trkpt>
      <trkpt lat="45.67489" lon="5.23239">
        <ele>359.2</ele>
        <time>2025-05-18T10:38:37Z</time>
      </trkpt>
      <trkpt lat="45.6749" lon="5.23234">
        <ele>359.2</ele>
        <time>2025-05-18T10:38:38Z</time>
      </trkpt>
      <trkpt lat="45.6749" lon="5.23228">
        <ele>359.4</ele>
        <time>2025-05-18T10:38:39Z</time>
      </trkpt>
      <trkpt lat="45.67491" lon="5.23223">
        <ele>359.4</ele>
        <time>2025-05-18T10:38:40Z</time>
      </trkpt>
      <trkpt lat="45.67491" lon="5.2322">
        <ele>359.8</ele>
        <time>2025-05-18T10:38:41Z</time>
      </trkpt>
      <trkpt lat="45.67492" lon="5.23215">
        <ele>359.8</ele>
        <time>2025-05-18T10:38:42Z</time>
      </trkpt>
      <trkpt lat="45.67493" lon="5.2321">
        <ele>360</ele>
        <time>2025-05-18T10:38:43Z</time>
      </trkpt>
      <trkpt lat="45.67494" lon="5.23205">
        <ele>360.4</ele>
        <time>2025-05-18T10:38:44Z</time>
      </trkpt>
      <trkpt lat="45.67494" lon="5.23201">
        <ele>360.4</ele>
        <time>2025-05-18T10:38:45Z</time>
      </trkpt>
      <trkpt lat="45.67495" lon="5.23197">
        <ele>360.4</ele>
        <time>2025-05-18T10:38:46Z</time>
      </trkpt>
      <trkpt lat="45.67495" lon="5.23193">
        <ele>360.4</ele>
        <time>2025-05-18T10:38:47Z</time>
      </trkpt>
      <trkpt lat="45.67496" lon="5.23189">
        <ele>360.6</ele>
        <time>2025-05-18T10:38:48Z</time>
      </trkpt>
      <trkpt lat="45.67498" lon="5.23184">
        <ele>360.6</ele>
        <time>2025-05-18T10:38:49Z</time>
      </trkpt>
      <trkpt lat="45.67499" lon="5.2318">
        <ele>360.6</ele>
        <time>2025-05-18T10:38:50Z</time>
      </trkpt>
      <trkpt lat="45.67501" lon="5.23176">
        <ele>360.6</ele>
        <time>2025-05-18T10:38:51Z</time>
      </trkpt>
      <trkpt lat="45.67501" lon="5.23172">
        <ele>361.4</ele>
        <time>2025-05-18T10:38:52Z</time>
      </trkpt>
      <trkpt lat="45.67502" lon="5.23167">
        <ele>361.8</ele>
        <time>2025-05-18T10:38:53Z</time>
      </trkpt>
      <trkpt lat="45.67503" lon="5.23164">
        <ele>362.2</ele>
        <time>2025-05-18T10:38:54Z</time>
      </trkpt>
      <trkpt lat="45.67504" lon="5.23161">
        <ele>362.4</ele>
        <time>2025-05-18T10:38:55Z</time>
      </trkpt>
      <trkpt lat="45.67505" lon="5.23157">
        <ele>362.8</ele>
        <time>2025-05-18T10:38:56Z</time>
      </trkpt>
      <trkpt lat="45.67505" lon="5.23153">
        <ele>362.8</ele>
        <time>2025-05-18T10:38:57Z</time>
      </trkpt>
      <trkpt lat="45.67505" lon="5.23149">
        <ele>363.2</ele>
        <time>2025-05-18T10:38:58Z</time>
      </trkpt>
      <trkpt lat="45.67505" lon="5.23144">
        <ele>363.4</ele>
        <time>2025-05-18T10:38:59Z</time>
      </trkpt>
      <trkpt lat="45.67506" lon="5.23141">
        <ele>363.4</ele>
        <time>2025-05-18T10:39:00Z</time>
      </trkpt>
      <trkpt lat="45.67506" lon="5.23137">
        <ele>363.8</ele>
        <time>2025-05-18T10:39:01Z</time>
      </trkpt>
      <trkpt lat="45.67507" lon="5.23134">
        <ele>363.8</ele>
        <time>2025-05-18T10:39:02Z</time>
      </trkpt>
      <trkpt lat="45.67508" lon="5.23132">
        <ele>364</ele>
        <time>2025-05-18T10:39:03Z</time>
      </trkpt>
      <trkpt lat="45.67508" lon="5.23129">
        <ele>364</ele>
        <time>2025-05-18T10:39:04Z</time>
      </trkpt>
      <trkpt lat="45.67509" lon="5.23125">
        <ele>364.4</ele>
        <time>2025-05-18T10:39:05Z</time>
      </trkpt>
      <trkpt lat="45.67509" lon="5.23122">
        <ele>364.6</ele>
        <time>2025-05-18T10:39:06Z</time>
      </trkpt>
      <trkpt lat="45.67509" lon="5.23118">
        <ele>364.6</ele>
        <time>2025-05-18T10:39:07Z</time>
      </trkpt>
      <trkpt lat="45.6751" lon="5.23115">
        <ele>364.8</ele>
        <time>2025-05-18T10:39:08Z</time>
      </trkpt>
      <trkpt lat="45.67511" lon="5.23113">
        <ele>364.8</ele>
        <time>2025-05-18T10:39:09Z</time>
      </trkpt>
      <trkpt lat="45.67512" lon="5.2311">
        <ele>365.2</ele>
        <time>2025-05-18T10:39:10Z</time>
      </trkpt>
      <trkpt lat="45.67513" lon="5.23106">
        <ele>365.2</ele>
        <time>2025-05-18T10:39:11Z</time>
      </trkpt>
      <trkpt lat="45.67515" lon="5.23103">
        <ele>365.4</ele>
        <time>2025-05-18T10:39:12Z</time>
      </trkpt>
      <trkpt lat="45.67516" lon="5.231">
        <ele>365.8</ele>
        <time>2025-05-18T10:39:13Z</time>
      </trkpt>
      <trkpt lat="45.67517" lon="5.23097">
        <ele>366</ele>
        <time>2025-05-18T10:39:14Z</time>
      </trkpt>
      <trkpt lat="45.67518" lon="5.23094">
        <ele>366.2</ele>
        <time>2025-05-18T10:39:15Z</time>
      </trkpt>
      <trkpt lat="45.67519" lon="5.2309">
        <ele>366.2</ele>
        <time>2025-05-18T10:39:16Z</time>
      </trkpt>
      <trkpt lat="45.6752" lon="5.23087">
        <ele>366.2</ele>
        <time>2025-05-18T10:39:17Z</time>
      </trkpt>
      <trkpt lat="45.67522" lon="5.23083">
        <ele>366.2</ele>
        <time>2025-05-18T10:39:18Z</time>
      </trkpt>
      <trkpt lat="45.67524" lon="5.23079">
        <ele>366.2</ele>
        <time>2025-05-18T10:39:19Z</time>
      </trkpt>
      <trkpt lat="45.67525" lon="5.23075">
        <ele>366.2</ele>
        <time>2025-05-18T10:39:20Z</time>
      </trkpt>
      <trkpt lat="45.67525" lon="5.23071">
        <ele>366.6</ele>
        <time>2025-05-18T10:39:21Z</time>
      </trkpt>
      <trkpt lat="45.67526" lon="5.23068">
        <ele>366.8</ele>
        <time>2025-05-18T10:39:22Z</time>
      </trkpt>
      <trkpt lat="45.67527" lon="5.23066">
        <ele>367.2</ele>
        <time>2025-05-18T10:39:23Z</time>
      </trkpt>
      <trkpt lat="45.67528" lon="5.23064">
        <ele>367.6</ele>
        <time>2025-05-18T10:39:24Z</time>
      </trkpt>
      <trkpt lat="45.6753" lon="5.23061">
        <ele>368</ele>
        <time>2025-05-18T10:39:25Z</time>
      </trkpt>
      <trkpt lat="45.67531" lon="5.23058">
        <ele>368.2</ele>
        <time>2025-05-18T10:39:26Z</time>
      </trkpt>
      <trkpt lat="45.67533" lon="5.23054">
        <ele>368.2</ele>
        <time>2025-05-18T10:39:27Z</time>
      </trkpt>
      <trkpt lat="45.67534" lon="5.23051">
        <ele>368</ele>
        <time>2025-05-18T10:39:28Z</time>
      </trkpt>
      <trkpt lat="45.67536" lon="5.23048">
        <ele>368</ele>
        <time>2025-05-18T10:39:29Z</time>
      </trkpt>
      <trkpt lat="45.67537" lon="5.23045">
        <ele>368.6</ele>
        <time>2025-05-18T10:39:30Z</time>
      </trkpt>
      <trkpt lat="45.67538" lon="5.23042">
        <ele>368.6</ele>
        <time>2025-05-18T10:39:31Z</time>
      </trkpt>
      <trkpt lat="45.67538" lon="5.23039">
        <ele>369</ele>
        <time>2025-05-18T10:39:32Z</time>
      </trkpt>
      <trkpt lat="45.67539" lon="5.23035">
        <ele>369.2</ele>
        <time>2025-05-18T10:39:33Z</time>
      </trkpt>
      <trkpt lat="45.67541" lon="5.23031">
        <ele>369.2</ele>
        <time>2025-05-18T10:39:34Z</time>
      </trkpt>
      <trkpt lat="45.67542" lon="5.23029">
        <ele>369.2</ele>
        <time>2025-05-18T10:39:35Z</time>
      </trkpt>
      <trkpt lat="45.67543" lon="5.23026">
        <ele>369.2</ele>
        <time>2025-05-18T10:39:36Z</time>
      </trkpt>
      <trkpt lat="45.67544" lon="5.23023">
        <ele>369.6</ele>
        <time>2025-05-18T10:39:37Z</time>
      </trkpt>
      <trkpt lat="45.67545" lon="5.2302">
        <ele>369.6</ele>
        <time>2025-05-18T10:39:38Z</time>
      </trkpt>
      <trkpt lat="45.67546" lon="5.23017">
        <ele>370</ele>
        <time>2025-05-18T10:39:39Z</time>
      </trkpt>
      <trkpt lat="45.67547" lon="5.23014">
        <ele>370</ele>
        <time>2025-05-18T10:39:40Z</time>
      </trkpt>
      <trkpt lat="45.67549" lon="5.23013">
        <ele>370.2</ele>
        <time>2025-05-18T10:39:41Z</time>
      </trkpt>
      <trkpt lat="45.6755" lon="5.2301">
        <ele>370.2</ele>
        <time>2025-05-18T10:39:42Z</time>
      </trkpt>
      <trkpt lat="45.67552" lon="5.23008">
        <ele>370.2</ele>
        <time>2025-05-18T10:39:43Z</time>
      </trkpt>
      <trkpt lat="45.67554" lon="5.23006">
        <ele>370.4</ele>
        <time>2025-05-18T10:39:44Z</time>
      </trkpt>
      <trkpt lat="45.67555" lon="5.23003">
        <ele>370.8</ele>
        <time>2025-05-18T10:39:45Z</time>
      </trkpt>
      <trkpt lat="45.67556" lon="5.22999">
        <ele>370.8</ele>
        <time>2025-05-18T10:39:46Z</time>
      </trkpt>
      <trkpt lat="45.67556" lon="5.22996">
        <ele>370.8</ele>
        <time>2025-05-18T10:39:47Z</time>
      </trkpt>
      <trkpt lat="45.67556" lon="5.22993">
        <ele>371.4</ele>
        <time>2025-05-18T10:39:48Z</time>
      </trkpt>
      <trkpt lat="45.67557" lon="5.2299">
        <ele>371.4</ele>
        <time>2025-05-18T10:39:49Z</time>
      </trkpt>
      <trkpt lat="45.67557" lon="5.22986">
        <ele>371.4</ele>
        <time>2025-05-18T10:39:50Z</time>
      </trkpt>
      <trkpt lat="45.67556" lon="5.22982">
        <ele>371.6</ele>
        <time>2025-05-18T10:39:51Z</time>
      </trkpt>
      <trkpt lat="45.67556" lon="5.22979">
        <ele>371.6</ele>
        <time>2025-05-18T10:39:52Z</time>
      </trkpt>
      <trkpt lat="45.67556" lon="5.22976">
        <ele>371.6</ele>
        <time>2025-05-18T10:39:53Z</time>
      </trkpt>
      <trkpt lat="45.67557" lon="5.22972">
        <ele>371.8</ele>
        <time>2025-05-18T10:39:54Z</time>
      </trkpt>
      <trkpt lat="45.67556" lon="5.22968">
        <ele>372.2</ele>
        <time>2025-05-18T10:39:55Z</time>
      </trkpt>
      <trkpt lat="45.67556" lon="5.22964">
        <ele>372.2</ele>
        <time>2025-05-18T10:39:56Z</time>
      </trkpt>
      <trkpt lat="45.67554" lon="5.2296">
        <ele>372.2</ele>
        <time>2025-05-18T10:39:57Z</time>
      </trkpt>
      <trkpt lat="45.67554" lon="5.22957">
        <ele>372.4</ele>
        <time>2025-05-18T10:39:58Z</time>
      </trkpt>
      <trkpt lat="45.67554" lon="5.22954">
        <ele>372.4</ele>
        <time>2025-05-18T10:39:59Z</time>
      </trkpt>
      <trkpt lat="45.67553" lon="5.22951">
        <ele>372.4</ele>
        <time>2025-05-18T10:40:00Z</time>
      </trkpt>
      <trkpt lat="45.67553" lon="5.22948">
        <ele>372.8</ele>
        <time>2025-05-18T10:40:01Z</time>
      </trkpt>
      <trkpt lat="45.67553" lon="5.22945">
        <ele>372.8</ele>
        <time>2025-05-18T10:40:02Z</time>
      </trkpt>
      <trkpt lat="45.67552" lon="5.22943">
        <ele>373.2</ele>
        <time>2025-05-18T10:40:03Z</time>
      </trkpt>
      <trkpt lat="45.67552" lon="5.2294">
        <ele>373.2</ele>
        <time>2025-05-18T10:40:04Z</time>
      </trkpt>
      <trkpt lat="45.67551" lon="5.22938">
        <ele>373.2</ele>
        <time>2025-05-18T10:40:05Z</time>
      </trkpt>
      <trkpt lat="45.6755" lon="5.22936">
        <ele>373.8</ele>
        <time>2025-05-18T10:40:06Z</time>
      </trkpt>
      <trkpt lat="45.67549" lon="5.22934">
        <ele>374</ele>
        <time>2025-05-18T10:40:07Z</time>
      </trkpt>
      <trkpt lat="45.67548" lon="5.22931">
        <ele>374</ele>
        <time>2025-05-18T10:40:08Z</time>
      </trkpt>
      <trkpt lat="45.67548" lon="5.22929">
        <ele>374.4</ele>
        <time>2025-05-18T10:40:09Z</time>
      </trkpt>
      <trkpt lat="45.67547" lon="5.22927">
        <ele>374.8</ele>
        <time>2025-05-18T10:40:10Z</time>
      </trkpt>
      <trkpt lat="45.67546" lon="5.22925">
        <ele>375.2</ele>
        <time>2025-05-18T10:40:11Z</time>
      </trkpt>
      <trkpt lat="45.67545" lon="5.22924">
        <ele>375.2</ele>
        <time>2025-05-18T10:40:12Z</time>
      </trkpt>
      <trkpt lat="45.67545" lon="5.22922">
        <ele>375.4</ele>
        <time>2025-05-18T10:40:13Z</time>
      </trkpt>
      <trkpt lat="45.67545" lon="5.2292">
        <ele>375.4</ele>
        <time>2025-05-18T10:40:14Z</time>
      </trkpt>
      <trkpt lat="45.67543" lon="5.22918">
        <ele>375.8</ele>
        <time>2025-05-18T10:40:15Z</time>
      </trkpt>
      <trkpt lat="45.67542" lon="5.22916">
        <ele>375.8</ele>
        <time>2025-05-18T10:40:16Z</time>
      </trkpt>
      <trkpt lat="45.6754" lon="5.22914">
        <ele>376</ele>
        <time>2025-05-18T10:40:17Z</time>
      </trkpt>
      <trkpt lat="45.67539" lon="5.22913">
        <ele>376</ele>
        <time>2025-05-18T10:40:18Z</time>
      </trkpt>
      <trkpt lat="45.67539" lon="5.22913">
        <ele>376.4</ele>
        <time>2025-05-18T10:40:19Z</time>
      </trkpt>
      <trkpt lat="45.67538" lon="5.22912">
        <ele>376.4</ele>
        <time>2025-05-18T10:40:20Z</time>
      </trkpt>
      <trkpt lat="45.67537" lon="5.22911">
        <ele>376.4</ele>
        <time>2025-05-18T10:40:21Z</time>
      </trkpt>
      <trkpt lat="45.67536" lon="5.2291">
        <ele>376.4</ele>
        <time>2025-05-18T10:40:22Z</time>
      </trkpt>
      <trkpt lat="45.67536" lon="5.2291">
        <ele>376.4</ele>
        <time>2025-05-18T10:40:23Z</time>
      </trkpt>
      <trkpt lat="45.67535" lon="5.22909">
        <ele>376.4</ele>
        <time>2025-05-18T10:40:24Z</time>
      </trkpt>
      <trkpt lat="45.67534" lon="5.22908">
        <ele>376.4</ele>
        <time>2025-05-18T10:40:25Z</time>
      </trkpt>
      <trkpt lat="45.67533" lon="5.22907">
        <ele>376.4</ele>
        <time>2025-05-18T10:40:26Z</time>
      </trkpt>
      <trkpt lat="45.67531" lon="5.22906">
        <ele>376.2</ele>
        <time>2025-05-18T10:40:27Z</time>
      </trkpt>
      <trkpt lat="45.67529" lon="5.22904">
        <ele>376.2</ele>
        <time>2025-05-18T10:40:28Z</time>
      </trkpt>
      <trkpt lat="45.67528" lon="5.22904">
        <ele>376.2</ele>
        <time>2025-05-18T10:40:29Z</time>
      </trkpt>
      <trkpt lat="45.67527" lon="5.22904">
        <ele>376.2</ele>
        <time>2025-05-18T10:40:30Z</time>
      </trkpt>
      <trkpt lat="45.67525" lon="5.22904">
        <ele>376.2</ele>
        <time>2025-05-18T10:40:31Z</time>
      </trkpt>
      <trkpt lat="45.67524" lon="5.22904">
        <ele>376.2</ele>
        <time>2025-05-18T10:40:32Z</time>
      </trkpt>
      <trkpt lat="45.67523" lon="5.22903">
        <ele>376.2</ele>
        <time>2025-05-18T10:40:33Z</time>
      </trkpt>
      <trkpt lat="45.67523" lon="5.22903">
        <ele>376.2</ele>
        <time>2025-05-18T10:40:34Z</time>
      </trkpt>
      <trkpt lat="45.67522" lon="5.22902">
        <ele>376</ele>
        <time>2025-05-18T10:40:46Z</time>
      </trkpt>
      <trkpt lat="45.6752" lon="5.22901">
        <ele>376</ele>
        <time>2025-05-18T10:40:47Z</time>
      </trkpt>
      <trkpt lat="45.67518" lon="5.229">
        <ele>376</ele>
        <time>2025-05-18T10:40:48Z</time>
      </trkpt>
      <trkpt lat="45.67516" lon="5.229">
        <ele>375.8</ele>
        <time>2025-05-18T10:40:49Z</time>
      </trkpt>
      <trkpt lat="45.67515" lon="5.22898">
        <ele>375.8</ele>
        <time>2025-05-18T10:40:50Z</time>
      </trkpt>
      <trkpt lat="45.67513" lon="5.22897">
        <ele>375.8</ele>
        <time>2025-05-18T10:40:51Z</time>
      </trkpt>
      <trkpt lat="45.67511" lon="5.22894">
        <ele>375.4</ele>
        <time>2025-05-18T10:40:52Z</time>
      </trkpt>
      <trkpt lat="45.67508" lon="5.2289">
        <ele>375.4</ele>
        <time>2025-05-18T10:40:53Z</time>
      </trkpt>
      <trkpt lat="45.67505" lon="5.22886">
        <ele>375</ele>
        <time>2025-05-18T10:40:54Z</time>
      </trkpt>
      <trkpt lat="45.67503" lon="5.22883">
        <ele>375</ele>
        <time>2025-05-18T10:40:55Z</time>
      </trkpt>
      <trkpt lat="45.675" lon="5.22879">
        <ele>375</ele>
        <time>2025-05-18T10:40:56Z</time>
      </trkpt>
      <trkpt lat="45.67498" lon="5.22876">
        <ele>375</ele>
        <time>2025-05-18T10:40:57Z</time>
      </trkpt>
      <trkpt lat="45.67495" lon="5.22873">
        <ele>375</ele>
        <time>2025-05-18T10:40:58Z</time>
      </trkpt>
      <trkpt lat="45.67493" lon="5.2287">
        <ele>375</ele>
        <time>2025-05-18T10:40:59Z</time>
      </trkpt>
      <trkpt lat="45.6749" lon="5.22866">
        <ele>374.4</ele>
        <time>2025-05-18T10:41:00Z</time>
      </trkpt>
      <trkpt lat="45.67488" lon="5.22863">
        <ele>374.4</ele>
        <time>2025-05-18T10:41:01Z</time>
      </trkpt>
      <trkpt lat="45.67486" lon="5.2286">
        <ele>374.4</ele>
        <time>2025-05-18T10:41:02Z</time>
      </trkpt>
      <trkpt lat="45.67484" lon="5.22855">
        <ele>374.4</ele>
        <time>2025-05-18T10:41:03Z</time>
      </trkpt>
      <trkpt lat="45.67482" lon="5.22851">
        <ele>374.4</ele>
        <time>2025-05-18T10:41:04Z</time>
      </trkpt>
      <trkpt lat="45.6748" lon="5.22847">
        <ele>374.8</ele>
        <time>2025-05-18T10:41:05Z</time>
      </trkpt>
      <trkpt lat="45.67479" lon="5.22844">
        <ele>375.6</ele>
        <time>2025-05-18T10:41:06Z</time>
      </trkpt>
      <trkpt lat="45.67478" lon="5.2284">
        <ele>375.8</ele>
        <time>2025-05-18T10:41:07Z</time>
      </trkpt>
      <trkpt lat="45.67477" lon="5.22836">
        <ele>376</ele>
        <time>2025-05-18T10:41:08Z</time>
      </trkpt>
      <trkpt lat="45.67476" lon="5.22833">
        <ele>376.4</ele>
        <time>2025-05-18T10:41:09Z</time>
      </trkpt>
      <trkpt lat="45.67474" lon="5.2283">
        <ele>376.4</ele>
        <time>2025-05-18T10:41:10Z</time>
      </trkpt>
      <trkpt lat="45.67471" lon="5.22826">
        <ele>376.4</ele>
        <time>2025-05-18T10:41:11Z</time>
      </trkpt>
      <trkpt lat="45.67467" lon="5.22821">
        <ele>376.4</ele>
        <time>2025-05-18T10:41:12Z</time>
      </trkpt>
      <trkpt lat="45.67464" lon="5.22816">
        <ele>376</ele>
        <time>2025-05-18T10:41:13Z</time>
      </trkpt>
      <trkpt lat="45.6746" lon="5.22811">
        <ele>375.4</ele>
        <time>2025-05-18T10:41:14Z</time>
      </trkpt>
      <trkpt lat="45.67456" lon="5.22806">
        <ele>375.4</ele>
        <time>2025-05-18T10:41:15Z</time>
      </trkpt>
      <trkpt lat="45.67452" lon="5.22802">
        <ele>375.2</ele>
        <time>2025-05-18T10:41:16Z</time>
      </trkpt>
      <trkpt lat="45.67449" lon="5.22797">
        <ele>375.2</ele>
        <time>2025-05-18T10:41:17Z</time>
      </trkpt>
      <trkpt lat="45.67446" lon="5.22793">
        <ele>375.4</ele>
        <time>2025-05-18T10:41:18Z</time>
      </trkpt>
      <trkpt lat="45.67444" lon="5.22788">
        <ele>375.4</ele>
        <time>2025-05-18T10:41:19Z</time>
      </trkpt>
      <trkpt lat="45.67443" lon="5.22786">
        <ele>375.4</ele>
        <time>2025-05-18T10:41:20Z</time>
      </trkpt>
      <trkpt lat="45.67442" lon="5.22783">
        <ele>375.6</ele>
        <time>2025-05-18T10:41:21Z</time>
      </trkpt>
      <trkpt lat="45.67439" lon="5.22781">
        <ele>375.6</ele>
        <time>2025-05-18T10:41:22Z</time>
      </trkpt>
      <trkpt lat="45.67438" lon="5.22779">
        <ele>375.6</ele>
        <time>2025-05-18T10:41:23Z</time>
      </trkpt>
      <trkpt lat="45.67437" lon="5.22779">
        <ele>375.6</ele>
        <time>2025-05-18T10:41:24Z</time>
      </trkpt>
      <trkpt lat="45.67437" lon="5.22779">
        <ele>375.6</ele>
        <time>2025-05-18T10:41:25Z</time>
      </trkpt>
      <trkpt lat="45.67437" lon="5.22779">
        <ele>376.2</ele>
        <time>2025-05-18T10:41:26Z</time>
      </trkpt>
      <trkpt lat="45.67437" lon="5.22776">
        <ele>375.6</ele>
        <time>2025-05-18T10:41:34Z</time>
      </trkpt>
      <trkpt lat="45.67437" lon="5.22775">
        <ele>375.6</ele>
        <time>2025-05-18T10:41:35Z</time>
      </trkpt>
      <trkpt lat="45.67436" lon="5.22774">
        <ele>375.6</ele>
        <time>2025-05-18T10:41:36Z</time>
      </trkpt>
      <trkpt lat="45.67435" lon="5.22773">
        <ele>375.6</ele>
        <time>2025-05-18T10:41:37Z</time>
      </trkpt>
      <trkpt lat="45.67434" lon="5.22772">
        <ele>375.2</ele>
        <time>2025-05-18T10:41:38Z</time>
      </trkpt>
      <trkpt lat="45.67433" lon="5.2277">
        <ele>375.2</ele>
        <time>2025-05-18T10:41:39Z</time>
      </trkpt>
      <trkpt lat="45.67431" lon="5.22769">
        <ele>374.6</ele>
        <time>2025-05-18T10:41:40Z</time>
      </trkpt>
      <trkpt lat="45.67429" lon="5.22767">
        <ele>374.4</ele>
        <time>2025-05-18T10:41:41Z</time>
      </trkpt>
      <trkpt lat="45.67427" lon="5.22765">
        <ele>374.4</ele>
        <time>2025-05-18T10:41:42Z</time>
      </trkpt>
      <trkpt lat="45.67426" lon="5.22763">
        <ele>373.6</ele>
        <time>2025-05-18T10:41:43Z</time>
      </trkpt>
      <trkpt lat="45.67424" lon="5.2276">
        <ele>373</ele>
        <time>2025-05-18T10:41:44Z</time>
      </trkpt>
      <trkpt lat="45.67422" lon="5.22756">
        <ele>372.8</ele>
        <time>2025-05-18T10:41:45Z</time>
      </trkpt>
      <trkpt lat="45.67421" lon="5.22753">
        <ele>372.4</ele>
        <time>2025-05-18T10:41:46Z</time>
      </trkpt>
      <trkpt lat="45.6742" lon="5.22749">
        <ele>372.2</ele>
        <time>2025-05-18T10:41:47Z</time>
      </trkpt>
      <trkpt lat="45.67419" lon="5.22747">
        <ele>371.8</ele>
        <time>2025-05-18T10:41:48Z</time>
      </trkpt>
      <trkpt lat="45.67419" lon="5.22744">
        <ele>371.6</ele>
        <time>2025-05-18T10:41:49Z</time>
      </trkpt>
      <trkpt lat="45.67418" lon="5.22741">
        <ele>370.6</ele>
        <time>2025-05-18T10:41:50Z</time>
      </trkpt>
      <trkpt lat="45.67418" lon="5.2274">
        <ele>370</ele>
        <time>2025-05-18T10:41:51Z</time>
      </trkpt>
      <trkpt lat="45.67417" lon="5.22736">
        <ele>369.6</ele>
        <time>2025-05-18T10:41:52Z</time>
      </trkpt>
      <trkpt lat="45.67416" lon="5.22733">
        <ele>368.8</ele>
        <time>2025-05-18T10:41:53Z</time>
      </trkpt>
      <trkpt lat="45.67415" lon="5.22731">
        <ele>368.4</ele>
        <time>2025-05-18T10:41:54Z</time>
      </trkpt>
      <trkpt lat="45.67415" lon="5.22728">
        <ele>367.8</ele>
        <time>2025-05-18T10:41:55Z</time>
      </trkpt>
      <trkpt lat="45.67415" lon="5.22724">
        <ele>367.4</ele>
        <time>2025-05-18T10:41:56Z</time>
      </trkpt>
      <trkpt lat="45.67414" lon="5.2272">
        <ele>367.4</ele>
        <time>2025-05-18T10:41:57Z</time>
      </trkpt>
      <trkpt lat="45.67411" lon="5.22716">
        <ele>366.4</ele>
        <time>2025-05-18T10:41:58Z</time>
      </trkpt>
      <trkpt lat="45.67406" lon="5.22713">
        <ele>365.8</ele>
        <time>2025-05-18T10:41:59Z</time>
      </trkpt>
      <trkpt lat="45.67402" lon="5.22711">
        <ele>365.4</ele>
        <time>2025-05-18T10:42:00Z</time>
      </trkpt>
      <trkpt lat="45.67398" lon="5.22708">
        <ele>364.8</ele>
        <time>2025-05-18T10:42:01Z</time>
      </trkpt>
      <trkpt lat="45.67395" lon="5.22706">
        <ele>364.6</ele>
        <time>2025-05-18T10:42:02Z</time>
      </trkpt>
      <trkpt lat="45.67391" lon="5.22704">
        <ele>364.2</ele>
        <time>2025-05-18T10:42:03Z</time>
      </trkpt>
      <trkpt lat="45.67388" lon="5.22702">
        <ele>363.4</ele>
        <time>2025-05-18T10:42:04Z</time>
      </trkpt>
      <trkpt lat="45.67385" lon="5.227">
        <ele>363</ele>
        <time>2025-05-18T10:42:05Z</time>
      </trkpt>
      <trkpt lat="45.67383" lon="5.22698">
        <ele>362.4</ele>
        <time>2025-05-18T10:42:06Z</time>
      </trkpt>
      <trkpt lat="45.6738" lon="5.22695">
        <ele>362</ele>
        <time>2025-05-18T10:42:07Z</time>
      </trkpt>
      <trkpt lat="45.67376" lon="5.22689">
        <ele>361.8</ele>
        <time>2025-05-18T10:42:08Z</time>
      </trkpt>
      <trkpt lat="45.67373" lon="5.22684">
        <ele>361.8</ele>
        <time>2025-05-18T10:42:09Z</time>
      </trkpt>
      <trkpt lat="45.67371" lon="5.22679">
        <ele>361.2</ele>
        <time>2025-05-18T10:42:10Z</time>
      </trkpt>
      <trkpt lat="45.6737" lon="5.22673">
        <ele>360.8</ele>
        <time>2025-05-18T10:42:11Z</time>
      </trkpt>
      <trkpt lat="45.67372" lon="5.22671">
        <ele>360</ele>
        <time>2025-05-18T10:42:12Z</time>
      </trkpt>
      <trkpt lat="45.67372" lon="5.22668">
        <ele>359.8</ele>
        <time>2025-05-18T10:42:13Z</time>
      </trkpt>
      <trkpt lat="45.67373" lon="5.22665">
        <ele>359.8</ele>
        <time>2025-05-18T10:42:14Z</time>
      </trkpt>
      <trkpt lat="45.67374" lon="5.22661">
        <ele>359.8</ele>
        <time>2025-05-18T10:42:15Z</time>
      </trkpt>
      <trkpt lat="45.67374" lon="5.22658">
        <ele>359.2</ele>
        <time>2025-05-18T10:42:16Z</time>
      </trkpt>
      <trkpt lat="45.67374" lon="5.22653">
        <ele>358.8</ele>
        <time>2025-05-18T10:42:17Z</time>
      </trkpt>
      <trkpt lat="45.67375" lon="5.2265">
        <ele>358.8</ele>
        <time>2025-05-18T10:42:18Z</time>
      </trkpt>
      <trkpt lat="45.67376" lon="5.22648">
        <ele>358.2</ele>
        <time>2025-05-18T10:42:19Z</time>
      </trkpt>
      <trkpt lat="45.67377" lon="5.22646">
        <ele>358.2</ele>
        <time>2025-05-18T10:42:20Z</time>
      </trkpt>
      <trkpt lat="45.67377" lon="5.22644">
        <ele>357.8</ele>
        <time>2025-05-18T10:42:21Z</time>
      </trkpt>
      <trkpt lat="45.67378" lon="5.22642">
        <ele>357.6</ele>
        <time>2025-05-18T10:42:22Z</time>
      </trkpt>
      <trkpt lat="45.67378" lon="5.2264">
        <ele>357.2</ele>
        <time>2025-05-18T10:42:23Z</time>
      </trkpt>
      <trkpt lat="45.67378" lon="5.22638">
        <ele>357.2</ele>
        <time>2025-05-18T10:42:24Z</time>
      </trkpt>
      <trkpt lat="45.67379" lon="5.22635">
        <ele>356.6</ele>
        <time>2025-05-18T10:42:25Z</time>
      </trkpt>
      <trkpt lat="45.67379" lon="5.22634">
        <ele>356.2</ele>
        <time>2025-05-18T10:42:26Z</time>
      </trkpt>
      <trkpt lat="45.6738" lon="5.22631">
        <ele>356.2</ele>
        <time>2025-05-18T10:42:27Z</time>
      </trkpt>
      <trkpt lat="45.67381" lon="5.22629">
        <ele>355.6</ele>
        <time>2025-05-18T10:42:28Z</time>
      </trkpt>
      <trkpt lat="45.67381" lon="5.22628">
        <ele>355</ele>
        <time>2025-05-18T10:42:29Z</time>
      </trkpt>
      <trkpt lat="45.67381" lon="5.22626">
        <ele>355</ele>
        <time>2025-05-18T10:42:30Z</time>
      </trkpt>
      <trkpt lat="45.67381" lon="5.22624">
        <ele>354.8</ele>
        <time>2025-05-18T10:42:31Z</time>
      </trkpt>
      <trkpt lat="45.67381" lon="5.22622">
        <ele>354.8</ele>
        <time>2025-05-18T10:42:32Z</time>
      </trkpt>
      <trkpt lat="45.67381" lon="5.22619">
        <ele>354.2</ele>
        <time>2025-05-18T10:42:33Z</time>
      </trkpt>
      <trkpt lat="45.67381" lon="5.22616">
        <ele>354.2</ele>
        <time>2025-05-18T10:42:34Z</time>
      </trkpt>
      <trkpt lat="45.67382" lon="5.22614">
        <ele>353.8</ele>
        <time>2025-05-18T10:42:35Z</time>
      </trkpt>
      <trkpt lat="45.67381" lon="5.22612">
        <ele>353.8</ele>
        <time>2025-05-18T10:42:36Z</time>
      </trkpt>
      <trkpt lat="45.67381" lon="5.22611">
        <ele>353.2</ele>
        <time>2025-05-18T10:42:37Z</time>
      </trkpt>
      <trkpt lat="45.67381" lon="5.22609">
        <ele>352.8</ele>
        <time>2025-05-18T10:42:38Z</time>
      </trkpt>
      <trkpt lat="45.67381" lon="5.22606">
        <ele>352.6</ele>
        <time>2025-05-18T10:42:39Z</time>
      </trkpt>
      <trkpt lat="45.6738" lon="5.22605">
        <ele>352.2</ele>
        <time>2025-05-18T10:42:40Z</time>
      </trkpt>
      <trkpt lat="45.6738" lon="5.22603">
        <ele>351.6</ele>
        <time>2025-05-18T10:42:41Z</time>
      </trkpt>
      <trkpt lat="45.67379" lon="5.22601">
        <ele>351.2</ele>
        <time>2025-05-18T10:42:42Z</time>
      </trkpt>
      <trkpt lat="45.67378" lon="5.22599">
        <ele>350.8</ele>
        <time>2025-05-18T10:42:43Z</time>
      </trkpt>
      <trkpt lat="45.67377" lon="5.22597">
        <ele>350.4</ele>
        <time>2025-05-18T10:42:44Z</time>
      </trkpt>
      <trkpt lat="45.67376" lon="5.22595">
        <ele>350</ele>
        <time>2025-05-18T10:42:45Z</time>
      </trkpt>
      <trkpt lat="45.67375" lon="5.22593">
        <ele>349.2</ele>
        <time>2025-05-18T10:42:46Z</time>
      </trkpt>
      <trkpt lat="45.67374" lon="5.2259">
        <ele>348.6</ele>
        <time>2025-05-18T10:42:47Z</time>
      </trkpt>
      <trkpt lat="45.67373" lon="5.22587">
        <ele>348.4</ele>
        <time>2025-05-18T10:42:48Z</time>
      </trkpt>
      <trkpt lat="45.67373" lon="5.22585">
        <ele>347.6</ele>
        <time>2025-05-18T10:42:49Z</time>
      </trkpt>
      <trkpt lat="45.67373" lon="5.22584">
        <ele>347.6</ele>
        <time>2025-05-18T10:42:50Z</time>
      </trkpt>
      <trkpt lat="45.67372" lon="5.22583">
        <ele>347.6</ele>
        <time>2025-05-18T10:42:51Z</time>
      </trkpt>
      <trkpt lat="45.67371" lon="5.22581">
        <ele>347</ele>
        <time>2025-05-18T10:42:52Z</time>
      </trkpt>
      <trkpt lat="45.67369" lon="5.2258">
        <ele>346.4</ele>
        <time>2025-05-18T10:42:53Z</time>
      </trkpt>
      <trkpt lat="45.67368" lon="5.22579">
        <ele>346</ele>
        <time>2025-05-18T10:42:54Z</time>
      </trkpt>
      <trkpt lat="45.67367" lon="5.22579">
        <ele>346</ele>
        <time>2025-05-18T10:42:55Z</time>
      </trkpt>
      <trkpt lat="45.67366" lon="5.22579">
        <ele>345.6</ele>
        <time>2025-05-18T10:42:56Z</time>
      </trkpt>
      <trkpt lat="45.67364" lon="5.22578">
        <ele>345.2</ele>
        <time>2025-05-18T10:42:57Z</time>
      </trkpt>
      <trkpt lat="45.67362" lon="5.22578">
        <ele>344.4</ele>
        <time>2025-05-18T10:42:58Z</time>
      </trkpt>
      <trkpt lat="45.6736" lon="5.22578">
        <ele>344.4</ele>
        <time>2025-05-18T10:42:59Z</time>
      </trkpt>
      <trkpt lat="45.67358" lon="5.22578">
        <ele>344</ele>
        <time>2025-05-18T10:43:00Z</time>
      </trkpt>
      <trkpt lat="45.67357" lon="5.22578">
        <ele>343.6</ele>
        <time>2025-05-18T10:43:01Z</time>
      </trkpt>
      <trkpt lat="45.67355" lon="5.22577">
        <ele>343</ele>
        <time>2025-05-18T10:43:02Z</time>
      </trkpt>
      <trkpt lat="45.67355" lon="5.22577">
        <ele>342.6</ele>
        <time>2025-05-18T10:43:03Z</time>
      </trkpt>
      <trkpt lat="45.67354" lon="5.22577">
        <ele>342.4</ele>
        <time>2025-05-18T10:43:04Z</time>
      </trkpt>
      <trkpt lat="45.67351" lon="5.22576">
        <ele>341.6</ele>
        <time>2025-05-18T10:43:57Z</time>
      </trkpt>
      <trkpt lat="45.67349" lon="5.22576">
        <ele>341.2</ele>
        <time>2025-05-18T10:43:58Z</time>
      </trkpt>
      <trkpt lat="45.67348" lon="5.22577">
        <ele>340.6</ele>
        <time>2025-05-18T10:43:59Z</time>
      </trkpt>
      <trkpt lat="45.67347" lon="5.22577">
        <ele>340</ele>
        <time>2025-05-18T10:44:00Z</time>
      </trkpt>
      <trkpt lat="45.67345" lon="5.22579">
        <ele>339.6</ele>
        <time>2025-05-18T10:44:01Z</time>
      </trkpt>
      <trkpt lat="45.67342" lon="5.2258">
        <ele>338</ele>
        <time>2025-05-18T10:44:02Z</time>
      </trkpt>
      <trkpt lat="45.6734" lon="5.22582">
        <ele>338</ele>
        <time>2025-05-18T10:44:03Z</time>
      </trkpt>
      <trkpt lat="45.67338" lon="5.22582">
        <ele>337.2</ele>
        <time>2025-05-18T10:44:04Z</time>
      </trkpt>
      <trkpt lat="45.67335" lon="5.22583">
        <ele>337.2</ele>
        <time>2025-05-18T10:44:05Z</time>
      </trkpt>
      <trkpt lat="45.67332" lon="5.22583">
        <ele>337.8</ele>
        <time>2025-05-18T10:44:06Z</time>
      </trkpt>
      <trkpt lat="45.67329" lon="5.22583">
        <ele>337.2</ele>
        <time>2025-05-18T10:44:07Z</time>
      </trkpt>
      <trkpt lat="45.67326" lon="5.22583">
        <ele>336.6</ele>
        <time>2025-05-18T10:44:08Z</time>
      </trkpt>
      <trkpt lat="45.67324" lon="5.22583">
        <ele>336.4</ele>
        <time>2025-05-18T10:44:09Z</time>
      </trkpt>
      <trkpt lat="45.67321" lon="5.22581">
        <ele>335.2</ele>
        <time>2025-05-18T10:44:10Z</time>
      </trkpt>
      <trkpt lat="45.67318" lon="5.2258">
        <ele>334.8</ele>
        <time>2025-05-18T10:44:11Z</time>
      </trkpt>
      <trkpt lat="45.67316" lon="5.22579">
        <ele>334.2</ele>
        <time>2025-05-18T10:44:12Z</time>
      </trkpt>
      <trkpt lat="45.67313" lon="5.22578">
        <ele>333.8</ele>
        <time>2025-05-18T10:44:13Z</time>
      </trkpt>
      <trkpt lat="45.6731" lon="5.22576">
        <ele>333.8</ele>
        <time>2025-05-18T10:44:14Z</time>
      </trkpt>
      <trkpt lat="45.67307" lon="5.22575">
        <ele>333</ele>
        <time>2025-05-18T10:44:15Z</time>
      </trkpt>
      <trkpt lat="45.67305" lon="5.22573">
        <ele>333</ele>
        <time>2025-05-18T10:44:16Z</time>
      </trkpt>
      <trkpt lat="45.67303" lon="5.22573">
        <ele>333.2</ele>
        <time>2025-05-18T10:44:17Z</time>
      </trkpt>
      <trkpt lat="45.673" lon="5.22574">
        <ele>332</ele>
        <time>2025-05-18T10:44:18Z</time>
      </trkpt>
      <trkpt lat="45.67297" lon="5.22577">
        <ele>332</ele>
        <time>2025-05-18T10:44:19Z</time>
      </trkpt>
      <trkpt lat="45.67293" lon="5.2258">
        <ele>331.4</ele>
        <time>2025-05-18T10:44:20Z</time>
      </trkpt>
      <trkpt lat="45.67289" lon="5.22586">
        <ele>331.4</ele>
        <time>2025-05-18T10:44:21Z</time>
      </trkpt>
      <trkpt lat="45.67285" lon="5.2259">
        <ele>331.4</ele>
        <time>2025-05-18T10:44:22Z</time>
      </trkpt>
      <trkpt lat="45.67283" lon="5.22595">
        <ele>331.4</ele>
        <time>2025-05-18T10:44:23Z</time>
      </trkpt>
      <trkpt lat="45.6728" lon="5.22601">
        <ele>331</ele>
        <time>2025-05-18T10:44:24Z</time>
      </trkpt>
      <trkpt lat="45.67278" lon="5.22604">
        <ele>331.2</ele>
        <time>2025-05-18T10:44:25Z</time>
      </trkpt>
      <trkpt lat="45.67276" lon="5.2261">
        <ele>331.2</ele>
        <time>2025-05-18T10:44:26Z</time>
      </trkpt>
      <trkpt lat="45.67273" lon="5.22617">
        <ele>331.2</ele>
        <time>2025-05-18T10:44:27Z</time>
      </trkpt>
      <trkpt lat="45.67271" lon="5.2262">
        <ele>331.6</ele>
        <time>2025-05-18T10:44:28Z</time>
      </trkpt>
      <trkpt lat="45.67269" lon="5.22623">
        <ele>331.6</ele>
        <time>2025-05-18T10:44:29Z</time>
      </trkpt>
      <trkpt lat="45.67267" lon="5.22626">
        <ele>332</ele>
        <time>2025-05-18T10:44:30Z</time>
      </trkpt>
      <trkpt lat="45.67261" lon="5.22627">
        <ele>331.8</ele>
        <time>2025-05-18T10:44:31Z</time>
      </trkpt>
      <trkpt lat="45.67257" lon="5.22628">
        <ele>331.6</ele>
        <time>2025-05-18T10:44:32Z</time>
      </trkpt>
      <trkpt lat="45.67252" lon="5.22627">
        <ele>331</ele>
        <time>2025-05-18T10:44:33Z</time>
      </trkpt>
      <trkpt lat="45.67248" lon="5.22626">
        <ele>330.4</ele>
        <time>2025-05-18T10:44:34Z</time>
      </trkpt>
      <trkpt lat="45.67243" lon="5.22624">
        <ele>330.8</ele>
        <time>2025-05-18T10:44:35Z</time>
      </trkpt>
      <trkpt lat="45.67237" lon="5.22621">
        <ele>330.2</ele>
        <time>2025-05-18T10:44:36Z</time>
      </trkpt>
      <trkpt lat="45.67231" lon="5.22619">
        <ele>330.2</ele>
        <time>2025-05-18T10:44:37Z</time>
      </trkpt>
      <trkpt lat="45.67225" lon="5.22618">
        <ele>330.4</ele>
        <time>2025-05-18T10:44:38Z</time>
      </trkpt>
      <trkpt lat="45.67219" lon="5.22617">
        <ele>329.4</ele>
        <time>2025-05-18T10:44:39Z</time>
      </trkpt>
      <trkpt lat="45.67214" lon="5.22614">
        <ele>329.8</ele>
        <time>2025-05-18T10:44:40Z</time>
      </trkpt>
      <trkpt lat="45.67209" lon="5.22612">
        <ele>329.2</ele>
        <time>2025-05-18T10:44:41Z</time>
      </trkpt>
      <trkpt lat="45.67203" lon="5.22609">
        <ele>328.8</ele>
        <time>2025-05-18T10:44:42Z</time>
      </trkpt>
      <trkpt lat="45.67199" lon="5.22607">
        <ele>328.4</ele>
        <time>2025-05-18T10:44:43Z</time>
      </trkpt>
      <trkpt lat="45.67196" lon="5.22604">
        <ele>328</ele>
        <time>2025-05-18T10:44:44Z</time>
      </trkpt>
      <trkpt lat="45.6719" lon="5.22603">
        <ele>328</ele>
        <time>2025-05-18T10:44:45Z</time>
      </trkpt>
      <trkpt lat="45.67186" lon="5.22601">
        <ele>327.6</ele>
        <time>2025-05-18T10:44:46Z</time>
      </trkpt>
      <trkpt lat="45.67182" lon="5.22601">
        <ele>327.4</ele>
        <time>2025-05-18T10:44:47Z</time>
      </trkpt>
      <trkpt lat="45.67177" lon="5.226">
        <ele>326.6</ele>
        <time>2025-05-18T10:44:48Z</time>
      </trkpt>
      <trkpt lat="45.67172" lon="5.22599">
        <ele>326.6</ele>
        <time>2025-05-18T10:44:49Z</time>
      </trkpt>
      <trkpt lat="45.67167" lon="5.22598">
        <ele>326.2</ele>
        <time>2025-05-18T10:44:50Z</time>
      </trkpt>
      <trkpt lat="45.67162" lon="5.22597">
        <ele>326</ele>
        <time>2025-05-18T10:44:51Z</time>
      </trkpt>
      <trkpt lat="45.6716" lon="5.22596">
        <ele>326</ele>
        <time>2025-05-18T10:44:52Z</time>
      </trkpt>
      <trkpt lat="45.67158" lon="5.22596">
        <ele>325.4</ele>
        <time>2025-05-18T10:44:53Z</time>
      </trkpt>
      <trkpt lat="45.67156" lon="5.22593">
        <ele>325</ele>
        <time>2025-05-18T10:44:54Z</time>
      </trkpt>
      <trkpt lat="45.67155" lon="5.22593">
        <ele>324.4</ele>
        <time>2025-05-18T10:44:55Z</time>
      </trkpt>
      <trkpt lat="45.67151" lon="5.22591">
        <ele>323.8</ele>
        <time>2025-05-18T10:44:56Z</time>
      </trkpt>
      <trkpt lat="45.67148" lon="5.22588">
        <ele>323</ele>
        <time>2025-05-18T10:44:57Z</time>
      </trkpt>
      <trkpt lat="45.67144" lon="5.22587">
        <ele>323</ele>
        <time>2025-05-18T10:44:58Z</time>
      </trkpt>
      <trkpt lat="45.6714" lon="5.22585">
        <ele>322.8</ele>
        <time>2025-05-18T10:44:59Z</time>
      </trkpt>
      <trkpt lat="45.67139" lon="5.22584">
        <ele>322.8</ele>
        <time>2025-05-18T10:45:00Z</time>
      </trkpt>
      <trkpt lat="45.67138" lon="5.22583">
        <ele>322.8</ele>
        <time>2025-05-18T10:45:01Z</time>
      </trkpt>
      <trkpt lat="45.67136" lon="5.22583">
        <ele>322.6</ele>
        <time>2025-05-18T10:45:02Z</time>
      </trkpt>
      <trkpt lat="45.67134" lon="5.22583">
        <ele>322.2</ele>
        <time>2025-05-18T10:45:03Z</time>
      </trkpt>
      <trkpt lat="45.67133" lon="5.22583">
        <ele>322.2</ele>
        <time>2025-05-18T10:45:04Z</time>
      </trkpt>
      <trkpt lat="45.67133" lon="5.22583">
        <ele>322</ele>
        <time>2025-05-18T10:45:05Z</time>
      </trkpt>
      <trkpt lat="45.67131" lon="5.22583">
        <ele>322.2</ele>
        <time>2025-05-18T10:45:10Z</time>
      </trkpt>
      <trkpt lat="45.67129" lon="5.22583">
        <ele>322.2</ele>
        <time>2025-05-18T10:45:11Z</time>
      </trkpt>
      <trkpt lat="45.67126" lon="5.22583">
        <ele>322.2</ele>
        <time>2025-05-18T10:45:12Z</time>
      </trkpt>
      <trkpt lat="45.67123" lon="5.22584">
        <ele>321.4</ele>
        <time>2025-05-18T10:45:13Z</time>
      </trkpt>
      <trkpt lat="45.6712" lon="5.22583">
        <ele>321.2</ele>
        <time>2025-05-18T10:45:14Z</time>
      </trkpt>
      <trkpt lat="45.67117" lon="5.22582">
        <ele>320.4</ele>
        <time>2025-05-18T10:45:15Z</time>
      </trkpt>
      <trkpt lat="45.6711" lon="5.2258">
        <ele>318.4</ele>
        <time>2025-05-18T10:45:16Z</time>
      </trkpt>
      <trkpt lat="45.67107" lon="5.22579">
        <ele>318.4</ele>
        <time>2025-05-18T10:45:17Z</time>
      </trkpt>
      <trkpt lat="45.67103" lon="5.2258">
        <ele>318</ele>
        <time>2025-05-18T10:45:18Z</time>
      </trkpt>
      <trkpt lat="45.67099" lon="5.22579">
        <ele>318.4</ele>
        <time>2025-05-18T10:45:19Z</time>
      </trkpt>
      <trkpt lat="45.67099" lon="5.22578">
        <ele>318.2</ele>
        <time>2025-05-18T10:45:20Z</time>
      </trkpt>
      <trkpt lat="45.67095" lon="5.2258">
        <ele>318.2</ele>
        <time>2025-05-18T10:45:21Z</time>
      </trkpt>
      <trkpt lat="45.67092" lon="5.22581">
        <ele>317.8</ele>
        <time>2025-05-18T10:45:22Z</time>
      </trkpt>
      <trkpt lat="45.67089" lon="5.22582">
        <ele>317.4</ele>
        <time>2025-05-18T10:45:23Z</time>
      </trkpt>
      <trkpt lat="45.67086" lon="5.22585">
        <ele>316.8</ele>
        <time>2025-05-18T10:45:24Z</time>
      </trkpt>
      <trkpt lat="45.67084" lon="5.22585">
        <ele>315.8</ele>
        <time>2025-05-18T10:45:25Z</time>
      </trkpt>
      <trkpt lat="45.67081" lon="5.22586">
        <ele>315</ele>
        <time>2025-05-18T10:45:26Z</time>
      </trkpt>
      <trkpt lat="45.67079" lon="5.22589">
        <ele>314.4</ele>
        <time>2025-05-18T10:45:27Z</time>
      </trkpt>
      <trkpt lat="45.67076" lon="5.22591">
        <ele>314</ele>
        <time>2025-05-18T10:45:28Z</time>
      </trkpt>
      <trkpt lat="45.67073" lon="5.22593">
        <ele>313</ele>
        <time>2025-05-18T10:45:29Z</time>
      </trkpt>
      <trkpt lat="45.67071" lon="5.22595">
        <ele>313</ele>
        <time>2025-05-18T10:45:30Z</time>
      </trkpt>
      <trkpt lat="45.67069" lon="5.22596">
        <ele>312.8</ele>
        <time>2025-05-18T10:45:31Z</time>
      </trkpt>
      <trkpt lat="45.67068" lon="5.22598">
        <ele>312.8</ele>
        <time>2025-05-18T10:45:32Z</time>
      </trkpt>
      <trkpt lat="45.67067" lon="5.22599">
        <ele>312.4</ele>
        <time>2025-05-18T10:45:33Z</time>
      </trkpt>
      <trkpt lat="45.67066" lon="5.226">
        <ele>312</ele>
        <time>2025-05-18T10:45:34Z</time>
      </trkpt>
      <trkpt lat="45.67065" lon="5.22602">
        <ele>312</ele>
        <time>2025-05-18T10:45:35Z</time>
      </trkpt>
      <trkpt lat="45.67063" lon="5.22604">
        <ele>311.6</ele>
        <time>2025-05-18T10:45:36Z</time>
      </trkpt>
      <trkpt lat="45.6706" lon="5.22606">
        <ele>311.2</ele>
        <time>2025-05-18T10:45:37Z</time>
      </trkpt>
      <trkpt lat="45.67058" lon="5.22608">
        <ele>311</ele>
        <time>2025-05-18T10:45:38Z</time>
      </trkpt>
      <trkpt lat="45.67057" lon="5.22609">
        <ele>311</ele>
        <time>2025-05-18T10:45:39Z</time>
      </trkpt>
      <trkpt lat="45.67057" lon="5.22611">
        <ele>311</ele>
        <time>2025-05-18T10:45:40Z</time>
      </trkpt>
      <trkpt lat="45.67056" lon="5.22613">
        <ele>310.6</ele>
        <time>2025-05-18T10:45:41Z</time>
      </trkpt>
      <trkpt lat="45.67056" lon="5.22614">
        <ele>310.6</ele>
        <time>2025-05-18T10:45:42Z</time>
      </trkpt>
      <trkpt lat="45.67055" lon="5.22615">
        <ele>310.2</ele>
        <time>2025-05-18T10:45:43Z</time>
      </trkpt>
      <trkpt lat="45.67052" lon="5.22614">
        <ele>310.2</ele>
        <time>2025-05-18T10:45:44Z</time>
      </trkpt>
      <trkpt lat="45.6705" lon="5.22612">
        <ele>310.2</ele>
        <time>2025-05-18T10:45:45Z</time>
      </trkpt>
      <trkpt lat="45.67049" lon="5.2261">
        <ele>310</ele>
        <time>2025-05-18T10:45:46Z</time>
      </trkpt>
      <trkpt lat="45.67049" lon="5.22607">
        <ele>309.6</ele>
        <time>2025-05-18T10:45:47Z</time>
      </trkpt>
      <trkpt lat="45.6705" lon="5.22602">
        <ele>309.6</ele>
        <time>2025-05-18T10:45:48Z</time>
      </trkpt>
      <trkpt lat="45.67052" lon="5.22594">
        <ele>309.8</ele>
        <time>2025-05-18T10:45:49Z</time>
      </trkpt>
      <trkpt lat="45.67053" lon="5.22587">
        <ele>309.2</ele>
        <time>2025-05-18T10:45:50Z</time>
      </trkpt>
      <trkpt lat="45.67053" lon="5.22581">
        <ele>307.8</ele>
        <time>2025-05-18T10:45:51Z</time>
      </trkpt>
      <trkpt lat="45.67053" lon="5.22574">
        <ele>306.6</ele>
        <time>2025-05-18T10:45:52Z</time>
      </trkpt>
      <trkpt lat="45.67053" lon="5.22567">
        <ele>306</ele>
        <time>2025-05-18T10:45:53Z</time>
      </trkpt>
      <trkpt lat="45.67052" lon="5.22561">
        <ele>305</ele>
        <time>2025-05-18T10:45:54Z</time>
      </trkpt>
      <trkpt lat="45.67052" lon="5.22553">
        <ele>304.6</ele>
        <time>2025-05-18T10:45:55Z</time>
      </trkpt>
      <trkpt lat="45.6705" lon="5.22547">
        <ele>303.4</ele>
        <time>2025-05-18T10:45:56Z</time>
      </trkpt>
      <trkpt lat="45.67049" lon="5.22542">
        <ele>302.8</ele>
        <time>2025-05-18T10:45:57Z</time>
      </trkpt>
      <trkpt lat="45.67047" lon="5.22536">
        <ele>302.2</ele>
        <time>2025-05-18T10:45:58Z</time>
      </trkpt>
      <trkpt lat="45.67047" lon="5.22532">
        <ele>301.2</ele>
        <time>2025-05-18T10:45:59Z</time>
      </trkpt>
      <trkpt lat="45.67044" lon="5.22527">
        <ele>300.6</ele>
        <time>2025-05-18T10:46:00Z</time>
      </trkpt>
      <trkpt lat="45.67043" lon="5.22522">
        <ele>299.2</ele>
        <time>2025-05-18T10:46:01Z</time>
      </trkpt>
      <trkpt lat="45.67041" lon="5.22517">
        <ele>298.8</ele>
        <time>2025-05-18T10:46:02Z</time>
      </trkpt>
      <trkpt lat="45.67041" lon="5.22514">
        <ele>297.8</ele>
        <time>2025-05-18T10:46:03Z</time>
      </trkpt>
      <trkpt lat="45.6704" lon="5.22509">
        <ele>296.8</ele>
        <time>2025-05-18T10:46:04Z</time>
      </trkpt>
      <trkpt lat="45.6704" lon="5.22504">
        <ele>296</ele>
        <time>2025-05-18T10:46:05Z</time>
      </trkpt>
      <trkpt lat="45.67038" lon="5.225">
        <ele>295.2</ele>
        <time>2025-05-18T10:46:06Z</time>
      </trkpt>
      <trkpt lat="45.67037" lon="5.22495">
        <ele>294.2</ele>
        <time>2025-05-18T10:46:07Z</time>
      </trkpt>
      <trkpt lat="45.67036" lon="5.2249">
        <ele>293.4</ele>
        <time>2025-05-18T10:46:08Z</time>
      </trkpt>
      <trkpt lat="45.67035" lon="5.22483">
        <ele>292.2</ele>
        <time>2025-05-18T10:46:09Z</time>
      </trkpt>
      <trkpt lat="45.67033" lon="5.22476">
        <ele>292.2</ele>
        <time>2025-05-18T10:46:10Z</time>
      </trkpt>
      <trkpt lat="45.67031" lon="5.2247">
        <ele>290.4</ele>
        <time>2025-05-18T10:46:11Z</time>
      </trkpt>
      <trkpt lat="45.67029" lon="5.22465">
        <ele>289.8</ele>
        <time>2025-05-18T10:46:12Z</time>
      </trkpt>
      <trkpt lat="45.67025" lon="5.2246">
        <ele>288.8</ele>
        <time>2025-05-18T10:46:13Z</time>
      </trkpt>
      <trkpt lat="45.67021" lon="5.22456">
        <ele>288.4</ele>
        <time>2025-05-18T10:46:14Z</time>
      </trkpt>
      <trkpt lat="45.67016" lon="5.22451">
        <ele>286.6</ele>
        <time>2025-05-18T10:46:15Z</time>
      </trkpt>
      <trkpt lat="45.67012" lon="5.22445">
        <ele>286.2</ele>
        <time>2025-05-18T10:46:16Z</time>
      </trkpt>
      <trkpt lat="45.67007" lon="5.22441">
        <ele>286</ele>
        <time>2025-05-18T10:46:17Z</time>
      </trkpt>
      <trkpt lat="45.67003" lon="5.22437">
        <ele>286</ele>
        <time>2025-05-18T10:46:18Z</time>
      </trkpt>
      <trkpt lat="45.67" lon="5.22432">
        <ele>286.2</ele>
        <time>2025-05-18T10:46:19Z</time>
      </trkpt>
      <trkpt lat="45.66996" lon="5.2243">
        <ele>286.2</ele>
        <time>2025-05-18T10:46:20Z</time>
      </trkpt>
      <trkpt lat="45.66994" lon="5.22426">
        <ele>286.6</ele>
        <time>2025-05-18T10:46:21Z</time>
      </trkpt>
      <trkpt lat="45.66992" lon="5.22423">
        <ele>286.6</ele>
        <time>2025-05-18T10:46:22Z</time>
      </trkpt>
      <trkpt lat="45.66991" lon="5.2242">
        <ele>286.8</ele>
        <time>2025-05-18T10:46:23Z</time>
      </trkpt>
      <trkpt lat="45.66991" lon="5.2242">
        <ele>286.8</ele>
        <time>2025-05-18T10:46:24Z</time>
      </trkpt>
      <trkpt lat="45.66991" lon="5.2242">
        <ele>287</ele>
        <time>2025-05-18T10:46:25Z</time>
      </trkpt>
      <trkpt lat="45.66991" lon="5.2242">
        <ele>287</ele>
        <time>2025-05-18T10:46:26Z</time>
      </trkpt>
      <trkpt lat="45.66991" lon="5.22421">
        <ele>287</ele>
        <time>2025-05-18T10:46:27Z</time>
      </trkpt>
      <trkpt lat="45.66991" lon="5.22416">
        <ele>287</ele>
        <time>2025-05-18T10:46:32Z</time>
      </trkpt>
      <trkpt lat="45.66992" lon="5.22413">
        <ele>286.6</ele>
        <time>2025-05-18T10:46:33Z</time>
      </trkpt>
      <trkpt lat="45.66994" lon="5.2241">
        <ele>286.6</ele>
        <time>2025-05-18T10:46:34Z</time>
      </trkpt>
      <trkpt lat="45.66996" lon="5.22406">
        <ele>286.2</ele>
        <time>2025-05-18T10:46:35Z</time>
      </trkpt>
      <trkpt lat="45.66998" lon="5.22402">
        <ele>286.2</ele>
        <time>2025-05-18T10:46:36Z</time>
      </trkpt>
      <trkpt lat="45.67001" lon="5.22398">
        <ele>286</ele>
        <time>2025-05-18T10:46:37Z</time>
      </trkpt>
      <trkpt lat="45.67003" lon="5.22393">
        <ele>286</ele>
        <time>2025-05-18T10:46:38Z</time>
      </trkpt>
      <trkpt lat="45.67006" lon="5.22387">
        <ele>285.6</ele>
        <time>2025-05-18T10:46:39Z</time>
      </trkpt>
      <trkpt lat="45.67009" lon="5.22382">
        <ele>285.6</ele>
        <time>2025-05-18T10:46:40Z</time>
      </trkpt>
      <trkpt lat="45.67011" lon="5.22377">
        <ele>285.6</ele>
        <time>2025-05-18T10:46:41Z</time>
      </trkpt>
      <trkpt lat="45.67014" lon="5.22372">
        <ele>285.6</ele>
        <time>2025-05-18T10:46:42Z</time>
      </trkpt>
      <trkpt lat="45.67017" lon="5.22366">
        <ele>285.2</ele>
        <time>2025-05-18T10:46:43Z</time>
      </trkpt>
      <trkpt lat="45.6702" lon="5.22361">
        <ele>285.2</ele>
        <time>2025-05-18T10:46:44Z</time>
      </trkpt>
      <trkpt lat="45.67023" lon="5.22354">
        <ele>284.8</ele>
        <time>2025-05-18T10:46:45Z</time>
      </trkpt>
      <trkpt lat="45.67026" lon="5.22348">
        <ele>284.8</ele>
        <time>2025-05-18T10:46:46Z</time>
      </trkpt>
      <trkpt lat="45.67028" lon="5.2234">
        <ele>284.8</ele>
        <time>2025-05-18T10:46:47Z</time>
      </trkpt>
      <trkpt lat="45.67032" lon="5.22333">
        <ele>284.6</ele>
        <time>2025-05-18T10:46:48Z</time>
      </trkpt>
      <trkpt lat="45.67034" lon="5.22325">
        <ele>283.6</ele>
        <time>2025-05-18T10:46:49Z</time>
      </trkpt>
      <trkpt lat="45.67036" lon="5.22317">
        <ele>283.2</ele>
        <time>2025-05-18T10:46:50Z</time>
      </trkpt>
      <trkpt lat="45.67038" lon="5.22309">
        <ele>282.6</ele>
        <time>2025-05-18T10:46:51Z</time>
      </trkpt>
      <trkpt lat="45.6704" lon="5.22301">
        <ele>282.6</ele>
        <time>2025-05-18T10:46:52Z</time>
      </trkpt>
      <trkpt lat="45.67042" lon="5.22293">
        <ele>282.2</ele>
        <time>2025-05-18T10:46:53Z</time>
      </trkpt>
      <trkpt lat="45.67044" lon="5.22285">
        <ele>281.8</ele>
        <time>2025-05-18T10:46:54Z</time>
      </trkpt>
      <trkpt lat="45.67046" lon="5.22277">
        <ele>282.4</ele>
        <time>2025-05-18T10:46:55Z</time>
      </trkpt>
      <trkpt lat="45.67047" lon="5.22269">
        <ele>282.4</ele>
        <time>2025-05-18T10:46:56Z</time>
      </trkpt>
      <trkpt lat="45.67049" lon="5.22261">
        <ele>282.6</ele>
        <time>2025-05-18T10:46:57Z</time>
      </trkpt>
      <trkpt lat="45.6705" lon="5.22253">
        <ele>282.6</ele>
        <time>2025-05-18T10:46:58Z</time>
      </trkpt>
      <trkpt lat="45.6705" lon="5.22245">
        <ele>281.8</ele>
        <time>2025-05-18T10:46:59Z</time>
      </trkpt>
      <trkpt lat="45.6705" lon="5.22237">
        <ele>282.6</ele>
        <time>2025-05-18T10:47:00Z</time>
      </trkpt>
      <trkpt lat="45.6705" lon="5.22228">
        <ele>282.6</ele>
        <time>2025-05-18T10:47:01Z</time>
      </trkpt>
      <trkpt lat="45.6705" lon="5.2222">
        <ele>282.2</ele>
        <time>2025-05-18T10:47:02Z</time>
      </trkpt>
      <trkpt lat="45.67051" lon="5.22212">
        <ele>282.2</ele>
        <time>2025-05-18T10:47:03Z</time>
      </trkpt>
      <trkpt lat="45.67051" lon="5.22212">
        <ele>282.2</ele>
        <time>2025-05-18T10:47:04Z</time>
      </trkpt>
      <trkpt lat="45.67052" lon="5.22203">
        <ele>281.8</ele>
        <time>2025-05-18T10:47:05Z</time>
      </trkpt>
      <trkpt lat="45.67053" lon="5.22196">
        <ele>281.8</ele>
        <time>2025-05-18T10:47:06Z</time>
      </trkpt>
      <trkpt lat="45.67055" lon="5.22188">
        <ele>281.8</ele>
        <time>2025-05-18T10:47:07Z</time>
      </trkpt>
      <trkpt lat="45.67057" lon="5.22181">
        <ele>281.8</ele>
        <time>2025-05-18T10:47:08Z</time>
      </trkpt>
      <trkpt lat="45.67059" lon="5.22174">
        <ele>281.8</ele>
        <time>2025-05-18T10:47:09Z</time>
      </trkpt>
      <trkpt lat="45.67062" lon="5.22167">
        <ele>281.8</ele>
        <time>2025-05-18T10:47:10Z</time>
      </trkpt>
      <trkpt lat="45.67065" lon="5.22161">
        <ele>281.8</ele>
        <time>2025-05-18T10:47:11Z</time>
      </trkpt>
      <trkpt lat="45.67068" lon="5.22155">
        <ele>282</ele>
        <time>2025-05-18T10:47:12Z</time>
      </trkpt>
      <trkpt lat="45.6707" lon="5.2215">
        <ele>282</ele>
        <time>2025-05-18T10:47:13Z</time>
      </trkpt>
      <trkpt lat="45.67073" lon="5.22145">
        <ele>282</ele>
        <time>2025-05-18T10:47:14Z</time>
      </trkpt>
      <trkpt lat="45.67077" lon="5.2214">
        <ele>282</ele>
        <time>2025-05-18T10:47:15Z</time>
      </trkpt>
      <trkpt lat="45.67081" lon="5.22136">
        <ele>281.8</ele>
        <time>2025-05-18T10:47:16Z</time>
      </trkpt>
      <trkpt lat="45.67084" lon="5.2213">
        <ele>281.6</ele>
        <time>2025-05-18T10:47:17Z</time>
      </trkpt>
      <trkpt lat="45.67087" lon="5.22124">
        <ele>281.2</ele>
        <time>2025-05-18T10:47:18Z</time>
      </trkpt>
      <trkpt lat="45.6709" lon="5.22118">
        <ele>281.2</ele>
        <time>2025-05-18T10:47:19Z</time>
      </trkpt>
      <trkpt lat="45.67093" lon="5.22112">
        <ele>280.4</ele>
        <time>2025-05-18T10:47:20Z</time>
      </trkpt>
      <trkpt lat="45.67096" lon="5.22105">
        <ele>280</ele>
        <time>2025-05-18T10:47:21Z</time>
      </trkpt>
      <trkpt lat="45.67099" lon="5.22098">
        <ele>279.8</ele>
        <time>2025-05-18T10:47:22Z</time>
      </trkpt>
      <trkpt lat="45.67102" lon="5.22091">
        <ele>279.6</ele>
        <time>2025-05-18T10:47:23Z</time>
      </trkpt>
      <trkpt lat="45.67104" lon="5.22084">
        <ele>279.2</ele>
        <time>2025-05-18T10:47:24Z</time>
      </trkpt>
      <trkpt lat="45.67108" lon="5.22077">
        <ele>278.8</ele>
        <time>2025-05-18T10:47:25Z</time>
      </trkpt>
      <trkpt lat="45.67109" lon="5.22072">
        <ele>278.8</ele>
        <time>2025-05-18T10:47:26Z</time>
      </trkpt>
      <trkpt lat="45.6711" lon="5.22065">
        <ele>278.6</ele>
        <time>2025-05-18T10:47:27Z</time>
      </trkpt>
      <trkpt lat="45.67111" lon="5.22061">
        <ele>278.6</ele>
        <time>2025-05-18T10:47:28Z</time>
      </trkpt>
      <trkpt lat="45.67113" lon="5.22058">
        <ele>278.6</ele>
        <time>2025-05-18T10:47:29Z</time>
      </trkpt>
      <trkpt lat="45.67114" lon="5.22054">
        <ele>278.2</ele>
        <time>2025-05-18T10:47:30Z</time>
      </trkpt>
      <trkpt lat="45.67116" lon="5.22049">
        <ele>278.2</ele>
        <time>2025-05-18T10:47:31Z</time>
      </trkpt>
      <trkpt lat="45.67118" lon="5.22045">
        <ele>277.8</ele>
        <time>2025-05-18T10:47:32Z</time>
      </trkpt>
      <trkpt lat="45.67119" lon="5.22038">
        <ele>277.8</ele>
        <time>2025-05-18T10:47:33Z</time>
      </trkpt>
      <trkpt lat="45.67122" lon="5.22029">
        <ele>277.2</ele>
        <time>2025-05-18T10:47:34Z</time>
      </trkpt>
      <trkpt lat="45.67124" lon="5.22022">
        <ele>276.8</ele>
        <time>2025-05-18T10:47:35Z</time>
      </trkpt>
      <trkpt lat="45.67125" lon="5.22015">
        <ele>276.2</ele>
        <time>2025-05-18T10:47:36Z</time>
      </trkpt>
      <trkpt lat="45.67127" lon="5.22008">
        <ele>276</ele>
        <time>2025-05-18T10:47:37Z</time>
      </trkpt>
      <trkpt lat="45.67129" lon="5.22002">
        <ele>276</ele>
        <time>2025-05-18T10:47:38Z</time>
      </trkpt>
      <trkpt lat="45.67129" lon="5.21996">
        <ele>275.4</ele>
        <time>2025-05-18T10:47:39Z</time>
      </trkpt>
      <trkpt lat="45.6713" lon="5.21991">
        <ele>275</ele>
        <time>2025-05-18T10:47:40Z</time>
      </trkpt>
      <trkpt lat="45.67128" lon="5.21985">
        <ele>275</ele>
        <time>2025-05-18T10:47:41Z</time>
      </trkpt>
      <trkpt lat="45.67127" lon="5.21979">
        <ele>274.8</ele>
        <time>2025-05-18T10:47:42Z</time>
      </trkpt>
      <trkpt lat="45.67126" lon="5.21977">
        <ele>274.8</ele>
        <time>2025-05-18T10:47:43Z</time>
      </trkpt>
      <trkpt lat="45.67125" lon="5.21975">
        <ele>275.2</ele>
        <time>2025-05-18T10:47:44Z</time>
      </trkpt>
      <trkpt lat="45.67124" lon="5.21972">
        <ele>275.4</ele>
        <time>2025-05-18T10:47:45Z</time>
      </trkpt>
      <trkpt lat="45.67123" lon="5.2197">
        <ele>275.4</ele>
        <time>2025-05-18T10:47:46Z</time>
      </trkpt>
      <trkpt lat="45.67121" lon="5.21968">
        <ele>275.6</ele>
        <time>2025-05-18T10:47:47Z</time>
      </trkpt>
      <trkpt lat="45.67121" lon="5.21965">
        <ele>276</ele>
        <time>2025-05-18T10:47:48Z</time>
      </trkpt>
      <trkpt lat="45.6712" lon="5.21962">
        <ele>276.4</ele>
        <time>2025-05-18T10:47:49Z</time>
      </trkpt>
      <trkpt lat="45.67118" lon="5.21959">
        <ele>276.4</ele>
        <time>2025-05-18T10:47:50Z</time>
      </trkpt>
      <trkpt lat="45.67116" lon="5.21957">
        <ele>276.4</ele>
        <time>2025-05-18T10:47:51Z</time>
      </trkpt>
      <trkpt lat="45.67115" lon="5.21955">
        <ele>276</ele>
        <time>2025-05-18T10:47:52Z</time>
      </trkpt>
      <trkpt lat="45.67113" lon="5.21953">
        <ele>276.4</ele>
        <time>2025-05-18T10:47:53Z</time>
      </trkpt>
      <trkpt lat="45.67111" lon="5.21951">
        <ele>276.8</ele>
        <time>2025-05-18T10:47:54Z</time>
      </trkpt>
      <trkpt lat="45.67109" lon="5.21949">
        <ele>277</ele>
        <time>2025-05-18T10:47:55Z</time>
      </trkpt>
      <trkpt lat="45.67106" lon="5.21948">
        <ele>277</ele>
        <time>2025-05-18T10:47:56Z</time>
      </trkpt>
      <trkpt lat="45.67103" lon="5.21946">
        <ele>277.2</ele>
        <time>2025-05-18T10:47:57Z</time>
      </trkpt>
      <trkpt lat="45.671" lon="5.21944">
        <ele>277.6</ele>
        <time>2025-05-18T10:47:58Z</time>
      </trkpt>
      <trkpt lat="45.67097" lon="5.21942">
        <ele>277.6</ele>
        <time>2025-05-18T10:47:59Z</time>
      </trkpt>
      <trkpt lat="45.67095" lon="5.2194">
        <ele>277.8</ele>
        <time>2025-05-18T10:48:00Z</time>
      </trkpt>
      <trkpt lat="45.67092" lon="5.21939">
        <ele>277.8</ele>
        <time>2025-05-18T10:48:01Z</time>
      </trkpt>
      <trkpt lat="45.6709" lon="5.21937">
        <ele>278</ele>
        <time>2025-05-18T10:48:02Z</time>
      </trkpt>
      <trkpt lat="45.67088" lon="5.21935">
        <ele>278.6</ele>
        <time>2025-05-18T10:48:03Z</time>
      </trkpt>
      <trkpt lat="45.67086" lon="5.21933">
        <ele>277.8</ele>
        <time>2025-05-18T10:48:04Z</time>
      </trkpt>
      <trkpt lat="45.67084" lon="5.21931">
        <ele>278.6</ele>
        <time>2025-05-18T10:48:05Z</time>
      </trkpt>
      <trkpt lat="45.67083" lon="5.21929">
        <ele>279</ele>
        <time>2025-05-18T10:48:06Z</time>
      </trkpt>
      <trkpt lat="45.67082" lon="5.21928">
        <ele>279</ele>
        <time>2025-05-18T10:48:07Z</time>
      </trkpt>
      <trkpt lat="45.67081" lon="5.21927">
        <ele>279.6</ele>
        <time>2025-05-18T10:48:08Z</time>
      </trkpt>
      <trkpt lat="45.6708" lon="5.21925">
        <ele>279.8</ele>
        <time>2025-05-18T10:48:09Z</time>
      </trkpt>
      <trkpt lat="45.67078" lon="5.21923">
        <ele>280</ele>
        <time>2025-05-18T10:48:10Z</time>
      </trkpt>
      <trkpt lat="45.67076" lon="5.21921">
        <ele>280.2</ele>
        <time>2025-05-18T10:48:11Z</time>
      </trkpt>
      <trkpt lat="45.67074" lon="5.21919">
        <ele>280.6</ele>
        <time>2025-05-18T10:48:12Z</time>
      </trkpt>
      <trkpt lat="45.67072" lon="5.21917">
        <ele>280.8</ele>
        <time>2025-05-18T10:48:13Z</time>
      </trkpt>
      <trkpt lat="45.6707" lon="5.21915">
        <ele>281.2</ele>
        <time>2025-05-18T10:48:14Z</time>
      </trkpt>
      <trkpt lat="45.67069" lon="5.21914">
        <ele>281.6</ele>
        <time>2025-05-18T10:48:15Z</time>
      </trkpt>
      <trkpt lat="45.67069" lon="5.21914">
        <ele>282</ele>
        <time>2025-05-18T10:48:16Z</time>
      </trkpt>
      <trkpt lat="45.67067" lon="5.21913">
        <ele>282.2</ele>
        <time>2025-05-18T10:48:17Z</time>
      </trkpt>
      <trkpt lat="45.67066" lon="5.21911">
        <ele>282.6</ele>
        <time>2025-05-18T10:48:18Z</time>
      </trkpt>
      <trkpt lat="45.67064" lon="5.21909">
        <ele>282.6</ele>
        <time>2025-05-18T10:48:19Z</time>
      </trkpt>
      <trkpt lat="45.67063" lon="5.21907">
        <ele>283</ele>
        <time>2025-05-18T10:48:20Z</time>
      </trkpt>
      <trkpt lat="45.67062" lon="5.21906">
        <ele>283.2</ele>
        <time>2025-05-18T10:48:21Z</time>
      </trkpt>
      <trkpt lat="45.6706" lon="5.21904">
        <ele>283.4</ele>
        <time>2025-05-18T10:48:22Z</time>
      </trkpt>
      <trkpt lat="45.67059" lon="5.21902">
        <ele>283.4</ele>
        <time>2025-05-18T10:48:23Z</time>
      </trkpt>
      <trkpt lat="45.67058" lon="5.21901">
        <ele>283.6</ele>
        <time>2025-05-18T10:48:24Z</time>
      </trkpt>
      <trkpt lat="45.67056" lon="5.21899">
        <ele>284</ele>
        <time>2025-05-18T10:48:25Z</time>
      </trkpt>
      <trkpt lat="45.67055" lon="5.21898">
        <ele>284.2</ele>
        <time>2025-05-18T10:48:26Z</time>
      </trkpt>
      <trkpt lat="45.67054" lon="5.21897">
        <ele>284.2</ele>
        <time>2025-05-18T10:48:27Z</time>
      </trkpt>
      <trkpt lat="45.67053" lon="5.21896">
        <ele>284.6</ele>
        <time>2025-05-18T10:48:28Z</time>
      </trkpt>
      <trkpt lat="45.67051" lon="5.21895">
        <ele>284.6</ele>
        <time>2025-05-18T10:48:29Z</time>
      </trkpt>
      <trkpt lat="45.6705" lon="5.21893">
        <ele>284.8</ele>
        <time>2025-05-18T10:48:30Z</time>
      </trkpt>
      <trkpt lat="45.67049" lon="5.21892">
        <ele>285.2</ele>
        <time>2025-05-18T10:48:31Z</time>
      </trkpt>
      <trkpt lat="45.67047" lon="5.21891">
        <ele>285.4</ele>
        <time>2025-05-18T10:48:32Z</time>
      </trkpt>
      <trkpt lat="45.67046" lon="5.2189">
        <ele>285.6</ele>
        <time>2025-05-18T10:48:33Z</time>
      </trkpt>
      <trkpt lat="45.67044" lon="5.2189">
        <ele>285.8</ele>
        <time>2025-05-18T10:48:34Z</time>
      </trkpt>
      <trkpt lat="45.67043" lon="5.21889">
        <ele>285.8</ele>
        <time>2025-05-18T10:48:35Z</time>
      </trkpt>
      <trkpt lat="45.67042" lon="5.21888">
        <ele>286.4</ele>
        <time>2025-05-18T10:48:36Z</time>
      </trkpt>
      <trkpt lat="45.67041" lon="5.21887">
        <ele>286.4</ele>
        <time>2025-05-18T10:48:37Z</time>
      </trkpt>
      <trkpt lat="45.67039" lon="5.21886">
        <ele>287.4</ele>
        <time>2025-05-18T10:48:38Z</time>
      </trkpt>
      <trkpt lat="45.67038" lon="5.21884">
        <ele>287.4</ele>
        <time>2025-05-18T10:48:39Z</time>
      </trkpt>
      <trkpt lat="45.67036" lon="5.21884">
        <ele>287.6</ele>
        <time>2025-05-18T10:48:40Z</time>
      </trkpt>
      <trkpt lat="45.67035" lon="5.21883">
        <ele>287.6</ele>
        <time>2025-05-18T10:48:41Z</time>
      </trkpt>
      <trkpt lat="45.67034" lon="5.21883">
        <ele>288</ele>
        <time>2025-05-18T10:48:42Z</time>
      </trkpt>
      <trkpt lat="45.67033" lon="5.21882">
        <ele>288</ele>
        <time>2025-05-18T10:48:43Z</time>
      </trkpt>
      <trkpt lat="45.67032" lon="5.21881">
        <ele>287.8</ele>
        <time>2025-05-18T10:48:44Z</time>
      </trkpt>
      <trkpt lat="45.67031" lon="5.2188">
        <ele>288</ele>
        <time>2025-05-18T10:48:45Z</time>
      </trkpt>
      <trkpt lat="45.67029" lon="5.21879">
        <ele>288</ele>
        <time>2025-05-18T10:48:46Z</time>
      </trkpt>
      <trkpt lat="45.67027" lon="5.21878">
        <ele>288.4</ele>
        <time>2025-05-18T10:48:47Z</time>
      </trkpt>
      <trkpt lat="45.67023" lon="5.21877">
        <ele>288.4</ele>
        <time>2025-05-18T10:48:48Z</time>
      </trkpt>
      <trkpt lat="45.67022" lon="5.21877">
        <ele>288.6</ele>
        <time>2025-05-18T10:48:49Z</time>
      </trkpt>
      <trkpt lat="45.6702" lon="5.21878">
        <ele>288.6</ele>
        <time>2025-05-18T10:48:50Z</time>
      </trkpt>
      <trkpt lat="45.67018" lon="5.21878">
        <ele>288.6</ele>
        <time>2025-05-18T10:48:51Z</time>
      </trkpt>
      <trkpt lat="45.67016" lon="5.21877">
        <ele>288.8</ele>
        <time>2025-05-18T10:48:52Z</time>
      </trkpt>
      <trkpt lat="45.67014" lon="5.21877">
        <ele>289.2</ele>
        <time>2025-05-18T10:48:53Z</time>
      </trkpt>
      <trkpt lat="45.67011" lon="5.21877">
        <ele>289.2</ele>
        <time>2025-05-18T10:48:54Z</time>
      </trkpt>
      <trkpt lat="45.67009" lon="5.21877">
        <ele>289.2</ele>
        <time>2025-05-18T10:48:55Z</time>
      </trkpt>
      <trkpt lat="45.67007" lon="5.21878">
        <ele>289.6</ele>
        <time>2025-05-18T10:48:56Z</time>
      </trkpt>
      <trkpt lat="45.67004" lon="5.21878">
        <ele>289.6</ele>
        <time>2025-05-18T10:48:57Z</time>
      </trkpt>
      <trkpt lat="45.67002" lon="5.21879">
        <ele>289.8</ele>
        <time>2025-05-18T10:48:58Z</time>
      </trkpt>
      <trkpt lat="45.66999" lon="5.2188">
        <ele>289.8</ele>
        <time>2025-05-18T10:48:59Z</time>
      </trkpt>
      <trkpt lat="45.66997" lon="5.21881">
        <ele>289.6</ele>
        <time>2025-05-18T10:49:00Z</time>
      </trkpt>
      <trkpt lat="45.66995" lon="5.21882">
        <ele>289.6</ele>
        <time>2025-05-18T10:49:01Z</time>
      </trkpt>
      <trkpt lat="45.66993" lon="5.21883">
        <ele>289.8</ele>
        <time>2025-05-18T10:49:02Z</time>
      </trkpt>
      <trkpt lat="45.6699" lon="5.21884">
        <ele>289.8</ele>
        <time>2025-05-18T10:49:03Z</time>
      </trkpt>
      <trkpt lat="45.66988" lon="5.21884">
        <ele>289.8</ele>
        <time>2025-05-18T10:49:04Z</time>
      </trkpt>
      <trkpt lat="45.66985" lon="5.21884">
        <ele>289.8</ele>
        <time>2025-05-18T10:49:05Z</time>
      </trkpt>
      <trkpt lat="45.66982" lon="5.21884">
        <ele>290</ele>
        <time>2025-05-18T10:49:06Z</time>
      </trkpt>
      <trkpt lat="45.6698" lon="5.21884">
        <ele>290</ele>
        <time>2025-05-18T10:49:07Z</time>
      </trkpt>
      <trkpt lat="45.66978" lon="5.21883">
        <ele>290</ele>
        <time>2025-05-18T10:49:08Z</time>
      </trkpt>
      <trkpt lat="45.66978" lon="5.21883">
        <ele>290</ele>
        <time>2025-05-18T10:49:09Z</time>
      </trkpt>
      <trkpt lat="45.66978" lon="5.21883">
        <ele>290</ele>
        <time>2025-05-18T10:49:10Z</time>
      </trkpt>
      <trkpt lat="45.66978" lon="5.21883">
        <ele>290</ele>
        <time>2025-05-18T10:49:11Z</time>
      </trkpt>
      <trkpt lat="45.66977" lon="5.21885">
        <ele>290.6</ele>
        <time>2025-05-18T10:50:13Z</time>
      </trkpt>
      <trkpt lat="45.66975" lon="5.21883">
        <ele>290.2</ele>
        <time>2025-05-18T10:50:14Z</time>
      </trkpt>
      <trkpt lat="45.6697" lon="5.2188">
        <ele>290.2</ele>
        <time>2025-05-18T10:50:15Z</time>
      </trkpt>
      <trkpt lat="45.66967" lon="5.21877">
        <ele>290.6</ele>
        <time>2025-05-18T10:50:16Z</time>
      </trkpt>
      <trkpt lat="45.66965" lon="5.21875">
        <ele>290.6</ele>
        <time>2025-05-18T10:50:17Z</time>
      </trkpt>
      <trkpt lat="45.66962" lon="5.21873">
        <ele>290.2</ele>
        <time>2025-05-18T10:50:18Z</time>
      </trkpt>
      <trkpt lat="45.66959" lon="5.21871">
        <ele>289.2</ele>
        <time>2025-05-18T10:50:19Z</time>
      </trkpt>
      <trkpt lat="45.66957" lon="5.21869">
        <ele>288.8</ele>
        <time>2025-05-18T10:50:20Z</time>
      </trkpt>
      <trkpt lat="45.66955" lon="5.21868">
        <ele>288.6</ele>
        <time>2025-05-18T10:50:21Z</time>
      </trkpt>
      <trkpt lat="45.66954" lon="5.21866">
        <ele>288.6</ele>
        <time>2025-05-18T10:50:22Z</time>
      </trkpt>
      <trkpt lat="45.66952" lon="5.21865">
        <ele>288.6</ele>
        <time>2025-05-18T10:50:23Z</time>
      </trkpt>
      <trkpt lat="45.6695" lon="5.21863">
        <ele>288.6</ele>
        <time>2025-05-18T10:50:24Z</time>
      </trkpt>
      <trkpt lat="45.66949" lon="5.21862">
        <ele>288.8</ele>
        <time>2025-05-18T10:50:25Z</time>
      </trkpt>
      <trkpt lat="45.66946" lon="5.2186">
        <ele>288.8</ele>
        <time>2025-05-18T10:50:26Z</time>
      </trkpt>
      <trkpt lat="45.66944" lon="5.21857">
        <ele>288.8</ele>
        <time>2025-05-18T10:50:27Z</time>
      </trkpt>
      <trkpt lat="45.66942" lon="5.21855">
        <ele>288.8</ele>
        <time>2025-05-18T10:50:28Z</time>
      </trkpt>
      <trkpt lat="45.66941" lon="5.21853">
        <ele>288.8</ele>
        <time>2025-05-18T10:50:29Z</time>
      </trkpt>
      <trkpt lat="45.66939" lon="5.2185">
        <ele>288.8</ele>
        <time>2025-05-18T10:50:30Z</time>
      </trkpt>
      <trkpt lat="45.66937" lon="5.21848">
        <ele>288.8</ele>
        <time>2025-05-18T10:50:31Z</time>
      </trkpt>
      <trkpt lat="45.66935" lon="5.21846">
        <ele>288.8</ele>
        <time>2025-05-18T10:50:32Z</time>
      </trkpt>
      <trkpt lat="45.66933" lon="5.21843">
        <ele>288.8</ele>
        <time>2025-05-18T10:50:33Z</time>
      </trkpt>
      <trkpt lat="45.66931" lon="5.21841">
        <ele>289.4</ele>
        <time>2025-05-18T10:50:34Z</time>
      </trkpt>
      <trkpt lat="45.66929" lon="5.21839">
        <ele>289.4</ele>
        <time>2025-05-18T10:50:35Z</time>
      </trkpt>
      <trkpt lat="45.66928" lon="5.21836">
        <ele>289.6</ele>
        <time>2025-05-18T10:50:36Z</time>
      </trkpt>
      <trkpt lat="45.66926" lon="5.21835">
        <ele>290</ele>
        <time>2025-05-18T10:50:37Z</time>
      </trkpt>
      <trkpt lat="45.66924" lon="5.21833">
        <ele>290</ele>
        <time>2025-05-18T10:50:38Z</time>
      </trkpt>
      <trkpt lat="45.66923" lon="5.21831">
        <ele>290.6</ele>
        <time>2025-05-18T10:50:39Z</time>
      </trkpt>
      <trkpt lat="45.66921" lon="5.21829">
        <ele>290.6</ele>
        <time>2025-05-18T10:50:40Z</time>
      </trkpt>
      <trkpt lat="45.66919" lon="5.21828">
        <ele>291.2</ele>
        <time>2025-05-18T10:50:41Z</time>
      </trkpt>
      <trkpt lat="45.66918" lon="5.21826">
        <ele>291.6</ele>
        <time>2025-05-18T10:50:42Z</time>
      </trkpt>
      <trkpt lat="45.66916" lon="5.21825">
        <ele>292</ele>
        <time>2025-05-18T10:50:43Z</time>
      </trkpt>
      <trkpt lat="45.66914" lon="5.21824">
        <ele>292.4</ele>
        <time>2025-05-18T10:50:44Z</time>
      </trkpt>
      <trkpt lat="45.66913" lon="5.21823">
        <ele>292.6</ele>
        <time>2025-05-18T10:50:45Z</time>
      </trkpt>
      <trkpt lat="45.66911" lon="5.21823">
        <ele>293.2</ele>
        <time>2025-05-18T10:50:46Z</time>
      </trkpt>
      <trkpt lat="45.66909" lon="5.21825">
        <ele>293.4</ele>
        <time>2025-05-18T10:50:47Z</time>
      </trkpt>
      <trkpt lat="45.66907" lon="5.21826">
        <ele>293.4</ele>
        <time>2025-05-18T10:50:48Z</time>
      </trkpt>
      <trkpt lat="45.66906" lon="5.21827">
        <ele>294</ele>
        <time>2025-05-18T10:50:49Z</time>
      </trkpt>
      <trkpt lat="45.66904" lon="5.21828">
        <ele>294</ele>
        <time>2025-05-18T10:50:50Z</time>
      </trkpt>
      <trkpt lat="45.66902" lon="5.21829">
        <ele>294</ele>
        <time>2025-05-18T10:50:51Z</time>
      </trkpt>
      <trkpt lat="45.669" lon="5.21829">
        <ele>294</ele>
        <time>2025-05-18T10:50:52Z</time>
      </trkpt>
      <trkpt lat="45.66899" lon="5.21829">
        <ele>294.4</ele>
        <time>2025-05-18T10:50:53Z</time>
      </trkpt>
      <trkpt lat="45.66897" lon="5.2183">
        <ele>294.8</ele>
        <time>2025-05-18T10:50:54Z</time>
      </trkpt>
      <trkpt lat="45.66896" lon="5.2183">
        <ele>295.2</ele>
        <time>2025-05-18T10:50:55Z</time>
      </trkpt>
      <trkpt lat="45.66895" lon="5.21829">
        <ele>295.2</ele>
        <time>2025-05-18T10:50:56Z</time>
      </trkpt>
      <trkpt lat="45.66893" lon="5.21828">
        <ele>295.6</ele>
        <time>2025-05-18T10:50:57Z</time>
      </trkpt>
      <trkpt lat="45.66892" lon="5.21828">
        <ele>295.6</ele>
        <time>2025-05-18T10:50:58Z</time>
      </trkpt>
      <trkpt lat="45.6689" lon="5.21828">
        <ele>295.6</ele>
        <time>2025-05-18T10:50:59Z</time>
      </trkpt>
      <trkpt lat="45.66888" lon="5.21828">
        <ele>295.6</ele>
        <time>2025-05-18T10:51:00Z</time>
      </trkpt>
      <trkpt lat="45.66887" lon="5.21829">
        <ele>295.8</ele>
        <time>2025-05-18T10:51:01Z</time>
      </trkpt>
      <trkpt lat="45.66885" lon="5.2183">
        <ele>295.8</ele>
        <time>2025-05-18T10:51:02Z</time>
      </trkpt>
      <trkpt lat="45.66884" lon="5.21831">
        <ele>295.8</ele>
        <time>2025-05-18T10:51:03Z</time>
      </trkpt>
      <trkpt lat="45.66883" lon="5.21832">
        <ele>296.2</ele>
        <time>2025-05-18T10:51:04Z</time>
      </trkpt>
      <trkpt lat="45.66882" lon="5.21833">
        <ele>296.2</ele>
        <time>2025-05-18T10:51:05Z</time>
      </trkpt>
      <trkpt lat="45.66882" lon="5.21836">
        <ele>296.6</ele>
        <time>2025-05-18T10:51:06Z</time>
      </trkpt>
      <trkpt lat="45.6688" lon="5.21839">
        <ele>296.8</ele>
        <time>2025-05-18T10:51:07Z</time>
      </trkpt>
      <trkpt lat="45.66879" lon="5.21841">
        <ele>297.4</ele>
        <time>2025-05-18T10:51:08Z</time>
      </trkpt>
      <trkpt lat="45.66878" lon="5.21844">
        <ele>297.4</ele>
        <time>2025-05-18T10:51:09Z</time>
      </trkpt>
      <trkpt lat="45.66877" lon="5.21846">
        <ele>297.4</ele>
        <time>2025-05-18T10:51:10Z</time>
      </trkpt>
      <trkpt lat="45.66876" lon="5.21849">
        <ele>297.4</ele>
        <time>2025-05-18T10:51:11Z</time>
      </trkpt>
      <trkpt lat="45.66874" lon="5.21852">
        <ele>297.4</ele>
        <time>2025-05-18T10:51:12Z</time>
      </trkpt>
      <trkpt lat="45.66872" lon="5.21854">
        <ele>297.4</ele>
        <time>2025-05-18T10:51:13Z</time>
      </trkpt>
      <trkpt lat="45.6687" lon="5.21856">
        <ele>297.6</ele>
        <time>2025-05-18T10:51:14Z</time>
      </trkpt>
      <trkpt lat="45.66869" lon="5.21858">
        <ele>297.6</ele>
        <time>2025-05-18T10:51:15Z</time>
      </trkpt>
      <trkpt lat="45.66868" lon="5.2186">
        <ele>297.6</ele>
        <time>2025-05-18T10:51:16Z</time>
      </trkpt>
      <trkpt lat="45.66867" lon="5.21862">
        <ele>298</ele>
        <time>2025-05-18T10:51:17Z</time>
      </trkpt>
      <trkpt lat="45.66866" lon="5.21865">
        <ele>298.2</ele>
        <time>2025-05-18T10:51:18Z</time>
      </trkpt>
      <trkpt lat="45.66864" lon="5.21867">
        <ele>298.2</ele>
        <time>2025-05-18T10:51:19Z</time>
      </trkpt>
      <trkpt lat="45.66862" lon="5.2187">
        <ele>298.2</ele>
        <time>2025-05-18T10:51:20Z</time>
      </trkpt>
      <trkpt lat="45.6686" lon="5.21872">
        <ele>298.2</ele>
        <time>2025-05-18T10:51:21Z</time>
      </trkpt>
      <trkpt lat="45.66857" lon="5.21874">
        <ele>298.4</ele>
        <time>2025-05-18T10:51:22Z</time>
      </trkpt>
      <trkpt lat="45.66855" lon="5.21877">
        <ele>298.4</ele>
        <time>2025-05-18T10:51:23Z</time>
      </trkpt>
      <trkpt lat="45.66853" lon="5.2188">
        <ele>298.8</ele>
        <time>2025-05-18T10:51:24Z</time>
      </trkpt>
      <trkpt lat="45.66852" lon="5.21883">
        <ele>299.2</ele>
        <time>2025-05-18T10:51:25Z</time>
      </trkpt>
      <trkpt lat="45.66851" lon="5.21886">
        <ele>299.4</ele>
        <time>2025-05-18T10:51:26Z</time>
      </trkpt>
      <trkpt lat="45.66849" lon="5.21888">
        <ele>299.4</ele>
        <time>2025-05-18T10:51:27Z</time>
      </trkpt>
      <trkpt lat="45.66848" lon="5.21891">
        <ele>299.6</ele>
        <time>2025-05-18T10:51:28Z</time>
      </trkpt>
      <trkpt lat="45.66846" lon="5.21893">
        <ele>299.6</ele>
        <time>2025-05-18T10:51:29Z</time>
      </trkpt>
      <trkpt lat="45.66845" lon="5.21894">
        <ele>299.6</ele>
        <time>2025-05-18T10:51:30Z</time>
      </trkpt>
      <trkpt lat="45.66843" lon="5.21895">
        <ele>299.6</ele>
        <time>2025-05-18T10:51:31Z</time>
      </trkpt>
      <trkpt lat="45.66841" lon="5.21897">
        <ele>299.6</ele>
        <time>2025-05-18T10:51:32Z</time>
      </trkpt>
      <trkpt lat="45.6684" lon="5.21899">
        <ele>300</ele>
        <time>2025-05-18T10:51:33Z</time>
      </trkpt>
      <trkpt lat="45.66837" lon="5.21901">
        <ele>300</ele>
        <time>2025-05-18T10:51:34Z</time>
      </trkpt>
      <trkpt lat="45.66835" lon="5.21904">
        <ele>300.4</ele>
        <time>2025-05-18T10:51:35Z</time>
      </trkpt>
      <trkpt lat="45.66834" lon="5.21906">
        <ele>300.4</ele>
        <time>2025-05-18T10:51:36Z</time>
      </trkpt>
      <trkpt lat="45.66832" lon="5.21909">
        <ele>300.4</ele>
        <time>2025-05-18T10:51:37Z</time>
      </trkpt>
      <trkpt lat="45.6683" lon="5.21911">
        <ele>300.4</ele>
        <time>2025-05-18T10:51:38Z</time>
      </trkpt>
      <trkpt lat="45.66829" lon="5.21913">
        <ele>300.8</ele>
        <time>2025-05-18T10:51:39Z</time>
      </trkpt>
      <trkpt lat="45.66828" lon="5.21915">
        <ele>301</ele>
        <time>2025-05-18T10:51:40Z</time>
      </trkpt>
      <trkpt lat="45.66826" lon="5.21916">
        <ele>301.2</ele>
        <time>2025-05-18T10:51:41Z</time>
      </trkpt>
      <trkpt lat="45.66825" lon="5.21917">
        <ele>301.2</ele>
        <time>2025-05-18T10:51:42Z</time>
      </trkpt>
      <trkpt lat="45.66823" lon="5.21919">
        <ele>301.6</ele>
        <time>2025-05-18T10:51:43Z</time>
      </trkpt>
      <trkpt lat="45.66822" lon="5.2192">
        <ele>302.4</ele>
        <time>2025-05-18T10:51:44Z</time>
      </trkpt>
      <trkpt lat="45.66822" lon="5.21921">
        <ele>302.2</ele>
        <time>2025-05-18T10:51:45Z</time>
      </trkpt>
      <trkpt lat="45.66821" lon="5.21922">
        <ele>302.2</ele>
        <time>2025-05-18T10:51:46Z</time>
      </trkpt>
      <trkpt lat="45.6682" lon="5.21924">
        <ele>302.6</ele>
        <time>2025-05-18T10:51:47Z</time>
      </trkpt>
      <trkpt lat="45.66818" lon="5.21927">
        <ele>303.4</ele>
        <time>2025-05-18T10:51:48Z</time>
      </trkpt>
      <trkpt lat="45.66817" lon="5.21928">
        <ele>303.4</ele>
        <time>2025-05-18T10:51:49Z</time>
      </trkpt>
      <trkpt lat="45.66816" lon="5.2193">
        <ele>303.4</ele>
        <time>2025-05-18T10:51:50Z</time>
      </trkpt>
      <trkpt lat="45.66816" lon="5.21932">
        <ele>303.4</ele>
        <time>2025-05-18T10:51:51Z</time>
      </trkpt>
      <trkpt lat="45.66815" lon="5.21934">
        <ele>304</ele>
        <time>2025-05-18T10:51:52Z</time>
      </trkpt>
      <trkpt lat="45.66814" lon="5.21935">
        <ele>304</ele>
        <time>2025-05-18T10:51:53Z</time>
      </trkpt>
      <trkpt lat="45.66813" lon="5.21936">
        <ele>304</ele>
        <time>2025-05-18T10:51:54Z</time>
      </trkpt>
      <trkpt lat="45.66813" lon="5.21936">
        <ele>304</ele>
        <time>2025-05-18T10:51:55Z</time>
      </trkpt>
      <trkpt lat="45.66811" lon="5.21936">
        <ele>304.2</ele>
        <time>2025-05-18T10:51:56Z</time>
      </trkpt>
      <trkpt lat="45.66809" lon="5.21936">
        <ele>304.2</ele>
        <time>2025-05-18T10:51:57Z</time>
      </trkpt>
      <trkpt lat="45.66808" lon="5.21937">
        <ele>304.8</ele>
        <time>2025-05-18T10:51:58Z</time>
      </trkpt>
      <trkpt lat="45.66807" lon="5.21937">
        <ele>305.2</ele>
        <time>2025-05-18T10:51:59Z</time>
      </trkpt>
      <trkpt lat="45.66806" lon="5.21938">
        <ele>305.6</ele>
        <time>2025-05-18T10:52:00Z</time>
      </trkpt>
      <trkpt lat="45.66805" lon="5.21939">
        <ele>305.6</ele>
        <time>2025-05-18T10:52:01Z</time>
      </trkpt>
      <trkpt lat="45.66803" lon="5.21941">
        <ele>305.8</ele>
        <time>2025-05-18T10:52:02Z</time>
      </trkpt>
      <trkpt lat="45.66802" lon="5.21942">
        <ele>305.8</ele>
        <time>2025-05-18T10:52:03Z</time>
      </trkpt>
      <trkpt lat="45.66801" lon="5.21943">
        <ele>306.2</ele>
        <time>2025-05-18T10:52:04Z</time>
      </trkpt>
      <trkpt lat="45.668" lon="5.21945">
        <ele>306.6</ele>
        <time>2025-05-18T10:52:05Z</time>
      </trkpt>
      <trkpt lat="45.66798" lon="5.21946">
        <ele>306.6</ele>
        <time>2025-05-18T10:52:06Z</time>
      </trkpt>
      <trkpt lat="45.66797" lon="5.21948">
        <ele>306.8</ele>
        <time>2025-05-18T10:52:07Z</time>
      </trkpt>
      <trkpt lat="45.66796" lon="5.21949">
        <ele>307.2</ele>
        <time>2025-05-18T10:52:08Z</time>
      </trkpt>
      <trkpt lat="45.66795" lon="5.2195">
        <ele>307.2</ele>
        <time>2025-05-18T10:52:09Z</time>
      </trkpt>
      <trkpt lat="45.66795" lon="5.21952">
        <ele>307.4</ele>
        <time>2025-05-18T10:52:10Z</time>
      </trkpt>
      <trkpt lat="45.66794" lon="5.21954">
        <ele>307.8</ele>
        <time>2025-05-18T10:52:11Z</time>
      </trkpt>
      <trkpt lat="45.66793" lon="5.21955">
        <ele>307.8</ele>
        <time>2025-05-18T10:52:12Z</time>
      </trkpt>
      <trkpt lat="45.66791" lon="5.21956">
        <ele>307.8</ele>
        <time>2025-05-18T10:52:13Z</time>
      </trkpt>
      <trkpt lat="45.6679" lon="5.21957">
        <ele>308.2</ele>
        <time>2025-05-18T10:52:14Z</time>
      </trkpt>
      <trkpt lat="45.66789" lon="5.21959">
        <ele>308.2</ele>
        <time>2025-05-18T10:52:15Z</time>
      </trkpt>
      <trkpt lat="45.66788" lon="5.2196">
        <ele>308.4</ele>
        <time>2025-05-18T10:52:16Z</time>
      </trkpt>
      <trkpt lat="45.66787" lon="5.21962">
        <ele>308.4</ele>
        <time>2025-05-18T10:52:17Z</time>
      </trkpt>
      <trkpt lat="45.66786" lon="5.21963">
        <ele>308.8</ele>
        <time>2025-05-18T10:52:18Z</time>
      </trkpt>
      <trkpt lat="45.66785" lon="5.21966">
        <ele>308.8</ele>
        <time>2025-05-18T10:52:19Z</time>
      </trkpt>
      <trkpt lat="45.66784" lon="5.21969">
        <ele>309</ele>
        <time>2025-05-18T10:52:20Z</time>
      </trkpt>
      <trkpt lat="45.66783" lon="5.21971">
        <ele>309.4</ele>
        <time>2025-05-18T10:52:21Z</time>
      </trkpt>
      <trkpt lat="45.66781" lon="5.21973">
        <ele>309.4</ele>
        <time>2025-05-18T10:52:22Z</time>
      </trkpt>
      <trkpt lat="45.6678" lon="5.21974">
        <ele>309.6</ele>
        <time>2025-05-18T10:52:23Z</time>
      </trkpt>
      <trkpt lat="45.66779" lon="5.21976">
        <ele>309.6</ele>
        <time>2025-05-18T10:52:24Z</time>
      </trkpt>
      <trkpt lat="45.66779" lon="5.21978">
        <ele>309.6</ele>
        <time>2025-05-18T10:52:25Z</time>
      </trkpt>
      <trkpt lat="45.66778" lon="5.21979">
        <ele>309.6</ele>
        <time>2025-05-18T10:52:26Z</time>
      </trkpt>
      <trkpt lat="45.66777" lon="5.21982">
        <ele>310</ele>
        <time>2025-05-18T10:52:27Z</time>
      </trkpt>
      <trkpt lat="45.66777" lon="5.21984">
        <ele>310</ele>
        <time>2025-05-18T10:52:28Z</time>
      </trkpt>
      <trkpt lat="45.66776" lon="5.21988">
        <ele>310</ele>
        <time>2025-05-18T10:52:29Z</time>
      </trkpt>
      <trkpt lat="45.66774" lon="5.21991">
        <ele>310</ele>
        <time>2025-05-18T10:52:30Z</time>
      </trkpt>
      <trkpt lat="45.66773" lon="5.21994">
        <ele>310.2</ele>
        <time>2025-05-18T10:52:31Z</time>
      </trkpt>
      <trkpt lat="45.66772" lon="5.21997">
        <ele>310.2</ele>
        <time>2025-05-18T10:52:32Z</time>
      </trkpt>
      <trkpt lat="45.66771" lon="5.21998">
        <ele>310.2</ele>
        <time>2025-05-18T10:52:33Z</time>
      </trkpt>
      <trkpt lat="45.66771" lon="5.22">
        <ele>310.2</ele>
        <time>2025-05-18T10:52:34Z</time>
      </trkpt>
      <trkpt lat="45.6677" lon="5.22003">
        <ele>310.6</ele>
        <time>2025-05-18T10:52:35Z</time>
      </trkpt>
      <trkpt lat="45.66769" lon="5.22007">
        <ele>310.8</ele>
        <time>2025-05-18T10:52:36Z</time>
      </trkpt>
      <trkpt lat="45.66768" lon="5.22011">
        <ele>310.8</ele>
        <time>2025-05-18T10:52:37Z</time>
      </trkpt>
      <trkpt lat="45.66768" lon="5.22014">
        <ele>310.8</ele>
        <time>2025-05-18T10:52:38Z</time>
      </trkpt>
      <trkpt lat="45.66767" lon="5.22018">
        <ele>311</ele>
        <time>2025-05-18T10:52:39Z</time>
      </trkpt>
      <trkpt lat="45.66766" lon="5.22021">
        <ele>311.4</ele>
        <time>2025-05-18T10:52:40Z</time>
      </trkpt>
      <trkpt lat="45.66765" lon="5.22024">
        <ele>311.4</ele>
        <time>2025-05-18T10:52:41Z</time>
      </trkpt>
      <trkpt lat="45.66765" lon="5.22027">
        <ele>311.8</ele>
        <time>2025-05-18T10:52:42Z</time>
      </trkpt>
      <trkpt lat="45.66765" lon="5.2203">
        <ele>311.8</ele>
        <time>2025-05-18T10:52:43Z</time>
      </trkpt>
      <trkpt lat="45.66764" lon="5.22032">
        <ele>312.2</ele>
        <time>2025-05-18T10:52:44Z</time>
      </trkpt>
      <trkpt lat="45.66764" lon="5.22034">
        <ele>312.2</ele>
        <time>2025-05-18T10:52:45Z</time>
      </trkpt>
      <trkpt lat="45.66763" lon="5.22037">
        <ele>312.2</ele>
        <time>2025-05-18T10:52:46Z</time>
      </trkpt>
      <trkpt lat="45.66762" lon="5.2204">
        <ele>312.4</ele>
        <time>2025-05-18T10:52:47Z</time>
      </trkpt>
      <trkpt lat="45.66761" lon="5.22043">
        <ele>312.6</ele>
        <time>2025-05-18T10:52:48Z</time>
      </trkpt>
      <trkpt lat="45.6676" lon="5.22046">
        <ele>312.6</ele>
        <time>2025-05-18T10:52:49Z</time>
      </trkpt>
      <trkpt lat="45.6676" lon="5.22048">
        <ele>313</ele>
        <time>2025-05-18T10:52:50Z</time>
      </trkpt>
      <trkpt lat="45.6676" lon="5.22049">
        <ele>313.2</ele>
        <time>2025-05-18T10:52:51Z</time>
      </trkpt>
      <trkpt lat="45.6676" lon="5.2205">
        <ele>313.2</ele>
        <time>2025-05-18T10:52:52Z</time>
      </trkpt>
      <trkpt lat="45.6676" lon="5.22051">
        <ele>313.6</ele>
        <time>2025-05-18T10:52:53Z</time>
      </trkpt>
      <trkpt lat="45.6676" lon="5.22052">
        <ele>313.8</ele>
        <time>2025-05-18T10:52:54Z</time>
      </trkpt>
      <trkpt lat="45.6676" lon="5.22055">
        <ele>314.4</ele>
        <time>2025-05-18T10:52:55Z</time>
      </trkpt>
      <trkpt lat="45.6676" lon="5.22057">
        <ele>314.4</ele>
        <time>2025-05-18T10:52:56Z</time>
      </trkpt>
      <trkpt lat="45.66759" lon="5.22059">
        <ele>314.8</ele>
        <time>2025-05-18T10:52:57Z</time>
      </trkpt>
      <trkpt lat="45.66758" lon="5.2206">
        <ele>314.8</ele>
        <time>2025-05-18T10:52:58Z</time>
      </trkpt>
      <trkpt lat="45.66757" lon="5.22062">
        <ele>315</ele>
        <time>2025-05-18T10:52:59Z</time>
      </trkpt>
      <trkpt lat="45.66756" lon="5.22063">
        <ele>315</ele>
        <time>2025-05-18T10:53:00Z</time>
      </trkpt>
      <trkpt lat="45.66755" lon="5.22065">
        <ele>315.4</ele>
        <time>2025-05-18T10:53:01Z</time>
      </trkpt>
      <trkpt lat="45.66755" lon="5.22066">
        <ele>315.6</ele>
        <time>2025-05-18T10:53:02Z</time>
      </trkpt>
      <trkpt lat="45.66754" lon="5.22067">
        <ele>315.6</ele>
        <time>2025-05-18T10:53:03Z</time>
      </trkpt>
      <trkpt lat="45.66754" lon="5.22069">
        <ele>316.2</ele>
        <time>2025-05-18T10:53:04Z</time>
      </trkpt>
      <trkpt lat="45.66755" lon="5.22071">
        <ele>316.4</ele>
        <time>2025-05-18T10:53:05Z</time>
      </trkpt>
      <trkpt lat="45.66754" lon="5.22073">
        <ele>316.4</ele>
        <time>2025-05-18T10:53:06Z</time>
      </trkpt>
      <trkpt lat="45.66754" lon="5.22076">
        <ele>317</ele>
        <time>2025-05-18T10:53:07Z</time>
      </trkpt>
      <trkpt lat="45.66753" lon="5.22077">
        <ele>317</ele>
        <time>2025-05-18T10:53:08Z</time>
      </trkpt>
      <trkpt lat="45.66752" lon="5.2208">
        <ele>317.2</ele>
        <time>2025-05-18T10:53:09Z</time>
      </trkpt>
      <trkpt lat="45.66751" lon="5.22081">
        <ele>317.8</ele>
        <time>2025-05-18T10:53:10Z</time>
      </trkpt>
      <trkpt lat="45.6675" lon="5.22082">
        <ele>318</ele>
        <time>2025-05-18T10:53:11Z</time>
      </trkpt>
      <trkpt lat="45.66749" lon="5.22083">
        <ele>318.4</ele>
        <time>2025-05-18T10:53:12Z</time>
      </trkpt>
      <trkpt lat="45.66748" lon="5.22083">
        <ele>318.6</ele>
        <time>2025-05-18T10:53:13Z</time>
      </trkpt>
      <trkpt lat="45.66747" lon="5.22084">
        <ele>319.4</ele>
        <time>2025-05-18T10:53:14Z</time>
      </trkpt>
      <trkpt lat="45.66746" lon="5.22084">
        <ele>319.4</ele>
        <time>2025-05-18T10:53:15Z</time>
      </trkpt>
      <trkpt lat="45.66744" lon="5.22084">
        <ele>319.4</ele>
        <time>2025-05-18T10:53:16Z</time>
      </trkpt>
      <trkpt lat="45.66744" lon="5.22083">
        <ele>319.8</ele>
        <time>2025-05-18T10:53:17Z</time>
      </trkpt>
      <trkpt lat="45.66743" lon="5.22083">
        <ele>319.8</ele>
        <time>2025-05-18T10:53:18Z</time>
      </trkpt>
      <trkpt lat="45.66742" lon="5.22082">
        <ele>320</ele>
        <time>2025-05-18T10:53:19Z</time>
      </trkpt>
      <trkpt lat="45.6674" lon="5.22081">
        <ele>320</ele>
        <time>2025-05-18T10:53:20Z</time>
      </trkpt>
      <trkpt lat="45.66739" lon="5.2208">
        <ele>320</ele>
        <time>2025-05-18T10:53:21Z</time>
      </trkpt>
      <trkpt lat="45.66738" lon="5.22079">
        <ele>320</ele>
        <time>2025-05-18T10:53:22Z</time>
      </trkpt>
      <trkpt lat="45.66737" lon="5.22078">
        <ele>320.2</ele>
        <time>2025-05-18T10:53:23Z</time>
      </trkpt>
      <trkpt lat="45.66737" lon="5.22077">
        <ele>320.2</ele>
        <time>2025-05-18T10:53:24Z</time>
      </trkpt>
      <trkpt lat="45.66737" lon="5.22075">
        <ele>320.4</ele>
        <time>2025-05-18T10:53:25Z</time>
      </trkpt>
      <trkpt lat="45.66736" lon="5.22074">
        <ele>320.4</ele>
        <time>2025-05-18T10:53:26Z</time>
      </trkpt>
      <trkpt lat="45.66737" lon="5.22073">
        <ele>320.8</ele>
        <time>2025-05-18T10:53:27Z</time>
      </trkpt>
      <trkpt lat="45.66737" lon="5.22072">
        <ele>320.8</ele>
        <time>2025-05-18T10:53:28Z</time>
      </trkpt>
      <trkpt lat="45.66737" lon="5.2207">
        <ele>320.8</ele>
        <time>2025-05-18T10:53:29Z</time>
      </trkpt>
      <trkpt lat="45.66737" lon="5.22068">
        <ele>320.8</ele>
        <time>2025-05-18T10:53:30Z</time>
      </trkpt>
      <trkpt lat="45.66737" lon="5.22067">
        <ele>320.8</ele>
        <time>2025-05-18T10:53:31Z</time>
      </trkpt>
      <trkpt lat="45.66736" lon="5.22066">
        <ele>320.8</ele>
        <time>2025-05-18T10:53:32Z</time>
      </trkpt>
      <trkpt lat="45.66736" lon="5.22065">
        <ele>320.8</ele>
        <time>2025-05-18T10:53:33Z</time>
      </trkpt>
      <trkpt lat="45.66736" lon="5.22064">
        <ele>320.8</ele>
        <time>2025-05-18T10:53:34Z</time>
      </trkpt>
      <trkpt lat="45.66737" lon="5.22062">
        <ele>320.8</ele>
        <time>2025-05-18T10:53:35Z</time>
      </trkpt>
      <trkpt lat="45.66737" lon="5.22061">
        <ele>320.8</ele>
        <time>2025-05-18T10:53:36Z</time>
      </trkpt>
      <trkpt lat="45.66738" lon="5.2206">
        <ele>321</ele>
        <time>2025-05-18T10:53:37Z</time>
      </trkpt>
      <trkpt lat="45.66738" lon="5.22059">
        <ele>321</ele>
        <time>2025-05-18T10:53:38Z</time>
      </trkpt>
      <trkpt lat="45.66738" lon="5.22058">
        <ele>320.6</ele>
        <time>2025-05-18T10:53:39Z</time>
      </trkpt>
      <trkpt lat="45.66738" lon="5.22057">
        <ele>320.6</ele>
        <time>2025-05-18T10:53:40Z</time>
      </trkpt>
      <trkpt lat="45.66738" lon="5.22052">
        <ele>320.2</ele>
        <time>2025-05-18T10:53:50Z</time>
      </trkpt>
      <trkpt lat="45.66737" lon="5.22049">
        <ele>320.2</ele>
        <time>2025-05-18T10:53:51Z</time>
      </trkpt>
      <trkpt lat="45.66737" lon="5.22045">
        <ele>320.2</ele>
        <time>2025-05-18T10:53:52Z</time>
      </trkpt>
      <trkpt lat="45.66736" lon="5.22042">
        <ele>320.2</ele>
        <time>2025-05-18T10:53:53Z</time>
      </trkpt>
      <trkpt lat="45.66736" lon="5.22038">
        <ele>320.4</ele>
        <time>2025-05-18T10:53:54Z</time>
      </trkpt>
      <trkpt lat="45.66736" lon="5.22034">
        <ele>320.4</ele>
        <time>2025-05-18T10:53:55Z</time>
      </trkpt>
      <trkpt lat="45.66735" lon="5.2203">
        <ele>320.4</ele>
        <time>2025-05-18T10:53:56Z</time>
      </trkpt>
      <trkpt lat="45.66735" lon="5.22026">
        <ele>320.4</ele>
        <time>2025-05-18T10:53:57Z</time>
      </trkpt>
      <trkpt lat="45.66735" lon="5.22022">
        <ele>320.4</ele>
        <time>2025-05-18T10:53:58Z</time>
      </trkpt>
      <trkpt lat="45.66736" lon="5.22019">
        <ele>320.8</ele>
        <time>2025-05-18T10:53:59Z</time>
      </trkpt>
      <trkpt lat="45.66736" lon="5.22014">
        <ele>320.8</ele>
        <time>2025-05-18T10:54:00Z</time>
      </trkpt>
      <trkpt lat="45.66736" lon="5.2201">
        <ele>321</ele>
        <time>2025-05-18T10:54:01Z</time>
      </trkpt>
      <trkpt lat="45.66736" lon="5.22007">
        <ele>321</ele>
        <time>2025-05-18T10:54:02Z</time>
      </trkpt>
      <trkpt lat="45.66736" lon="5.22003">
        <ele>321</ele>
        <time>2025-05-18T10:54:03Z</time>
      </trkpt>
      <trkpt lat="45.66737" lon="5.21999">
        <ele>321</ele>
        <time>2025-05-18T10:54:04Z</time>
      </trkpt>
      <trkpt lat="45.66738" lon="5.21996">
        <ele>321</ele>
        <time>2025-05-18T10:54:05Z</time>
      </trkpt>
      <trkpt lat="45.66738" lon="5.21993">
        <ele>321</ele>
        <time>2025-05-18T10:54:06Z</time>
      </trkpt>
      <trkpt lat="45.66739" lon="5.21989">
        <ele>321.2</ele>
        <time>2025-05-18T10:54:07Z</time>
      </trkpt>
      <trkpt lat="45.6674" lon="5.21986">
        <ele>321.2</ele>
        <time>2025-05-18T10:54:08Z</time>
      </trkpt>
      <trkpt lat="45.66741" lon="5.21983">
        <ele>321.4</ele>
        <time>2025-05-18T10:54:09Z</time>
      </trkpt>
      <trkpt lat="45.66742" lon="5.21979">
        <ele>321.4</ele>
        <time>2025-05-18T10:54:10Z</time>
      </trkpt>
      <trkpt lat="45.66742" lon="5.21975">
        <ele>321.2</ele>
        <time>2025-05-18T10:54:11Z</time>
      </trkpt>
      <trkpt lat="45.66744" lon="5.21971">
        <ele>321.2</ele>
        <time>2025-05-18T10:54:12Z</time>
      </trkpt>
      <trkpt lat="45.66745" lon="5.21967">
        <ele>321.2</ele>
        <time>2025-05-18T10:54:13Z</time>
      </trkpt>
      <trkpt lat="45.66745" lon="5.21963">
        <ele>321.6</ele>
        <time>2025-05-18T10:54:14Z</time>
      </trkpt>
      <trkpt lat="45.66746" lon="5.21959">
        <ele>321.6</ele>
        <time>2025-05-18T10:54:15Z</time>
      </trkpt>
      <trkpt lat="45.66746" lon="5.21955">
        <ele>321.8</ele>
        <time>2025-05-18T10:54:16Z</time>
      </trkpt>
      <trkpt lat="45.66747" lon="5.21951">
        <ele>321.6</ele>
        <time>2025-05-18T10:54:17Z</time>
      </trkpt>
      <trkpt lat="45.66747" lon="5.21948">
        <ele>321.8</ele>
        <time>2025-05-18T10:54:18Z</time>
      </trkpt>
      <trkpt lat="45.66748" lon="5.21944">
        <ele>322</ele>
        <time>2025-05-18T10:54:19Z</time>
      </trkpt>
      <trkpt lat="45.66748" lon="5.2194">
        <ele>322</ele>
        <time>2025-05-18T10:54:20Z</time>
      </trkpt>
      <trkpt lat="45.66748" lon="5.21937">
        <ele>322.2</ele>
        <time>2025-05-18T10:54:21Z</time>
      </trkpt>
      <trkpt lat="45.66748" lon="5.21934">
        <ele>322.4</ele>
        <time>2025-05-18T10:54:22Z</time>
      </trkpt>
      <trkpt lat="45.66748" lon="5.21932">
        <ele>322.6</ele>
        <time>2025-05-18T10:54:23Z</time>
      </trkpt>
      <trkpt lat="45.66748" lon="5.21929">
        <ele>323</ele>
        <time>2025-05-18T10:54:24Z</time>
      </trkpt>
      <trkpt lat="45.66749" lon="5.21927">
        <ele>323.8</ele>
        <time>2025-05-18T10:54:25Z</time>
      </trkpt>
      <trkpt lat="45.66749" lon="5.21925">
        <ele>324</ele>
        <time>2025-05-18T10:54:26Z</time>
      </trkpt>
      <trkpt lat="45.6675" lon="5.21923">
        <ele>324.4</ele>
        <time>2025-05-18T10:54:27Z</time>
      </trkpt>
      <trkpt lat="45.66751" lon="5.2192">
        <ele>324.4</ele>
        <time>2025-05-18T10:54:28Z</time>
      </trkpt>
      <trkpt lat="45.66751" lon="5.21918">
        <ele>324.6</ele>
        <time>2025-05-18T10:54:29Z</time>
      </trkpt>
      <trkpt lat="45.66751" lon="5.21915">
        <ele>325</ele>
        <time>2025-05-18T10:54:30Z</time>
      </trkpt>
      <trkpt lat="45.66751" lon="5.21912">
        <ele>325.2</ele>
        <time>2025-05-18T10:54:31Z</time>
      </trkpt>
      <trkpt lat="45.66752" lon="5.21909">
        <ele>325.4</ele>
        <time>2025-05-18T10:54:32Z</time>
      </trkpt>
      <trkpt lat="45.66752" lon="5.21907">
        <ele>325.4</ele>
        <time>2025-05-18T10:54:33Z</time>
      </trkpt>
      <trkpt lat="45.66753" lon="5.21905">
        <ele>325.8</ele>
        <time>2025-05-18T10:54:34Z</time>
      </trkpt>
      <trkpt lat="45.66754" lon="5.21902">
        <ele>325.8</ele>
        <time>2025-05-18T10:54:35Z</time>
      </trkpt>
      <trkpt lat="45.66755" lon="5.21899">
        <ele>325.4</ele>
        <time>2025-05-18T10:54:36Z</time>
      </trkpt>
      <trkpt lat="45.66755" lon="5.21896">
        <ele>325.8</ele>
        <time>2025-05-18T10:54:37Z</time>
      </trkpt>
      <trkpt lat="45.66756" lon="5.21894">
        <ele>325.8</ele>
        <time>2025-05-18T10:54:38Z</time>
      </trkpt>
      <trkpt lat="45.66757" lon="5.21891">
        <ele>326</ele>
        <time>2025-05-18T10:54:39Z</time>
      </trkpt>
      <trkpt lat="45.66758" lon="5.21889">
        <ele>326</ele>
        <time>2025-05-18T10:54:40Z</time>
      </trkpt>
      <trkpt lat="45.66759" lon="5.21886">
        <ele>326.2</ele>
        <time>2025-05-18T10:54:41Z</time>
      </trkpt>
      <trkpt lat="45.6676" lon="5.21883">
        <ele>326.6</ele>
        <time>2025-05-18T10:54:42Z</time>
      </trkpt>
      <trkpt lat="45.66761" lon="5.2188">
        <ele>326.6</ele>
        <time>2025-05-18T10:54:43Z</time>
      </trkpt>
      <trkpt lat="45.66761" lon="5.21877">
        <ele>326.8</ele>
        <time>2025-05-18T10:54:44Z</time>
      </trkpt>
      <trkpt lat="45.66762" lon="5.21875">
        <ele>327</ele>
        <time>2025-05-18T10:54:45Z</time>
      </trkpt>
      <trkpt lat="45.66762" lon="5.21873">
        <ele>327</ele>
        <time>2025-05-18T10:54:46Z</time>
      </trkpt>
      <trkpt lat="45.66764" lon="5.2187">
        <ele>327</ele>
        <time>2025-05-18T10:54:47Z</time>
      </trkpt>
      <trkpt lat="45.66765" lon="5.21868">
        <ele>327</ele>
        <time>2025-05-18T10:54:48Z</time>
      </trkpt>
      <trkpt lat="45.66766" lon="5.21867">
        <ele>327</ele>
        <time>2025-05-18T10:54:49Z</time>
      </trkpt>
      <trkpt lat="45.66766" lon="5.21865">
        <ele>327.4</ele>
        <time>2025-05-18T10:54:50Z</time>
      </trkpt>
      <trkpt lat="45.66767" lon="5.21863">
        <ele>327.4</ele>
        <time>2025-05-18T10:54:51Z</time>
      </trkpt>
      <trkpt lat="45.66768" lon="5.21859">
        <ele>327.6</ele>
        <time>2025-05-18T10:54:52Z</time>
      </trkpt>
      <trkpt lat="45.66769" lon="5.21856">
        <ele>327.8</ele>
        <time>2025-05-18T10:54:53Z</time>
      </trkpt>
      <trkpt lat="45.6677" lon="5.21855">
        <ele>327.8</ele>
        <time>2025-05-18T10:54:54Z</time>
      </trkpt>
      <trkpt lat="45.66771" lon="5.21852">
        <ele>327.8</ele>
        <time>2025-05-18T10:54:55Z</time>
      </trkpt>
      <trkpt lat="45.66772" lon="5.21849">
        <ele>327.8</ele>
        <time>2025-05-18T10:54:56Z</time>
      </trkpt>
      <trkpt lat="45.66772" lon="5.21846">
        <ele>328.2</ele>
        <time>2025-05-18T10:54:57Z</time>
      </trkpt>
      <trkpt lat="45.66773" lon="5.21843">
        <ele>328.2</ele>
        <time>2025-05-18T10:54:58Z</time>
      </trkpt>
      <trkpt lat="45.66774" lon="5.2184">
        <ele>328.2</ele>
        <time>2025-05-18T10:54:59Z</time>
      </trkpt>
      <trkpt lat="45.66774" lon="5.21837">
        <ele>328.6</ele>
        <time>2025-05-18T10:55:00Z</time>
      </trkpt>
      <trkpt lat="45.66775" lon="5.21835">
        <ele>328.8</ele>
        <time>2025-05-18T10:55:01Z</time>
      </trkpt>
      <trkpt lat="45.66776" lon="5.21832">
        <ele>329.2</ele>
        <time>2025-05-18T10:55:02Z</time>
      </trkpt>
      <trkpt lat="45.66777" lon="5.21829">
        <ele>329.2</ele>
        <time>2025-05-18T10:55:03Z</time>
      </trkpt>
      <trkpt lat="45.66778" lon="5.21827">
        <ele>329.2</ele>
        <time>2025-05-18T10:55:04Z</time>
      </trkpt>
      <trkpt lat="45.66778" lon="5.21824">
        <ele>329.4</ele>
        <time>2025-05-18T10:55:05Z</time>
      </trkpt>
      <trkpt lat="45.66779" lon="5.21823">
        <ele>329.4</ele>
        <time>2025-05-18T10:55:06Z</time>
      </trkpt>
      <trkpt lat="45.6678" lon="5.2182">
        <ele>329.6</ele>
        <time>2025-05-18T10:55:07Z</time>
      </trkpt>
      <trkpt lat="45.66781" lon="5.21818">
        <ele>329.6</ele>
        <time>2025-05-18T10:55:08Z</time>
      </trkpt>
      <trkpt lat="45.66781" lon="5.21815">
        <ele>329.8</ele>
        <time>2025-05-18T10:55:09Z</time>
      </trkpt>
      <trkpt lat="45.66782" lon="5.21813">
        <ele>330.2</ele>
        <time>2025-05-18T10:55:10Z</time>
      </trkpt>
      <trkpt lat="45.66782" lon="5.21812">
        <ele>330.2</ele>
        <time>2025-05-18T10:55:11Z</time>
      </trkpt>
      <trkpt lat="45.66782" lon="5.21811">
        <ele>330.4</ele>
        <time>2025-05-18T10:55:12Z</time>
      </trkpt>
      <trkpt lat="45.66784" lon="5.21809">
        <ele>330.8</ele>
        <time>2025-05-18T10:55:13Z</time>
      </trkpt>
      <trkpt lat="45.66785" lon="5.21807">
        <ele>330.8</ele>
        <time>2025-05-18T10:55:14Z</time>
      </trkpt>
      <trkpt lat="45.66786" lon="5.21805">
        <ele>330.8</ele>
        <time>2025-05-18T10:55:15Z</time>
      </trkpt>
      <trkpt lat="45.66787" lon="5.21803">
        <ele>331</ele>
        <time>2025-05-18T10:55:16Z</time>
      </trkpt>
      <trkpt lat="45.66788" lon="5.21801">
        <ele>331</ele>
        <time>2025-05-18T10:55:17Z</time>
      </trkpt>
      <trkpt lat="45.66789" lon="5.21799">
        <ele>331</ele>
        <time>2025-05-18T10:55:18Z</time>
      </trkpt>
      <trkpt lat="45.66789" lon="5.21797">
        <ele>331.4</ele>
        <time>2025-05-18T10:55:19Z</time>
      </trkpt>
      <trkpt lat="45.66791" lon="5.21795">
        <ele>331.4</ele>
        <time>2025-05-18T10:55:20Z</time>
      </trkpt>
      <trkpt lat="45.66792" lon="5.21792">
        <ele>331.8</ele>
        <time>2025-05-18T10:55:21Z</time>
      </trkpt>
      <trkpt lat="45.66793" lon="5.21789">
        <ele>331.8</ele>
        <time>2025-05-18T10:55:22Z</time>
      </trkpt>
      <trkpt lat="45.66795" lon="5.21787">
        <ele>331.8</ele>
        <time>2025-05-18T10:55:23Z</time>
      </trkpt>
      <trkpt lat="45.66796" lon="5.21783">
        <ele>331.8</ele>
        <time>2025-05-18T10:55:24Z</time>
      </trkpt>
      <trkpt lat="45.66798" lon="5.2178">
        <ele>331.8</ele>
        <time>2025-05-18T10:55:25Z</time>
      </trkpt>
      <trkpt lat="45.668" lon="5.21775">
        <ele>332</ele>
        <time>2025-05-18T10:55:26Z</time>
      </trkpt>
      <trkpt lat="45.66801" lon="5.2177">
        <ele>332</ele>
        <time>2025-05-18T10:55:27Z</time>
      </trkpt>
      <trkpt lat="45.66803" lon="5.21765">
        <ele>332</ele>
        <time>2025-05-18T10:55:28Z</time>
      </trkpt>
      <trkpt lat="45.66804" lon="5.2176">
        <ele>332</ele>
        <time>2025-05-18T10:55:29Z</time>
      </trkpt>
      <trkpt lat="45.66805" lon="5.21756">
        <ele>332</ele>
        <time>2025-05-18T10:55:30Z</time>
      </trkpt>
      <trkpt lat="45.66807" lon="5.2175">
        <ele>331.8</ele>
        <time>2025-05-18T10:55:31Z</time>
      </trkpt>
      <trkpt lat="45.66808" lon="5.21745">
        <ele>331.8</ele>
        <time>2025-05-18T10:55:32Z</time>
      </trkpt>
      <trkpt lat="45.6681" lon="5.21741">
        <ele>332.4</ele>
        <time>2025-05-18T10:55:33Z</time>
      </trkpt>
      <trkpt lat="45.6681" lon="5.21737">
        <ele>332.4</ele>
        <time>2025-05-18T10:55:34Z</time>
      </trkpt>
      <trkpt lat="45.6681" lon="5.21733">
        <ele>332.4</ele>
        <time>2025-05-18T10:55:35Z</time>
      </trkpt>
      <trkpt lat="45.66809" lon="5.21729">
        <ele>332</ele>
        <time>2025-05-18T10:55:36Z</time>
      </trkpt>
      <trkpt lat="45.66809" lon="5.21727">
        <ele>332.4</ele>
        <time>2025-05-18T10:55:37Z</time>
      </trkpt>
      <trkpt lat="45.66808" lon="5.21724">
        <ele>332.4</ele>
        <time>2025-05-18T10:55:38Z</time>
      </trkpt>
      <trkpt lat="45.66808" lon="5.21719">
        <ele>332.8</ele>
        <time>2025-05-18T10:55:39Z</time>
      </trkpt>
      <trkpt lat="45.66808" lon="5.21716">
        <ele>332.8</ele>
        <time>2025-05-18T10:55:40Z</time>
      </trkpt>
      <trkpt lat="45.66808" lon="5.21712">
        <ele>333.4</ele>
        <time>2025-05-18T10:55:41Z</time>
      </trkpt>
      <trkpt lat="45.66807" lon="5.21709">
        <ele>333.8</ele>
        <time>2025-05-18T10:55:42Z</time>
      </trkpt>
      <trkpt lat="45.66806" lon="5.21706">
        <ele>334.2</ele>
        <time>2025-05-18T10:55:43Z</time>
      </trkpt>
      <trkpt lat="45.66806" lon="5.21703">
        <ele>334.4</ele>
        <time>2025-05-18T10:55:44Z</time>
      </trkpt>
      <trkpt lat="45.66806" lon="5.217">
        <ele>334.4</ele>
        <time>2025-05-18T10:55:45Z</time>
      </trkpt>
      <trkpt lat="45.66806" lon="5.21699">
        <ele>334.6</ele>
        <time>2025-05-18T10:55:46Z</time>
      </trkpt>
      <trkpt lat="45.66806" lon="5.21696">
        <ele>335</ele>
        <time>2025-05-18T10:55:47Z</time>
      </trkpt>
      <trkpt lat="45.66806" lon="5.21694">
        <ele>335.4</ele>
        <time>2025-05-18T10:55:48Z</time>
      </trkpt>
      <trkpt lat="45.66805" lon="5.21693">
        <ele>335.4</ele>
        <time>2025-05-18T10:55:49Z</time>
      </trkpt>
      <trkpt lat="45.66804" lon="5.21691">
        <ele>335.8</ele>
        <time>2025-05-18T10:55:50Z</time>
      </trkpt>
      <trkpt lat="45.66803" lon="5.2169">
        <ele>336.2</ele>
        <time>2025-05-18T10:55:51Z</time>
      </trkpt>
      <trkpt lat="45.66803" lon="5.21687">
        <ele>336.4</ele>
        <time>2025-05-18T10:55:52Z</time>
      </trkpt>
      <trkpt lat="45.66802" lon="5.21684">
        <ele>336.4</ele>
        <time>2025-05-18T10:55:53Z</time>
      </trkpt>
      <trkpt lat="45.66802" lon="5.21682">
        <ele>337</ele>
        <time>2025-05-18T10:55:54Z</time>
      </trkpt>
      <trkpt lat="45.66803" lon="5.21679">
        <ele>337.2</ele>
        <time>2025-05-18T10:55:55Z</time>
      </trkpt>
      <trkpt lat="45.66803" lon="5.21677">
        <ele>337.2</ele>
        <time>2025-05-18T10:55:56Z</time>
      </trkpt>
      <trkpt lat="45.66802" lon="5.21675">
        <ele>337.6</ele>
        <time>2025-05-18T10:55:57Z</time>
      </trkpt>
      <trkpt lat="45.66801" lon="5.21674">
        <ele>337.6</ele>
        <time>2025-05-18T10:55:58Z</time>
      </trkpt>
      <trkpt lat="45.668" lon="5.21672">
        <ele>338</ele>
        <time>2025-05-18T10:55:59Z</time>
      </trkpt>
      <trkpt lat="45.66799" lon="5.2167">
        <ele>338</ele>
        <time>2025-05-18T10:56:00Z</time>
      </trkpt>
      <trkpt lat="45.66799" lon="5.21669">
        <ele>338.4</ele>
        <time>2025-05-18T10:56:01Z</time>
      </trkpt>
      <trkpt lat="45.66798" lon="5.21667">
        <ele>338.4</ele>
        <time>2025-05-18T10:56:02Z</time>
      </trkpt>
      <trkpt lat="45.66797" lon="5.21664">
        <ele>338.6</ele>
        <time>2025-05-18T10:56:03Z</time>
      </trkpt>
      <trkpt lat="45.66796" lon="5.21662">
        <ele>339</ele>
        <time>2025-05-18T10:56:04Z</time>
      </trkpt>
      <trkpt lat="45.66795" lon="5.21661">
        <ele>339</ele>
        <time>2025-05-18T10:56:05Z</time>
      </trkpt>
      <trkpt lat="45.66794" lon="5.21659">
        <ele>339</ele>
        <time>2025-05-18T10:56:06Z</time>
      </trkpt>
      <trkpt lat="45.66792" lon="5.21658">
        <ele>339.4</ele>
        <time>2025-05-18T10:56:07Z</time>
      </trkpt>
      <trkpt lat="45.6679" lon="5.21657">
        <ele>339.4</ele>
        <time>2025-05-18T10:56:08Z</time>
      </trkpt>
      <trkpt lat="45.66788" lon="5.21656">
        <ele>340</ele>
        <time>2025-05-18T10:56:09Z</time>
      </trkpt>
      <trkpt lat="45.66787" lon="5.21655">
        <ele>340.2</ele>
        <time>2025-05-18T10:56:10Z</time>
      </trkpt>
      <trkpt lat="45.66786" lon="5.21653">
        <ele>340.2</ele>
        <time>2025-05-18T10:56:11Z</time>
      </trkpt>
      <trkpt lat="45.66784" lon="5.21648">
        <ele>340.6</ele>
        <time>2025-05-18T10:56:12Z</time>
      </trkpt>
      <trkpt lat="45.66783" lon="5.21646">
        <ele>340.6</ele>
        <time>2025-05-18T10:56:13Z</time>
      </trkpt>
      <trkpt lat="45.66783" lon="5.21643">
        <ele>340.8</ele>
        <time>2025-05-18T10:56:14Z</time>
      </trkpt>
      <trkpt lat="45.66782" lon="5.21639">
        <ele>340.8</ele>
        <time>2025-05-18T10:56:15Z</time>
      </trkpt>
      <trkpt lat="45.66782" lon="5.21636">
        <ele>340.8</ele>
        <time>2025-05-18T10:56:16Z</time>
      </trkpt>
      <trkpt lat="45.66782" lon="5.21633">
        <ele>340.8</ele>
        <time>2025-05-18T10:56:17Z</time>
      </trkpt>
      <trkpt lat="45.66782" lon="5.21629">
        <ele>341.2</ele>
        <time>2025-05-18T10:56:18Z</time>
      </trkpt>
      <trkpt lat="45.66782" lon="5.21626">
        <ele>341.2</ele>
        <time>2025-05-18T10:56:19Z</time>
      </trkpt>
      <trkpt lat="45.66782" lon="5.21623">
        <ele>341.2</ele>
        <time>2025-05-18T10:56:20Z</time>
      </trkpt>
      <trkpt lat="45.66782" lon="5.2162">
        <ele>341.4</ele>
        <time>2025-05-18T10:56:21Z</time>
      </trkpt>
      <trkpt lat="45.66781" lon="5.21617">
        <ele>341.4</ele>
        <time>2025-05-18T10:56:22Z</time>
      </trkpt>
      <trkpt lat="45.6678" lon="5.21614">
        <ele>341.4</ele>
        <time>2025-05-18T10:56:23Z</time>
      </trkpt>
      <trkpt lat="45.66779" lon="5.21611">
        <ele>341.8</ele>
        <time>2025-05-18T10:56:24Z</time>
      </trkpt>
      <trkpt lat="45.66779" lon="5.21608">
        <ele>341.8</ele>
        <time>2025-05-18T10:56:25Z</time>
      </trkpt>
      <trkpt lat="45.66779" lon="5.21605">
        <ele>342</ele>
        <time>2025-05-18T10:56:26Z</time>
      </trkpt>
      <trkpt lat="45.66779" lon="5.21603">
        <ele>342</ele>
        <time>2025-05-18T10:56:27Z</time>
      </trkpt>
      <trkpt lat="45.66779" lon="5.21602">
        <ele>342.2</ele>
        <time>2025-05-18T10:56:28Z</time>
      </trkpt>
      <trkpt lat="45.66779" lon="5.21599">
        <ele>342.2</ele>
        <time>2025-05-18T10:56:29Z</time>
      </trkpt>
      <trkpt lat="45.66778" lon="5.21596">
        <ele>342.6</ele>
        <time>2025-05-18T10:56:30Z</time>
      </trkpt>
      <trkpt lat="45.66778" lon="5.21594">
        <ele>342.6</ele>
        <time>2025-05-18T10:56:31Z</time>
      </trkpt>
      <trkpt lat="45.66778" lon="5.21591">
        <ele>343</ele>
        <time>2025-05-18T10:56:32Z</time>
      </trkpt>
      <trkpt lat="45.66777" lon="5.21589">
        <ele>343</ele>
        <time>2025-05-18T10:56:33Z</time>
      </trkpt>
      <trkpt lat="45.66777" lon="5.21586">
        <ele>343.2</ele>
        <time>2025-05-18T10:56:34Z</time>
      </trkpt>
      <trkpt lat="45.66776" lon="5.21583">
        <ele>343.4</ele>
        <time>2025-05-18T10:56:35Z</time>
      </trkpt>
      <trkpt lat="45.66775" lon="5.21582">
        <ele>343.4</ele>
        <time>2025-05-18T10:56:36Z</time>
      </trkpt>
      <trkpt lat="45.66774" lon="5.21579">
        <ele>343.4</ele>
        <time>2025-05-18T10:56:37Z</time>
      </trkpt>
      <trkpt lat="45.66773" lon="5.21577">
        <ele>343.4</ele>
        <time>2025-05-18T10:56:38Z</time>
      </trkpt>
      <trkpt lat="45.66772" lon="5.21574">
        <ele>344</ele>
        <time>2025-05-18T10:56:39Z</time>
      </trkpt>
      <trkpt lat="45.66771" lon="5.21572">
        <ele>344.6</ele>
        <time>2025-05-18T10:56:40Z</time>
      </trkpt>
      <trkpt lat="45.6677" lon="5.2157">
        <ele>344.6</ele>
        <time>2025-05-18T10:56:41Z</time>
      </trkpt>
      <trkpt lat="45.66769" lon="5.21569">
        <ele>344.6</ele>
        <time>2025-05-18T10:56:42Z</time>
      </trkpt>
      <trkpt lat="45.66769" lon="5.21568">
        <ele>344.8</ele>
        <time>2025-05-18T10:56:43Z</time>
      </trkpt>
      <trkpt lat="45.66769" lon="5.21566">
        <ele>345</ele>
        <time>2025-05-18T10:56:44Z</time>
      </trkpt>
      <trkpt lat="45.66768" lon="5.21564">
        <ele>345.4</ele>
        <time>2025-05-18T10:56:45Z</time>
      </trkpt>
      <trkpt lat="45.66767" lon="5.21562">
        <ele>345.8</ele>
        <time>2025-05-18T10:56:46Z</time>
      </trkpt>
      <trkpt lat="45.66766" lon="5.2156">
        <ele>346</ele>
        <time>2025-05-18T10:56:47Z</time>
      </trkpt>
      <trkpt lat="45.66764" lon="5.21558">
        <ele>346</ele>
        <time>2025-05-18T10:56:48Z</time>
      </trkpt>
      <trkpt lat="45.66763" lon="5.21556">
        <ele>346</ele>
        <time>2025-05-18T10:56:49Z</time>
      </trkpt>
      <trkpt lat="45.66761" lon="5.21554">
        <ele>346.2</ele>
        <time>2025-05-18T10:56:50Z</time>
      </trkpt>
      <trkpt lat="45.6676" lon="5.21553">
        <ele>346.2</ele>
        <time>2025-05-18T10:56:51Z</time>
      </trkpt>
      <trkpt lat="45.66759" lon="5.21551">
        <ele>346.2</ele>
        <time>2025-05-18T10:56:52Z</time>
      </trkpt>
      <trkpt lat="45.66757" lon="5.2155">
        <ele>346.2</ele>
        <time>2025-05-18T10:56:53Z</time>
      </trkpt>
      <trkpt lat="45.66755" lon="5.21548">
        <ele>346.2</ele>
        <time>2025-05-18T10:56:54Z</time>
      </trkpt>
      <trkpt lat="45.66754" lon="5.21546">
        <ele>346.6</ele>
        <time>2025-05-18T10:56:55Z</time>
      </trkpt>
      <trkpt lat="45.66752" lon="5.21544">
        <ele>346.6</ele>
        <time>2025-05-18T10:56:56Z</time>
      </trkpt>
      <trkpt lat="45.6675" lon="5.21542">
        <ele>346.8</ele>
        <time>2025-05-18T10:56:57Z</time>
      </trkpt>
      <trkpt lat="45.66748" lon="5.21541">
        <ele>346.8</ele>
        <time>2025-05-18T10:56:58Z</time>
      </trkpt>
      <trkpt lat="45.66747" lon="5.21538">
        <ele>346.8</ele>
        <time>2025-05-18T10:56:59Z</time>
      </trkpt>
      <trkpt lat="45.66746" lon="5.21536">
        <ele>347.2</ele>
        <time>2025-05-18T10:57:00Z</time>
      </trkpt>
      <trkpt lat="45.66744" lon="5.21535">
        <ele>347.2</ele>
        <time>2025-05-18T10:57:01Z</time>
      </trkpt>
      <trkpt lat="45.66743" lon="5.21533">
        <ele>347.2</ele>
        <time>2025-05-18T10:57:02Z</time>
      </trkpt>
      <trkpt lat="45.66742" lon="5.21531">
        <ele>347.8</ele>
        <time>2025-05-18T10:57:03Z</time>
      </trkpt>
      <trkpt lat="45.6674" lon="5.21529">
        <ele>347.8</ele>
        <time>2025-05-18T10:57:04Z</time>
      </trkpt>
      <trkpt lat="45.66738" lon="5.21526">
        <ele>348</ele>
        <time>2025-05-18T10:57:05Z</time>
      </trkpt>
      <trkpt lat="45.66737" lon="5.21523">
        <ele>348</ele>
        <time>2025-05-18T10:57:06Z</time>
      </trkpt>
      <trkpt lat="45.66735" lon="5.21521">
        <ele>348</ele>
        <time>2025-05-18T10:57:07Z</time>
      </trkpt>
      <trkpt lat="45.66735" lon="5.21518">
        <ele>348</ele>
        <time>2025-05-18T10:57:08Z</time>
      </trkpt>
      <trkpt lat="45.66734" lon="5.21516">
        <ele>348</ele>
        <time>2025-05-18T10:57:09Z</time>
      </trkpt>
      <trkpt lat="45.66733" lon="5.21514">
        <ele>348</ele>
        <time>2025-05-18T10:57:10Z</time>
      </trkpt>
      <trkpt lat="45.66732" lon="5.21511">
        <ele>348</ele>
        <time>2025-05-18T10:57:11Z</time>
      </trkpt>
      <trkpt lat="45.66731" lon="5.21509">
        <ele>348.2</ele>
        <time>2025-05-18T10:57:12Z</time>
      </trkpt>
      <trkpt lat="45.66729" lon="5.21507">
        <ele>348.4</ele>
        <time>2025-05-18T10:57:13Z</time>
      </trkpt>
      <trkpt lat="45.66728" lon="5.21504">
        <ele>348.4</ele>
        <time>2025-05-18T10:57:14Z</time>
      </trkpt>
      <trkpt lat="45.66726" lon="5.21502">
        <ele>348.6</ele>
        <time>2025-05-18T10:57:15Z</time>
      </trkpt>
      <trkpt lat="45.66724" lon="5.215">
        <ele>348.6</ele>
        <time>2025-05-18T10:57:16Z</time>
      </trkpt>
      <trkpt lat="45.66723" lon="5.21498">
        <ele>349</ele>
        <time>2025-05-18T10:57:17Z</time>
      </trkpt>
      <trkpt lat="45.66721" lon="5.21496">
        <ele>349</ele>
        <time>2025-05-18T10:57:18Z</time>
      </trkpt>
      <trkpt lat="45.66719" lon="5.21494">
        <ele>349</ele>
        <time>2025-05-18T10:57:19Z</time>
      </trkpt>
      <trkpt lat="45.66717" lon="5.21493">
        <ele>349</ele>
        <time>2025-05-18T10:57:20Z</time>
      </trkpt>
      <trkpt lat="45.66716" lon="5.21491">
        <ele>349.2</ele>
        <time>2025-05-18T10:57:21Z</time>
      </trkpt>
      <trkpt lat="45.66714" lon="5.21489">
        <ele>349.2</ele>
        <time>2025-05-18T10:57:22Z</time>
      </trkpt>
      <trkpt lat="45.66712" lon="5.21486">
        <ele>349.4</ele>
        <time>2025-05-18T10:57:23Z</time>
      </trkpt>
      <trkpt lat="45.66711" lon="5.21484">
        <ele>349.4</ele>
        <time>2025-05-18T10:57:24Z</time>
      </trkpt>
      <trkpt lat="45.66709" lon="5.21482">
        <ele>349.4</ele>
        <time>2025-05-18T10:57:25Z</time>
      </trkpt>
      <trkpt lat="45.66707" lon="5.21479">
        <ele>349.8</ele>
        <time>2025-05-18T10:57:26Z</time>
      </trkpt>
      <trkpt lat="45.66705" lon="5.21476">
        <ele>350</ele>
        <time>2025-05-18T10:57:27Z</time>
      </trkpt>
      <trkpt lat="45.66704" lon="5.21473">
        <ele>350</ele>
        <time>2025-05-18T10:57:28Z</time>
      </trkpt>
      <trkpt lat="45.66703" lon="5.21469">
        <ele>350</ele>
        <time>2025-05-18T10:57:29Z</time>
      </trkpt>
      <trkpt lat="45.66701" lon="5.21466">
        <ele>350</ele>
        <time>2025-05-18T10:57:30Z</time>
      </trkpt>
      <trkpt lat="45.667" lon="5.21462">
        <ele>349.8</ele>
        <time>2025-05-18T10:57:31Z</time>
      </trkpt>
      <trkpt lat="45.66698" lon="5.21458">
        <ele>349.8</ele>
        <time>2025-05-18T10:57:32Z</time>
      </trkpt>
      <trkpt lat="45.66697" lon="5.21454">
        <ele>349.8</ele>
        <time>2025-05-18T10:57:33Z</time>
      </trkpt>
      <trkpt lat="45.66696" lon="5.2145">
        <ele>349.8</ele>
        <time>2025-05-18T10:57:34Z</time>
      </trkpt>
      <trkpt lat="45.66695" lon="5.21445">
        <ele>349.6</ele>
        <time>2025-05-18T10:57:35Z</time>
      </trkpt>
      <trkpt lat="45.66692" lon="5.21442">
        <ele>349.6</ele>
        <time>2025-05-18T10:57:36Z</time>
      </trkpt>
      <trkpt lat="45.6669" lon="5.21438">
        <ele>349.6</ele>
        <time>2025-05-18T10:57:37Z</time>
      </trkpt>
      <trkpt lat="45.66688" lon="5.21435">
        <ele>349.6</ele>
        <time>2025-05-18T10:57:38Z</time>
      </trkpt>
      <trkpt lat="45.66686" lon="5.21432">
        <ele>349.6</ele>
        <time>2025-05-18T10:57:39Z</time>
      </trkpt>
      <trkpt lat="45.66686" lon="5.21432">
        <ele>349.6</ele>
        <time>2025-05-18T10:57:40Z</time>
      </trkpt>
      <trkpt lat="45.66683" lon="5.21429">
        <ele>349.8</ele>
        <time>2025-05-18T10:57:41Z</time>
      </trkpt>
      <trkpt lat="45.66681" lon="5.21425">
        <ele>349.8</ele>
        <time>2025-05-18T10:57:42Z</time>
      </trkpt>
      <trkpt lat="45.66679" lon="5.21421">
        <ele>349.2</ele>
        <time>2025-05-18T10:57:43Z</time>
      </trkpt>
      <trkpt lat="45.66678" lon="5.21417">
        <ele>349.4</ele>
        <time>2025-05-18T10:57:44Z</time>
      </trkpt>
      <trkpt lat="45.66676" lon="5.21414">
        <ele>347.8</ele>
        <time>2025-05-18T10:57:45Z</time>
      </trkpt>
      <trkpt lat="45.66675" lon="5.21412">
        <ele>348.6</ele>
        <time>2025-05-18T10:57:46Z</time>
      </trkpt>
      <trkpt lat="45.66675" lon="5.2141">
        <ele>348.8</ele>
        <time>2025-05-18T10:57:47Z</time>
      </trkpt>
      <trkpt lat="45.66674" lon="5.21407">
        <ele>349.2</ele>
        <time>2025-05-18T10:57:48Z</time>
      </trkpt>
      <trkpt lat="45.66674" lon="5.21405">
        <ele>349.4</ele>
        <time>2025-05-18T10:57:49Z</time>
      </trkpt>
      <trkpt lat="45.66673" lon="5.21404">
        <ele>349.4</ele>
        <time>2025-05-18T10:57:50Z</time>
      </trkpt>
      <trkpt lat="45.66672" lon="5.21402">
        <ele>349.8</ele>
        <time>2025-05-18T10:57:51Z</time>
      </trkpt>
      <trkpt lat="45.66671" lon="5.21401">
        <ele>349.8</ele>
        <time>2025-05-18T10:57:52Z</time>
      </trkpt>
      <trkpt lat="45.6667" lon="5.21399">
        <ele>349.8</ele>
        <time>2025-05-18T10:57:53Z</time>
      </trkpt>
      <trkpt lat="45.6667" lon="5.21398">
        <ele>349.8</ele>
        <time>2025-05-18T10:57:54Z</time>
      </trkpt>
      <trkpt lat="45.66669" lon="5.21396">
        <ele>349.6</ele>
        <time>2025-05-18T10:57:55Z</time>
      </trkpt>
      <trkpt lat="45.66668" lon="5.21394">
        <ele>349.6</ele>
        <time>2025-05-18T10:57:56Z</time>
      </trkpt>
      <trkpt lat="45.66667" lon="5.21392">
        <ele>349.6</ele>
        <time>2025-05-18T10:57:57Z</time>
      </trkpt>
      <trkpt lat="45.66666" lon="5.2139">
        <ele>349.6</ele>
        <time>2025-05-18T10:57:58Z</time>
      </trkpt>
      <trkpt lat="45.66665" lon="5.21387">
        <ele>349.6</ele>
        <time>2025-05-18T10:57:59Z</time>
      </trkpt>
      <trkpt lat="45.66663" lon="5.21385">
        <ele>349.6</ele>
        <time>2025-05-18T10:58:00Z</time>
      </trkpt>
      <trkpt lat="45.66662" lon="5.21383">
        <ele>349.6</ele>
        <time>2025-05-18T10:58:01Z</time>
      </trkpt>
      <trkpt lat="45.66661" lon="5.21382">
        <ele>349.6</ele>
        <time>2025-05-18T10:58:02Z</time>
      </trkpt>
      <trkpt lat="45.66659" lon="5.21381">
        <ele>349.6</ele>
        <time>2025-05-18T10:58:03Z</time>
      </trkpt>
      <trkpt lat="45.66658" lon="5.21379">
        <ele>349.2</ele>
        <time>2025-05-18T10:58:04Z</time>
      </trkpt>
      <trkpt lat="45.66657" lon="5.21379">
        <ele>349.2</ele>
        <time>2025-05-18T10:58:05Z</time>
      </trkpt>
      <trkpt lat="45.66656" lon="5.21378">
        <ele>349.2</ele>
        <time>2025-05-18T10:58:06Z</time>
      </trkpt>
      <trkpt lat="45.66654" lon="5.21377">
        <ele>349.2</ele>
        <time>2025-05-18T10:58:07Z</time>
      </trkpt>
      <trkpt lat="45.66651" lon="5.21375">
        <ele>349.2</ele>
        <time>2025-05-18T10:58:08Z</time>
      </trkpt>
      <trkpt lat="45.66649" lon="5.21374">
        <ele>349.2</ele>
        <time>2025-05-18T10:58:09Z</time>
      </trkpt>
      <trkpt lat="45.66648" lon="5.21373">
        <ele>349.8</ele>
        <time>2025-05-18T10:58:10Z</time>
      </trkpt>
      <trkpt lat="45.66646" lon="5.21371">
        <ele>349.8</ele>
        <time>2025-05-18T10:58:11Z</time>
      </trkpt>
      <trkpt lat="45.66644" lon="5.21368">
        <ele>349.8</ele>
        <time>2025-05-18T10:58:12Z</time>
      </trkpt>
      <trkpt lat="45.66643" lon="5.21366">
        <ele>350</ele>
        <time>2025-05-18T10:58:13Z</time>
      </trkpt>
      <trkpt lat="45.66641" lon="5.21364">
        <ele>350</ele>
        <time>2025-05-18T10:58:14Z</time>
      </trkpt>
      <trkpt lat="45.6664" lon="5.21363">
        <ele>350</ele>
        <time>2025-05-18T10:58:15Z</time>
      </trkpt>
      <trkpt lat="45.66639" lon="5.2136">
        <ele>350.2</ele>
        <time>2025-05-18T10:58:16Z</time>
      </trkpt>
      <trkpt lat="45.66637" lon="5.21358">
        <ele>350.2</ele>
        <time>2025-05-18T10:58:17Z</time>
      </trkpt>
      <trkpt lat="45.66635" lon="5.21356">
        <ele>350.6</ele>
        <time>2025-05-18T10:58:18Z</time>
      </trkpt>
      <trkpt lat="45.66634" lon="5.21355">
        <ele>350.6</ele>
        <time>2025-05-18T10:58:19Z</time>
      </trkpt>
      <trkpt lat="45.66632" lon="5.21353">
        <ele>350.8</ele>
        <time>2025-05-18T10:58:20Z</time>
      </trkpt>
      <trkpt lat="45.66629" lon="5.2135">
        <ele>350.8</ele>
        <time>2025-05-18T10:58:21Z</time>
      </trkpt>
      <trkpt lat="45.66627" lon="5.21348">
        <ele>350.8</ele>
        <time>2025-05-18T10:58:22Z</time>
      </trkpt>
      <trkpt lat="45.66625" lon="5.21345">
        <ele>350.8</ele>
        <time>2025-05-18T10:58:23Z</time>
      </trkpt>
      <trkpt lat="45.66623" lon="5.21343">
        <ele>351.4</ele>
        <time>2025-05-18T10:58:24Z</time>
      </trkpt>
      <trkpt lat="45.66621" lon="5.21341">
        <ele>351.4</ele>
        <time>2025-05-18T10:58:25Z</time>
      </trkpt>
      <trkpt lat="45.66619" lon="5.2134">
        <ele>351.4</ele>
        <time>2025-05-18T10:58:26Z</time>
      </trkpt>
      <trkpt lat="45.66617" lon="5.21338">
        <ele>351.8</ele>
        <time>2025-05-18T10:58:27Z</time>
      </trkpt>
      <trkpt lat="45.66615" lon="5.21336">
        <ele>351.8</ele>
        <time>2025-05-18T10:58:28Z</time>
      </trkpt>
      <trkpt lat="45.66613" lon="5.21334">
        <ele>351.8</ele>
        <time>2025-05-18T10:58:29Z</time>
      </trkpt>
      <trkpt lat="45.6661" lon="5.21332">
        <ele>352</ele>
        <time>2025-05-18T10:58:30Z</time>
      </trkpt>
      <trkpt lat="45.66608" lon="5.2133">
        <ele>352.6</ele>
        <time>2025-05-18T10:58:31Z</time>
      </trkpt>
      <trkpt lat="45.66605" lon="5.21327">
        <ele>352.6</ele>
        <time>2025-05-18T10:58:32Z</time>
      </trkpt>
      <trkpt lat="45.66603" lon="5.21326">
        <ele>352.6</ele>
        <time>2025-05-18T10:58:33Z</time>
      </trkpt>
      <trkpt lat="45.66601" lon="5.21325">
        <ele>353.2</ele>
        <time>2025-05-18T10:58:34Z</time>
      </trkpt>
      <trkpt lat="45.66598" lon="5.21323">
        <ele>353.4</ele>
        <time>2025-05-18T10:58:35Z</time>
      </trkpt>
      <trkpt lat="45.66596" lon="5.21321">
        <ele>353.8</ele>
        <time>2025-05-18T10:58:36Z</time>
      </trkpt>
      <trkpt lat="45.66595" lon="5.21319">
        <ele>354</ele>
        <time>2025-05-18T10:58:37Z</time>
      </trkpt>
      <trkpt lat="45.66594" lon="5.21318">
        <ele>354.2</ele>
        <time>2025-05-18T10:58:38Z</time>
      </trkpt>
      <trkpt lat="45.66593" lon="5.21317">
        <ele>354.4</ele>
        <time>2025-05-18T10:58:39Z</time>
      </trkpt>
      <trkpt lat="45.66592" lon="5.21315">
        <ele>354.4</ele>
        <time>2025-05-18T10:58:40Z</time>
      </trkpt>
      <trkpt lat="45.6659" lon="5.21312">
        <ele>354.4</ele>
        <time>2025-05-18T10:58:41Z</time>
      </trkpt>
      <trkpt lat="45.66588" lon="5.21309">
        <ele>354.4</ele>
        <time>2025-05-18T10:58:42Z</time>
      </trkpt>
      <trkpt lat="45.66587" lon="5.21307">
        <ele>354</ele>
        <time>2025-05-18T10:58:43Z</time>
      </trkpt>
      <trkpt lat="45.66584" lon="5.21304">
        <ele>354</ele>
        <time>2025-05-18T10:58:44Z</time>
      </trkpt>
      <trkpt lat="45.6658" lon="5.21302">
        <ele>354</ele>
        <time>2025-05-18T10:58:45Z</time>
      </trkpt>
      <trkpt lat="45.66576" lon="5.213">
        <ele>354</ele>
        <time>2025-05-18T10:58:46Z</time>
      </trkpt>
      <trkpt lat="45.66573" lon="5.21298">
        <ele>354</ele>
        <time>2025-05-18T10:58:47Z</time>
      </trkpt>
      <trkpt lat="45.6657" lon="5.21297">
        <ele>353.4</ele>
        <time>2025-05-18T10:58:48Z</time>
      </trkpt>
      <trkpt lat="45.66567" lon="5.21297">
        <ele>353.4</ele>
        <time>2025-05-18T10:58:49Z</time>
      </trkpt>
      <trkpt lat="45.66563" lon="5.21296">
        <ele>353.4</ele>
        <time>2025-05-18T10:58:50Z</time>
      </trkpt>
      <trkpt lat="45.6656" lon="5.21296">
        <ele>353.4</ele>
        <time>2025-05-18T10:58:51Z</time>
      </trkpt>
      <trkpt lat="45.66557" lon="5.21294">
        <ele>353.4</ele>
        <time>2025-05-18T10:58:52Z</time>
      </trkpt>
      <trkpt lat="45.66553" lon="5.21292">
        <ele>353.4</ele>
        <time>2025-05-18T10:58:53Z</time>
      </trkpt>
      <trkpt lat="45.6655" lon="5.2129">
        <ele>352.6</ele>
        <time>2025-05-18T10:58:54Z</time>
      </trkpt>
      <trkpt lat="45.66545" lon="5.21286">
        <ele>352.6</ele>
        <time>2025-05-18T10:58:55Z</time>
      </trkpt>
      <trkpt lat="45.66543" lon="5.21284">
        <ele>352.6</ele>
        <time>2025-05-18T10:58:56Z</time>
      </trkpt>
      <trkpt lat="45.6654" lon="5.21283">
        <ele>352.6</ele>
        <time>2025-05-18T10:58:57Z</time>
      </trkpt>
      <trkpt lat="45.66536" lon="5.21281">
        <ele>352.6</ele>
        <time>2025-05-18T10:58:58Z</time>
      </trkpt>
      <trkpt lat="45.66532" lon="5.21281">
        <ele>352.6</ele>
        <time>2025-05-18T10:58:59Z</time>
      </trkpt>
      <trkpt lat="45.6653" lon="5.21278">
        <ele>352.6</ele>
        <time>2025-05-18T10:59:00Z</time>
      </trkpt>
      <trkpt lat="45.66528" lon="5.21277">
        <ele>352.8</ele>
        <time>2025-05-18T10:59:01Z</time>
      </trkpt>
      <trkpt lat="45.66526" lon="5.21276">
        <ele>352.8</ele>
        <time>2025-05-18T10:59:02Z</time>
      </trkpt>
      <trkpt lat="45.66524" lon="5.21274">
        <ele>352.8</ele>
        <time>2025-05-18T10:59:03Z</time>
      </trkpt>
      <trkpt lat="45.66524" lon="5.21272">
        <ele>352.6</ele>
        <time>2025-05-18T10:59:04Z</time>
      </trkpt>
      <trkpt lat="45.66521" lon="5.21271">
        <ele>352.6</ele>
        <time>2025-05-18T10:59:05Z</time>
      </trkpt>
      <trkpt lat="45.6652" lon="5.2127">
        <ele>352.2</ele>
        <time>2025-05-18T10:59:06Z</time>
      </trkpt>
      <trkpt lat="45.66515" lon="5.21269">
        <ele>352.4</ele>
        <time>2025-05-18T10:59:07Z</time>
      </trkpt>
      <trkpt lat="45.66513" lon="5.21267">
        <ele>351.8</ele>
        <time>2025-05-18T10:59:08Z</time>
      </trkpt>
      <trkpt lat="45.66511" lon="5.21263">
        <ele>351.6</ele>
        <time>2025-05-18T10:59:09Z</time>
      </trkpt>
      <trkpt lat="45.66509" lon="5.21258">
        <ele>351.6</ele>
        <time>2025-05-18T10:59:10Z</time>
      </trkpt>
      <trkpt lat="45.66506" lon="5.21253">
        <ele>351.6</ele>
        <time>2025-05-18T10:59:11Z</time>
      </trkpt>
      <trkpt lat="45.66503" lon="5.21248">
        <ele>350.2</ele>
        <time>2025-05-18T10:59:12Z</time>
      </trkpt>
      <trkpt lat="45.665" lon="5.21242">
        <ele>349.6</ele>
        <time>2025-05-18T10:59:13Z</time>
      </trkpt>
      <trkpt lat="45.66498" lon="5.21238">
        <ele>348.8</ele>
        <time>2025-05-18T10:59:14Z</time>
      </trkpt>
      <trkpt lat="45.66495" lon="5.21233">
        <ele>348.8</ele>
        <time>2025-05-18T10:59:15Z</time>
      </trkpt>
      <trkpt lat="45.66492" lon="5.21228">
        <ele>348.2</ele>
        <time>2025-05-18T10:59:16Z</time>
      </trkpt>
      <trkpt lat="45.66489" lon="5.21226">
        <ele>347.6</ele>
        <time>2025-05-18T10:59:17Z</time>
      </trkpt>
      <trkpt lat="45.66485" lon="5.21222">
        <ele>347.4</ele>
        <time>2025-05-18T10:59:18Z</time>
      </trkpt>
      <trkpt lat="45.66481" lon="5.21219">
        <ele>347.4</ele>
        <time>2025-05-18T10:59:19Z</time>
      </trkpt>
      <trkpt lat="45.66478" lon="5.21217">
        <ele>348</ele>
        <time>2025-05-18T10:59:20Z</time>
      </trkpt>
      <trkpt lat="45.66473" lon="5.21216">
        <ele>348</ele>
        <time>2025-05-18T10:59:21Z</time>
      </trkpt>
      <trkpt lat="45.66468" lon="5.21214">
        <ele>348</ele>
        <time>2025-05-18T10:59:22Z</time>
      </trkpt>
      <trkpt lat="45.66464" lon="5.21213">
        <ele>348.2</ele>
        <time>2025-05-18T10:59:23Z</time>
      </trkpt>
      <trkpt lat="45.66459" lon="5.21212">
        <ele>348.2</ele>
        <time>2025-05-18T10:59:24Z</time>
      </trkpt>
      <trkpt lat="45.66456" lon="5.21211">
        <ele>348.2</ele>
        <time>2025-05-18T10:59:25Z</time>
      </trkpt>
      <trkpt lat="45.66452" lon="5.21211">
        <ele>348.4</ele>
        <time>2025-05-18T10:59:26Z</time>
      </trkpt>
      <trkpt lat="45.66449" lon="5.2121">
        <ele>348.8</ele>
        <time>2025-05-18T10:59:27Z</time>
      </trkpt>
      <trkpt lat="45.66447" lon="5.2121">
        <ele>348.8</ele>
        <time>2025-05-18T10:59:28Z</time>
      </trkpt>
      <trkpt lat="45.66443" lon="5.21209">
        <ele>348.8</ele>
        <time>2025-05-18T10:59:29Z</time>
      </trkpt>
      <trkpt lat="45.6644" lon="5.21208">
        <ele>348.8</ele>
        <time>2025-05-18T10:59:30Z</time>
      </trkpt>
      <trkpt lat="45.66437" lon="5.21207">
        <ele>348.8</ele>
        <time>2025-05-18T10:59:31Z</time>
      </trkpt>
      <trkpt lat="45.66433" lon="5.21207">
        <ele>348.8</ele>
        <time>2025-05-18T10:59:32Z</time>
      </trkpt>
      <trkpt lat="45.66429" lon="5.21207">
        <ele>348.8</ele>
        <time>2025-05-18T10:59:33Z</time>
      </trkpt>
      <trkpt lat="45.66425" lon="5.21206">
        <ele>348.4</ele>
        <time>2025-05-18T10:59:34Z</time>
      </trkpt>
      <trkpt lat="45.66422" lon="5.21203">
        <ele>348.8</ele>
        <time>2025-05-18T10:59:35Z</time>
      </trkpt>
      <trkpt lat="45.66418" lon="5.21202">
        <ele>349.2</ele>
        <time>2025-05-18T10:59:36Z</time>
      </trkpt>
      <trkpt lat="45.66416" lon="5.21201">
        <ele>349.6</ele>
        <time>2025-05-18T10:59:37Z</time>
      </trkpt>
      <trkpt lat="45.66413" lon="5.21199">
        <ele>350</ele>
        <time>2025-05-18T10:59:38Z</time>
      </trkpt>
      <trkpt lat="45.6641" lon="5.21198">
        <ele>350.4</ele>
        <time>2025-05-18T10:59:39Z</time>
      </trkpt>
      <trkpt lat="45.66407" lon="5.21196">
        <ele>350.4</ele>
        <time>2025-05-18T10:59:40Z</time>
      </trkpt>
      <trkpt lat="45.66403" lon="5.21196">
        <ele>350.6</ele>
        <time>2025-05-18T10:59:41Z</time>
      </trkpt>
      <trkpt lat="45.664" lon="5.21192">
        <ele>350.2</ele>
        <time>2025-05-18T10:59:42Z</time>
      </trkpt>
      <trkpt lat="45.66395" lon="5.21187">
        <ele>351</ele>
        <time>2025-05-18T10:59:43Z</time>
      </trkpt>
      <trkpt lat="45.66392" lon="5.21184">
        <ele>351</ele>
        <time>2025-05-18T10:59:44Z</time>
      </trkpt>
      <trkpt lat="45.66389" lon="5.21182">
        <ele>351</ele>
        <time>2025-05-18T10:59:45Z</time>
      </trkpt>
      <trkpt lat="45.66386" lon="5.2118">
        <ele>350.4</ele>
        <time>2025-05-18T10:59:46Z</time>
      </trkpt>
      <trkpt lat="45.66382" lon="5.21178">
        <ele>350.4</ele>
        <time>2025-05-18T10:59:47Z</time>
      </trkpt>
      <trkpt lat="45.6638" lon="5.21176">
        <ele>350.4</ele>
        <time>2025-05-18T10:59:48Z</time>
      </trkpt>
      <trkpt lat="45.66378" lon="5.21174">
        <ele>350.4</ele>
        <time>2025-05-18T10:59:49Z</time>
      </trkpt>
      <trkpt lat="45.66376" lon="5.21171">
        <ele>350.6</ele>
        <time>2025-05-18T10:59:50Z</time>
      </trkpt>
      <trkpt lat="45.66374" lon="5.21168">
        <ele>350.8</ele>
        <time>2025-05-18T10:59:51Z</time>
      </trkpt>
      <trkpt lat="45.66372" lon="5.21165">
        <ele>350.6</ele>
        <time>2025-05-18T10:59:52Z</time>
      </trkpt>
      <trkpt lat="45.66369" lon="5.21162">
        <ele>350.6</ele>
        <time>2025-05-18T10:59:53Z</time>
      </trkpt>
      <trkpt lat="45.66365" lon="5.2116">
        <ele>350.8</ele>
        <time>2025-05-18T10:59:54Z</time>
      </trkpt>
      <trkpt lat="45.66362" lon="5.21158">
        <ele>350.8</ele>
        <time>2025-05-18T10:59:55Z</time>
      </trkpt>
      <trkpt lat="45.66358" lon="5.21155">
        <ele>350.8</ele>
        <time>2025-05-18T10:59:56Z</time>
      </trkpt>
      <trkpt lat="45.66355" lon="5.21152">
        <ele>350.4</ele>
        <time>2025-05-18T10:59:57Z</time>
      </trkpt>
      <trkpt lat="45.66353" lon="5.21149">
        <ele>350.4</ele>
        <time>2025-05-18T10:59:58Z</time>
      </trkpt>
      <trkpt lat="45.6635" lon="5.21146">
        <ele>350.4</ele>
        <time>2025-05-18T10:59:59Z</time>
      </trkpt>
      <trkpt lat="45.66348" lon="5.21144">
        <ele>349.8</ele>
        <time>2025-05-18T11:00:00Z</time>
      </trkpt>
      <trkpt lat="45.66346" lon="5.21143">
        <ele>350.2</ele>
        <time>2025-05-18T11:00:01Z</time>
      </trkpt>
      <trkpt lat="45.66344" lon="5.21139">
        <ele>350.6</ele>
        <time>2025-05-18T11:00:02Z</time>
      </trkpt>
      <trkpt lat="45.66341" lon="5.21136">
        <ele>351.8</ele>
        <time>2025-05-18T11:00:03Z</time>
      </trkpt>
      <trkpt lat="45.66338" lon="5.21133">
        <ele>351.2</ele>
        <time>2025-05-18T11:00:04Z</time>
      </trkpt>
      <trkpt lat="45.66335" lon="5.2113">
        <ele>351.4</ele>
        <time>2025-05-18T11:00:05Z</time>
      </trkpt>
      <trkpt lat="45.66332" lon="5.21127">
        <ele>351.4</ele>
        <time>2025-05-18T11:00:06Z</time>
      </trkpt>
      <trkpt lat="45.66329" lon="5.21126">
        <ele>351.4</ele>
        <time>2025-05-18T11:00:07Z</time>
      </trkpt>
      <trkpt lat="45.66326" lon="5.21124">
        <ele>352</ele>
        <time>2025-05-18T11:00:08Z</time>
      </trkpt>
      <trkpt lat="45.66324" lon="5.21121">
        <ele>352.4</ele>
        <time>2025-05-18T11:00:09Z</time>
      </trkpt>
      <trkpt lat="45.66321" lon="5.21119">
        <ele>352.4</ele>
        <time>2025-05-18T11:00:10Z</time>
      </trkpt>
      <trkpt lat="45.66318" lon="5.21117">
        <ele>351.8</ele>
        <time>2025-05-18T11:00:11Z</time>
      </trkpt>
      <trkpt lat="45.66315" lon="5.21115">
        <ele>351.8</ele>
        <time>2025-05-18T11:00:12Z</time>
      </trkpt>
      <trkpt lat="45.66312" lon="5.21113">
        <ele>351.4</ele>
        <time>2025-05-18T11:00:13Z</time>
      </trkpt>
      <trkpt lat="45.66309" lon="5.2111">
        <ele>350</ele>
        <time>2025-05-18T11:00:14Z</time>
      </trkpt>
      <trkpt lat="45.66306" lon="5.21107">
        <ele>350</ele>
        <time>2025-05-18T11:00:15Z</time>
      </trkpt>
      <trkpt lat="45.66301" lon="5.21104">
        <ele>350.2</ele>
        <time>2025-05-18T11:00:16Z</time>
      </trkpt>
      <trkpt lat="45.66298" lon="5.21102">
        <ele>350.2</ele>
        <time>2025-05-18T11:00:17Z</time>
      </trkpt>
      <trkpt lat="45.66295" lon="5.21099">
        <ele>350.6</ele>
        <time>2025-05-18T11:00:18Z</time>
      </trkpt>
      <trkpt lat="45.66291" lon="5.21096">
        <ele>350.4</ele>
        <time>2025-05-18T11:00:19Z</time>
      </trkpt>
      <trkpt lat="45.66291" lon="5.21096">
        <ele>350.4</ele>
        <time>2025-05-18T11:00:20Z</time>
      </trkpt>
      <trkpt lat="45.66291" lon="5.21096">
        <ele>351</ele>
        <time>2025-05-18T11:00:21Z</time>
      </trkpt>
      <trkpt lat="45.66291" lon="5.21096">
        <ele>351</ele>
        <time>2025-05-18T11:00:22Z</time>
      </trkpt>
      <trkpt lat="45.66281" lon="5.21085">
        <ele>351</ele>
        <time>2025-05-18T11:00:23Z</time>
      </trkpt>
      <trkpt lat="45.6628" lon="5.21084">
        <ele>351</ele>
        <time>2025-05-18T11:00:24Z</time>
      </trkpt>
      <trkpt lat="45.66276" lon="5.21081">
        <ele>351</ele>
        <time>2025-05-18T11:00:25Z</time>
      </trkpt>
      <trkpt lat="45.66273" lon="5.21078">
        <ele>351</ele>
        <time>2025-05-18T11:00:26Z</time>
      </trkpt>
      <trkpt lat="45.66271" lon="5.21076">
        <ele>351</ele>
        <time>2025-05-18T11:00:27Z</time>
      </trkpt>
      <trkpt lat="45.66268" lon="5.21074">
        <ele>351</ele>
        <time>2025-05-18T11:00:28Z</time>
      </trkpt>
      <trkpt lat="45.66266" lon="5.21072">
        <ele>351.2</ele>
        <time>2025-05-18T11:00:29Z</time>
      </trkpt>
      <trkpt lat="45.66263" lon="5.21071">
        <ele>351.6</ele>
        <time>2025-05-18T11:00:30Z</time>
      </trkpt>
      <trkpt lat="45.66259" lon="5.2107">
        <ele>352.4</ele>
        <time>2025-05-18T11:00:31Z</time>
      </trkpt>
      <trkpt lat="45.66256" lon="5.21068">
        <ele>352.4</ele>
        <time>2025-05-18T11:00:32Z</time>
      </trkpt>
      <trkpt lat="45.66253" lon="5.21067">
        <ele>352.8</ele>
        <time>2025-05-18T11:00:33Z</time>
      </trkpt>
      <trkpt lat="45.6625" lon="5.21065">
        <ele>351.6</ele>
        <time>2025-05-18T11:00:34Z</time>
      </trkpt>
      <trkpt lat="45.66247" lon="5.21064">
        <ele>352.4</ele>
        <time>2025-05-18T11:00:35Z</time>
      </trkpt>
      <trkpt lat="45.66244" lon="5.21062">
        <ele>352.4</ele>
        <time>2025-05-18T11:00:36Z</time>
      </trkpt>
      <trkpt lat="45.66242" lon="5.21061">
        <ele>352.4</ele>
        <time>2025-05-18T11:00:37Z</time>
      </trkpt>
      <trkpt lat="45.6624" lon="5.21059">
        <ele>352.8</ele>
        <time>2025-05-18T11:00:38Z</time>
      </trkpt>
      <trkpt lat="45.66238" lon="5.21056">
        <ele>352.6</ele>
        <time>2025-05-18T11:00:39Z</time>
      </trkpt>
      <trkpt lat="45.66236" lon="5.21052">
        <ele>353</ele>
        <time>2025-05-18T11:00:40Z</time>
      </trkpt>
      <trkpt lat="45.66234" lon="5.21048">
        <ele>353.6</ele>
        <time>2025-05-18T11:00:41Z</time>
      </trkpt>
      <trkpt lat="45.66232" lon="5.21044">
        <ele>354</ele>
        <time>2025-05-18T11:00:42Z</time>
      </trkpt>
      <trkpt lat="45.66231" lon="5.2104">
        <ele>354</ele>
        <time>2025-05-18T11:00:43Z</time>
      </trkpt>
      <trkpt lat="45.66228" lon="5.21037">
        <ele>354.2</ele>
        <time>2025-05-18T11:00:44Z</time>
      </trkpt>
      <trkpt lat="45.66225" lon="5.21034">
        <ele>354.2</ele>
        <time>2025-05-18T11:00:45Z</time>
      </trkpt>
      <trkpt lat="45.66224" lon="5.21032">
        <ele>354</ele>
        <time>2025-05-18T11:00:46Z</time>
      </trkpt>
      <trkpt lat="45.66218" lon="5.2103">
        <ele>354</ele>
        <time>2025-05-18T11:00:47Z</time>
      </trkpt>
      <trkpt lat="45.66216" lon="5.21027">
        <ele>354.2</ele>
        <time>2025-05-18T11:00:48Z</time>
      </trkpt>
      <trkpt lat="45.66212" lon="5.21024">
        <ele>354.2</ele>
        <time>2025-05-18T11:00:49Z</time>
      </trkpt>
      <trkpt lat="45.66209" lon="5.21021">
        <ele>354.2</ele>
        <time>2025-05-18T11:00:50Z</time>
      </trkpt>
      <trkpt lat="45.66206" lon="5.21018">
        <ele>352.8</ele>
        <time>2025-05-18T11:00:51Z</time>
      </trkpt>
      <trkpt lat="45.66202" lon="5.21015">
        <ele>353.2</ele>
        <time>2025-05-18T11:00:52Z</time>
      </trkpt>
      <trkpt lat="45.66198" lon="5.21012">
        <ele>353.2</ele>
        <time>2025-05-18T11:00:53Z</time>
      </trkpt>
      <trkpt lat="45.66193" lon="5.21013">
        <ele>352.8</ele>
        <time>2025-05-18T11:00:54Z</time>
      </trkpt>
      <trkpt lat="45.6619" lon="5.21013">
        <ele>352.8</ele>
        <time>2025-05-18T11:00:55Z</time>
      </trkpt>
      <trkpt lat="45.6619" lon="5.21013">
        <ele>352.2</ele>
        <time>2025-05-18T11:00:56Z</time>
      </trkpt>
      <trkpt lat="45.6619" lon="5.21013">
        <ele>352.4</ele>
        <time>2025-05-18T11:00:57Z</time>
      </trkpt>
      <trkpt lat="45.66185" lon="5.21015">
        <ele>352.6</ele>
        <time>2025-05-18T11:00:58Z</time>
      </trkpt>
      <trkpt lat="45.66184" lon="5.21014">
        <ele>353</ele>
        <time>2025-05-18T11:00:59Z</time>
      </trkpt>
      <trkpt lat="45.66182" lon="5.21014">
        <ele>353.4</ele>
        <time>2025-05-18T11:01:00Z</time>
      </trkpt>
      <trkpt lat="45.6618" lon="5.21014">
        <ele>352.8</ele>
        <time>2025-05-18T11:01:01Z</time>
      </trkpt>
      <trkpt lat="45.66178" lon="5.21013">
        <ele>353.2</ele>
        <time>2025-05-18T11:01:02Z</time>
      </trkpt>
      <trkpt lat="45.66175" lon="5.21012">
        <ele>353</ele>
        <time>2025-05-18T11:01:03Z</time>
      </trkpt>
      <trkpt lat="45.66171" lon="5.21011">
        <ele>353</ele>
        <time>2025-05-18T11:01:04Z</time>
      </trkpt>
      <trkpt lat="45.66168" lon="5.21011">
        <ele>353.6</ele>
        <time>2025-05-18T11:01:05Z</time>
      </trkpt>
      <trkpt lat="45.66165" lon="5.21012">
        <ele>352.6</ele>
        <time>2025-05-18T11:01:06Z</time>
      </trkpt>
      <trkpt lat="45.66161" lon="5.21013">
        <ele>352.6</ele>
        <time>2025-05-18T11:01:07Z</time>
      </trkpt>
      <trkpt lat="45.66158" lon="5.21014">
        <ele>352.6</ele>
        <time>2025-05-18T11:01:08Z</time>
      </trkpt>
      <trkpt lat="45.66153" lon="5.21018">
        <ele>352.8</ele>
        <time>2025-05-18T11:01:09Z</time>
      </trkpt>
      <trkpt lat="45.66151" lon="5.21019">
        <ele>352.4</ele>
        <time>2025-05-18T11:01:10Z</time>
      </trkpt>
      <trkpt lat="45.66148" lon="5.2102">
        <ele>352.8</ele>
        <time>2025-05-18T11:01:11Z</time>
      </trkpt>
      <trkpt lat="45.66145" lon="5.21021">
        <ele>352.8</ele>
        <time>2025-05-18T11:01:12Z</time>
      </trkpt>
      <trkpt lat="45.66141" lon="5.21022">
        <ele>352.8</ele>
        <time>2025-05-18T11:01:13Z</time>
      </trkpt>
      <trkpt lat="45.66138" lon="5.21025">
        <ele>352</ele>
        <time>2025-05-18T11:01:14Z</time>
      </trkpt>
      <trkpt lat="45.66134" lon="5.21026">
        <ele>352.4</ele>
        <time>2025-05-18T11:01:15Z</time>
      </trkpt>
      <trkpt lat="45.6613" lon="5.21027">
        <ele>351.2</ele>
        <time>2025-05-18T11:01:16Z</time>
      </trkpt>
      <trkpt lat="45.66128" lon="5.21028">
        <ele>350.6</ele>
        <time>2025-05-18T11:01:17Z</time>
      </trkpt>
      <trkpt lat="45.66125" lon="5.21031">
        <ele>349.8</ele>
        <time>2025-05-18T11:01:18Z</time>
      </trkpt>
      <trkpt lat="45.66121" lon="5.21033">
        <ele>349.8</ele>
        <time>2025-05-18T11:01:19Z</time>
      </trkpt>
      <trkpt lat="45.66117" lon="5.21035">
        <ele>349.2</ele>
        <time>2025-05-18T11:01:20Z</time>
      </trkpt>
      <trkpt lat="45.66114" lon="5.21036">
        <ele>349.2</ele>
        <time>2025-05-18T11:01:21Z</time>
      </trkpt>
      <trkpt lat="45.6611" lon="5.21038">
        <ele>349.8</ele>
        <time>2025-05-18T11:01:22Z</time>
      </trkpt>
      <trkpt lat="45.66107" lon="5.21038">
        <ele>349.4</ele>
        <time>2025-05-18T11:01:23Z</time>
      </trkpt>
      <trkpt lat="45.66104" lon="5.2104">
        <ele>349.4</ele>
        <time>2025-05-18T11:01:24Z</time>
      </trkpt>
      <trkpt lat="45.66101" lon="5.21042">
        <ele>349.4</ele>
        <time>2025-05-18T11:01:25Z</time>
      </trkpt>
      <trkpt lat="45.66098" lon="5.21043">
        <ele>348.8</ele>
        <time>2025-05-18T11:01:26Z</time>
      </trkpt>
      <trkpt lat="45.66094" lon="5.21043">
        <ele>348</ele>
        <time>2025-05-18T11:01:27Z</time>
      </trkpt>
      <trkpt lat="45.66091" lon="5.21043">
        <ele>347.6</ele>
        <time>2025-05-18T11:01:28Z</time>
      </trkpt>
      <trkpt lat="45.66089" lon="5.21043">
        <ele>347.2</ele>
        <time>2025-05-18T11:01:29Z</time>
      </trkpt>
      <trkpt lat="45.66087" lon="5.21045">
        <ele>346.8</ele>
        <time>2025-05-18T11:01:30Z</time>
      </trkpt>
      <trkpt lat="45.66083" lon="5.21047">
        <ele>346.6</ele>
        <time>2025-05-18T11:01:31Z</time>
      </trkpt>
      <trkpt lat="45.6608" lon="5.2105">
        <ele>345.6</ele>
        <time>2025-05-18T11:01:32Z</time>
      </trkpt>
      <trkpt lat="45.66078" lon="5.21052">
        <ele>344.6</ele>
        <time>2025-05-18T11:01:33Z</time>
      </trkpt>
      <trkpt lat="45.66075" lon="5.21055">
        <ele>344.6</ele>
        <time>2025-05-18T11:01:34Z</time>
      </trkpt>
      <trkpt lat="45.66072" lon="5.21057">
        <ele>344.4</ele>
        <time>2025-05-18T11:01:35Z</time>
      </trkpt>
      <trkpt lat="45.6607" lon="5.21061">
        <ele>344</ele>
        <time>2025-05-18T11:01:36Z</time>
      </trkpt>
      <trkpt lat="45.66068" lon="5.21063">
        <ele>343.2</ele>
        <time>2025-05-18T11:01:37Z</time>
      </trkpt>
      <trkpt lat="45.66065" lon="5.21067">
        <ele>341.8</ele>
        <time>2025-05-18T11:01:38Z</time>
      </trkpt>
      <trkpt lat="45.6606" lon="5.21077">
        <ele>341.8</ele>
        <time>2025-05-18T11:01:39Z</time>
      </trkpt>
      <trkpt lat="45.66058" lon="5.21081">
        <ele>341.2</ele>
        <time>2025-05-18T11:01:40Z</time>
      </trkpt>
      <trkpt lat="45.66056" lon="5.21085">
        <ele>341.2</ele>
        <time>2025-05-18T11:01:41Z</time>
      </trkpt>
      <trkpt lat="45.66053" lon="5.21089">
        <ele>341.2</ele>
        <time>2025-05-18T11:01:42Z</time>
      </trkpt>
      <trkpt lat="45.66051" lon="5.21093">
        <ele>341</ele>
        <time>2025-05-18T11:01:43Z</time>
      </trkpt>
      <trkpt lat="45.66048" lon="5.21096">
        <ele>341</ele>
        <time>2025-05-18T11:01:44Z</time>
      </trkpt>
      <trkpt lat="45.66047" lon="5.21098">
        <ele>341</ele>
        <time>2025-05-18T11:01:45Z</time>
      </trkpt>
      <trkpt lat="45.66045" lon="5.21101">
        <ele>341</ele>
        <time>2025-05-18T11:01:46Z</time>
      </trkpt>
      <trkpt lat="45.66043" lon="5.21104">
        <ele>339.6</ele>
        <time>2025-05-18T11:01:47Z</time>
      </trkpt>
      <trkpt lat="45.6604" lon="5.21107">
        <ele>339.2</ele>
        <time>2025-05-18T11:01:48Z</time>
      </trkpt>
      <trkpt lat="45.66038" lon="5.21109">
        <ele>340.2</ele>
        <time>2025-05-18T11:01:49Z</time>
      </trkpt>
      <trkpt lat="45.66035" lon="5.21112">
        <ele>339.2</ele>
        <time>2025-05-18T11:01:50Z</time>
      </trkpt>
      <trkpt lat="45.66033" lon="5.21115">
        <ele>338.6</ele>
        <time>2025-05-18T11:01:51Z</time>
      </trkpt>
      <trkpt lat="45.6603" lon="5.21119">
        <ele>337.8</ele>
        <time>2025-05-18T11:01:52Z</time>
      </trkpt>
      <trkpt lat="45.66028" lon="5.21123">
        <ele>337.8</ele>
        <time>2025-05-18T11:01:53Z</time>
      </trkpt>
      <trkpt lat="45.66026" lon="5.21126">
        <ele>337</ele>
        <time>2025-05-18T11:01:54Z</time>
      </trkpt>
      <trkpt lat="45.66025" lon="5.2113">
        <ele>336</ele>
        <time>2025-05-18T11:01:55Z</time>
      </trkpt>
      <trkpt lat="45.66023" lon="5.21133">
        <ele>336</ele>
        <time>2025-05-18T11:01:56Z</time>
      </trkpt>
      <trkpt lat="45.66022" lon="5.21136">
        <ele>336</ele>
        <time>2025-05-18T11:01:57Z</time>
      </trkpt>
      <trkpt lat="45.66021" lon="5.21138">
        <ele>336.4</ele>
        <time>2025-05-18T11:01:58Z</time>
      </trkpt>
      <trkpt lat="45.66019" lon="5.21141">
        <ele>335.8</ele>
        <time>2025-05-18T11:01:59Z</time>
      </trkpt>
      <trkpt lat="45.66018" lon="5.21145">
        <ele>335.2</ele>
        <time>2025-05-18T11:02:00Z</time>
      </trkpt>
      <trkpt lat="45.66017" lon="5.21148">
        <ele>334.6</ele>
        <time>2025-05-18T11:02:01Z</time>
      </trkpt>
      <trkpt lat="45.66016" lon="5.21152">
        <ele>334.4</ele>
        <time>2025-05-18T11:02:02Z</time>
      </trkpt>
      <trkpt lat="45.66016" lon="5.21155">
        <ele>334</ele>
        <time>2025-05-18T11:02:03Z</time>
      </trkpt>
      <trkpt lat="45.66015" lon="5.21157">
        <ele>333.6</ele>
        <time>2025-05-18T11:02:04Z</time>
      </trkpt>
      <trkpt lat="45.66015" lon="5.21159">
        <ele>333.6</ele>
        <time>2025-05-18T11:02:05Z</time>
      </trkpt>
      <trkpt lat="45.66015" lon="5.21162">
        <ele>333.2</ele>
        <time>2025-05-18T11:02:06Z</time>
      </trkpt>
      <trkpt lat="45.66015" lon="5.21165">
        <ele>333.2</ele>
        <time>2025-05-18T11:02:07Z</time>
      </trkpt>
      <trkpt lat="45.66015" lon="5.21167">
        <ele>332.4</ele>
        <time>2025-05-18T11:02:08Z</time>
      </trkpt>
      <trkpt lat="45.66014" lon="5.2117">
        <ele>332</ele>
        <time>2025-05-18T11:02:09Z</time>
      </trkpt>
      <trkpt lat="45.66012" lon="5.21173">
        <ele>332</ele>
        <time>2025-05-18T11:02:10Z</time>
      </trkpt>
      <trkpt lat="45.66011" lon="5.21174">
        <ele>331.6</ele>
        <time>2025-05-18T11:02:11Z</time>
      </trkpt>
      <trkpt lat="45.66009" lon="5.21175">
        <ele>330.8</ele>
        <time>2025-05-18T11:02:12Z</time>
      </trkpt>
      <trkpt lat="45.66006" lon="5.21175">
        <ele>331.2</ele>
        <time>2025-05-18T11:02:13Z</time>
      </trkpt>
      <trkpt lat="45.66004" lon="5.21175">
        <ele>331.2</ele>
        <time>2025-05-18T11:02:14Z</time>
      </trkpt>
      <trkpt lat="45.66001" lon="5.21174">
        <ele>331</ele>
        <time>2025-05-18T11:02:15Z</time>
      </trkpt>
      <trkpt lat="45.65998" lon="5.21172">
        <ele>330.2</ele>
        <time>2025-05-18T11:02:16Z</time>
      </trkpt>
      <trkpt lat="45.65996" lon="5.21169">
        <ele>329.8</ele>
        <time>2025-05-18T11:02:17Z</time>
      </trkpt>
      <trkpt lat="45.65995" lon="5.21167">
        <ele>329.8</ele>
        <time>2025-05-18T11:02:18Z</time>
      </trkpt>
      <trkpt lat="45.65994" lon="5.21164">
        <ele>329.4</ele>
        <time>2025-05-18T11:02:19Z</time>
      </trkpt>
      <trkpt lat="45.65993" lon="5.21161">
        <ele>329.4</ele>
        <time>2025-05-18T11:02:20Z</time>
      </trkpt>
      <trkpt lat="45.65991" lon="5.21157">
        <ele>328.6</ele>
        <time>2025-05-18T11:02:21Z</time>
      </trkpt>
      <trkpt lat="45.65988" lon="5.21154">
        <ele>327.4</ele>
        <time>2025-05-18T11:02:22Z</time>
      </trkpt>
      <trkpt lat="45.65985" lon="5.21151">
        <ele>327.4</ele>
        <time>2025-05-18T11:02:23Z</time>
      </trkpt>
      <trkpt lat="45.65982" lon="5.21149">
        <ele>327.4</ele>
        <time>2025-05-18T11:02:24Z</time>
      </trkpt>
      <trkpt lat="45.65979" lon="5.21147">
        <ele>327</ele>
        <time>2025-05-18T11:02:25Z</time>
      </trkpt>
      <trkpt lat="45.65977" lon="5.21146">
        <ele>326.6</ele>
        <time>2025-05-18T11:02:26Z</time>
      </trkpt>
      <trkpt lat="45.65975" lon="5.21144">
        <ele>325.4</ele>
        <time>2025-05-18T11:02:27Z</time>
      </trkpt>
      <trkpt lat="45.65972" lon="5.21142">
        <ele>324.8</ele>
        <time>2025-05-18T11:02:28Z</time>
      </trkpt>
      <trkpt lat="45.65969" lon="5.21141">
        <ele>324.4</ele>
        <time>2025-05-18T11:02:29Z</time>
      </trkpt>
      <trkpt lat="45.65965" lon="5.2114">
        <ele>324.2</ele>
        <time>2025-05-18T11:02:30Z</time>
      </trkpt>
      <trkpt lat="45.65962" lon="5.21138">
        <ele>322.2</ele>
        <time>2025-05-18T11:02:31Z</time>
      </trkpt>
      <trkpt lat="45.65958" lon="5.21137">
        <ele>321.2</ele>
        <time>2025-05-18T11:02:32Z</time>
      </trkpt>
      <trkpt lat="45.65955" lon="5.21136">
        <ele>320.8</ele>
        <time>2025-05-18T11:02:33Z</time>
      </trkpt>
      <trkpt lat="45.65952" lon="5.21134">
        <ele>320.8</ele>
        <time>2025-05-18T11:02:34Z</time>
      </trkpt>
      <trkpt lat="45.65948" lon="5.2113">
        <ele>320.8</ele>
        <time>2025-05-18T11:02:35Z</time>
      </trkpt>
      <trkpt lat="45.65946" lon="5.21126">
        <ele>319.8</ele>
        <time>2025-05-18T11:02:36Z</time>
      </trkpt>
      <trkpt lat="45.65944" lon="5.21122">
        <ele>319.6</ele>
        <time>2025-05-18T11:02:37Z</time>
      </trkpt>
      <trkpt lat="45.65944" lon="5.2112">
        <ele>319.4</ele>
        <time>2025-05-18T11:02:38Z</time>
      </trkpt>
      <trkpt lat="45.65943" lon="5.21118">
        <ele>319.2</ele>
        <time>2025-05-18T11:02:39Z</time>
      </trkpt>
      <trkpt lat="45.65942" lon="5.21115">
        <ele>318.8</ele>
        <time>2025-05-18T11:02:40Z</time>
      </trkpt>
      <trkpt lat="45.6594" lon="5.21112">
        <ele>318.6</ele>
        <time>2025-05-18T11:02:41Z</time>
      </trkpt>
      <trkpt lat="45.65939" lon="5.21109">
        <ele>318.2</ele>
        <time>2025-05-18T11:02:42Z</time>
      </trkpt>
      <trkpt lat="45.65937" lon="5.21105">
        <ele>318</ele>
        <time>2025-05-18T11:02:43Z</time>
      </trkpt>
      <trkpt lat="45.65936" lon="5.21101">
        <ele>318</ele>
        <time>2025-05-18T11:02:44Z</time>
      </trkpt>
      <trkpt lat="45.65935" lon="5.21098">
        <ele>317.2</ele>
        <time>2025-05-18T11:02:45Z</time>
      </trkpt>
      <trkpt lat="45.65935" lon="5.21095">
        <ele>317.2</ele>
        <time>2025-05-18T11:02:46Z</time>
      </trkpt>
      <trkpt lat="45.65934" lon="5.21091">
        <ele>316.8</ele>
        <time>2025-05-18T11:02:47Z</time>
      </trkpt>
      <trkpt lat="45.65933" lon="5.21088">
        <ele>316.4</ele>
        <time>2025-05-18T11:02:48Z</time>
      </trkpt>
      <trkpt lat="45.65933" lon="5.21086">
        <ele>316</ele>
        <time>2025-05-18T11:02:49Z</time>
      </trkpt>
      <trkpt lat="45.65933" lon="5.21085">
        <ele>316</ele>
        <time>2025-05-18T11:02:50Z</time>
      </trkpt>
      <trkpt lat="45.65933" lon="5.21085">
        <ele>315.8</ele>
        <time>2025-05-18T11:02:51Z</time>
      </trkpt>
      <trkpt lat="45.65933" lon="5.21085">
        <ele>315.8</ele>
        <time>2025-05-18T11:02:52Z</time>
      </trkpt>
      <trkpt lat="45.6593" lon="5.21082">
        <ele>314.8</ele>
        <time>2025-05-18T11:03:17Z</time>
      </trkpt>
      <trkpt lat="45.65928" lon="5.21078">
        <ele>314.4</ele>
        <time>2025-05-18T11:03:18Z</time>
      </trkpt>
      <trkpt lat="45.65926" lon="5.21073">
        <ele>313.8</ele>
        <time>2025-05-18T11:03:19Z</time>
      </trkpt>
      <trkpt lat="45.65925" lon="5.21064">
        <ele>313.2</ele>
        <time>2025-05-18T11:03:20Z</time>
      </trkpt>
      <trkpt lat="45.65923" lon="5.21058">
        <ele>313</ele>
        <time>2025-05-18T11:03:21Z</time>
      </trkpt>
      <trkpt lat="45.65921" lon="5.21051">
        <ele>312</ele>
        <time>2025-05-18T11:03:22Z</time>
      </trkpt>
      <trkpt lat="45.6592" lon="5.21044">
        <ele>312</ele>
        <time>2025-05-18T11:03:23Z</time>
      </trkpt>
      <trkpt lat="45.65918" lon="5.21039">
        <ele>311.4</ele>
        <time>2025-05-18T11:03:24Z</time>
      </trkpt>
      <trkpt lat="45.65917" lon="5.21032">
        <ele>310.6</ele>
        <time>2025-05-18T11:03:25Z</time>
      </trkpt>
      <trkpt lat="45.65913" lon="5.21026">
        <ele>310.6</ele>
        <time>2025-05-18T11:03:26Z</time>
      </trkpt>
      <trkpt lat="45.65911" lon="5.21019">
        <ele>308.8</ele>
        <time>2025-05-18T11:03:27Z</time>
      </trkpt>
      <trkpt lat="45.65908" lon="5.21011">
        <ele>308.6</ele>
        <time>2025-05-18T11:03:28Z</time>
      </trkpt>
      <trkpt lat="45.65906" lon="5.21004">
        <ele>307.6</ele>
        <time>2025-05-18T11:03:29Z</time>
      </trkpt>
      <trkpt lat="45.65904" lon="5.20996">
        <ele>306.4</ele>
        <time>2025-05-18T11:03:30Z</time>
      </trkpt>
      <trkpt lat="45.65899" lon="5.20989">
        <ele>305.8</ele>
        <time>2025-05-18T11:03:31Z</time>
      </trkpt>
      <trkpt lat="45.65895" lon="5.20983">
        <ele>305.6</ele>
        <time>2025-05-18T11:03:32Z</time>
      </trkpt>
      <trkpt lat="45.65891" lon="5.20979">
        <ele>305</ele>
        <time>2025-05-18T11:03:33Z</time>
      </trkpt>
      <trkpt lat="45.65888" lon="5.20975">
        <ele>304.8</ele>
        <time>2025-05-18T11:03:34Z</time>
      </trkpt>
      <trkpt lat="45.65885" lon="5.20972">
        <ele>304.4</ele>
        <time>2025-05-18T11:03:35Z</time>
      </trkpt>
      <trkpt lat="45.65884" lon="5.20969">
        <ele>303.8</ele>
        <time>2025-05-18T11:03:36Z</time>
      </trkpt>
      <trkpt lat="45.65882" lon="5.20971">
        <ele>303.8</ele>
        <time>2025-05-18T11:03:37Z</time>
      </trkpt>
      <trkpt lat="45.6588" lon="5.20974">
        <ele>303.8</ele>
        <time>2025-05-18T11:03:38Z</time>
      </trkpt>
      <trkpt lat="45.65879" lon="5.20977">
        <ele>303.8</ele>
        <time>2025-05-18T11:03:39Z</time>
      </trkpt>
      <trkpt lat="45.65877" lon="5.20978">
        <ele>303.4</ele>
        <time>2025-05-18T11:03:40Z</time>
      </trkpt>
      <trkpt lat="45.65875" lon="5.20981">
        <ele>303.6</ele>
        <time>2025-05-18T11:03:41Z</time>
      </trkpt>
      <trkpt lat="45.65874" lon="5.20984">
        <ele>303.6</ele>
        <time>2025-05-18T11:03:42Z</time>
      </trkpt>
      <trkpt lat="45.65874" lon="5.20984">
        <ele>303.2</ele>
        <time>2025-05-18T11:03:43Z</time>
      </trkpt>
      <trkpt lat="45.65872" lon="5.20985">
        <ele>303.2</ele>
        <time>2025-05-18T11:03:44Z</time>
      </trkpt>
      <trkpt lat="45.65869" lon="5.20987">
        <ele>303.2</ele>
        <time>2025-05-18T11:03:45Z</time>
      </trkpt>
      <trkpt lat="45.65867" lon="5.20989">
        <ele>303.2</ele>
        <time>2025-05-18T11:03:46Z</time>
      </trkpt>
      <trkpt lat="45.65864" lon="5.20991">
        <ele>303.6</ele>
        <time>2025-05-18T11:03:47Z</time>
      </trkpt>
      <trkpt lat="45.65862" lon="5.20992">
        <ele>303.6</ele>
        <time>2025-05-18T11:03:48Z</time>
      </trkpt>
      <trkpt lat="45.6586" lon="5.20993">
        <ele>304</ele>
        <time>2025-05-18T11:03:49Z</time>
      </trkpt>
      <trkpt lat="45.65857" lon="5.20994">
        <ele>304</ele>
        <time>2025-05-18T11:03:50Z</time>
      </trkpt>
      <trkpt lat="45.65855" lon="5.20994">
        <ele>304.4</ele>
        <time>2025-05-18T11:03:51Z</time>
      </trkpt>
      <trkpt lat="45.65854" lon="5.20995">
        <ele>304.4</ele>
        <time>2025-05-18T11:03:52Z</time>
      </trkpt>
      <trkpt lat="45.65853" lon="5.20996">
        <ele>305.2</ele>
        <time>2025-05-18T11:03:53Z</time>
      </trkpt>
      <trkpt lat="45.65852" lon="5.20998">
        <ele>305.2</ele>
        <time>2025-05-18T11:03:54Z</time>
      </trkpt>
      <trkpt lat="45.6585" lon="5.21">
        <ele>305.2</ele>
        <time>2025-05-18T11:03:55Z</time>
      </trkpt>
      <trkpt lat="45.65849" lon="5.21002">
        <ele>305.4</ele>
        <time>2025-05-18T11:03:56Z</time>
      </trkpt>
      <trkpt lat="45.65848" lon="5.21003">
        <ele>305.4</ele>
        <time>2025-05-18T11:03:57Z</time>
      </trkpt>
      <trkpt lat="45.65847" lon="5.21004">
        <ele>305.8</ele>
        <time>2025-05-18T11:03:58Z</time>
      </trkpt>
      <trkpt lat="45.65846" lon="5.21005">
        <ele>305.8</ele>
        <time>2025-05-18T11:03:59Z</time>
      </trkpt>
      <trkpt lat="45.65846" lon="5.21007">
        <ele>306.6</ele>
        <time>2025-05-18T11:04:00Z</time>
      </trkpt>
      <trkpt lat="45.65845" lon="5.21008">
        <ele>306.2</ele>
        <time>2025-05-18T11:04:01Z</time>
      </trkpt>
      <trkpt lat="45.65846" lon="5.21008">
        <ele>306.4</ele>
        <time>2025-05-18T11:04:02Z</time>
      </trkpt>
      <trkpt lat="45.65846" lon="5.2101">
        <ele>306.4</ele>
        <time>2025-05-18T11:04:03Z</time>
      </trkpt>
      <trkpt lat="45.65846" lon="5.21011">
        <ele>307</ele>
        <time>2025-05-18T11:04:04Z</time>
      </trkpt>
      <trkpt lat="45.65846" lon="5.21013">
        <ele>307.4</ele>
        <time>2025-05-18T11:04:05Z</time>
      </trkpt>
      <trkpt lat="45.65846" lon="5.21016">
        <ele>307.8</ele>
        <time>2025-05-18T11:04:06Z</time>
      </trkpt>
      <trkpt lat="45.65846" lon="5.21018">
        <ele>308</ele>
        <time>2025-05-18T11:04:07Z</time>
      </trkpt>
      <trkpt lat="45.65845" lon="5.2102">
        <ele>308.4</ele>
        <time>2025-05-18T11:04:08Z</time>
      </trkpt>
      <trkpt lat="45.65844" lon="5.21022">
        <ele>308.8</ele>
        <time>2025-05-18T11:04:09Z</time>
      </trkpt>
      <trkpt lat="45.65843" lon="5.21024">
        <ele>308.8</ele>
        <time>2025-05-18T11:04:10Z</time>
      </trkpt>
      <trkpt lat="45.65842" lon="5.21026">
        <ele>309</ele>
        <time>2025-05-18T11:04:11Z</time>
      </trkpt>
      <trkpt lat="45.65841" lon="5.21028">
        <ele>309.2</ele>
        <time>2025-05-18T11:04:12Z</time>
      </trkpt>
      <trkpt lat="45.6584" lon="5.2103">
        <ele>309.2</ele>
        <time>2025-05-18T11:04:13Z</time>
      </trkpt>
      <trkpt lat="45.65839" lon="5.21031">
        <ele>309.2</ele>
        <time>2025-05-18T11:04:14Z</time>
      </trkpt>
      <trkpt lat="45.65838" lon="5.21032">
        <ele>309.2</ele>
        <time>2025-05-18T11:04:15Z</time>
      </trkpt>
      <trkpt lat="45.65837" lon="5.21034">
        <ele>309.4</ele>
        <time>2025-05-18T11:04:16Z</time>
      </trkpt>
      <trkpt lat="45.65835" lon="5.21035">
        <ele>309.8</ele>
        <time>2025-05-18T11:04:17Z</time>
      </trkpt>
      <trkpt lat="45.65834" lon="5.21037">
        <ele>310.2</ele>
        <time>2025-05-18T11:04:18Z</time>
      </trkpt>
      <trkpt lat="45.65832" lon="5.21038">
        <ele>310.2</ele>
        <time>2025-05-18T11:04:19Z</time>
      </trkpt>
      <trkpt lat="45.65831" lon="5.21039">
        <ele>310.6</ele>
        <time>2025-05-18T11:04:20Z</time>
      </trkpt>
      <trkpt lat="45.6583" lon="5.2104">
        <ele>310.8</ele>
        <time>2025-05-18T11:04:21Z</time>
      </trkpt>
      <trkpt lat="45.65829" lon="5.21042">
        <ele>311</ele>
        <time>2025-05-18T11:04:22Z</time>
      </trkpt>
      <trkpt lat="45.65828" lon="5.21043">
        <ele>311</ele>
        <time>2025-05-18T11:04:23Z</time>
      </trkpt>
      <trkpt lat="45.65827" lon="5.21044">
        <ele>311.2</ele>
        <time>2025-05-18T11:04:24Z</time>
      </trkpt>
      <trkpt lat="45.65826" lon="5.21046">
        <ele>311.6</ele>
        <time>2025-05-18T11:04:25Z</time>
      </trkpt>
      <trkpt lat="45.65824" lon="5.21047">
        <ele>311.6</ele>
        <time>2025-05-18T11:04:26Z</time>
      </trkpt>
      <trkpt lat="45.65823" lon="5.21048">
        <ele>311.6</ele>
        <time>2025-05-18T11:04:27Z</time>
      </trkpt>
      <trkpt lat="45.65823" lon="5.21049">
        <ele>311.6</ele>
        <time>2025-05-18T11:04:28Z</time>
      </trkpt>
      <trkpt lat="45.65821" lon="5.2105">
        <ele>311.8</ele>
        <time>2025-05-18T11:04:29Z</time>
      </trkpt>
      <trkpt lat="45.6582" lon="5.21052">
        <ele>312.2</ele>
        <time>2025-05-18T11:04:30Z</time>
      </trkpt>
      <trkpt lat="45.65819" lon="5.21053">
        <ele>311.8</ele>
        <time>2025-05-18T11:04:31Z</time>
      </trkpt>
      <trkpt lat="45.65818" lon="5.21055">
        <ele>312.2</ele>
        <time>2025-05-18T11:04:32Z</time>
      </trkpt>
      <trkpt lat="45.65817" lon="5.21057">
        <ele>312.8</ele>
        <time>2025-05-18T11:04:33Z</time>
      </trkpt>
      <trkpt lat="45.65817" lon="5.21059">
        <ele>312.8</ele>
        <time>2025-05-18T11:04:34Z</time>
      </trkpt>
      <trkpt lat="45.65817" lon="5.2106">
        <ele>313</ele>
        <time>2025-05-18T11:04:35Z</time>
      </trkpt>
      <trkpt lat="45.65818" lon="5.21062">
        <ele>313.4</ele>
        <time>2025-05-18T11:04:36Z</time>
      </trkpt>
      <trkpt lat="45.65818" lon="5.21064">
        <ele>313.4</ele>
        <time>2025-05-18T11:04:37Z</time>
      </trkpt>
      <trkpt lat="45.65819" lon="5.21065">
        <ele>313.4</ele>
        <time>2025-05-18T11:04:38Z</time>
      </trkpt>
      <trkpt lat="45.6582" lon="5.21066">
        <ele>313.8</ele>
        <time>2025-05-18T11:04:39Z</time>
      </trkpt>
      <trkpt lat="45.65822" lon="5.21066">
        <ele>314.2</ele>
        <time>2025-05-18T11:04:40Z</time>
      </trkpt>
      <trkpt lat="45.65824" lon="5.21066">
        <ele>314.8</ele>
        <time>2025-05-18T11:04:41Z</time>
      </trkpt>
      <trkpt lat="45.65825" lon="5.21066">
        <ele>314.8</ele>
        <time>2025-05-18T11:04:42Z</time>
      </trkpt>
      <trkpt lat="45.65826" lon="5.21066">
        <ele>314.8</ele>
        <time>2025-05-18T11:04:43Z</time>
      </trkpt>
      <trkpt lat="45.65828" lon="5.21066">
        <ele>315.2</ele>
        <time>2025-05-18T11:04:44Z</time>
      </trkpt>
      <trkpt lat="45.6583" lon="5.21066">
        <ele>315.4</ele>
        <time>2025-05-18T11:04:45Z</time>
      </trkpt>
      <trkpt lat="45.65831" lon="5.21066">
        <ele>315.4</ele>
        <time>2025-05-18T11:04:46Z</time>
      </trkpt>
      <trkpt lat="45.65832" lon="5.21065">
        <ele>315.6</ele>
        <time>2025-05-18T11:04:47Z</time>
      </trkpt>
      <trkpt lat="45.65833" lon="5.21065">
        <ele>315.6</ele>
        <time>2025-05-18T11:04:48Z</time>
      </trkpt>
      <trkpt lat="45.65835" lon="5.21066">
        <ele>316</ele>
        <time>2025-05-18T11:04:49Z</time>
      </trkpt>
      <trkpt lat="45.65836" lon="5.21067">
        <ele>316</ele>
        <time>2025-05-18T11:04:50Z</time>
      </trkpt>
      <trkpt lat="45.65837" lon="5.21068">
        <ele>315.6</ele>
        <time>2025-05-18T11:04:51Z</time>
      </trkpt>
      <trkpt lat="45.65838" lon="5.2107">
        <ele>315.6</ele>
        <time>2025-05-18T11:04:52Z</time>
      </trkpt>
      <trkpt lat="45.6584" lon="5.21071">
        <ele>316</ele>
        <time>2025-05-18T11:04:53Z</time>
      </trkpt>
      <trkpt lat="45.65842" lon="5.21073">
        <ele>316.2</ele>
        <time>2025-05-18T11:04:54Z</time>
      </trkpt>
      <trkpt lat="45.65844" lon="5.21075">
        <ele>316.2</ele>
        <time>2025-05-18T11:04:55Z</time>
      </trkpt>
      <trkpt lat="45.65846" lon="5.21078">
        <ele>316.6</ele>
        <time>2025-05-18T11:04:56Z</time>
      </trkpt>
      <trkpt lat="45.65848" lon="5.2108">
        <ele>316.6</ele>
        <time>2025-05-18T11:04:57Z</time>
      </trkpt>
      <trkpt lat="45.65849" lon="5.21081">
        <ele>316.8</ele>
        <time>2025-05-18T11:04:58Z</time>
      </trkpt>
      <trkpt lat="45.65851" lon="5.21083">
        <ele>316.8</ele>
        <time>2025-05-18T11:04:59Z</time>
      </trkpt>
      <trkpt lat="45.65852" lon="5.21085">
        <ele>316.8</ele>
        <time>2025-05-18T11:05:00Z</time>
      </trkpt>
      <trkpt lat="45.65853" lon="5.21087">
        <ele>317</ele>
        <time>2025-05-18T11:05:01Z</time>
      </trkpt>
      <trkpt lat="45.65854" lon="5.21089">
        <ele>317</ele>
        <time>2025-05-18T11:05:02Z</time>
      </trkpt>
      <trkpt lat="45.65855" lon="5.21091">
        <ele>317</ele>
        <time>2025-05-18T11:05:03Z</time>
      </trkpt>
      <trkpt lat="45.65856" lon="5.21093">
        <ele>317.6</ele>
        <time>2025-05-18T11:05:04Z</time>
      </trkpt>
      <trkpt lat="45.65857" lon="5.21095">
        <ele>317.6</ele>
        <time>2025-05-18T11:05:05Z</time>
      </trkpt>
      <trkpt lat="45.65858" lon="5.21096">
        <ele>317.8</ele>
        <time>2025-05-18T11:05:06Z</time>
      </trkpt>
      <trkpt lat="45.65859" lon="5.21098">
        <ele>318</ele>
        <time>2025-05-18T11:05:07Z</time>
      </trkpt>
      <trkpt lat="45.6586" lon="5.21099">
        <ele>318.4</ele>
        <time>2025-05-18T11:05:08Z</time>
      </trkpt>
      <trkpt lat="45.65862" lon="5.21101">
        <ele>318.8</ele>
        <time>2025-05-18T11:05:09Z</time>
      </trkpt>
      <trkpt lat="45.65863" lon="5.21103">
        <ele>318.8</ele>
        <time>2025-05-18T11:05:10Z</time>
      </trkpt>
      <trkpt lat="45.65865" lon="5.21104">
        <ele>319.2</ele>
        <time>2025-05-18T11:05:11Z</time>
      </trkpt>
      <trkpt lat="45.65866" lon="5.21105">
        <ele>319.2</ele>
        <time>2025-05-18T11:05:12Z</time>
      </trkpt>
      <trkpt lat="45.65868" lon="5.21106">
        <ele>319.6</ele>
        <time>2025-05-18T11:05:13Z</time>
      </trkpt>
      <trkpt lat="45.65868" lon="5.21108">
        <ele>319.6</ele>
        <time>2025-05-18T11:05:14Z</time>
      </trkpt>
      <trkpt lat="45.65869" lon="5.21109">
        <ele>319.8</ele>
        <time>2025-05-18T11:05:15Z</time>
      </trkpt>
      <trkpt lat="45.6587" lon="5.21111">
        <ele>320.2</ele>
        <time>2025-05-18T11:05:16Z</time>
      </trkpt>
      <trkpt lat="45.65871" lon="5.21112">
        <ele>320.2</ele>
        <time>2025-05-18T11:05:17Z</time>
      </trkpt>
      <trkpt lat="45.65871" lon="5.21114">
        <ele>320.4</ele>
        <time>2025-05-18T11:05:18Z</time>
      </trkpt>
      <trkpt lat="45.65872" lon="5.21115">
        <ele>320.6</ele>
        <time>2025-05-18T11:05:19Z</time>
      </trkpt>
      <trkpt lat="45.65873" lon="5.21117">
        <ele>320.6</ele>
        <time>2025-05-18T11:05:20Z</time>
      </trkpt>
      <trkpt lat="45.65875" lon="5.21119">
        <ele>321</ele>
        <time>2025-05-18T11:05:21Z</time>
      </trkpt>
      <trkpt lat="45.65877" lon="5.21121">
        <ele>321</ele>
        <time>2025-05-18T11:05:22Z</time>
      </trkpt>
      <trkpt lat="45.65878" lon="5.21123">
        <ele>321.4</ele>
        <time>2025-05-18T11:05:23Z</time>
      </trkpt>
      <trkpt lat="45.65879" lon="5.21125">
        <ele>321.4</ele>
        <time>2025-05-18T11:05:24Z</time>
      </trkpt>
      <trkpt lat="45.6588" lon="5.21127">
        <ele>321.6</ele>
        <time>2025-05-18T11:05:25Z</time>
      </trkpt>
      <trkpt lat="45.65881" lon="5.21129">
        <ele>321.6</ele>
        <time>2025-05-18T11:05:26Z</time>
      </trkpt>
      <trkpt lat="45.65882" lon="5.21131">
        <ele>321.6</ele>
        <time>2025-05-18T11:05:27Z</time>
      </trkpt>
      <trkpt lat="45.65883" lon="5.21133">
        <ele>321.8</ele>
        <time>2025-05-18T11:05:28Z</time>
      </trkpt>
      <trkpt lat="45.65883" lon="5.21135">
        <ele>321.8</ele>
        <time>2025-05-18T11:05:29Z</time>
      </trkpt>
      <trkpt lat="45.65884" lon="5.21137">
        <ele>321.8</ele>
        <time>2025-05-18T11:05:30Z</time>
      </trkpt>
      <trkpt lat="45.65885" lon="5.2114">
        <ele>321.8</ele>
        <time>2025-05-18T11:05:31Z</time>
      </trkpt>
      <trkpt lat="45.65886" lon="5.21142">
        <ele>322</ele>
        <time>2025-05-18T11:05:32Z</time>
      </trkpt>
      <trkpt lat="45.65887" lon="5.21145">
        <ele>322.2</ele>
        <time>2025-05-18T11:05:33Z</time>
      </trkpt>
      <trkpt lat="45.65888" lon="5.21148">
        <ele>322.2</ele>
        <time>2025-05-18T11:05:34Z</time>
      </trkpt>
      <trkpt lat="45.65888" lon="5.21151">
        <ele>322.2</ele>
        <time>2025-05-18T11:05:35Z</time>
      </trkpt>
      <trkpt lat="45.65889" lon="5.21153">
        <ele>322.6</ele>
        <time>2025-05-18T11:05:36Z</time>
      </trkpt>
      <trkpt lat="45.65889" lon="5.21156">
        <ele>323</ele>
        <time>2025-05-18T11:05:37Z</time>
      </trkpt>
      <trkpt lat="45.65889" lon="5.21158">
        <ele>323</ele>
        <time>2025-05-18T11:05:38Z</time>
      </trkpt>
      <trkpt lat="45.65889" lon="5.21161">
        <ele>323.2</ele>
        <time>2025-05-18T11:05:39Z</time>
      </trkpt>
      <trkpt lat="45.6589" lon="5.21164">
        <ele>323.4</ele>
        <time>2025-05-18T11:05:40Z</time>
      </trkpt>
      <trkpt lat="45.65891" lon="5.21167">
        <ele>323.4</ele>
        <time>2025-05-18T11:05:41Z</time>
      </trkpt>
      <trkpt lat="45.65892" lon="5.21169">
        <ele>323.8</ele>
        <time>2025-05-18T11:05:42Z</time>
      </trkpt>
      <trkpt lat="45.65892" lon="5.21171">
        <ele>323.8</ele>
        <time>2025-05-18T11:05:43Z</time>
      </trkpt>
      <trkpt lat="45.65891" lon="5.21173">
        <ele>323.8</ele>
        <time>2025-05-18T11:05:44Z</time>
      </trkpt>
      <trkpt lat="45.65891" lon="5.21175">
        <ele>324</ele>
        <time>2025-05-18T11:05:45Z</time>
      </trkpt>
      <trkpt lat="45.65892" lon="5.21178">
        <ele>324.4</ele>
        <time>2025-05-18T11:05:46Z</time>
      </trkpt>
      <trkpt lat="45.65892" lon="5.2118">
        <ele>324.4</ele>
        <time>2025-05-18T11:05:47Z</time>
      </trkpt>
      <trkpt lat="45.65893" lon="5.21181">
        <ele>324.8</ele>
        <time>2025-05-18T11:05:48Z</time>
      </trkpt>
      <trkpt lat="45.65894" lon="5.21183">
        <ele>325.2</ele>
        <time>2025-05-18T11:05:49Z</time>
      </trkpt>
      <trkpt lat="45.65894" lon="5.21185">
        <ele>325.4</ele>
        <time>2025-05-18T11:05:50Z</time>
      </trkpt>
      <trkpt lat="45.65895" lon="5.21186">
        <ele>325.8</ele>
        <time>2025-05-18T11:05:51Z</time>
      </trkpt>
      <trkpt lat="45.65895" lon="5.21188">
        <ele>326</ele>
        <time>2025-05-18T11:05:52Z</time>
      </trkpt>
      <trkpt lat="45.65894" lon="5.21191">
        <ele>326</ele>
        <time>2025-05-18T11:05:53Z</time>
      </trkpt>
      <trkpt lat="45.65894" lon="5.21192">
        <ele>326</ele>
        <time>2025-05-18T11:05:54Z</time>
      </trkpt>
      <trkpt lat="45.65894" lon="5.21194">
        <ele>326</ele>
        <time>2025-05-18T11:05:55Z</time>
      </trkpt>
      <trkpt lat="45.65894" lon="5.21196">
        <ele>326.4</ele>
        <time>2025-05-18T11:05:56Z</time>
      </trkpt>
      <trkpt lat="45.65895" lon="5.21198">
        <ele>326.8</ele>
        <time>2025-05-18T11:05:57Z</time>
      </trkpt>
      <trkpt lat="45.65895" lon="5.212">
        <ele>327.2</ele>
        <time>2025-05-18T11:05:58Z</time>
      </trkpt>
      <trkpt lat="45.65896" lon="5.21202">
        <ele>327.2</ele>
        <time>2025-05-18T11:05:59Z</time>
      </trkpt>
      <trkpt lat="45.65896" lon="5.21204">
        <ele>327</ele>
        <time>2025-05-18T11:06:00Z</time>
      </trkpt>
      <trkpt lat="45.65896" lon="5.21206">
        <ele>327</ele>
        <time>2025-05-18T11:06:01Z</time>
      </trkpt>
      <trkpt lat="45.65895" lon="5.21208">
        <ele>327.2</ele>
        <time>2025-05-18T11:06:02Z</time>
      </trkpt>
      <trkpt lat="45.65894" lon="5.2121">
        <ele>327.4</ele>
        <time>2025-05-18T11:06:03Z</time>
      </trkpt>
      <trkpt lat="45.65893" lon="5.21212">
        <ele>327.8</ele>
        <time>2025-05-18T11:06:04Z</time>
      </trkpt>
      <trkpt lat="45.65893" lon="5.21213">
        <ele>328</ele>
        <time>2025-05-18T11:06:05Z</time>
      </trkpt>
      <trkpt lat="45.65892" lon="5.21215">
        <ele>328.4</ele>
        <time>2025-05-18T11:06:06Z</time>
      </trkpt>
      <trkpt lat="45.65892" lon="5.21216">
        <ele>328.4</ele>
        <time>2025-05-18T11:06:07Z</time>
      </trkpt>
      <trkpt lat="45.65891" lon="5.21218">
        <ele>328.8</ele>
        <time>2025-05-18T11:06:08Z</time>
      </trkpt>
      <trkpt lat="45.6589" lon="5.2122">
        <ele>328.8</ele>
        <time>2025-05-18T11:06:09Z</time>
      </trkpt>
      <trkpt lat="45.6589" lon="5.21222">
        <ele>329.2</ele>
        <time>2025-05-18T11:06:10Z</time>
      </trkpt>
      <trkpt lat="45.6589" lon="5.21223">
        <ele>329.4</ele>
        <time>2025-05-18T11:06:11Z</time>
      </trkpt>
      <trkpt lat="45.6589" lon="5.21225">
        <ele>329.8</ele>
        <time>2025-05-18T11:06:12Z</time>
      </trkpt>
      <trkpt lat="45.65889" lon="5.21227">
        <ele>329.4</ele>
        <time>2025-05-18T11:06:13Z</time>
      </trkpt>
      <trkpt lat="45.65889" lon="5.21227">
        <ele>329.6</ele>
        <time>2025-05-18T11:06:14Z</time>
      </trkpt>
      <trkpt lat="45.65888" lon="5.21229">
        <ele>330</ele>
        <time>2025-05-18T11:06:15Z</time>
      </trkpt>
      <trkpt lat="45.65888" lon="5.21231">
        <ele>330.4</ele>
        <time>2025-05-18T11:06:16Z</time>
      </trkpt>
      <trkpt lat="45.65888" lon="5.21233">
        <ele>330.4</ele>
        <time>2025-05-18T11:06:17Z</time>
      </trkpt>
      <trkpt lat="45.65889" lon="5.21233">
        <ele>330.8</ele>
        <time>2025-05-18T11:06:18Z</time>
      </trkpt>
      <trkpt lat="45.65888" lon="5.21235">
        <ele>331.2</ele>
        <time>2025-05-18T11:06:19Z</time>
      </trkpt>
      <trkpt lat="45.65888" lon="5.21238">
        <ele>331.2</ele>
        <time>2025-05-18T11:06:20Z</time>
      </trkpt>
      <trkpt lat="45.65887" lon="5.2124">
        <ele>331.4</ele>
        <time>2025-05-18T11:06:21Z</time>
      </trkpt>
      <trkpt lat="45.65886" lon="5.21242">
        <ele>331.6</ele>
        <time>2025-05-18T11:06:22Z</time>
      </trkpt>
      <trkpt lat="45.65886" lon="5.21244">
        <ele>331.6</ele>
        <time>2025-05-18T11:06:23Z</time>
      </trkpt>
      <trkpt lat="45.65886" lon="5.21245">
        <ele>332</ele>
        <time>2025-05-18T11:06:24Z</time>
      </trkpt>
      <trkpt lat="45.65886" lon="5.21247">
        <ele>332</ele>
        <time>2025-05-18T11:06:25Z</time>
      </trkpt>
      <trkpt lat="45.65885" lon="5.21249">
        <ele>332</ele>
        <time>2025-05-18T11:06:26Z</time>
      </trkpt>
      <trkpt lat="45.65884" lon="5.2125">
        <ele>332</ele>
        <time>2025-05-18T11:06:27Z</time>
      </trkpt>
      <trkpt lat="45.65883" lon="5.21252">
        <ele>332.4</ele>
        <time>2025-05-18T11:06:28Z</time>
      </trkpt>
      <trkpt lat="45.65881" lon="5.21253">
        <ele>332.4</ele>
        <time>2025-05-18T11:06:29Z</time>
      </trkpt>
      <trkpt lat="45.65879" lon="5.21254">
        <ele>332.4</ele>
        <time>2025-05-18T11:06:30Z</time>
      </trkpt>
      <trkpt lat="45.65878" lon="5.21254">
        <ele>332.4</ele>
        <time>2025-05-18T11:06:31Z</time>
      </trkpt>
      <trkpt lat="45.65877" lon="5.21254">
        <ele>332.8</ele>
        <time>2025-05-18T11:06:32Z</time>
      </trkpt>
      <trkpt lat="45.65876" lon="5.21255">
        <ele>332.8</ele>
        <time>2025-05-18T11:06:33Z</time>
      </trkpt>
      <trkpt lat="45.65874" lon="5.21256">
        <ele>332.8</ele>
        <time>2025-05-18T11:06:34Z</time>
      </trkpt>
      <trkpt lat="45.65871" lon="5.21258">
        <ele>332.8</ele>
        <time>2025-05-18T11:06:35Z</time>
      </trkpt>
      <trkpt lat="45.65869" lon="5.21258">
        <ele>333</ele>
        <time>2025-05-18T11:06:36Z</time>
      </trkpt>
      <trkpt lat="45.65868" lon="5.21258">
        <ele>333</ele>
        <time>2025-05-18T11:06:37Z</time>
      </trkpt>
      <trkpt lat="45.65867" lon="5.21259">
        <ele>333</ele>
        <time>2025-05-18T11:06:38Z</time>
      </trkpt>
      <trkpt lat="45.65864" lon="5.21259">
        <ele>333.2</ele>
        <time>2025-05-18T11:06:39Z</time>
      </trkpt>
      <trkpt lat="45.65862" lon="5.2126">
        <ele>333.2</ele>
        <time>2025-05-18T11:06:40Z</time>
      </trkpt>
      <trkpt lat="45.65861" lon="5.2126">
        <ele>333.6</ele>
        <time>2025-05-18T11:06:41Z</time>
      </trkpt>
      <trkpt lat="45.65859" lon="5.2126">
        <ele>333.6</ele>
        <time>2025-05-18T11:06:42Z</time>
      </trkpt>
      <trkpt lat="45.65857" lon="5.2126">
        <ele>333.6</ele>
        <time>2025-05-18T11:06:43Z</time>
      </trkpt>
      <trkpt lat="45.65856" lon="5.21259">
        <ele>333.6</ele>
        <time>2025-05-18T11:06:44Z</time>
      </trkpt>
      <trkpt lat="45.65854" lon="5.21258">
        <ele>333.6</ele>
        <time>2025-05-18T11:06:45Z</time>
      </trkpt>
      <trkpt lat="45.65853" lon="5.21258">
        <ele>333.6</ele>
        <time>2025-05-18T11:06:46Z</time>
      </trkpt>
      <trkpt lat="45.65852" lon="5.21257">
        <ele>333.8</ele>
        <time>2025-05-18T11:06:47Z</time>
      </trkpt>
      <trkpt lat="45.65849" lon="5.21257">
        <ele>333.8</ele>
        <time>2025-05-18T11:06:48Z</time>
      </trkpt>
      <trkpt lat="45.65846" lon="5.21256">
        <ele>333.8</ele>
        <time>2025-05-18T11:06:49Z</time>
      </trkpt>
      <trkpt lat="45.65844" lon="5.21255">
        <ele>334</ele>
        <time>2025-05-18T11:06:50Z</time>
      </trkpt>
      <trkpt lat="45.65842" lon="5.21256">
        <ele>334.4</ele>
        <time>2025-05-18T11:06:51Z</time>
      </trkpt>
      <trkpt lat="45.6584" lon="5.21256">
        <ele>334.4</ele>
        <time>2025-05-18T11:06:52Z</time>
      </trkpt>
      <trkpt lat="45.65838" lon="5.21256">
        <ele>334.6</ele>
        <time>2025-05-18T11:06:53Z</time>
      </trkpt>
      <trkpt lat="45.65836" lon="5.21255">
        <ele>334.6</ele>
        <time>2025-05-18T11:06:54Z</time>
      </trkpt>
      <trkpt lat="45.65833" lon="5.21255">
        <ele>334.6</ele>
        <time>2025-05-18T11:06:55Z</time>
      </trkpt>
      <trkpt lat="45.65831" lon="5.21255">
        <ele>334.6</ele>
        <time>2025-05-18T11:06:56Z</time>
      </trkpt>
      <trkpt lat="45.65829" lon="5.21254">
        <ele>334.6</ele>
        <time>2025-05-18T11:06:57Z</time>
      </trkpt>
      <trkpt lat="45.65826" lon="5.21254">
        <ele>334.8</ele>
        <time>2025-05-18T11:06:58Z</time>
      </trkpt>
      <trkpt lat="45.65824" lon="5.21254">
        <ele>335</ele>
        <time>2025-05-18T11:06:59Z</time>
      </trkpt>
      <trkpt lat="45.65823" lon="5.21254">
        <ele>335</ele>
        <time>2025-05-18T11:07:00Z</time>
      </trkpt>
      <trkpt lat="45.65821" lon="5.21253">
        <ele>335</ele>
        <time>2025-05-18T11:07:01Z</time>
      </trkpt>
      <trkpt lat="45.65819" lon="5.21252">
        <ele>335.4</ele>
        <time>2025-05-18T11:07:02Z</time>
      </trkpt>
      <trkpt lat="45.65816" lon="5.21251">
        <ele>335.4</ele>
        <time>2025-05-18T11:07:03Z</time>
      </trkpt>
      <trkpt lat="45.65814" lon="5.21251">
        <ele>335.6</ele>
        <time>2025-05-18T11:07:04Z</time>
      </trkpt>
      <trkpt lat="45.65811" lon="5.2125">
        <ele>335.6</ele>
        <time>2025-05-18T11:07:05Z</time>
      </trkpt>
      <trkpt lat="45.65809" lon="5.2125">
        <ele>335.6</ele>
        <time>2025-05-18T11:07:06Z</time>
      </trkpt>
      <trkpt lat="45.65807" lon="5.2125">
        <ele>336</ele>
        <time>2025-05-18T11:07:07Z</time>
      </trkpt>
      <trkpt lat="45.65805" lon="5.21249">
        <ele>336</ele>
        <time>2025-05-18T11:07:08Z</time>
      </trkpt>
      <trkpt lat="45.65802" lon="5.21249">
        <ele>336</ele>
        <time>2025-05-18T11:07:09Z</time>
      </trkpt>
      <trkpt lat="45.65801" lon="5.21249">
        <ele>336</ele>
        <time>2025-05-18T11:07:10Z</time>
      </trkpt>
      <trkpt lat="45.658" lon="5.21249">
        <ele>336.2</ele>
        <time>2025-05-18T11:07:11Z</time>
      </trkpt>
      <trkpt lat="45.65797" lon="5.21249">
        <ele>336.2</ele>
        <time>2025-05-18T11:07:12Z</time>
      </trkpt>
      <trkpt lat="45.65796" lon="5.21249">
        <ele>336.2</ele>
        <time>2025-05-18T11:07:13Z</time>
      </trkpt>
      <trkpt lat="45.65794" lon="5.21249">
        <ele>336.4</ele>
        <time>2025-05-18T11:07:14Z</time>
      </trkpt>
      <trkpt lat="45.65792" lon="5.21249">
        <ele>336.4</ele>
        <time>2025-05-18T11:07:15Z</time>
      </trkpt>
      <trkpt lat="45.6579" lon="5.21249">
        <ele>336.8</ele>
        <time>2025-05-18T11:07:16Z</time>
      </trkpt>
      <trkpt lat="45.65788" lon="5.21249">
        <ele>336.8</ele>
        <time>2025-05-18T11:07:17Z</time>
      </trkpt>
      <trkpt lat="45.65785" lon="5.21248">
        <ele>337</ele>
        <time>2025-05-18T11:07:18Z</time>
      </trkpt>
      <trkpt lat="45.65783" lon="5.21248">
        <ele>336.2</ele>
        <time>2025-05-18T11:07:19Z</time>
      </trkpt>
      <trkpt lat="45.6578" lon="5.21247">
        <ele>336.6</ele>
        <time>2025-05-18T11:07:20Z</time>
      </trkpt>
      <trkpt lat="45.65779" lon="5.21247">
        <ele>336.6</ele>
        <time>2025-05-18T11:07:21Z</time>
      </trkpt>
      <trkpt lat="45.65777" lon="5.21247">
        <ele>337</ele>
        <time>2025-05-18T11:07:22Z</time>
      </trkpt>
      <trkpt lat="45.65776" lon="5.21246">
        <ele>337</ele>
        <time>2025-05-18T11:07:23Z</time>
      </trkpt>
      <trkpt lat="45.65774" lon="5.21246">
        <ele>337.2</ele>
        <time>2025-05-18T11:07:24Z</time>
      </trkpt>
      <trkpt lat="45.65772" lon="5.21245">
        <ele>337.2</ele>
        <time>2025-05-18T11:07:25Z</time>
      </trkpt>
      <trkpt lat="45.6577" lon="5.21244">
        <ele>337.8</ele>
        <time>2025-05-18T11:07:26Z</time>
      </trkpt>
      <trkpt lat="45.65768" lon="5.21243">
        <ele>337.8</ele>
        <time>2025-05-18T11:07:27Z</time>
      </trkpt>
      <trkpt lat="45.65766" lon="5.21242">
        <ele>337.8</ele>
        <time>2025-05-18T11:07:28Z</time>
      </trkpt>
      <trkpt lat="45.65764" lon="5.21241">
        <ele>337.8</ele>
        <time>2025-05-18T11:07:29Z</time>
      </trkpt>
      <trkpt lat="45.65762" lon="5.2124">
        <ele>338.2</ele>
        <time>2025-05-18T11:07:30Z</time>
      </trkpt>
      <trkpt lat="45.65759" lon="5.21238">
        <ele>338.6</ele>
        <time>2025-05-18T11:07:31Z</time>
      </trkpt>
      <trkpt lat="45.65758" lon="5.21237">
        <ele>338.4</ele>
        <time>2025-05-18T11:07:32Z</time>
      </trkpt>
      <trkpt lat="45.65756" lon="5.21235">
        <ele>338.4</ele>
        <time>2025-05-18T11:07:33Z</time>
      </trkpt>
      <trkpt lat="45.65754" lon="5.21234">
        <ele>338.6</ele>
        <time>2025-05-18T11:07:34Z</time>
      </trkpt>
      <trkpt lat="45.65753" lon="5.21232">
        <ele>338.8</ele>
        <time>2025-05-18T11:07:35Z</time>
      </trkpt>
      <trkpt lat="45.65751" lon="5.21232">
        <ele>338.4</ele>
        <time>2025-05-18T11:07:36Z</time>
      </trkpt>
      <trkpt lat="45.65749" lon="5.2123">
        <ele>338.8</ele>
        <time>2025-05-18T11:07:37Z</time>
      </trkpt>
      <trkpt lat="45.65747" lon="5.21229">
        <ele>339.2</ele>
        <time>2025-05-18T11:07:38Z</time>
      </trkpt>
      <trkpt lat="45.65745" lon="5.21228">
        <ele>339.6</ele>
        <time>2025-05-18T11:07:39Z</time>
      </trkpt>
      <trkpt lat="45.65743" lon="5.21227">
        <ele>339.6</ele>
        <time>2025-05-18T11:07:40Z</time>
      </trkpt>
      <trkpt lat="45.65741" lon="5.21227">
        <ele>340</ele>
        <time>2025-05-18T11:07:41Z</time>
      </trkpt>
      <trkpt lat="45.6574" lon="5.21226">
        <ele>340</ele>
        <time>2025-05-18T11:07:42Z</time>
      </trkpt>
      <trkpt lat="45.65739" lon="5.21226">
        <ele>340.2</ele>
        <time>2025-05-18T11:07:43Z</time>
      </trkpt>
      <trkpt lat="45.65738" lon="5.21226">
        <ele>340.2</ele>
        <time>2025-05-18T11:07:44Z</time>
      </trkpt>
      <trkpt lat="45.65738" lon="5.21227">
        <ele>340.6</ele>
        <time>2025-05-18T11:07:45Z</time>
      </trkpt>
      <trkpt lat="45.65738" lon="5.21227">
        <ele>340.6</ele>
        <time>2025-05-18T11:07:46Z</time>
      </trkpt>
      <trkpt lat="45.65735" lon="5.21226">
        <ele>340.6</ele>
        <time>2025-05-18T11:07:47Z</time>
      </trkpt>
      <trkpt lat="45.65733" lon="5.21225">
        <ele>340.8</ele>
        <time>2025-05-18T11:07:48Z</time>
      </trkpt>
      <trkpt lat="45.65731" lon="5.21223">
        <ele>340.8</ele>
        <time>2025-05-18T11:07:49Z</time>
      </trkpt>
      <trkpt lat="45.6573" lon="5.21223">
        <ele>341.2</ele>
        <time>2025-05-18T11:07:50Z</time>
      </trkpt>
      <trkpt lat="45.65729" lon="5.21221">
        <ele>341.2</ele>
        <time>2025-05-18T11:07:51Z</time>
      </trkpt>
      <trkpt lat="45.65727" lon="5.21219">
        <ele>341.2</ele>
        <time>2025-05-18T11:07:52Z</time>
      </trkpt>
      <trkpt lat="45.65726" lon="5.21218">
        <ele>341.2</ele>
        <time>2025-05-18T11:07:53Z</time>
      </trkpt>
      <trkpt lat="45.65725" lon="5.21218">
        <ele>341.2</ele>
        <time>2025-05-18T11:07:54Z</time>
      </trkpt>
      <trkpt lat="45.65725" lon="5.21218">
        <ele>341.2</ele>
        <time>2025-05-18T11:07:55Z</time>
      </trkpt>
      <trkpt lat="45.65725" lon="5.21218">
        <ele>341.2</ele>
        <time>2025-05-18T11:07:56Z</time>
      </trkpt>
      <trkpt lat="45.65668" lon="5.21205">
        <ele>338.4</ele>
        <time>2025-05-18T11:20:50Z</time>
      </trkpt>
      <trkpt lat="45.65665" lon="5.21204">
        <ele>339</ele>
        <time>2025-05-18T11:20:51Z</time>
      </trkpt>
      <trkpt lat="45.65663" lon="5.21203">
        <ele>339</ele>
        <time>2025-05-18T11:20:52Z</time>
      </trkpt>
      <trkpt lat="45.6566" lon="5.21201">
        <ele>339</ele>
        <time>2025-05-18T11:20:53Z</time>
      </trkpt>
      <trkpt lat="45.65657" lon="5.212">
        <ele>339.2</ele>
        <time>2025-05-18T11:20:54Z</time>
      </trkpt>
      <trkpt lat="45.65655" lon="5.21199">
        <ele>339</ele>
        <time>2025-05-18T11:20:55Z</time>
      </trkpt>
      <trkpt lat="45.65653" lon="5.21198">
        <ele>339</ele>
        <time>2025-05-18T11:20:56Z</time>
      </trkpt>
      <trkpt lat="45.6565" lon="5.21198">
        <ele>339</ele>
        <time>2025-05-18T11:20:57Z</time>
      </trkpt>
      <trkpt lat="45.65648" lon="5.21199">
        <ele>339.4</ele>
        <time>2025-05-18T11:20:58Z</time>
      </trkpt>
      <trkpt lat="45.65647" lon="5.21199">
        <ele>339.4</ele>
        <time>2025-05-18T11:20:59Z</time>
      </trkpt>
      <trkpt lat="45.65645" lon="5.21199">
        <ele>339.4</ele>
        <time>2025-05-18T11:21:00Z</time>
      </trkpt>
      <trkpt lat="45.65642" lon="5.21199">
        <ele>339.6</ele>
        <time>2025-05-18T11:21:01Z</time>
      </trkpt>
      <trkpt lat="45.65639" lon="5.21199">
        <ele>339.6</ele>
        <time>2025-05-18T11:21:02Z</time>
      </trkpt>
      <trkpt lat="45.65637" lon="5.21199">
        <ele>340.2</ele>
        <time>2025-05-18T11:21:03Z</time>
      </trkpt>
      <trkpt lat="45.65634" lon="5.21199">
        <ele>340.2</ele>
        <time>2025-05-18T11:21:04Z</time>
      </trkpt>
      <trkpt lat="45.65631" lon="5.21198">
        <ele>338.8</ele>
        <time>2025-05-18T11:21:05Z</time>
      </trkpt>
      <trkpt lat="45.65628" lon="5.21198">
        <ele>338.8</ele>
        <time>2025-05-18T11:21:06Z</time>
      </trkpt>
      <trkpt lat="45.65626" lon="5.21198">
        <ele>338.4</ele>
        <time>2025-05-18T11:21:07Z</time>
      </trkpt>
      <trkpt lat="45.65623" lon="5.21197">
        <ele>338.2</ele>
        <time>2025-05-18T11:21:08Z</time>
      </trkpt>
      <trkpt lat="45.6562" lon="5.21197">
        <ele>338.2</ele>
        <time>2025-05-18T11:21:09Z</time>
      </trkpt>
      <trkpt lat="45.6562" lon="5.21196">
        <ele>337.8</ele>
        <time>2025-05-18T11:21:10Z</time>
      </trkpt>
      <trkpt lat="45.65621" lon="5.21197">
        <ele>337.8</ele>
        <time>2025-05-18T11:21:11Z</time>
      </trkpt>
      <trkpt lat="45.65622" lon="5.21197">
        <ele>337.6</ele>
        <time>2025-05-18T11:21:12Z</time>
      </trkpt>
      <trkpt lat="45.6562" lon="5.21199">
        <ele>337.6</ele>
        <time>2025-05-18T11:21:25Z</time>
      </trkpt>
      <trkpt lat="45.65617" lon="5.212">
        <ele>337.6</ele>
        <time>2025-05-18T11:21:26Z</time>
      </trkpt>
      <trkpt lat="45.65614" lon="5.212">
        <ele>337</ele>
        <time>2025-05-18T11:21:27Z</time>
      </trkpt>
      <trkpt lat="45.6561" lon="5.212">
        <ele>337</ele>
        <time>2025-05-18T11:21:28Z</time>
      </trkpt>
      <trkpt lat="45.65606" lon="5.212">
        <ele>335.6</ele>
        <time>2025-05-18T11:21:29Z</time>
      </trkpt>
      <trkpt lat="45.65602" lon="5.212">
        <ele>335.6</ele>
        <time>2025-05-18T11:21:30Z</time>
      </trkpt>
      <trkpt lat="45.65598" lon="5.21201">
        <ele>335.4</ele>
        <time>2025-05-18T11:21:31Z</time>
      </trkpt>
      <trkpt lat="45.65594" lon="5.21204">
        <ele>335.4</ele>
        <time>2025-05-18T11:21:32Z</time>
      </trkpt>
      <trkpt lat="45.65591" lon="5.21204">
        <ele>335.4</ele>
        <time>2025-05-18T11:21:33Z</time>
      </trkpt>
      <trkpt lat="45.65589" lon="5.21203">
        <ele>335</ele>
        <time>2025-05-18T11:21:34Z</time>
      </trkpt>
      <trkpt lat="45.65584" lon="5.21206">
        <ele>334.6</ele>
        <time>2025-05-18T11:21:35Z</time>
      </trkpt>
      <trkpt lat="45.65582" lon="5.21207">
        <ele>335.2</ele>
        <time>2025-05-18T11:21:36Z</time>
      </trkpt>
      <trkpt lat="45.65578" lon="5.2121">
        <ele>335.2</ele>
        <time>2025-05-18T11:21:37Z</time>
      </trkpt>
      <trkpt lat="45.65576" lon="5.21211">
        <ele>335.2</ele>
        <time>2025-05-18T11:21:38Z</time>
      </trkpt>
      <trkpt lat="45.65571" lon="5.21214">
        <ele>335.2</ele>
        <time>2025-05-18T11:21:39Z</time>
      </trkpt>
      <trkpt lat="45.65569" lon="5.21216">
        <ele>334.8</ele>
        <time>2025-05-18T11:21:40Z</time>
      </trkpt>
      <trkpt lat="45.65566" lon="5.21219">
        <ele>334.6</ele>
        <time>2025-05-18T11:21:41Z</time>
      </trkpt>
      <trkpt lat="45.65563" lon="5.21223">
        <ele>334.6</ele>
        <time>2025-05-18T11:21:42Z</time>
      </trkpt>
      <trkpt lat="45.65559" lon="5.21228">
        <ele>335</ele>
        <time>2025-05-18T11:21:43Z</time>
      </trkpt>
      <trkpt lat="45.65556" lon="5.21232">
        <ele>334.4</ele>
        <time>2025-05-18T11:21:44Z</time>
      </trkpt>
      <trkpt lat="45.65554" lon="5.21234">
        <ele>334.4</ele>
        <time>2025-05-18T11:21:45Z</time>
      </trkpt>
      <trkpt lat="45.6555" lon="5.21239">
        <ele>334.2</ele>
        <time>2025-05-18T11:21:46Z</time>
      </trkpt>
      <trkpt lat="45.65546" lon="5.21241">
        <ele>334.2</ele>
        <time>2025-05-18T11:21:47Z</time>
      </trkpt>
      <trkpt lat="45.65543" lon="5.21244">
        <ele>334.2</ele>
        <time>2025-05-18T11:21:48Z</time>
      </trkpt>
      <trkpt lat="45.65543" lon="5.21248">
        <ele>334.2</ele>
        <time>2025-05-18T11:21:49Z</time>
      </trkpt>
      <trkpt lat="45.65538" lon="5.21251">
        <ele>334</ele>
        <time>2025-05-18T11:21:50Z</time>
      </trkpt>
      <trkpt lat="45.65537" lon="5.21257">
        <ele>334</ele>
        <time>2025-05-18T11:21:51Z</time>
      </trkpt>
      <trkpt lat="45.65537" lon="5.2126">
        <ele>334</ele>
        <time>2025-05-18T11:21:52Z</time>
      </trkpt>
      <trkpt lat="45.65535" lon="5.21265">
        <ele>334</ele>
        <time>2025-05-18T11:21:53Z</time>
      </trkpt>
      <trkpt lat="45.65534" lon="5.21269">
        <ele>334.4</ele>
        <time>2025-05-18T11:21:54Z</time>
      </trkpt>
      <trkpt lat="45.65529" lon="5.21277">
        <ele>334.4</ele>
        <time>2025-05-18T11:21:55Z</time>
      </trkpt>
      <trkpt lat="45.65526" lon="5.21281">
        <ele>334.4</ele>
        <time>2025-05-18T11:21:56Z</time>
      </trkpt>
      <trkpt lat="45.65525" lon="5.21288">
        <ele>334</ele>
        <time>2025-05-18T11:21:57Z</time>
      </trkpt>
      <trkpt lat="45.65519" lon="5.21293">
        <ele>333.8</ele>
        <time>2025-05-18T11:21:58Z</time>
      </trkpt>
      <trkpt lat="45.65517" lon="5.21295">
        <ele>333.8</ele>
        <time>2025-05-18T11:21:59Z</time>
      </trkpt>
      <trkpt lat="45.65517" lon="5.21295">
        <ele>333.8</ele>
        <time>2025-05-18T11:22:00Z</time>
      </trkpt>
      <trkpt lat="45.65515" lon="5.21298">
        <ele>333.8</ele>
        <time>2025-05-18T11:22:01Z</time>
      </trkpt>
      <trkpt lat="45.65514" lon="5.21301">
        <ele>332.8</ele>
        <time>2025-05-18T11:22:02Z</time>
      </trkpt>
      <trkpt lat="45.65512" lon="5.21305">
        <ele>332.4</ele>
        <time>2025-05-18T11:22:03Z</time>
      </trkpt>
      <trkpt lat="45.65511" lon="5.21308">
        <ele>332.4</ele>
        <time>2025-05-18T11:22:04Z</time>
      </trkpt>
      <trkpt lat="45.65507" lon="5.2131">
        <ele>332.8</ele>
        <time>2025-05-18T11:22:05Z</time>
      </trkpt>
      <trkpt lat="45.65506" lon="5.21313">
        <ele>333</ele>
        <time>2025-05-18T11:22:06Z</time>
      </trkpt>
      <trkpt lat="45.65504" lon="5.21317">
        <ele>332.6</ele>
        <time>2025-05-18T11:22:07Z</time>
      </trkpt>
      <trkpt lat="45.65501" lon="5.21323">
        <ele>332</ele>
        <time>2025-05-18T11:22:08Z</time>
      </trkpt>
      <trkpt lat="45.65502" lon="5.21327">
        <ele>331.8</ele>
        <time>2025-05-18T11:22:09Z</time>
      </trkpt>
      <trkpt lat="45.65501" lon="5.21331">
        <ele>331.4</ele>
        <time>2025-05-18T11:22:10Z</time>
      </trkpt>
      <trkpt lat="45.65499" lon="5.21337">
        <ele>331.4</ele>
        <time>2025-05-18T11:22:11Z</time>
      </trkpt>
      <trkpt lat="45.65498" lon="5.21342">
        <ele>331</ele>
        <time>2025-05-18T11:22:12Z</time>
      </trkpt>
      <trkpt lat="45.65495" lon="5.21346">
        <ele>331.2</ele>
        <time>2025-05-18T11:22:13Z</time>
      </trkpt>
      <trkpt lat="45.65492" lon="5.21352">
        <ele>331.2</ele>
        <time>2025-05-18T11:22:14Z</time>
      </trkpt>
      <trkpt lat="45.65491" lon="5.21356">
        <ele>331.2</ele>
        <time>2025-05-18T11:22:15Z</time>
      </trkpt>
      <trkpt lat="45.6549" lon="5.21359">
        <ele>331.2</ele>
        <time>2025-05-18T11:22:16Z</time>
      </trkpt>
      <trkpt lat="45.65485" lon="5.21362">
        <ele>331</ele>
        <time>2025-05-18T11:22:17Z</time>
      </trkpt>
      <trkpt lat="45.65483" lon="5.21363">
        <ele>331.4</ele>
        <time>2025-05-18T11:22:18Z</time>
      </trkpt>
      <trkpt lat="45.65482" lon="5.21366">
        <ele>331.4</ele>
        <time>2025-05-18T11:22:19Z</time>
      </trkpt>
      <trkpt lat="45.6548" lon="5.21368">
        <ele>330.8</ele>
        <time>2025-05-18T11:22:20Z</time>
      </trkpt>
      <trkpt lat="45.65477" lon="5.21371">
        <ele>330.6</ele>
        <time>2025-05-18T11:22:21Z</time>
      </trkpt>
      <trkpt lat="45.65471" lon="5.21374">
        <ele>330.6</ele>
        <time>2025-05-18T11:22:22Z</time>
      </trkpt>
      <trkpt lat="45.65467" lon="5.21376">
        <ele>330.2</ele>
        <time>2025-05-18T11:22:23Z</time>
      </trkpt>
      <trkpt lat="45.65463" lon="5.21378">
        <ele>330.2</ele>
        <time>2025-05-18T11:22:24Z</time>
      </trkpt>
      <trkpt lat="45.6546" lon="5.2138">
        <ele>330.2</ele>
        <time>2025-05-18T11:22:25Z</time>
      </trkpt>
      <trkpt lat="45.65455" lon="5.21381">
        <ele>330.2</ele>
        <time>2025-05-18T11:22:26Z</time>
      </trkpt>
      <trkpt lat="45.65451" lon="5.21383">
        <ele>330.2</ele>
        <time>2025-05-18T11:22:27Z</time>
      </trkpt>
      <trkpt lat="45.6545" lon="5.21383">
        <ele>330.2</ele>
        <time>2025-05-18T11:22:28Z</time>
      </trkpt>
      <trkpt lat="45.65445" lon="5.21387">
        <ele>330.4</ele>
        <time>2025-05-18T11:22:29Z</time>
      </trkpt>
      <trkpt lat="45.65441" lon="5.21389">
        <ele>330.8</ele>
        <time>2025-05-18T11:22:30Z</time>
      </trkpt>
      <trkpt lat="45.6544" lon="5.21392">
        <ele>331.2</ele>
        <time>2025-05-18T11:22:31Z</time>
      </trkpt>
      <trkpt lat="45.65436" lon="5.21395">
        <ele>331.2</ele>
        <time>2025-05-18T11:22:32Z</time>
      </trkpt>
      <trkpt lat="45.65432" lon="5.21395">
        <ele>331.2</ele>
        <time>2025-05-18T11:22:33Z</time>
      </trkpt>
      <trkpt lat="45.65428" lon="5.21396">
        <ele>331.2</ele>
        <time>2025-05-18T11:22:34Z</time>
      </trkpt>
      <trkpt lat="45.65426" lon="5.21397">
        <ele>331.2</ele>
        <time>2025-05-18T11:22:35Z</time>
      </trkpt>
      <trkpt lat="45.65424" lon="5.21397">
        <ele>331.2</ele>
        <time>2025-05-18T11:22:36Z</time>
      </trkpt>
      <trkpt lat="45.65422" lon="5.21398">
        <ele>331.8</ele>
        <time>2025-05-18T11:22:37Z</time>
      </trkpt>
      <trkpt lat="45.6542" lon="5.214">
        <ele>332.6</ele>
        <time>2025-05-18T11:22:38Z</time>
      </trkpt>
      <trkpt lat="45.65418" lon="5.21402">
        <ele>332.6</ele>
        <time>2025-05-18T11:22:39Z</time>
      </trkpt>
      <trkpt lat="45.65416" lon="5.21405">
        <ele>332.2</ele>
        <time>2025-05-18T11:22:40Z</time>
      </trkpt>
      <trkpt lat="45.65412" lon="5.21407">
        <ele>332.2</ele>
        <time>2025-05-18T11:22:41Z</time>
      </trkpt>
      <trkpt lat="45.6541" lon="5.21409">
        <ele>331.8</ele>
        <time>2025-05-18T11:22:42Z</time>
      </trkpt>
      <trkpt lat="45.65407" lon="5.21412">
        <ele>331.8</ele>
        <time>2025-05-18T11:22:43Z</time>
      </trkpt>
      <trkpt lat="45.65405" lon="5.21414">
        <ele>331.6</ele>
        <time>2025-05-18T11:22:44Z</time>
      </trkpt>
      <trkpt lat="45.65403" lon="5.21417">
        <ele>331.6</ele>
        <time>2025-05-18T11:22:45Z</time>
      </trkpt>
      <trkpt lat="45.65401" lon="5.2142">
        <ele>331.6</ele>
        <time>2025-05-18T11:22:46Z</time>
      </trkpt>
      <trkpt lat="45.65399" lon="5.21422">
        <ele>332.2</ele>
        <time>2025-05-18T11:22:47Z</time>
      </trkpt>
      <trkpt lat="45.65397" lon="5.21425">
        <ele>332</ele>
        <time>2025-05-18T11:22:48Z</time>
      </trkpt>
      <trkpt lat="45.65397" lon="5.21429">
        <ele>332</ele>
        <time>2025-05-18T11:22:49Z</time>
      </trkpt>
      <trkpt lat="45.65399" lon="5.21433">
        <ele>332</ele>
        <time>2025-05-18T11:22:50Z</time>
      </trkpt>
      <trkpt lat="45.65401" lon="5.21434">
        <ele>332</ele>
        <time>2025-05-18T11:22:51Z</time>
      </trkpt>
      <trkpt lat="45.65404" lon="5.21434">
        <ele>332</ele>
        <time>2025-05-18T11:22:52Z</time>
      </trkpt>
      <trkpt lat="45.65407" lon="5.21435">
        <ele>332.4</ele>
        <time>2025-05-18T11:22:53Z</time>
      </trkpt>
      <trkpt lat="45.65409" lon="5.21436">
        <ele>332.4</ele>
        <time>2025-05-18T11:22:54Z</time>
      </trkpt>
      <trkpt lat="45.65412" lon="5.21436">
        <ele>332.4</ele>
        <time>2025-05-18T11:22:55Z</time>
      </trkpt>
      <trkpt lat="45.65413" lon="5.21436">
        <ele>332.6</ele>
        <time>2025-05-18T11:22:56Z</time>
      </trkpt>
      <trkpt lat="45.65416" lon="5.21436">
        <ele>333.2</ele>
        <time>2025-05-18T11:22:57Z</time>
      </trkpt>
      <trkpt lat="45.65419" lon="5.21435">
        <ele>333.4</ele>
        <time>2025-05-18T11:22:58Z</time>
      </trkpt>
      <trkpt lat="45.65421" lon="5.21436">
        <ele>333.4</ele>
        <time>2025-05-18T11:22:59Z</time>
      </trkpt>
      <trkpt lat="45.65423" lon="5.21435">
        <ele>333.4</ele>
        <time>2025-05-18T11:23:00Z</time>
      </trkpt>
      <trkpt lat="45.65425" lon="5.21435">
        <ele>333.4</ele>
        <time>2025-05-18T11:23:01Z</time>
      </trkpt>
      <trkpt lat="45.65426" lon="5.21435">
        <ele>333.8</ele>
        <time>2025-05-18T11:23:02Z</time>
      </trkpt>
      <trkpt lat="45.65427" lon="5.21434">
        <ele>333.8</ele>
        <time>2025-05-18T11:23:03Z</time>
      </trkpt>
      <trkpt lat="45.65428" lon="5.21434">
        <ele>334</ele>
        <time>2025-05-18T11:23:04Z</time>
      </trkpt>
      <trkpt lat="45.65428" lon="5.21433">
        <ele>334</ele>
        <time>2025-05-18T11:23:05Z</time>
      </trkpt>
      <trkpt lat="45.65429" lon="5.21432">
        <ele>334.8</ele>
        <time>2025-05-18T11:23:06Z</time>
      </trkpt>
      <trkpt lat="45.6543" lon="5.21431">
        <ele>334.8</ele>
        <time>2025-05-18T11:23:07Z</time>
      </trkpt>
      <trkpt lat="45.65432" lon="5.2143">
        <ele>334.8</ele>
        <time>2025-05-18T11:23:08Z</time>
      </trkpt>
      <trkpt lat="45.65433" lon="5.2143">
        <ele>335.2</ele>
        <time>2025-05-18T11:23:09Z</time>
      </trkpt>
      <trkpt lat="45.65435" lon="5.2143">
        <ele>335.2</ele>
        <time>2025-05-18T11:23:10Z</time>
      </trkpt>
      <trkpt lat="45.65436" lon="5.21431">
        <ele>335.2</ele>
        <time>2025-05-18T11:23:11Z</time>
      </trkpt>
      <trkpt lat="45.65437" lon="5.21431">
        <ele>335.6</ele>
        <time>2025-05-18T11:23:12Z</time>
      </trkpt>
      <trkpt lat="45.65439" lon="5.21431">
        <ele>335.6</ele>
        <time>2025-05-18T11:23:13Z</time>
      </trkpt>
      <trkpt lat="45.65441" lon="5.2143">
        <ele>336.2</ele>
        <time>2025-05-18T11:23:14Z</time>
      </trkpt>
      <trkpt lat="45.65443" lon="5.2143">
        <ele>336.2</ele>
        <time>2025-05-18T11:23:15Z</time>
      </trkpt>
      <trkpt lat="45.65444" lon="5.21431">
        <ele>336.2</ele>
        <time>2025-05-18T11:23:16Z</time>
      </trkpt>
      <trkpt lat="45.65446" lon="5.21432">
        <ele>336.4</ele>
        <time>2025-05-18T11:23:17Z</time>
      </trkpt>
      <trkpt lat="45.65447" lon="5.21432">
        <ele>337</ele>
        <time>2025-05-18T11:23:18Z</time>
      </trkpt>
      <trkpt lat="45.65449" lon="5.21432">
        <ele>337.2</ele>
        <time>2025-05-18T11:23:19Z</time>
      </trkpt>
      <trkpt lat="45.6545" lon="5.21432">
        <ele>337.2</ele>
        <time>2025-05-18T11:23:20Z</time>
      </trkpt>
      <trkpt lat="45.65451" lon="5.21432">
        <ele>337.2</ele>
        <time>2025-05-18T11:23:21Z</time>
      </trkpt>
      <trkpt lat="45.65453" lon="5.21432">
        <ele>337.4</ele>
        <time>2025-05-18T11:23:22Z</time>
      </trkpt>
      <trkpt lat="45.65455" lon="5.21433">
        <ele>337.8</ele>
        <time>2025-05-18T11:23:23Z</time>
      </trkpt>
      <trkpt lat="45.65456" lon="5.21434">
        <ele>337.8</ele>
        <time>2025-05-18T11:23:24Z</time>
      </trkpt>
      <trkpt lat="45.65458" lon="5.21435">
        <ele>337.8</ele>
        <time>2025-05-18T11:23:25Z</time>
      </trkpt>
      <trkpt lat="45.65459" lon="5.21437">
        <ele>338</ele>
        <time>2025-05-18T11:23:26Z</time>
      </trkpt>
      <trkpt lat="45.65461" lon="5.21437">
        <ele>338.2</ele>
        <time>2025-05-18T11:23:27Z</time>
      </trkpt>
      <trkpt lat="45.65462" lon="5.21438">
        <ele>338.6</ele>
        <time>2025-05-18T11:23:28Z</time>
      </trkpt>
      <trkpt lat="45.65464" lon="5.21438">
        <ele>338.8</ele>
        <time>2025-05-18T11:23:29Z</time>
      </trkpt>
      <trkpt lat="45.65466" lon="5.21438">
        <ele>338.8</ele>
        <time>2025-05-18T11:23:30Z</time>
      </trkpt>
      <trkpt lat="45.65467" lon="5.21439">
        <ele>338.8</ele>
        <time>2025-05-18T11:23:31Z</time>
      </trkpt>
      <trkpt lat="45.65469" lon="5.21439">
        <ele>339</ele>
        <time>2025-05-18T11:23:32Z</time>
      </trkpt>
      <trkpt lat="45.6547" lon="5.2144">
        <ele>339</ele>
        <time>2025-05-18T11:23:33Z</time>
      </trkpt>
      <trkpt lat="45.65472" lon="5.21442">
        <ele>339</ele>
        <time>2025-05-18T11:23:34Z</time>
      </trkpt>
      <trkpt lat="45.65473" lon="5.21443">
        <ele>339</ele>
        <time>2025-05-18T11:23:35Z</time>
      </trkpt>
      <trkpt lat="45.65474" lon="5.21445">
        <ele>339</ele>
        <time>2025-05-18T11:23:36Z</time>
      </trkpt>
      <trkpt lat="45.65475" lon="5.21447">
        <ele>339.2</ele>
        <time>2025-05-18T11:23:37Z</time>
      </trkpt>
      <trkpt lat="45.65477" lon="5.21449">
        <ele>339.2</ele>
        <time>2025-05-18T11:23:38Z</time>
      </trkpt>
      <trkpt lat="45.65479" lon="5.21451">
        <ele>339.2</ele>
        <time>2025-05-18T11:23:39Z</time>
      </trkpt>
      <trkpt lat="45.65481" lon="5.21454">
        <ele>339.2</ele>
        <time>2025-05-18T11:23:40Z</time>
      </trkpt>
      <trkpt lat="45.65483" lon="5.21455">
        <ele>339.2</ele>
        <time>2025-05-18T11:23:41Z</time>
      </trkpt>
      <trkpt lat="45.65484" lon="5.21457">
        <ele>339.2</ele>
        <time>2025-05-18T11:23:42Z</time>
      </trkpt>
      <trkpt lat="45.65485" lon="5.21458">
        <ele>339.6</ele>
        <time>2025-05-18T11:23:43Z</time>
      </trkpt>
      <trkpt lat="45.65488" lon="5.21462">
        <ele>339.6</ele>
        <time>2025-05-18T11:23:44Z</time>
      </trkpt>
      <trkpt lat="45.65488" lon="5.21462">
        <ele>339.6</ele>
        <time>2025-05-18T11:23:45Z</time>
      </trkpt>
      <trkpt lat="45.65488" lon="5.21464">
        <ele>339.6</ele>
        <time>2025-05-18T11:23:46Z</time>
      </trkpt>
      <trkpt lat="45.65489" lon="5.21465">
        <ele>340</ele>
        <time>2025-05-18T11:23:47Z</time>
      </trkpt>
      <trkpt lat="45.65491" lon="5.21467">
        <ele>340</ele>
        <time>2025-05-18T11:23:48Z</time>
      </trkpt>
      <trkpt lat="45.65493" lon="5.21468">
        <ele>340</ele>
        <time>2025-05-18T11:23:49Z</time>
      </trkpt>
      <trkpt lat="45.65495" lon="5.2147">
        <ele>340</ele>
        <time>2025-05-18T11:23:50Z</time>
      </trkpt>
      <trkpt lat="45.65497" lon="5.21472">
        <ele>340.2</ele>
        <time>2025-05-18T11:23:51Z</time>
      </trkpt>
      <trkpt lat="45.65499" lon="5.21474">
        <ele>340.2</ele>
        <time>2025-05-18T11:23:52Z</time>
      </trkpt>
      <trkpt lat="45.655" lon="5.21476">
        <ele>340.2</ele>
        <time>2025-05-18T11:23:53Z</time>
      </trkpt>
      <trkpt lat="45.65502" lon="5.21478">
        <ele>340.4</ele>
        <time>2025-05-18T11:23:54Z</time>
      </trkpt>
      <trkpt lat="45.65503" lon="5.2148">
        <ele>340.4</ele>
        <time>2025-05-18T11:23:55Z</time>
      </trkpt>
      <trkpt lat="45.65504" lon="5.21483">
        <ele>340.4</ele>
        <time>2025-05-18T11:23:56Z</time>
      </trkpt>
      <trkpt lat="45.65505" lon="5.21485">
        <ele>340.4</ele>
        <time>2025-05-18T11:23:57Z</time>
      </trkpt>
      <trkpt lat="45.65506" lon="5.21488">
        <ele>340.8</ele>
        <time>2025-05-18T11:23:58Z</time>
      </trkpt>
      <trkpt lat="45.65508" lon="5.21489">
        <ele>340.8</ele>
        <time>2025-05-18T11:23:59Z</time>
      </trkpt>
      <trkpt lat="45.6551" lon="5.2149">
        <ele>341.2</ele>
        <time>2025-05-18T11:24:00Z</time>
      </trkpt>
      <trkpt lat="45.65512" lon="5.21492">
        <ele>341.4</ele>
        <time>2025-05-18T11:24:01Z</time>
      </trkpt>
      <trkpt lat="45.65513" lon="5.21493">
        <ele>341.4</ele>
        <time>2025-05-18T11:24:02Z</time>
      </trkpt>
      <trkpt lat="45.65515" lon="5.21494">
        <ele>341.8</ele>
        <time>2025-05-18T11:24:03Z</time>
      </trkpt>
      <trkpt lat="45.65516" lon="5.21495">
        <ele>341.8</ele>
        <time>2025-05-18T11:24:04Z</time>
      </trkpt>
      <trkpt lat="45.65517" lon="5.21497">
        <ele>341.8</ele>
        <time>2025-05-18T11:24:05Z</time>
      </trkpt>
      <trkpt lat="45.65519" lon="5.21499">
        <ele>342.2</ele>
        <time>2025-05-18T11:24:06Z</time>
      </trkpt>
      <trkpt lat="45.6552" lon="5.215">
        <ele>342.4</ele>
        <time>2025-05-18T11:24:07Z</time>
      </trkpt>
      <trkpt lat="45.65521" lon="5.21501">
        <ele>342.4</ele>
        <time>2025-05-18T11:24:08Z</time>
      </trkpt>
      <trkpt lat="45.65523" lon="5.21503">
        <ele>342.8</ele>
        <time>2025-05-18T11:24:09Z</time>
      </trkpt>
      <trkpt lat="45.65525" lon="5.21504">
        <ele>342.8</ele>
        <time>2025-05-18T11:24:10Z</time>
      </trkpt>
      <trkpt lat="45.65526" lon="5.21505">
        <ele>343.2</ele>
        <time>2025-05-18T11:24:11Z</time>
      </trkpt>
      <trkpt lat="45.65528" lon="5.21507">
        <ele>343.2</ele>
        <time>2025-05-18T11:24:12Z</time>
      </trkpt>
      <trkpt lat="45.65529" lon="5.21508">
        <ele>343.2</ele>
        <time>2025-05-18T11:24:13Z</time>
      </trkpt>
      <trkpt lat="45.6553" lon="5.2151">
        <ele>343.2</ele>
        <time>2025-05-18T11:24:14Z</time>
      </trkpt>
      <trkpt lat="45.65531" lon="5.21512">
        <ele>343.6</ele>
        <time>2025-05-18T11:24:15Z</time>
      </trkpt>
      <trkpt lat="45.65531" lon="5.21514">
        <ele>343.6</ele>
        <time>2025-05-18T11:24:16Z</time>
      </trkpt>
      <trkpt lat="45.65531" lon="5.21515">
        <ele>343.8</ele>
        <time>2025-05-18T11:24:17Z</time>
      </trkpt>
      <trkpt lat="45.65532" lon="5.21516">
        <ele>343.8</ele>
        <time>2025-05-18T11:24:18Z</time>
      </trkpt>
      <trkpt lat="45.65534" lon="5.21517">
        <ele>344.2</ele>
        <time>2025-05-18T11:24:19Z</time>
      </trkpt>
      <trkpt lat="45.65535" lon="5.21518">
        <ele>344.2</ele>
        <time>2025-05-18T11:24:20Z</time>
      </trkpt>
      <trkpt lat="45.65536" lon="5.21519">
        <ele>344.6</ele>
        <time>2025-05-18T11:24:21Z</time>
      </trkpt>
      <trkpt lat="45.65537" lon="5.21519">
        <ele>344.8</ele>
        <time>2025-05-18T11:24:22Z</time>
      </trkpt>
      <trkpt lat="45.65538" lon="5.2152">
        <ele>345</ele>
        <time>2025-05-18T11:24:23Z</time>
      </trkpt>
      <trkpt lat="45.65539" lon="5.21521">
        <ele>345.4</ele>
        <time>2025-05-18T11:24:24Z</time>
      </trkpt>
      <trkpt lat="45.65539" lon="5.21521">
        <ele>345.4</ele>
        <time>2025-05-18T11:24:25Z</time>
      </trkpt>
      <trkpt lat="45.65539" lon="5.21522">
        <ele>346</ele>
        <time>2025-05-18T11:24:26Z</time>
      </trkpt>
      <trkpt lat="45.65539" lon="5.21524">
        <ele>346.2</ele>
        <time>2025-05-18T11:24:27Z</time>
      </trkpt>
      <trkpt lat="45.65539" lon="5.21526">
        <ele>346.2</ele>
        <time>2025-05-18T11:24:28Z</time>
      </trkpt>
      <trkpt lat="45.65539" lon="5.21528">
        <ele>346.8</ele>
        <time>2025-05-18T11:24:29Z</time>
      </trkpt>
      <trkpt lat="45.6554" lon="5.21529">
        <ele>347.4</ele>
        <time>2025-05-18T11:24:30Z</time>
      </trkpt>
      <trkpt lat="45.65541" lon="5.2153">
        <ele>347.8</ele>
        <time>2025-05-18T11:24:31Z</time>
      </trkpt>
      <trkpt lat="45.65542" lon="5.21531">
        <ele>347.8</ele>
        <time>2025-05-18T11:24:32Z</time>
      </trkpt>
      <trkpt lat="45.65544" lon="5.21532">
        <ele>347.8</ele>
        <time>2025-05-18T11:24:33Z</time>
      </trkpt>
      <trkpt lat="45.65545" lon="5.21534">
        <ele>348.2</ele>
        <time>2025-05-18T11:24:34Z</time>
      </trkpt>
      <trkpt lat="45.65546" lon="5.21534">
        <ele>348.2</ele>
        <time>2025-05-18T11:24:35Z</time>
      </trkpt>
      <trkpt lat="45.65547" lon="5.21536">
        <ele>348.6</ele>
        <time>2025-05-18T11:24:36Z</time>
      </trkpt>
      <trkpt lat="45.65548" lon="5.21537">
        <ele>348.6</ele>
        <time>2025-05-18T11:24:37Z</time>
      </trkpt>
      <trkpt lat="45.65548" lon="5.21538">
        <ele>348.8</ele>
        <time>2025-05-18T11:24:38Z</time>
      </trkpt>
      <trkpt lat="45.65548" lon="5.2154">
        <ele>348.8</ele>
        <time>2025-05-18T11:24:39Z</time>
      </trkpt>
      <trkpt lat="45.65548" lon="5.21542">
        <ele>348.8</ele>
        <time>2025-05-18T11:24:40Z</time>
      </trkpt>
      <trkpt lat="45.65549" lon="5.21543">
        <ele>349.4</ele>
        <time>2025-05-18T11:24:41Z</time>
      </trkpt>
      <trkpt lat="45.65549" lon="5.21544">
        <ele>349.4</ele>
        <time>2025-05-18T11:24:42Z</time>
      </trkpt>
      <trkpt lat="45.65549" lon="5.21546">
        <ele>349.8</ele>
        <time>2025-05-18T11:24:43Z</time>
      </trkpt>
      <trkpt lat="45.6555" lon="5.21548">
        <ele>350.2</ele>
        <time>2025-05-18T11:24:44Z</time>
      </trkpt>
      <trkpt lat="45.6555" lon="5.2155">
        <ele>350.4</ele>
        <time>2025-05-18T11:24:45Z</time>
      </trkpt>
      <trkpt lat="45.65551" lon="5.21551">
        <ele>350.4</ele>
        <time>2025-05-18T11:24:46Z</time>
      </trkpt>
      <trkpt lat="45.65552" lon="5.21552">
        <ele>350.8</ele>
        <time>2025-05-18T11:24:47Z</time>
      </trkpt>
      <trkpt lat="45.65553" lon="5.21554">
        <ele>351</ele>
        <time>2025-05-18T11:24:48Z</time>
      </trkpt>
      <trkpt lat="45.65555" lon="5.21555">
        <ele>351.2</ele>
        <time>2025-05-18T11:24:49Z</time>
      </trkpt>
      <trkpt lat="45.65555" lon="5.21556">
        <ele>351.2</ele>
        <time>2025-05-18T11:24:50Z</time>
      </trkpt>
      <trkpt lat="45.65556" lon="5.21557">
        <ele>351.2</ele>
        <time>2025-05-18T11:24:51Z</time>
      </trkpt>
      <trkpt lat="45.65557" lon="5.21558">
        <ele>351.6</ele>
        <time>2025-05-18T11:24:52Z</time>
      </trkpt>
      <trkpt lat="45.65558" lon="5.2156">
        <ele>351.8</ele>
        <time>2025-05-18T11:24:53Z</time>
      </trkpt>
      <trkpt lat="45.65558" lon="5.21562">
        <ele>352.2</ele>
        <time>2025-05-18T11:24:54Z</time>
      </trkpt>
      <trkpt lat="45.65559" lon="5.21563">
        <ele>352.4</ele>
        <time>2025-05-18T11:24:55Z</time>
      </trkpt>
      <trkpt lat="45.6556" lon="5.21564">
        <ele>352.4</ele>
        <time>2025-05-18T11:24:56Z</time>
      </trkpt>
      <trkpt lat="45.6556" lon="5.21565">
        <ele>352.8</ele>
        <time>2025-05-18T11:24:57Z</time>
      </trkpt>
      <trkpt lat="45.6556" lon="5.21565">
        <ele>352.8</ele>
        <time>2025-05-18T11:24:58Z</time>
      </trkpt>
      <trkpt lat="45.6556" lon="5.21568">
        <ele>352.8</ele>
        <time>2025-05-18T11:25:03Z</time>
      </trkpt>
      <trkpt lat="45.6556" lon="5.2157">
        <ele>352.8</ele>
        <time>2025-05-18T11:25:04Z</time>
      </trkpt>
      <trkpt lat="45.6556" lon="5.21571">
        <ele>352.8</ele>
        <time>2025-05-18T11:25:05Z</time>
      </trkpt>
      <trkpt lat="45.6556" lon="5.21572">
        <ele>352.8</ele>
        <time>2025-05-18T11:25:06Z</time>
      </trkpt>
      <trkpt lat="45.65561" lon="5.21574">
        <ele>352.8</ele>
        <time>2025-05-18T11:25:07Z</time>
      </trkpt>
      <trkpt lat="45.65561" lon="5.21575">
        <ele>352.8</ele>
        <time>2025-05-18T11:25:08Z</time>
      </trkpt>
      <trkpt lat="45.65561" lon="5.21575">
        <ele>353.2</ele>
        <time>2025-05-18T11:25:09Z</time>
      </trkpt>
      <trkpt lat="45.65561" lon="5.21576">
        <ele>353.2</ele>
        <time>2025-05-18T11:25:10Z</time>
      </trkpt>
      <trkpt lat="45.65561" lon="5.21577">
        <ele>353.8</ele>
        <time>2025-05-18T11:25:11Z</time>
      </trkpt>
      <trkpt lat="45.65561" lon="5.21578">
        <ele>354.2</ele>
        <time>2025-05-18T11:25:12Z</time>
      </trkpt>
      <trkpt lat="45.65562" lon="5.21579">
        <ele>354.2</ele>
        <time>2025-05-18T11:25:13Z</time>
      </trkpt>
      <trkpt lat="45.65562" lon="5.2158">
        <ele>354.4</ele>
        <time>2025-05-18T11:25:14Z</time>
      </trkpt>
      <trkpt lat="45.65562" lon="5.21581">
        <ele>354.4</ele>
        <time>2025-05-18T11:25:15Z</time>
      </trkpt>
      <trkpt lat="45.65562" lon="5.21582">
        <ele>355</ele>
        <time>2025-05-18T11:25:16Z</time>
      </trkpt>
      <trkpt lat="45.65562" lon="5.21582">
        <ele>355</ele>
        <time>2025-05-18T11:25:17Z</time>
      </trkpt>
      <trkpt lat="45.65563" lon="5.21583">
        <ele>355.2</ele>
        <time>2025-05-18T11:25:18Z</time>
      </trkpt>
      <trkpt lat="45.65562" lon="5.21584">
        <ele>355.2</ele>
        <time>2025-05-18T11:25:19Z</time>
      </trkpt>
      <trkpt lat="45.65562" lon="5.21584">
        <ele>355.2</ele>
        <time>2025-05-18T11:25:20Z</time>
      </trkpt>
      <trkpt lat="45.65562" lon="5.21584">
        <ele>355.6</ele>
        <time>2025-05-18T11:25:21Z</time>
      </trkpt>
      <trkpt lat="45.65562" lon="5.21588">
        <ele>355.8</ele>
        <time>2025-05-18T11:25:33Z</time>
      </trkpt>
      <trkpt lat="45.65562" lon="5.2159">
        <ele>356.2</ele>
        <time>2025-05-18T11:25:34Z</time>
      </trkpt>
      <trkpt lat="45.65563" lon="5.21591">
        <ele>356.2</ele>
        <time>2025-05-18T11:25:35Z</time>
      </trkpt>
      <trkpt lat="45.65564" lon="5.21591">
        <ele>356.2</ele>
        <time>2025-05-18T11:25:36Z</time>
      </trkpt>
      <trkpt lat="45.65565" lon="5.21592">
        <ele>356.4</ele>
        <time>2025-05-18T11:25:37Z</time>
      </trkpt>
      <trkpt lat="45.65565" lon="5.21593">
        <ele>356.4</ele>
        <time>2025-05-18T11:25:38Z</time>
      </trkpt>
      <trkpt lat="45.65566" lon="5.21595">
        <ele>356.6</ele>
        <time>2025-05-18T11:25:39Z</time>
      </trkpt>
      <trkpt lat="45.65566" lon="5.21597">
        <ele>356.6</ele>
        <time>2025-05-18T11:25:40Z</time>
      </trkpt>
      <trkpt lat="45.65566" lon="5.21598">
        <ele>357</ele>
        <time>2025-05-18T11:25:41Z</time>
      </trkpt>
      <trkpt lat="45.65565" lon="5.216">
        <ele>357.2</ele>
        <time>2025-05-18T11:25:42Z</time>
      </trkpt>
      <trkpt lat="45.65565" lon="5.21601">
        <ele>357.2</ele>
        <time>2025-05-18T11:25:43Z</time>
      </trkpt>
      <trkpt lat="45.65565" lon="5.21602">
        <ele>357.4</ele>
        <time>2025-05-18T11:25:44Z</time>
      </trkpt>
      <trkpt lat="45.65565" lon="5.21604">
        <ele>357.8</ele>
        <time>2025-05-18T11:25:45Z</time>
      </trkpt>
      <trkpt lat="45.65565" lon="5.21605">
        <ele>357.8</ele>
        <time>2025-05-18T11:25:46Z</time>
      </trkpt>
      <trkpt lat="45.65566" lon="5.21606">
        <ele>358.2</ele>
        <time>2025-05-18T11:25:47Z</time>
      </trkpt>
      <trkpt lat="45.65566" lon="5.21607">
        <ele>358.2</ele>
        <time>2025-05-18T11:25:48Z</time>
      </trkpt>
      <trkpt lat="45.65566" lon="5.21608">
        <ele>358.6</ele>
        <time>2025-05-18T11:25:49Z</time>
      </trkpt>
      <trkpt lat="45.65566" lon="5.21609">
        <ele>359</ele>
        <time>2025-05-18T11:25:50Z</time>
      </trkpt>
      <trkpt lat="45.65566" lon="5.2161">
        <ele>359</ele>
        <time>2025-05-18T11:25:51Z</time>
      </trkpt>
      <trkpt lat="45.65567" lon="5.21611">
        <ele>359.2</ele>
        <time>2025-05-18T11:25:52Z</time>
      </trkpt>
      <trkpt lat="45.65568" lon="5.21612">
        <ele>359.2</ele>
        <time>2025-05-18T11:25:53Z</time>
      </trkpt>
      <trkpt lat="45.65569" lon="5.21613">
        <ele>359.6</ele>
        <time>2025-05-18T11:25:54Z</time>
      </trkpt>
      <trkpt lat="45.6557" lon="5.21614">
        <ele>359.6</ele>
        <time>2025-05-18T11:25:55Z</time>
      </trkpt>
      <trkpt lat="45.65571" lon="5.21615">
        <ele>359.6</ele>
        <time>2025-05-18T11:25:56Z</time>
      </trkpt>
      <trkpt lat="45.65571" lon="5.21616">
        <ele>360.2</ele>
        <time>2025-05-18T11:25:57Z</time>
      </trkpt>
      <trkpt lat="45.65571" lon="5.21617">
        <ele>360.6</ele>
        <time>2025-05-18T11:25:58Z</time>
      </trkpt>
      <trkpt lat="45.65572" lon="5.21618">
        <ele>360.8</ele>
        <time>2025-05-18T11:25:59Z</time>
      </trkpt>
      <trkpt lat="45.65572" lon="5.21619">
        <ele>360.8</ele>
        <time>2025-05-18T11:26:00Z</time>
      </trkpt>
      <trkpt lat="45.65573" lon="5.2162">
        <ele>361.2</ele>
        <time>2025-05-18T11:26:01Z</time>
      </trkpt>
      <trkpt lat="45.65573" lon="5.21621">
        <ele>361.6</ele>
        <time>2025-05-18T11:26:02Z</time>
      </trkpt>
      <trkpt lat="45.65574" lon="5.21622">
        <ele>361.6</ele>
        <time>2025-05-18T11:26:03Z</time>
      </trkpt>
      <trkpt lat="45.65574" lon="5.21623">
        <ele>361.8</ele>
        <time>2025-05-18T11:26:04Z</time>
      </trkpt>
      <trkpt lat="45.65575" lon="5.21624">
        <ele>361.8</ele>
        <time>2025-05-18T11:26:05Z</time>
      </trkpt>
      <trkpt lat="45.65575" lon="5.21624">
        <ele>362.2</ele>
        <time>2025-05-18T11:26:06Z</time>
      </trkpt>
      <trkpt lat="45.65575" lon="5.21625">
        <ele>362.6</ele>
        <time>2025-05-18T11:26:07Z</time>
      </trkpt>
      <trkpt lat="45.65575" lon="5.21625">
        <ele>362.6</ele>
        <time>2025-05-18T11:26:08Z</time>
      </trkpt>
      <trkpt lat="45.65575" lon="5.21626">
        <ele>363.2</ele>
        <time>2025-05-18T11:26:09Z</time>
      </trkpt>
      <trkpt lat="45.65575" lon="5.21627">
        <ele>363.4</ele>
        <time>2025-05-18T11:26:10Z</time>
      </trkpt>
      <trkpt lat="45.65575" lon="5.21628">
        <ele>363.6</ele>
        <time>2025-05-18T11:26:11Z</time>
      </trkpt>
      <trkpt lat="45.65576" lon="5.21628">
        <ele>363.6</ele>
        <time>2025-05-18T11:26:12Z</time>
      </trkpt>
      <trkpt lat="45.65576" lon="5.21629">
        <ele>364</ele>
        <time>2025-05-18T11:26:13Z</time>
      </trkpt>
      <trkpt lat="45.65576" lon="5.2163">
        <ele>364.2</ele>
        <time>2025-05-18T11:26:14Z</time>
      </trkpt>
      <trkpt lat="45.65577" lon="5.21631">
        <ele>364.2</ele>
        <time>2025-05-18T11:26:15Z</time>
      </trkpt>
      <trkpt lat="45.65577" lon="5.21632">
        <ele>364.6</ele>
        <time>2025-05-18T11:26:16Z</time>
      </trkpt>
      <trkpt lat="45.65577" lon="5.21632">
        <ele>364.8</ele>
        <time>2025-05-18T11:26:17Z</time>
      </trkpt>
      <trkpt lat="45.65577" lon="5.21633">
        <ele>365</ele>
        <time>2025-05-18T11:26:18Z</time>
      </trkpt>
      <trkpt lat="45.65577" lon="5.21634">
        <ele>365</ele>
        <time>2025-05-18T11:26:19Z</time>
      </trkpt>
      <trkpt lat="45.65578" lon="5.21635">
        <ele>365.2</ele>
        <time>2025-05-18T11:26:20Z</time>
      </trkpt>
      <trkpt lat="45.65578" lon="5.21636">
        <ele>365.4</ele>
        <time>2025-05-18T11:26:21Z</time>
      </trkpt>
      <trkpt lat="45.65578" lon="5.21638">
        <ele>365.4</ele>
        <time>2025-05-18T11:26:22Z</time>
      </trkpt>
      <trkpt lat="45.65578" lon="5.21638">
        <ele>365.8</ele>
        <time>2025-05-18T11:26:23Z</time>
      </trkpt>
      <trkpt lat="45.65578" lon="5.2164">
        <ele>365.8</ele>
        <time>2025-05-18T11:26:24Z</time>
      </trkpt>
      <trkpt lat="45.65577" lon="5.21641">
        <ele>365.8</ele>
        <time>2025-05-18T11:26:25Z</time>
      </trkpt>
      <trkpt lat="45.65576" lon="5.21642">
        <ele>366.2</ele>
        <time>2025-05-18T11:26:26Z</time>
      </trkpt>
      <trkpt lat="45.65576" lon="5.21643">
        <ele>366.2</ele>
        <time>2025-05-18T11:26:27Z</time>
      </trkpt>
      <trkpt lat="45.65575" lon="5.21644">
        <ele>366.2</ele>
        <time>2025-05-18T11:26:28Z</time>
      </trkpt>
      <trkpt lat="45.65574" lon="5.21645">
        <ele>366.4</ele>
        <time>2025-05-18T11:26:29Z</time>
      </trkpt>
      <trkpt lat="45.65574" lon="5.21646">
        <ele>366.4</ele>
        <time>2025-05-18T11:26:30Z</time>
      </trkpt>
      <trkpt lat="45.65573" lon="5.21647">
        <ele>366.4</ele>
        <time>2025-05-18T11:26:31Z</time>
      </trkpt>
      <trkpt lat="45.65573" lon="5.21648">
        <ele>366.6</ele>
        <time>2025-05-18T11:26:32Z</time>
      </trkpt>
      <trkpt lat="45.65573" lon="5.21649">
        <ele>366.6</ele>
        <time>2025-05-18T11:26:33Z</time>
      </trkpt>
      <trkpt lat="45.65572" lon="5.2165">
        <ele>366.6</ele>
        <time>2025-05-18T11:26:34Z</time>
      </trkpt>
      <trkpt lat="45.65572" lon="5.21651">
        <ele>366.8</ele>
        <time>2025-05-18T11:26:35Z</time>
      </trkpt>
      <trkpt lat="45.65573" lon="5.21652">
        <ele>366.8</ele>
        <time>2025-05-18T11:26:36Z</time>
      </trkpt>
      <trkpt lat="45.65575" lon="5.21653">
        <ele>366.8</ele>
        <time>2025-05-18T11:26:39Z</time>
      </trkpt>
      <trkpt lat="45.65575" lon="5.21653">
        <ele>367.2</ele>
        <time>2025-05-18T11:26:40Z</time>
      </trkpt>
      <trkpt lat="45.65575" lon="5.21654">
        <ele>367.2</ele>
        <time>2025-05-18T11:26:41Z</time>
      </trkpt>
      <trkpt lat="45.65575" lon="5.21655">
        <ele>367.2</ele>
        <time>2025-05-18T11:26:42Z</time>
      </trkpt>
      <trkpt lat="45.65575" lon="5.21656">
        <ele>367.2</ele>
        <time>2025-05-18T11:26:43Z</time>
      </trkpt>
      <trkpt lat="45.65575" lon="5.21656">
        <ele>367.2</ele>
        <time>2025-05-18T11:26:44Z</time>
      </trkpt>
      <trkpt lat="45.65575" lon="5.21657">
        <ele>367.2</ele>
        <time>2025-05-18T11:26:47Z</time>
      </trkpt>
      <trkpt lat="45.65575" lon="5.21657">
        <ele>367.2</ele>
        <time>2025-05-18T11:26:48Z</time>
      </trkpt>
      <trkpt lat="45.65575" lon="5.21658">
        <ele>367.2</ele>
        <time>2025-05-18T11:26:49Z</time>
      </trkpt>
      <trkpt lat="45.65575" lon="5.21658">
        <ele>367.2</ele>
        <time>2025-05-18T11:26:50Z</time>
      </trkpt>
      <trkpt lat="45.65576" lon="5.21659">
        <ele>367.2</ele>
        <time>2025-05-18T11:26:53Z</time>
      </trkpt>
      <trkpt lat="45.65576" lon="5.2166">
        <ele>367.4</ele>
        <time>2025-05-18T11:26:54Z</time>
      </trkpt>
      <trkpt lat="45.65576" lon="5.21661">
        <ele>367.6</ele>
        <time>2025-05-18T11:26:55Z</time>
      </trkpt>
      <trkpt lat="45.65575" lon="5.21667">
        <ele>367.4</ele>
        <time>2025-05-18T11:27:01Z</time>
      </trkpt>
      <trkpt lat="45.65575" lon="5.21669">
        <ele>367.4</ele>
        <time>2025-05-18T11:27:02Z</time>
      </trkpt>
      <trkpt lat="45.65576" lon="5.21671">
        <ele>367.8</ele>
        <time>2025-05-18T11:27:03Z</time>
      </trkpt>
      <trkpt lat="45.65577" lon="5.21672">
        <ele>368</ele>
        <time>2025-05-18T11:27:04Z</time>
      </trkpt>
      <trkpt lat="45.65578" lon="5.21674">
        <ele>368</ele>
        <time>2025-05-18T11:27:05Z</time>
      </trkpt>
      <trkpt lat="45.65579" lon="5.21675">
        <ele>368</ele>
        <time>2025-05-18T11:27:06Z</time>
      </trkpt>
      <trkpt lat="45.6558" lon="5.21677">
        <ele>368.2</ele>
        <time>2025-05-18T11:27:07Z</time>
      </trkpt>
      <trkpt lat="45.65581" lon="5.21679">
        <ele>368.2</ele>
        <time>2025-05-18T11:27:08Z</time>
      </trkpt>
      <trkpt lat="45.65582" lon="5.21681">
        <ele>368.6</ele>
        <time>2025-05-18T11:27:09Z</time>
      </trkpt>
      <trkpt lat="45.65583" lon="5.21683">
        <ele>368.6</ele>
        <time>2025-05-18T11:27:10Z</time>
      </trkpt>
      <trkpt lat="45.65584" lon="5.21686">
        <ele>368.8</ele>
        <time>2025-05-18T11:27:11Z</time>
      </trkpt>
      <trkpt lat="45.65584" lon="5.21687">
        <ele>368.8</ele>
        <time>2025-05-18T11:27:12Z</time>
      </trkpt>
      <trkpt lat="45.65584" lon="5.21689">
        <ele>369.2</ele>
        <time>2025-05-18T11:27:13Z</time>
      </trkpt>
      <trkpt lat="45.65585" lon="5.21691">
        <ele>369.2</ele>
        <time>2025-05-18T11:27:14Z</time>
      </trkpt>
      <trkpt lat="45.65585" lon="5.21693">
        <ele>369.2</ele>
        <time>2025-05-18T11:27:15Z</time>
      </trkpt>
      <trkpt lat="45.65585" lon="5.21695">
        <ele>369.4</ele>
        <time>2025-05-18T11:27:16Z</time>
      </trkpt>
      <trkpt lat="45.65586" lon="5.21698">
        <ele>369.6</ele>
        <time>2025-05-18T11:27:17Z</time>
      </trkpt>
      <trkpt lat="45.65586" lon="5.217">
        <ele>369.6</ele>
        <time>2025-05-18T11:27:18Z</time>
      </trkpt>
      <trkpt lat="45.65586" lon="5.21701">
        <ele>370</ele>
        <time>2025-05-18T11:27:19Z</time>
      </trkpt>
      <trkpt lat="45.65587" lon="5.21703">
        <ele>370</ele>
        <time>2025-05-18T11:27:20Z</time>
      </trkpt>
      <trkpt lat="45.65587" lon="5.21705">
        <ele>370.4</ele>
        <time>2025-05-18T11:27:21Z</time>
      </trkpt>
      <trkpt lat="45.65587" lon="5.21707">
        <ele>370.6</ele>
        <time>2025-05-18T11:27:22Z</time>
      </trkpt>
      <trkpt lat="45.65587" lon="5.21708">
        <ele>370.8</ele>
        <time>2025-05-18T11:27:23Z</time>
      </trkpt>
      <trkpt lat="45.65586" lon="5.2171">
        <ele>371.2</ele>
        <time>2025-05-18T11:27:24Z</time>
      </trkpt>
      <trkpt lat="45.65585" lon="5.21711">
        <ele>371.2</ele>
        <time>2025-05-18T11:27:25Z</time>
      </trkpt>
      <trkpt lat="45.65583" lon="5.21713">
        <ele>371.2</ele>
        <time>2025-05-18T11:27:26Z</time>
      </trkpt>
      <trkpt lat="45.65582" lon="5.21714">
        <ele>371.2</ele>
        <time>2025-05-18T11:27:27Z</time>
      </trkpt>
      <trkpt lat="45.6558" lon="5.21715">
        <ele>371.2</ele>
        <time>2025-05-18T11:27:28Z</time>
      </trkpt>
      <trkpt lat="45.65578" lon="5.21715">
        <ele>371.2</ele>
        <time>2025-05-18T11:27:29Z</time>
      </trkpt>
      <trkpt lat="45.65576" lon="5.21716">
        <ele>371.2</ele>
        <time>2025-05-18T11:27:30Z</time>
      </trkpt>
      <trkpt lat="45.65574" lon="5.21716">
        <ele>371.2</ele>
        <time>2025-05-18T11:27:31Z</time>
      </trkpt>
      <trkpt lat="45.65572" lon="5.21716">
        <ele>371.2</ele>
        <time>2025-05-18T11:27:32Z</time>
      </trkpt>
      <trkpt lat="45.65571" lon="5.21717">
        <ele>371.6</ele>
        <time>2025-05-18T11:27:33Z</time>
      </trkpt>
      <trkpt lat="45.65569" lon="5.21718">
        <ele>371.6</ele>
        <time>2025-05-18T11:27:34Z</time>
      </trkpt>
      <trkpt lat="45.65568" lon="5.21718">
        <ele>371.6</ele>
        <time>2025-05-18T11:27:35Z</time>
      </trkpt>
      <trkpt lat="45.65566" lon="5.21719">
        <ele>371.8</ele>
        <time>2025-05-18T11:27:36Z</time>
      </trkpt>
      <trkpt lat="45.65566" lon="5.21719">
        <ele>371.8</ele>
        <time>2025-05-18T11:27:37Z</time>
      </trkpt>
      <trkpt lat="45.65566" lon="5.21719">
        <ele>371.8</ele>
        <time>2025-05-18T11:27:38Z</time>
      </trkpt>
      <trkpt lat="45.65558" lon="5.2172">
        <ele>372.4</ele>
        <time>2025-05-18T11:28:47Z</time>
      </trkpt>
      <trkpt lat="45.65556" lon="5.21721">
        <ele>372.4</ele>
        <time>2025-05-18T11:28:48Z</time>
      </trkpt>
      <trkpt lat="45.65554" lon="5.21722">
        <ele>372.4</ele>
        <time>2025-05-18T11:28:49Z</time>
      </trkpt>
      <trkpt lat="45.65551" lon="5.21723">
        <ele>372.4</ele>
        <time>2025-05-18T11:28:50Z</time>
      </trkpt>
      <trkpt lat="45.65549" lon="5.21725">
        <ele>372.4</ele>
        <time>2025-05-18T11:28:51Z</time>
      </trkpt>
      <trkpt lat="45.65547" lon="5.21726">
        <ele>372.4</ele>
        <time>2025-05-18T11:28:52Z</time>
      </trkpt>
      <trkpt lat="45.65545" lon="5.21727">
        <ele>372.4</ele>
        <time>2025-05-18T11:28:53Z</time>
      </trkpt>
      <trkpt lat="45.65543" lon="5.21728">
        <ele>372.4</ele>
        <time>2025-05-18T11:28:54Z</time>
      </trkpt>
      <trkpt lat="45.6554" lon="5.21729">
        <ele>372.8</ele>
        <time>2025-05-18T11:28:55Z</time>
      </trkpt>
      <trkpt lat="45.65538" lon="5.21731">
        <ele>372.4</ele>
        <time>2025-05-18T11:28:56Z</time>
      </trkpt>
      <trkpt lat="45.65535" lon="5.21732">
        <ele>372.4</ele>
        <time>2025-05-18T11:28:57Z</time>
      </trkpt>
      <trkpt lat="45.65532" lon="5.21733">
        <ele>372.2</ele>
        <time>2025-05-18T11:28:58Z</time>
      </trkpt>
      <trkpt lat="45.6553" lon="5.21735">
        <ele>372.2</ele>
        <time>2025-05-18T11:28:59Z</time>
      </trkpt>
      <trkpt lat="45.65527" lon="5.21736">
        <ele>372.2</ele>
        <time>2025-05-18T11:29:00Z</time>
      </trkpt>
      <trkpt lat="45.65525" lon="5.21737">
        <ele>372.2</ele>
        <time>2025-05-18T11:29:01Z</time>
      </trkpt>
      <trkpt lat="45.65523" lon="5.21738">
        <ele>372.2</ele>
        <time>2025-05-18T11:29:02Z</time>
      </trkpt>
      <trkpt lat="45.65521" lon="5.2174">
        <ele>372.2</ele>
        <time>2025-05-18T11:29:03Z</time>
      </trkpt>
      <trkpt lat="45.65518" lon="5.21741">
        <ele>372.2</ele>
        <time>2025-05-18T11:29:04Z</time>
      </trkpt>
      <trkpt lat="45.65516" lon="5.21743">
        <ele>371.8</ele>
        <time>2025-05-18T11:29:05Z</time>
      </trkpt>
      <trkpt lat="45.65514" lon="5.21744">
        <ele>372.2</ele>
        <time>2025-05-18T11:29:06Z</time>
      </trkpt>
      <trkpt lat="45.65512" lon="5.21746">
        <ele>372.2</ele>
        <time>2025-05-18T11:29:07Z</time>
      </trkpt>
      <trkpt lat="45.6551" lon="5.21747">
        <ele>372.6</ele>
        <time>2025-05-18T11:29:08Z</time>
      </trkpt>
      <trkpt lat="45.65508" lon="5.21749">
        <ele>372.2</ele>
        <time>2025-05-18T11:29:09Z</time>
      </trkpt>
      <trkpt lat="45.65505" lon="5.21751">
        <ele>372.6</ele>
        <time>2025-05-18T11:29:10Z</time>
      </trkpt>
      <trkpt lat="45.65503" lon="5.21752">
        <ele>372.6</ele>
        <time>2025-05-18T11:29:11Z</time>
      </trkpt>
      <trkpt lat="45.65501" lon="5.21753">
        <ele>373</ele>
        <time>2025-05-18T11:29:12Z</time>
      </trkpt>
      <trkpt lat="45.655" lon="5.21755">
        <ele>373</ele>
        <time>2025-05-18T11:29:13Z</time>
      </trkpt>
      <trkpt lat="45.65498" lon="5.21757">
        <ele>373.2</ele>
        <time>2025-05-18T11:29:14Z</time>
      </trkpt>
      <trkpt lat="45.65497" lon="5.21759">
        <ele>373.2</ele>
        <time>2025-05-18T11:29:15Z</time>
      </trkpt>
      <trkpt lat="45.65496" lon="5.21761">
        <ele>373.2</ele>
        <time>2025-05-18T11:29:16Z</time>
      </trkpt>
      <trkpt lat="45.65494" lon="5.21762">
        <ele>373.2</ele>
        <time>2025-05-18T11:29:17Z</time>
      </trkpt>
      <trkpt lat="45.65493" lon="5.21764">
        <ele>373.2</ele>
        <time>2025-05-18T11:29:18Z</time>
      </trkpt>
      <trkpt lat="45.65491" lon="5.21766">
        <ele>373.2</ele>
        <time>2025-05-18T11:29:19Z</time>
      </trkpt>
      <trkpt lat="45.65489" lon="5.21769">
        <ele>373.2</ele>
        <time>2025-05-18T11:29:20Z</time>
      </trkpt>
      <trkpt lat="45.65487" lon="5.21771">
        <ele>373.2</ele>
        <time>2025-05-18T11:29:21Z</time>
      </trkpt>
      <trkpt lat="45.65486" lon="5.21773">
        <ele>373.2</ele>
        <time>2025-05-18T11:29:22Z</time>
      </trkpt>
      <trkpt lat="45.65484" lon="5.21776">
        <ele>373.8</ele>
        <time>2025-05-18T11:29:23Z</time>
      </trkpt>
      <trkpt lat="45.65484" lon="5.21779">
        <ele>373.8</ele>
        <time>2025-05-18T11:29:24Z</time>
      </trkpt>
      <trkpt lat="45.65483" lon="5.21782">
        <ele>374.2</ele>
        <time>2025-05-18T11:29:25Z</time>
      </trkpt>
      <trkpt lat="45.65483" lon="5.21785">
        <ele>374.2</ele>
        <time>2025-05-18T11:29:26Z</time>
      </trkpt>
      <trkpt lat="45.65482" lon="5.21787">
        <ele>374.2</ele>
        <time>2025-05-18T11:29:27Z</time>
      </trkpt>
      <trkpt lat="45.65481" lon="5.2179">
        <ele>374.2</ele>
        <time>2025-05-18T11:29:28Z</time>
      </trkpt>
      <trkpt lat="45.65479" lon="5.21792">
        <ele>374.2</ele>
        <time>2025-05-18T11:29:29Z</time>
      </trkpt>
      <trkpt lat="45.65478" lon="5.21794">
        <ele>374</ele>
        <time>2025-05-18T11:29:30Z</time>
      </trkpt>
      <trkpt lat="45.65476" lon="5.21796">
        <ele>374</ele>
        <time>2025-05-18T11:29:31Z</time>
      </trkpt>
      <trkpt lat="45.65474" lon="5.21798">
        <ele>374.2</ele>
        <time>2025-05-18T11:29:32Z</time>
      </trkpt>
      <trkpt lat="45.65471" lon="5.218">
        <ele>374.2</ele>
        <time>2025-05-18T11:29:33Z</time>
      </trkpt>
      <trkpt lat="45.65469" lon="5.21801">
        <ele>374</ele>
        <time>2025-05-18T11:29:34Z</time>
      </trkpt>
      <trkpt lat="45.65467" lon="5.21803">
        <ele>374</ele>
        <time>2025-05-18T11:29:35Z</time>
      </trkpt>
      <trkpt lat="45.65464" lon="5.21805">
        <ele>373.6</ele>
        <time>2025-05-18T11:29:36Z</time>
      </trkpt>
      <trkpt lat="45.65461" lon="5.21808">
        <ele>373.4</ele>
        <time>2025-05-18T11:29:37Z</time>
      </trkpt>
      <trkpt lat="45.65457" lon="5.21812">
        <ele>373.4</ele>
        <time>2025-05-18T11:29:38Z</time>
      </trkpt>
      <trkpt lat="45.65453" lon="5.21815">
        <ele>373</ele>
        <time>2025-05-18T11:29:39Z</time>
      </trkpt>
      <trkpt lat="45.65449" lon="5.21818">
        <ele>373</ele>
        <time>2025-05-18T11:29:40Z</time>
      </trkpt>
      <trkpt lat="45.65446" lon="5.21821">
        <ele>372.6</ele>
        <time>2025-05-18T11:29:41Z</time>
      </trkpt>
      <trkpt lat="45.65442" lon="5.21824">
        <ele>372.4</ele>
        <time>2025-05-18T11:29:42Z</time>
      </trkpt>
      <trkpt lat="45.65438" lon="5.21827">
        <ele>370.6</ele>
        <time>2025-05-18T11:29:43Z</time>
      </trkpt>
      <trkpt lat="45.65436" lon="5.21829">
        <ele>370.6</ele>
        <time>2025-05-18T11:29:44Z</time>
      </trkpt>
      <trkpt lat="45.65436" lon="5.2183">
        <ele>370.8</ele>
        <time>2025-05-18T11:29:45Z</time>
      </trkpt>
      <trkpt lat="45.65437" lon="5.2183">
        <ele>370.8</ele>
        <time>2025-05-18T11:29:46Z</time>
      </trkpt>
      <trkpt lat="45.65437" lon="5.2183">
        <ele>370.8</ele>
        <time>2025-05-18T11:29:47Z</time>
      </trkpt>
      <trkpt lat="45.65436" lon="5.21832">
        <ele>370.8</ele>
        <time>2025-05-18T11:30:27Z</time>
      </trkpt>
      <trkpt lat="45.65435" lon="5.21834">
        <ele>370.8</ele>
        <time>2025-05-18T11:30:28Z</time>
      </trkpt>
      <trkpt lat="45.65433" lon="5.21837">
        <ele>370.8</ele>
        <time>2025-05-18T11:30:29Z</time>
      </trkpt>
      <trkpt lat="45.6543" lon="5.2184">
        <ele>370.8</ele>
        <time>2025-05-18T11:30:30Z</time>
      </trkpt>
      <trkpt lat="45.65427" lon="5.21843">
        <ele>369.8</ele>
        <time>2025-05-18T11:30:31Z</time>
      </trkpt>
      <trkpt lat="45.65424" lon="5.21846">
        <ele>369.2</ele>
        <time>2025-05-18T11:30:32Z</time>
      </trkpt>
      <trkpt lat="45.65419" lon="5.21851">
        <ele>368.8</ele>
        <time>2025-05-18T11:30:33Z</time>
      </trkpt>
      <trkpt lat="45.65415" lon="5.21854">
        <ele>368.8</ele>
        <time>2025-05-18T11:30:34Z</time>
      </trkpt>
      <trkpt lat="45.6541" lon="5.21859">
        <ele>368.2</ele>
        <time>2025-05-18T11:30:35Z</time>
      </trkpt>
      <trkpt lat="45.65406" lon="5.21862">
        <ele>366.8</ele>
        <time>2025-05-18T11:30:36Z</time>
      </trkpt>
      <trkpt lat="45.65401" lon="5.21865">
        <ele>366.4</ele>
        <time>2025-05-18T11:30:37Z</time>
      </trkpt>
      <trkpt lat="45.65395" lon="5.21867">
        <ele>366.4</ele>
        <time>2025-05-18T11:30:38Z</time>
      </trkpt>
      <trkpt lat="45.65391" lon="5.21869">
        <ele>366</ele>
        <time>2025-05-18T11:30:39Z</time>
      </trkpt>
      <trkpt lat="45.65386" lon="5.2187">
        <ele>365.6</ele>
        <time>2025-05-18T11:30:40Z</time>
      </trkpt>
      <trkpt lat="45.65382" lon="5.21871">
        <ele>365.6</ele>
        <time>2025-05-18T11:30:41Z</time>
      </trkpt>
      <trkpt lat="45.65378" lon="5.21873">
        <ele>364.8</ele>
        <time>2025-05-18T11:30:42Z</time>
      </trkpt>
      <trkpt lat="45.65374" lon="5.21875">
        <ele>364.2</ele>
        <time>2025-05-18T11:30:43Z</time>
      </trkpt>
      <trkpt lat="45.65371" lon="5.21877">
        <ele>364.2</ele>
        <time>2025-05-18T11:30:44Z</time>
      </trkpt>
      <trkpt lat="45.65368" lon="5.21879">
        <ele>364.4</ele>
        <time>2025-05-18T11:30:45Z</time>
      </trkpt>
      <trkpt lat="45.65365" lon="5.21881">
        <ele>364.2</ele>
        <time>2025-05-18T11:30:46Z</time>
      </trkpt>
      <trkpt lat="45.65362" lon="5.21884">
        <ele>363.8</ele>
        <time>2025-05-18T11:30:47Z</time>
      </trkpt>
      <trkpt lat="45.65358" lon="5.21887">
        <ele>363.8</ele>
        <time>2025-05-18T11:30:48Z</time>
      </trkpt>
      <trkpt lat="45.65354" lon="5.21888">
        <ele>364</ele>
        <time>2025-05-18T11:30:49Z</time>
      </trkpt>
      <trkpt lat="45.65351" lon="5.21891">
        <ele>364</ele>
        <time>2025-05-18T11:30:50Z</time>
      </trkpt>
      <trkpt lat="45.65347" lon="5.21895">
        <ele>363.2</ele>
        <time>2025-05-18T11:30:51Z</time>
      </trkpt>
      <trkpt lat="45.65344" lon="5.21897">
        <ele>361.6</ele>
        <time>2025-05-18T11:30:52Z</time>
      </trkpt>
      <trkpt lat="45.65342" lon="5.219">
        <ele>361.6</ele>
        <time>2025-05-18T11:30:53Z</time>
      </trkpt>
      <trkpt lat="45.65339" lon="5.21903">
        <ele>361</ele>
        <time>2025-05-18T11:30:54Z</time>
      </trkpt>
      <trkpt lat="45.65335" lon="5.21907">
        <ele>360.2</ele>
        <time>2025-05-18T11:30:55Z</time>
      </trkpt>
      <trkpt lat="45.65332" lon="5.2191">
        <ele>359</ele>
        <time>2025-05-18T11:30:56Z</time>
      </trkpt>
      <trkpt lat="45.6533" lon="5.21914">
        <ele>358.6</ele>
        <time>2025-05-18T11:30:57Z</time>
      </trkpt>
      <trkpt lat="45.65329" lon="5.21917">
        <ele>357.8</ele>
        <time>2025-05-18T11:30:58Z</time>
      </trkpt>
      <trkpt lat="45.65327" lon="5.21922">
        <ele>357</ele>
        <time>2025-05-18T11:30:59Z</time>
      </trkpt>
      <trkpt lat="45.65326" lon="5.21924">
        <ele>356.2</ele>
        <time>2025-05-18T11:31:00Z</time>
      </trkpt>
      <trkpt lat="45.65324" lon="5.21925">
        <ele>355.8</ele>
        <time>2025-05-18T11:31:01Z</time>
      </trkpt>
      <trkpt lat="45.65324" lon="5.21926">
        <ele>355</ele>
        <time>2025-05-18T11:31:02Z</time>
      </trkpt>
      <trkpt lat="45.65324" lon="5.21929">
        <ele>354.4</ele>
        <time>2025-05-18T11:31:03Z</time>
      </trkpt>
      <trkpt lat="45.65323" lon="5.21933">
        <ele>354</ele>
        <time>2025-05-18T11:31:04Z</time>
      </trkpt>
      <trkpt lat="45.65322" lon="5.21937">
        <ele>353.4</ele>
        <time>2025-05-18T11:31:05Z</time>
      </trkpt>
      <trkpt lat="45.65321" lon="5.21941">
        <ele>353.2</ele>
        <time>2025-05-18T11:31:06Z</time>
      </trkpt>
      <trkpt lat="45.65321" lon="5.21945">
        <ele>352.8</ele>
        <time>2025-05-18T11:31:07Z</time>
      </trkpt>
      <trkpt lat="45.65321" lon="5.21948">
        <ele>352</ele>
        <time>2025-05-18T11:31:08Z</time>
      </trkpt>
      <trkpt lat="45.65321" lon="5.21952">
        <ele>351.2</ele>
        <time>2025-05-18T11:31:09Z</time>
      </trkpt>
      <trkpt lat="45.6532" lon="5.21955">
        <ele>350.6</ele>
        <time>2025-05-18T11:31:10Z</time>
      </trkpt>
      <trkpt lat="45.65319" lon="5.21958">
        <ele>350.6</ele>
        <time>2025-05-18T11:31:11Z</time>
      </trkpt>
      <trkpt lat="45.65317" lon="5.21962">
        <ele>350.6</ele>
        <time>2025-05-18T11:31:12Z</time>
      </trkpt>
      <trkpt lat="45.65316" lon="5.21966">
        <ele>349.4</ele>
        <time>2025-05-18T11:31:13Z</time>
      </trkpt>
      <trkpt lat="45.65315" lon="5.21968">
        <ele>348.2</ele>
        <time>2025-05-18T11:31:14Z</time>
      </trkpt>
      <trkpt lat="45.65314" lon="5.2197">
        <ele>345.8</ele>
        <time>2025-05-18T11:31:15Z</time>
      </trkpt>
      <trkpt lat="45.65313" lon="5.21973">
        <ele>345.8</ele>
        <time>2025-05-18T11:31:16Z</time>
      </trkpt>
      <trkpt lat="45.65311" lon="5.21976">
        <ele>345.8</ele>
        <time>2025-05-18T11:31:17Z</time>
      </trkpt>
      <trkpt lat="45.6531" lon="5.2198">
        <ele>345.8</ele>
        <time>2025-05-18T11:31:18Z</time>
      </trkpt>
      <trkpt lat="45.65309" lon="5.21985">
        <ele>344.8</ele>
        <time>2025-05-18T11:31:19Z</time>
      </trkpt>
      <trkpt lat="45.65309" lon="5.21991">
        <ele>344.4</ele>
        <time>2025-05-18T11:31:20Z</time>
      </trkpt>
      <trkpt lat="45.6531" lon="5.21997">
        <ele>344.2</ele>
        <time>2025-05-18T11:31:21Z</time>
      </trkpt>
      <trkpt lat="45.6531" lon="5.22003">
        <ele>343.6</ele>
        <time>2025-05-18T11:31:22Z</time>
      </trkpt>
      <trkpt lat="45.6531" lon="5.22008">
        <ele>342.6</ele>
        <time>2025-05-18T11:31:23Z</time>
      </trkpt>
      <trkpt lat="45.6531" lon="5.22012">
        <ele>342.2</ele>
        <time>2025-05-18T11:31:24Z</time>
      </trkpt>
      <trkpt lat="45.65309" lon="5.22016">
        <ele>341.4</ele>
        <time>2025-05-18T11:31:25Z</time>
      </trkpt>
      <trkpt lat="45.65307" lon="5.22019">
        <ele>341.4</ele>
        <time>2025-05-18T11:31:26Z</time>
      </trkpt>
      <trkpt lat="45.65306" lon="5.22022">
        <ele>341</ele>
        <time>2025-05-18T11:31:27Z</time>
      </trkpt>
      <trkpt lat="45.65304" lon="5.22024">
        <ele>340.8</ele>
        <time>2025-05-18T11:31:28Z</time>
      </trkpt>
      <trkpt lat="45.65303" lon="5.22025">
        <ele>340.6</ele>
        <time>2025-05-18T11:31:29Z</time>
      </trkpt>
      <trkpt lat="45.65302" lon="5.22026">
        <ele>340</ele>
        <time>2025-05-18T11:31:30Z</time>
      </trkpt>
      <trkpt lat="45.65301" lon="5.22028">
        <ele>339.8</ele>
        <time>2025-05-18T11:31:31Z</time>
      </trkpt>
      <trkpt lat="45.65299" lon="5.22031">
        <ele>339.4</ele>
        <time>2025-05-18T11:31:32Z</time>
      </trkpt>
      <trkpt lat="45.65296" lon="5.22033">
        <ele>339.4</ele>
        <time>2025-05-18T11:31:33Z</time>
      </trkpt>
      <trkpt lat="45.65294" lon="5.22036">
        <ele>338.4</ele>
        <time>2025-05-18T11:31:34Z</time>
      </trkpt>
      <trkpt lat="45.65292" lon="5.22038">
        <ele>338.4</ele>
        <time>2025-05-18T11:31:35Z</time>
      </trkpt>
      <trkpt lat="45.6529" lon="5.22041">
        <ele>338.4</ele>
        <time>2025-05-18T11:31:36Z</time>
      </trkpt>
      <trkpt lat="45.65288" lon="5.22044">
        <ele>337.8</ele>
        <time>2025-05-18T11:31:37Z</time>
      </trkpt>
      <trkpt lat="45.65286" lon="5.22045">
        <ele>337.4</ele>
        <time>2025-05-18T11:31:38Z</time>
      </trkpt>
      <trkpt lat="45.65285" lon="5.22048">
        <ele>337.2</ele>
        <time>2025-05-18T11:31:39Z</time>
      </trkpt>
      <trkpt lat="45.65282" lon="5.2205">
        <ele>336.8</ele>
        <time>2025-05-18T11:31:40Z</time>
      </trkpt>
      <trkpt lat="45.65279" lon="5.22051">
        <ele>336.4</ele>
        <time>2025-05-18T11:31:41Z</time>
      </trkpt>
      <trkpt lat="45.65277" lon="5.22051">
        <ele>336</ele>
        <time>2025-05-18T11:31:42Z</time>
      </trkpt>
      <trkpt lat="45.65274" lon="5.22051">
        <ele>335.8</ele>
        <time>2025-05-18T11:31:43Z</time>
      </trkpt>
      <trkpt lat="45.65271" lon="5.22052">
        <ele>335.8</ele>
        <time>2025-05-18T11:31:44Z</time>
      </trkpt>
      <trkpt lat="45.65269" lon="5.22053">
        <ele>335.4</ele>
        <time>2025-05-18T11:31:45Z</time>
      </trkpt>
      <trkpt lat="45.65265" lon="5.22056">
        <ele>335</ele>
        <time>2025-05-18T11:31:46Z</time>
      </trkpt>
      <trkpt lat="45.65262" lon="5.22058">
        <ele>334.4</ele>
        <time>2025-05-18T11:31:47Z</time>
      </trkpt>
      <trkpt lat="45.6526" lon="5.2206">
        <ele>334</ele>
        <time>2025-05-18T11:31:48Z</time>
      </trkpt>
      <trkpt lat="45.65259" lon="5.22061">
        <ele>333.4</ele>
        <time>2025-05-18T11:31:49Z</time>
      </trkpt>
      <trkpt lat="45.65258" lon="5.22061">
        <ele>333.2</ele>
        <time>2025-05-18T11:31:50Z</time>
      </trkpt>
      <trkpt lat="45.65258" lon="5.22063">
        <ele>332.6</ele>
        <time>2025-05-18T11:31:51Z</time>
      </trkpt>
      <trkpt lat="45.65257" lon="5.22066">
        <ele>332.4</ele>
        <time>2025-05-18T11:31:52Z</time>
      </trkpt>
      <trkpt lat="45.65255" lon="5.22068">
        <ele>331.8</ele>
        <time>2025-05-18T11:31:53Z</time>
      </trkpt>
      <trkpt lat="45.65254" lon="5.22071">
        <ele>331.4</ele>
        <time>2025-05-18T11:31:54Z</time>
      </trkpt>
      <trkpt lat="45.65252" lon="5.22074">
        <ele>331.2</ele>
        <time>2025-05-18T11:31:55Z</time>
      </trkpt>
      <trkpt lat="45.6525" lon="5.22078">
        <ele>331</ele>
        <time>2025-05-18T11:31:56Z</time>
      </trkpt>
      <trkpt lat="45.65248" lon="5.22081">
        <ele>330.6</ele>
        <time>2025-05-18T11:31:57Z</time>
      </trkpt>
      <trkpt lat="45.65246" lon="5.22085">
        <ele>330.4</ele>
        <time>2025-05-18T11:31:58Z</time>
      </trkpt>
      <trkpt lat="45.65245" lon="5.22089">
        <ele>329.4</ele>
        <time>2025-05-18T11:31:59Z</time>
      </trkpt>
      <trkpt lat="45.65244" lon="5.22094">
        <ele>329.4</ele>
        <time>2025-05-18T11:32:00Z</time>
      </trkpt>
      <trkpt lat="45.65243" lon="5.221">
        <ele>328</ele>
        <time>2025-05-18T11:32:01Z</time>
      </trkpt>
      <trkpt lat="45.65241" lon="5.22106">
        <ele>327</ele>
        <time>2025-05-18T11:32:02Z</time>
      </trkpt>
      <trkpt lat="45.65239" lon="5.22113">
        <ele>326.4</ele>
        <time>2025-05-18T11:32:03Z</time>
      </trkpt>
      <trkpt lat="45.6524" lon="5.22121">
        <ele>326.6</ele>
        <time>2025-05-18T11:32:04Z</time>
      </trkpt>
      <trkpt lat="45.65241" lon="5.22128">
        <ele>324.8</ele>
        <time>2025-05-18T11:32:05Z</time>
      </trkpt>
      <trkpt lat="45.65242" lon="5.22136">
        <ele>324</ele>
        <time>2025-05-18T11:32:06Z</time>
      </trkpt>
      <trkpt lat="45.65244" lon="5.22143">
        <ele>323</ele>
        <time>2025-05-18T11:32:07Z</time>
      </trkpt>
      <trkpt lat="45.65246" lon="5.2215">
        <ele>323.8</ele>
        <time>2025-05-18T11:32:08Z</time>
      </trkpt>
      <trkpt lat="45.65249" lon="5.22157">
        <ele>322.2</ele>
        <time>2025-05-18T11:32:09Z</time>
      </trkpt>
      <trkpt lat="45.65251" lon="5.22163">
        <ele>321.6</ele>
        <time>2025-05-18T11:32:10Z</time>
      </trkpt>
      <trkpt lat="45.65254" lon="5.2217">
        <ele>321.2</ele>
        <time>2025-05-18T11:32:11Z</time>
      </trkpt>
      <trkpt lat="45.65256" lon="5.22176">
        <ele>319.6</ele>
        <time>2025-05-18T11:32:12Z</time>
      </trkpt>
      <trkpt lat="45.65259" lon="5.22183">
        <ele>318.4</ele>
        <time>2025-05-18T11:32:13Z</time>
      </trkpt>
      <trkpt lat="45.65261" lon="5.22189">
        <ele>318.8</ele>
        <time>2025-05-18T11:32:14Z</time>
      </trkpt>
      <trkpt lat="45.65263" lon="5.22196">
        <ele>318.4</ele>
        <time>2025-05-18T11:32:15Z</time>
      </trkpt>
      <trkpt lat="45.65265" lon="5.22202">
        <ele>316.6</ele>
        <time>2025-05-18T11:32:16Z</time>
      </trkpt>
      <trkpt lat="45.65265" lon="5.22212">
        <ele>315.4</ele>
        <time>2025-05-18T11:32:17Z</time>
      </trkpt>
      <trkpt lat="45.65266" lon="5.22221">
        <ele>314.8</ele>
        <time>2025-05-18T11:32:18Z</time>
      </trkpt>
      <trkpt lat="45.65267" lon="5.22228">
        <ele>312.8</ele>
        <time>2025-05-18T11:32:19Z</time>
      </trkpt>
      <trkpt lat="45.65269" lon="5.22237">
        <ele>312.8</ele>
        <time>2025-05-18T11:32:20Z</time>
      </trkpt>
      <trkpt lat="45.6527" lon="5.22247">
        <ele>312.6</ele>
        <time>2025-05-18T11:32:21Z</time>
      </trkpt>
      <trkpt lat="45.65272" lon="5.22256">
        <ele>313</ele>
        <time>2025-05-18T11:32:22Z</time>
      </trkpt>
      <trkpt lat="45.65273" lon="5.22265">
        <ele>312.6</ele>
        <time>2025-05-18T11:32:23Z</time>
      </trkpt>
      <trkpt lat="45.65275" lon="5.22274">
        <ele>313</ele>
        <time>2025-05-18T11:32:24Z</time>
      </trkpt>
      <trkpt lat="45.65276" lon="5.22283">
        <ele>313</ele>
        <time>2025-05-18T11:32:25Z</time>
      </trkpt>
      <trkpt lat="45.65278" lon="5.22293">
        <ele>313.6</ele>
        <time>2025-05-18T11:32:26Z</time>
      </trkpt>
      <trkpt lat="45.65279" lon="5.22301">
        <ele>312.8</ele>
        <time>2025-05-18T11:32:27Z</time>
      </trkpt>
      <trkpt lat="45.65281" lon="5.22309">
        <ele>313.6</ele>
        <time>2025-05-18T11:32:28Z</time>
      </trkpt>
      <trkpt lat="45.65282" lon="5.22317">
        <ele>313.6</ele>
        <time>2025-05-18T11:32:29Z</time>
      </trkpt>
      <trkpt lat="45.65284" lon="5.22324">
        <ele>313.2</ele>
        <time>2025-05-18T11:32:30Z</time>
      </trkpt>
      <trkpt lat="45.65284" lon="5.22331">
        <ele>312.8</ele>
        <time>2025-05-18T11:32:31Z</time>
      </trkpt>
      <trkpt lat="45.65285" lon="5.22338">
        <ele>312.4</ele>
        <time>2025-05-18T11:32:32Z</time>
      </trkpt>
      <trkpt lat="45.65285" lon="5.22344">
        <ele>313.2</ele>
        <time>2025-05-18T11:32:33Z</time>
      </trkpt>
      <trkpt lat="45.65285" lon="5.2235">
        <ele>312.8</ele>
        <time>2025-05-18T11:32:34Z</time>
      </trkpt>
      <trkpt lat="45.65285" lon="5.22356">
        <ele>312.8</ele>
        <time>2025-05-18T11:32:35Z</time>
      </trkpt>
      <trkpt lat="45.65287" lon="5.22363">
        <ele>312.6</ele>
        <time>2025-05-18T11:32:36Z</time>
      </trkpt>
      <trkpt lat="45.65288" lon="5.22368">
        <ele>312.6</ele>
        <time>2025-05-18T11:32:37Z</time>
      </trkpt>
      <trkpt lat="45.65288" lon="5.22371">
        <ele>313.2</ele>
        <time>2025-05-18T11:32:38Z</time>
      </trkpt>
      <trkpt lat="45.6529" lon="5.22373">
        <ele>313.2</ele>
        <time>2025-05-18T11:32:39Z</time>
      </trkpt>
      <trkpt lat="45.6529" lon="5.22373">
        <ele>313.4</ele>
        <time>2025-05-18T11:32:40Z</time>
      </trkpt>
      <trkpt lat="45.65291" lon="5.22374">
        <ele>313.8</ele>
        <time>2025-05-18T11:32:49Z</time>
      </trkpt>
      <trkpt lat="45.65292" lon="5.22377">
        <ele>313.8</ele>
        <time>2025-05-18T11:32:50Z</time>
      </trkpt>
      <trkpt lat="45.65292" lon="5.22381">
        <ele>313.6</ele>
        <time>2025-05-18T11:32:51Z</time>
      </trkpt>
      <trkpt lat="45.65292" lon="5.22385">
        <ele>313.6</ele>
        <time>2025-05-18T11:32:52Z</time>
      </trkpt>
      <trkpt lat="45.65292" lon="5.2239">
        <ele>314.2</ele>
        <time>2025-05-18T11:32:53Z</time>
      </trkpt>
      <trkpt lat="45.65293" lon="5.22393">
        <ele>314.2</ele>
        <time>2025-05-18T11:32:54Z</time>
      </trkpt>
      <trkpt lat="45.65294" lon="5.22396">
        <ele>314.6</ele>
        <time>2025-05-18T11:32:55Z</time>
      </trkpt>
      <trkpt lat="45.65297" lon="5.22399">
        <ele>314.6</ele>
        <time>2025-05-18T11:32:56Z</time>
      </trkpt>
      <trkpt lat="45.65299" lon="5.22399">
        <ele>314.8</ele>
        <time>2025-05-18T11:32:57Z</time>
      </trkpt>
      <trkpt lat="45.65302" lon="5.22397">
        <ele>314.8</ele>
        <time>2025-05-18T11:32:58Z</time>
      </trkpt>
      <trkpt lat="45.65304" lon="5.22393">
        <ele>315</ele>
        <time>2025-05-18T11:32:59Z</time>
      </trkpt>
      <trkpt lat="45.65306" lon="5.22389">
        <ele>315</ele>
        <time>2025-05-18T11:33:00Z</time>
      </trkpt>
      <trkpt lat="45.65308" lon="5.22385">
        <ele>315.2</ele>
        <time>2025-05-18T11:33:01Z</time>
      </trkpt>
      <trkpt lat="45.6531" lon="5.22382">
        <ele>315.6</ele>
        <time>2025-05-18T11:33:02Z</time>
      </trkpt>
      <trkpt lat="45.65312" lon="5.22378">
        <ele>315.6</ele>
        <time>2025-05-18T11:33:03Z</time>
      </trkpt>
      <trkpt lat="45.65314" lon="5.22375">
        <ele>315.6</ele>
        <time>2025-05-18T11:33:04Z</time>
      </trkpt>
      <trkpt lat="45.65317" lon="5.22373">
        <ele>315.8</ele>
        <time>2025-05-18T11:33:05Z</time>
      </trkpt>
      <trkpt lat="45.65319" lon="5.22371">
        <ele>316.2</ele>
        <time>2025-05-18T11:33:06Z</time>
      </trkpt>
      <trkpt lat="45.65321" lon="5.22369">
        <ele>316.2</ele>
        <time>2025-05-18T11:33:07Z</time>
      </trkpt>
      <trkpt lat="45.65323" lon="5.22367">
        <ele>316.6</ele>
        <time>2025-05-18T11:33:08Z</time>
      </trkpt>
      <trkpt lat="45.65325" lon="5.22364">
        <ele>316.6</ele>
        <time>2025-05-18T11:33:09Z</time>
      </trkpt>
      <trkpt lat="45.65328" lon="5.22362">
        <ele>316.8</ele>
        <time>2025-05-18T11:33:10Z</time>
      </trkpt>
      <trkpt lat="45.6533" lon="5.2236">
        <ele>316.8</ele>
        <time>2025-05-18T11:33:11Z</time>
      </trkpt>
      <trkpt lat="45.65332" lon="5.22358">
        <ele>317.4</ele>
        <time>2025-05-18T11:33:12Z</time>
      </trkpt>
      <trkpt lat="45.65334" lon="5.22357">
        <ele>317.6</ele>
        <time>2025-05-18T11:33:13Z</time>
      </trkpt>
      <trkpt lat="45.65336" lon="5.22355">
        <ele>317.6</ele>
        <time>2025-05-18T11:33:14Z</time>
      </trkpt>
      <trkpt lat="45.65338" lon="5.22354">
        <ele>318</ele>
        <time>2025-05-18T11:33:15Z</time>
      </trkpt>
      <trkpt lat="45.65341" lon="5.22353">
        <ele>318.2</ele>
        <time>2025-05-18T11:33:16Z</time>
      </trkpt>
      <trkpt lat="45.65343" lon="5.22351">
        <ele>318.2</ele>
        <time>2025-05-18T11:33:17Z</time>
      </trkpt>
      <trkpt lat="45.65345" lon="5.2235">
        <ele>318.6</ele>
        <time>2025-05-18T11:33:18Z</time>
      </trkpt>
      <trkpt lat="45.65347" lon="5.22349">
        <ele>318.8</ele>
        <time>2025-05-18T11:33:19Z</time>
      </trkpt>
      <trkpt lat="45.65349" lon="5.22347">
        <ele>318.8</ele>
        <time>2025-05-18T11:33:20Z</time>
      </trkpt>
      <trkpt lat="45.6535" lon="5.22346">
        <ele>319.4</ele>
        <time>2025-05-18T11:33:21Z</time>
      </trkpt>
      <trkpt lat="45.65352" lon="5.22344">
        <ele>319.4</ele>
        <time>2025-05-18T11:33:22Z</time>
      </trkpt>
      <trkpt lat="45.65354" lon="5.22343">
        <ele>320</ele>
        <time>2025-05-18T11:33:23Z</time>
      </trkpt>
      <trkpt lat="45.65356" lon="5.22341">
        <ele>320</ele>
        <time>2025-05-18T11:33:24Z</time>
      </trkpt>
      <trkpt lat="45.65357" lon="5.2234">
        <ele>320.4</ele>
        <time>2025-05-18T11:33:25Z</time>
      </trkpt>
      <trkpt lat="45.65359" lon="5.22339">
        <ele>320.8</ele>
        <time>2025-05-18T11:33:26Z</time>
      </trkpt>
      <trkpt lat="45.65361" lon="5.22338">
        <ele>321.2</ele>
        <time>2025-05-18T11:33:27Z</time>
      </trkpt>
      <trkpt lat="45.65363" lon="5.22337">
        <ele>321.2</ele>
        <time>2025-05-18T11:33:28Z</time>
      </trkpt>
      <trkpt lat="45.65365" lon="5.22336">
        <ele>321.4</ele>
        <time>2025-05-18T11:33:29Z</time>
      </trkpt>
      <trkpt lat="45.65366" lon="5.22334">
        <ele>321.6</ele>
        <time>2025-05-18T11:33:30Z</time>
      </trkpt>
      <trkpt lat="45.65367" lon="5.22332">
        <ele>321.6</ele>
        <time>2025-05-18T11:33:31Z</time>
      </trkpt>
      <trkpt lat="45.65369" lon="5.2233">
        <ele>322</ele>
        <time>2025-05-18T11:33:32Z</time>
      </trkpt>
      <trkpt lat="45.65372" lon="5.22329">
        <ele>322.2</ele>
        <time>2025-05-18T11:33:33Z</time>
      </trkpt>
      <trkpt lat="45.65374" lon="5.22328">
        <ele>322.2</ele>
        <time>2025-05-18T11:33:34Z</time>
      </trkpt>
      <trkpt lat="45.65376" lon="5.22328">
        <ele>322.2</ele>
        <time>2025-05-18T11:33:35Z</time>
      </trkpt>
      <trkpt lat="45.65378" lon="5.22326">
        <ele>322.6</ele>
        <time>2025-05-18T11:33:36Z</time>
      </trkpt>
      <trkpt lat="45.65379" lon="5.22325">
        <ele>322.6</ele>
        <time>2025-05-18T11:33:37Z</time>
      </trkpt>
      <trkpt lat="45.6538" lon="5.22323">
        <ele>322.8</ele>
        <time>2025-05-18T11:33:38Z</time>
      </trkpt>
      <trkpt lat="45.65381" lon="5.22322">
        <ele>322.8</ele>
        <time>2025-05-18T11:33:39Z</time>
      </trkpt>
      <trkpt lat="45.65383" lon="5.22321">
        <ele>322.8</ele>
        <time>2025-05-18T11:33:40Z</time>
      </trkpt>
      <trkpt lat="45.65384" lon="5.22319">
        <ele>323.2</ele>
        <time>2025-05-18T11:33:41Z</time>
      </trkpt>
      <trkpt lat="45.65385" lon="5.22318">
        <ele>323.2</ele>
        <time>2025-05-18T11:33:42Z</time>
      </trkpt>
      <trkpt lat="45.65386" lon="5.22317">
        <ele>323.6</ele>
        <time>2025-05-18T11:33:43Z</time>
      </trkpt>
      <trkpt lat="45.65388" lon="5.22316">
        <ele>323.6</ele>
        <time>2025-05-18T11:33:44Z</time>
      </trkpt>
      <trkpt lat="45.65389" lon="5.22314">
        <ele>323.8</ele>
        <time>2025-05-18T11:33:45Z</time>
      </trkpt>
      <trkpt lat="45.65391" lon="5.22313">
        <ele>324</ele>
        <time>2025-05-18T11:33:46Z</time>
      </trkpt>
      <trkpt lat="45.65392" lon="5.22312">
        <ele>324</ele>
        <time>2025-05-18T11:33:47Z</time>
      </trkpt>
      <trkpt lat="45.65394" lon="5.22311">
        <ele>324.4</ele>
        <time>2025-05-18T11:33:48Z</time>
      </trkpt>
      <trkpt lat="45.65395" lon="5.2231">
        <ele>324.4</ele>
        <time>2025-05-18T11:33:49Z</time>
      </trkpt>
      <trkpt lat="45.65397" lon="5.22309">
        <ele>324.8</ele>
        <time>2025-05-18T11:33:50Z</time>
      </trkpt>
      <trkpt lat="45.65398" lon="5.22308">
        <ele>324.8</ele>
        <time>2025-05-18T11:33:51Z</time>
      </trkpt>
      <trkpt lat="45.654" lon="5.22307">
        <ele>325.2</ele>
        <time>2025-05-18T11:33:52Z</time>
      </trkpt>
      <trkpt lat="45.65401" lon="5.22307">
        <ele>325.2</ele>
        <time>2025-05-18T11:33:53Z</time>
      </trkpt>
      <trkpt lat="45.65405" lon="5.22307">
        <ele>325.6</ele>
        <time>2025-05-18T11:33:54Z</time>
      </trkpt>
      <trkpt lat="45.65407" lon="5.22307">
        <ele>325.8</ele>
        <time>2025-05-18T11:33:55Z</time>
      </trkpt>
      <trkpt lat="45.65408" lon="5.22307">
        <ele>325.8</ele>
        <time>2025-05-18T11:33:56Z</time>
      </trkpt>
      <trkpt lat="45.6541" lon="5.22308">
        <ele>325.8</ele>
        <time>2025-05-18T11:33:57Z</time>
      </trkpt>
      <trkpt lat="45.65411" lon="5.22308">
        <ele>326.2</ele>
        <time>2025-05-18T11:33:58Z</time>
      </trkpt>
      <trkpt lat="45.65413" lon="5.22308">
        <ele>326.4</ele>
        <time>2025-05-18T11:33:59Z</time>
      </trkpt>
      <trkpt lat="45.65415" lon="5.22308">
        <ele>326.4</ele>
        <time>2025-05-18T11:34:00Z</time>
      </trkpt>
      <trkpt lat="45.65417" lon="5.22308">
        <ele>326.8</ele>
        <time>2025-05-18T11:34:01Z</time>
      </trkpt>
      <trkpt lat="45.65418" lon="5.22308">
        <ele>326.8</ele>
        <time>2025-05-18T11:34:02Z</time>
      </trkpt>
      <trkpt lat="45.6542" lon="5.22308">
        <ele>327.2</ele>
        <time>2025-05-18T11:34:03Z</time>
      </trkpt>
      <trkpt lat="45.65422" lon="5.22309">
        <ele>327.2</ele>
        <time>2025-05-18T11:34:04Z</time>
      </trkpt>
      <trkpt lat="45.65424" lon="5.22309">
        <ele>327.2</ele>
        <time>2025-05-18T11:34:05Z</time>
      </trkpt>
      <trkpt lat="45.65425" lon="5.22309">
        <ele>327.6</ele>
        <time>2025-05-18T11:34:06Z</time>
      </trkpt>
      <trkpt lat="45.65427" lon="5.22309">
        <ele>327.8</ele>
        <time>2025-05-18T11:34:07Z</time>
      </trkpt>
      <trkpt lat="45.65429" lon="5.2231">
        <ele>327.8</ele>
        <time>2025-05-18T11:34:08Z</time>
      </trkpt>
      <trkpt lat="45.6543" lon="5.2231">
        <ele>328.2</ele>
        <time>2025-05-18T11:34:09Z</time>
      </trkpt>
      <trkpt lat="45.65432" lon="5.2231">
        <ele>328.4</ele>
        <time>2025-05-18T11:34:10Z</time>
      </trkpt>
      <trkpt lat="45.65433" lon="5.2231">
        <ele>328.6</ele>
        <time>2025-05-18T11:34:11Z</time>
      </trkpt>
      <trkpt lat="45.65435" lon="5.22311">
        <ele>328.8</ele>
        <time>2025-05-18T11:34:12Z</time>
      </trkpt>
      <trkpt lat="45.65437" lon="5.22311">
        <ele>328.8</ele>
        <time>2025-05-18T11:34:13Z</time>
      </trkpt>
      <trkpt lat="45.65438" lon="5.22312">
        <ele>329.2</ele>
        <time>2025-05-18T11:34:14Z</time>
      </trkpt>
      <trkpt lat="45.6544" lon="5.22312">
        <ele>329.4</ele>
        <time>2025-05-18T11:34:15Z</time>
      </trkpt>
      <trkpt lat="45.65441" lon="5.22311">
        <ele>329.4</ele>
        <time>2025-05-18T11:34:16Z</time>
      </trkpt>
      <trkpt lat="45.65443" lon="5.22311">
        <ele>329.8</ele>
        <time>2025-05-18T11:34:17Z</time>
      </trkpt>
      <trkpt lat="45.65444" lon="5.22311">
        <ele>330</ele>
        <time>2025-05-18T11:34:18Z</time>
      </trkpt>
      <trkpt lat="45.65446" lon="5.22312">
        <ele>330.4</ele>
        <time>2025-05-18T11:34:19Z</time>
      </trkpt>
      <trkpt lat="45.65447" lon="5.22313">
        <ele>330.6</ele>
        <time>2025-05-18T11:34:20Z</time>
      </trkpt>
      <trkpt lat="45.65449" lon="5.22313">
        <ele>330.6</ele>
        <time>2025-05-18T11:34:21Z</time>
      </trkpt>
      <trkpt lat="45.6545" lon="5.22314">
        <ele>331</ele>
        <time>2025-05-18T11:34:22Z</time>
      </trkpt>
      <trkpt lat="45.65451" lon="5.22314">
        <ele>331</ele>
        <time>2025-05-18T11:34:23Z</time>
      </trkpt>
      <trkpt lat="45.65452" lon="5.22314">
        <ele>331.2</ele>
        <time>2025-05-18T11:34:24Z</time>
      </trkpt>
      <trkpt lat="45.65453" lon="5.22314">
        <ele>331.6</ele>
        <time>2025-05-18T11:34:25Z</time>
      </trkpt>
      <trkpt lat="45.65455" lon="5.22314">
        <ele>331.6</ele>
        <time>2025-05-18T11:34:26Z</time>
      </trkpt>
      <trkpt lat="45.65456" lon="5.22314">
        <ele>331.8</ele>
        <time>2025-05-18T11:34:27Z</time>
      </trkpt>
      <trkpt lat="45.65458" lon="5.22314">
        <ele>332.2</ele>
        <time>2025-05-18T11:34:28Z</time>
      </trkpt>
      <trkpt lat="45.6546" lon="5.22314">
        <ele>332.2</ele>
        <time>2025-05-18T11:34:29Z</time>
      </trkpt>
      <trkpt lat="45.65461" lon="5.22314">
        <ele>332.2</ele>
        <time>2025-05-18T11:34:30Z</time>
      </trkpt>
      <trkpt lat="45.65462" lon="5.22314">
        <ele>332.4</ele>
        <time>2025-05-18T11:34:31Z</time>
      </trkpt>
      <trkpt lat="45.65464" lon="5.22314">
        <ele>332.4</ele>
        <time>2025-05-18T11:34:32Z</time>
      </trkpt>
      <trkpt lat="45.65465" lon="5.22314">
        <ele>332.4</ele>
        <time>2025-05-18T11:34:33Z</time>
      </trkpt>
      <trkpt lat="45.65466" lon="5.22314">
        <ele>332.8</ele>
        <time>2025-05-18T11:34:34Z</time>
      </trkpt>
      <trkpt lat="45.65468" lon="5.22314">
        <ele>332.8</ele>
        <time>2025-05-18T11:34:35Z</time>
      </trkpt>
      <trkpt lat="45.6547" lon="5.22315">
        <ele>333</ele>
        <time>2025-05-18T11:34:36Z</time>
      </trkpt>
      <trkpt lat="45.65472" lon="5.22315">
        <ele>333</ele>
        <time>2025-05-18T11:34:37Z</time>
      </trkpt>
      <trkpt lat="45.65473" lon="5.22316">
        <ele>333</ele>
        <time>2025-05-18T11:34:38Z</time>
      </trkpt>
      <trkpt lat="45.65475" lon="5.22316">
        <ele>333.4</ele>
        <time>2025-05-18T11:34:39Z</time>
      </trkpt>
      <trkpt lat="45.65476" lon="5.22316">
        <ele>333.8</ele>
        <time>2025-05-18T11:34:40Z</time>
      </trkpt>
      <trkpt lat="45.65477" lon="5.22316">
        <ele>333.8</ele>
        <time>2025-05-18T11:34:41Z</time>
      </trkpt>
      <trkpt lat="45.65479" lon="5.22316">
        <ele>333.8</ele>
        <time>2025-05-18T11:34:42Z</time>
      </trkpt>
      <trkpt lat="45.6548" lon="5.22317">
        <ele>334</ele>
        <time>2025-05-18T11:34:43Z</time>
      </trkpt>
      <trkpt lat="45.65482" lon="5.22317">
        <ele>334</ele>
        <time>2025-05-18T11:34:44Z</time>
      </trkpt>
      <trkpt lat="45.65483" lon="5.22317">
        <ele>334.4</ele>
        <time>2025-05-18T11:34:45Z</time>
      </trkpt>
      <trkpt lat="45.65485" lon="5.22317">
        <ele>334.6</ele>
        <time>2025-05-18T11:34:46Z</time>
      </trkpt>
      <trkpt lat="45.65486" lon="5.22317">
        <ele>334.6</ele>
        <time>2025-05-18T11:34:47Z</time>
      </trkpt>
      <trkpt lat="45.65488" lon="5.22316">
        <ele>335.2</ele>
        <time>2025-05-18T11:34:48Z</time>
      </trkpt>
      <trkpt lat="45.65489" lon="5.22316">
        <ele>335.2</ele>
        <time>2025-05-18T11:34:49Z</time>
      </trkpt>
      <trkpt lat="45.6549" lon="5.22317">
        <ele>335.4</ele>
        <time>2025-05-18T11:34:50Z</time>
      </trkpt>
      <trkpt lat="45.65492" lon="5.22317">
        <ele>335.8</ele>
        <time>2025-05-18T11:34:51Z</time>
      </trkpt>
      <trkpt lat="45.65493" lon="5.22317">
        <ele>335.8</ele>
        <time>2025-05-18T11:34:52Z</time>
      </trkpt>
      <trkpt lat="45.65495" lon="5.22317">
        <ele>335.8</ele>
        <time>2025-05-18T11:34:53Z</time>
      </trkpt>
      <trkpt lat="45.65496" lon="5.22316">
        <ele>335.8</ele>
        <time>2025-05-18T11:34:54Z</time>
      </trkpt>
      <trkpt lat="45.65498" lon="5.22316">
        <ele>335.8</ele>
        <time>2025-05-18T11:34:55Z</time>
      </trkpt>
      <trkpt lat="45.65499" lon="5.22316">
        <ele>335.8</ele>
        <time>2025-05-18T11:34:56Z</time>
      </trkpt>
      <trkpt lat="45.65501" lon="5.22316">
        <ele>336</ele>
        <time>2025-05-18T11:34:57Z</time>
      </trkpt>
      <trkpt lat="45.65502" lon="5.22316">
        <ele>336</ele>
        <time>2025-05-18T11:34:58Z</time>
      </trkpt>
      <trkpt lat="45.65504" lon="5.22316">
        <ele>336.4</ele>
        <time>2025-05-18T11:34:59Z</time>
      </trkpt>
      <trkpt lat="45.65505" lon="5.22316">
        <ele>336.4</ele>
        <time>2025-05-18T11:35:00Z</time>
      </trkpt>
      <trkpt lat="45.65507" lon="5.22317">
        <ele>336.8</ele>
        <time>2025-05-18T11:35:01Z</time>
      </trkpt>
      <trkpt lat="45.65509" lon="5.22317">
        <ele>336.8</ele>
        <time>2025-05-18T11:35:02Z</time>
      </trkpt>
      <trkpt lat="45.65511" lon="5.22318">
        <ele>337.2</ele>
        <time>2025-05-18T11:35:03Z</time>
      </trkpt>
      <trkpt lat="45.65512" lon="5.22317">
        <ele>337.2</ele>
        <time>2025-05-18T11:35:04Z</time>
      </trkpt>
      <trkpt lat="45.65514" lon="5.22317">
        <ele>337.8</ele>
        <time>2025-05-18T11:35:05Z</time>
      </trkpt>
      <trkpt lat="45.65515" lon="5.22317">
        <ele>337.8</ele>
        <time>2025-05-18T11:35:06Z</time>
      </trkpt>
      <trkpt lat="45.65516" lon="5.22318">
        <ele>338.2</ele>
        <time>2025-05-18T11:35:07Z</time>
      </trkpt>
      <trkpt lat="45.65517" lon="5.22318">
        <ele>338.2</ele>
        <time>2025-05-18T11:35:08Z</time>
      </trkpt>
      <trkpt lat="45.65519" lon="5.22318">
        <ele>338.4</ele>
        <time>2025-05-18T11:35:09Z</time>
      </trkpt>
      <trkpt lat="45.65521" lon="5.22319">
        <ele>338.4</ele>
        <time>2025-05-18T11:35:10Z</time>
      </trkpt>
      <trkpt lat="45.65522" lon="5.22318">
        <ele>338.8</ele>
        <time>2025-05-18T11:35:11Z</time>
      </trkpt>
      <trkpt lat="45.65522" lon="5.22318">
        <ele>338.8</ele>
        <time>2025-05-18T11:35:12Z</time>
      </trkpt>
      <trkpt lat="45.65523" lon="5.22318">
        <ele>339.2</ele>
        <time>2025-05-18T11:35:13Z</time>
      </trkpt>
      <trkpt lat="45.65525" lon="5.22318">
        <ele>339.2</ele>
        <time>2025-05-18T11:35:14Z</time>
      </trkpt>
      <trkpt lat="45.65527" lon="5.22319">
        <ele>339.2</ele>
        <time>2025-05-18T11:35:15Z</time>
      </trkpt>
      <trkpt lat="45.65528" lon="5.22319">
        <ele>339.2</ele>
        <time>2025-05-18T11:35:16Z</time>
      </trkpt>
      <trkpt lat="45.6553" lon="5.22319">
        <ele>339.4</ele>
        <time>2025-05-18T11:35:17Z</time>
      </trkpt>
      <trkpt lat="45.65531" lon="5.2232">
        <ele>339.4</ele>
        <time>2025-05-18T11:35:18Z</time>
      </trkpt>
      <trkpt lat="45.65533" lon="5.2232">
        <ele>339.4</ele>
        <time>2025-05-18T11:35:19Z</time>
      </trkpt>
      <trkpt lat="45.65534" lon="5.22321">
        <ele>339.8</ele>
        <time>2025-05-18T11:35:20Z</time>
      </trkpt>
      <trkpt lat="45.65536" lon="5.22321">
        <ele>339.8</ele>
        <time>2025-05-18T11:35:21Z</time>
      </trkpt>
      <trkpt lat="45.65538" lon="5.22321">
        <ele>340.2</ele>
        <time>2025-05-18T11:35:22Z</time>
      </trkpt>
      <trkpt lat="45.65538" lon="5.22322">
        <ele>340.2</ele>
        <time>2025-05-18T11:35:23Z</time>
      </trkpt>
      <trkpt lat="45.6554" lon="5.22322">
        <ele>340.6</ele>
        <time>2025-05-18T11:35:24Z</time>
      </trkpt>
      <trkpt lat="45.65542" lon="5.22322">
        <ele>340.6</ele>
        <time>2025-05-18T11:35:25Z</time>
      </trkpt>
      <trkpt lat="45.65543" lon="5.22322">
        <ele>340.8</ele>
        <time>2025-05-18T11:35:26Z</time>
      </trkpt>
      <trkpt lat="45.65544" lon="5.22322">
        <ele>340.8</ele>
        <time>2025-05-18T11:35:27Z</time>
      </trkpt>
      <trkpt lat="45.65546" lon="5.22322">
        <ele>341.2</ele>
        <time>2025-05-18T11:35:28Z</time>
      </trkpt>
      <trkpt lat="45.65548" lon="5.22323">
        <ele>341.2</ele>
        <time>2025-05-18T11:35:29Z</time>
      </trkpt>
      <trkpt lat="45.65549" lon="5.22323">
        <ele>341.2</ele>
        <time>2025-05-18T11:35:30Z</time>
      </trkpt>
      <trkpt lat="45.65551" lon="5.22324">
        <ele>341.2</ele>
        <time>2025-05-18T11:35:31Z</time>
      </trkpt>
      <trkpt lat="45.65553" lon="5.22325">
        <ele>341.4</ele>
        <time>2025-05-18T11:35:32Z</time>
      </trkpt>
      <trkpt lat="45.65554" lon="5.22325">
        <ele>341.6</ele>
        <time>2025-05-18T11:35:33Z</time>
      </trkpt>
      <trkpt lat="45.65556" lon="5.22325">
        <ele>341.6</ele>
        <time>2025-05-18T11:35:34Z</time>
      </trkpt>
      <trkpt lat="45.65557" lon="5.22325">
        <ele>342</ele>
        <time>2025-05-18T11:35:35Z</time>
      </trkpt>
      <trkpt lat="45.65559" lon="5.22325">
        <ele>342.4</ele>
        <time>2025-05-18T11:35:36Z</time>
      </trkpt>
      <trkpt lat="45.65561" lon="5.22325">
        <ele>342.4</ele>
        <time>2025-05-18T11:35:37Z</time>
      </trkpt>
      <trkpt lat="45.65563" lon="5.22326">
        <ele>342.4</ele>
        <time>2025-05-18T11:35:38Z</time>
      </trkpt>
      <trkpt lat="45.65565" lon="5.22326">
        <ele>342.4</ele>
        <time>2025-05-18T11:35:39Z</time>
      </trkpt>
      <trkpt lat="45.65566" lon="5.22326">
        <ele>342.6</ele>
        <time>2025-05-18T11:35:40Z</time>
      </trkpt>
      <trkpt lat="45.65567" lon="5.22327">
        <ele>342.6</ele>
        <time>2025-05-18T11:35:41Z</time>
      </trkpt>
      <trkpt lat="45.65568" lon="5.22326">
        <ele>343</ele>
        <time>2025-05-18T11:35:42Z</time>
      </trkpt>
      <trkpt lat="45.6557" lon="5.22326">
        <ele>343</ele>
        <time>2025-05-18T11:35:43Z</time>
      </trkpt>
      <trkpt lat="45.65572" lon="5.22326">
        <ele>343</ele>
        <time>2025-05-18T11:35:44Z</time>
      </trkpt>
      <trkpt lat="45.65575" lon="5.22326">
        <ele>343.4</ele>
        <time>2025-05-18T11:35:45Z</time>
      </trkpt>
      <trkpt lat="45.65576" lon="5.22326">
        <ele>343.4</ele>
        <time>2025-05-18T11:35:46Z</time>
      </trkpt>
      <trkpt lat="45.65578" lon="5.22325">
        <ele>343.4</ele>
        <time>2025-05-18T11:35:47Z</time>
      </trkpt>
      <trkpt lat="45.6558" lon="5.22325">
        <ele>342.4</ele>
        <time>2025-05-18T11:35:48Z</time>
      </trkpt>
      <trkpt lat="45.65583" lon="5.22325">
        <ele>342.8</ele>
        <time>2025-05-18T11:35:49Z</time>
      </trkpt>
      <trkpt lat="45.65585" lon="5.22325">
        <ele>343</ele>
        <time>2025-05-18T11:35:50Z</time>
      </trkpt>
      <trkpt lat="45.65586" lon="5.22325">
        <ele>343</ele>
        <time>2025-05-18T11:35:51Z</time>
      </trkpt>
      <trkpt lat="45.65589" lon="5.22325">
        <ele>343.4</ele>
        <time>2025-05-18T11:35:52Z</time>
      </trkpt>
      <trkpt lat="45.65591" lon="5.22325">
        <ele>343.4</ele>
        <time>2025-05-18T11:35:53Z</time>
      </trkpt>
      <trkpt lat="45.65593" lon="5.22325">
        <ele>343.4</ele>
        <time>2025-05-18T11:35:54Z</time>
      </trkpt>
      <trkpt lat="45.65595" lon="5.22325">
        <ele>343.6</ele>
        <time>2025-05-18T11:35:55Z</time>
      </trkpt>
      <trkpt lat="45.65598" lon="5.22325">
        <ele>343.6</ele>
        <time>2025-05-18T11:35:56Z</time>
      </trkpt>
      <trkpt lat="45.656" lon="5.22325">
        <ele>343.6</ele>
        <time>2025-05-18T11:35:57Z</time>
      </trkpt>
      <trkpt lat="45.65602" lon="5.22325">
        <ele>343.6</ele>
        <time>2025-05-18T11:35:58Z</time>
      </trkpt>
      <trkpt lat="45.65605" lon="5.22325">
        <ele>343.8</ele>
        <time>2025-05-18T11:35:59Z</time>
      </trkpt>
      <trkpt lat="45.65607" lon="5.22325">
        <ele>343.8</ele>
        <time>2025-05-18T11:36:00Z</time>
      </trkpt>
      <trkpt lat="45.6561" lon="5.22325">
        <ele>343.8</ele>
        <time>2025-05-18T11:36:01Z</time>
      </trkpt>
      <trkpt lat="45.65612" lon="5.22325">
        <ele>343.8</ele>
        <time>2025-05-18T11:36:02Z</time>
      </trkpt>
      <trkpt lat="45.65615" lon="5.22325">
        <ele>344</ele>
        <time>2025-05-18T11:36:03Z</time>
      </trkpt>
      <trkpt lat="45.65618" lon="5.22325">
        <ele>344</ele>
        <time>2025-05-18T11:36:04Z</time>
      </trkpt>
      <trkpt lat="45.65621" lon="5.22325">
        <ele>344</ele>
        <time>2025-05-18T11:36:05Z</time>
      </trkpt>
      <trkpt lat="45.65624" lon="5.22325">
        <ele>344</ele>
        <time>2025-05-18T11:36:06Z</time>
      </trkpt>
      <trkpt lat="45.65627" lon="5.22325">
        <ele>344</ele>
        <time>2025-05-18T11:36:07Z</time>
      </trkpt>
      <trkpt lat="45.65629" lon="5.22324">
        <ele>344</ele>
        <time>2025-05-18T11:36:08Z</time>
      </trkpt>
      <trkpt lat="45.65629" lon="5.22324">
        <ele>344.4</ele>
        <time>2025-05-18T11:36:09Z</time>
      </trkpt>
      <trkpt lat="45.65632" lon="5.22324">
        <ele>344.6</ele>
        <time>2025-05-18T11:36:10Z</time>
      </trkpt>
      <trkpt lat="45.65635" lon="5.22324">
        <ele>344.6</ele>
        <time>2025-05-18T11:36:11Z</time>
      </trkpt>
      <trkpt lat="45.65638" lon="5.22324">
        <ele>344.8</ele>
        <time>2025-05-18T11:36:12Z</time>
      </trkpt>
      <trkpt lat="45.65641" lon="5.22324">
        <ele>344.8</ele>
        <time>2025-05-18T11:36:13Z</time>
      </trkpt>
      <trkpt lat="45.65644" lon="5.22324">
        <ele>344.8</ele>
        <time>2025-05-18T11:36:14Z</time>
      </trkpt>
      <trkpt lat="45.65647" lon="5.22323">
        <ele>344.8</ele>
        <time>2025-05-18T11:36:15Z</time>
      </trkpt>
      <trkpt lat="45.6565" lon="5.22322">
        <ele>344.8</ele>
        <time>2025-05-18T11:36:16Z</time>
      </trkpt>
      <trkpt lat="45.65652" lon="5.22321">
        <ele>345</ele>
        <time>2025-05-18T11:36:17Z</time>
      </trkpt>
      <trkpt lat="45.65655" lon="5.22321">
        <ele>345</ele>
        <time>2025-05-18T11:36:18Z</time>
      </trkpt>
      <trkpt lat="45.65658" lon="5.22321">
        <ele>345</ele>
        <time>2025-05-18T11:36:19Z</time>
      </trkpt>
      <trkpt lat="45.65661" lon="5.22321">
        <ele>345.4</ele>
        <time>2025-05-18T11:36:20Z</time>
      </trkpt>
      <trkpt lat="45.65663" lon="5.22321">
        <ele>345.6</ele>
        <time>2025-05-18T11:36:21Z</time>
      </trkpt>
      <trkpt lat="45.65666" lon="5.22321">
        <ele>345.6</ele>
        <time>2025-05-18T11:36:22Z</time>
      </trkpt>
      <trkpt lat="45.65669" lon="5.22321">
        <ele>345.6</ele>
        <time>2025-05-18T11:36:23Z</time>
      </trkpt>
      <trkpt lat="45.65672" lon="5.22321">
        <ele>346</ele>
        <time>2025-05-18T11:36:24Z</time>
      </trkpt>
      <trkpt lat="45.65675" lon="5.2232">
        <ele>346</ele>
        <time>2025-05-18T11:36:25Z</time>
      </trkpt>
      <trkpt lat="45.65678" lon="5.2232">
        <ele>346.2</ele>
        <time>2025-05-18T11:36:26Z</time>
      </trkpt>
      <trkpt lat="45.6568" lon="5.22319">
        <ele>346.2</ele>
        <time>2025-05-18T11:36:27Z</time>
      </trkpt>
      <trkpt lat="45.65683" lon="5.22319">
        <ele>346.8</ele>
        <time>2025-05-18T11:36:28Z</time>
      </trkpt>
      <trkpt lat="45.65686" lon="5.22319">
        <ele>346.8</ele>
        <time>2025-05-18T11:36:29Z</time>
      </trkpt>
      <trkpt lat="45.65688" lon="5.22318">
        <ele>347.2</ele>
        <time>2025-05-18T11:36:30Z</time>
      </trkpt>
      <trkpt lat="45.6569" lon="5.22318">
        <ele>347.2</ele>
        <time>2025-05-18T11:36:31Z</time>
      </trkpt>
      <trkpt lat="45.65692" lon="5.22318">
        <ele>347.6</ele>
        <time>2025-05-18T11:36:32Z</time>
      </trkpt>
      <trkpt lat="45.65694" lon="5.22318">
        <ele>347.6</ele>
        <time>2025-05-18T11:36:33Z</time>
      </trkpt>
      <trkpt lat="45.65697" lon="5.22318">
        <ele>347.8</ele>
        <time>2025-05-18T11:36:34Z</time>
      </trkpt>
      <trkpt lat="45.65699" lon="5.22318">
        <ele>348</ele>
        <time>2025-05-18T11:36:35Z</time>
      </trkpt>
      <trkpt lat="45.65701" lon="5.22318">
        <ele>348</ele>
        <time>2025-05-18T11:36:36Z</time>
      </trkpt>
      <trkpt lat="45.65703" lon="5.22319">
        <ele>348.4</ele>
        <time>2025-05-18T11:36:37Z</time>
      </trkpt>
      <trkpt lat="45.65705" lon="5.22319">
        <ele>348.4</ele>
        <time>2025-05-18T11:36:38Z</time>
      </trkpt>
      <trkpt lat="45.65707" lon="5.2232">
        <ele>348.8</ele>
        <time>2025-05-18T11:36:39Z</time>
      </trkpt>
      <trkpt lat="45.65709" lon="5.22321">
        <ele>348.8</ele>
        <time>2025-05-18T11:36:40Z</time>
      </trkpt>
      <trkpt lat="45.65712" lon="5.22322">
        <ele>349</ele>
        <time>2025-05-18T11:36:41Z</time>
      </trkpt>
      <trkpt lat="45.65714" lon="5.22322">
        <ele>349.4</ele>
        <time>2025-05-18T11:36:42Z</time>
      </trkpt>
      <trkpt lat="45.65716" lon="5.22322">
        <ele>349.4</ele>
        <time>2025-05-18T11:36:43Z</time>
      </trkpt>
      <trkpt lat="45.65718" lon="5.22322">
        <ele>349.6</ele>
        <time>2025-05-18T11:36:44Z</time>
      </trkpt>
      <trkpt lat="45.6572" lon="5.22323">
        <ele>350</ele>
        <time>2025-05-18T11:36:45Z</time>
      </trkpt>
      <trkpt lat="45.65722" lon="5.22324">
        <ele>350.2</ele>
        <time>2025-05-18T11:36:46Z</time>
      </trkpt>
      <trkpt lat="45.65724" lon="5.22324">
        <ele>350.2</ele>
        <time>2025-05-18T11:36:47Z</time>
      </trkpt>
      <trkpt lat="45.65726" lon="5.22325">
        <ele>350.6</ele>
        <time>2025-05-18T11:36:48Z</time>
      </trkpt>
      <trkpt lat="45.65728" lon="5.22326">
        <ele>350.6</ele>
        <time>2025-05-18T11:36:49Z</time>
      </trkpt>
      <trkpt lat="45.65729" lon="5.22327">
        <ele>351</ele>
        <time>2025-05-18T11:36:50Z</time>
      </trkpt>
      <trkpt lat="45.65731" lon="5.22328">
        <ele>351</ele>
        <time>2025-05-18T11:36:51Z</time>
      </trkpt>
      <trkpt lat="45.65733" lon="5.22329">
        <ele>351.2</ele>
        <time>2025-05-18T11:36:52Z</time>
      </trkpt>
      <trkpt lat="45.65735" lon="5.2233">
        <ele>351.2</ele>
        <time>2025-05-18T11:36:53Z</time>
      </trkpt>
      <trkpt lat="45.65737" lon="5.2233">
        <ele>351.6</ele>
        <time>2025-05-18T11:36:54Z</time>
      </trkpt>
      <trkpt lat="45.65739" lon="5.22331">
        <ele>351.6</ele>
        <time>2025-05-18T11:36:55Z</time>
      </trkpt>
      <trkpt lat="45.65741" lon="5.22333">
        <ele>351.6</ele>
        <time>2025-05-18T11:36:56Z</time>
      </trkpt>
      <trkpt lat="45.65743" lon="5.22334">
        <ele>351.8</ele>
        <time>2025-05-18T11:36:57Z</time>
      </trkpt>
      <trkpt lat="45.65745" lon="5.22335">
        <ele>351.8</ele>
        <time>2025-05-18T11:36:58Z</time>
      </trkpt>
      <trkpt lat="45.65747" lon="5.22335">
        <ele>351.8</ele>
        <time>2025-05-18T11:36:59Z</time>
      </trkpt>
      <trkpt lat="45.65749" lon="5.22336">
        <ele>351.8</ele>
        <time>2025-05-18T11:37:00Z</time>
      </trkpt>
      <trkpt lat="45.65751" lon="5.22337">
        <ele>352.2</ele>
        <time>2025-05-18T11:37:01Z</time>
      </trkpt>
      <trkpt lat="45.65752" lon="5.22338">
        <ele>352.2</ele>
        <time>2025-05-18T11:37:02Z</time>
      </trkpt>
      <trkpt lat="45.65754" lon="5.22339">
        <ele>352.2</ele>
        <time>2025-05-18T11:37:03Z</time>
      </trkpt>
      <trkpt lat="45.65756" lon="5.2234">
        <ele>352.4</ele>
        <time>2025-05-18T11:37:04Z</time>
      </trkpt>
      <trkpt lat="45.65758" lon="5.22341">
        <ele>352.4</ele>
        <time>2025-05-18T11:37:05Z</time>
      </trkpt>
      <trkpt lat="45.6576" lon="5.22343">
        <ele>352.6</ele>
        <time>2025-05-18T11:37:06Z</time>
      </trkpt>
      <trkpt lat="45.65762" lon="5.22344">
        <ele>353</ele>
        <time>2025-05-18T11:37:07Z</time>
      </trkpt>
      <trkpt lat="45.65764" lon="5.22345">
        <ele>353.4</ele>
        <time>2025-05-18T11:37:08Z</time>
      </trkpt>
      <trkpt lat="45.65766" lon="5.22346">
        <ele>353.4</ele>
        <time>2025-05-18T11:37:09Z</time>
      </trkpt>
      <trkpt lat="45.65767" lon="5.22348">
        <ele>353.6</ele>
        <time>2025-05-18T11:37:10Z</time>
      </trkpt>
      <trkpt lat="45.65769" lon="5.22349">
        <ele>353.8</ele>
        <time>2025-05-18T11:37:11Z</time>
      </trkpt>
      <trkpt lat="45.65771" lon="5.2235">
        <ele>354</ele>
        <time>2025-05-18T11:37:12Z</time>
      </trkpt>
      <trkpt lat="45.65773" lon="5.22351">
        <ele>354.4</ele>
        <time>2025-05-18T11:37:13Z</time>
      </trkpt>
      <trkpt lat="45.65775" lon="5.22352">
        <ele>354.6</ele>
        <time>2025-05-18T11:37:14Z</time>
      </trkpt>
      <trkpt lat="45.65777" lon="5.22353">
        <ele>354.8</ele>
        <time>2025-05-18T11:37:15Z</time>
      </trkpt>
      <trkpt lat="45.65778" lon="5.22354">
        <ele>354.8</ele>
        <time>2025-05-18T11:37:16Z</time>
      </trkpt>
      <trkpt lat="45.6578" lon="5.22355">
        <ele>355.2</ele>
        <time>2025-05-18T11:37:17Z</time>
      </trkpt>
      <trkpt lat="45.65781" lon="5.22356">
        <ele>355.4</ele>
        <time>2025-05-18T11:37:18Z</time>
      </trkpt>
      <trkpt lat="45.65783" lon="5.22358">
        <ele>355.4</ele>
        <time>2025-05-18T11:37:19Z</time>
      </trkpt>
      <trkpt lat="45.65784" lon="5.22359">
        <ele>355.4</ele>
        <time>2025-05-18T11:37:20Z</time>
      </trkpt>
      <trkpt lat="45.65786" lon="5.2236">
        <ele>355.8</ele>
        <time>2025-05-18T11:37:21Z</time>
      </trkpt>
      <trkpt lat="45.65787" lon="5.22361">
        <ele>356</ele>
        <time>2025-05-18T11:37:22Z</time>
      </trkpt>
      <trkpt lat="45.65789" lon="5.22362">
        <ele>356.2</ele>
        <time>2025-05-18T11:37:23Z</time>
      </trkpt>
      <trkpt lat="45.6579" lon="5.22364">
        <ele>355.8</ele>
        <time>2025-05-18T11:37:24Z</time>
      </trkpt>
      <trkpt lat="45.65791" lon="5.22366">
        <ele>356.2</ele>
        <time>2025-05-18T11:37:25Z</time>
      </trkpt>
      <trkpt lat="45.65793" lon="5.22367">
        <ele>356.2</ele>
        <time>2025-05-18T11:37:26Z</time>
      </trkpt>
      <trkpt lat="45.65794" lon="5.22369">
        <ele>356.4</ele>
        <time>2025-05-18T11:37:27Z</time>
      </trkpt>
      <trkpt lat="45.65796" lon="5.2237">
        <ele>356.4</ele>
        <time>2025-05-18T11:37:28Z</time>
      </trkpt>
      <trkpt lat="45.65797" lon="5.22372">
        <ele>356.8</ele>
        <time>2025-05-18T11:37:29Z</time>
      </trkpt>
      <trkpt lat="45.65799" lon="5.22373">
        <ele>356.8</ele>
        <time>2025-05-18T11:37:30Z</time>
      </trkpt>
      <trkpt lat="45.658" lon="5.22376">
        <ele>357</ele>
        <time>2025-05-18T11:37:31Z</time>
      </trkpt>
      <trkpt lat="45.65801" lon="5.22378">
        <ele>357</ele>
        <time>2025-05-18T11:37:32Z</time>
      </trkpt>
      <trkpt lat="45.65802" lon="5.2238">
        <ele>357</ele>
        <time>2025-05-18T11:37:33Z</time>
      </trkpt>
      <trkpt lat="45.65803" lon="5.22382">
        <ele>357</ele>
        <time>2025-05-18T11:37:34Z</time>
      </trkpt>
      <trkpt lat="45.65804" lon="5.22386">
        <ele>357</ele>
        <time>2025-05-18T11:37:35Z</time>
      </trkpt>
      <trkpt lat="45.65804" lon="5.22389">
        <ele>357.4</ele>
        <time>2025-05-18T11:37:36Z</time>
      </trkpt>
      <trkpt lat="45.65804" lon="5.22392">
        <ele>357.6</ele>
        <time>2025-05-18T11:37:37Z</time>
      </trkpt>
      <trkpt lat="45.65805" lon="5.22395">
        <ele>357.6</ele>
        <time>2025-05-18T11:37:38Z</time>
      </trkpt>
      <trkpt lat="45.65805" lon="5.22399">
        <ele>358</ele>
        <time>2025-05-18T11:37:39Z</time>
      </trkpt>
      <trkpt lat="45.65805" lon="5.22402">
        <ele>358.2</ele>
        <time>2025-05-18T11:37:40Z</time>
      </trkpt>
      <trkpt lat="45.65805" lon="5.22406">
        <ele>358.2</ele>
        <time>2025-05-18T11:37:41Z</time>
      </trkpt>
      <trkpt lat="45.65805" lon="5.22409">
        <ele>358.2</ele>
        <time>2025-05-18T11:37:42Z</time>
      </trkpt>
      <trkpt lat="45.65805" lon="5.22413">
        <ele>358.2</ele>
        <time>2025-05-18T11:37:43Z</time>
      </trkpt>
      <trkpt lat="45.65805" lon="5.22417">
        <ele>358.2</ele>
        <time>2025-05-18T11:37:44Z</time>
      </trkpt>
      <trkpt lat="45.65805" lon="5.22422">
        <ele>358.2</ele>
        <time>2025-05-18T11:37:45Z</time>
      </trkpt>
      <trkpt lat="45.65805" lon="5.22426">
        <ele>358.2</ele>
        <time>2025-05-18T11:37:46Z</time>
      </trkpt>
      <trkpt lat="45.65805" lon="5.2243">
        <ele>358.4</ele>
        <time>2025-05-18T11:37:47Z</time>
      </trkpt>
      <trkpt lat="45.65806" lon="5.22435">
        <ele>358.4</ele>
        <time>2025-05-18T11:37:48Z</time>
      </trkpt>
      <trkpt lat="45.6581" lon="5.22442">
        <ele>358.8</ele>
        <time>2025-05-18T11:37:49Z</time>
      </trkpt>
      <trkpt lat="45.65814" lon="5.22445">
        <ele>358.8</ele>
        <time>2025-05-18T11:37:50Z</time>
      </trkpt>
      <trkpt lat="45.65818" lon="5.22446">
        <ele>358.8</ele>
        <time>2025-05-18T11:37:51Z</time>
      </trkpt>
      <trkpt lat="45.65822" lon="5.22447">
        <ele>358.8</ele>
        <time>2025-05-18T11:37:52Z</time>
      </trkpt>
      <trkpt lat="45.65825" lon="5.22448">
        <ele>358.8</ele>
        <time>2025-05-18T11:37:53Z</time>
      </trkpt>
      <trkpt lat="45.65828" lon="5.22448">
        <ele>359</ele>
        <time>2025-05-18T11:37:54Z</time>
      </trkpt>
      <trkpt lat="45.65832" lon="5.22449">
        <ele>359</ele>
        <time>2025-05-18T11:37:55Z</time>
      </trkpt>
      <trkpt lat="45.65835" lon="5.2245">
        <ele>359</ele>
        <time>2025-05-18T11:37:56Z</time>
      </trkpt>
      <trkpt lat="45.65839" lon="5.2245">
        <ele>359</ele>
        <time>2025-05-18T11:37:57Z</time>
      </trkpt>
      <trkpt lat="45.65843" lon="5.22451">
        <ele>359</ele>
        <time>2025-05-18T11:37:58Z</time>
      </trkpt>
      <trkpt lat="45.65846" lon="5.22453">
        <ele>359</ele>
        <time>2025-05-18T11:37:59Z</time>
      </trkpt>
      <trkpt lat="45.6585" lon="5.22454">
        <ele>359</ele>
        <time>2025-05-18T11:38:00Z</time>
      </trkpt>
      <trkpt lat="45.65853" lon="5.22455">
        <ele>359</ele>
        <time>2025-05-18T11:38:01Z</time>
      </trkpt>
      <trkpt lat="45.65855" lon="5.22457">
        <ele>359.4</ele>
        <time>2025-05-18T11:38:02Z</time>
      </trkpt>
      <trkpt lat="45.65858" lon="5.22458">
        <ele>359.4</ele>
        <time>2025-05-18T11:38:03Z</time>
      </trkpt>
      <trkpt lat="45.6586" lon="5.22461">
        <ele>359.4</ele>
        <time>2025-05-18T11:38:04Z</time>
      </trkpt>
      <trkpt lat="45.65863" lon="5.22462">
        <ele>359.4</ele>
        <time>2025-05-18T11:38:05Z</time>
      </trkpt>
      <trkpt lat="45.65866" lon="5.22463">
        <ele>359.4</ele>
        <time>2025-05-18T11:38:06Z</time>
      </trkpt>
      <trkpt lat="45.65869" lon="5.22464">
        <ele>360</ele>
        <time>2025-05-18T11:38:07Z</time>
      </trkpt>
      <trkpt lat="45.65871" lon="5.22464">
        <ele>360</ele>
        <time>2025-05-18T11:38:08Z</time>
      </trkpt>
      <trkpt lat="45.65875" lon="5.22465">
        <ele>360</ele>
        <time>2025-05-18T11:38:09Z</time>
      </trkpt>
      <trkpt lat="45.65878" lon="5.22466">
        <ele>360.2</ele>
        <time>2025-05-18T11:38:10Z</time>
      </trkpt>
      <trkpt lat="45.65881" lon="5.22468">
        <ele>360.8</ele>
        <time>2025-05-18T11:38:11Z</time>
      </trkpt>
      <trkpt lat="45.65884" lon="5.22469">
        <ele>360.8</ele>
        <time>2025-05-18T11:38:12Z</time>
      </trkpt>
      <trkpt lat="45.65887" lon="5.22471">
        <ele>360.6</ele>
        <time>2025-05-18T11:38:13Z</time>
      </trkpt>
      <trkpt lat="45.6589" lon="5.22472">
        <ele>360.8</ele>
        <time>2025-05-18T11:38:14Z</time>
      </trkpt>
      <trkpt lat="45.65893" lon="5.22474">
        <ele>361</ele>
        <time>2025-05-18T11:38:15Z</time>
      </trkpt>
      <trkpt lat="45.65896" lon="5.22476">
        <ele>361</ele>
        <time>2025-05-18T11:38:16Z</time>
      </trkpt>
      <trkpt lat="45.65899" lon="5.22478">
        <ele>361</ele>
        <time>2025-05-18T11:38:17Z</time>
      </trkpt>
      <trkpt lat="45.65902" lon="5.22479">
        <ele>361.2</ele>
        <time>2025-05-18T11:38:18Z</time>
      </trkpt>
      <trkpt lat="45.65906" lon="5.22481">
        <ele>361.2</ele>
        <time>2025-05-18T11:38:19Z</time>
      </trkpt>
      <trkpt lat="45.6591" lon="5.22484">
        <ele>361.2</ele>
        <time>2025-05-18T11:38:20Z</time>
      </trkpt>
      <trkpt lat="45.65913" lon="5.22486">
        <ele>361.2</ele>
        <time>2025-05-18T11:38:21Z</time>
      </trkpt>
      <trkpt lat="45.65917" lon="5.22488">
        <ele>361.2</ele>
        <time>2025-05-18T11:38:22Z</time>
      </trkpt>
      <trkpt lat="45.65919" lon="5.22491">
        <ele>361.2</ele>
        <time>2025-05-18T11:38:23Z</time>
      </trkpt>
      <trkpt lat="45.65922" lon="5.22494">
        <ele>361.2</ele>
        <time>2025-05-18T11:38:24Z</time>
      </trkpt>
      <trkpt lat="45.65925" lon="5.22497">
        <ele>361</ele>
        <time>2025-05-18T11:38:25Z</time>
      </trkpt>
      <trkpt lat="45.65928" lon="5.22501">
        <ele>361</ele>
        <time>2025-05-18T11:38:26Z</time>
      </trkpt>
      <trkpt lat="45.6593" lon="5.22504">
        <ele>361</ele>
        <time>2025-05-18T11:38:27Z</time>
      </trkpt>
      <trkpt lat="45.65933" lon="5.22508">
        <ele>361</ele>
        <time>2025-05-18T11:38:28Z</time>
      </trkpt>
      <trkpt lat="45.65935" lon="5.22512">
        <ele>361</ele>
        <time>2025-05-18T11:38:29Z</time>
      </trkpt>
      <trkpt lat="45.65937" lon="5.22516">
        <ele>361</ele>
        <time>2025-05-18T11:38:30Z</time>
      </trkpt>
      <trkpt lat="45.6594" lon="5.2252">
        <ele>361</ele>
        <time>2025-05-18T11:38:31Z</time>
      </trkpt>
      <trkpt lat="45.65942" lon="5.22524">
        <ele>361</ele>
        <time>2025-05-18T11:38:32Z</time>
      </trkpt>
      <trkpt lat="45.65945" lon="5.22529">
        <ele>361</ele>
        <time>2025-05-18T11:38:33Z</time>
      </trkpt>
      <trkpt lat="45.65947" lon="5.22533">
        <ele>361</ele>
        <time>2025-05-18T11:38:34Z</time>
      </trkpt>
      <trkpt lat="45.6595" lon="5.22537">
        <ele>361</ele>
        <time>2025-05-18T11:38:35Z</time>
      </trkpt>
      <trkpt lat="45.65952" lon="5.22542">
        <ele>361</ele>
        <time>2025-05-18T11:38:36Z</time>
      </trkpt>
      <trkpt lat="45.65955" lon="5.22547">
        <ele>361</ele>
        <time>2025-05-18T11:38:37Z</time>
      </trkpt>
      <trkpt lat="45.65957" lon="5.22551">
        <ele>361.2</ele>
        <time>2025-05-18T11:38:38Z</time>
      </trkpt>
      <trkpt lat="45.65959" lon="5.22556">
        <ele>361.2</ele>
        <time>2025-05-18T11:38:39Z</time>
      </trkpt>
      <trkpt lat="45.65962" lon="5.2256">
        <ele>361.2</ele>
        <time>2025-05-18T11:38:40Z</time>
      </trkpt>
      <trkpt lat="45.65962" lon="5.2256">
        <ele>361.4</ele>
        <time>2025-05-18T11:38:41Z</time>
      </trkpt>
      <trkpt lat="45.65962" lon="5.2256">
        <ele>361.4</ele>
        <time>2025-05-18T11:38:42Z</time>
      </trkpt>
      <trkpt lat="45.6597" lon="5.22573">
        <ele>361.4</ele>
        <time>2025-05-18T11:38:44Z</time>
      </trkpt>
      <trkpt lat="45.65973" lon="5.22577">
        <ele>361.8</ele>
        <time>2025-05-18T11:38:45Z</time>
      </trkpt>
      <trkpt lat="45.65976" lon="5.22581">
        <ele>361.8</ele>
        <time>2025-05-18T11:38:46Z</time>
      </trkpt>
      <trkpt lat="45.65979" lon="5.22586">
        <ele>361.8</ele>
        <time>2025-05-18T11:38:47Z</time>
      </trkpt>
      <trkpt lat="45.65983" lon="5.2259">
        <ele>361.6</ele>
        <time>2025-05-18T11:38:48Z</time>
      </trkpt>
      <trkpt lat="45.65987" lon="5.22595">
        <ele>361.6</ele>
        <time>2025-05-18T11:38:49Z</time>
      </trkpt>
      <trkpt lat="45.65991" lon="5.22599">
        <ele>361.6</ele>
        <time>2025-05-18T11:38:50Z</time>
      </trkpt>
      <trkpt lat="45.65995" lon="5.22603">
        <ele>361.6</ele>
        <time>2025-05-18T11:38:51Z</time>
      </trkpt>
      <trkpt lat="45.65999" lon="5.22607">
        <ele>361.6</ele>
        <time>2025-05-18T11:38:52Z</time>
      </trkpt>
      <trkpt lat="45.66003" lon="5.22612">
        <ele>361.6</ele>
        <time>2025-05-18T11:38:53Z</time>
      </trkpt>
      <trkpt lat="45.66006" lon="5.22617">
        <ele>361.6</ele>
        <time>2025-05-18T11:38:54Z</time>
      </trkpt>
      <trkpt lat="45.6601" lon="5.22621">
        <ele>362</ele>
        <time>2025-05-18T11:38:55Z</time>
      </trkpt>
      <trkpt lat="45.66013" lon="5.22627">
        <ele>362</ele>
        <time>2025-05-18T11:38:56Z</time>
      </trkpt>
      <trkpt lat="45.66016" lon="5.22631">
        <ele>362</ele>
        <time>2025-05-18T11:38:57Z</time>
      </trkpt>
      <trkpt lat="45.6602" lon="5.22636">
        <ele>362</ele>
        <time>2025-05-18T11:38:58Z</time>
      </trkpt>
      <trkpt lat="45.66023" lon="5.2264">
        <ele>362</ele>
        <time>2025-05-18T11:38:59Z</time>
      </trkpt>
      <trkpt lat="45.66027" lon="5.22645">
        <ele>362.2</ele>
        <time>2025-05-18T11:39:00Z</time>
      </trkpt>
      <trkpt lat="45.6603" lon="5.22648">
        <ele>362.2</ele>
        <time>2025-05-18T11:39:01Z</time>
      </trkpt>
      <trkpt lat="45.66031" lon="5.22652">
        <ele>362.2</ele>
        <time>2025-05-18T11:39:02Z</time>
      </trkpt>
      <trkpt lat="45.66032" lon="5.22653">
        <ele>362.2</ele>
        <time>2025-05-18T11:39:03Z</time>
      </trkpt>
      <trkpt lat="45.66033" lon="5.22653">
        <ele>362.6</ele>
        <time>2025-05-18T11:39:04Z</time>
      </trkpt>
      <trkpt lat="45.66033" lon="5.22653">
        <ele>362.6</ele>
        <time>2025-05-18T11:39:05Z</time>
      </trkpt>
      <trkpt lat="45.66038" lon="5.22656">
        <ele>362.6</ele>
        <time>2025-05-18T11:39:22Z</time>
      </trkpt>
      <trkpt lat="45.66039" lon="5.22658">
        <ele>362.6</ele>
        <time>2025-05-18T11:39:23Z</time>
      </trkpt>
      <trkpt lat="45.66041" lon="5.22662">
        <ele>362.6</ele>
        <time>2025-05-18T11:39:24Z</time>
      </trkpt>
      <trkpt lat="45.66044" lon="5.22666">
        <ele>362.2</ele>
        <time>2025-05-18T11:39:25Z</time>
      </trkpt>
      <trkpt lat="45.66046" lon="5.2267">
        <ele>362.2</ele>
        <time>2025-05-18T11:39:26Z</time>
      </trkpt>
      <trkpt lat="45.66049" lon="5.22675">
        <ele>362.2</ele>
        <time>2025-05-18T11:39:27Z</time>
      </trkpt>
      <trkpt lat="45.66053" lon="5.2268">
        <ele>362.2</ele>
        <time>2025-05-18T11:39:28Z</time>
      </trkpt>
      <trkpt lat="45.66057" lon="5.22686">
        <ele>361.8</ele>
        <time>2025-05-18T11:39:29Z</time>
      </trkpt>
      <trkpt lat="45.6606" lon="5.22691">
        <ele>361.6</ele>
        <time>2025-05-18T11:39:30Z</time>
      </trkpt>
      <trkpt lat="45.66063" lon="5.22697">
        <ele>361.2</ele>
        <time>2025-05-18T11:39:31Z</time>
      </trkpt>
      <trkpt lat="45.66067" lon="5.22702">
        <ele>361</ele>
        <time>2025-05-18T11:39:32Z</time>
      </trkpt>
      <trkpt lat="45.6607" lon="5.22707">
        <ele>361</ele>
        <time>2025-05-18T11:39:33Z</time>
      </trkpt>
      <trkpt lat="45.66075" lon="5.22712">
        <ele>361</ele>
        <time>2025-05-18T11:39:34Z</time>
      </trkpt>
      <trkpt lat="45.66079" lon="5.22718">
        <ele>361</ele>
        <time>2025-05-18T11:39:35Z</time>
      </trkpt>
      <trkpt lat="45.66083" lon="5.22724">
        <ele>361</ele>
        <time>2025-05-18T11:39:36Z</time>
      </trkpt>
      <trkpt lat="45.66087" lon="5.22729">
        <ele>362</ele>
        <time>2025-05-18T11:39:37Z</time>
      </trkpt>
      <trkpt lat="45.66091" lon="5.22735">
        <ele>361.8</ele>
        <time>2025-05-18T11:39:38Z</time>
      </trkpt>
      <trkpt lat="45.66095" lon="5.2274">
        <ele>361.8</ele>
        <time>2025-05-18T11:39:39Z</time>
      </trkpt>
      <trkpt lat="45.66099" lon="5.22746">
        <ele>361.8</ele>
        <time>2025-05-18T11:39:40Z</time>
      </trkpt>
      <trkpt lat="45.66104" lon="5.22752">
        <ele>361</ele>
        <time>2025-05-18T11:39:41Z</time>
      </trkpt>
      <trkpt lat="45.66108" lon="5.22758">
        <ele>361</ele>
        <time>2025-05-18T11:39:42Z</time>
      </trkpt>
      <trkpt lat="45.66108" lon="5.22758">
        <ele>360.2</ele>
        <time>2025-05-18T11:39:43Z</time>
      </trkpt>
      <trkpt lat="45.66112" lon="5.22763">
        <ele>360.2</ele>
        <time>2025-05-18T11:39:44Z</time>
      </trkpt>
      <trkpt lat="45.66117" lon="5.22769">
        <ele>360.4</ele>
        <time>2025-05-18T11:39:45Z</time>
      </trkpt>
      <trkpt lat="45.66122" lon="5.22775">
        <ele>360.2</ele>
        <time>2025-05-18T11:39:46Z</time>
      </trkpt>
      <trkpt lat="45.66127" lon="5.2278">
        <ele>360.2</ele>
        <time>2025-05-18T11:39:47Z</time>
      </trkpt>
      <trkpt lat="45.66131" lon="5.22786">
        <ele>360.4</ele>
        <time>2025-05-18T11:39:48Z</time>
      </trkpt>
      <trkpt lat="45.66135" lon="5.22791">
        <ele>361</ele>
        <time>2025-05-18T11:39:49Z</time>
      </trkpt>
      <trkpt lat="45.6614" lon="5.22796">
        <ele>360.4</ele>
        <time>2025-05-18T11:39:50Z</time>
      </trkpt>
      <trkpt lat="45.66143" lon="5.22801">
        <ele>359.4</ele>
        <time>2025-05-18T11:39:51Z</time>
      </trkpt>
      <trkpt lat="45.66144" lon="5.22808">
        <ele>360</ele>
        <time>2025-05-18T11:39:52Z</time>
      </trkpt>
      <trkpt lat="45.66142" lon="5.22812">
        <ele>360.6</ele>
        <time>2025-05-18T11:39:53Z</time>
      </trkpt>
      <trkpt lat="45.66139" lon="5.22817">
        <ele>361</ele>
        <time>2025-05-18T11:39:54Z</time>
      </trkpt>
      <trkpt lat="45.66135" lon="5.22819">
        <ele>361.4</ele>
        <time>2025-05-18T11:39:55Z</time>
      </trkpt>
      <trkpt lat="45.6613" lon="5.22821">
        <ele>362</ele>
        <time>2025-05-18T11:39:56Z</time>
      </trkpt>
      <trkpt lat="45.66126" lon="5.22824">
        <ele>362</ele>
        <time>2025-05-18T11:39:57Z</time>
      </trkpt>
      <trkpt lat="45.66121" lon="5.22828">
        <ele>362</ele>
        <time>2025-05-18T11:39:58Z</time>
      </trkpt>
      <trkpt lat="45.66116" lon="5.22832">
        <ele>362</ele>
        <time>2025-05-18T11:39:59Z</time>
      </trkpt>
      <trkpt lat="45.6611" lon="5.22837">
        <ele>361.4</ele>
        <time>2025-05-18T11:40:00Z</time>
      </trkpt>
      <trkpt lat="45.66105" lon="5.22841">
        <ele>361</ele>
        <time>2025-05-18T11:40:01Z</time>
      </trkpt>
      <trkpt lat="45.661" lon="5.22845">
        <ele>359.6</ele>
        <time>2025-05-18T11:40:02Z</time>
      </trkpt>
      <trkpt lat="45.66094" lon="5.2285">
        <ele>360.4</ele>
        <time>2025-05-18T11:40:03Z</time>
      </trkpt>
      <trkpt lat="45.66089" lon="5.22855">
        <ele>360.4</ele>
        <time>2025-05-18T11:40:04Z</time>
      </trkpt>
      <trkpt lat="45.66082" lon="5.22862">
        <ele>360.2</ele>
        <time>2025-05-18T11:40:05Z</time>
      </trkpt>
      <trkpt lat="45.66075" lon="5.22868">
        <ele>359.4</ele>
        <time>2025-05-18T11:40:06Z</time>
      </trkpt>
      <trkpt lat="45.66068" lon="5.22874">
        <ele>358.4</ele>
        <time>2025-05-18T11:40:07Z</time>
      </trkpt>
      <trkpt lat="45.66062" lon="5.2288">
        <ele>355.8</ele>
        <time>2025-05-18T11:40:08Z</time>
      </trkpt>
      <trkpt lat="45.66055" lon="5.22887">
        <ele>355.8</ele>
        <time>2025-05-18T11:40:09Z</time>
      </trkpt>
      <trkpt lat="45.66048" lon="5.22893">
        <ele>356.2</ele>
        <time>2025-05-18T11:40:10Z</time>
      </trkpt>
      <trkpt lat="45.66042" lon="5.22899">
        <ele>356.2</ele>
        <time>2025-05-18T11:40:11Z</time>
      </trkpt>
      <trkpt lat="45.66036" lon="5.22903">
        <ele>356.2</ele>
        <time>2025-05-18T11:40:12Z</time>
      </trkpt>
      <trkpt lat="45.6603" lon="5.22908">
        <ele>355.8</ele>
        <time>2025-05-18T11:40:13Z</time>
      </trkpt>
      <trkpt lat="45.66026" lon="5.22913">
        <ele>357</ele>
        <time>2025-05-18T11:40:14Z</time>
      </trkpt>
      <trkpt lat="45.6602" lon="5.22918">
        <ele>356.2</ele>
        <time>2025-05-18T11:40:15Z</time>
      </trkpt>
      <trkpt lat="45.66014" lon="5.22922">
        <ele>356.4</ele>
        <time>2025-05-18T11:40:16Z</time>
      </trkpt>
      <trkpt lat="45.66009" lon="5.22925">
        <ele>356.8</ele>
        <time>2025-05-18T11:40:17Z</time>
      </trkpt>
      <trkpt lat="45.66005" lon="5.22928">
        <ele>357.4</ele>
        <time>2025-05-18T11:40:18Z</time>
      </trkpt>
      <trkpt lat="45.66001" lon="5.22932">
        <ele>358.8</ele>
        <time>2025-05-18T11:40:19Z</time>
      </trkpt>
      <trkpt lat="45.65997" lon="5.22935">
        <ele>359.4</ele>
        <time>2025-05-18T11:40:20Z</time>
      </trkpt>
      <trkpt lat="45.65993" lon="5.22938">
        <ele>359.8</ele>
        <time>2025-05-18T11:40:21Z</time>
      </trkpt>
      <trkpt lat="45.6599" lon="5.22939">
        <ele>359.8</ele>
        <time>2025-05-18T11:40:22Z</time>
      </trkpt>
      <trkpt lat="45.65987" lon="5.22943">
        <ele>360.2</ele>
        <time>2025-05-18T11:40:23Z</time>
      </trkpt>
      <trkpt lat="45.65985" lon="5.22945">
        <ele>359.8</ele>
        <time>2025-05-18T11:40:24Z</time>
      </trkpt>
      <trkpt lat="45.65982" lon="5.22949">
        <ele>359.4</ele>
        <time>2025-05-18T11:40:25Z</time>
      </trkpt>
      <trkpt lat="45.65979" lon="5.22952">
        <ele>359.4</ele>
        <time>2025-05-18T11:40:26Z</time>
      </trkpt>
      <trkpt lat="45.65975" lon="5.22955">
        <ele>359.8</ele>
        <time>2025-05-18T11:40:27Z</time>
      </trkpt>
      <trkpt lat="45.65972" lon="5.22959">
        <ele>359.8</ele>
        <time>2025-05-18T11:40:28Z</time>
      </trkpt>
      <trkpt lat="45.65968" lon="5.22962">
        <ele>359.4</ele>
        <time>2025-05-18T11:40:29Z</time>
      </trkpt>
      <trkpt lat="45.65964" lon="5.22964">
        <ele>359.2</ele>
        <time>2025-05-18T11:40:30Z</time>
      </trkpt>
      <trkpt lat="45.6596" lon="5.22967">
        <ele>359.6</ele>
        <time>2025-05-18T11:40:31Z</time>
      </trkpt>
      <trkpt lat="45.65956" lon="5.22969">
        <ele>359.8</ele>
        <time>2025-05-18T11:40:32Z</time>
      </trkpt>
      <trkpt lat="45.65953" lon="5.22972">
        <ele>359.8</ele>
        <time>2025-05-18T11:40:33Z</time>
      </trkpt>
      <trkpt lat="45.65949" lon="5.22976">
        <ele>359.8</ele>
        <time>2025-05-18T11:40:34Z</time>
      </trkpt>
      <trkpt lat="45.65945" lon="5.22979">
        <ele>360.6</ele>
        <time>2025-05-18T11:40:35Z</time>
      </trkpt>
      <trkpt lat="45.65942" lon="5.22982">
        <ele>360.6</ele>
        <time>2025-05-18T11:40:36Z</time>
      </trkpt>
      <trkpt lat="45.65939" lon="5.22985">
        <ele>361.2</ele>
        <time>2025-05-18T11:40:37Z</time>
      </trkpt>
      <trkpt lat="45.65936" lon="5.22988">
        <ele>361.8</ele>
        <time>2025-05-18T11:40:38Z</time>
      </trkpt>
      <trkpt lat="45.65933" lon="5.2299">
        <ele>362</ele>
        <time>2025-05-18T11:40:39Z</time>
      </trkpt>
      <trkpt lat="45.65931" lon="5.22991">
        <ele>361.8</ele>
        <time>2025-05-18T11:40:40Z</time>
      </trkpt>
      <trkpt lat="45.65929" lon="5.22993">
        <ele>361.8</ele>
        <time>2025-05-18T11:40:41Z</time>
      </trkpt>
      <trkpt lat="45.65928" lon="5.22994">
        <ele>362.2</ele>
        <time>2025-05-18T11:40:42Z</time>
      </trkpt>
      <trkpt lat="45.65926" lon="5.22995">
        <ele>362.6</ele>
        <time>2025-05-18T11:40:43Z</time>
      </trkpt>
      <trkpt lat="45.65924" lon="5.22996">
        <ele>362.8</ele>
        <time>2025-05-18T11:40:44Z</time>
      </trkpt>
      <trkpt lat="45.65923" lon="5.22998">
        <ele>363.2</ele>
        <time>2025-05-18T11:40:45Z</time>
      </trkpt>
      <trkpt lat="45.65921" lon="5.22999">
        <ele>363.6</ele>
        <time>2025-05-18T11:40:46Z</time>
      </trkpt>
      <trkpt lat="45.6592" lon="5.23">
        <ele>363.6</ele>
        <time>2025-05-18T11:40:47Z</time>
      </trkpt>
      <trkpt lat="45.65918" lon="5.23002">
        <ele>363.8</ele>
        <time>2025-05-18T11:40:48Z</time>
      </trkpt>
      <trkpt lat="45.65916" lon="5.23004">
        <ele>364</ele>
        <time>2025-05-18T11:40:49Z</time>
      </trkpt>
      <trkpt lat="45.65914" lon="5.23005">
        <ele>364</ele>
        <time>2025-05-18T11:40:50Z</time>
      </trkpt>
      <trkpt lat="45.65912" lon="5.23006">
        <ele>364.4</ele>
        <time>2025-05-18T11:40:51Z</time>
      </trkpt>
      <trkpt lat="45.65911" lon="5.23007">
        <ele>364.4</ele>
        <time>2025-05-18T11:40:52Z</time>
      </trkpt>
      <trkpt lat="45.65909" lon="5.23008">
        <ele>365</ele>
        <time>2025-05-18T11:40:53Z</time>
      </trkpt>
      <trkpt lat="45.65907" lon="5.2301">
        <ele>365</ele>
        <time>2025-05-18T11:40:54Z</time>
      </trkpt>
      <trkpt lat="45.65906" lon="5.2301">
        <ele>365.4</ele>
        <time>2025-05-18T11:40:55Z</time>
      </trkpt>
      <trkpt lat="45.65904" lon="5.23011">
        <ele>365</ele>
        <time>2025-05-18T11:40:56Z</time>
      </trkpt>
      <trkpt lat="45.65902" lon="5.2301">
        <ele>365.2</ele>
        <time>2025-05-18T11:40:57Z</time>
      </trkpt>
      <trkpt lat="45.65901" lon="5.23009">
        <ele>365.2</ele>
        <time>2025-05-18T11:40:58Z</time>
      </trkpt>
      <trkpt lat="45.659" lon="5.23008">
        <ele>365.6</ele>
        <time>2025-05-18T11:40:59Z</time>
      </trkpt>
      <trkpt lat="45.65898" lon="5.23006">
        <ele>366</ele>
        <time>2025-05-18T11:41:00Z</time>
      </trkpt>
      <trkpt lat="45.65896" lon="5.23004">
        <ele>366.2</ele>
        <time>2025-05-18T11:41:01Z</time>
      </trkpt>
      <trkpt lat="45.65895" lon="5.23002">
        <ele>366.2</ele>
        <time>2025-05-18T11:41:02Z</time>
      </trkpt>
      <trkpt lat="45.65893" lon="5.23">
        <ele>366.2</ele>
        <time>2025-05-18T11:41:03Z</time>
      </trkpt>
      <trkpt lat="45.65891" lon="5.22997">
        <ele>366.4</ele>
        <time>2025-05-18T11:41:04Z</time>
      </trkpt>
      <trkpt lat="45.65889" lon="5.22995">
        <ele>366.4</ele>
        <time>2025-05-18T11:41:05Z</time>
      </trkpt>
      <trkpt lat="45.65887" lon="5.22994">
        <ele>366.4</ele>
        <time>2025-05-18T11:41:06Z</time>
      </trkpt>
      <trkpt lat="45.65886" lon="5.22992">
        <ele>366.4</ele>
        <time>2025-05-18T11:41:07Z</time>
      </trkpt>
      <trkpt lat="45.65884" lon="5.22989">
        <ele>366.4</ele>
        <time>2025-05-18T11:41:08Z</time>
      </trkpt>
      <trkpt lat="45.65882" lon="5.22987">
        <ele>366.8</ele>
        <time>2025-05-18T11:41:09Z</time>
      </trkpt>
      <trkpt lat="45.6588" lon="5.22985">
        <ele>366.8</ele>
        <time>2025-05-18T11:41:10Z</time>
      </trkpt>
      <trkpt lat="45.65877" lon="5.22984">
        <ele>366.8</ele>
        <time>2025-05-18T11:41:11Z</time>
      </trkpt>
      <trkpt lat="45.65875" lon="5.22982">
        <ele>367</ele>
        <time>2025-05-18T11:41:12Z</time>
      </trkpt>
      <trkpt lat="45.65874" lon="5.2298">
        <ele>367.4</ele>
        <time>2025-05-18T11:41:13Z</time>
      </trkpt>
      <trkpt lat="45.65872" lon="5.22978">
        <ele>367.4</ele>
        <time>2025-05-18T11:41:14Z</time>
      </trkpt>
      <trkpt lat="45.6587" lon="5.22975">
        <ele>367.4</ele>
        <time>2025-05-18T11:41:15Z</time>
      </trkpt>
      <trkpt lat="45.65869" lon="5.22973">
        <ele>367.4</ele>
        <time>2025-05-18T11:41:16Z</time>
      </trkpt>
      <trkpt lat="45.65867" lon="5.22972">
        <ele>367.4</ele>
        <time>2025-05-18T11:41:17Z</time>
      </trkpt>
      <trkpt lat="45.65866" lon="5.2297">
        <ele>367.8</ele>
        <time>2025-05-18T11:41:18Z</time>
      </trkpt>
      <trkpt lat="45.65865" lon="5.22968">
        <ele>368</ele>
        <time>2025-05-18T11:41:19Z</time>
      </trkpt>
      <trkpt lat="45.65863" lon="5.22966">
        <ele>368</ele>
        <time>2025-05-18T11:41:20Z</time>
      </trkpt>
      <trkpt lat="45.65861" lon="5.22964">
        <ele>368.4</ele>
        <time>2025-05-18T11:41:21Z</time>
      </trkpt>
      <trkpt lat="45.65859" lon="5.22962">
        <ele>368.6</ele>
        <time>2025-05-18T11:41:22Z</time>
      </trkpt>
      <trkpt lat="45.65858" lon="5.2296">
        <ele>368.6</ele>
        <time>2025-05-18T11:41:23Z</time>
      </trkpt>
      <trkpt lat="45.65856" lon="5.22958">
        <ele>369</ele>
        <time>2025-05-18T11:41:24Z</time>
      </trkpt>
      <trkpt lat="45.65855" lon="5.22955">
        <ele>369</ele>
        <time>2025-05-18T11:41:25Z</time>
      </trkpt>
      <trkpt lat="45.65853" lon="5.22953">
        <ele>369</ele>
        <time>2025-05-18T11:41:26Z</time>
      </trkpt>
      <trkpt lat="45.65851" lon="5.22951">
        <ele>369</ele>
        <time>2025-05-18T11:41:27Z</time>
      </trkpt>
      <trkpt lat="45.6585" lon="5.22949">
        <ele>369</ele>
        <time>2025-05-18T11:41:28Z</time>
      </trkpt>
      <trkpt lat="45.65848" lon="5.22947">
        <ele>369</ele>
        <time>2025-05-18T11:41:29Z</time>
      </trkpt>
      <trkpt lat="45.65847" lon="5.22945">
        <ele>369.4</ele>
        <time>2025-05-18T11:41:30Z</time>
      </trkpt>
      <trkpt lat="45.65845" lon="5.22943">
        <ele>369.4</ele>
        <time>2025-05-18T11:41:31Z</time>
      </trkpt>
      <trkpt lat="45.65843" lon="5.22941">
        <ele>369.4</ele>
        <time>2025-05-18T11:41:32Z</time>
      </trkpt>
      <trkpt lat="45.65842" lon="5.22939">
        <ele>370</ele>
        <time>2025-05-18T11:41:33Z</time>
      </trkpt>
      <trkpt lat="45.65841" lon="5.22937">
        <ele>370</ele>
        <time>2025-05-18T11:41:34Z</time>
      </trkpt>
      <trkpt lat="45.6584" lon="5.22935">
        <ele>370</ele>
        <time>2025-05-18T11:41:35Z</time>
      </trkpt>
      <trkpt lat="45.65838" lon="5.22934">
        <ele>370</ele>
        <time>2025-05-18T11:41:36Z</time>
      </trkpt>
      <trkpt lat="45.65837" lon="5.22932">
        <ele>370.2</ele>
        <time>2025-05-18T11:41:37Z</time>
      </trkpt>
      <trkpt lat="45.65835" lon="5.22929">
        <ele>370.4</ele>
        <time>2025-05-18T11:41:38Z</time>
      </trkpt>
      <trkpt lat="45.65833" lon="5.22927">
        <ele>370.4</ele>
        <time>2025-05-18T11:41:39Z</time>
      </trkpt>
      <trkpt lat="45.65831" lon="5.22925">
        <ele>370.4</ele>
        <time>2025-05-18T11:41:40Z</time>
      </trkpt>
      <trkpt lat="45.65829" lon="5.22924">
        <ele>370.4</ele>
        <time>2025-05-18T11:41:41Z</time>
      </trkpt>
      <trkpt lat="45.65828" lon="5.22922">
        <ele>370.4</ele>
        <time>2025-05-18T11:41:42Z</time>
      </trkpt>
      <trkpt lat="45.65827" lon="5.2292">
        <ele>370.8</ele>
        <time>2025-05-18T11:41:43Z</time>
      </trkpt>
      <trkpt lat="45.65826" lon="5.22918">
        <ele>370.8</ele>
        <time>2025-05-18T11:41:44Z</time>
      </trkpt>
      <trkpt lat="45.65825" lon="5.22916">
        <ele>371</ele>
        <time>2025-05-18T11:41:45Z</time>
      </trkpt>
      <trkpt lat="45.65824" lon="5.22914">
        <ele>371.2</ele>
        <time>2025-05-18T11:41:46Z</time>
      </trkpt>
      <trkpt lat="45.65823" lon="5.22912">
        <ele>371.4</ele>
        <time>2025-05-18T11:41:47Z</time>
      </trkpt>
      <trkpt lat="45.65821" lon="5.22911">
        <ele>371.8</ele>
        <time>2025-05-18T11:41:48Z</time>
      </trkpt>
      <trkpt lat="45.6582" lon="5.22909">
        <ele>371.8</ele>
        <time>2025-05-18T11:41:49Z</time>
      </trkpt>
      <trkpt lat="45.65819" lon="5.22908">
        <ele>372</ele>
        <time>2025-05-18T11:41:50Z</time>
      </trkpt>
      <trkpt lat="45.65818" lon="5.22906">
        <ele>372.2</ele>
        <time>2025-05-18T11:41:51Z</time>
      </trkpt>
      <trkpt lat="45.65817" lon="5.22905">
        <ele>372.2</ele>
        <time>2025-05-18T11:41:52Z</time>
      </trkpt>
      <trkpt lat="45.65815" lon="5.22904">
        <ele>372.6</ele>
        <time>2025-05-18T11:41:53Z</time>
      </trkpt>
      <trkpt lat="45.65814" lon="5.22903">
        <ele>373</ele>
        <time>2025-05-18T11:41:54Z</time>
      </trkpt>
      <trkpt lat="45.65812" lon="5.22902">
        <ele>373</ele>
        <time>2025-05-18T11:41:55Z</time>
      </trkpt>
      <trkpt lat="45.65811" lon="5.22901">
        <ele>373.2</ele>
        <time>2025-05-18T11:41:56Z</time>
      </trkpt>
      <trkpt lat="45.6581" lon="5.229">
        <ele>373.6</ele>
        <time>2025-05-18T11:41:57Z</time>
      </trkpt>
      <trkpt lat="45.65809" lon="5.22899">
        <ele>373.6</ele>
        <time>2025-05-18T11:41:58Z</time>
      </trkpt>
      <trkpt lat="45.65808" lon="5.22897">
        <ele>373.8</ele>
        <time>2025-05-18T11:41:59Z</time>
      </trkpt>
      <trkpt lat="45.65807" lon="5.22896">
        <ele>374</ele>
        <time>2025-05-18T11:42:00Z</time>
      </trkpt>
      <trkpt lat="45.65806" lon="5.22895">
        <ele>374</ele>
        <time>2025-05-18T11:42:01Z</time>
      </trkpt>
      <trkpt lat="45.65805" lon="5.22893">
        <ele>374</ele>
        <time>2025-05-18T11:42:02Z</time>
      </trkpt>
      <trkpt lat="45.65804" lon="5.22892">
        <ele>374</ele>
        <time>2025-05-18T11:42:03Z</time>
      </trkpt>
      <trkpt lat="45.65803" lon="5.22891">
        <ele>374.4</ele>
        <time>2025-05-18T11:42:04Z</time>
      </trkpt>
      <trkpt lat="45.65802" lon="5.22889">
        <ele>374.4</ele>
        <time>2025-05-18T11:42:05Z</time>
      </trkpt>
      <trkpt lat="45.658" lon="5.22887">
        <ele>374.6</ele>
        <time>2025-05-18T11:42:06Z</time>
      </trkpt>
      <trkpt lat="45.65799" lon="5.22886">
        <ele>374.6</ele>
        <time>2025-05-18T11:42:07Z</time>
      </trkpt>
      <trkpt lat="45.65798" lon="5.22884">
        <ele>374.8</ele>
        <time>2025-05-18T11:42:08Z</time>
      </trkpt>
      <trkpt lat="45.65796" lon="5.22883">
        <ele>374.8</ele>
        <time>2025-05-18T11:42:09Z</time>
      </trkpt>
      <trkpt lat="45.65795" lon="5.22881">
        <ele>374.8</ele>
        <time>2025-05-18T11:42:10Z</time>
      </trkpt>
      <trkpt lat="45.65793" lon="5.22879">
        <ele>375.2</ele>
        <time>2025-05-18T11:42:11Z</time>
      </trkpt>
      <trkpt lat="45.65792" lon="5.22878">
        <ele>375.2</ele>
        <time>2025-05-18T11:42:12Z</time>
      </trkpt>
      <trkpt lat="45.65791" lon="5.22876">
        <ele>375.2</ele>
        <time>2025-05-18T11:42:13Z</time>
      </trkpt>
      <trkpt lat="45.65789" lon="5.22874">
        <ele>375.2</ele>
        <time>2025-05-18T11:42:14Z</time>
      </trkpt>
      <trkpt lat="45.65787" lon="5.22872">
        <ele>375.2</ele>
        <time>2025-05-18T11:42:15Z</time>
      </trkpt>
      <trkpt lat="45.65786" lon="5.2287">
        <ele>375.4</ele>
        <time>2025-05-18T11:42:16Z</time>
      </trkpt>
      <trkpt lat="45.65784" lon="5.22869">
        <ele>375.6</ele>
        <time>2025-05-18T11:42:17Z</time>
      </trkpt>
      <trkpt lat="45.65782" lon="5.22867">
        <ele>375.6</ele>
        <time>2025-05-18T11:42:18Z</time>
      </trkpt>
      <trkpt lat="45.65781" lon="5.22865">
        <ele>375.8</ele>
        <time>2025-05-18T11:42:19Z</time>
      </trkpt>
      <trkpt lat="45.65779" lon="5.22863">
        <ele>375.8</ele>
        <time>2025-05-18T11:42:20Z</time>
      </trkpt>
      <trkpt lat="45.65778" lon="5.22861">
        <ele>376.2</ele>
        <time>2025-05-18T11:42:21Z</time>
      </trkpt>
      <trkpt lat="45.65777" lon="5.22859">
        <ele>376.2</ele>
        <time>2025-05-18T11:42:22Z</time>
      </trkpt>
      <trkpt lat="45.65776" lon="5.22859">
        <ele>376.4</ele>
        <time>2025-05-18T11:42:23Z</time>
      </trkpt>
      <trkpt lat="45.65775" lon="5.22858">
        <ele>376.4</ele>
        <time>2025-05-18T11:42:24Z</time>
      </trkpt>
      <trkpt lat="45.65775" lon="5.22858">
        <ele>376.4</ele>
        <time>2025-05-18T11:42:25Z</time>
      </trkpt>
      <trkpt lat="45.65775" lon="5.22858">
        <ele>376.6</ele>
        <time>2025-05-18T11:42:26Z</time>
      </trkpt>
      <trkpt lat="45.65773" lon="5.22858">
        <ele>376.4</ele>
        <time>2025-05-18T11:42:38Z</time>
      </trkpt>
      <trkpt lat="45.65772" lon="5.22856">
        <ele>376.4</ele>
        <time>2025-05-18T11:42:39Z</time>
      </trkpt>
      <trkpt lat="45.6577" lon="5.22854">
        <ele>376.4</ele>
        <time>2025-05-18T11:42:40Z</time>
      </trkpt>
      <trkpt lat="45.65768" lon="5.22851">
        <ele>376.4</ele>
        <time>2025-05-18T11:42:41Z</time>
      </trkpt>
      <trkpt lat="45.65766" lon="5.22848">
        <ele>376.4</ele>
        <time>2025-05-18T11:42:42Z</time>
      </trkpt>
      <trkpt lat="45.65763" lon="5.22845">
        <ele>376</ele>
        <time>2025-05-18T11:42:43Z</time>
      </trkpt>
      <trkpt lat="45.6576" lon="5.22842">
        <ele>376</ele>
        <time>2025-05-18T11:42:44Z</time>
      </trkpt>
      <trkpt lat="45.65757" lon="5.22839">
        <ele>375.6</ele>
        <time>2025-05-18T11:42:45Z</time>
      </trkpt>
      <trkpt lat="45.65754" lon="5.22836">
        <ele>375.6</ele>
        <time>2025-05-18T11:42:46Z</time>
      </trkpt>
      <trkpt lat="45.65751" lon="5.22832">
        <ele>375</ele>
        <time>2025-05-18T11:42:47Z</time>
      </trkpt>
      <trkpt lat="45.65747" lon="5.22829">
        <ele>375</ele>
        <time>2025-05-18T11:42:48Z</time>
      </trkpt>
      <trkpt lat="45.65744" lon="5.22825">
        <ele>374.4</ele>
        <time>2025-05-18T11:42:49Z</time>
      </trkpt>
      <trkpt lat="45.65741" lon="5.2282">
        <ele>374.2</ele>
        <time>2025-05-18T11:42:50Z</time>
      </trkpt>
      <trkpt lat="45.65737" lon="5.22815">
        <ele>374.2</ele>
        <time>2025-05-18T11:42:51Z</time>
      </trkpt>
      <trkpt lat="45.65732" lon="5.22809">
        <ele>373.2</ele>
        <time>2025-05-18T11:42:52Z</time>
      </trkpt>
      <trkpt lat="45.65727" lon="5.22804">
        <ele>372.4</ele>
        <time>2025-05-18T11:42:53Z</time>
      </trkpt>
      <trkpt lat="45.65722" lon="5.22799">
        <ele>372.2</ele>
        <time>2025-05-18T11:42:54Z</time>
      </trkpt>
      <trkpt lat="45.65716" lon="5.22793">
        <ele>371.6</ele>
        <time>2025-05-18T11:42:55Z</time>
      </trkpt>
      <trkpt lat="45.6571" lon="5.22788">
        <ele>371.2</ele>
        <time>2025-05-18T11:42:56Z</time>
      </trkpt>
      <trkpt lat="45.65704" lon="5.22782">
        <ele>370.6</ele>
        <time>2025-05-18T11:42:57Z</time>
      </trkpt>
      <trkpt lat="45.65699" lon="5.22776">
        <ele>370</ele>
        <time>2025-05-18T11:42:58Z</time>
      </trkpt>
      <trkpt lat="45.65693" lon="5.2277">
        <ele>370</ele>
        <time>2025-05-18T11:42:59Z</time>
      </trkpt>
      <trkpt lat="45.65688" lon="5.22765">
        <ele>369.2</ele>
        <time>2025-05-18T11:43:00Z</time>
      </trkpt>
      <trkpt lat="45.65684" lon="5.2276">
        <ele>370.4</ele>
        <time>2025-05-18T11:43:01Z</time>
      </trkpt>
      <trkpt lat="45.65678" lon="5.22755">
        <ele>370.4</ele>
        <time>2025-05-18T11:43:02Z</time>
      </trkpt>
      <trkpt lat="45.65674" lon="5.2275">
        <ele>368.4</ele>
        <time>2025-05-18T11:43:03Z</time>
      </trkpt>
      <trkpt lat="45.65669" lon="5.22744">
        <ele>368.8</ele>
        <time>2025-05-18T11:43:04Z</time>
      </trkpt>
      <trkpt lat="45.65664" lon="5.22739">
        <ele>370.4</ele>
        <time>2025-05-18T11:43:05Z</time>
      </trkpt>
      <trkpt lat="45.65661" lon="5.22735">
        <ele>370.4</ele>
        <time>2025-05-18T11:43:06Z</time>
      </trkpt>
      <trkpt lat="45.65656" lon="5.2273">
        <ele>370.2</ele>
        <time>2025-05-18T11:43:07Z</time>
      </trkpt>
      <trkpt lat="45.65652" lon="5.22726">
        <ele>369.8</ele>
        <time>2025-05-18T11:43:08Z</time>
      </trkpt>
      <trkpt lat="45.65649" lon="5.22721">
        <ele>369.8</ele>
        <time>2025-05-18T11:43:09Z</time>
      </trkpt>
      <trkpt lat="45.65645" lon="5.22717">
        <ele>370.2</ele>
        <time>2025-05-18T11:43:10Z</time>
      </trkpt>
      <trkpt lat="45.65642" lon="5.22714">
        <ele>370.2</ele>
        <time>2025-05-18T11:43:11Z</time>
      </trkpt>
      <trkpt lat="45.65639" lon="5.2271">
        <ele>368.6</ele>
        <time>2025-05-18T11:43:12Z</time>
      </trkpt>
      <trkpt lat="45.65636" lon="5.22705">
        <ele>367.4</ele>
        <time>2025-05-18T11:43:13Z</time>
      </trkpt>
      <trkpt lat="45.65631" lon="5.22701">
        <ele>367.8</ele>
        <time>2025-05-18T11:43:14Z</time>
      </trkpt>
      <trkpt lat="45.65628" lon="5.22697">
        <ele>368</ele>
        <time>2025-05-18T11:43:15Z</time>
      </trkpt>
      <trkpt lat="45.65625" lon="5.22693">
        <ele>367.8</ele>
        <time>2025-05-18T11:43:16Z</time>
      </trkpt>
      <trkpt lat="45.65622" lon="5.22688">
        <ele>368.6</ele>
        <time>2025-05-18T11:43:17Z</time>
      </trkpt>
      <trkpt lat="45.65617" lon="5.22685">
        <ele>369</ele>
        <time>2025-05-18T11:43:18Z</time>
      </trkpt>
      <trkpt lat="45.65614" lon="5.22681">
        <ele>369.6</ele>
        <time>2025-05-18T11:43:19Z</time>
      </trkpt>
      <trkpt lat="45.65611" lon="5.22677">
        <ele>369.8</ele>
        <time>2025-05-18T11:43:20Z</time>
      </trkpt>
      <trkpt lat="45.65607" lon="5.22674">
        <ele>369.8</ele>
        <time>2025-05-18T11:43:21Z</time>
      </trkpt>
      <trkpt lat="45.65603" lon="5.22669">
        <ele>368.8</ele>
        <time>2025-05-18T11:43:22Z</time>
      </trkpt>
      <trkpt lat="45.65601" lon="5.22665">
        <ele>369.2</ele>
        <time>2025-05-18T11:43:23Z</time>
      </trkpt>
      <trkpt lat="45.65598" lon="5.22661">
        <ele>369.8</ele>
        <time>2025-05-18T11:43:24Z</time>
      </trkpt>
      <trkpt lat="45.65595" lon="5.22657">
        <ele>371.2</ele>
        <time>2025-05-18T11:43:25Z</time>
      </trkpt>
      <trkpt lat="45.65591" lon="5.22653">
        <ele>371.2</ele>
        <time>2025-05-18T11:43:26Z</time>
      </trkpt>
      <trkpt lat="45.65586" lon="5.22649">
        <ele>370.8</ele>
        <time>2025-05-18T11:43:27Z</time>
      </trkpt>
      <trkpt lat="45.65582" lon="5.22645">
        <ele>370.8</ele>
        <time>2025-05-18T11:43:28Z</time>
      </trkpt>
      <trkpt lat="45.65578" lon="5.22641">
        <ele>370.8</ele>
        <time>2025-05-18T11:43:29Z</time>
      </trkpt>
      <trkpt lat="45.65574" lon="5.22637">
        <ele>370.6</ele>
        <time>2025-05-18T11:43:30Z</time>
      </trkpt>
      <trkpt lat="45.65569" lon="5.22632">
        <ele>369.8</ele>
        <time>2025-05-18T11:43:31Z</time>
      </trkpt>
      <trkpt lat="45.65566" lon="5.22629">
        <ele>369.8</ele>
        <time>2025-05-18T11:43:32Z</time>
      </trkpt>
      <trkpt lat="45.65563" lon="5.22624">
        <ele>370.2</ele>
        <time>2025-05-18T11:43:33Z</time>
      </trkpt>
      <trkpt lat="45.65559" lon="5.2262">
        <ele>370.6</ele>
        <time>2025-05-18T11:43:34Z</time>
      </trkpt>
      <trkpt lat="45.65556" lon="5.22616">
        <ele>371</ele>
        <time>2025-05-18T11:43:35Z</time>
      </trkpt>
      <trkpt lat="45.65553" lon="5.22613">
        <ele>371</ele>
        <time>2025-05-18T11:43:36Z</time>
      </trkpt>
      <trkpt lat="45.6555" lon="5.2261">
        <ele>371.2</ele>
        <time>2025-05-18T11:43:37Z</time>
      </trkpt>
      <trkpt lat="45.65547" lon="5.22607">
        <ele>371.4</ele>
        <time>2025-05-18T11:43:38Z</time>
      </trkpt>
      <trkpt lat="45.65544" lon="5.22604">
        <ele>371.8</ele>
        <time>2025-05-18T11:43:39Z</time>
      </trkpt>
      <trkpt lat="45.6554" lon="5.226">
        <ele>371</ele>
        <time>2025-05-18T11:43:40Z</time>
      </trkpt>
      <trkpt lat="45.65536" lon="5.22596">
        <ele>371</ele>
        <time>2025-05-18T11:43:41Z</time>
      </trkpt>
      <trkpt lat="45.65534" lon="5.22593">
        <ele>371.4</ele>
        <time>2025-05-18T11:43:42Z</time>
      </trkpt>
      <trkpt lat="45.65531" lon="5.22592">
        <ele>371.4</ele>
        <time>2025-05-18T11:43:43Z</time>
      </trkpt>
      <trkpt lat="45.65527" lon="5.22592">
        <ele>371.4</ele>
        <time>2025-05-18T11:43:44Z</time>
      </trkpt>
      <trkpt lat="45.65524" lon="5.22593">
        <ele>370.6</ele>
        <time>2025-05-18T11:43:45Z</time>
      </trkpt>
      <trkpt lat="45.65523" lon="5.22594">
        <ele>370.6</ele>
        <time>2025-05-18T11:43:46Z</time>
      </trkpt>
      <trkpt lat="45.65521" lon="5.22595">
        <ele>370.8</ele>
        <time>2025-05-18T11:43:47Z</time>
      </trkpt>
      <trkpt lat="45.65521" lon="5.22595">
        <ele>370.8</ele>
        <time>2025-05-18T11:43:48Z</time>
      </trkpt>
      <trkpt lat="45.65521" lon="5.22595">
        <ele>370.8</ele>
        <time>2025-05-18T11:43:49Z</time>
      </trkpt>
      <trkpt lat="45.65521" lon="5.22595">
        <ele>370.8</ele>
        <time>2025-05-18T11:43:50Z</time>
      </trkpt>
      <trkpt lat="45.65518" lon="5.22593">
        <ele>370.6</ele>
        <time>2025-05-18T11:44:36Z</time>
      </trkpt>
      <trkpt lat="45.65518" lon="5.22593">
        <ele>370.6</ele>
        <time>2025-05-18T11:44:37Z</time>
      </trkpt>
      <trkpt lat="45.65518" lon="5.22593">
        <ele>370.6</ele>
        <time>2025-05-18T11:44:38Z</time>
      </trkpt>
      <trkpt lat="45.65518" lon="5.22592">
        <ele>370.6</ele>
        <time>2025-05-18T11:44:39Z</time>
      </trkpt>
      <trkpt lat="45.65518" lon="5.22591">
        <ele>370.4</ele>
        <time>2025-05-18T11:44:40Z</time>
      </trkpt>
      <trkpt lat="45.65519" lon="5.22589">
        <ele>370.4</ele>
        <time>2025-05-18T11:44:41Z</time>
      </trkpt>
      <trkpt lat="45.6552" lon="5.22589">
        <ele>370.4</ele>
        <time>2025-05-18T11:44:42Z</time>
      </trkpt>
      <trkpt lat="45.65522" lon="5.22589">
        <ele>370.4</ele>
        <time>2025-05-18T11:44:43Z</time>
      </trkpt>
      <trkpt lat="45.65524" lon="5.22591">
        <ele>370.2</ele>
        <time>2025-05-18T11:44:44Z</time>
      </trkpt>
      <trkpt lat="45.65525" lon="5.22592">
        <ele>370.2</ele>
        <time>2025-05-18T11:44:45Z</time>
      </trkpt>
      <trkpt lat="45.65527" lon="5.22593">
        <ele>370.2</ele>
        <time>2025-05-18T11:44:46Z</time>
      </trkpt>
      <trkpt lat="45.65528" lon="5.22591">
        <ele>370.2</ele>
        <time>2025-05-18T11:44:47Z</time>
      </trkpt>
      <trkpt lat="45.65529" lon="5.22589">
        <ele>370.2</ele>
        <time>2025-05-18T11:44:48Z</time>
      </trkpt>
      <trkpt lat="45.65528" lon="5.22585">
        <ele>370.2</ele>
        <time>2025-05-18T11:44:49Z</time>
      </trkpt>
      <trkpt lat="45.65525" lon="5.22582">
        <ele>369.8</ele>
        <time>2025-05-18T11:44:50Z</time>
      </trkpt>
      <trkpt lat="45.65522" lon="5.22578">
        <ele>369.4</ele>
        <time>2025-05-18T11:44:51Z</time>
      </trkpt>
      <trkpt lat="45.65519" lon="5.22575">
        <ele>369</ele>
        <time>2025-05-18T11:44:52Z</time>
      </trkpt>
      <trkpt lat="45.65516" lon="5.22572">
        <ele>369.6</ele>
        <time>2025-05-18T11:44:53Z</time>
      </trkpt>
      <trkpt lat="45.65513" lon="5.22569">
        <ele>369</ele>
        <time>2025-05-18T11:44:54Z</time>
      </trkpt>
      <trkpt lat="45.6551" lon="5.22566">
        <ele>368.6</ele>
        <time>2025-05-18T11:44:55Z</time>
      </trkpt>
      <trkpt lat="45.65505" lon="5.22563">
        <ele>368.6</ele>
        <time>2025-05-18T11:44:56Z</time>
      </trkpt>
      <trkpt lat="45.65502" lon="5.2256">
        <ele>367.4</ele>
        <time>2025-05-18T11:44:57Z</time>
      </trkpt>
      <trkpt lat="45.65498" lon="5.22558">
        <ele>366</ele>
        <time>2025-05-18T11:44:58Z</time>
      </trkpt>
      <trkpt lat="45.65496" lon="5.22555">
        <ele>366</ele>
        <time>2025-05-18T11:44:59Z</time>
      </trkpt>
      <trkpt lat="45.65493" lon="5.22552">
        <ele>365.8</ele>
        <time>2025-05-18T11:45:00Z</time>
      </trkpt>
      <trkpt lat="45.65491" lon="5.2255">
        <ele>365.2</ele>
        <time>2025-05-18T11:45:01Z</time>
      </trkpt>
      <trkpt lat="45.6549" lon="5.22548">
        <ele>365.2</ele>
        <time>2025-05-18T11:45:02Z</time>
      </trkpt>
      <trkpt lat="45.65488" lon="5.22545">
        <ele>364.6</ele>
        <time>2025-05-18T11:45:03Z</time>
      </trkpt>
      <trkpt lat="45.65486" lon="5.22544">
        <ele>365</ele>
        <time>2025-05-18T11:45:04Z</time>
      </trkpt>
      <trkpt lat="45.65484" lon="5.22545">
        <ele>365</ele>
        <time>2025-05-18T11:45:05Z</time>
      </trkpt>
      <trkpt lat="45.65481" lon="5.22546">
        <ele>365</ele>
        <time>2025-05-18T11:45:06Z</time>
      </trkpt>
      <trkpt lat="45.65478" lon="5.22549">
        <ele>363.4</ele>
        <time>2025-05-18T11:45:07Z</time>
      </trkpt>
      <trkpt lat="45.65476" lon="5.22553">
        <ele>362.6</ele>
        <time>2025-05-18T11:45:08Z</time>
      </trkpt>
      <trkpt lat="45.65473" lon="5.22557">
        <ele>363</ele>
        <time>2025-05-18T11:45:09Z</time>
      </trkpt>
      <trkpt lat="45.65471" lon="5.2256">
        <ele>364.2</ele>
        <time>2025-05-18T11:45:10Z</time>
      </trkpt>
      <trkpt lat="45.65468" lon="5.22564">
        <ele>363.4</ele>
        <time>2025-05-18T11:45:11Z</time>
      </trkpt>
      <trkpt lat="45.65465" lon="5.22569">
        <ele>363.4</ele>
        <time>2025-05-18T11:45:12Z</time>
      </trkpt>
      <trkpt lat="45.65462" lon="5.22572">
        <ele>362.2</ele>
        <time>2025-05-18T11:45:13Z</time>
      </trkpt>
      <trkpt lat="45.65458" lon="5.22577">
        <ele>361.2</ele>
        <time>2025-05-18T11:45:14Z</time>
      </trkpt>
      <trkpt lat="45.65455" lon="5.22581">
        <ele>361.6</ele>
        <time>2025-05-18T11:45:15Z</time>
      </trkpt>
      <trkpt lat="45.65452" lon="5.22586">
        <ele>362</ele>
        <time>2025-05-18T11:45:16Z</time>
      </trkpt>
      <trkpt lat="45.6545" lon="5.22592">
        <ele>361.6</ele>
        <time>2025-05-18T11:45:17Z</time>
      </trkpt>
      <trkpt lat="45.65448" lon="5.22597">
        <ele>360.8</ele>
        <time>2025-05-18T11:45:18Z</time>
      </trkpt>
      <trkpt lat="45.65446" lon="5.22603">
        <ele>360.8</ele>
        <time>2025-05-18T11:45:19Z</time>
      </trkpt>
      <trkpt lat="45.65446" lon="5.22611">
        <ele>360.8</ele>
        <time>2025-05-18T11:45:20Z</time>
      </trkpt>
      <trkpt lat="45.65446" lon="5.22618">
        <ele>362.6</ele>
        <time>2025-05-18T11:45:21Z</time>
      </trkpt>
      <trkpt lat="45.65444" lon="5.22625">
        <ele>361.2</ele>
        <time>2025-05-18T11:45:22Z</time>
      </trkpt>
      <trkpt lat="45.65444" lon="5.22633">
        <ele>361.6</ele>
        <time>2025-05-18T11:45:23Z</time>
      </trkpt>
      <trkpt lat="45.65443" lon="5.22641">
        <ele>361</ele>
        <time>2025-05-18T11:45:24Z</time>
      </trkpt>
      <trkpt lat="45.65443" lon="5.22649">
        <ele>359</ele>
        <time>2025-05-18T11:45:25Z</time>
      </trkpt>
      <trkpt lat="45.65442" lon="5.22656">
        <ele>360.2</ele>
        <time>2025-05-18T11:45:26Z</time>
      </trkpt>
      <trkpt lat="45.65442" lon="5.22661">
        <ele>360.4</ele>
        <time>2025-05-18T11:45:27Z</time>
      </trkpt>
      <trkpt lat="45.65442" lon="5.22666">
        <ele>360.6</ele>
        <time>2025-05-18T11:45:28Z</time>
      </trkpt>
      <trkpt lat="45.65441" lon="5.22672">
        <ele>360.2</ele>
        <time>2025-05-18T11:45:29Z</time>
      </trkpt>
      <trkpt lat="45.65441" lon="5.22677">
        <ele>359.8</ele>
        <time>2025-05-18T11:45:30Z</time>
      </trkpt>
      <trkpt lat="45.65441" lon="5.22681">
        <ele>359.6</ele>
        <time>2025-05-18T11:45:31Z</time>
      </trkpt>
      <trkpt lat="45.65441" lon="5.22686">
        <ele>358.8</ele>
        <time>2025-05-18T11:45:32Z</time>
      </trkpt>
      <trkpt lat="45.65442" lon="5.22691">
        <ele>358.8</ele>
        <time>2025-05-18T11:45:33Z</time>
      </trkpt>
      <trkpt lat="45.65443" lon="5.22697">
        <ele>358.8</ele>
        <time>2025-05-18T11:45:34Z</time>
      </trkpt>
      <trkpt lat="45.65446" lon="5.227">
        <ele>358.8</ele>
        <time>2025-05-18T11:45:35Z</time>
      </trkpt>
      <trkpt lat="45.65449" lon="5.22704">
        <ele>359.6</ele>
        <time>2025-05-18T11:45:36Z</time>
      </trkpt>
      <trkpt lat="45.65452" lon="5.22707">
        <ele>359.2</ele>
        <time>2025-05-18T11:45:37Z</time>
      </trkpt>
      <trkpt lat="45.65455" lon="5.22711">
        <ele>359.2</ele>
        <time>2025-05-18T11:45:38Z</time>
      </trkpt>
      <trkpt lat="45.65458" lon="5.22715">
        <ele>358</ele>
        <time>2025-05-18T11:45:39Z</time>
      </trkpt>
      <trkpt lat="45.65462" lon="5.22718">
        <ele>357.6</ele>
        <time>2025-05-18T11:45:40Z</time>
      </trkpt>
      <trkpt lat="45.65465" lon="5.22722">
        <ele>357.2</ele>
        <time>2025-05-18T11:45:41Z</time>
      </trkpt>
      <trkpt lat="45.65469" lon="5.22726">
        <ele>357</ele>
        <time>2025-05-18T11:45:42Z</time>
      </trkpt>
      <trkpt lat="45.65472" lon="5.2273">
        <ele>356.6</ele>
        <time>2025-05-18T11:45:43Z</time>
      </trkpt>
      <trkpt lat="45.65476" lon="5.22733">
        <ele>356</ele>
        <time>2025-05-18T11:45:44Z</time>
      </trkpt>
      <trkpt lat="45.6548" lon="5.22737">
        <ele>356</ele>
        <time>2025-05-18T11:45:45Z</time>
      </trkpt>
      <trkpt lat="45.65483" lon="5.22741">
        <ele>355.6</ele>
        <time>2025-05-18T11:45:46Z</time>
      </trkpt>
      <trkpt lat="45.65486" lon="5.22744">
        <ele>356</ele>
        <time>2025-05-18T11:45:47Z</time>
      </trkpt>
      <trkpt lat="45.65489" lon="5.22748">
        <ele>356</ele>
        <time>2025-05-18T11:45:48Z</time>
      </trkpt>
      <trkpt lat="45.65492" lon="5.22751">
        <ele>355.6</ele>
        <time>2025-05-18T11:45:49Z</time>
      </trkpt>
      <trkpt lat="45.65496" lon="5.22754">
        <ele>354.8</ele>
        <time>2025-05-18T11:45:50Z</time>
      </trkpt>
      <trkpt lat="45.65501" lon="5.22758">
        <ele>354.6</ele>
        <time>2025-05-18T11:45:51Z</time>
      </trkpt>
      <trkpt lat="45.65503" lon="5.22761">
        <ele>353.6</ele>
        <time>2025-05-18T11:45:52Z</time>
      </trkpt>
      <trkpt lat="45.65507" lon="5.22765">
        <ele>354.4</ele>
        <time>2025-05-18T11:45:53Z</time>
      </trkpt>
      <trkpt lat="45.6551" lon="5.22769">
        <ele>353.4</ele>
        <time>2025-05-18T11:45:54Z</time>
      </trkpt>
      <trkpt lat="45.65514" lon="5.22772">
        <ele>353.8</ele>
        <time>2025-05-18T11:45:55Z</time>
      </trkpt>
      <trkpt lat="45.65518" lon="5.22776">
        <ele>354</ele>
        <time>2025-05-18T11:45:56Z</time>
      </trkpt>
      <trkpt lat="45.65522" lon="5.2278">
        <ele>354</ele>
        <time>2025-05-18T11:45:57Z</time>
      </trkpt>
      <trkpt lat="45.65526" lon="5.22784">
        <ele>353</ele>
        <time>2025-05-18T11:45:58Z</time>
      </trkpt>
      <trkpt lat="45.65529" lon="5.22788">
        <ele>352.6</ele>
        <time>2025-05-18T11:45:59Z</time>
      </trkpt>
      <trkpt lat="45.65533" lon="5.22791">
        <ele>352</ele>
        <time>2025-05-18T11:46:00Z</time>
      </trkpt>
      <trkpt lat="45.65537" lon="5.22794">
        <ele>351.4</ele>
        <time>2025-05-18T11:46:01Z</time>
      </trkpt>
      <trkpt lat="45.6554" lon="5.22798">
        <ele>351.2</ele>
        <time>2025-05-18T11:46:02Z</time>
      </trkpt>
      <trkpt lat="45.65544" lon="5.22802">
        <ele>350.4</ele>
        <time>2025-05-18T11:46:03Z</time>
      </trkpt>
      <trkpt lat="45.65547" lon="5.22806">
        <ele>349.8</ele>
        <time>2025-05-18T11:46:04Z</time>
      </trkpt>
      <trkpt lat="45.65551" lon="5.22809">
        <ele>349</ele>
        <time>2025-05-18T11:46:05Z</time>
      </trkpt>
      <trkpt lat="45.65553" lon="5.22812">
        <ele>349</ele>
        <time>2025-05-18T11:46:06Z</time>
      </trkpt>
      <trkpt lat="45.65556" lon="5.22814">
        <ele>349.4</ele>
        <time>2025-05-18T11:46:07Z</time>
      </trkpt>
      <trkpt lat="45.65559" lon="5.22817">
        <ele>349.4</ele>
        <time>2025-05-18T11:46:08Z</time>
      </trkpt>
      <trkpt lat="45.65561" lon="5.2282">
        <ele>349.4</ele>
        <time>2025-05-18T11:46:09Z</time>
      </trkpt>
      <trkpt lat="45.65565" lon="5.22822">
        <ele>350.2</ele>
        <time>2025-05-18T11:46:10Z</time>
      </trkpt>
      <trkpt lat="45.65568" lon="5.22826">
        <ele>349.8</ele>
        <time>2025-05-18T11:46:11Z</time>
      </trkpt>
      <trkpt lat="45.65572" lon="5.22829">
        <ele>349.4</ele>
        <time>2025-05-18T11:46:12Z</time>
      </trkpt>
      <trkpt lat="45.65574" lon="5.22833">
        <ele>348.8</ele>
        <time>2025-05-18T11:46:13Z</time>
      </trkpt>
      <trkpt lat="45.65578" lon="5.22836">
        <ele>348.8</ele>
        <time>2025-05-18T11:46:14Z</time>
      </trkpt>
      <trkpt lat="45.65578" lon="5.22836">
        <ele>348.8</ele>
        <time>2025-05-18T11:46:15Z</time>
      </trkpt>
      <trkpt lat="45.65581" lon="5.22838">
        <ele>348.8</ele>
        <time>2025-05-18T11:46:16Z</time>
      </trkpt>
      <trkpt lat="45.65585" lon="5.22842">
        <ele>348.8</ele>
        <time>2025-05-18T11:46:17Z</time>
      </trkpt>
      <trkpt lat="45.65588" lon="5.22846">
        <ele>348.2</ele>
        <time>2025-05-18T11:46:18Z</time>
      </trkpt>
      <trkpt lat="45.65591" lon="5.22849">
        <ele>348.2</ele>
        <time>2025-05-18T11:46:19Z</time>
      </trkpt>
      <trkpt lat="45.65595" lon="5.22853">
        <ele>348.2</ele>
        <time>2025-05-18T11:46:20Z</time>
      </trkpt>
      <trkpt lat="45.65598" lon="5.22858">
        <ele>348.6</ele>
        <time>2025-05-18T11:46:21Z</time>
      </trkpt>
      <trkpt lat="45.65601" lon="5.22862">
        <ele>347.8</ele>
        <time>2025-05-18T11:46:22Z</time>
      </trkpt>
      <trkpt lat="45.65603" lon="5.22866">
        <ele>348</ele>
        <time>2025-05-18T11:46:23Z</time>
      </trkpt>
      <trkpt lat="45.65605" lon="5.2287">
        <ele>347.8</ele>
        <time>2025-05-18T11:46:24Z</time>
      </trkpt>
      <trkpt lat="45.65606" lon="5.22876">
        <ele>346.6</ele>
        <time>2025-05-18T11:46:25Z</time>
      </trkpt>
      <trkpt lat="45.65607" lon="5.22881">
        <ele>346.4</ele>
        <time>2025-05-18T11:46:26Z</time>
      </trkpt>
      <trkpt lat="45.65608" lon="5.22886">
        <ele>346.4</ele>
        <time>2025-05-18T11:46:27Z</time>
      </trkpt>
      <trkpt lat="45.65609" lon="5.22891">
        <ele>346</ele>
        <time>2025-05-18T11:46:28Z</time>
      </trkpt>
      <trkpt lat="45.65612" lon="5.22895">
        <ele>346</ele>
        <time>2025-05-18T11:46:29Z</time>
      </trkpt>
      <trkpt lat="45.65613" lon="5.22899">
        <ele>345.6</ele>
        <time>2025-05-18T11:46:30Z</time>
      </trkpt>
      <trkpt lat="45.65614" lon="5.22905">
        <ele>345.6</ele>
        <time>2025-05-18T11:46:31Z</time>
      </trkpt>
      <trkpt lat="45.65615" lon="5.2291">
        <ele>345.6</ele>
        <time>2025-05-18T11:46:32Z</time>
      </trkpt>
      <trkpt lat="45.65616" lon="5.22914">
        <ele>345</ele>
        <time>2025-05-18T11:46:33Z</time>
      </trkpt>
      <trkpt lat="45.65618" lon="5.22921">
        <ele>345.4</ele>
        <time>2025-05-18T11:46:34Z</time>
      </trkpt>
      <trkpt lat="45.6562" lon="5.22926">
        <ele>343.6</ele>
        <time>2025-05-18T11:46:35Z</time>
      </trkpt>
      <trkpt lat="45.65621" lon="5.22929">
        <ele>343.6</ele>
        <time>2025-05-18T11:46:36Z</time>
      </trkpt>
      <trkpt lat="45.65623" lon="5.22935">
        <ele>343.4</ele>
        <time>2025-05-18T11:46:37Z</time>
      </trkpt>
      <trkpt lat="45.65625" lon="5.2294">
        <ele>343.4</ele>
        <time>2025-05-18T11:46:38Z</time>
      </trkpt>
      <trkpt lat="45.65626" lon="5.22945">
        <ele>343.6</ele>
        <time>2025-05-18T11:46:39Z</time>
      </trkpt>
      <trkpt lat="45.65628" lon="5.22951">
        <ele>342.8</ele>
        <time>2025-05-18T11:46:40Z</time>
      </trkpt>
      <trkpt lat="45.65629" lon="5.22955">
        <ele>341.4</ele>
        <time>2025-05-18T11:46:41Z</time>
      </trkpt>
      <trkpt lat="45.65628" lon="5.22957">
        <ele>341.4</ele>
        <time>2025-05-18T11:46:42Z</time>
      </trkpt>
      <trkpt lat="45.65631" lon="5.22963">
        <ele>341</ele>
        <time>2025-05-18T11:46:43Z</time>
      </trkpt>
      <trkpt lat="45.65631" lon="5.22967">
        <ele>341.4</ele>
        <time>2025-05-18T11:46:44Z</time>
      </trkpt>
      <trkpt lat="45.65633" lon="5.22971">
        <ele>341.2</ele>
        <time>2025-05-18T11:46:45Z</time>
      </trkpt>
      <trkpt lat="45.65635" lon="5.22975">
        <ele>338.2</ele>
        <time>2025-05-18T11:46:46Z</time>
      </trkpt>
      <trkpt lat="45.65636" lon="5.22978">
        <ele>337.4</ele>
        <time>2025-05-18T11:46:47Z</time>
      </trkpt>
      <trkpt lat="45.65638" lon="5.22981">
        <ele>337.8</ele>
        <time>2025-05-18T11:46:48Z</time>
      </trkpt>
      <trkpt lat="45.65639" lon="5.22984">
        <ele>337.2</ele>
        <time>2025-05-18T11:46:49Z</time>
      </trkpt>
      <trkpt lat="45.65641" lon="5.22988">
        <ele>337.6</ele>
        <time>2025-05-18T11:46:50Z</time>
      </trkpt>
      <trkpt lat="45.65643" lon="5.22993">
        <ele>337.2</ele>
        <time>2025-05-18T11:46:51Z</time>
      </trkpt>
      <trkpt lat="45.65646" lon="5.23001">
        <ele>336.8</ele>
        <time>2025-05-18T11:46:52Z</time>
      </trkpt>
      <trkpt lat="45.65649" lon="5.23007">
        <ele>335.8</ele>
        <time>2025-05-18T11:46:53Z</time>
      </trkpt>
      <trkpt lat="45.65648" lon="5.23011">
        <ele>335</ele>
        <time>2025-05-18T11:46:54Z</time>
      </trkpt>
      <trkpt lat="45.6565" lon="5.23016">
        <ele>334.4</ele>
        <time>2025-05-18T11:46:55Z</time>
      </trkpt>
      <trkpt lat="45.6565" lon="5.23021">
        <ele>334.2</ele>
        <time>2025-05-18T11:46:56Z</time>
      </trkpt>
      <trkpt lat="45.65652" lon="5.23024">
        <ele>334.2</ele>
        <time>2025-05-18T11:46:57Z</time>
      </trkpt>
      <trkpt lat="45.65654" lon="5.23028">
        <ele>333</ele>
        <time>2025-05-18T11:46:58Z</time>
      </trkpt>
      <trkpt lat="45.65656" lon="5.23033">
        <ele>333</ele>
        <time>2025-05-18T11:46:59Z</time>
      </trkpt>
      <trkpt lat="45.65659" lon="5.2304">
        <ele>332</ele>
        <time>2025-05-18T11:47:00Z</time>
      </trkpt>
      <trkpt lat="45.65661" lon="5.23047">
        <ele>331.2</ele>
        <time>2025-05-18T11:47:01Z</time>
      </trkpt>
      <trkpt lat="45.65664" lon="5.23055">
        <ele>329</ele>
        <time>2025-05-18T11:47:02Z</time>
      </trkpt>
      <trkpt lat="45.65667" lon="5.23062">
        <ele>329</ele>
        <time>2025-05-18T11:47:03Z</time>
      </trkpt>
      <trkpt lat="45.65669" lon="5.2307">
        <ele>328.6</ele>
        <time>2025-05-18T11:47:04Z</time>
      </trkpt>
      <trkpt lat="45.65671" lon="5.23076">
        <ele>327.2</ele>
        <time>2025-05-18T11:47:05Z</time>
      </trkpt>
      <trkpt lat="45.65673" lon="5.23081">
        <ele>326.2</ele>
        <time>2025-05-18T11:47:06Z</time>
      </trkpt>
      <trkpt lat="45.65675" lon="5.23085">
        <ele>325.4</ele>
        <time>2025-05-18T11:47:07Z</time>
      </trkpt>
      <trkpt lat="45.65675" lon="5.2309">
        <ele>325.6</ele>
        <time>2025-05-18T11:47:08Z</time>
      </trkpt>
      <trkpt lat="45.65678" lon="5.23095">
        <ele>324.6</ele>
        <time>2025-05-18T11:47:09Z</time>
      </trkpt>
      <trkpt lat="45.65678" lon="5.231">
        <ele>324</ele>
        <time>2025-05-18T11:47:10Z</time>
      </trkpt>
      <trkpt lat="45.6568" lon="5.23104">
        <ele>323.8</ele>
        <time>2025-05-18T11:47:11Z</time>
      </trkpt>
      <trkpt lat="45.65682" lon="5.23111">
        <ele>324.2</ele>
        <time>2025-05-18T11:47:12Z</time>
      </trkpt>
      <trkpt lat="45.65686" lon="5.23116">
        <ele>323.6</ele>
        <time>2025-05-18T11:47:13Z</time>
      </trkpt>
      <trkpt lat="45.65687" lon="5.23123">
        <ele>322.6</ele>
        <time>2025-05-18T11:47:14Z</time>
      </trkpt>
      <trkpt lat="45.6569" lon="5.23129">
        <ele>321.4</ele>
        <time>2025-05-18T11:47:15Z</time>
      </trkpt>
      <trkpt lat="45.65692" lon="5.23136">
        <ele>320.6</ele>
        <time>2025-05-18T11:47:16Z</time>
      </trkpt>
      <trkpt lat="45.65694" lon="5.23143">
        <ele>319.8</ele>
        <time>2025-05-18T11:47:17Z</time>
      </trkpt>
      <trkpt lat="45.65696" lon="5.23149">
        <ele>319</ele>
        <time>2025-05-18T11:47:18Z</time>
      </trkpt>
      <trkpt lat="45.65699" lon="5.23155">
        <ele>319.8</ele>
        <time>2025-05-18T11:47:19Z</time>
      </trkpt>
      <trkpt lat="45.65701" lon="5.2316">
        <ele>319.8</ele>
        <time>2025-05-18T11:47:20Z</time>
      </trkpt>
      <trkpt lat="45.65703" lon="5.23166">
        <ele>319.8</ele>
        <time>2025-05-18T11:47:21Z</time>
      </trkpt>
      <trkpt lat="45.65705" lon="5.23171">
        <ele>319.2</ele>
        <time>2025-05-18T11:47:22Z</time>
      </trkpt>
      <trkpt lat="45.65707" lon="5.23176">
        <ele>318.6</ele>
        <time>2025-05-18T11:47:23Z</time>
      </trkpt>
      <trkpt lat="45.6571" lon="5.23182">
        <ele>317.4</ele>
        <time>2025-05-18T11:47:24Z</time>
      </trkpt>
      <trkpt lat="45.65709" lon="5.23185">
        <ele>317.4</ele>
        <time>2025-05-18T11:47:25Z</time>
      </trkpt>
      <trkpt lat="45.65711" lon="5.23191">
        <ele>317.4</ele>
        <time>2025-05-18T11:47:26Z</time>
      </trkpt>
      <trkpt lat="45.65712" lon="5.23195">
        <ele>317.8</ele>
        <time>2025-05-18T11:47:27Z</time>
      </trkpt>
      <trkpt lat="45.65714" lon="5.23201">
        <ele>317.8</ele>
        <time>2025-05-18T11:47:28Z</time>
      </trkpt>
      <trkpt lat="45.65716" lon="5.23205">
        <ele>316.2</ele>
        <time>2025-05-18T11:47:29Z</time>
      </trkpt>
      <trkpt lat="45.65718" lon="5.23211">
        <ele>316.4</ele>
        <time>2025-05-18T11:47:30Z</time>
      </trkpt>
      <trkpt lat="45.65719" lon="5.23217">
        <ele>315.2</ele>
        <time>2025-05-18T11:47:31Z</time>
      </trkpt>
      <trkpt lat="45.65722" lon="5.23224">
        <ele>314.6</ele>
        <time>2025-05-18T11:47:32Z</time>
      </trkpt>
      <trkpt lat="45.65723" lon="5.2323">
        <ele>314.8</ele>
        <time>2025-05-18T11:47:33Z</time>
      </trkpt>
      <trkpt lat="45.65726" lon="5.23236">
        <ele>314.2</ele>
        <time>2025-05-18T11:47:34Z</time>
      </trkpt>
      <trkpt lat="45.65728" lon="5.23241">
        <ele>315</ele>
        <time>2025-05-18T11:47:35Z</time>
      </trkpt>
      <trkpt lat="45.6573" lon="5.23246">
        <ele>313.8</ele>
        <time>2025-05-18T11:47:36Z</time>
      </trkpt>
      <trkpt lat="45.65732" lon="5.23252">
        <ele>314.2</ele>
        <time>2025-05-18T11:47:37Z</time>
      </trkpt>
      <trkpt lat="45.65734" lon="5.23257">
        <ele>313.8</ele>
        <time>2025-05-18T11:47:38Z</time>
      </trkpt>
      <trkpt lat="45.65737" lon="5.23263">
        <ele>312.4</ele>
        <time>2025-05-18T11:47:39Z</time>
      </trkpt>
      <trkpt lat="45.65739" lon="5.2327">
        <ele>311.8</ele>
        <time>2025-05-18T11:47:40Z</time>
      </trkpt>
      <trkpt lat="45.65742" lon="5.23275">
        <ele>311.6</ele>
        <time>2025-05-18T11:47:41Z</time>
      </trkpt>
      <trkpt lat="45.65744" lon="5.2328">
        <ele>311.2</ele>
        <time>2025-05-18T11:47:42Z</time>
      </trkpt>
      <trkpt lat="45.65746" lon="5.23285">
        <ele>310.8</ele>
        <time>2025-05-18T11:47:43Z</time>
      </trkpt>
      <trkpt lat="45.65748" lon="5.23289">
        <ele>310.4</ele>
        <time>2025-05-18T11:47:44Z</time>
      </trkpt>
      <trkpt lat="45.6575" lon="5.23292">
        <ele>310.4</ele>
        <time>2025-05-18T11:47:45Z</time>
      </trkpt>
      <trkpt lat="45.65751" lon="5.23294">
        <ele>310</ele>
        <time>2025-05-18T11:47:46Z</time>
      </trkpt>
      <trkpt lat="45.6575" lon="5.23297">
        <ele>309.8</ele>
        <time>2025-05-18T11:47:47Z</time>
      </trkpt>
      <trkpt lat="45.6575" lon="5.23298">
        <ele>309.8</ele>
        <time>2025-05-18T11:47:48Z</time>
      </trkpt>
      <trkpt lat="45.6575" lon="5.23299">
        <ele>309.6</ele>
        <time>2025-05-18T11:47:49Z</time>
      </trkpt>
      <trkpt lat="45.65749" lon="5.23301">
        <ele>309.6</ele>
        <time>2025-05-18T11:47:50Z</time>
      </trkpt>
      <trkpt lat="45.65746" lon="5.23302">
        <ele>309.2</ele>
        <time>2025-05-18T11:47:51Z</time>
      </trkpt>
      <trkpt lat="45.65743" lon="5.23301">
        <ele>309.2</ele>
        <time>2025-05-18T11:47:52Z</time>
      </trkpt>
      <trkpt lat="45.6574" lon="5.23299">
        <ele>308.8</ele>
        <time>2025-05-18T11:47:53Z</time>
      </trkpt>
      <trkpt lat="45.65737" lon="5.23297">
        <ele>308.6</ele>
        <time>2025-05-18T11:47:54Z</time>
      </trkpt>
      <trkpt lat="45.65733" lon="5.23295">
        <ele>308</ele>
        <time>2025-05-18T11:47:55Z</time>
      </trkpt>
      <trkpt lat="45.65729" lon="5.23294">
        <ele>307.8</ele>
        <time>2025-05-18T11:47:56Z</time>
      </trkpt>
      <trkpt lat="45.65724" lon="5.23293">
        <ele>307.4</ele>
        <time>2025-05-18T11:47:57Z</time>
      </trkpt>
      <trkpt lat="45.6572" lon="5.23292">
        <ele>307.2</ele>
        <time>2025-05-18T11:47:58Z</time>
      </trkpt>
      <trkpt lat="45.65715" lon="5.23292">
        <ele>306.8</ele>
        <time>2025-05-18T11:47:59Z</time>
      </trkpt>
      <trkpt lat="45.65709" lon="5.23292">
        <ele>306</ele>
        <time>2025-05-18T11:48:00Z</time>
      </trkpt>
      <trkpt lat="45.65704" lon="5.23294">
        <ele>306</ele>
        <time>2025-05-18T11:48:01Z</time>
      </trkpt>
      <trkpt lat="45.65698" lon="5.23298">
        <ele>305.2</ele>
        <time>2025-05-18T11:48:02Z</time>
      </trkpt>
      <trkpt lat="45.65692" lon="5.23303">
        <ele>304.6</ele>
        <time>2025-05-18T11:48:03Z</time>
      </trkpt>
      <trkpt lat="45.65686" lon="5.23309">
        <ele>303.8</ele>
        <time>2025-05-18T11:48:04Z</time>
      </trkpt>
      <trkpt lat="45.65679" lon="5.23315">
        <ele>303</ele>
        <time>2025-05-18T11:48:05Z</time>
      </trkpt>
      <trkpt lat="45.65673" lon="5.23322">
        <ele>302.4</ele>
        <time>2025-05-18T11:48:06Z</time>
      </trkpt>
      <trkpt lat="45.65666" lon="5.23329">
        <ele>301.8</ele>
        <time>2025-05-18T11:48:07Z</time>
      </trkpt>
      <trkpt lat="45.65659" lon="5.23336">
        <ele>300.8</ele>
        <time>2025-05-18T11:48:08Z</time>
      </trkpt>
      <trkpt lat="45.65651" lon="5.23342">
        <ele>300.4</ele>
        <time>2025-05-18T11:48:09Z</time>
      </trkpt>
      <trkpt lat="45.65644" lon="5.23349">
        <ele>299.8</ele>
        <time>2025-05-18T11:48:10Z</time>
      </trkpt>
      <trkpt lat="45.65637" lon="5.23354">
        <ele>299.2</ele>
        <time>2025-05-18T11:48:11Z</time>
      </trkpt>
      <trkpt lat="45.65631" lon="5.2336">
        <ele>299</ele>
        <time>2025-05-18T11:48:12Z</time>
      </trkpt>
      <trkpt lat="45.65623" lon="5.23363">
        <ele>298.6</ele>
        <time>2025-05-18T11:48:13Z</time>
      </trkpt>
      <trkpt lat="45.65615" lon="5.23367">
        <ele>298.6</ele>
        <time>2025-05-18T11:48:14Z</time>
      </trkpt>
      <trkpt lat="45.65608" lon="5.23372">
        <ele>298.6</ele>
        <time>2025-05-18T11:48:15Z</time>
      </trkpt>
      <trkpt lat="45.65599" lon="5.23374">
        <ele>298.4</ele>
        <time>2025-05-18T11:48:16Z</time>
      </trkpt>
      <trkpt lat="45.65592" lon="5.23378">
        <ele>297.8</ele>
        <time>2025-05-18T11:48:17Z</time>
      </trkpt>
      <trkpt lat="45.65584" lon="5.23383">
        <ele>297.4</ele>
        <time>2025-05-18T11:48:18Z</time>
      </trkpt>
      <trkpt lat="45.65577" lon="5.23388">
        <ele>297</ele>
        <time>2025-05-18T11:48:19Z</time>
      </trkpt>
      <trkpt lat="45.6557" lon="5.23392">
        <ele>296.8</ele>
        <time>2025-05-18T11:48:20Z</time>
      </trkpt>
      <trkpt lat="45.65562" lon="5.23398">
        <ele>296.8</ele>
        <time>2025-05-18T11:48:21Z</time>
      </trkpt>
      <trkpt lat="45.65554" lon="5.23403">
        <ele>296.4</ele>
        <time>2025-05-18T11:48:22Z</time>
      </trkpt>
      <trkpt lat="45.65538" lon="5.23416">
        <ele>295.6</ele>
        <time>2025-05-18T11:48:23Z</time>
      </trkpt>
      <trkpt lat="45.65529" lon="5.23422">
        <ele>295.4</ele>
        <time>2025-05-18T11:48:24Z</time>
      </trkpt>
      <trkpt lat="45.65521" lon="5.23428">
        <ele>294.4</ele>
        <time>2025-05-18T11:48:25Z</time>
      </trkpt>
      <trkpt lat="45.65512" lon="5.23433">
        <ele>294.4</ele>
        <time>2025-05-18T11:48:26Z</time>
      </trkpt>
      <trkpt lat="45.65503" lon="5.23439">
        <ele>294.4</ele>
        <time>2025-05-18T11:48:27Z</time>
      </trkpt>
      <trkpt lat="45.65495" lon="5.23444">
        <ele>294.4</ele>
        <time>2025-05-18T11:48:28Z</time>
      </trkpt>
      <trkpt lat="45.65485" lon="5.23451">
        <ele>293.6</ele>
        <time>2025-05-18T11:48:29Z</time>
      </trkpt>
      <trkpt lat="45.65475" lon="5.23457">
        <ele>292.8</ele>
        <time>2025-05-18T11:48:30Z</time>
      </trkpt>
      <trkpt lat="45.65465" lon="5.23462">
        <ele>292</ele>
        <time>2025-05-18T11:48:31Z</time>
      </trkpt>
      <trkpt lat="45.65456" lon="5.23467">
        <ele>291.6</ele>
        <time>2025-05-18T11:48:32Z</time>
      </trkpt>
      <trkpt lat="45.65446" lon="5.2347">
        <ele>291.6</ele>
        <time>2025-05-18T11:48:33Z</time>
      </trkpt>
      <trkpt lat="45.65437" lon="5.23474">
        <ele>290.8</ele>
        <time>2025-05-18T11:48:34Z</time>
      </trkpt>
      <trkpt lat="45.65427" lon="5.23477">
        <ele>290.8</ele>
        <time>2025-05-18T11:48:35Z</time>
      </trkpt>
      <trkpt lat="45.65419" lon="5.23479">
        <ele>290.4</ele>
        <time>2025-05-18T11:48:36Z</time>
      </trkpt>
      <trkpt lat="45.65409" lon="5.23482">
        <ele>289.4</ele>
        <time>2025-05-18T11:48:37Z</time>
      </trkpt>
      <trkpt lat="45.65399" lon="5.23485">
        <ele>289</ele>
        <time>2025-05-18T11:48:38Z</time>
      </trkpt>
      <trkpt lat="45.65388" lon="5.23487">
        <ele>288.2</ele>
        <time>2025-05-18T11:48:39Z</time>
      </trkpt>
      <trkpt lat="45.65378" lon="5.23488">
        <ele>287.8</ele>
        <time>2025-05-18T11:48:40Z</time>
      </trkpt>
      <trkpt lat="45.65368" lon="5.23489">
        <ele>287.6</ele>
        <time>2025-05-18T11:48:41Z</time>
      </trkpt>
      <trkpt lat="45.65357" lon="5.23489">
        <ele>286.2</ele>
        <time>2025-05-18T11:48:42Z</time>
      </trkpt>
      <trkpt lat="45.65346" lon="5.23488">
        <ele>285.8</ele>
        <time>2025-05-18T11:48:43Z</time>
      </trkpt>
      <trkpt lat="45.65337" lon="5.23484">
        <ele>285.6</ele>
        <time>2025-05-18T11:48:44Z</time>
      </trkpt>
      <trkpt lat="45.65327" lon="5.23479">
        <ele>285.2</ele>
        <time>2025-05-18T11:48:45Z</time>
      </trkpt>
      <trkpt lat="45.65319" lon="5.23473">
        <ele>285.2</ele>
        <time>2025-05-18T11:48:46Z</time>
      </trkpt>
      <trkpt lat="45.6531" lon="5.23469">
        <ele>284.6</ele>
        <time>2025-05-18T11:48:47Z</time>
      </trkpt>
      <trkpt lat="45.65301" lon="5.23465">
        <ele>285</ele>
        <time>2025-05-18T11:48:48Z</time>
      </trkpt>
      <trkpt lat="45.65291" lon="5.23463">
        <ele>284.6</ele>
        <time>2025-05-18T11:48:49Z</time>
      </trkpt>
      <trkpt lat="45.65283" lon="5.23462">
        <ele>284.6</ele>
        <time>2025-05-18T11:48:50Z</time>
      </trkpt>
      <trkpt lat="45.65273" lon="5.23461">
        <ele>284.6</ele>
        <time>2025-05-18T11:48:51Z</time>
      </trkpt>
      <trkpt lat="45.65265" lon="5.23461">
        <ele>284.6</ele>
        <time>2025-05-18T11:48:52Z</time>
      </trkpt>
      <trkpt lat="45.65257" lon="5.2346">
        <ele>284.4</ele>
        <time>2025-05-18T11:48:53Z</time>
      </trkpt>
      <trkpt lat="45.65249" lon="5.23459">
        <ele>284.2</ele>
        <time>2025-05-18T11:48:54Z</time>
      </trkpt>
      <trkpt lat="45.65242" lon="5.23457">
        <ele>284.2</ele>
        <time>2025-05-18T11:48:55Z</time>
      </trkpt>
      <trkpt lat="45.65234" lon="5.23455">
        <ele>284.2</ele>
        <time>2025-05-18T11:48:56Z</time>
      </trkpt>
      <trkpt lat="45.65227" lon="5.23453">
        <ele>284.2</ele>
        <time>2025-05-18T11:48:57Z</time>
      </trkpt>
      <trkpt lat="45.65219" lon="5.23452">
        <ele>283.8</ele>
        <time>2025-05-18T11:48:58Z</time>
      </trkpt>
      <trkpt lat="45.65211" lon="5.2345">
        <ele>283.6</ele>
        <time>2025-05-18T11:48:59Z</time>
      </trkpt>
      <trkpt lat="45.65205" lon="5.23448">
        <ele>283.6</ele>
        <time>2025-05-18T11:49:00Z</time>
      </trkpt>
      <trkpt lat="45.65197" lon="5.23447">
        <ele>283.2</ele>
        <time>2025-05-18T11:49:01Z</time>
      </trkpt>
      <trkpt lat="45.6519" lon="5.23446">
        <ele>283</ele>
        <time>2025-05-18T11:49:02Z</time>
      </trkpt>
      <trkpt lat="45.65183" lon="5.23445">
        <ele>283</ele>
        <time>2025-05-18T11:49:03Z</time>
      </trkpt>
      <trkpt lat="45.65175" lon="5.23444">
        <ele>283</ele>
        <time>2025-05-18T11:49:04Z</time>
      </trkpt>
      <trkpt lat="45.65167" lon="5.23443">
        <ele>282.8</ele>
        <time>2025-05-18T11:49:05Z</time>
      </trkpt>
      <trkpt lat="45.65159" lon="5.23442">
        <ele>282.8</ele>
        <time>2025-05-18T11:49:06Z</time>
      </trkpt>
      <trkpt lat="45.65152" lon="5.23442">
        <ele>282.8</ele>
        <time>2025-05-18T11:49:07Z</time>
      </trkpt>
      <trkpt lat="45.65144" lon="5.23441">
        <ele>282.4</ele>
        <time>2025-05-18T11:49:08Z</time>
      </trkpt>
      <trkpt lat="45.65136" lon="5.2344">
        <ele>281.8</ele>
        <time>2025-05-18T11:49:09Z</time>
      </trkpt>
      <trkpt lat="45.65128" lon="5.23439">
        <ele>281.6</ele>
        <time>2025-05-18T11:49:10Z</time>
      </trkpt>
      <trkpt lat="45.65128" lon="5.23439">
        <ele>281.2</ele>
        <time>2025-05-18T11:49:11Z</time>
      </trkpt>
      <trkpt lat="45.65128" lon="5.23439">
        <ele>280.8</ele>
        <time>2025-05-18T11:49:12Z</time>
      </trkpt>
      <trkpt lat="45.65128" lon="5.23439">
        <ele>280.8</ele>
        <time>2025-05-18T11:49:13Z</time>
      </trkpt>
      <trkpt lat="45.65097" lon="5.23439">
        <ele>280.4</ele>
        <time>2025-05-18T11:49:15Z</time>
      </trkpt>
      <trkpt lat="45.6509" lon="5.23439">
        <ele>279.8</ele>
        <time>2025-05-18T11:49:16Z</time>
      </trkpt>
      <trkpt lat="45.65083" lon="5.23439">
        <ele>279.8</ele>
        <time>2025-05-18T11:49:17Z</time>
      </trkpt>
      <trkpt lat="45.65076" lon="5.23439">
        <ele>279.8</ele>
        <time>2025-05-18T11:49:18Z</time>
      </trkpt>
      <trkpt lat="45.6507" lon="5.23438">
        <ele>279.8</ele>
        <time>2025-05-18T11:49:19Z</time>
      </trkpt>
      <trkpt lat="45.65064" lon="5.23436">
        <ele>279.8</ele>
        <time>2025-05-18T11:49:20Z</time>
      </trkpt>
      <trkpt lat="45.65058" lon="5.23437">
        <ele>280.2</ele>
        <time>2025-05-18T11:49:21Z</time>
      </trkpt>
      <trkpt lat="45.65053" lon="5.23436">
        <ele>280.2</ele>
        <time>2025-05-18T11:49:22Z</time>
      </trkpt>
      <trkpt lat="45.65049" lon="5.23434">
        <ele>280.2</ele>
        <time>2025-05-18T11:49:23Z</time>
      </trkpt>
      <trkpt lat="45.65044" lon="5.23434">
        <ele>280.2</ele>
        <time>2025-05-18T11:49:24Z</time>
      </trkpt>
      <trkpt lat="45.65039" lon="5.23433">
        <ele>280.4</ele>
        <time>2025-05-18T11:49:25Z</time>
      </trkpt>
      <trkpt lat="45.65035" lon="5.23433">
        <ele>280.4</ele>
        <time>2025-05-18T11:49:26Z</time>
      </trkpt>
      <trkpt lat="45.6503" lon="5.23432">
        <ele>280.4</ele>
        <time>2025-05-18T11:49:27Z</time>
      </trkpt>
      <trkpt lat="45.65026" lon="5.23431">
        <ele>280.4</ele>
        <time>2025-05-18T11:49:28Z</time>
      </trkpt>
      <trkpt lat="45.65021" lon="5.23429">
        <ele>280.4</ele>
        <time>2025-05-18T11:49:29Z</time>
      </trkpt>
      <trkpt lat="45.65017" lon="5.23428">
        <ele>280.8</ele>
        <time>2025-05-18T11:49:30Z</time>
      </trkpt>
      <trkpt lat="45.65012" lon="5.23427">
        <ele>280.8</ele>
        <time>2025-05-18T11:49:31Z</time>
      </trkpt>
      <trkpt lat="45.65007" lon="5.23427">
        <ele>280.8</ele>
        <time>2025-05-18T11:49:32Z</time>
      </trkpt>
      <trkpt lat="45.65003" lon="5.23427">
        <ele>280.8</ele>
        <time>2025-05-18T11:49:33Z</time>
      </trkpt>
      <trkpt lat="45.64998" lon="5.23428">
        <ele>280.4</ele>
        <time>2025-05-18T11:49:34Z</time>
      </trkpt>
      <trkpt lat="45.64993" lon="5.23429">
        <ele>280.2</ele>
        <time>2025-05-18T11:49:35Z</time>
      </trkpt>
      <trkpt lat="45.64988" lon="5.23429">
        <ele>280.4</ele>
        <time>2025-05-18T11:49:36Z</time>
      </trkpt>
      <trkpt lat="45.64983" lon="5.23431">
        <ele>280.4</ele>
        <time>2025-05-18T11:49:37Z</time>
      </trkpt>
      <trkpt lat="45.64977" lon="5.23432">
        <ele>280</ele>
        <time>2025-05-18T11:49:38Z</time>
      </trkpt>
      <trkpt lat="45.64971" lon="5.23434">
        <ele>279.8</ele>
        <time>2025-05-18T11:49:39Z</time>
      </trkpt>
      <trkpt lat="45.64965" lon="5.23436">
        <ele>279.8</ele>
        <time>2025-05-18T11:49:40Z</time>
      </trkpt>
      <trkpt lat="45.6496" lon="5.23439">
        <ele>279.8</ele>
        <time>2025-05-18T11:49:41Z</time>
      </trkpt>
      <trkpt lat="45.64955" lon="5.23441">
        <ele>279.4</ele>
        <time>2025-05-18T11:49:42Z</time>
      </trkpt>
      <trkpt lat="45.64949" lon="5.23443">
        <ele>279</ele>
        <time>2025-05-18T11:49:43Z</time>
      </trkpt>
      <trkpt lat="45.64943" lon="5.23445">
        <ele>278.2</ele>
        <time>2025-05-18T11:49:44Z</time>
      </trkpt>
      <trkpt lat="45.64937" lon="5.23445">
        <ele>278.2</ele>
        <time>2025-05-18T11:49:45Z</time>
      </trkpt>
      <trkpt lat="45.64931" lon="5.23447">
        <ele>278</ele>
        <time>2025-05-18T11:49:46Z</time>
      </trkpt>
      <trkpt lat="45.64925" lon="5.2345">
        <ele>277.8</ele>
        <time>2025-05-18T11:49:47Z</time>
      </trkpt>
      <trkpt lat="45.64919" lon="5.23452">
        <ele>277.8</ele>
        <time>2025-05-18T11:49:48Z</time>
      </trkpt>
      <trkpt lat="45.64912" lon="5.23454">
        <ele>277.2</ele>
        <time>2025-05-18T11:49:49Z</time>
      </trkpt>
      <trkpt lat="45.64906" lon="5.23457">
        <ele>277</ele>
        <time>2025-05-18T11:49:50Z</time>
      </trkpt>
      <trkpt lat="45.649" lon="5.23459">
        <ele>277</ele>
        <time>2025-05-18T11:49:51Z</time>
      </trkpt>
      <trkpt lat="45.64895" lon="5.23461">
        <ele>276.6</ele>
        <time>2025-05-18T11:49:52Z</time>
      </trkpt>
      <trkpt lat="45.6489" lon="5.23463">
        <ele>276.6</ele>
        <time>2025-05-18T11:49:53Z</time>
      </trkpt>
      <trkpt lat="45.64886" lon="5.23465">
        <ele>276.6</ele>
        <time>2025-05-18T11:49:54Z</time>
      </trkpt>
      <trkpt lat="45.64882" lon="5.23467">
        <ele>276.2</ele>
        <time>2025-05-18T11:49:55Z</time>
      </trkpt>
      <trkpt lat="45.64879" lon="5.23473">
        <ele>275.8</ele>
        <time>2025-05-18T11:49:56Z</time>
      </trkpt>
      <trkpt lat="45.64878" lon="5.23479">
        <ele>275.8</ele>
        <time>2025-05-18T11:49:57Z</time>
      </trkpt>
      <trkpt lat="45.64879" lon="5.23485">
        <ele>275.4</ele>
        <time>2025-05-18T11:49:58Z</time>
      </trkpt>
      <trkpt lat="45.64881" lon="5.23489">
        <ele>275.6</ele>
        <time>2025-05-18T11:49:59Z</time>
      </trkpt>
      <trkpt lat="45.64884" lon="5.23493">
        <ele>275.8</ele>
        <time>2025-05-18T11:50:00Z</time>
      </trkpt>
      <trkpt lat="45.64884" lon="5.23493">
        <ele>276.2</ele>
        <time>2025-05-18T11:50:01Z</time>
      </trkpt>
      <trkpt lat="45.64891" lon="5.23506">
        <ele>276.6</ele>
        <time>2025-05-18T11:50:02Z</time>
      </trkpt>
      <trkpt lat="45.64893" lon="5.23511">
        <ele>276.6</ele>
        <time>2025-05-18T11:50:03Z</time>
      </trkpt>
      <trkpt lat="45.64895" lon="5.23517">
        <ele>276.6</ele>
        <time>2025-05-18T11:50:04Z</time>
      </trkpt>
      <trkpt lat="45.64897" lon="5.23522">
        <ele>276.8</ele>
        <time>2025-05-18T11:50:05Z</time>
      </trkpt>
      <trkpt lat="45.64899" lon="5.23528">
        <ele>276.8</ele>
        <time>2025-05-18T11:50:06Z</time>
      </trkpt>
      <trkpt lat="45.64901" lon="5.23534">
        <ele>276.8</ele>
        <time>2025-05-18T11:50:07Z</time>
      </trkpt>
      <trkpt lat="45.64904" lon="5.23539">
        <ele>277</ele>
        <time>2025-05-18T11:50:08Z</time>
      </trkpt>
      <trkpt lat="45.64907" lon="5.23545">
        <ele>277</ele>
        <time>2025-05-18T11:50:09Z</time>
      </trkpt>
      <trkpt lat="45.6491" lon="5.2355">
        <ele>277</ele>
        <time>2025-05-18T11:50:10Z</time>
      </trkpt>
      <trkpt lat="45.64913" lon="5.23556">
        <ele>277</ele>
        <time>2025-05-18T11:50:11Z</time>
      </trkpt>
      <trkpt lat="45.64916" lon="5.23562">
        <ele>277</ele>
        <time>2025-05-18T11:50:12Z</time>
      </trkpt>
      <trkpt lat="45.6492" lon="5.23568">
        <ele>277</ele>
        <time>2025-05-18T11:50:13Z</time>
      </trkpt>
      <trkpt lat="45.64923" lon="5.23575">
        <ele>276.6</ele>
        <time>2025-05-18T11:50:14Z</time>
      </trkpt>
      <trkpt lat="45.64926" lon="5.23581">
        <ele>276.6</ele>
        <time>2025-05-18T11:50:15Z</time>
      </trkpt>
      <trkpt lat="45.64929" lon="5.23587">
        <ele>276.6</ele>
        <time>2025-05-18T11:50:16Z</time>
      </trkpt>
      <trkpt lat="45.64933" lon="5.23594">
        <ele>276.6</ele>
        <time>2025-05-18T11:50:17Z</time>
      </trkpt>
      <trkpt lat="45.64935" lon="5.23601">
        <ele>276.6</ele>
        <time>2025-05-18T11:50:18Z</time>
      </trkpt>
      <trkpt lat="45.64937" lon="5.23607">
        <ele>276.6</ele>
        <time>2025-05-18T11:50:19Z</time>
      </trkpt>
      <trkpt lat="45.6494" lon="5.23613">
        <ele>276.6</ele>
        <time>2025-05-18T11:50:20Z</time>
      </trkpt>
      <trkpt lat="45.64943" lon="5.2362">
        <ele>276.6</ele>
        <time>2025-05-18T11:50:21Z</time>
      </trkpt>
      <trkpt lat="45.64946" lon="5.23626">
        <ele>276.6</ele>
        <time>2025-05-18T11:50:22Z</time>
      </trkpt>
      <trkpt lat="45.64948" lon="5.23631">
        <ele>276.6</ele>
        <time>2025-05-18T11:50:23Z</time>
      </trkpt>
      <trkpt lat="45.64951" lon="5.23637">
        <ele>277</ele>
        <time>2025-05-18T11:50:24Z</time>
      </trkpt>
      <trkpt lat="45.64954" lon="5.23643">
        <ele>277</ele>
        <time>2025-05-18T11:50:25Z</time>
      </trkpt>
      <trkpt lat="45.64957" lon="5.23649">
        <ele>277</ele>
        <time>2025-05-18T11:50:26Z</time>
      </trkpt>
      <trkpt lat="45.6496" lon="5.23656">
        <ele>277</ele>
        <time>2025-05-18T11:50:27Z</time>
      </trkpt>
      <trkpt lat="45.64964" lon="5.23662">
        <ele>277</ele>
        <time>2025-05-18T11:50:28Z</time>
      </trkpt>
      <trkpt lat="45.64967" lon="5.23669">
        <ele>277</ele>
        <time>2025-05-18T11:50:29Z</time>
      </trkpt>
      <trkpt lat="45.64971" lon="5.23675">
        <ele>277</ele>
        <time>2025-05-18T11:50:30Z</time>
      </trkpt>
      <trkpt lat="45.64973" lon="5.23682">
        <ele>277</ele>
        <time>2025-05-18T11:50:31Z</time>
      </trkpt>
      <trkpt lat="45.64976" lon="5.2369">
        <ele>277</ele>
        <time>2025-05-18T11:50:32Z</time>
      </trkpt>
      <trkpt lat="45.64979" lon="5.23696">
        <ele>276.6</ele>
        <time>2025-05-18T11:50:33Z</time>
      </trkpt>
      <trkpt lat="45.64982" lon="5.23702">
        <ele>276.6</ele>
        <time>2025-05-18T11:50:34Z</time>
      </trkpt>
      <trkpt lat="45.64984" lon="5.23708">
        <ele>276.6</ele>
        <time>2025-05-18T11:50:35Z</time>
      </trkpt>
      <trkpt lat="45.64986" lon="5.23714">
        <ele>277</ele>
        <time>2025-05-18T11:50:36Z</time>
      </trkpt>
      <trkpt lat="45.6499" lon="5.2372">
        <ele>277.2</ele>
        <time>2025-05-18T11:50:37Z</time>
      </trkpt>
      <trkpt lat="45.64992" lon="5.23725">
        <ele>277.2</ele>
        <time>2025-05-18T11:50:38Z</time>
      </trkpt>
      <trkpt lat="45.64994" lon="5.23729">
        <ele>277.8</ele>
        <time>2025-05-18T11:50:39Z</time>
      </trkpt>
      <trkpt lat="45.64996" lon="5.23732">
        <ele>278.2</ele>
        <time>2025-05-18T11:50:40Z</time>
      </trkpt>
      <trkpt lat="45.64997" lon="5.23735">
        <ele>278.4</ele>
        <time>2025-05-18T11:50:41Z</time>
      </trkpt>
      <trkpt lat="45.64998" lon="5.23738">
        <ele>278.8</ele>
        <time>2025-05-18T11:50:42Z</time>
      </trkpt>
      <trkpt lat="45.65" lon="5.23741">
        <ele>279.2</ele>
        <time>2025-05-18T11:50:43Z</time>
      </trkpt>
      <trkpt lat="45.65001" lon="5.23743">
        <ele>279.8</ele>
        <time>2025-05-18T11:50:44Z</time>
      </trkpt>
      <trkpt lat="45.65003" lon="5.23745">
        <ele>280.2</ele>
        <time>2025-05-18T11:50:45Z</time>
      </trkpt>
      <trkpt lat="45.65005" lon="5.23747">
        <ele>280.4</ele>
        <time>2025-05-18T11:50:46Z</time>
      </trkpt>
      <trkpt lat="45.65006" lon="5.23748">
        <ele>280.8</ele>
        <time>2025-05-18T11:50:47Z</time>
      </trkpt>
      <trkpt lat="45.65007" lon="5.2375">
        <ele>281.2</ele>
        <time>2025-05-18T11:50:48Z</time>
      </trkpt>
      <trkpt lat="45.65008" lon="5.23752">
        <ele>281.4</ele>
        <time>2025-05-18T11:50:49Z</time>
      </trkpt>
      <trkpt lat="45.6501" lon="5.23753">
        <ele>281.4</ele>
        <time>2025-05-18T11:50:50Z</time>
      </trkpt>
      <trkpt lat="45.65011" lon="5.23755">
        <ele>281.8</ele>
        <time>2025-05-18T11:50:51Z</time>
      </trkpt>
      <trkpt lat="45.65013" lon="5.23757">
        <ele>282</ele>
        <time>2025-05-18T11:50:52Z</time>
      </trkpt>
      <trkpt lat="45.65013" lon="5.23759">
        <ele>282.4</ele>
        <time>2025-05-18T11:50:53Z</time>
      </trkpt>
      <trkpt lat="45.65014" lon="5.2376">
        <ele>282.4</ele>
        <time>2025-05-18T11:50:54Z</time>
      </trkpt>
      <trkpt lat="45.65015" lon="5.23762">
        <ele>282.4</ele>
        <time>2025-05-18T11:50:55Z</time>
      </trkpt>
      <trkpt lat="45.65016" lon="5.23764">
        <ele>282.8</ele>
        <time>2025-05-18T11:50:56Z</time>
      </trkpt>
      <trkpt lat="45.65017" lon="5.23765">
        <ele>282.8</ele>
        <time>2025-05-18T11:50:57Z</time>
      </trkpt>
      <trkpt lat="45.65018" lon="5.23767">
        <ele>283.2</ele>
        <time>2025-05-18T11:50:58Z</time>
      </trkpt>
      <trkpt lat="45.65019" lon="5.23768">
        <ele>283.4</ele>
        <time>2025-05-18T11:50:59Z</time>
      </trkpt>
      <trkpt lat="45.65021" lon="5.23769">
        <ele>283.8</ele>
        <time>2025-05-18T11:51:00Z</time>
      </trkpt>
      <trkpt lat="45.65022" lon="5.2377">
        <ele>283.8</ele>
        <time>2025-05-18T11:51:01Z</time>
      </trkpt>
      <trkpt lat="45.65024" lon="5.23771">
        <ele>283.8</ele>
        <time>2025-05-18T11:51:02Z</time>
      </trkpt>
      <trkpt lat="45.65026" lon="5.23773">
        <ele>284</ele>
        <time>2025-05-18T11:51:03Z</time>
      </trkpt>
      <trkpt lat="45.65027" lon="5.23773">
        <ele>284</ele>
        <time>2025-05-18T11:51:04Z</time>
      </trkpt>
      <trkpt lat="45.65029" lon="5.23774">
        <ele>284.2</ele>
        <time>2025-05-18T11:51:05Z</time>
      </trkpt>
      <trkpt lat="45.65031" lon="5.23775">
        <ele>284.2</ele>
        <time>2025-05-18T11:51:06Z</time>
      </trkpt>
      <trkpt lat="45.65033" lon="5.23776">
        <ele>284.6</ele>
        <time>2025-05-18T11:51:07Z</time>
      </trkpt>
      <trkpt lat="45.65035" lon="5.23777">
        <ele>284.8</ele>
        <time>2025-05-18T11:51:08Z</time>
      </trkpt>
      <trkpt lat="45.65037" lon="5.23777">
        <ele>284.8</ele>
        <time>2025-05-18T11:51:09Z</time>
      </trkpt>
      <trkpt lat="45.65039" lon="5.23778">
        <ele>285</ele>
        <time>2025-05-18T11:51:10Z</time>
      </trkpt>
      <trkpt lat="45.65041" lon="5.23779">
        <ele>285.4</ele>
        <time>2025-05-18T11:51:11Z</time>
      </trkpt>
      <trkpt lat="45.65043" lon="5.2378">
        <ele>285.6</ele>
        <time>2025-05-18T11:51:12Z</time>
      </trkpt>
      <trkpt lat="45.65046" lon="5.2378">
        <ele>285.6</ele>
        <time>2025-05-18T11:51:13Z</time>
      </trkpt>
      <trkpt lat="45.65048" lon="5.2378">
        <ele>285.8</ele>
        <time>2025-05-18T11:51:14Z</time>
      </trkpt>
      <trkpt lat="45.6505" lon="5.23781">
        <ele>285.8</ele>
        <time>2025-05-18T11:51:15Z</time>
      </trkpt>
      <trkpt lat="45.65052" lon="5.23781">
        <ele>286.2</ele>
        <time>2025-05-18T11:51:16Z</time>
      </trkpt>
      <trkpt lat="45.65054" lon="5.23782">
        <ele>286.2</ele>
        <time>2025-05-18T11:51:17Z</time>
      </trkpt>
      <trkpt lat="45.65056" lon="5.23782">
        <ele>286.4</ele>
        <time>2025-05-18T11:51:18Z</time>
      </trkpt>
      <trkpt lat="45.65058" lon="5.23783">
        <ele>286.4</ele>
        <time>2025-05-18T11:51:19Z</time>
      </trkpt>
      <trkpt lat="45.6506" lon="5.23783">
        <ele>286.6</ele>
        <time>2025-05-18T11:51:20Z</time>
      </trkpt>
      <trkpt lat="45.65062" lon="5.23784">
        <ele>287</ele>
        <time>2025-05-18T11:51:21Z</time>
      </trkpt>
      <trkpt lat="45.65064" lon="5.23784">
        <ele>287</ele>
        <time>2025-05-18T11:51:22Z</time>
      </trkpt>
      <trkpt lat="45.65066" lon="5.23785">
        <ele>287</ele>
        <time>2025-05-18T11:51:23Z</time>
      </trkpt>
      <trkpt lat="45.65068" lon="5.23785">
        <ele>287.2</ele>
        <time>2025-05-18T11:51:24Z</time>
      </trkpt>
      <trkpt lat="45.6507" lon="5.23785">
        <ele>287.2</ele>
        <time>2025-05-18T11:51:25Z</time>
      </trkpt>
      <trkpt lat="45.65073" lon="5.23785">
        <ele>287.2</ele>
        <time>2025-05-18T11:51:26Z</time>
      </trkpt>
      <trkpt lat="45.65074" lon="5.23786">
        <ele>287.6</ele>
        <time>2025-05-18T11:51:27Z</time>
      </trkpt>
      <trkpt lat="45.65076" lon="5.23786">
        <ele>287.6</ele>
        <time>2025-05-18T11:51:28Z</time>
      </trkpt>
      <trkpt lat="45.65078" lon="5.23787">
        <ele>287.8</ele>
        <time>2025-05-18T11:51:29Z</time>
      </trkpt>
      <trkpt lat="45.65079" lon="5.23788">
        <ele>287.8</ele>
        <time>2025-05-18T11:51:30Z</time>
      </trkpt>
      <trkpt lat="45.65081" lon="5.23788">
        <ele>287.8</ele>
        <time>2025-05-18T11:51:31Z</time>
      </trkpt>
      <trkpt lat="45.65083" lon="5.23789">
        <ele>287.8</ele>
        <time>2025-05-18T11:51:32Z</time>
      </trkpt>
      <trkpt lat="45.65084" lon="5.2379">
        <ele>288.2</ele>
        <time>2025-05-18T11:51:33Z</time>
      </trkpt>
      <trkpt lat="45.65085" lon="5.23791">
        <ele>288.2</ele>
        <time>2025-05-18T11:51:34Z</time>
      </trkpt>
      <trkpt lat="45.65085" lon="5.23791">
        <ele>288.2</ele>
        <time>2025-05-18T11:51:35Z</time>
      </trkpt>
      <trkpt lat="45.65087" lon="5.23792">
        <ele>288.4</ele>
        <time>2025-05-18T11:51:36Z</time>
      </trkpt>
      <trkpt lat="45.65089" lon="5.23793">
        <ele>288.4</ele>
        <time>2025-05-18T11:51:37Z</time>
      </trkpt>
      <trkpt lat="45.6509" lon="5.23793">
        <ele>288.8</ele>
        <time>2025-05-18T11:51:38Z</time>
      </trkpt>
      <trkpt lat="45.65092" lon="5.23794">
        <ele>288.8</ele>
        <time>2025-05-18T11:51:39Z</time>
      </trkpt>
      <trkpt lat="45.65093" lon="5.23795">
        <ele>289.2</ele>
        <time>2025-05-18T11:51:40Z</time>
      </trkpt>
      <trkpt lat="45.65095" lon="5.23796">
        <ele>289.2</ele>
        <time>2025-05-18T11:51:41Z</time>
      </trkpt>
      <trkpt lat="45.65097" lon="5.23797">
        <ele>289.6</ele>
        <time>2025-05-18T11:51:42Z</time>
      </trkpt>
      <trkpt lat="45.65099" lon="5.23799">
        <ele>289.6</ele>
        <time>2025-05-18T11:51:43Z</time>
      </trkpt>
      <trkpt lat="45.65101" lon="5.238">
        <ele>289.8</ele>
        <time>2025-05-18T11:51:44Z</time>
      </trkpt>
      <trkpt lat="45.65102" lon="5.23801">
        <ele>289.8</ele>
        <time>2025-05-18T11:51:45Z</time>
      </trkpt>
      <trkpt lat="45.65103" lon="5.23802">
        <ele>290.2</ele>
        <time>2025-05-18T11:51:46Z</time>
      </trkpt>
      <trkpt lat="45.65104" lon="5.23804">
        <ele>290.2</ele>
        <time>2025-05-18T11:51:47Z</time>
      </trkpt>
      <trkpt lat="45.65106" lon="5.23806">
        <ele>290.2</ele>
        <time>2025-05-18T11:51:48Z</time>
      </trkpt>
      <trkpt lat="45.65107" lon="5.23807">
        <ele>290.4</ele>
        <time>2025-05-18T11:51:49Z</time>
      </trkpt>
      <trkpt lat="45.65109" lon="5.23809">
        <ele>290.4</ele>
        <time>2025-05-18T11:51:50Z</time>
      </trkpt>
      <trkpt lat="45.6511" lon="5.2381">
        <ele>290.8</ele>
        <time>2025-05-18T11:51:51Z</time>
      </trkpt>
      <trkpt lat="45.65111" lon="5.23812">
        <ele>291</ele>
        <time>2025-05-18T11:51:52Z</time>
      </trkpt>
      <trkpt lat="45.65113" lon="5.23814">
        <ele>291</ele>
        <time>2025-05-18T11:51:53Z</time>
      </trkpt>
      <trkpt lat="45.65114" lon="5.23816">
        <ele>291.2</ele>
        <time>2025-05-18T11:51:54Z</time>
      </trkpt>
      <trkpt lat="45.65115" lon="5.23818">
        <ele>291.6</ele>
        <time>2025-05-18T11:51:55Z</time>
      </trkpt>
      <trkpt lat="45.65116" lon="5.2382">
        <ele>291.6</ele>
        <time>2025-05-18T11:51:56Z</time>
      </trkpt>
      <trkpt lat="45.65117" lon="5.23822">
        <ele>291.8</ele>
        <time>2025-05-18T11:51:57Z</time>
      </trkpt>
      <trkpt lat="45.65118" lon="5.23825">
        <ele>291.8</ele>
        <time>2025-05-18T11:51:58Z</time>
      </trkpt>
      <trkpt lat="45.65119" lon="5.23827">
        <ele>291.8</ele>
        <time>2025-05-18T11:51:59Z</time>
      </trkpt>
      <trkpt lat="45.6512" lon="5.23829">
        <ele>291.8</ele>
        <time>2025-05-18T11:52:00Z</time>
      </trkpt>
      <trkpt lat="45.65121" lon="5.23831">
        <ele>292</ele>
        <time>2025-05-18T11:52:01Z</time>
      </trkpt>
      <trkpt lat="45.65122" lon="5.23833">
        <ele>292</ele>
        <time>2025-05-18T11:52:02Z</time>
      </trkpt>
      <trkpt lat="45.65123" lon="5.23835">
        <ele>292.4</ele>
        <time>2025-05-18T11:52:03Z</time>
      </trkpt>
      <trkpt lat="45.65123" lon="5.23837">
        <ele>292.6</ele>
        <time>2025-05-18T11:52:04Z</time>
      </trkpt>
      <trkpt lat="45.65124" lon="5.2384">
        <ele>292.6</ele>
        <time>2025-05-18T11:52:05Z</time>
      </trkpt>
      <trkpt lat="45.65125" lon="5.23842">
        <ele>292.8</ele>
        <time>2025-05-18T11:52:06Z</time>
      </trkpt>
      <trkpt lat="45.65126" lon="5.23844">
        <ele>292.8</ele>
        <time>2025-05-18T11:52:07Z</time>
      </trkpt>
      <trkpt lat="45.65126" lon="5.23847">
        <ele>293.2</ele>
        <time>2025-05-18T11:52:08Z</time>
      </trkpt>
      <trkpt lat="45.65126" lon="5.23849">
        <ele>293.4</ele>
        <time>2025-05-18T11:52:09Z</time>
      </trkpt>
      <trkpt lat="45.65127" lon="5.23852">
        <ele>293.4</ele>
        <time>2025-05-18T11:52:10Z</time>
      </trkpt>
      <trkpt lat="45.65128" lon="5.23854">
        <ele>293.8</ele>
        <time>2025-05-18T11:52:11Z</time>
      </trkpt>
      <trkpt lat="45.65128" lon="5.23857">
        <ele>294</ele>
        <time>2025-05-18T11:52:12Z</time>
      </trkpt>
      <trkpt lat="45.65129" lon="5.23859">
        <ele>294.2</ele>
        <time>2025-05-18T11:52:13Z</time>
      </trkpt>
      <trkpt lat="45.65129" lon="5.23861">
        <ele>294.6</ele>
        <time>2025-05-18T11:52:14Z</time>
      </trkpt>
      <trkpt lat="45.6513" lon="5.23863">
        <ele>294.6</ele>
        <time>2025-05-18T11:52:15Z</time>
      </trkpt>
      <trkpt lat="45.6513" lon="5.23865">
        <ele>294.6</ele>
        <time>2025-05-18T11:52:16Z</time>
      </trkpt>
      <trkpt lat="45.65131" lon="5.23868">
        <ele>295</ele>
        <time>2025-05-18T11:52:17Z</time>
      </trkpt>
      <trkpt lat="45.65131" lon="5.2387">
        <ele>295.2</ele>
        <time>2025-05-18T11:52:18Z</time>
      </trkpt>
      <trkpt lat="45.65131" lon="5.23872">
        <ele>295.4</ele>
        <time>2025-05-18T11:52:19Z</time>
      </trkpt>
      <trkpt lat="45.65132" lon="5.23874">
        <ele>295.4</ele>
        <time>2025-05-18T11:52:20Z</time>
      </trkpt>
      <trkpt lat="45.65132" lon="5.23876">
        <ele>295.4</ele>
        <time>2025-05-18T11:52:21Z</time>
      </trkpt>
      <trkpt lat="45.65132" lon="5.23878">
        <ele>295.8</ele>
        <time>2025-05-18T11:52:22Z</time>
      </trkpt>
      <trkpt lat="45.65132" lon="5.2388">
        <ele>295.8</ele>
        <time>2025-05-18T11:52:23Z</time>
      </trkpt>
      <trkpt lat="45.65132" lon="5.23882">
        <ele>296</ele>
        <time>2025-05-18T11:52:24Z</time>
      </trkpt>
      <trkpt lat="45.65132" lon="5.23884">
        <ele>296.4</ele>
        <time>2025-05-18T11:52:25Z</time>
      </trkpt>
      <trkpt lat="45.65132" lon="5.23886">
        <ele>296.6</ele>
        <time>2025-05-18T11:52:26Z</time>
      </trkpt>
      <trkpt lat="45.65132" lon="5.23889">
        <ele>296.8</ele>
        <time>2025-05-18T11:52:27Z</time>
      </trkpt>
      <trkpt lat="45.65132" lon="5.23891">
        <ele>296.8</ele>
        <time>2025-05-18T11:52:28Z</time>
      </trkpt>
      <trkpt lat="45.65133" lon="5.23893">
        <ele>296.8</ele>
        <time>2025-05-18T11:52:29Z</time>
      </trkpt>
      <trkpt lat="45.65133" lon="5.23895">
        <ele>297</ele>
        <time>2025-05-18T11:52:30Z</time>
      </trkpt>
      <trkpt lat="45.65133" lon="5.23897">
        <ele>297.2</ele>
        <time>2025-05-18T11:52:31Z</time>
      </trkpt>
      <trkpt lat="45.65133" lon="5.239">
        <ele>297.2</ele>
        <time>2025-05-18T11:52:32Z</time>
      </trkpt>
      <trkpt lat="45.65133" lon="5.23901">
        <ele>297.6</ele>
        <time>2025-05-18T11:52:33Z</time>
      </trkpt>
      <trkpt lat="45.65132" lon="5.23903">
        <ele>297.6</ele>
        <time>2025-05-18T11:52:34Z</time>
      </trkpt>
      <trkpt lat="45.65132" lon="5.23905">
        <ele>298</ele>
        <time>2025-05-18T11:52:35Z</time>
      </trkpt>
      <trkpt lat="45.65132" lon="5.23908">
        <ele>298</ele>
        <time>2025-05-18T11:52:36Z</time>
      </trkpt>
      <trkpt lat="45.65132" lon="5.2391">
        <ele>298.2</ele>
        <time>2025-05-18T11:52:37Z</time>
      </trkpt>
      <trkpt lat="45.65132" lon="5.23911">
        <ele>298.4</ele>
        <time>2025-05-18T11:52:38Z</time>
      </trkpt>
      <trkpt lat="45.65132" lon="5.23913">
        <ele>298.4</ele>
        <time>2025-05-18T11:52:39Z</time>
      </trkpt>
      <trkpt lat="45.65132" lon="5.23915">
        <ele>298.8</ele>
        <time>2025-05-18T11:52:40Z</time>
      </trkpt>
      <trkpt lat="45.65133" lon="5.23917">
        <ele>298.8</ele>
        <time>2025-05-18T11:52:41Z</time>
      </trkpt>
      <trkpt lat="45.65133" lon="5.23919">
        <ele>299</ele>
        <time>2025-05-18T11:52:42Z</time>
      </trkpt>
      <trkpt lat="45.65133" lon="5.2392">
        <ele>299.4</ele>
        <time>2025-05-18T11:52:43Z</time>
      </trkpt>
      <trkpt lat="45.65133" lon="5.23922">
        <ele>299.6</ele>
        <time>2025-05-18T11:52:44Z</time>
      </trkpt>
      <trkpt lat="45.65133" lon="5.23924">
        <ele>300</ele>
        <time>2025-05-18T11:52:45Z</time>
      </trkpt>
      <trkpt lat="45.65133" lon="5.23926">
        <ele>300.2</ele>
        <time>2025-05-18T11:52:46Z</time>
      </trkpt>
      <trkpt lat="45.65133" lon="5.23929">
        <ele>300.2</ele>
        <time>2025-05-18T11:52:47Z</time>
      </trkpt>
      <trkpt lat="45.65133" lon="5.23931">
        <ele>300.4</ele>
        <time>2025-05-18T11:52:48Z</time>
      </trkpt>
      <trkpt lat="45.65133" lon="5.23933">
        <ele>300</ele>
        <time>2025-05-18T11:52:49Z</time>
      </trkpt>
      <trkpt lat="45.65133" lon="5.23935">
        <ele>300.8</ele>
        <time>2025-05-18T11:52:50Z</time>
      </trkpt>
      <trkpt lat="45.65132" lon="5.23937">
        <ele>300.8</ele>
        <time>2025-05-18T11:52:51Z</time>
      </trkpt>
      <trkpt lat="45.65132" lon="5.23939">
        <ele>300.8</ele>
        <time>2025-05-18T11:52:52Z</time>
      </trkpt>
      <trkpt lat="45.65131" lon="5.23941">
        <ele>300.8</ele>
        <time>2025-05-18T11:52:53Z</time>
      </trkpt>
      <trkpt lat="45.65131" lon="5.23942">
        <ele>301</ele>
        <time>2025-05-18T11:52:54Z</time>
      </trkpt>
      <trkpt lat="45.65131" lon="5.23944">
        <ele>301.2</ele>
        <time>2025-05-18T11:52:55Z</time>
      </trkpt>
      <trkpt lat="45.6513" lon="5.23946">
        <ele>301.2</ele>
        <time>2025-05-18T11:52:56Z</time>
      </trkpt>
      <trkpt lat="45.65131" lon="5.23949">
        <ele>301.6</ele>
        <time>2025-05-18T11:52:57Z</time>
      </trkpt>
      <trkpt lat="45.65131" lon="5.23952">
        <ele>301.6</ele>
        <time>2025-05-18T11:52:58Z</time>
      </trkpt>
      <trkpt lat="45.65131" lon="5.23954">
        <ele>301.8</ele>
        <time>2025-05-18T11:52:59Z</time>
      </trkpt>
      <trkpt lat="45.65132" lon="5.23956">
        <ele>301.8</ele>
        <time>2025-05-18T11:53:00Z</time>
      </trkpt>
      <trkpt lat="45.65134" lon="5.23958">
        <ele>302.2</ele>
        <time>2025-05-18T11:53:01Z</time>
      </trkpt>
      <trkpt lat="45.65135" lon="5.2396">
        <ele>302.2</ele>
        <time>2025-05-18T11:53:02Z</time>
      </trkpt>
      <trkpt lat="45.65136" lon="5.23962">
        <ele>302.6</ele>
        <time>2025-05-18T11:53:03Z</time>
      </trkpt>
      <trkpt lat="45.65136" lon="5.23964">
        <ele>302.6</ele>
        <time>2025-05-18T11:53:04Z</time>
      </trkpt>
      <trkpt lat="45.65138" lon="5.23966">
        <ele>303</ele>
        <time>2025-05-18T11:53:05Z</time>
      </trkpt>
      <trkpt lat="45.65139" lon="5.23967">
        <ele>303</ele>
        <time>2025-05-18T11:53:06Z</time>
      </trkpt>
      <trkpt lat="45.6514" lon="5.23969">
        <ele>303.6</ele>
        <time>2025-05-18T11:53:07Z</time>
      </trkpt>
      <trkpt lat="45.65141" lon="5.2397">
        <ele>303.6</ele>
        <time>2025-05-18T11:53:08Z</time>
      </trkpt>
      <trkpt lat="45.65142" lon="5.23972">
        <ele>303.8</ele>
        <time>2025-05-18T11:53:09Z</time>
      </trkpt>
      <trkpt lat="45.65143" lon="5.23974">
        <ele>303.8</ele>
        <time>2025-05-18T11:53:10Z</time>
      </trkpt>
      <trkpt lat="45.65143" lon="5.23976">
        <ele>304</ele>
        <time>2025-05-18T11:53:11Z</time>
      </trkpt>
      <trkpt lat="45.65144" lon="5.23978">
        <ele>304</ele>
        <time>2025-05-18T11:53:12Z</time>
      </trkpt>
      <trkpt lat="45.65144" lon="5.23981">
        <ele>304.4</ele>
        <time>2025-05-18T11:53:13Z</time>
      </trkpt>
      <trkpt lat="45.65145" lon="5.23983">
        <ele>304.4</ele>
        <time>2025-05-18T11:53:14Z</time>
      </trkpt>
      <trkpt lat="45.65145" lon="5.23985">
        <ele>304.4</ele>
        <time>2025-05-18T11:53:15Z</time>
      </trkpt>
      <trkpt lat="45.65146" lon="5.23988">
        <ele>304.6</ele>
        <time>2025-05-18T11:53:16Z</time>
      </trkpt>
      <trkpt lat="45.65146" lon="5.23991">
        <ele>304.6</ele>
        <time>2025-05-18T11:53:17Z</time>
      </trkpt>
      <trkpt lat="45.65147" lon="5.23993">
        <ele>304.6</ele>
        <time>2025-05-18T11:53:18Z</time>
      </trkpt>
      <trkpt lat="45.65147" lon="5.23996">
        <ele>304.8</ele>
        <time>2025-05-18T11:53:19Z</time>
      </trkpt>
      <trkpt lat="45.65148" lon="5.23998">
        <ele>304.8</ele>
        <time>2025-05-18T11:53:20Z</time>
      </trkpt>
      <trkpt lat="45.65148" lon="5.24001">
        <ele>305.2</ele>
        <time>2025-05-18T11:53:21Z</time>
      </trkpt>
      <trkpt lat="45.65149" lon="5.24004">
        <ele>305.2</ele>
        <time>2025-05-18T11:53:22Z</time>
      </trkpt>
      <trkpt lat="45.6515" lon="5.24006">
        <ele>305.4</ele>
        <time>2025-05-18T11:53:23Z</time>
      </trkpt>
      <trkpt lat="45.65151" lon="5.24009">
        <ele>305.6</ele>
        <time>2025-05-18T11:53:24Z</time>
      </trkpt>
      <trkpt lat="45.65153" lon="5.24011">
        <ele>305.6</ele>
        <time>2025-05-18T11:53:25Z</time>
      </trkpt>
      <trkpt lat="45.65154" lon="5.24012">
        <ele>305.8</ele>
        <time>2025-05-18T11:53:26Z</time>
      </trkpt>
      <trkpt lat="45.65156" lon="5.24014">
        <ele>305.8</ele>
        <time>2025-05-18T11:53:27Z</time>
      </trkpt>
      <trkpt lat="45.65157" lon="5.24016">
        <ele>306.2</ele>
        <time>2025-05-18T11:53:28Z</time>
      </trkpt>
      <trkpt lat="45.65159" lon="5.24018">
        <ele>306.4</ele>
        <time>2025-05-18T11:53:29Z</time>
      </trkpt>
      <trkpt lat="45.6516" lon="5.24021">
        <ele>306.8</ele>
        <time>2025-05-18T11:53:30Z</time>
      </trkpt>
      <trkpt lat="45.65161" lon="5.24024">
        <ele>307</ele>
        <time>2025-05-18T11:53:31Z</time>
      </trkpt>
      <trkpt lat="45.65162" lon="5.24026">
        <ele>307.4</ele>
        <time>2025-05-18T11:53:32Z</time>
      </trkpt>
      <trkpt lat="45.65162" lon="5.24029">
        <ele>307.4</ele>
        <time>2025-05-18T11:53:33Z</time>
      </trkpt>
      <trkpt lat="45.65163" lon="5.24032">
        <ele>307.4</ele>
        <time>2025-05-18T11:53:34Z</time>
      </trkpt>
      <trkpt lat="45.65165" lon="5.24034">
        <ele>307.4</ele>
        <time>2025-05-18T11:53:35Z</time>
      </trkpt>
      <trkpt lat="45.65166" lon="5.24037">
        <ele>307.8</ele>
        <time>2025-05-18T11:53:36Z</time>
      </trkpt>
      <trkpt lat="45.65167" lon="5.2404">
        <ele>308</ele>
        <time>2025-05-18T11:53:37Z</time>
      </trkpt>
      <trkpt lat="45.65168" lon="5.24042">
        <ele>308</ele>
        <time>2025-05-18T11:53:38Z</time>
      </trkpt>
      <trkpt lat="45.65169" lon="5.24045">
        <ele>308.2</ele>
        <time>2025-05-18T11:53:39Z</time>
      </trkpt>
      <trkpt lat="45.6517" lon="5.24048">
        <ele>308.2</ele>
        <time>2025-05-18T11:53:40Z</time>
      </trkpt>
      <trkpt lat="45.65172" lon="5.24051">
        <ele>308.2</ele>
        <time>2025-05-18T11:53:41Z</time>
      </trkpt>
      <trkpt lat="45.65172" lon="5.24053">
        <ele>308.6</ele>
        <time>2025-05-18T11:53:42Z</time>
      </trkpt>
      <trkpt lat="45.65173" lon="5.24056">
        <ele>308.6</ele>
        <time>2025-05-18T11:53:43Z</time>
      </trkpt>
      <trkpt lat="45.65174" lon="5.24059">
        <ele>308.8</ele>
        <time>2025-05-18T11:53:44Z</time>
      </trkpt>
      <trkpt lat="45.65175" lon="5.24062">
        <ele>308.8</ele>
        <time>2025-05-18T11:53:45Z</time>
      </trkpt>
      <trkpt lat="45.65176" lon="5.24065">
        <ele>309.2</ele>
        <time>2025-05-18T11:53:46Z</time>
      </trkpt>
      <trkpt lat="45.65177" lon="5.24068">
        <ele>309.4</ele>
        <time>2025-05-18T11:53:47Z</time>
      </trkpt>
      <trkpt lat="45.65177" lon="5.2407">
        <ele>309.4</ele>
        <time>2025-05-18T11:53:48Z</time>
      </trkpt>
      <trkpt lat="45.65178" lon="5.24073">
        <ele>309.6</ele>
        <time>2025-05-18T11:53:49Z</time>
      </trkpt>
      <trkpt lat="45.65179" lon="5.24076">
        <ele>309.6</ele>
        <time>2025-05-18T11:53:50Z</time>
      </trkpt>
      <trkpt lat="45.6518" lon="5.24078">
        <ele>309.6</ele>
        <time>2025-05-18T11:53:51Z</time>
      </trkpt>
      <trkpt lat="45.65182" lon="5.24081">
        <ele>309.6</ele>
        <time>2025-05-18T11:53:52Z</time>
      </trkpt>
      <trkpt lat="45.65183" lon="5.24083">
        <ele>309.6</ele>
        <time>2025-05-18T11:53:53Z</time>
      </trkpt>
      <trkpt lat="45.65184" lon="5.24086">
        <ele>309.8</ele>
        <time>2025-05-18T11:53:54Z</time>
      </trkpt>
      <trkpt lat="45.65185" lon="5.24088">
        <ele>309.8</ele>
        <time>2025-05-18T11:53:55Z</time>
      </trkpt>
      <trkpt lat="45.65186" lon="5.24091">
        <ele>309.8</ele>
        <time>2025-05-18T11:53:56Z</time>
      </trkpt>
      <trkpt lat="45.65186" lon="5.24093">
        <ele>310.2</ele>
        <time>2025-05-18T11:53:57Z</time>
      </trkpt>
      <trkpt lat="45.65188" lon="5.24096">
        <ele>310.2</ele>
        <time>2025-05-18T11:53:58Z</time>
      </trkpt>
      <trkpt lat="45.65188" lon="5.24099">
        <ele>310.2</ele>
        <time>2025-05-18T11:53:59Z</time>
      </trkpt>
      <trkpt lat="45.65189" lon="5.24103">
        <ele>310.6</ele>
        <time>2025-05-18T11:54:00Z</time>
      </trkpt>
      <trkpt lat="45.6519" lon="5.24106">
        <ele>310.6</ele>
        <time>2025-05-18T11:54:01Z</time>
      </trkpt>
      <trkpt lat="45.65191" lon="5.24109">
        <ele>310.6</ele>
        <time>2025-05-18T11:54:02Z</time>
      </trkpt>
      <trkpt lat="45.65193" lon="5.24112">
        <ele>310.6</ele>
        <time>2025-05-18T11:54:03Z</time>
      </trkpt>
      <trkpt lat="45.65194" lon="5.24116">
        <ele>310.6</ele>
        <time>2025-05-18T11:54:04Z</time>
      </trkpt>
      <trkpt lat="45.65195" lon="5.24119">
        <ele>310.8</ele>
        <time>2025-05-18T11:54:05Z</time>
      </trkpt>
      <trkpt lat="45.65196" lon="5.24122">
        <ele>310.8</ele>
        <time>2025-05-18T11:54:06Z</time>
      </trkpt>
      <trkpt lat="45.65198" lon="5.24126">
        <ele>310.8</ele>
        <time>2025-05-18T11:54:07Z</time>
      </trkpt>
      <trkpt lat="45.65199" lon="5.24129">
        <ele>310.8</ele>
        <time>2025-05-18T11:54:08Z</time>
      </trkpt>
      <trkpt lat="45.652" lon="5.24133">
        <ele>310.8</ele>
        <time>2025-05-18T11:54:09Z</time>
      </trkpt>
      <trkpt lat="45.65201" lon="5.24137">
        <ele>311.2</ele>
        <time>2025-05-18T11:54:10Z</time>
      </trkpt>
      <trkpt lat="45.65202" lon="5.24141">
        <ele>311.2</ele>
        <time>2025-05-18T11:54:11Z</time>
      </trkpt>
      <trkpt lat="45.65202" lon="5.24145">
        <ele>311.2</ele>
        <time>2025-05-18T11:54:12Z</time>
      </trkpt>
      <trkpt lat="45.65204" lon="5.24148">
        <ele>311.2</ele>
        <time>2025-05-18T11:54:13Z</time>
      </trkpt>
      <trkpt lat="45.65206" lon="5.24155">
        <ele>311.2</ele>
        <time>2025-05-18T11:54:14Z</time>
      </trkpt>
      <trkpt lat="45.65208" lon="5.24159">
        <ele>311.4</ele>
        <time>2025-05-18T11:54:15Z</time>
      </trkpt>
      <trkpt lat="45.65209" lon="5.24162">
        <ele>311.4</ele>
        <time>2025-05-18T11:54:16Z</time>
      </trkpt>
      <trkpt lat="45.6521" lon="5.24166">
        <ele>311.8</ele>
        <time>2025-05-18T11:54:17Z</time>
      </trkpt>
      <trkpt lat="45.65211" lon="5.24169">
        <ele>311.8</ele>
        <time>2025-05-18T11:54:18Z</time>
      </trkpt>
      <trkpt lat="45.65211" lon="5.24173">
        <ele>312</ele>
        <time>2025-05-18T11:54:19Z</time>
      </trkpt>
      <trkpt lat="45.65212" lon="5.24176">
        <ele>312</ele>
        <time>2025-05-18T11:54:20Z</time>
      </trkpt>
      <trkpt lat="45.65213" lon="5.2418">
        <ele>312</ele>
        <time>2025-05-18T11:54:21Z</time>
      </trkpt>
      <trkpt lat="45.65214" lon="5.24184">
        <ele>312</ele>
        <time>2025-05-18T11:54:22Z</time>
      </trkpt>
      <trkpt lat="45.65215" lon="5.24187">
        <ele>312</ele>
        <time>2025-05-18T11:54:23Z</time>
      </trkpt>
      <trkpt lat="45.65216" lon="5.24191">
        <ele>312</ele>
        <time>2025-05-18T11:54:24Z</time>
      </trkpt>
      <trkpt lat="45.65218" lon="5.24195">
        <ele>312</ele>
        <time>2025-05-18T11:54:25Z</time>
      </trkpt>
      <trkpt lat="45.65219" lon="5.24198">
        <ele>312</ele>
        <time>2025-05-18T11:54:26Z</time>
      </trkpt>
      <trkpt lat="45.65221" lon="5.24201">
        <ele>312.2</ele>
        <time>2025-05-18T11:54:27Z</time>
      </trkpt>
      <trkpt lat="45.65222" lon="5.24205">
        <ele>312.2</ele>
        <time>2025-05-18T11:54:28Z</time>
      </trkpt>
      <trkpt lat="45.65224" lon="5.24208">
        <ele>312.2</ele>
        <time>2025-05-18T11:54:29Z</time>
      </trkpt>
      <trkpt lat="45.65225" lon="5.24211">
        <ele>312.2</ele>
        <time>2025-05-18T11:54:30Z</time>
      </trkpt>
      <trkpt lat="45.65226" lon="5.24215">
        <ele>312.6</ele>
        <time>2025-05-18T11:54:31Z</time>
      </trkpt>
      <trkpt lat="45.65228" lon="5.24218">
        <ele>312.8</ele>
        <time>2025-05-18T11:54:32Z</time>
      </trkpt>
      <trkpt lat="45.65229" lon="5.24221">
        <ele>313.2</ele>
        <time>2025-05-18T11:54:33Z</time>
      </trkpt>
      <trkpt lat="45.65231" lon="5.24224">
        <ele>313.4</ele>
        <time>2025-05-18T11:54:34Z</time>
      </trkpt>
      <trkpt lat="45.65233" lon="5.24227">
        <ele>313.4</ele>
        <time>2025-05-18T11:54:35Z</time>
      </trkpt>
      <trkpt lat="45.65234" lon="5.2423">
        <ele>313.4</ele>
        <time>2025-05-18T11:54:36Z</time>
      </trkpt>
      <trkpt lat="45.65236" lon="5.24234">
        <ele>313.4</ele>
        <time>2025-05-18T11:54:37Z</time>
      </trkpt>
      <trkpt lat="45.65238" lon="5.24238">
        <ele>313.6</ele>
        <time>2025-05-18T11:54:38Z</time>
      </trkpt>
      <trkpt lat="45.6524" lon="5.24242">
        <ele>313.6</ele>
        <time>2025-05-18T11:54:39Z</time>
      </trkpt>
      <trkpt lat="45.65242" lon="5.24246">
        <ele>313.4</ele>
        <time>2025-05-18T11:54:40Z</time>
      </trkpt>
      <trkpt lat="45.65244" lon="5.2425">
        <ele>312</ele>
        <time>2025-05-18T11:54:41Z</time>
      </trkpt>
      <trkpt lat="45.65245" lon="5.24255">
        <ele>312.4</ele>
        <time>2025-05-18T11:54:42Z</time>
      </trkpt>
      <trkpt lat="45.65247" lon="5.2426">
        <ele>312.8</ele>
        <time>2025-05-18T11:54:43Z</time>
      </trkpt>
      <trkpt lat="45.65248" lon="5.24265">
        <ele>312.8</ele>
        <time>2025-05-18T11:54:44Z</time>
      </trkpt>
      <trkpt lat="45.6525" lon="5.24269">
        <ele>313.8</ele>
        <time>2025-05-18T11:54:45Z</time>
      </trkpt>
      <trkpt lat="45.65252" lon="5.24274">
        <ele>313.8</ele>
        <time>2025-05-18T11:54:46Z</time>
      </trkpt>
      <trkpt lat="45.65254" lon="5.24278">
        <ele>313</ele>
        <time>2025-05-18T11:54:47Z</time>
      </trkpt>
      <trkpt lat="45.65256" lon="5.24283">
        <ele>313</ele>
        <time>2025-05-18T11:54:48Z</time>
      </trkpt>
      <trkpt lat="45.65257" lon="5.24289">
        <ele>312.8</ele>
        <time>2025-05-18T11:54:49Z</time>
      </trkpt>
      <trkpt lat="45.65258" lon="5.24294">
        <ele>313.2</ele>
        <time>2025-05-18T11:54:50Z</time>
      </trkpt>
      <trkpt lat="45.65259" lon="5.243">
        <ele>313.2</ele>
        <time>2025-05-18T11:54:51Z</time>
      </trkpt>
      <trkpt lat="45.65261" lon="5.24305">
        <ele>312.8</ele>
        <time>2025-05-18T11:54:52Z</time>
      </trkpt>
      <trkpt lat="45.65263" lon="5.2431">
        <ele>313</ele>
        <time>2025-05-18T11:54:53Z</time>
      </trkpt>
      <trkpt lat="45.65264" lon="5.24316">
        <ele>313.6</ele>
        <time>2025-05-18T11:54:54Z</time>
      </trkpt>
      <trkpt lat="45.65265" lon="5.24322">
        <ele>313.2</ele>
        <time>2025-05-18T11:54:55Z</time>
      </trkpt>
      <trkpt lat="45.65267" lon="5.24328">
        <ele>312.8</ele>
        <time>2025-05-18T11:54:56Z</time>
      </trkpt>
      <trkpt lat="45.65268" lon="5.24334">
        <ele>312</ele>
        <time>2025-05-18T11:54:57Z</time>
      </trkpt>
      <trkpt lat="45.6527" lon="5.24341">
        <ele>312.8</ele>
        <time>2025-05-18T11:54:58Z</time>
      </trkpt>
      <trkpt lat="45.65272" lon="5.24347">
        <ele>313.4</ele>
        <time>2025-05-18T11:54:59Z</time>
      </trkpt>
      <trkpt lat="45.65274" lon="5.24352">
        <ele>313.6</ele>
        <time>2025-05-18T11:55:00Z</time>
      </trkpt>
      <trkpt lat="45.65276" lon="5.24358">
        <ele>314.2</ele>
        <time>2025-05-18T11:55:01Z</time>
      </trkpt>
      <trkpt lat="45.65278" lon="5.24364">
        <ele>314.2</ele>
        <time>2025-05-18T11:55:02Z</time>
      </trkpt>
      <trkpt lat="45.6528" lon="5.24369">
        <ele>313.8</ele>
        <time>2025-05-18T11:55:03Z</time>
      </trkpt>
      <trkpt lat="45.65282" lon="5.24375">
        <ele>312.6</ele>
        <time>2025-05-18T11:55:04Z</time>
      </trkpt>
      <trkpt lat="45.65285" lon="5.24381">
        <ele>312.8</ele>
        <time>2025-05-18T11:55:05Z</time>
      </trkpt>
      <trkpt lat="45.65288" lon="5.24386">
        <ele>312.8</ele>
        <time>2025-05-18T11:55:06Z</time>
      </trkpt>
      <trkpt lat="45.65291" lon="5.24392">
        <ele>312.6</ele>
        <time>2025-05-18T11:55:07Z</time>
      </trkpt>
      <trkpt lat="45.65294" lon="5.24398">
        <ele>314.2</ele>
        <time>2025-05-18T11:55:08Z</time>
      </trkpt>
      <trkpt lat="45.65296" lon="5.24404">
        <ele>314.2</ele>
        <time>2025-05-18T11:55:09Z</time>
      </trkpt>
      <trkpt lat="45.653" lon="5.24409">
        <ele>315</ele>
        <time>2025-05-18T11:55:10Z</time>
      </trkpt>
      <trkpt lat="45.65302" lon="5.24414">
        <ele>315.4</ele>
        <time>2025-05-18T11:55:11Z</time>
      </trkpt>
      <trkpt lat="45.65304" lon="5.2442">
        <ele>315</ele>
        <time>2025-05-18T11:55:12Z</time>
      </trkpt>
      <trkpt lat="45.65307" lon="5.24425">
        <ele>315</ele>
        <time>2025-05-18T11:55:13Z</time>
      </trkpt>
      <trkpt lat="45.6531" lon="5.24431">
        <ele>315.4</ele>
        <time>2025-05-18T11:55:14Z</time>
      </trkpt>
      <trkpt lat="45.65312" lon="5.24437">
        <ele>314.2</ele>
        <time>2025-05-18T11:55:15Z</time>
      </trkpt>
      <trkpt lat="45.65315" lon="5.24443">
        <ele>314.2</ele>
        <time>2025-05-18T11:55:16Z</time>
      </trkpt>
      <trkpt lat="45.65318" lon="5.24449">
        <ele>314.2</ele>
        <time>2025-05-18T11:55:17Z</time>
      </trkpt>
      <trkpt lat="45.65321" lon="5.24454">
        <ele>313</ele>
        <time>2025-05-18T11:55:18Z</time>
      </trkpt>
      <trkpt lat="45.65323" lon="5.24461">
        <ele>313</ele>
        <time>2025-05-18T11:55:19Z</time>
      </trkpt>
      <trkpt lat="45.65326" lon="5.24466">
        <ele>314.2</ele>
        <time>2025-05-18T11:55:20Z</time>
      </trkpt>
      <trkpt lat="45.65328" lon="5.24473">
        <ele>314.4</ele>
        <time>2025-05-18T11:55:21Z</time>
      </trkpt>
      <trkpt lat="45.65329" lon="5.24479">
        <ele>313.6</ele>
        <time>2025-05-18T11:55:22Z</time>
      </trkpt>
      <trkpt lat="45.65331" lon="5.24485">
        <ele>313.6</ele>
        <time>2025-05-18T11:55:23Z</time>
      </trkpt>
      <trkpt lat="45.65333" lon="5.24491">
        <ele>313.4</ele>
        <time>2025-05-18T11:55:24Z</time>
      </trkpt>
      <trkpt lat="45.65335" lon="5.24497">
        <ele>312.4</ele>
        <time>2025-05-18T11:55:25Z</time>
      </trkpt>
      <trkpt lat="45.65337" lon="5.24504">
        <ele>312</ele>
        <time>2025-05-18T11:55:26Z</time>
      </trkpt>
      <trkpt lat="45.65339" lon="5.24511">
        <ele>313</ele>
        <time>2025-05-18T11:55:27Z</time>
      </trkpt>
      <trkpt lat="45.65342" lon="5.24518">
        <ele>313</ele>
        <time>2025-05-18T11:55:28Z</time>
      </trkpt>
      <trkpt lat="45.65346" lon="5.24525">
        <ele>312.4</ele>
        <time>2025-05-18T11:55:29Z</time>
      </trkpt>
      <trkpt lat="45.65349" lon="5.24532">
        <ele>312.2</ele>
        <time>2025-05-18T11:55:30Z</time>
      </trkpt>
      <trkpt lat="45.65351" lon="5.24539">
        <ele>312.8</ele>
        <time>2025-05-18T11:55:31Z</time>
      </trkpt>
      <trkpt lat="45.65354" lon="5.24545">
        <ele>312.8</ele>
        <time>2025-05-18T11:55:32Z</time>
      </trkpt>
      <trkpt lat="45.65357" lon="5.24553">
        <ele>312.8</ele>
        <time>2025-05-18T11:55:33Z</time>
      </trkpt>
      <trkpt lat="45.6536" lon="5.24559">
        <ele>312.2</ele>
        <time>2025-05-18T11:55:34Z</time>
      </trkpt>
      <trkpt lat="45.65363" lon="5.24565">
        <ele>312.2</ele>
        <time>2025-05-18T11:55:35Z</time>
      </trkpt>
      <trkpt lat="45.65367" lon="5.24572">
        <ele>312</ele>
        <time>2025-05-18T11:55:36Z</time>
      </trkpt>
      <trkpt lat="45.65369" lon="5.24581">
        <ele>312</ele>
        <time>2025-05-18T11:55:37Z</time>
      </trkpt>
      <trkpt lat="45.65373" lon="5.24588">
        <ele>312</ele>
        <time>2025-05-18T11:55:38Z</time>
      </trkpt>
      <trkpt lat="45.65376" lon="5.24594">
        <ele>311.6</ele>
        <time>2025-05-18T11:55:39Z</time>
      </trkpt>
      <trkpt lat="45.6538" lon="5.24601">
        <ele>312.8</ele>
        <time>2025-05-18T11:55:40Z</time>
      </trkpt>
      <trkpt lat="45.65383" lon="5.24608">
        <ele>313.4</ele>
        <time>2025-05-18T11:55:41Z</time>
      </trkpt>
      <trkpt lat="45.65385" lon="5.24614">
        <ele>313.2</ele>
        <time>2025-05-18T11:55:42Z</time>
      </trkpt>
      <trkpt lat="45.65389" lon="5.24622">
        <ele>313.2</ele>
        <time>2025-05-18T11:55:43Z</time>
      </trkpt>
      <trkpt lat="45.65391" lon="5.24629">
        <ele>312.8</ele>
        <time>2025-05-18T11:55:44Z</time>
      </trkpt>
      <trkpt lat="45.65394" lon="5.24636">
        <ele>312.8</ele>
        <time>2025-05-18T11:55:45Z</time>
      </trkpt>
      <trkpt lat="45.65398" lon="5.24642">
        <ele>312.4</ele>
        <time>2025-05-18T11:55:46Z</time>
      </trkpt>
      <trkpt lat="45.65401" lon="5.24649">
        <ele>312.4</ele>
        <time>2025-05-18T11:55:47Z</time>
      </trkpt>
      <trkpt lat="45.65404" lon="5.24655">
        <ele>312.4</ele>
        <time>2025-05-18T11:55:48Z</time>
      </trkpt>
      <trkpt lat="45.65407" lon="5.24661">
        <ele>312.8</ele>
        <time>2025-05-18T11:55:49Z</time>
      </trkpt>
      <trkpt lat="45.6541" lon="5.24668">
        <ele>312.4</ele>
        <time>2025-05-18T11:55:50Z</time>
      </trkpt>
      <trkpt lat="45.65412" lon="5.24675">
        <ele>311.2</ele>
        <time>2025-05-18T11:55:51Z</time>
      </trkpt>
      <trkpt lat="45.65415" lon="5.24681">
        <ele>311</ele>
        <time>2025-05-18T11:55:52Z</time>
      </trkpt>
      <trkpt lat="45.65418" lon="5.24687">
        <ele>310.6</ele>
        <time>2025-05-18T11:55:53Z</time>
      </trkpt>
      <trkpt lat="45.65422" lon="5.24693">
        <ele>310</ele>
        <time>2025-05-18T11:55:54Z</time>
      </trkpt>
      <trkpt lat="45.65425" lon="5.24698">
        <ele>310</ele>
        <time>2025-05-18T11:55:55Z</time>
      </trkpt>
      <trkpt lat="45.65428" lon="5.24703">
        <ele>309.6</ele>
        <time>2025-05-18T11:55:56Z</time>
      </trkpt>
      <trkpt lat="45.65432" lon="5.24707">
        <ele>310</ele>
        <time>2025-05-18T11:55:57Z</time>
      </trkpt>
      <trkpt lat="45.65436" lon="5.2471">
        <ele>309.6</ele>
        <time>2025-05-18T11:55:58Z</time>
      </trkpt>
      <trkpt lat="45.6544" lon="5.24714">
        <ele>309.8</ele>
        <time>2025-05-18T11:55:59Z</time>
      </trkpt>
      <trkpt lat="45.65443" lon="5.24718">
        <ele>309</ele>
        <time>2025-05-18T11:56:00Z</time>
      </trkpt>
      <trkpt lat="45.65447" lon="5.24722">
        <ele>308.8</ele>
        <time>2025-05-18T11:56:01Z</time>
      </trkpt>
      <trkpt lat="45.65451" lon="5.24726">
        <ele>308.6</ele>
        <time>2025-05-18T11:56:02Z</time>
      </trkpt>
      <trkpt lat="45.65455" lon="5.24729">
        <ele>309.6</ele>
        <time>2025-05-18T11:56:03Z</time>
      </trkpt>
      <trkpt lat="45.65458" lon="5.24732">
        <ele>310.6</ele>
        <time>2025-05-18T11:56:04Z</time>
      </trkpt>
      <trkpt lat="45.65461" lon="5.24735">
        <ele>310.8</ele>
        <time>2025-05-18T11:56:05Z</time>
      </trkpt>
      <trkpt lat="45.65466" lon="5.24738">
        <ele>311.2</ele>
        <time>2025-05-18T11:56:06Z</time>
      </trkpt>
      <trkpt lat="45.6547" lon="5.2474">
        <ele>310.8</ele>
        <time>2025-05-18T11:56:07Z</time>
      </trkpt>
      <trkpt lat="45.65475" lon="5.24743">
        <ele>310.8</ele>
        <time>2025-05-18T11:56:08Z</time>
      </trkpt>
      <trkpt lat="45.65478" lon="5.24744">
        <ele>309.8</ele>
        <time>2025-05-18T11:56:09Z</time>
      </trkpt>
      <trkpt lat="45.65483" lon="5.24745">
        <ele>310.4</ele>
        <time>2025-05-18T11:56:10Z</time>
      </trkpt>
      <trkpt lat="45.65489" lon="5.24747">
        <ele>310.6</ele>
        <time>2025-05-18T11:56:11Z</time>
      </trkpt>
      <trkpt lat="45.65494" lon="5.24747">
        <ele>311.4</ele>
        <time>2025-05-18T11:56:12Z</time>
      </trkpt>
      <trkpt lat="45.65499" lon="5.24748">
        <ele>311.6</ele>
        <time>2025-05-18T11:56:13Z</time>
      </trkpt>
      <trkpt lat="45.65503" lon="5.24749">
        <ele>311.2</ele>
        <time>2025-05-18T11:56:14Z</time>
      </trkpt>
      <trkpt lat="45.65508" lon="5.24749">
        <ele>312.4</ele>
        <time>2025-05-18T11:56:15Z</time>
      </trkpt>
      <trkpt lat="45.65512" lon="5.24751">
        <ele>311</ele>
        <time>2025-05-18T11:56:16Z</time>
      </trkpt>
      <trkpt lat="45.65515" lon="5.24752">
        <ele>311</ele>
        <time>2025-05-18T11:56:17Z</time>
      </trkpt>
      <trkpt lat="45.65518" lon="5.24753">
        <ele>311</ele>
        <time>2025-05-18T11:56:18Z</time>
      </trkpt>
      <trkpt lat="45.65522" lon="5.24755">
        <ele>309.4</ele>
        <time>2025-05-18T11:56:19Z</time>
      </trkpt>
      <trkpt lat="45.65526" lon="5.24759">
        <ele>309</ele>
        <time>2025-05-18T11:56:20Z</time>
      </trkpt>
      <trkpt lat="45.65531" lon="5.24765">
        <ele>309.6</ele>
        <time>2025-05-18T11:56:21Z</time>
      </trkpt>
      <trkpt lat="45.65533" lon="5.24768">
        <ele>309</ele>
        <time>2025-05-18T11:56:22Z</time>
      </trkpt>
      <trkpt lat="45.65537" lon="5.24773">
        <ele>308.6</ele>
        <time>2025-05-18T11:56:23Z</time>
      </trkpt>
      <trkpt lat="45.65539" lon="5.24776">
        <ele>309.6</ele>
        <time>2025-05-18T11:56:24Z</time>
      </trkpt>
      <trkpt lat="45.65542" lon="5.24779">
        <ele>309.2</ele>
        <time>2025-05-18T11:56:25Z</time>
      </trkpt>
      <trkpt lat="45.65547" lon="5.24782">
        <ele>308.6</ele>
        <time>2025-05-18T11:56:26Z</time>
      </trkpt>
      <trkpt lat="45.65549" lon="5.24785">
        <ele>307.8</ele>
        <time>2025-05-18T11:56:27Z</time>
      </trkpt>
      <trkpt lat="45.65553" lon="5.24787">
        <ele>308</ele>
        <time>2025-05-18T11:56:28Z</time>
      </trkpt>
      <trkpt lat="45.65556" lon="5.24786">
        <ele>307</ele>
        <time>2025-05-18T11:56:29Z</time>
      </trkpt>
      <trkpt lat="45.65559" lon="5.24787">
        <ele>306.4</ele>
        <time>2025-05-18T11:56:30Z</time>
      </trkpt>
      <trkpt lat="45.65563" lon="5.24788">
        <ele>306.4</ele>
        <time>2025-05-18T11:56:31Z</time>
      </trkpt>
      <trkpt lat="45.65567" lon="5.24789">
        <ele>305.8</ele>
        <time>2025-05-18T11:56:32Z</time>
      </trkpt>
      <trkpt lat="45.65571" lon="5.2479">
        <ele>305.6</ele>
        <time>2025-05-18T11:56:33Z</time>
      </trkpt>
      <trkpt lat="45.65575" lon="5.24791">
        <ele>304.2</ele>
        <time>2025-05-18T11:56:34Z</time>
      </trkpt>
      <trkpt lat="45.65579" lon="5.24792">
        <ele>304.2</ele>
        <time>2025-05-18T11:56:35Z</time>
      </trkpt>
      <trkpt lat="45.65583" lon="5.24793">
        <ele>303.8</ele>
        <time>2025-05-18T11:56:36Z</time>
      </trkpt>
      <trkpt lat="45.65587" lon="5.24794">
        <ele>305.4</ele>
        <time>2025-05-18T11:56:37Z</time>
      </trkpt>
      <trkpt lat="45.65593" lon="5.24796">
        <ele>304</ele>
        <time>2025-05-18T11:56:38Z</time>
      </trkpt>
      <trkpt lat="45.65597" lon="5.24798">
        <ele>302.8</ele>
        <time>2025-05-18T11:56:39Z</time>
      </trkpt>
      <trkpt lat="45.65602" lon="5.24798">
        <ele>301.6</ele>
        <time>2025-05-18T11:56:40Z</time>
      </trkpt>
      <trkpt lat="45.65602" lon="5.24798">
        <ele>302.4</ele>
        <time>2025-05-18T11:56:41Z</time>
      </trkpt>
      <trkpt lat="45.65607" lon="5.24802">
        <ele>300.2</ele>
        <time>2025-05-18T11:56:42Z</time>
      </trkpt>
      <trkpt lat="45.65612" lon="5.24802">
        <ele>299.2</ele>
        <time>2025-05-18T11:56:43Z</time>
      </trkpt>
      <trkpt lat="45.65616" lon="5.24805">
        <ele>298.6</ele>
        <time>2025-05-18T11:56:44Z</time>
      </trkpt>
      <trkpt lat="45.6562" lon="5.24807">
        <ele>296.6</ele>
        <time>2025-05-18T11:56:45Z</time>
      </trkpt>
      <trkpt lat="45.65625" lon="5.24809">
        <ele>296.4</ele>
        <time>2025-05-18T11:56:46Z</time>
      </trkpt>
      <trkpt lat="45.65629" lon="5.24812">
        <ele>296</ele>
        <time>2025-05-18T11:56:47Z</time>
      </trkpt>
      <trkpt lat="45.65632" lon="5.24815">
        <ele>296</ele>
        <time>2025-05-18T11:56:48Z</time>
      </trkpt>
      <trkpt lat="45.65637" lon="5.24818">
        <ele>296.6</ele>
        <time>2025-05-18T11:56:49Z</time>
      </trkpt>
      <trkpt lat="45.65643" lon="5.24822">
        <ele>295.8</ele>
        <time>2025-05-18T11:56:50Z</time>
      </trkpt>
      <trkpt lat="45.65646" lon="5.24825">
        <ele>295.8</ele>
        <time>2025-05-18T11:56:51Z</time>
      </trkpt>
      <trkpt lat="45.65647" lon="5.24831">
        <ele>295</ele>
        <time>2025-05-18T11:56:52Z</time>
      </trkpt>
      <trkpt lat="45.65649" lon="5.24834">
        <ele>294.2</ele>
        <time>2025-05-18T11:56:53Z</time>
      </trkpt>
      <trkpt lat="45.65651" lon="5.24837">
        <ele>293.8</ele>
        <time>2025-05-18T11:56:54Z</time>
      </trkpt>
      <trkpt lat="45.65654" lon="5.2484">
        <ele>292.8</ele>
        <time>2025-05-18T11:56:55Z</time>
      </trkpt>
      <trkpt lat="45.65657" lon="5.24842">
        <ele>292</ele>
        <time>2025-05-18T11:56:56Z</time>
      </trkpt>
      <trkpt lat="45.65659" lon="5.24843">
        <ele>292.2</ele>
        <time>2025-05-18T11:56:57Z</time>
      </trkpt>
      <trkpt lat="45.65663" lon="5.24845">
        <ele>291</ele>
        <time>2025-05-18T11:56:58Z</time>
      </trkpt>
      <trkpt lat="45.65667" lon="5.24845">
        <ele>290.6</ele>
        <time>2025-05-18T11:56:59Z</time>
      </trkpt>
      <trkpt lat="45.65668" lon="5.24848">
        <ele>290.2</ele>
        <time>2025-05-18T11:57:00Z</time>
      </trkpt>
      <trkpt lat="45.6567" lon="5.24852">
        <ele>289.4</ele>
        <time>2025-05-18T11:57:01Z</time>
      </trkpt>
      <trkpt lat="45.65671" lon="5.24856">
        <ele>289.2</ele>
        <time>2025-05-18T11:57:02Z</time>
      </trkpt>
      <trkpt lat="45.65672" lon="5.24861">
        <ele>288.6</ele>
        <time>2025-05-18T11:57:03Z</time>
      </trkpt>
      <trkpt lat="45.65672" lon="5.24862">
        <ele>288.2</ele>
        <time>2025-05-18T11:57:04Z</time>
      </trkpt>
      <trkpt lat="45.65672" lon="5.24863">
        <ele>288</ele>
        <time>2025-05-18T11:57:05Z</time>
      </trkpt>
      <trkpt lat="45.65671" lon="5.24866">
        <ele>288</ele>
        <time>2025-05-18T11:57:06Z</time>
      </trkpt>
      <trkpt lat="45.6567" lon="5.24869">
        <ele>287.6</ele>
        <time>2025-05-18T11:57:07Z</time>
      </trkpt>
      <trkpt lat="45.65669" lon="5.24871">
        <ele>287.2</ele>
        <time>2025-05-18T11:57:08Z</time>
      </trkpt>
      <trkpt lat="45.65668" lon="5.24873">
        <ele>287.2</ele>
        <time>2025-05-18T11:57:09Z</time>
      </trkpt>
      <trkpt lat="45.65667" lon="5.24874">
        <ele>287</ele>
        <time>2025-05-18T11:57:10Z</time>
      </trkpt>
      <trkpt lat="45.65666" lon="5.24874">
        <ele>287</ele>
        <time>2025-05-18T11:57:11Z</time>
      </trkpt>
      <trkpt lat="45.65667" lon="5.24877">
        <ele>286.4</ele>
        <time>2025-05-18T11:57:49Z</time>
      </trkpt>
      <trkpt lat="45.65667" lon="5.24879">
        <ele>286.4</ele>
        <time>2025-05-18T11:57:50Z</time>
      </trkpt>
      <trkpt lat="45.65668" lon="5.24882">
        <ele>286.2</ele>
        <time>2025-05-18T11:57:51Z</time>
      </trkpt>
      <trkpt lat="45.65669" lon="5.24885">
        <ele>286.2</ele>
        <time>2025-05-18T11:57:52Z</time>
      </trkpt>
      <trkpt lat="45.65671" lon="5.24892">
        <ele>286.2</ele>
        <time>2025-05-18T11:57:53Z</time>
      </trkpt>
      <trkpt lat="45.65672" lon="5.24896">
        <ele>286.6</ele>
        <time>2025-05-18T11:57:54Z</time>
      </trkpt>
      <trkpt lat="45.65673" lon="5.24902">
        <ele>286</ele>
        <time>2025-05-18T11:57:55Z</time>
      </trkpt>
      <trkpt lat="45.65675" lon="5.24907">
        <ele>286.2</ele>
        <time>2025-05-18T11:57:56Z</time>
      </trkpt>
      <trkpt lat="45.65676" lon="5.24912">
        <ele>286.2</ele>
        <time>2025-05-18T11:57:57Z</time>
      </trkpt>
      <trkpt lat="45.65677" lon="5.24918">
        <ele>285.8</ele>
        <time>2025-05-18T11:57:58Z</time>
      </trkpt>
      <trkpt lat="45.65678" lon="5.24923">
        <ele>285.6</ele>
        <time>2025-05-18T11:57:59Z</time>
      </trkpt>
      <trkpt lat="45.65678" lon="5.24929">
        <ele>285.6</ele>
        <time>2025-05-18T11:58:00Z</time>
      </trkpt>
      <trkpt lat="45.6568" lon="5.24935">
        <ele>285.2</ele>
        <time>2025-05-18T11:58:01Z</time>
      </trkpt>
      <trkpt lat="45.6568" lon="5.2494">
        <ele>284.6</ele>
        <time>2025-05-18T11:58:02Z</time>
      </trkpt>
      <trkpt lat="45.65681" lon="5.24945">
        <ele>285.2</ele>
        <time>2025-05-18T11:58:03Z</time>
      </trkpt>
      <trkpt lat="45.65681" lon="5.2495">
        <ele>285.6</ele>
        <time>2025-05-18T11:58:04Z</time>
      </trkpt>
      <trkpt lat="45.65681" lon="5.24954">
        <ele>284.8</ele>
        <time>2025-05-18T11:58:05Z</time>
      </trkpt>
      <trkpt lat="45.65682" lon="5.24959">
        <ele>285.6</ele>
        <time>2025-05-18T11:58:06Z</time>
      </trkpt>
      <trkpt lat="45.65683" lon="5.24964">
        <ele>285.8</ele>
        <time>2025-05-18T11:58:07Z</time>
      </trkpt>
      <trkpt lat="45.65683" lon="5.24969">
        <ele>285.4</ele>
        <time>2025-05-18T11:58:08Z</time>
      </trkpt>
      <trkpt lat="45.65684" lon="5.24972">
        <ele>286.2</ele>
        <time>2025-05-18T11:58:09Z</time>
      </trkpt>
      <trkpt lat="45.65684" lon="5.24976">
        <ele>284.4</ele>
        <time>2025-05-18T11:58:10Z</time>
      </trkpt>
      <trkpt lat="45.65685" lon="5.2498">
        <ele>284.4</ele>
        <time>2025-05-18T11:58:11Z</time>
      </trkpt>
      <trkpt lat="45.65685" lon="5.24982">
        <ele>285.4</ele>
        <time>2025-05-18T11:58:12Z</time>
      </trkpt>
      <trkpt lat="45.65685" lon="5.24985">
        <ele>286.4</ele>
        <time>2025-05-18T11:58:13Z</time>
      </trkpt>
      <trkpt lat="45.65685" lon="5.24988">
        <ele>286.4</ele>
        <time>2025-05-18T11:58:14Z</time>
      </trkpt>
      <trkpt lat="45.65685" lon="5.2499">
        <ele>286.6</ele>
        <time>2025-05-18T11:58:15Z</time>
      </trkpt>
      <trkpt lat="45.65684" lon="5.24993">
        <ele>287.2</ele>
        <time>2025-05-18T11:58:16Z</time>
      </trkpt>
      <trkpt lat="45.65683" lon="5.24997">
        <ele>287.2</ele>
        <time>2025-05-18T11:58:17Z</time>
      </trkpt>
      <trkpt lat="45.65681" lon="5.24999">
        <ele>287.8</ele>
        <time>2025-05-18T11:58:18Z</time>
      </trkpt>
      <trkpt lat="45.6568" lon="5.25003">
        <ele>287.6</ele>
        <time>2025-05-18T11:58:19Z</time>
      </trkpt>
      <trkpt lat="45.65679" lon="5.25009">
        <ele>287.6</ele>
        <time>2025-05-18T11:58:20Z</time>
      </trkpt>
      <trkpt lat="45.65677" lon="5.25014">
        <ele>287.6</ele>
        <time>2025-05-18T11:58:21Z</time>
      </trkpt>
      <trkpt lat="45.65676" lon="5.25019">
        <ele>287.6</ele>
        <time>2025-05-18T11:58:22Z</time>
      </trkpt>
      <trkpt lat="45.65674" lon="5.25025">
        <ele>287.8</ele>
        <time>2025-05-18T11:58:23Z</time>
      </trkpt>
      <trkpt lat="45.65672" lon="5.25031">
        <ele>287.6</ele>
        <time>2025-05-18T11:58:24Z</time>
      </trkpt>
      <trkpt lat="45.65671" lon="5.25035">
        <ele>286.6</ele>
        <time>2025-05-18T11:58:25Z</time>
      </trkpt>
      <trkpt lat="45.6567" lon="5.25042">
        <ele>286.4</ele>
        <time>2025-05-18T11:58:26Z</time>
      </trkpt>
      <trkpt lat="45.65668" lon="5.25047">
        <ele>286.2</ele>
        <time>2025-05-18T11:58:27Z</time>
      </trkpt>
      <trkpt lat="45.65668" lon="5.25053">
        <ele>285.8</ele>
        <time>2025-05-18T11:58:28Z</time>
      </trkpt>
      <trkpt lat="45.65667" lon="5.25059">
        <ele>286.4</ele>
        <time>2025-05-18T11:58:29Z</time>
      </trkpt>
      <trkpt lat="45.65669" lon="5.25063">
        <ele>286.4</ele>
        <time>2025-05-18T11:58:30Z</time>
      </trkpt>
      <trkpt lat="45.65669" lon="5.25068">
        <ele>286.4</ele>
        <time>2025-05-18T11:58:31Z</time>
      </trkpt>
      <trkpt lat="45.65668" lon="5.25073">
        <ele>286.4</ele>
        <time>2025-05-18T11:58:32Z</time>
      </trkpt>
      <trkpt lat="45.65668" lon="5.25077">
        <ele>286.4</ele>
        <time>2025-05-18T11:58:33Z</time>
      </trkpt>
      <trkpt lat="45.65667" lon="5.25081">
        <ele>286.6</ele>
        <time>2025-05-18T11:58:34Z</time>
      </trkpt>
      <trkpt lat="45.65665" lon="5.25084">
        <ele>287.2</ele>
        <time>2025-05-18T11:58:35Z</time>
      </trkpt>
      <trkpt lat="45.65664" lon="5.25088">
        <ele>286.8</ele>
        <time>2025-05-18T11:58:36Z</time>
      </trkpt>
      <trkpt lat="45.65663" lon="5.25094">
        <ele>287.4</ele>
        <time>2025-05-18T11:58:37Z</time>
      </trkpt>
      <trkpt lat="45.6566" lon="5.25098">
        <ele>287.4</ele>
        <time>2025-05-18T11:58:38Z</time>
      </trkpt>
      <trkpt lat="45.65658" lon="5.25102">
        <ele>288</ele>
        <time>2025-05-18T11:58:39Z</time>
      </trkpt>
      <trkpt lat="45.65656" lon="5.25105">
        <ele>288.2</ele>
        <time>2025-05-18T11:58:40Z</time>
      </trkpt>
      <trkpt lat="45.65653" lon="5.25108">
        <ele>287.8</ele>
        <time>2025-05-18T11:58:41Z</time>
      </trkpt>
      <trkpt lat="45.65651" lon="5.25112">
        <ele>287.8</ele>
        <time>2025-05-18T11:58:42Z</time>
      </trkpt>
      <trkpt lat="45.65649" lon="5.25115">
        <ele>288.6</ele>
        <time>2025-05-18T11:58:43Z</time>
      </trkpt>
      <trkpt lat="45.65647" lon="5.25119">
        <ele>287.8</ele>
        <time>2025-05-18T11:58:44Z</time>
      </trkpt>
      <trkpt lat="45.65645" lon="5.25122">
        <ele>287.8</ele>
        <time>2025-05-18T11:58:45Z</time>
      </trkpt>
      <trkpt lat="45.65643" lon="5.25126">
        <ele>288.6</ele>
        <time>2025-05-18T11:58:46Z</time>
      </trkpt>
      <trkpt lat="45.65641" lon="5.25128">
        <ele>289</ele>
        <time>2025-05-18T11:58:47Z</time>
      </trkpt>
      <trkpt lat="45.6564" lon="5.2513">
        <ele>289.4</ele>
        <time>2025-05-18T11:58:48Z</time>
      </trkpt>
      <trkpt lat="45.65638" lon="5.25133">
        <ele>289.8</ele>
        <time>2025-05-18T11:58:49Z</time>
      </trkpt>
      <trkpt lat="45.65636" lon="5.25136">
        <ele>290</ele>
        <time>2025-05-18T11:58:50Z</time>
      </trkpt>
      <trkpt lat="45.65634" lon="5.2514">
        <ele>290.4</ele>
        <time>2025-05-18T11:58:51Z</time>
      </trkpt>
      <trkpt lat="45.65632" lon="5.25143">
        <ele>290.4</ele>
        <time>2025-05-18T11:58:52Z</time>
      </trkpt>
      <trkpt lat="45.65632" lon="5.25147">
        <ele>290.6</ele>
        <time>2025-05-18T11:58:53Z</time>
      </trkpt>
      <trkpt lat="45.65631" lon="5.2515">
        <ele>290.6</ele>
        <time>2025-05-18T11:58:54Z</time>
      </trkpt>
      <trkpt lat="45.6563" lon="5.25153">
        <ele>290.6</ele>
        <time>2025-05-18T11:58:55Z</time>
      </trkpt>
      <trkpt lat="45.65629" lon="5.25158">
        <ele>290.6</ele>
        <time>2025-05-18T11:58:56Z</time>
      </trkpt>
      <trkpt lat="45.65629" lon="5.25163">
        <ele>290.4</ele>
        <time>2025-05-18T11:58:57Z</time>
      </trkpt>
      <trkpt lat="45.65628" lon="5.25166">
        <ele>290.8</ele>
        <time>2025-05-18T11:58:58Z</time>
      </trkpt>
      <trkpt lat="45.65628" lon="5.25169">
        <ele>290.8</ele>
        <time>2025-05-18T11:58:59Z</time>
      </trkpt>
      <trkpt lat="45.65627" lon="5.25173">
        <ele>290.8</ele>
        <time>2025-05-18T11:59:00Z</time>
      </trkpt>
      <trkpt lat="45.65627" lon="5.25176">
        <ele>291</ele>
        <time>2025-05-18T11:59:01Z</time>
      </trkpt>
      <trkpt lat="45.65627" lon="5.2518">
        <ele>291</ele>
        <time>2025-05-18T11:59:02Z</time>
      </trkpt>
      <trkpt lat="45.65627" lon="5.25183">
        <ele>291</ele>
        <time>2025-05-18T11:59:03Z</time>
      </trkpt>
      <trkpt lat="45.65627" lon="5.25186">
        <ele>291</ele>
        <time>2025-05-18T11:59:04Z</time>
      </trkpt>
      <trkpt lat="45.65627" lon="5.25189">
        <ele>291</ele>
        <time>2025-05-18T11:59:05Z</time>
      </trkpt>
      <trkpt lat="45.65627" lon="5.2519">
        <ele>291</ele>
        <time>2025-05-18T11:59:06Z</time>
      </trkpt>
      <trkpt lat="45.65628" lon="5.2519">
        <ele>291</ele>
        <time>2025-05-18T11:59:07Z</time>
      </trkpt>
      <trkpt lat="45.65628" lon="5.25189">
        <ele>290.8</ele>
        <time>2025-05-18T11:59:15Z</time>
      </trkpt>
      <trkpt lat="45.65628" lon="5.25188">
        <ele>290.8</ele>
        <time>2025-05-18T11:59:16Z</time>
      </trkpt>
      <trkpt lat="45.65628" lon="5.25186">
        <ele>290.6</ele>
        <time>2025-05-18T11:59:17Z</time>
      </trkpt>
      <trkpt lat="45.65629" lon="5.25184">
        <ele>290.6</ele>
        <time>2025-05-18T11:59:18Z</time>
      </trkpt>
      <trkpt lat="45.65629" lon="5.25183">
        <ele>290.8</ele>
        <time>2025-05-18T11:59:19Z</time>
      </trkpt>
      <trkpt lat="45.65628" lon="5.25181">
        <ele>290.8</ele>
        <time>2025-05-18T11:59:20Z</time>
      </trkpt>
      <trkpt lat="45.65628" lon="5.2518">
        <ele>290.8</ele>
        <time>2025-05-18T11:59:21Z</time>
      </trkpt>
      <trkpt lat="45.65629" lon="5.25178">
        <ele>290.8</ele>
        <time>2025-05-18T11:59:22Z</time>
      </trkpt>
      <trkpt lat="45.65629" lon="5.25177">
        <ele>290.8</ele>
        <time>2025-05-18T11:59:23Z</time>
      </trkpt>
      <trkpt lat="45.65628" lon="5.25175">
        <ele>290.8</ele>
        <time>2025-05-18T11:59:24Z</time>
      </trkpt>
      <trkpt lat="45.65628" lon="5.25174">
        <ele>290.6</ele>
        <time>2025-05-18T11:59:25Z</time>
      </trkpt>
      <trkpt lat="45.65628" lon="5.25173">
        <ele>290.6</ele>
        <time>2025-05-18T11:59:26Z</time>
      </trkpt>
      <trkpt lat="45.65628" lon="5.25172">
        <ele>290.6</ele>
        <time>2025-05-18T11:59:27Z</time>
      </trkpt>
      <trkpt lat="45.65628" lon="5.25171">
        <ele>290.6</ele>
        <time>2025-05-18T11:59:28Z</time>
      </trkpt>
      <trkpt lat="45.65628" lon="5.25171">
        <ele>290.6</ele>
        <time>2025-05-18T11:59:29Z</time>
      </trkpt>
      <trkpt lat="45.65628" lon="5.25171">
        <ele>290.6</ele>
        <time>2025-05-18T11:59:30Z</time>
      </trkpt>
      <trkpt lat="45.65632" lon="5.25172">
        <ele>291.4</ele>
        <time>2025-05-18T12:00:04Z</time>
      </trkpt>
      <trkpt lat="45.65632" lon="5.25173">
        <ele>291.4</ele>
        <time>2025-05-18T12:00:05Z</time>
      </trkpt>
      <trkpt lat="45.65632" lon="5.25175">
        <ele>291.4</ele>
        <time>2025-05-18T12:00:06Z</time>
      </trkpt>
      <trkpt lat="45.65632" lon="5.25175">
        <ele>291.4</ele>
        <time>2025-05-18T12:00:07Z</time>
      </trkpt>
      <trkpt lat="45.65631" lon="5.25175">
        <ele>291.4</ele>
        <time>2025-05-18T12:00:08Z</time>
      </trkpt>
      <trkpt lat="45.65631" lon="5.25178">
        <ele>290.4</ele>
        <time>2025-05-18T12:00:11Z</time>
      </trkpt>
      <trkpt lat="45.65631" lon="5.25181">
        <ele>290.4</ele>
        <time>2025-05-18T12:00:12Z</time>
      </trkpt>
      <trkpt lat="45.65631" lon="5.25185">
        <ele>290.6</ele>
        <time>2025-05-18T12:00:13Z</time>
      </trkpt>
      <trkpt lat="45.6563" lon="5.2519">
        <ele>290.6</ele>
        <time>2025-05-18T12:00:14Z</time>
      </trkpt>
      <trkpt lat="45.6563" lon="5.25194">
        <ele>290.6</ele>
        <time>2025-05-18T12:00:15Z</time>
      </trkpt>
      <trkpt lat="45.65629" lon="5.25197">
        <ele>291</ele>
        <time>2025-05-18T12:00:16Z</time>
      </trkpt>
      <trkpt lat="45.65629" lon="5.25201">
        <ele>291</ele>
        <time>2025-05-18T12:00:17Z</time>
      </trkpt>
      <trkpt lat="45.65629" lon="5.25205">
        <ele>291</ele>
        <time>2025-05-18T12:00:18Z</time>
      </trkpt>
      <trkpt lat="45.6563" lon="5.25209">
        <ele>291.6</ele>
        <time>2025-05-18T12:00:19Z</time>
      </trkpt>
      <trkpt lat="45.6563" lon="5.25214">
        <ele>292</ele>
        <time>2025-05-18T12:00:20Z</time>
      </trkpt>
      <trkpt lat="45.6563" lon="5.25218">
        <ele>292</ele>
        <time>2025-05-18T12:00:21Z</time>
      </trkpt>
      <trkpt lat="45.65631" lon="5.25222">
        <ele>292</ele>
        <time>2025-05-18T12:00:22Z</time>
      </trkpt>
      <trkpt lat="45.65631" lon="5.25226">
        <ele>292.4</ele>
        <time>2025-05-18T12:00:23Z</time>
      </trkpt>
      <trkpt lat="45.65632" lon="5.2523">
        <ele>293.2</ele>
        <time>2025-05-18T12:00:24Z</time>
      </trkpt>
      <trkpt lat="45.65632" lon="5.25233">
        <ele>292.6</ele>
        <time>2025-05-18T12:00:25Z</time>
      </trkpt>
      <trkpt lat="45.65633" lon="5.25237">
        <ele>292.6</ele>
        <time>2025-05-18T12:00:26Z</time>
      </trkpt>
      <trkpt lat="45.65634" lon="5.25241">
        <ele>292.6</ele>
        <time>2025-05-18T12:00:27Z</time>
      </trkpt>
      <trkpt lat="45.65634" lon="5.25245">
        <ele>293</ele>
        <time>2025-05-18T12:00:28Z</time>
      </trkpt>
      <trkpt lat="45.65635" lon="5.2525">
        <ele>293.6</ele>
        <time>2025-05-18T12:00:29Z</time>
      </trkpt>
      <trkpt lat="45.65636" lon="5.25254">
        <ele>293.6</ele>
        <time>2025-05-18T12:00:30Z</time>
      </trkpt>
      <trkpt lat="45.65637" lon="5.25258">
        <ele>293.6</ele>
        <time>2025-05-18T12:00:31Z</time>
      </trkpt>
      <trkpt lat="45.65638" lon="5.25261">
        <ele>293.6</ele>
        <time>2025-05-18T12:00:32Z</time>
      </trkpt>
      <trkpt lat="45.65638" lon="5.25264">
        <ele>294.2</ele>
        <time>2025-05-18T12:00:33Z</time>
      </trkpt>
      <trkpt lat="45.65639" lon="5.25266">
        <ele>294.6</ele>
        <time>2025-05-18T12:00:34Z</time>
      </trkpt>
      <trkpt lat="45.6564" lon="5.25268">
        <ele>295.2</ele>
        <time>2025-05-18T12:00:35Z</time>
      </trkpt>
      <trkpt lat="45.6564" lon="5.2527">
        <ele>294.8</ele>
        <time>2025-05-18T12:00:36Z</time>
      </trkpt>
      <trkpt lat="45.65641" lon="5.25273">
        <ele>294.8</ele>
        <time>2025-05-18T12:00:37Z</time>
      </trkpt>
      <trkpt lat="45.65641" lon="5.25275">
        <ele>294.8</ele>
        <time>2025-05-18T12:00:38Z</time>
      </trkpt>
      <trkpt lat="45.65642" lon="5.25276">
        <ele>295.4</ele>
        <time>2025-05-18T12:00:39Z</time>
      </trkpt>
      <trkpt lat="45.65642" lon="5.25278">
        <ele>295.8</ele>
        <time>2025-05-18T12:00:40Z</time>
      </trkpt>
      <trkpt lat="45.65642" lon="5.2528">
        <ele>295.8</ele>
        <time>2025-05-18T12:00:41Z</time>
      </trkpt>
      <trkpt lat="45.65642" lon="5.25284">
        <ele>296.2</ele>
        <time>2025-05-18T12:00:42Z</time>
      </trkpt>
      <trkpt lat="45.65641" lon="5.25286">
        <ele>296.2</ele>
        <time>2025-05-18T12:00:43Z</time>
      </trkpt>
      <trkpt lat="45.65641" lon="5.25287">
        <ele>296.4</ele>
        <time>2025-05-18T12:00:44Z</time>
      </trkpt>
      <trkpt lat="45.65641" lon="5.25289">
        <ele>296.6</ele>
        <time>2025-05-18T12:00:45Z</time>
      </trkpt>
      <trkpt lat="45.65642" lon="5.25292">
        <ele>297</ele>
        <time>2025-05-18T12:00:46Z</time>
      </trkpt>
      <trkpt lat="45.65642" lon="5.25292">
        <ele>297.2</ele>
        <time>2025-05-18T12:00:47Z</time>
      </trkpt>
      <trkpt lat="45.65642" lon="5.25292">
        <ele>297.2</ele>
        <time>2025-05-18T12:00:48Z</time>
      </trkpt>
      <trkpt lat="45.65642" lon="5.25292">
        <ele>297.2</ele>
        <time>2025-05-18T12:00:49Z</time>
      </trkpt>
      <trkpt lat="45.65644" lon="5.25298">
        <ele>297.6</ele>
        <time>2025-05-18T12:00:50Z</time>
      </trkpt>
      <trkpt lat="45.65645" lon="5.25299">
        <ele>297.8</ele>
        <time>2025-05-18T12:00:51Z</time>
      </trkpt>
      <trkpt lat="45.65645" lon="5.25301">
        <ele>298.2</ele>
        <time>2025-05-18T12:00:52Z</time>
      </trkpt>
      <trkpt lat="45.65646" lon="5.25303">
        <ele>298.2</ele>
        <time>2025-05-18T12:00:53Z</time>
      </trkpt>
      <trkpt lat="45.65647" lon="5.25304">
        <ele>298.2</ele>
        <time>2025-05-18T12:00:54Z</time>
      </trkpt>
      <trkpt lat="45.65647" lon="5.25306">
        <ele>298.6</ele>
        <time>2025-05-18T12:00:55Z</time>
      </trkpt>
      <trkpt lat="45.65648" lon="5.25307">
        <ele>298.6</ele>
        <time>2025-05-18T12:00:56Z</time>
      </trkpt>
      <trkpt lat="45.65648" lon="5.2531">
        <ele>299</ele>
        <time>2025-05-18T12:00:57Z</time>
      </trkpt>
      <trkpt lat="45.65648" lon="5.25312">
        <ele>299.2</ele>
        <time>2025-05-18T12:00:58Z</time>
      </trkpt>
      <trkpt lat="45.65649" lon="5.25314">
        <ele>299.2</ele>
        <time>2025-05-18T12:00:59Z</time>
      </trkpt>
      <trkpt lat="45.65649" lon="5.25317">
        <ele>299.2</ele>
        <time>2025-05-18T12:01:00Z</time>
      </trkpt>
      <trkpt lat="45.6565" lon="5.25319">
        <ele>299.6</ele>
        <time>2025-05-18T12:01:01Z</time>
      </trkpt>
      <trkpt lat="45.6565" lon="5.2532">
        <ele>300</ele>
        <time>2025-05-18T12:01:02Z</time>
      </trkpt>
      <trkpt lat="45.6565" lon="5.25322">
        <ele>300.6</ele>
        <time>2025-05-18T12:01:03Z</time>
      </trkpt>
      <trkpt lat="45.65651" lon="5.25323">
        <ele>300.8</ele>
        <time>2025-05-18T12:01:04Z</time>
      </trkpt>
      <trkpt lat="45.65651" lon="5.25324">
        <ele>301</ele>
        <time>2025-05-18T12:01:05Z</time>
      </trkpt>
      <trkpt lat="45.65651" lon="5.25326">
        <ele>301.8</ele>
        <time>2025-05-18T12:01:06Z</time>
      </trkpt>
      <trkpt lat="45.65651" lon="5.25328">
        <ele>301.8</ele>
        <time>2025-05-18T12:01:07Z</time>
      </trkpt>
      <trkpt lat="45.65651" lon="5.25328">
        <ele>302</ele>
        <time>2025-05-18T12:01:08Z</time>
      </trkpt>
      <trkpt lat="45.65651" lon="5.25329">
        <ele>302</ele>
        <time>2025-05-18T12:01:09Z</time>
      </trkpt>
      <trkpt lat="45.65651" lon="5.25331">
        <ele>302.4</ele>
        <time>2025-05-18T12:01:10Z</time>
      </trkpt>
      <trkpt lat="45.6565" lon="5.25333">
        <ele>302.4</ele>
        <time>2025-05-18T12:01:11Z</time>
      </trkpt>
      <trkpt lat="45.6565" lon="5.25335">
        <ele>302.4</ele>
        <time>2025-05-18T12:01:12Z</time>
      </trkpt>
      <trkpt lat="45.65649" lon="5.25337">
        <ele>302.8</ele>
        <time>2025-05-18T12:01:13Z</time>
      </trkpt>
      <trkpt lat="45.65649" lon="5.25339">
        <ele>302.8</ele>
        <time>2025-05-18T12:01:14Z</time>
      </trkpt>
      <trkpt lat="45.65649" lon="5.25341">
        <ele>302.8</ele>
        <time>2025-05-18T12:01:15Z</time>
      </trkpt>
      <trkpt lat="45.65648" lon="5.25343">
        <ele>302.8</ele>
        <time>2025-05-18T12:01:16Z</time>
      </trkpt>
      <trkpt lat="45.65648" lon="5.25344">
        <ele>303.4</ele>
        <time>2025-05-18T12:01:17Z</time>
      </trkpt>
      <trkpt lat="45.65647" lon="5.25347">
        <ele>303.2</ele>
        <time>2025-05-18T12:01:18Z</time>
      </trkpt>
      <trkpt lat="45.65647" lon="5.25349">
        <ele>303.2</ele>
        <time>2025-05-18T12:01:19Z</time>
      </trkpt>
      <trkpt lat="45.65647" lon="5.25351">
        <ele>303.2</ele>
        <time>2025-05-18T12:01:20Z</time>
      </trkpt>
      <trkpt lat="45.65647" lon="5.25353">
        <ele>303.4</ele>
        <time>2025-05-18T12:01:21Z</time>
      </trkpt>
      <trkpt lat="45.65646" lon="5.25355">
        <ele>303.4</ele>
        <time>2025-05-18T12:01:22Z</time>
      </trkpt>
      <trkpt lat="45.65646" lon="5.25357">
        <ele>303.8</ele>
        <time>2025-05-18T12:01:23Z</time>
      </trkpt>
      <trkpt lat="45.65646" lon="5.25359">
        <ele>303.8</ele>
        <time>2025-05-18T12:01:24Z</time>
      </trkpt>
      <trkpt lat="45.65646" lon="5.25361">
        <ele>304</ele>
        <time>2025-05-18T12:01:25Z</time>
      </trkpt>
      <trkpt lat="45.65645" lon="5.25363">
        <ele>304</ele>
        <time>2025-05-18T12:01:26Z</time>
      </trkpt>
      <trkpt lat="45.65645" lon="5.25366">
        <ele>304</ele>
        <time>2025-05-18T12:01:27Z</time>
      </trkpt>
      <trkpt lat="45.65645" lon="5.25368">
        <ele>304</ele>
        <time>2025-05-18T12:01:28Z</time>
      </trkpt>
      <trkpt lat="45.65645" lon="5.2537">
        <ele>304</ele>
        <time>2025-05-18T12:01:29Z</time>
      </trkpt>
      <trkpt lat="45.65645" lon="5.25372">
        <ele>304.4</ele>
        <time>2025-05-18T12:01:30Z</time>
      </trkpt>
      <trkpt lat="45.65644" lon="5.25374">
        <ele>304.6</ele>
        <time>2025-05-18T12:01:31Z</time>
      </trkpt>
      <trkpt lat="45.65644" lon="5.25376">
        <ele>304.6</ele>
        <time>2025-05-18T12:01:32Z</time>
      </trkpt>
      <trkpt lat="45.65644" lon="5.25378">
        <ele>304.8</ele>
        <time>2025-05-18T12:01:33Z</time>
      </trkpt>
      <trkpt lat="45.65644" lon="5.2538">
        <ele>304.8</ele>
        <time>2025-05-18T12:01:34Z</time>
      </trkpt>
      <trkpt lat="45.65643" lon="5.25382">
        <ele>305.2</ele>
        <time>2025-05-18T12:01:35Z</time>
      </trkpt>
      <trkpt lat="45.65643" lon="5.25383">
        <ele>305.2</ele>
        <time>2025-05-18T12:01:36Z</time>
      </trkpt>
      <trkpt lat="45.65642" lon="5.25385">
        <ele>305.2</ele>
        <time>2025-05-18T12:01:37Z</time>
      </trkpt>
      <trkpt lat="45.65642" lon="5.25388">
        <ele>305.4</ele>
        <time>2025-05-18T12:01:38Z</time>
      </trkpt>
      <trkpt lat="45.65642" lon="5.25389">
        <ele>305.4</ele>
        <time>2025-05-18T12:01:39Z</time>
      </trkpt>
      <trkpt lat="45.65641" lon="5.25391">
        <ele>305.4</ele>
        <time>2025-05-18T12:01:40Z</time>
      </trkpt>
      <trkpt lat="45.6564" lon="5.25393">
        <ele>306</ele>
        <time>2025-05-18T12:01:41Z</time>
      </trkpt>
      <trkpt lat="45.65639" lon="5.25395">
        <ele>306.2</ele>
        <time>2025-05-18T12:01:42Z</time>
      </trkpt>
      <trkpt lat="45.65638" lon="5.25396">
        <ele>306.2</ele>
        <time>2025-05-18T12:01:43Z</time>
      </trkpt>
      <trkpt lat="45.65638" lon="5.25398">
        <ele>306.2</ele>
        <time>2025-05-18T12:01:44Z</time>
      </trkpt>
      <trkpt lat="45.65637" lon="5.25399">
        <ele>306.2</ele>
        <time>2025-05-18T12:01:45Z</time>
      </trkpt>
      <trkpt lat="45.65636" lon="5.25401">
        <ele>306.2</ele>
        <time>2025-05-18T12:01:46Z</time>
      </trkpt>
      <trkpt lat="45.65635" lon="5.25403">
        <ele>306.6</ele>
        <time>2025-05-18T12:01:47Z</time>
      </trkpt>
      <trkpt lat="45.65634" lon="5.25405">
        <ele>306.6</ele>
        <time>2025-05-18T12:01:48Z</time>
      </trkpt>
      <trkpt lat="45.65633" lon="5.25407">
        <ele>306.8</ele>
        <time>2025-05-18T12:01:49Z</time>
      </trkpt>
      <trkpt lat="45.65631" lon="5.25408">
        <ele>307.2</ele>
        <time>2025-05-18T12:01:50Z</time>
      </trkpt>
      <trkpt lat="45.6563" lon="5.25409">
        <ele>307.2</ele>
        <time>2025-05-18T12:01:51Z</time>
      </trkpt>
      <trkpt lat="45.6563" lon="5.25411">
        <ele>307.2</ele>
        <time>2025-05-18T12:01:52Z</time>
      </trkpt>
      <trkpt lat="45.65629" lon="5.25413">
        <ele>307.2</ele>
        <time>2025-05-18T12:01:53Z</time>
      </trkpt>
      <trkpt lat="45.65629" lon="5.25414">
        <ele>307.2</ele>
        <time>2025-05-18T12:01:54Z</time>
      </trkpt>
      <trkpt lat="45.65629" lon="5.25416">
        <ele>307.6</ele>
        <time>2025-05-18T12:01:55Z</time>
      </trkpt>
      <trkpt lat="45.6563" lon="5.25418">
        <ele>307.6</ele>
        <time>2025-05-18T12:01:56Z</time>
      </trkpt>
      <trkpt lat="45.65631" lon="5.25421">
        <ele>307.6</ele>
        <time>2025-05-18T12:01:57Z</time>
      </trkpt>
      <trkpt lat="45.65632" lon="5.25423">
        <ele>307.6</ele>
        <time>2025-05-18T12:01:58Z</time>
      </trkpt>
      <trkpt lat="45.65633" lon="5.25425">
        <ele>307.6</ele>
        <time>2025-05-18T12:01:59Z</time>
      </trkpt>
      <trkpt lat="45.65633" lon="5.25427">
        <ele>307.8</ele>
        <time>2025-05-18T12:02:00Z</time>
      </trkpt>
      <trkpt lat="45.65633" lon="5.25431">
        <ele>307.8</ele>
        <time>2025-05-18T12:02:01Z</time>
      </trkpt>
      <trkpt lat="45.65633" lon="5.25434">
        <ele>307.4</ele>
        <time>2025-05-18T12:02:02Z</time>
      </trkpt>
      <trkpt lat="45.65633" lon="5.25436">
        <ele>307.4</ele>
        <time>2025-05-18T12:02:03Z</time>
      </trkpt>
      <trkpt lat="45.65633" lon="5.25439">
        <ele>307.8</ele>
        <time>2025-05-18T12:02:04Z</time>
      </trkpt>
      <trkpt lat="45.65633" lon="5.25442">
        <ele>307.8</ele>
        <time>2025-05-18T12:02:05Z</time>
      </trkpt>
      <trkpt lat="45.65633" lon="5.25444">
        <ele>307.8</ele>
        <time>2025-05-18T12:02:06Z</time>
      </trkpt>
      <trkpt lat="45.65633" lon="5.25446">
        <ele>308.4</ele>
        <time>2025-05-18T12:02:07Z</time>
      </trkpt>
      <trkpt lat="45.65634" lon="5.25448">
        <ele>308.8</ele>
        <time>2025-05-18T12:02:08Z</time>
      </trkpt>
      <trkpt lat="45.65634" lon="5.2545">
        <ele>309.2</ele>
        <time>2025-05-18T12:02:09Z</time>
      </trkpt>
      <trkpt lat="45.65634" lon="5.25452">
        <ele>309.4</ele>
        <time>2025-05-18T12:02:10Z</time>
      </trkpt>
      <trkpt lat="45.65634" lon="5.25454">
        <ele>310</ele>
        <time>2025-05-18T12:02:11Z</time>
      </trkpt>
      <trkpt lat="45.65634" lon="5.25456">
        <ele>310</ele>
        <time>2025-05-18T12:02:12Z</time>
      </trkpt>
      <trkpt lat="45.65634" lon="5.25459">
        <ele>310.4</ele>
        <time>2025-05-18T12:02:13Z</time>
      </trkpt>
      <trkpt lat="45.65634" lon="5.25461">
        <ele>310.4</ele>
        <time>2025-05-18T12:02:14Z</time>
      </trkpt>
      <trkpt lat="45.65635" lon="5.25463">
        <ele>311</ele>
        <time>2025-05-18T12:02:15Z</time>
      </trkpt>
      <trkpt lat="45.65635" lon="5.25465">
        <ele>311.2</ele>
        <time>2025-05-18T12:02:16Z</time>
      </trkpt>
      <trkpt lat="45.65635" lon="5.25468">
        <ele>311.4</ele>
        <time>2025-05-18T12:02:17Z</time>
      </trkpt>
      <trkpt lat="45.65636" lon="5.2547">
        <ele>311.4</ele>
        <time>2025-05-18T12:02:18Z</time>
      </trkpt>
      <trkpt lat="45.65636" lon="5.25473">
        <ele>311.4</ele>
        <time>2025-05-18T12:02:19Z</time>
      </trkpt>
      <trkpt lat="45.65636" lon="5.25475">
        <ele>312</ele>
        <time>2025-05-18T12:02:20Z</time>
      </trkpt>
      <trkpt lat="45.65637" lon="5.25477">
        <ele>312.2</ele>
        <time>2025-05-18T12:02:21Z</time>
      </trkpt>
      <trkpt lat="45.65638" lon="5.25479">
        <ele>312.2</ele>
        <time>2025-05-18T12:02:22Z</time>
      </trkpt>
      <trkpt lat="45.65638" lon="5.25481">
        <ele>312.6</ele>
        <time>2025-05-18T12:02:23Z</time>
      </trkpt>
      <trkpt lat="45.6564" lon="5.25482">
        <ele>312.6</ele>
        <time>2025-05-18T12:02:24Z</time>
      </trkpt>
      <trkpt lat="45.65641" lon="5.25484">
        <ele>312.6</ele>
        <time>2025-05-18T12:02:25Z</time>
      </trkpt>
      <trkpt lat="45.65642" lon="5.25485">
        <ele>313.2</ele>
        <time>2025-05-18T12:02:26Z</time>
      </trkpt>
      <trkpt lat="45.65643" lon="5.25487">
        <ele>313.2</ele>
        <time>2025-05-18T12:02:27Z</time>
      </trkpt>
      <trkpt lat="45.65644" lon="5.25488">
        <ele>313.2</ele>
        <time>2025-05-18T12:02:28Z</time>
      </trkpt>
      <trkpt lat="45.65645" lon="5.2549">
        <ele>313.6</ele>
        <time>2025-05-18T12:02:29Z</time>
      </trkpt>
      <trkpt lat="45.65645" lon="5.25491">
        <ele>313.6</ele>
        <time>2025-05-18T12:02:30Z</time>
      </trkpt>
      <trkpt lat="45.65646" lon="5.25493">
        <ele>313.6</ele>
        <time>2025-05-18T12:02:31Z</time>
      </trkpt>
      <trkpt lat="45.65646" lon="5.25494">
        <ele>314</ele>
        <time>2025-05-18T12:02:32Z</time>
      </trkpt>
      <trkpt lat="45.65647" lon="5.25496">
        <ele>314.2</ele>
        <time>2025-05-18T12:02:33Z</time>
      </trkpt>
      <trkpt lat="45.65648" lon="5.25497">
        <ele>314.4</ele>
        <time>2025-05-18T12:02:34Z</time>
      </trkpt>
      <trkpt lat="45.65649" lon="5.25498">
        <ele>314.4</ele>
        <time>2025-05-18T12:02:35Z</time>
      </trkpt>
      <trkpt lat="45.6565" lon="5.255">
        <ele>314.4</ele>
        <time>2025-05-18T12:02:36Z</time>
      </trkpt>
      <trkpt lat="45.65651" lon="5.25501">
        <ele>314.8</ele>
        <time>2025-05-18T12:02:37Z</time>
      </trkpt>
      <trkpt lat="45.65652" lon="5.25503">
        <ele>314.8</ele>
        <time>2025-05-18T12:02:38Z</time>
      </trkpt>
      <trkpt lat="45.65652" lon="5.25506">
        <ele>315</ele>
        <time>2025-05-18T12:02:39Z</time>
      </trkpt>
      <trkpt lat="45.65654" lon="5.25508">
        <ele>315.4</ele>
        <time>2025-05-18T12:02:40Z</time>
      </trkpt>
      <trkpt lat="45.65654" lon="5.25509">
        <ele>315.4</ele>
        <time>2025-05-18T12:02:41Z</time>
      </trkpt>
      <trkpt lat="45.65655" lon="5.25511">
        <ele>316</ele>
        <time>2025-05-18T12:02:42Z</time>
      </trkpt>
      <trkpt lat="45.65655" lon="5.25513">
        <ele>316</ele>
        <time>2025-05-18T12:02:43Z</time>
      </trkpt>
      <trkpt lat="45.65655" lon="5.25515">
        <ele>316.6</ele>
        <time>2025-05-18T12:02:44Z</time>
      </trkpt>
      <trkpt lat="45.65656" lon="5.25517">
        <ele>316.6</ele>
        <time>2025-05-18T12:02:45Z</time>
      </trkpt>
      <trkpt lat="45.65656" lon="5.25519">
        <ele>317</ele>
        <time>2025-05-18T12:02:46Z</time>
      </trkpt>
      <trkpt lat="45.65657" lon="5.25522">
        <ele>317</ele>
        <time>2025-05-18T12:02:47Z</time>
      </trkpt>
      <trkpt lat="45.65658" lon="5.25525">
        <ele>317</ele>
        <time>2025-05-18T12:02:48Z</time>
      </trkpt>
      <trkpt lat="45.65659" lon="5.25528">
        <ele>316.6</ele>
        <time>2025-05-18T12:02:49Z</time>
      </trkpt>
      <trkpt lat="45.65659" lon="5.25531">
        <ele>316.6</ele>
        <time>2025-05-18T12:02:50Z</time>
      </trkpt>
      <trkpt lat="45.65659" lon="5.25533">
        <ele>316.6</ele>
        <time>2025-05-18T12:02:51Z</time>
      </trkpt>
      <trkpt lat="45.65659" lon="5.25536">
        <ele>316.6</ele>
        <time>2025-05-18T12:02:52Z</time>
      </trkpt>
      <trkpt lat="45.65658" lon="5.25539">
        <ele>316.6</ele>
        <time>2025-05-18T12:02:53Z</time>
      </trkpt>
      <trkpt lat="45.65658" lon="5.25543">
        <ele>316.8</ele>
        <time>2025-05-18T12:02:54Z</time>
      </trkpt>
      <trkpt lat="45.65658" lon="5.25547">
        <ele>317.4</ele>
        <time>2025-05-18T12:02:55Z</time>
      </trkpt>
      <trkpt lat="45.65659" lon="5.25552">
        <ele>316.8</ele>
        <time>2025-05-18T12:02:56Z</time>
      </trkpt>
      <trkpt lat="45.65659" lon="5.25557">
        <ele>316.8</ele>
        <time>2025-05-18T12:02:57Z</time>
      </trkpt>
      <trkpt lat="45.65659" lon="5.25562">
        <ele>316.8</ele>
        <time>2025-05-18T12:02:58Z</time>
      </trkpt>
      <trkpt lat="45.65659" lon="5.25568">
        <ele>316.4</ele>
        <time>2025-05-18T12:02:59Z</time>
      </trkpt>
      <trkpt lat="45.65659" lon="5.25572">
        <ele>317</ele>
        <time>2025-05-18T12:03:00Z</time>
      </trkpt>
      <trkpt lat="45.65659" lon="5.25576">
        <ele>316.4</ele>
        <time>2025-05-18T12:03:01Z</time>
      </trkpt>
      <trkpt lat="45.65659" lon="5.2558">
        <ele>316.8</ele>
        <time>2025-05-18T12:03:02Z</time>
      </trkpt>
      <trkpt lat="45.65659" lon="5.25582">
        <ele>316.8</ele>
        <time>2025-05-18T12:03:03Z</time>
      </trkpt>
      <trkpt lat="45.6566" lon="5.25586">
        <ele>316.4</ele>
        <time>2025-05-18T12:03:04Z</time>
      </trkpt>
      <trkpt lat="45.65662" lon="5.2559">
        <ele>316.4</ele>
        <time>2025-05-18T12:03:05Z</time>
      </trkpt>
      <trkpt lat="45.65664" lon="5.25595">
        <ele>316.2</ele>
        <time>2025-05-18T12:03:06Z</time>
      </trkpt>
      <trkpt lat="45.65665" lon="5.25599">
        <ele>316</ele>
        <time>2025-05-18T12:03:07Z</time>
      </trkpt>
      <trkpt lat="45.65666" lon="5.25604">
        <ele>315.2</ele>
        <time>2025-05-18T12:03:08Z</time>
      </trkpt>
      <trkpt lat="45.65667" lon="5.25609">
        <ele>315.2</ele>
        <time>2025-05-18T12:03:09Z</time>
      </trkpt>
      <trkpt lat="45.65668" lon="5.25614">
        <ele>313.8</ele>
        <time>2025-05-18T12:03:10Z</time>
      </trkpt>
      <trkpt lat="45.65669" lon="5.25619">
        <ele>314.6</ele>
        <time>2025-05-18T12:03:11Z</time>
      </trkpt>
      <trkpt lat="45.6567" lon="5.25624">
        <ele>315.6</ele>
        <time>2025-05-18T12:03:12Z</time>
      </trkpt>
      <trkpt lat="45.65671" lon="5.25629">
        <ele>316</ele>
        <time>2025-05-18T12:03:13Z</time>
      </trkpt>
      <trkpt lat="45.65672" lon="5.25633">
        <ele>316</ele>
        <time>2025-05-18T12:03:14Z</time>
      </trkpt>
      <trkpt lat="45.65673" lon="5.25637">
        <ele>316.4</ele>
        <time>2025-05-18T12:03:15Z</time>
      </trkpt>
      <trkpt lat="45.65674" lon="5.25642">
        <ele>316.4</ele>
        <time>2025-05-18T12:03:16Z</time>
      </trkpt>
      <trkpt lat="45.65676" lon="5.25646">
        <ele>317</ele>
        <time>2025-05-18T12:03:17Z</time>
      </trkpt>
      <trkpt lat="45.65677" lon="5.25649">
        <ele>317</ele>
        <time>2025-05-18T12:03:18Z</time>
      </trkpt>
      <trkpt lat="45.65678" lon="5.25653">
        <ele>318</ele>
        <time>2025-05-18T12:03:19Z</time>
      </trkpt>
      <trkpt lat="45.65679" lon="5.25658">
        <ele>318.2</ele>
        <time>2025-05-18T12:03:20Z</time>
      </trkpt>
      <trkpt lat="45.65681" lon="5.25663">
        <ele>317.8</ele>
        <time>2025-05-18T12:03:21Z</time>
      </trkpt>
      <trkpt lat="45.65682" lon="5.25667">
        <ele>317.8</ele>
        <time>2025-05-18T12:03:22Z</time>
      </trkpt>
      <trkpt lat="45.65683" lon="5.25672">
        <ele>317.8</ele>
        <time>2025-05-18T12:03:23Z</time>
      </trkpt>
      <trkpt lat="45.65684" lon="5.25677">
        <ele>317.8</ele>
        <time>2025-05-18T12:03:24Z</time>
      </trkpt>
      <trkpt lat="45.65684" lon="5.25681">
        <ele>318.4</ele>
        <time>2025-05-18T12:03:25Z</time>
      </trkpt>
      <trkpt lat="45.65685" lon="5.25685">
        <ele>318.4</ele>
        <time>2025-05-18T12:03:26Z</time>
      </trkpt>
      <trkpt lat="45.65686" lon="5.25688">
        <ele>318.4</ele>
        <time>2025-05-18T12:03:27Z</time>
      </trkpt>
      <trkpt lat="45.65687" lon="5.25692">
        <ele>318.4</ele>
        <time>2025-05-18T12:03:28Z</time>
      </trkpt>
      <trkpt lat="45.65689" lon="5.25696">
        <ele>318</ele>
        <time>2025-05-18T12:03:29Z</time>
      </trkpt>
      <trkpt lat="45.6569" lon="5.257">
        <ele>318</ele>
        <time>2025-05-18T12:03:30Z</time>
      </trkpt>
      <trkpt lat="45.65691" lon="5.25703">
        <ele>318</ele>
        <time>2025-05-18T12:03:31Z</time>
      </trkpt>
      <trkpt lat="45.65692" lon="5.25706">
        <ele>318.6</ele>
        <time>2025-05-18T12:03:32Z</time>
      </trkpt>
      <trkpt lat="45.65693" lon="5.2571">
        <ele>318.6</ele>
        <time>2025-05-18T12:03:33Z</time>
      </trkpt>
      <trkpt lat="45.65694" lon="5.25713">
        <ele>318.2</ele>
        <time>2025-05-18T12:03:34Z</time>
      </trkpt>
      <trkpt lat="45.65695" lon="5.25717">
        <ele>318.2</ele>
        <time>2025-05-18T12:03:35Z</time>
      </trkpt>
      <trkpt lat="45.65697" lon="5.25722">
        <ele>318.2</ele>
        <time>2025-05-18T12:03:36Z</time>
      </trkpt>
      <trkpt lat="45.65698" lon="5.25726">
        <ele>318.6</ele>
        <time>2025-05-18T12:03:37Z</time>
      </trkpt>
      <trkpt lat="45.657" lon="5.25729">
        <ele>318.6</ele>
        <time>2025-05-18T12:03:38Z</time>
      </trkpt>
      <trkpt lat="45.65702" lon="5.25733">
        <ele>318.8</ele>
        <time>2025-05-18T12:03:39Z</time>
      </trkpt>
      <trkpt lat="45.65703" lon="5.25736">
        <ele>319.2</ele>
        <time>2025-05-18T12:03:40Z</time>
      </trkpt>
      <trkpt lat="45.65705" lon="5.2574">
        <ele>319.6</ele>
        <time>2025-05-18T12:03:41Z</time>
      </trkpt>
      <trkpt lat="45.65706" lon="5.25745">
        <ele>319.6</ele>
        <time>2025-05-18T12:03:42Z</time>
      </trkpt>
      <trkpt lat="45.65708" lon="5.25748">
        <ele>319.6</ele>
        <time>2025-05-18T12:03:43Z</time>
      </trkpt>
      <trkpt lat="45.65711" lon="5.25752">
        <ele>319.6</ele>
        <time>2025-05-18T12:03:44Z</time>
      </trkpt>
      <trkpt lat="45.65713" lon="5.25755">
        <ele>319.6</ele>
        <time>2025-05-18T12:03:45Z</time>
      </trkpt>
      <trkpt lat="45.65714" lon="5.25758">
        <ele>319.8</ele>
        <time>2025-05-18T12:03:46Z</time>
      </trkpt>
      <trkpt lat="45.65715" lon="5.25762">
        <ele>319.8</ele>
        <time>2025-05-18T12:03:47Z</time>
      </trkpt>
      <trkpt lat="45.65716" lon="5.25767">
        <ele>320</ele>
        <time>2025-05-18T12:03:48Z</time>
      </trkpt>
      <trkpt lat="45.65717" lon="5.25771">
        <ele>319.8</ele>
        <time>2025-05-18T12:03:49Z</time>
      </trkpt>
      <trkpt lat="45.65718" lon="5.25775">
        <ele>319.8</ele>
        <time>2025-05-18T12:03:50Z</time>
      </trkpt>
      <trkpt lat="45.6572" lon="5.2578">
        <ele>319.8</ele>
        <time>2025-05-18T12:03:51Z</time>
      </trkpt>
      <trkpt lat="45.65721" lon="5.25784">
        <ele>319.8</ele>
        <time>2025-05-18T12:03:52Z</time>
      </trkpt>
      <trkpt lat="45.65722" lon="5.25788">
        <ele>319.8</ele>
        <time>2025-05-18T12:03:53Z</time>
      </trkpt>
      <trkpt lat="45.65723" lon="5.25793">
        <ele>320</ele>
        <time>2025-05-18T12:03:54Z</time>
      </trkpt>
      <trkpt lat="45.65724" lon="5.25797">
        <ele>320</ele>
        <time>2025-05-18T12:03:55Z</time>
      </trkpt>
      <trkpt lat="45.65725" lon="5.25802">
        <ele>320</ele>
        <time>2025-05-18T12:03:56Z</time>
      </trkpt>
      <trkpt lat="45.65726" lon="5.25806">
        <ele>320</ele>
        <time>2025-05-18T12:03:57Z</time>
      </trkpt>
      <trkpt lat="45.65727" lon="5.25811">
        <ele>320</ele>
        <time>2025-05-18T12:03:58Z</time>
      </trkpt>
      <trkpt lat="45.65728" lon="5.25816">
        <ele>319.8</ele>
        <time>2025-05-18T12:03:59Z</time>
      </trkpt>
      <trkpt lat="45.65729" lon="5.2582">
        <ele>319.8</ele>
        <time>2025-05-18T12:04:00Z</time>
      </trkpt>
      <trkpt lat="45.6573" lon="5.25824">
        <ele>320</ele>
        <time>2025-05-18T12:04:01Z</time>
      </trkpt>
      <trkpt lat="45.6573" lon="5.25824">
        <ele>320.4</ele>
        <time>2025-05-18T12:04:02Z</time>
      </trkpt>
      <trkpt lat="45.65732" lon="5.25831">
        <ele>320.4</ele>
        <time>2025-05-18T12:04:03Z</time>
      </trkpt>
      <trkpt lat="45.65732" lon="5.25835">
        <ele>320.4</ele>
        <time>2025-05-18T12:04:04Z</time>
      </trkpt>
      <trkpt lat="45.65732" lon="5.25839">
        <ele>320.4</ele>
        <time>2025-05-18T12:04:05Z</time>
      </trkpt>
      <trkpt lat="45.65732" lon="5.25843">
        <ele>320.4</ele>
        <time>2025-05-18T12:04:06Z</time>
      </trkpt>
      <trkpt lat="45.65732" lon="5.25848">
        <ele>320.6</ele>
        <time>2025-05-18T12:04:07Z</time>
      </trkpt>
      <trkpt lat="45.65732" lon="5.25852">
        <ele>320.6</ele>
        <time>2025-05-18T12:04:08Z</time>
      </trkpt>
      <trkpt lat="45.65732" lon="5.25856">
        <ele>320.6</ele>
        <time>2025-05-18T12:04:09Z</time>
      </trkpt>
      <trkpt lat="45.65733" lon="5.2586">
        <ele>320.6</ele>
        <time>2025-05-18T12:04:10Z</time>
      </trkpt>
      <trkpt lat="45.65733" lon="5.25865">
        <ele>320.6</ele>
        <time>2025-05-18T12:04:11Z</time>
      </trkpt>
      <trkpt lat="45.65733" lon="5.2587">
        <ele>320.6</ele>
        <time>2025-05-18T12:04:12Z</time>
      </trkpt>
      <trkpt lat="45.65733" lon="5.25874">
        <ele>321</ele>
        <time>2025-05-18T12:04:13Z</time>
      </trkpt>
      <trkpt lat="45.65733" lon="5.25878">
        <ele>321</ele>
        <time>2025-05-18T12:04:14Z</time>
      </trkpt>
      <trkpt lat="45.65733" lon="5.25883">
        <ele>321</ele>
        <time>2025-05-18T12:04:15Z</time>
      </trkpt>
      <trkpt lat="45.65734" lon="5.25886">
        <ele>321</ele>
        <time>2025-05-18T12:04:16Z</time>
      </trkpt>
      <trkpt lat="45.65734" lon="5.25888">
        <ele>321.2</ele>
        <time>2025-05-18T12:04:17Z</time>
      </trkpt>
      <trkpt lat="45.65734" lon="5.25889">
        <ele>320.6</ele>
        <time>2025-05-18T12:04:18Z</time>
      </trkpt>
      <trkpt lat="45.65734" lon="5.25891">
        <ele>320.6</ele>
        <time>2025-05-18T12:04:19Z</time>
      </trkpt>
      <trkpt lat="45.65734" lon="5.25893">
        <ele>320.8</ele>
        <time>2025-05-18T12:04:20Z</time>
      </trkpt>
      <trkpt lat="45.65734" lon="5.25896">
        <ele>320.8</ele>
        <time>2025-05-18T12:04:21Z</time>
      </trkpt>
      <trkpt lat="45.65735" lon="5.25899">
        <ele>320.8</ele>
        <time>2025-05-18T12:04:22Z</time>
      </trkpt>
      <trkpt lat="45.65736" lon="5.25903">
        <ele>319.8</ele>
        <time>2025-05-18T12:04:23Z</time>
      </trkpt>
      <trkpt lat="45.65737" lon="5.25908">
        <ele>319.8</ele>
        <time>2025-05-18T12:04:24Z</time>
      </trkpt>
      <trkpt lat="45.65739" lon="5.25913">
        <ele>320.2</ele>
        <time>2025-05-18T12:04:25Z</time>
      </trkpt>
      <trkpt lat="45.65741" lon="5.25919">
        <ele>319</ele>
        <time>2025-05-18T12:04:26Z</time>
      </trkpt>
      <trkpt lat="45.65743" lon="5.25924">
        <ele>318.2</ele>
        <time>2025-05-18T12:04:27Z</time>
      </trkpt>
      <trkpt lat="45.65745" lon="5.25932">
        <ele>318.2</ele>
        <time>2025-05-18T12:04:28Z</time>
      </trkpt>
      <trkpt lat="45.65745" lon="5.25938">
        <ele>317.6</ele>
        <time>2025-05-18T12:04:29Z</time>
      </trkpt>
      <trkpt lat="45.65746" lon="5.25948">
        <ele>317.2</ele>
        <time>2025-05-18T12:04:30Z</time>
      </trkpt>
      <trkpt lat="45.65745" lon="5.25955">
        <ele>317.2</ele>
        <time>2025-05-18T12:04:31Z</time>
      </trkpt>
      <trkpt lat="45.65744" lon="5.25962">
        <ele>317</ele>
        <time>2025-05-18T12:04:32Z</time>
      </trkpt>
      <trkpt lat="45.65743" lon="5.2597">
        <ele>316.6</ele>
        <time>2025-05-18T12:04:33Z</time>
      </trkpt>
      <trkpt lat="45.65742" lon="5.25979">
        <ele>316</ele>
        <time>2025-05-18T12:04:34Z</time>
      </trkpt>
      <trkpt lat="45.65741" lon="5.25986">
        <ele>315.8</ele>
        <time>2025-05-18T12:04:35Z</time>
      </trkpt>
      <trkpt lat="45.6574" lon="5.25994">
        <ele>315.4</ele>
        <time>2025-05-18T12:04:36Z</time>
      </trkpt>
      <trkpt lat="45.65739" lon="5.26003">
        <ele>315</ele>
        <time>2025-05-18T12:04:37Z</time>
      </trkpt>
      <trkpt lat="45.65738" lon="5.26011">
        <ele>315.4</ele>
        <time>2025-05-18T12:04:38Z</time>
      </trkpt>
      <trkpt lat="45.65736" lon="5.26019">
        <ele>314.4</ele>
        <time>2025-05-18T12:04:39Z</time>
      </trkpt>
      <trkpt lat="45.65736" lon="5.26027">
        <ele>314.2</ele>
        <time>2025-05-18T12:04:40Z</time>
      </trkpt>
      <trkpt lat="45.65736" lon="5.26035">
        <ele>314.2</ele>
        <time>2025-05-18T12:04:41Z</time>
      </trkpt>
      <trkpt lat="45.65735" lon="5.26043">
        <ele>314.2</ele>
        <time>2025-05-18T12:04:42Z</time>
      </trkpt>
      <trkpt lat="45.65735" lon="5.2605">
        <ele>314.2</ele>
        <time>2025-05-18T12:04:43Z</time>
      </trkpt>
      <trkpt lat="45.65735" lon="5.26059">
        <ele>314.2</ele>
        <time>2025-05-18T12:04:44Z</time>
      </trkpt>
      <trkpt lat="45.65735" lon="5.26066">
        <ele>314.6</ele>
        <time>2025-05-18T12:04:45Z</time>
      </trkpt>
      <trkpt lat="45.65737" lon="5.26073">
        <ele>314.6</ele>
        <time>2025-05-18T12:04:46Z</time>
      </trkpt>
      <trkpt lat="45.65737" lon="5.26079">
        <ele>314.2</ele>
        <time>2025-05-18T12:04:47Z</time>
      </trkpt>
      <trkpt lat="45.65739" lon="5.26085">
        <ele>314.2</ele>
        <time>2025-05-18T12:04:48Z</time>
      </trkpt>
      <trkpt lat="45.65741" lon="5.26091">
        <ele>315</ele>
        <time>2025-05-18T12:04:49Z</time>
      </trkpt>
      <trkpt lat="45.65743" lon="5.26096">
        <ele>315</ele>
        <time>2025-05-18T12:04:50Z</time>
      </trkpt>
      <trkpt lat="45.65746" lon="5.26101">
        <ele>315</ele>
        <time>2025-05-18T12:04:51Z</time>
      </trkpt>
      <trkpt lat="45.65749" lon="5.26106">
        <ele>315</ele>
        <time>2025-05-18T12:04:52Z</time>
      </trkpt>
      <trkpt lat="45.65751" lon="5.2611">
        <ele>315</ele>
        <time>2025-05-18T12:04:53Z</time>
      </trkpt>
      <trkpt lat="45.65755" lon="5.26114">
        <ele>315</ele>
        <time>2025-05-18T12:04:54Z</time>
      </trkpt>
      <trkpt lat="45.65758" lon="5.26118">
        <ele>315.2</ele>
        <time>2025-05-18T12:04:55Z</time>
      </trkpt>
      <trkpt lat="45.65761" lon="5.26122">
        <ele>315.2</ele>
        <time>2025-05-18T12:04:56Z</time>
      </trkpt>
      <trkpt lat="45.65764" lon="5.26127">
        <ele>315.2</ele>
        <time>2025-05-18T12:04:57Z</time>
      </trkpt>
      <trkpt lat="45.65767" lon="5.26131">
        <ele>314.4</ele>
        <time>2025-05-18T12:04:58Z</time>
      </trkpt>
      <trkpt lat="45.65771" lon="5.26136">
        <ele>314.8</ele>
        <time>2025-05-18T12:04:59Z</time>
      </trkpt>
      <trkpt lat="45.65774" lon="5.2614">
        <ele>314.8</ele>
        <time>2025-05-18T12:05:00Z</time>
      </trkpt>
      <trkpt lat="45.65776" lon="5.26146">
        <ele>315.2</ele>
        <time>2025-05-18T12:05:01Z</time>
      </trkpt>
      <trkpt lat="45.6578" lon="5.26151">
        <ele>315.2</ele>
        <time>2025-05-18T12:05:02Z</time>
      </trkpt>
      <trkpt lat="45.65782" lon="5.26157">
        <ele>315.2</ele>
        <time>2025-05-18T12:05:03Z</time>
      </trkpt>
      <trkpt lat="45.65783" lon="5.26165">
        <ele>315.8</ele>
        <time>2025-05-18T12:05:04Z</time>
      </trkpt>
      <trkpt lat="45.65785" lon="5.2617">
        <ele>316</ele>
        <time>2025-05-18T12:05:05Z</time>
      </trkpt>
      <trkpt lat="45.65788" lon="5.26174">
        <ele>316</ele>
        <time>2025-05-18T12:05:06Z</time>
      </trkpt>
      <trkpt lat="45.65791" lon="5.26178">
        <ele>316</ele>
        <time>2025-05-18T12:05:07Z</time>
      </trkpt>
      <trkpt lat="45.65794" lon="5.26182">
        <ele>316.6</ele>
        <time>2025-05-18T12:05:08Z</time>
      </trkpt>
      <trkpt lat="45.65799" lon="5.26184">
        <ele>315.8</ele>
        <time>2025-05-18T12:05:09Z</time>
      </trkpt>
      <trkpt lat="45.65802" lon="5.26187">
        <ele>315.8</ele>
        <time>2025-05-18T12:05:10Z</time>
      </trkpt>
      <trkpt lat="45.65805" lon="5.26189">
        <ele>316.2</ele>
        <time>2025-05-18T12:05:11Z</time>
      </trkpt>
      <trkpt lat="45.65808" lon="5.2619">
        <ele>316.2</ele>
        <time>2025-05-18T12:05:12Z</time>
      </trkpt>
      <trkpt lat="45.65812" lon="5.26194">
        <ele>316.8</ele>
        <time>2025-05-18T12:05:13Z</time>
      </trkpt>
      <trkpt lat="45.65816" lon="5.26195">
        <ele>316.8</ele>
        <time>2025-05-18T12:05:14Z</time>
      </trkpt>
      <trkpt lat="45.6582" lon="5.26198">
        <ele>317.2</ele>
        <time>2025-05-18T12:05:15Z</time>
      </trkpt>
      <trkpt lat="45.65822" lon="5.26201">
        <ele>317.2</ele>
        <time>2025-05-18T12:05:16Z</time>
      </trkpt>
      <trkpt lat="45.65825" lon="5.26203">
        <ele>317.2</ele>
        <time>2025-05-18T12:05:17Z</time>
      </trkpt>
      <trkpt lat="45.65828" lon="5.26207">
        <ele>317.2</ele>
        <time>2025-05-18T12:05:18Z</time>
      </trkpt>
      <trkpt lat="45.65831" lon="5.26211">
        <ele>317.4</ele>
        <time>2025-05-18T12:05:19Z</time>
      </trkpt>
      <trkpt lat="45.65833" lon="5.26216">
        <ele>317.2</ele>
        <time>2025-05-18T12:05:20Z</time>
      </trkpt>
      <trkpt lat="45.65836" lon="5.26221">
        <ele>317.2</ele>
        <time>2025-05-18T12:05:21Z</time>
      </trkpt>
      <trkpt lat="45.65838" lon="5.26226">
        <ele>318</ele>
        <time>2025-05-18T12:05:22Z</time>
      </trkpt>
      <trkpt lat="45.6584" lon="5.26231">
        <ele>318.4</ele>
        <time>2025-05-18T12:05:23Z</time>
      </trkpt>
      <trkpt lat="45.65843" lon="5.26237">
        <ele>318.4</ele>
        <time>2025-05-18T12:05:24Z</time>
      </trkpt>
      <trkpt lat="45.65845" lon="5.26242">
        <ele>318.2</ele>
        <time>2025-05-18T12:05:25Z</time>
      </trkpt>
      <trkpt lat="45.65848" lon="5.26247">
        <ele>318.2</ele>
        <time>2025-05-18T12:05:26Z</time>
      </trkpt>
      <trkpt lat="45.65852" lon="5.26252">
        <ele>317.4</ele>
        <time>2025-05-18T12:05:27Z</time>
      </trkpt>
      <trkpt lat="45.65854" lon="5.26258">
        <ele>317.2</ele>
        <time>2025-05-18T12:05:28Z</time>
      </trkpt>
      <trkpt lat="45.65857" lon="5.26263">
        <ele>317.2</ele>
        <time>2025-05-18T12:05:29Z</time>
      </trkpt>
      <trkpt lat="45.65859" lon="5.26268">
        <ele>317.4</ele>
        <time>2025-05-18T12:05:30Z</time>
      </trkpt>
      <trkpt lat="45.65862" lon="5.26273">
        <ele>317.4</ele>
        <time>2025-05-18T12:05:31Z</time>
      </trkpt>
      <trkpt lat="45.65864" lon="5.26277">
        <ele>317.8</ele>
        <time>2025-05-18T12:05:32Z</time>
      </trkpt>
      <trkpt lat="45.65867" lon="5.26281">
        <ele>317.8</ele>
        <time>2025-05-18T12:05:33Z</time>
      </trkpt>
      <trkpt lat="45.6587" lon="5.26286">
        <ele>318.4</ele>
        <time>2025-05-18T12:05:34Z</time>
      </trkpt>
      <trkpt lat="45.65873" lon="5.26291">
        <ele>318.4</ele>
        <time>2025-05-18T12:05:35Z</time>
      </trkpt>
      <trkpt lat="45.65876" lon="5.26296">
        <ele>318.4</ele>
        <time>2025-05-18T12:05:36Z</time>
      </trkpt>
      <trkpt lat="45.6588" lon="5.26301">
        <ele>317.8</ele>
        <time>2025-05-18T12:05:37Z</time>
      </trkpt>
      <trkpt lat="45.65883" lon="5.26307">
        <ele>317.4</ele>
        <time>2025-05-18T12:05:38Z</time>
      </trkpt>
      <trkpt lat="45.65886" lon="5.26312">
        <ele>317</ele>
        <time>2025-05-18T12:05:39Z</time>
      </trkpt>
      <trkpt lat="45.65889" lon="5.26316">
        <ele>317.2</ele>
        <time>2025-05-18T12:05:40Z</time>
      </trkpt>
      <trkpt lat="45.65892" lon="5.26321">
        <ele>317</ele>
        <time>2025-05-18T12:05:41Z</time>
      </trkpt>
      <trkpt lat="45.65895" lon="5.26325">
        <ele>317.4</ele>
        <time>2025-05-18T12:05:42Z</time>
      </trkpt>
      <trkpt lat="45.65898" lon="5.2633">
        <ele>317.8</ele>
        <time>2025-05-18T12:05:43Z</time>
      </trkpt>
      <trkpt lat="45.65901" lon="5.26335">
        <ele>317.8</ele>
        <time>2025-05-18T12:05:44Z</time>
      </trkpt>
      <trkpt lat="45.65903" lon="5.2634">
        <ele>317.8</ele>
        <time>2025-05-18T12:05:45Z</time>
      </trkpt>
      <trkpt lat="45.65906" lon="5.26344">
        <ele>317.2</ele>
        <time>2025-05-18T12:05:46Z</time>
      </trkpt>
      <trkpt lat="45.65909" lon="5.2635">
        <ele>317.2</ele>
        <time>2025-05-18T12:05:47Z</time>
      </trkpt>
      <trkpt lat="45.65911" lon="5.26357">
        <ele>317.2</ele>
        <time>2025-05-18T12:05:48Z</time>
      </trkpt>
      <trkpt lat="45.65914" lon="5.2636">
        <ele>317.6</ele>
        <time>2025-05-18T12:05:49Z</time>
      </trkpt>
      <trkpt lat="45.65917" lon="5.26365">
        <ele>317.6</ele>
        <time>2025-05-18T12:05:50Z</time>
      </trkpt>
      <trkpt lat="45.6592" lon="5.26369">
        <ele>318</ele>
        <time>2025-05-18T12:05:51Z</time>
      </trkpt>
      <trkpt lat="45.65923" lon="5.26373">
        <ele>318</ele>
        <time>2025-05-18T12:05:52Z</time>
      </trkpt>
      <trkpt lat="45.65925" lon="5.26378">
        <ele>318.4</ele>
        <time>2025-05-18T12:05:53Z</time>
      </trkpt>
      <trkpt lat="45.65925" lon="5.26378">
        <ele>318</ele>
        <time>2025-05-18T12:05:54Z</time>
      </trkpt>
      <trkpt lat="45.65928" lon="5.26381">
        <ele>318</ele>
        <time>2025-05-18T12:05:55Z</time>
      </trkpt>
      <trkpt lat="45.6593" lon="5.26385">
        <ele>318.4</ele>
        <time>2025-05-18T12:05:56Z</time>
      </trkpt>
      <trkpt lat="45.65933" lon="5.26388">
        <ele>318</ele>
        <time>2025-05-18T12:05:57Z</time>
      </trkpt>
      <trkpt lat="45.65936" lon="5.26392">
        <ele>317.6</ele>
        <time>2025-05-18T12:05:58Z</time>
      </trkpt>
      <trkpt lat="45.65938" lon="5.26396">
        <ele>317.6</ele>
        <time>2025-05-18T12:05:59Z</time>
      </trkpt>
      <trkpt lat="45.6594" lon="5.264">
        <ele>318.2</ele>
        <time>2025-05-18T12:06:00Z</time>
      </trkpt>
      <trkpt lat="45.65942" lon="5.26404">
        <ele>319</ele>
        <time>2025-05-18T12:06:01Z</time>
      </trkpt>
      <trkpt lat="45.65943" lon="5.26408">
        <ele>319</ele>
        <time>2025-05-18T12:06:02Z</time>
      </trkpt>
      <trkpt lat="45.65945" lon="5.26412">
        <ele>319</ele>
        <time>2025-05-18T12:06:03Z</time>
      </trkpt>
      <trkpt lat="45.65948" lon="5.26417">
        <ele>319</ele>
        <time>2025-05-18T12:06:04Z</time>
      </trkpt>
      <trkpt lat="45.6595" lon="5.2642">
        <ele>319</ele>
        <time>2025-05-18T12:06:05Z</time>
      </trkpt>
      <trkpt lat="45.65951" lon="5.26423">
        <ele>319</ele>
        <time>2025-05-18T12:06:06Z</time>
      </trkpt>
      <trkpt lat="45.65953" lon="5.26427">
        <ele>319.6</ele>
        <time>2025-05-18T12:06:07Z</time>
      </trkpt>
      <trkpt lat="45.65955" lon="5.2643">
        <ele>319.6</ele>
        <time>2025-05-18T12:06:08Z</time>
      </trkpt>
      <trkpt lat="45.65956" lon="5.26432">
        <ele>319.6</ele>
        <time>2025-05-18T12:06:09Z</time>
      </trkpt>
      <trkpt lat="45.65958" lon="5.26434">
        <ele>319</ele>
        <time>2025-05-18T12:06:10Z</time>
      </trkpt>
      <trkpt lat="45.6596" lon="5.26437">
        <ele>319</ele>
        <time>2025-05-18T12:06:11Z</time>
      </trkpt>
      <trkpt lat="45.65962" lon="5.26441">
        <ele>319</ele>
        <time>2025-05-18T12:06:12Z</time>
      </trkpt>
      <trkpt lat="45.65963" lon="5.26445">
        <ele>319.4</ele>
        <time>2025-05-18T12:06:13Z</time>
      </trkpt>
      <trkpt lat="45.65964" lon="5.26452">
        <ele>319</ele>
        <time>2025-05-18T12:06:14Z</time>
      </trkpt>
      <trkpt lat="45.65965" lon="5.26457">
        <ele>319.4</ele>
        <time>2025-05-18T12:06:15Z</time>
      </trkpt>
      <trkpt lat="45.65967" lon="5.26464">
        <ele>320</ele>
        <time>2025-05-18T12:06:16Z</time>
      </trkpt>
      <trkpt lat="45.65968" lon="5.26469">
        <ele>320.8</ele>
        <time>2025-05-18T12:06:17Z</time>
      </trkpt>
      <trkpt lat="45.65969" lon="5.26473">
        <ele>320.8</ele>
        <time>2025-05-18T12:06:18Z</time>
      </trkpt>
      <trkpt lat="45.6597" lon="5.26479">
        <ele>320.2</ele>
        <time>2025-05-18T12:06:19Z</time>
      </trkpt>
      <trkpt lat="45.65972" lon="5.26484">
        <ele>320</ele>
        <time>2025-05-18T12:06:20Z</time>
      </trkpt>
      <trkpt lat="45.65974" lon="5.26488">
        <ele>319.8</ele>
        <time>2025-05-18T12:06:21Z</time>
      </trkpt>
      <trkpt lat="45.65976" lon="5.26494">
        <ele>318.6</ele>
        <time>2025-05-18T12:06:22Z</time>
      </trkpt>
      <trkpt lat="45.65979" lon="5.265">
        <ele>318.4</ele>
        <time>2025-05-18T12:06:23Z</time>
      </trkpt>
      <trkpt lat="45.6598" lon="5.26505">
        <ele>318.6</ele>
        <time>2025-05-18T12:06:24Z</time>
      </trkpt>
      <trkpt lat="45.65982" lon="5.2651">
        <ele>318.6</ele>
        <time>2025-05-18T12:06:25Z</time>
      </trkpt>
      <trkpt lat="45.65984" lon="5.26515">
        <ele>319.4</ele>
        <time>2025-05-18T12:06:26Z</time>
      </trkpt>
      <trkpt lat="45.65986" lon="5.2652">
        <ele>318.8</ele>
        <time>2025-05-18T12:06:27Z</time>
      </trkpt>
      <trkpt lat="45.65988" lon="5.26524">
        <ele>318.8</ele>
        <time>2025-05-18T12:06:28Z</time>
      </trkpt>
      <trkpt lat="45.65991" lon="5.26528">
        <ele>317.8</ele>
        <time>2025-05-18T12:06:29Z</time>
      </trkpt>
      <trkpt lat="45.65993" lon="5.26533">
        <ele>318</ele>
        <time>2025-05-18T12:06:30Z</time>
      </trkpt>
      <trkpt lat="45.65996" lon="5.26537">
        <ele>318.6</ele>
        <time>2025-05-18T12:06:31Z</time>
      </trkpt>
      <trkpt lat="45.65998" lon="5.26541">
        <ele>318.6</ele>
        <time>2025-05-18T12:06:32Z</time>
      </trkpt>
      <trkpt lat="45.66001" lon="5.26545">
        <ele>318.2</ele>
        <time>2025-05-18T12:06:33Z</time>
      </trkpt>
      <trkpt lat="45.66003" lon="5.26548">
        <ele>318.2</ele>
        <time>2025-05-18T12:06:34Z</time>
      </trkpt>
      <trkpt lat="45.66005" lon="5.26552">
        <ele>317.6</ele>
        <time>2025-05-18T12:06:35Z</time>
      </trkpt>
      <trkpt lat="45.66007" lon="5.26556">
        <ele>318.2</ele>
        <time>2025-05-18T12:06:36Z</time>
      </trkpt>
      <trkpt lat="45.66009" lon="5.26562">
        <ele>318.4</ele>
        <time>2025-05-18T12:06:37Z</time>
      </trkpt>
      <trkpt lat="45.66012" lon="5.26566">
        <ele>318.8</ele>
        <time>2025-05-18T12:06:38Z</time>
      </trkpt>
      <trkpt lat="45.66014" lon="5.26571">
        <ele>318.8</ele>
        <time>2025-05-18T12:06:39Z</time>
      </trkpt>
      <trkpt lat="45.66016" lon="5.26576">
        <ele>318</ele>
        <time>2025-05-18T12:06:40Z</time>
      </trkpt>
      <trkpt lat="45.66019" lon="5.2658">
        <ele>317.6</ele>
        <time>2025-05-18T12:06:41Z</time>
      </trkpt>
      <trkpt lat="45.66021" lon="5.26586">
        <ele>317.4</ele>
        <time>2025-05-18T12:06:42Z</time>
      </trkpt>
      <trkpt lat="45.66022" lon="5.26591">
        <ele>317.2</ele>
        <time>2025-05-18T12:06:43Z</time>
      </trkpt>
      <trkpt lat="45.66024" lon="5.26596">
        <ele>317.2</ele>
        <time>2025-05-18T12:06:44Z</time>
      </trkpt>
      <trkpt lat="45.66026" lon="5.26599">
        <ele>317.4</ele>
        <time>2025-05-18T12:06:45Z</time>
      </trkpt>
      <trkpt lat="45.66028" lon="5.26603">
        <ele>317.4</ele>
        <time>2025-05-18T12:06:46Z</time>
      </trkpt>
      <trkpt lat="45.6603" lon="5.26607">
        <ele>318</ele>
        <time>2025-05-18T12:06:47Z</time>
      </trkpt>
      <trkpt lat="45.66031" lon="5.26611">
        <ele>318.4</ele>
        <time>2025-05-18T12:06:48Z</time>
      </trkpt>
      <trkpt lat="45.66033" lon="5.26616">
        <ele>318.4</ele>
        <time>2025-05-18T12:06:49Z</time>
      </trkpt>
      <trkpt lat="45.66035" lon="5.26621">
        <ele>318.2</ele>
        <time>2025-05-18T12:06:50Z</time>
      </trkpt>
      <trkpt lat="45.66037" lon="5.26625">
        <ele>317.8</ele>
        <time>2025-05-18T12:06:51Z</time>
      </trkpt>
      <trkpt lat="45.66039" lon="5.2663">
        <ele>318</ele>
        <time>2025-05-18T12:06:52Z</time>
      </trkpt>
      <trkpt lat="45.66042" lon="5.26634">
        <ele>317.6</ele>
        <time>2025-05-18T12:06:53Z</time>
      </trkpt>
      <trkpt lat="45.66045" lon="5.26637">
        <ele>317.6</ele>
        <time>2025-05-18T12:06:54Z</time>
      </trkpt>
      <trkpt lat="45.66048" lon="5.26641">
        <ele>318.2</ele>
        <time>2025-05-18T12:06:55Z</time>
      </trkpt>
      <trkpt lat="45.66051" lon="5.26644">
        <ele>319</ele>
        <time>2025-05-18T12:06:56Z</time>
      </trkpt>
      <trkpt lat="45.66054" lon="5.26647">
        <ele>320</ele>
        <time>2025-05-18T12:06:57Z</time>
      </trkpt>
      <trkpt lat="45.66057" lon="5.2665">
        <ele>318.6</ele>
        <time>2025-05-18T12:06:58Z</time>
      </trkpt>
      <trkpt lat="45.6606" lon="5.26654">
        <ele>318.6</ele>
        <time>2025-05-18T12:06:59Z</time>
      </trkpt>
      <trkpt lat="45.66065" lon="5.26657">
        <ele>318.6</ele>
        <time>2025-05-18T12:07:00Z</time>
      </trkpt>
      <trkpt lat="45.66068" lon="5.26662">
        <ele>318.6</ele>
        <time>2025-05-18T12:07:01Z</time>
      </trkpt>
      <trkpt lat="45.66071" lon="5.26665">
        <ele>318</ele>
        <time>2025-05-18T12:07:02Z</time>
      </trkpt>
      <trkpt lat="45.66073" lon="5.26669">
        <ele>318</ele>
        <time>2025-05-18T12:07:03Z</time>
      </trkpt>
      <trkpt lat="45.66077" lon="5.26673">
        <ele>318.4</ele>
        <time>2025-05-18T12:07:04Z</time>
      </trkpt>
      <trkpt lat="45.66079" lon="5.26677">
        <ele>318.4</ele>
        <time>2025-05-18T12:07:05Z</time>
      </trkpt>
      <trkpt lat="45.66081" lon="5.26682">
        <ele>319</ele>
        <time>2025-05-18T12:07:06Z</time>
      </trkpt>
      <trkpt lat="45.66084" lon="5.26686">
        <ele>318.2</ele>
        <time>2025-05-18T12:07:07Z</time>
      </trkpt>
      <trkpt lat="45.66087" lon="5.26689">
        <ele>319.6</ele>
        <time>2025-05-18T12:07:08Z</time>
      </trkpt>
      <trkpt lat="45.66091" lon="5.26691">
        <ele>319.8</ele>
        <time>2025-05-18T12:07:09Z</time>
      </trkpt>
      <trkpt lat="45.66093" lon="5.26696">
        <ele>319.8</ele>
        <time>2025-05-18T12:07:10Z</time>
      </trkpt>
      <trkpt lat="45.66097" lon="5.26699">
        <ele>319.8</ele>
        <time>2025-05-18T12:07:11Z</time>
      </trkpt>
      <trkpt lat="45.661" lon="5.26703">
        <ele>320</ele>
        <time>2025-05-18T12:07:12Z</time>
      </trkpt>
      <trkpt lat="45.66103" lon="5.26706">
        <ele>320</ele>
        <time>2025-05-18T12:07:13Z</time>
      </trkpt>
      <trkpt lat="45.66105" lon="5.26709">
        <ele>320</ele>
        <time>2025-05-18T12:07:14Z</time>
      </trkpt>
      <trkpt lat="45.66108" lon="5.26712">
        <ele>320</ele>
        <time>2025-05-18T12:07:15Z</time>
      </trkpt>
      <trkpt lat="45.6611" lon="5.26715">
        <ele>320.4</ele>
        <time>2025-05-18T12:07:16Z</time>
      </trkpt>
      <trkpt lat="45.66113" lon="5.26718">
        <ele>320.4</ele>
        <time>2025-05-18T12:07:17Z</time>
      </trkpt>
      <trkpt lat="45.66116" lon="5.26721">
        <ele>320.6</ele>
        <time>2025-05-18T12:07:18Z</time>
      </trkpt>
      <trkpt lat="45.66119" lon="5.26725">
        <ele>320.6</ele>
        <time>2025-05-18T12:07:19Z</time>
      </trkpt>
      <trkpt lat="45.66122" lon="5.26728">
        <ele>320.4</ele>
        <time>2025-05-18T12:07:20Z</time>
      </trkpt>
      <trkpt lat="45.66125" lon="5.26731">
        <ele>320.6</ele>
        <time>2025-05-18T12:07:21Z</time>
      </trkpt>
      <trkpt lat="45.66128" lon="5.26735">
        <ele>320.8</ele>
        <time>2025-05-18T12:07:22Z</time>
      </trkpt>
      <trkpt lat="45.6613" lon="5.26738">
        <ele>320.8</ele>
        <time>2025-05-18T12:07:23Z</time>
      </trkpt>
      <trkpt lat="45.66133" lon="5.26742">
        <ele>320.8</ele>
        <time>2025-05-18T12:07:24Z</time>
      </trkpt>
      <trkpt lat="45.66136" lon="5.26745">
        <ele>320.8</ele>
        <time>2025-05-18T12:07:25Z</time>
      </trkpt>
      <trkpt lat="45.66139" lon="5.26748">
        <ele>321.2</ele>
        <time>2025-05-18T12:07:26Z</time>
      </trkpt>
      <trkpt lat="45.66141" lon="5.26751">
        <ele>321.4</ele>
        <time>2025-05-18T12:07:27Z</time>
      </trkpt>
      <trkpt lat="45.66144" lon="5.26755">
        <ele>321.8</ele>
        <time>2025-05-18T12:07:28Z</time>
      </trkpt>
      <trkpt lat="45.66147" lon="5.26758">
        <ele>322</ele>
        <time>2025-05-18T12:07:29Z</time>
      </trkpt>
      <trkpt lat="45.66149" lon="5.26761">
        <ele>322</ele>
        <time>2025-05-18T12:07:30Z</time>
      </trkpt>
      <trkpt lat="45.66152" lon="5.26765">
        <ele>322</ele>
        <time>2025-05-18T12:07:31Z</time>
      </trkpt>
      <trkpt lat="45.66154" lon="5.26769">
        <ele>322</ele>
        <time>2025-05-18T12:07:32Z</time>
      </trkpt>
      <trkpt lat="45.66156" lon="5.26772">
        <ele>322.4</ele>
        <time>2025-05-18T12:07:33Z</time>
      </trkpt>
      <trkpt lat="45.66159" lon="5.26775">
        <ele>322.8</ele>
        <time>2025-05-18T12:07:34Z</time>
      </trkpt>
      <trkpt lat="45.66161" lon="5.26778">
        <ele>323.2</ele>
        <time>2025-05-18T12:07:35Z</time>
      </trkpt>
      <trkpt lat="45.66163" lon="5.2678">
        <ele>323.4</ele>
        <time>2025-05-18T12:07:36Z</time>
      </trkpt>
      <trkpt lat="45.66165" lon="5.26782">
        <ele>323.4</ele>
        <time>2025-05-18T12:07:37Z</time>
      </trkpt>
      <trkpt lat="45.66167" lon="5.26785">
        <ele>323.4</ele>
        <time>2025-05-18T12:07:38Z</time>
      </trkpt>
      <trkpt lat="45.6617" lon="5.26788">
        <ele>323.2</ele>
        <time>2025-05-18T12:07:39Z</time>
      </trkpt>
      <trkpt lat="45.66172" lon="5.26792">
        <ele>323.2</ele>
        <time>2025-05-18T12:07:40Z</time>
      </trkpt>
      <trkpt lat="45.66175" lon="5.26796">
        <ele>323.4</ele>
        <time>2025-05-18T12:07:41Z</time>
      </trkpt>
      <trkpt lat="45.66177" lon="5.26799">
        <ele>323.2</ele>
        <time>2025-05-18T12:07:42Z</time>
      </trkpt>
      <trkpt lat="45.66179" lon="5.26803">
        <ele>323.2</ele>
        <time>2025-05-18T12:07:43Z</time>
      </trkpt>
      <trkpt lat="45.66182" lon="5.26807">
        <ele>322.6</ele>
        <time>2025-05-18T12:07:44Z</time>
      </trkpt>
      <trkpt lat="45.66184" lon="5.26812">
        <ele>323.2</ele>
        <time>2025-05-18T12:07:45Z</time>
      </trkpt>
      <trkpt lat="45.66187" lon="5.26816">
        <ele>323.2</ele>
        <time>2025-05-18T12:07:46Z</time>
      </trkpt>
      <trkpt lat="45.66189" lon="5.26821">
        <ele>323.2</ele>
        <time>2025-05-18T12:07:47Z</time>
      </trkpt>
      <trkpt lat="45.66191" lon="5.26827">
        <ele>323</ele>
        <time>2025-05-18T12:07:48Z</time>
      </trkpt>
      <trkpt lat="45.66194" lon="5.26831">
        <ele>323</ele>
        <time>2025-05-18T12:07:49Z</time>
      </trkpt>
      <trkpt lat="45.66196" lon="5.26834">
        <ele>323</ele>
        <time>2025-05-18T12:07:50Z</time>
      </trkpt>
      <trkpt lat="45.66199" lon="5.26839">
        <ele>323</ele>
        <time>2025-05-18T12:07:51Z</time>
      </trkpt>
      <trkpt lat="45.66202" lon="5.26844">
        <ele>323.2</ele>
        <time>2025-05-18T12:07:52Z</time>
      </trkpt>
      <trkpt lat="45.66204" lon="5.26848">
        <ele>323.2</ele>
        <time>2025-05-18T12:07:53Z</time>
      </trkpt>
      <trkpt lat="45.66207" lon="5.26852">
        <ele>323.2</ele>
        <time>2025-05-18T12:07:54Z</time>
      </trkpt>
      <trkpt lat="45.66209" lon="5.26855">
        <ele>323.2</ele>
        <time>2025-05-18T12:07:55Z</time>
      </trkpt>
      <trkpt lat="45.66212" lon="5.2686">
        <ele>322.8</ele>
        <time>2025-05-18T12:07:56Z</time>
      </trkpt>
      <trkpt lat="45.66215" lon="5.26865">
        <ele>322.8</ele>
        <time>2025-05-18T12:07:57Z</time>
      </trkpt>
      <trkpt lat="45.66216" lon="5.26869">
        <ele>322.8</ele>
        <time>2025-05-18T12:07:58Z</time>
      </trkpt>
      <trkpt lat="45.66216" lon="5.26875">
        <ele>322.4</ele>
        <time>2025-05-18T12:07:59Z</time>
      </trkpt>
      <trkpt lat="45.66214" lon="5.26881">
        <ele>322</ele>
        <time>2025-05-18T12:08:00Z</time>
      </trkpt>
      <trkpt lat="45.6621" lon="5.26885">
        <ele>321.6</ele>
        <time>2025-05-18T12:08:01Z</time>
      </trkpt>
      <trkpt lat="45.66206" lon="5.2689">
        <ele>321.4</ele>
        <time>2025-05-18T12:08:02Z</time>
      </trkpt>
      <trkpt lat="45.66201" lon="5.26895">
        <ele>321</ele>
        <time>2025-05-18T12:08:03Z</time>
      </trkpt>
      <trkpt lat="45.66195" lon="5.26899">
        <ele>320.6</ele>
        <time>2025-05-18T12:08:04Z</time>
      </trkpt>
      <trkpt lat="45.66189" lon="5.26903">
        <ele>320.2</ele>
        <time>2025-05-18T12:08:05Z</time>
      </trkpt>
      <trkpt lat="45.66183" lon="5.26908">
        <ele>319.8</ele>
        <time>2025-05-18T12:08:06Z</time>
      </trkpt>
      <trkpt lat="45.66177" lon="5.26914">
        <ele>319.4</ele>
        <time>2025-05-18T12:08:07Z</time>
      </trkpt>
      <trkpt lat="45.66171" lon="5.26919">
        <ele>319</ele>
        <time>2025-05-18T12:08:08Z</time>
      </trkpt>
      <trkpt lat="45.66165" lon="5.26924">
        <ele>318.4</ele>
        <time>2025-05-18T12:08:09Z</time>
      </trkpt>
      <trkpt lat="45.66158" lon="5.26929">
        <ele>318</ele>
        <time>2025-05-18T12:08:10Z</time>
      </trkpt>
      <trkpt lat="45.66152" lon="5.26934">
        <ele>317.8</ele>
        <time>2025-05-18T12:08:11Z</time>
      </trkpt>
      <trkpt lat="45.66146" lon="5.2694">
        <ele>317.4</ele>
        <time>2025-05-18T12:08:12Z</time>
      </trkpt>
      <trkpt lat="45.6614" lon="5.26945">
        <ele>317.2</ele>
        <time>2025-05-18T12:08:13Z</time>
      </trkpt>
      <trkpt lat="45.66135" lon="5.26951">
        <ele>317.2</ele>
        <time>2025-05-18T12:08:14Z</time>
      </trkpt>
      <trkpt lat="45.66129" lon="5.26956">
        <ele>316.8</ele>
        <time>2025-05-18T12:08:15Z</time>
      </trkpt>
      <trkpt lat="45.66123" lon="5.2696">
        <ele>316.6</ele>
        <time>2025-05-18T12:08:16Z</time>
      </trkpt>
      <trkpt lat="45.66117" lon="5.26965">
        <ele>316.6</ele>
        <time>2025-05-18T12:08:17Z</time>
      </trkpt>
      <trkpt lat="45.66111" lon="5.26969">
        <ele>316.6</ele>
        <time>2025-05-18T12:08:18Z</time>
      </trkpt>
      <trkpt lat="45.66106" lon="5.26973">
        <ele>316.6</ele>
        <time>2025-05-18T12:08:19Z</time>
      </trkpt>
      <trkpt lat="45.661" lon="5.26977">
        <ele>316.4</ele>
        <time>2025-05-18T12:08:20Z</time>
      </trkpt>
      <trkpt lat="45.66094" lon="5.26981">
        <ele>316</ele>
        <time>2025-05-18T12:08:21Z</time>
      </trkpt>
      <trkpt lat="45.66083" lon="5.26992">
        <ele>315.8</ele>
        <time>2025-05-18T12:08:22Z</time>
      </trkpt>
      <trkpt lat="45.66077" lon="5.26998">
        <ele>315.2</ele>
        <time>2025-05-18T12:08:23Z</time>
      </trkpt>
      <trkpt lat="45.6607" lon="5.27002">
        <ele>314.6</ele>
        <time>2025-05-18T12:08:24Z</time>
      </trkpt>
      <trkpt lat="45.66064" lon="5.27008">
        <ele>314.2</ele>
        <time>2025-05-18T12:08:25Z</time>
      </trkpt>
      <trkpt lat="45.66058" lon="5.27014">
        <ele>313.8</ele>
        <time>2025-05-18T12:08:26Z</time>
      </trkpt>
      <trkpt lat="45.66051" lon="5.2702">
        <ele>313.6</ele>
        <time>2025-05-18T12:08:27Z</time>
      </trkpt>
      <trkpt lat="45.66045" lon="5.27027">
        <ele>312.8</ele>
        <time>2025-05-18T12:08:28Z</time>
      </trkpt>
      <trkpt lat="45.66038" lon="5.27035">
        <ele>312.6</ele>
        <time>2025-05-18T12:08:29Z</time>
      </trkpt>
      <trkpt lat="45.66032" lon="5.27044">
        <ele>311.2</ele>
        <time>2025-05-18T12:08:30Z</time>
      </trkpt>
      <trkpt lat="45.66025" lon="5.27053">
        <ele>310.6</ele>
        <time>2025-05-18T12:08:31Z</time>
      </trkpt>
      <trkpt lat="45.66018" lon="5.27061">
        <ele>310</ele>
        <time>2025-05-18T12:08:32Z</time>
      </trkpt>
      <trkpt lat="45.6601" lon="5.27069">
        <ele>309</ele>
        <time>2025-05-18T12:08:33Z</time>
      </trkpt>
      <trkpt lat="45.66002" lon="5.27077">
        <ele>307.6</ele>
        <time>2025-05-18T12:08:34Z</time>
      </trkpt>
      <trkpt lat="45.65993" lon="5.27084">
        <ele>307</ele>
        <time>2025-05-18T12:08:35Z</time>
      </trkpt>
      <trkpt lat="45.65984" lon="5.27091">
        <ele>305.4</ele>
        <time>2025-05-18T12:08:36Z</time>
      </trkpt>
      <trkpt lat="45.65976" lon="5.27098">
        <ele>305.4</ele>
        <time>2025-05-18T12:08:37Z</time>
      </trkpt>
      <trkpt lat="45.65967" lon="5.27105">
        <ele>304.8</ele>
        <time>2025-05-18T12:08:38Z</time>
      </trkpt>
      <trkpt lat="45.65958" lon="5.27112">
        <ele>304.8</ele>
        <time>2025-05-18T12:08:39Z</time>
      </trkpt>
      <trkpt lat="45.65949" lon="5.27118">
        <ele>304.4</ele>
        <time>2025-05-18T12:08:40Z</time>
      </trkpt>
      <trkpt lat="45.65939" lon="5.27124">
        <ele>303.8</ele>
        <time>2025-05-18T12:08:41Z</time>
      </trkpt>
      <trkpt lat="45.6593" lon="5.2713">
        <ele>303.2</ele>
        <time>2025-05-18T12:08:42Z</time>
      </trkpt>
      <trkpt lat="45.65921" lon="5.27135">
        <ele>302.8</ele>
        <time>2025-05-18T12:08:43Z</time>
      </trkpt>
      <trkpt lat="45.65911" lon="5.2714">
        <ele>302.4</ele>
        <time>2025-05-18T12:08:44Z</time>
      </trkpt>
      <trkpt lat="45.65901" lon="5.27142">
        <ele>302.4</ele>
        <time>2025-05-18T12:08:45Z</time>
      </trkpt>
      <trkpt lat="45.65891" lon="5.27146">
        <ele>301</ele>
        <time>2025-05-18T12:08:46Z</time>
      </trkpt>
      <trkpt lat="45.65882" lon="5.27149">
        <ele>300</ele>
        <time>2025-05-18T12:08:47Z</time>
      </trkpt>
      <trkpt lat="45.65873" lon="5.27152">
        <ele>300</ele>
        <time>2025-05-18T12:08:48Z</time>
      </trkpt>
      <trkpt lat="45.65866" lon="5.27156">
        <ele>300.2</ele>
        <time>2025-05-18T12:08:49Z</time>
      </trkpt>
      <trkpt lat="45.65858" lon="5.2716">
        <ele>300.2</ele>
        <time>2025-05-18T12:08:50Z</time>
      </trkpt>
      <trkpt lat="45.65853" lon="5.27165">
        <ele>299.4</ele>
        <time>2025-05-18T12:08:51Z</time>
      </trkpt>
      <trkpt lat="45.65848" lon="5.27172">
        <ele>298.8</ele>
        <time>2025-05-18T12:08:52Z</time>
      </trkpt>
      <trkpt lat="45.65846" lon="5.2718">
        <ele>298.2</ele>
        <time>2025-05-18T12:08:53Z</time>
      </trkpt>
      <trkpt lat="45.65843" lon="5.27192">
        <ele>297.2</ele>
        <time>2025-05-18T12:08:54Z</time>
      </trkpt>
      <trkpt lat="45.65844" lon="5.27204">
        <ele>296.6</ele>
        <time>2025-05-18T12:08:55Z</time>
      </trkpt>
      <trkpt lat="45.65846" lon="5.27217">
        <ele>295</ele>
        <time>2025-05-18T12:08:56Z</time>
      </trkpt>
      <trkpt lat="45.65848" lon="5.27231">
        <ele>292.6</ele>
        <time>2025-05-18T12:08:57Z</time>
      </trkpt>
      <trkpt lat="45.65851" lon="5.27246">
        <ele>290.4</ele>
        <time>2025-05-18T12:08:58Z</time>
      </trkpt>
      <trkpt lat="45.65853" lon="5.2726">
        <ele>288.4</ele>
        <time>2025-05-18T12:08:59Z</time>
      </trkpt>
      <trkpt lat="45.65856" lon="5.27274">
        <ele>287</ele>
        <time>2025-05-18T12:09:00Z</time>
      </trkpt>
      <trkpt lat="45.65858" lon="5.27289">
        <ele>285.2</ele>
        <time>2025-05-18T12:09:01Z</time>
      </trkpt>
      <trkpt lat="45.65862" lon="5.27304">
        <ele>283.2</ele>
        <time>2025-05-18T12:09:02Z</time>
      </trkpt>
      <trkpt lat="45.65865" lon="5.27317">
        <ele>281.4</ele>
        <time>2025-05-18T12:09:03Z</time>
      </trkpt>
      <trkpt lat="45.65868" lon="5.2733">
        <ele>279.4</ele>
        <time>2025-05-18T12:09:04Z</time>
      </trkpt>
      <trkpt lat="45.65872" lon="5.27344">
        <ele>277.6</ele>
        <time>2025-05-18T12:09:05Z</time>
      </trkpt>
      <trkpt lat="45.65875" lon="5.27359">
        <ele>275.8</ele>
        <time>2025-05-18T12:09:06Z</time>
      </trkpt>
      <trkpt lat="45.65879" lon="5.27373">
        <ele>274</ele>
        <time>2025-05-18T12:09:07Z</time>
      </trkpt>
      <trkpt lat="45.65884" lon="5.27387">
        <ele>272.6</ele>
        <time>2025-05-18T12:09:08Z</time>
      </trkpt>
      <trkpt lat="45.65889" lon="5.27401">
        <ele>270</ele>
        <time>2025-05-18T12:09:09Z</time>
      </trkpt>
      <trkpt lat="45.65895" lon="5.27417">
        <ele>268</ele>
        <time>2025-05-18T12:09:10Z</time>
      </trkpt>
      <trkpt lat="45.65901" lon="5.27432">
        <ele>266</ele>
        <time>2025-05-18T12:09:11Z</time>
      </trkpt>
      <trkpt lat="45.65906" lon="5.27447">
        <ele>264.2</ele>
        <time>2025-05-18T12:09:12Z</time>
      </trkpt>
      <trkpt lat="45.6591" lon="5.27462">
        <ele>263.2</ele>
        <time>2025-05-18T12:09:13Z</time>
      </trkpt>
      <trkpt lat="45.65913" lon="5.27473">
        <ele>262.4</ele>
        <time>2025-05-18T12:09:14Z</time>
      </trkpt>
      <trkpt lat="45.65915" lon="5.27483">
        <ele>262</ele>
        <time>2025-05-18T12:09:15Z</time>
      </trkpt>
      <trkpt lat="45.65916" lon="5.27491">
        <ele>261.4</ele>
        <time>2025-05-18T12:09:16Z</time>
      </trkpt>
      <trkpt lat="45.65918" lon="5.27497">
        <ele>261.4</ele>
        <time>2025-05-18T12:09:17Z</time>
      </trkpt>
      <trkpt lat="45.6592" lon="5.27505">
        <ele>261.4</ele>
        <time>2025-05-18T12:09:18Z</time>
      </trkpt>
      <trkpt lat="45.65921" lon="5.27511">
        <ele>261.4</ele>
        <time>2025-05-18T12:09:19Z</time>
      </trkpt>
      <trkpt lat="45.65922" lon="5.27519">
        <ele>261.2</ele>
        <time>2025-05-18T12:09:20Z</time>
      </trkpt>
      <trkpt lat="45.65924" lon="5.27526">
        <ele>260.6</ele>
        <time>2025-05-18T12:09:21Z</time>
      </trkpt>
      <trkpt lat="45.65925" lon="5.27534">
        <ele>260.2</ele>
        <time>2025-05-18T12:09:22Z</time>
      </trkpt>
      <trkpt lat="45.65928" lon="5.27543">
        <ele>260</ele>
        <time>2025-05-18T12:09:23Z</time>
      </trkpt>
      <trkpt lat="45.65929" lon="5.27552">
        <ele>259.4</ele>
        <time>2025-05-18T12:09:24Z</time>
      </trkpt>
      <trkpt lat="45.6593" lon="5.2756">
        <ele>259</ele>
        <time>2025-05-18T12:09:25Z</time>
      </trkpt>
      <trkpt lat="45.65931" lon="5.27569">
        <ele>258.4</ele>
        <time>2025-05-18T12:09:26Z</time>
      </trkpt>
      <trkpt lat="45.65932" lon="5.27578">
        <ele>257.2</ele>
        <time>2025-05-18T12:09:27Z</time>
      </trkpt>
      <trkpt lat="45.65933" lon="5.27586">
        <ele>256.6</ele>
        <time>2025-05-18T12:09:28Z</time>
      </trkpt>
      <trkpt lat="45.65935" lon="5.27595">
        <ele>255.6</ele>
        <time>2025-05-18T12:09:29Z</time>
      </trkpt>
      <trkpt lat="45.65937" lon="5.27604">
        <ele>254.8</ele>
        <time>2025-05-18T12:09:30Z</time>
      </trkpt>
      <trkpt lat="45.65938" lon="5.27612">
        <ele>254</ele>
        <time>2025-05-18T12:09:31Z</time>
      </trkpt>
      <trkpt lat="45.65939" lon="5.27621">
        <ele>253</ele>
        <time>2025-05-18T12:09:32Z</time>
      </trkpt>
      <trkpt lat="45.6594" lon="5.27628">
        <ele>252</ele>
        <time>2025-05-18T12:09:33Z</time>
      </trkpt>
      <trkpt lat="45.65939" lon="5.27634">
        <ele>251.4</ele>
        <time>2025-05-18T12:09:34Z</time>
      </trkpt>
      <trkpt lat="45.65939" lon="5.27642">
        <ele>249.8</ele>
        <time>2025-05-18T12:09:35Z</time>
      </trkpt>
      <trkpt lat="45.65936" lon="5.27648">
        <ele>249</ele>
        <time>2025-05-18T12:09:36Z</time>
      </trkpt>
      <trkpt lat="45.65934" lon="5.27655">
        <ele>248.4</ele>
        <time>2025-05-18T12:09:37Z</time>
      </trkpt>
      <trkpt lat="45.65932" lon="5.27661">
        <ele>247.4</ele>
        <time>2025-05-18T12:09:38Z</time>
      </trkpt>
      <trkpt lat="45.65928" lon="5.27667">
        <ele>246.4</ele>
        <time>2025-05-18T12:09:39Z</time>
      </trkpt>
      <trkpt lat="45.65927" lon="5.2767">
        <ele>246.8</ele>
        <time>2025-05-18T12:09:40Z</time>
      </trkpt>
      <trkpt lat="45.65927" lon="5.27675">
        <ele>245.8</ele>
        <time>2025-05-18T12:09:41Z</time>
      </trkpt>
      <trkpt lat="45.65927" lon="5.27681">
        <ele>245.2</ele>
        <time>2025-05-18T12:09:42Z</time>
      </trkpt>
      <trkpt lat="45.65926" lon="5.27684">
        <ele>244.6</ele>
        <time>2025-05-18T12:09:43Z</time>
      </trkpt>
      <trkpt lat="45.65925" lon="5.27687">
        <ele>244</ele>
        <time>2025-05-18T12:09:44Z</time>
      </trkpt>
      <trkpt lat="45.65924" lon="5.2769">
        <ele>243.8</ele>
        <time>2025-05-18T12:09:45Z</time>
      </trkpt>
      <trkpt lat="45.65924" lon="5.27691">
        <ele>243.6</ele>
        <time>2025-05-18T12:09:46Z</time>
      </trkpt>
      <trkpt lat="45.65923" lon="5.2769">
        <ele>243.6</ele>
        <time>2025-05-18T12:09:47Z</time>
      </trkpt>
      <trkpt lat="45.65923" lon="5.27691">
        <ele>243.4</ele>
        <time>2025-05-18T12:09:48Z</time>
      </trkpt>
      <trkpt lat="45.65922" lon="5.27691">
        <ele>243.4</ele>
        <time>2025-05-18T12:09:49Z</time>
      </trkpt>
      <trkpt lat="45.65924" lon="5.2769">
        <ele>242.8</ele>
        <time>2025-05-18T12:09:59Z</time>
      </trkpt>
      <trkpt lat="45.65925" lon="5.2769">
        <ele>242.8</ele>
        <time>2025-05-18T12:10:00Z</time>
      </trkpt>
      <trkpt lat="45.65925" lon="5.2769">
        <ele>242.8</ele>
        <time>2025-05-18T12:10:01Z</time>
      </trkpt>
      <trkpt lat="45.65927" lon="5.2769">
        <ele>242.8</ele>
        <time>2025-05-18T12:10:02Z</time>
      </trkpt>
      <trkpt lat="45.65928" lon="5.2769">
        <ele>242.8</ele>
        <time>2025-05-18T12:10:03Z</time>
      </trkpt>
      <trkpt lat="45.6593" lon="5.27689">
        <ele>242.8</ele>
        <time>2025-05-18T12:10:04Z</time>
      </trkpt>
      <trkpt lat="45.65931" lon="5.27688">
        <ele>242.8</ele>
        <time>2025-05-18T12:10:05Z</time>
      </trkpt>
      <trkpt lat="45.6593" lon="5.27687">
        <ele>242.8</ele>
        <time>2025-05-18T12:10:06Z</time>
      </trkpt>
      <trkpt lat="45.6593" lon="5.27687">
        <ele>243</ele>
        <time>2025-05-18T12:10:07Z</time>
      </trkpt>
      <trkpt lat="45.65932" lon="5.27687">
        <ele>243.2</ele>
        <time>2025-05-18T12:10:34Z</time>
      </trkpt>
      <trkpt lat="45.65931" lon="5.27686">
        <ele>243.2</ele>
        <time>2025-05-18T12:10:35Z</time>
      </trkpt>
      <trkpt lat="45.65931" lon="5.27685">
        <ele>243.2</ele>
        <time>2025-05-18T12:10:36Z</time>
      </trkpt>
      <trkpt lat="45.65931" lon="5.27684">
        <ele>243.2</ele>
        <time>2025-05-18T12:10:37Z</time>
      </trkpt>
      <trkpt lat="45.65931" lon="5.27684">
        <ele>243.4</ele>
        <time>2025-05-18T12:10:38Z</time>
      </trkpt>
      <trkpt lat="45.6593" lon="5.27682">
        <ele>243.4</ele>
        <time>2025-05-18T12:10:48Z</time>
      </trkpt>
      <trkpt lat="45.6593" lon="5.27683">
        <ele>243.4</ele>
        <time>2025-05-18T12:10:49Z</time>
      </trkpt>
      <trkpt lat="45.6593" lon="5.27683">
        <ele>243.4</ele>
        <time>2025-05-18T12:10:50Z</time>
      </trkpt>
      <trkpt lat="45.65929" lon="5.27687">
        <ele>244.4</ele>
        <time>2025-05-18T12:12:35Z</time>
      </trkpt>
      <trkpt lat="45.65929" lon="5.27688">
        <ele>244.4</ele>
        <time>2025-05-18T12:12:36Z</time>
      </trkpt>
      <trkpt lat="45.65929" lon="5.27688">
        <ele>244.4</ele>
        <time>2025-05-18T12:12:37Z</time>
      </trkpt>
      <trkpt lat="45.65929" lon="5.2769">
        <ele>244</ele>
        <time>2025-05-18T12:12:38Z</time>
      </trkpt>
      <trkpt lat="45.6593" lon="5.27693">
        <ele>243.8</ele>
        <time>2025-05-18T12:12:39Z</time>
      </trkpt>
      <trkpt lat="45.65931" lon="5.27696">
        <ele>243.8</ele>
        <time>2025-05-18T12:12:40Z</time>
      </trkpt>
      <trkpt lat="45.65932" lon="5.27698">
        <ele>243.8</ele>
        <time>2025-05-18T12:12:41Z</time>
      </trkpt>
      <trkpt lat="45.65935" lon="5.27699">
        <ele>243.8</ele>
        <time>2025-05-18T12:12:42Z</time>
      </trkpt>
      <trkpt lat="45.65938" lon="5.27699">
        <ele>243.8</ele>
        <time>2025-05-18T12:12:43Z</time>
      </trkpt>
      <trkpt lat="45.6594" lon="5.277">
        <ele>243.8</ele>
        <time>2025-05-18T12:12:44Z</time>
      </trkpt>
      <trkpt lat="45.65943" lon="5.277">
        <ele>243.8</ele>
        <time>2025-05-18T12:12:45Z</time>
      </trkpt>
      <trkpt lat="45.65946" lon="5.277">
        <ele>244</ele>
        <time>2025-05-18T12:12:46Z</time>
      </trkpt>
      <trkpt lat="45.65948" lon="5.27701">
        <ele>244</ele>
        <time>2025-05-18T12:12:47Z</time>
      </trkpt>
      <trkpt lat="45.65951" lon="5.27702">
        <ele>244.2</ele>
        <time>2025-05-18T12:12:48Z</time>
      </trkpt>
      <trkpt lat="45.65952" lon="5.27703">
        <ele>244.2</ele>
        <time>2025-05-18T12:12:49Z</time>
      </trkpt>
      <trkpt lat="45.65954" lon="5.27704">
        <ele>244.4</ele>
        <time>2025-05-18T12:12:50Z</time>
      </trkpt>
      <trkpt lat="45.65956" lon="5.27704">
        <ele>244.4</ele>
        <time>2025-05-18T12:12:51Z</time>
      </trkpt>
      <trkpt lat="45.65958" lon="5.27704">
        <ele>244.8</ele>
        <time>2025-05-18T12:12:52Z</time>
      </trkpt>
      <trkpt lat="45.6596" lon="5.27704">
        <ele>245</ele>
        <time>2025-05-18T12:12:53Z</time>
      </trkpt>
      <trkpt lat="45.65961" lon="5.27704">
        <ele>245.4</ele>
        <time>2025-05-18T12:12:54Z</time>
      </trkpt>
      <trkpt lat="45.65963" lon="5.27704">
        <ele>245.4</ele>
        <time>2025-05-18T12:12:55Z</time>
      </trkpt>
      <trkpt lat="45.65965" lon="5.27704">
        <ele>245.8</ele>
        <time>2025-05-18T12:12:56Z</time>
      </trkpt>
      <trkpt lat="45.65967" lon="5.27703">
        <ele>245.8</ele>
        <time>2025-05-18T12:12:57Z</time>
      </trkpt>
      <trkpt lat="45.65969" lon="5.27703">
        <ele>246</ele>
        <time>2025-05-18T12:12:58Z</time>
      </trkpt>
      <trkpt lat="45.65971" lon="5.27702">
        <ele>246.4</ele>
        <time>2025-05-18T12:12:59Z</time>
      </trkpt>
      <trkpt lat="45.65972" lon="5.27701">
        <ele>246.4</ele>
        <time>2025-05-18T12:13:00Z</time>
      </trkpt>
      <trkpt lat="45.65974" lon="5.27701">
        <ele>246.8</ele>
        <time>2025-05-18T12:13:01Z</time>
      </trkpt>
      <trkpt lat="45.65976" lon="5.27701">
        <ele>246.8</ele>
        <time>2025-05-18T12:13:02Z</time>
      </trkpt>
      <trkpt lat="45.65978" lon="5.277">
        <ele>247</ele>
        <time>2025-05-18T12:13:03Z</time>
      </trkpt>
      <trkpt lat="45.65979" lon="5.27699">
        <ele>247.4</ele>
        <time>2025-05-18T12:13:04Z</time>
      </trkpt>
      <trkpt lat="45.65981" lon="5.27698">
        <ele>247.6</ele>
        <time>2025-05-18T12:13:05Z</time>
      </trkpt>
      <trkpt lat="45.65982" lon="5.27697">
        <ele>247.6</ele>
        <time>2025-05-18T12:13:06Z</time>
      </trkpt>
      <trkpt lat="45.65983" lon="5.27696">
        <ele>248.2</ele>
        <time>2025-05-18T12:13:07Z</time>
      </trkpt>
      <trkpt lat="45.65984" lon="5.27696">
        <ele>248.2</ele>
        <time>2025-05-18T12:13:08Z</time>
      </trkpt>
      <trkpt lat="45.65986" lon="5.27695">
        <ele>248.4</ele>
        <time>2025-05-18T12:13:09Z</time>
      </trkpt>
      <trkpt lat="45.65987" lon="5.27695">
        <ele>248.6</ele>
        <time>2025-05-18T12:13:10Z</time>
      </trkpt>
      <trkpt lat="45.65989" lon="5.27695">
        <ele>249</ele>
        <time>2025-05-18T12:13:11Z</time>
      </trkpt>
      <trkpt lat="45.6599" lon="5.27695">
        <ele>249.2</ele>
        <time>2025-05-18T12:13:12Z</time>
      </trkpt>
      <trkpt lat="45.65991" lon="5.27694">
        <ele>249.6</ele>
        <time>2025-05-18T12:13:13Z</time>
      </trkpt>
      <trkpt lat="45.65993" lon="5.27693">
        <ele>249.6</ele>
        <time>2025-05-18T12:13:14Z</time>
      </trkpt>
      <trkpt lat="45.65994" lon="5.27691">
        <ele>250.2</ele>
        <time>2025-05-18T12:13:15Z</time>
      </trkpt>
      <trkpt lat="45.65995" lon="5.2769">
        <ele>250.6</ele>
        <time>2025-05-18T12:13:16Z</time>
      </trkpt>
      <trkpt lat="45.65996" lon="5.27689">
        <ele>250.8</ele>
        <time>2025-05-18T12:13:17Z</time>
      </trkpt>
      <trkpt lat="45.65997" lon="5.27688">
        <ele>251</ele>
        <time>2025-05-18T12:13:18Z</time>
      </trkpt>
      <trkpt lat="45.65998" lon="5.27688">
        <ele>251.2</ele>
        <time>2025-05-18T12:13:19Z</time>
      </trkpt>
      <trkpt lat="45.65999" lon="5.27688">
        <ele>251.4</ele>
        <time>2025-05-18T12:13:20Z</time>
      </trkpt>
      <trkpt lat="45.66" lon="5.27687">
        <ele>251.4</ele>
        <time>2025-05-18T12:13:21Z</time>
      </trkpt>
      <trkpt lat="45.66002" lon="5.27687">
        <ele>252</ele>
        <time>2025-05-18T12:13:22Z</time>
      </trkpt>
      <trkpt lat="45.66003" lon="5.27688">
        <ele>252</ele>
        <time>2025-05-18T12:13:23Z</time>
      </trkpt>
      <trkpt lat="45.66004" lon="5.27688">
        <ele>252.4</ele>
        <time>2025-05-18T12:13:24Z</time>
      </trkpt>
      <trkpt lat="45.66006" lon="5.27688">
        <ele>252.4</ele>
        <time>2025-05-18T12:13:25Z</time>
      </trkpt>
      <trkpt lat="45.66007" lon="5.27687">
        <ele>252.8</ele>
        <time>2025-05-18T12:13:26Z</time>
      </trkpt>
      <trkpt lat="45.66008" lon="5.27687">
        <ele>252.8</ele>
        <time>2025-05-18T12:13:27Z</time>
      </trkpt>
      <trkpt lat="45.66009" lon="5.27687">
        <ele>253.4</ele>
        <time>2025-05-18T12:13:28Z</time>
      </trkpt>
      <trkpt lat="45.66011" lon="5.27687">
        <ele>253.6</ele>
        <time>2025-05-18T12:13:29Z</time>
      </trkpt>
      <trkpt lat="45.66012" lon="5.27687">
        <ele>253.8</ele>
        <time>2025-05-18T12:13:30Z</time>
      </trkpt>
      <trkpt lat="45.66013" lon="5.27687">
        <ele>254</ele>
        <time>2025-05-18T12:13:31Z</time>
      </trkpt>
      <trkpt lat="45.66014" lon="5.27686">
        <ele>254</ele>
        <time>2025-05-18T12:13:32Z</time>
      </trkpt>
      <trkpt lat="45.66015" lon="5.27685">
        <ele>254.4</ele>
        <time>2025-05-18T12:13:33Z</time>
      </trkpt>
      <trkpt lat="45.66016" lon="5.27684">
        <ele>254.4</ele>
        <time>2025-05-18T12:13:34Z</time>
      </trkpt>
      <trkpt lat="45.66017" lon="5.27683">
        <ele>254.6</ele>
        <time>2025-05-18T12:13:35Z</time>
      </trkpt>
      <trkpt lat="45.66018" lon="5.27683">
        <ele>254.6</ele>
        <time>2025-05-18T12:13:36Z</time>
      </trkpt>
      <trkpt lat="45.66019" lon="5.27683">
        <ele>255</ele>
        <time>2025-05-18T12:13:37Z</time>
      </trkpt>
      <trkpt lat="45.6602" lon="5.27683">
        <ele>255</ele>
        <time>2025-05-18T12:13:38Z</time>
      </trkpt>
      <trkpt lat="45.66021" lon="5.27683">
        <ele>255.4</ele>
        <time>2025-05-18T12:13:39Z</time>
      </trkpt>
      <trkpt lat="45.66022" lon="5.27682">
        <ele>255.6</ele>
        <time>2025-05-18T12:13:40Z</time>
      </trkpt>
      <trkpt lat="45.66022" lon="5.27682">
        <ele>256</ele>
        <time>2025-05-18T12:13:41Z</time>
      </trkpt>
      <trkpt lat="45.66023" lon="5.2768">
        <ele>256</ele>
        <time>2025-05-18T12:13:42Z</time>
      </trkpt>
      <trkpt lat="45.66024" lon="5.27679">
        <ele>256.4</ele>
        <time>2025-05-18T12:13:43Z</time>
      </trkpt>
      <trkpt lat="45.66025" lon="5.27678">
        <ele>256.6</ele>
        <time>2025-05-18T12:13:44Z</time>
      </trkpt>
      <trkpt lat="45.66026" lon="5.27677">
        <ele>257</ele>
        <time>2025-05-18T12:13:45Z</time>
      </trkpt>
      <trkpt lat="45.66028" lon="5.27676">
        <ele>257.2</ele>
        <time>2025-05-18T12:13:46Z</time>
      </trkpt>
      <trkpt lat="45.66029" lon="5.27675">
        <ele>257.2</ele>
        <time>2025-05-18T12:13:47Z</time>
      </trkpt>
      <trkpt lat="45.6603" lon="5.27675">
        <ele>257.6</ele>
        <time>2025-05-18T12:13:48Z</time>
      </trkpt>
      <trkpt lat="45.66031" lon="5.27674">
        <ele>257.8</ele>
        <time>2025-05-18T12:13:49Z</time>
      </trkpt>
      <trkpt lat="45.66032" lon="5.27673">
        <ele>257.8</ele>
        <time>2025-05-18T12:13:50Z</time>
      </trkpt>
      <trkpt lat="45.66033" lon="5.27672">
        <ele>258.2</ele>
        <time>2025-05-18T12:13:51Z</time>
      </trkpt>
      <trkpt lat="45.66034" lon="5.27672">
        <ele>258.4</ele>
        <time>2025-05-18T12:13:52Z</time>
      </trkpt>
      <trkpt lat="45.66035" lon="5.27671">
        <ele>258.8</ele>
        <time>2025-05-18T12:13:53Z</time>
      </trkpt>
      <trkpt lat="45.66036" lon="5.27671">
        <ele>259</ele>
        <time>2025-05-18T12:13:54Z</time>
      </trkpt>
      <trkpt lat="45.66038" lon="5.2767">
        <ele>259</ele>
        <time>2025-05-18T12:13:55Z</time>
      </trkpt>
      <trkpt lat="45.66039" lon="5.27669">
        <ele>259.2</ele>
        <time>2025-05-18T12:13:56Z</time>
      </trkpt>
      <trkpt lat="45.6604" lon="5.27668">
        <ele>259.2</ele>
        <time>2025-05-18T12:13:57Z</time>
      </trkpt>
      <trkpt lat="45.66041" lon="5.27667">
        <ele>259.6</ele>
        <time>2025-05-18T12:13:58Z</time>
      </trkpt>
      <trkpt lat="45.66042" lon="5.27666">
        <ele>259.6</ele>
        <time>2025-05-18T12:13:59Z</time>
      </trkpt>
      <trkpt lat="45.66043" lon="5.27666">
        <ele>259.8</ele>
        <time>2025-05-18T12:14:00Z</time>
      </trkpt>
      <trkpt lat="45.66044" lon="5.27665">
        <ele>260</ele>
        <time>2025-05-18T12:14:01Z</time>
      </trkpt>
      <trkpt lat="45.66045" lon="5.27665">
        <ele>260.2</ele>
        <time>2025-05-18T12:14:02Z</time>
      </trkpt>
      <trkpt lat="45.66046" lon="5.27664">
        <ele>260.2</ele>
        <time>2025-05-18T12:14:03Z</time>
      </trkpt>
      <trkpt lat="45.66047" lon="5.27663">
        <ele>260.6</ele>
        <time>2025-05-18T12:14:04Z</time>
      </trkpt>
      <trkpt lat="45.66048" lon="5.27662">
        <ele>260.6</ele>
        <time>2025-05-18T12:14:05Z</time>
      </trkpt>
      <trkpt lat="45.66049" lon="5.27661">
        <ele>261</ele>
        <time>2025-05-18T12:14:06Z</time>
      </trkpt>
      <trkpt lat="45.6605" lon="5.27659">
        <ele>261.2</ele>
        <time>2025-05-18T12:14:07Z</time>
      </trkpt>
      <trkpt lat="45.6605" lon="5.27658">
        <ele>261.6</ele>
        <time>2025-05-18T12:14:08Z</time>
      </trkpt>
      <trkpt lat="45.66051" lon="5.27657">
        <ele>261.8</ele>
        <time>2025-05-18T12:14:09Z</time>
      </trkpt>
      <trkpt lat="45.66052" lon="5.27657">
        <ele>262</ele>
        <time>2025-05-18T12:14:10Z</time>
      </trkpt>
      <trkpt lat="45.66054" lon="5.27656">
        <ele>262.4</ele>
        <time>2025-05-18T12:14:11Z</time>
      </trkpt>
      <trkpt lat="45.66055" lon="5.27655">
        <ele>262.8</ele>
        <time>2025-05-18T12:14:12Z</time>
      </trkpt>
      <trkpt lat="45.66056" lon="5.27654">
        <ele>263.2</ele>
        <time>2025-05-18T12:14:13Z</time>
      </trkpt>
      <trkpt lat="45.66056" lon="5.27652">
        <ele>263.4</ele>
        <time>2025-05-18T12:14:14Z</time>
      </trkpt>
      <trkpt lat="45.66057" lon="5.27651">
        <ele>263.4</ele>
        <time>2025-05-18T12:14:15Z</time>
      </trkpt>
      <trkpt lat="45.66058" lon="5.27649">
        <ele>263.8</ele>
        <time>2025-05-18T12:14:16Z</time>
      </trkpt>
      <trkpt lat="45.66059" lon="5.27648">
        <ele>263.8</ele>
        <time>2025-05-18T12:14:17Z</time>
      </trkpt>
      <trkpt lat="45.6606" lon="5.27648">
        <ele>264</ele>
        <time>2025-05-18T12:14:18Z</time>
      </trkpt>
      <trkpt lat="45.66061" lon="5.27647">
        <ele>264</ele>
        <time>2025-05-18T12:14:19Z</time>
      </trkpt>
      <trkpt lat="45.66062" lon="5.27646">
        <ele>264</ele>
        <time>2025-05-18T12:14:20Z</time>
      </trkpt>
      <trkpt lat="45.66063" lon="5.27645">
        <ele>264.4</ele>
        <time>2025-05-18T12:14:21Z</time>
      </trkpt>
      <trkpt lat="45.66064" lon="5.27644">
        <ele>264.4</ele>
        <time>2025-05-18T12:14:22Z</time>
      </trkpt>
      <trkpt lat="45.66065" lon="5.27644">
        <ele>264.8</ele>
        <time>2025-05-18T12:14:23Z</time>
      </trkpt>
      <trkpt lat="45.66065" lon="5.27643">
        <ele>265</ele>
        <time>2025-05-18T12:14:24Z</time>
      </trkpt>
      <trkpt lat="45.66067" lon="5.27642">
        <ele>265.2</ele>
        <time>2025-05-18T12:14:25Z</time>
      </trkpt>
      <trkpt lat="45.66068" lon="5.27642">
        <ele>265.6</ele>
        <time>2025-05-18T12:14:26Z</time>
      </trkpt>
      <trkpt lat="45.66068" lon="5.27641">
        <ele>265.6</ele>
        <time>2025-05-18T12:14:27Z</time>
      </trkpt>
      <trkpt lat="45.66069" lon="5.2764">
        <ele>265.6</ele>
        <time>2025-05-18T12:14:28Z</time>
      </trkpt>
      <trkpt lat="45.6607" lon="5.27639">
        <ele>266</ele>
        <time>2025-05-18T12:14:29Z</time>
      </trkpt>
      <trkpt lat="45.6607" lon="5.27638">
        <ele>266</ele>
        <time>2025-05-18T12:14:30Z</time>
      </trkpt>
      <trkpt lat="45.66071" lon="5.27637">
        <ele>266.4</ele>
        <time>2025-05-18T12:14:31Z</time>
      </trkpt>
      <trkpt lat="45.66072" lon="5.27636">
        <ele>266.4</ele>
        <time>2025-05-18T12:14:32Z</time>
      </trkpt>
      <trkpt lat="45.66072" lon="5.27636">
        <ele>266.6</ele>
        <time>2025-05-18T12:14:33Z</time>
      </trkpt>
      <trkpt lat="45.66073" lon="5.27635">
        <ele>266.6</ele>
        <time>2025-05-18T12:14:34Z</time>
      </trkpt>
      <trkpt lat="45.66074" lon="5.27635">
        <ele>266.8</ele>
        <time>2025-05-18T12:14:35Z</time>
      </trkpt>
      <trkpt lat="45.66075" lon="5.27634">
        <ele>267.2</ele>
        <time>2025-05-18T12:14:36Z</time>
      </trkpt>
      <trkpt lat="45.66076" lon="5.27633">
        <ele>267.4</ele>
        <time>2025-05-18T12:14:37Z</time>
      </trkpt>
      <trkpt lat="45.66076" lon="5.27632">
        <ele>267.8</ele>
        <time>2025-05-18T12:14:38Z</time>
      </trkpt>
      <trkpt lat="45.66077" lon="5.27632">
        <ele>268</ele>
        <time>2025-05-18T12:14:39Z</time>
      </trkpt>
      <trkpt lat="45.66077" lon="5.27631">
        <ele>268.4</ele>
        <time>2025-05-18T12:14:40Z</time>
      </trkpt>
      <trkpt lat="45.66077" lon="5.27631">
        <ele>268.4</ele>
        <time>2025-05-18T12:14:41Z</time>
      </trkpt>
      <trkpt lat="45.66077" lon="5.2763">
        <ele>268.6</ele>
        <time>2025-05-18T12:14:42Z</time>
      </trkpt>
      <trkpt lat="45.66078" lon="5.2763">
        <ele>269</ele>
        <time>2025-05-18T12:14:43Z</time>
      </trkpt>
      <trkpt lat="45.66079" lon="5.27628">
        <ele>269.2</ele>
        <time>2025-05-18T12:14:44Z</time>
      </trkpt>
      <trkpt lat="45.6608" lon="5.27626">
        <ele>269.2</ele>
        <time>2025-05-18T12:14:45Z</time>
      </trkpt>
      <trkpt lat="45.66081" lon="5.27625">
        <ele>269.4</ele>
        <time>2025-05-18T12:14:46Z</time>
      </trkpt>
      <trkpt lat="45.66082" lon="5.27623">
        <ele>269.8</ele>
        <time>2025-05-18T12:14:47Z</time>
      </trkpt>
      <trkpt lat="45.66083" lon="5.27622">
        <ele>269.8</ele>
        <time>2025-05-18T12:14:48Z</time>
      </trkpt>
      <trkpt lat="45.66084" lon="5.27621">
        <ele>270</ele>
        <time>2025-05-18T12:14:49Z</time>
      </trkpt>
      <trkpt lat="45.66085" lon="5.2762">
        <ele>270</ele>
        <time>2025-05-18T12:14:50Z</time>
      </trkpt>
      <trkpt lat="45.66086" lon="5.27619">
        <ele>270.4</ele>
        <time>2025-05-18T12:14:51Z</time>
      </trkpt>
      <trkpt lat="45.66087" lon="5.27618">
        <ele>270.4</ele>
        <time>2025-05-18T12:14:52Z</time>
      </trkpt>
      <trkpt lat="45.66088" lon="5.27616">
        <ele>270.4</ele>
        <time>2025-05-18T12:14:53Z</time>
      </trkpt>
      <trkpt lat="45.66089" lon="5.27614">
        <ele>270.8</ele>
        <time>2025-05-18T12:14:54Z</time>
      </trkpt>
      <trkpt lat="45.66089" lon="5.27613">
        <ele>270.8</ele>
        <time>2025-05-18T12:14:55Z</time>
      </trkpt>
      <trkpt lat="45.6609" lon="5.27611">
        <ele>271.2</ele>
        <time>2025-05-18T12:14:56Z</time>
      </trkpt>
      <trkpt lat="45.66091" lon="5.27611">
        <ele>271.4</ele>
        <time>2025-05-18T12:14:57Z</time>
      </trkpt>
      <trkpt lat="45.66092" lon="5.2761">
        <ele>271.4</ele>
        <time>2025-05-18T12:14:58Z</time>
      </trkpt>
      <trkpt lat="45.66093" lon="5.2761">
        <ele>271.8</ele>
        <time>2025-05-18T12:14:59Z</time>
      </trkpt>
      <trkpt lat="45.66094" lon="5.2761">
        <ele>271.8</ele>
        <time>2025-05-18T12:15:00Z</time>
      </trkpt>
      <trkpt lat="45.66095" lon="5.27609">
        <ele>272.2</ele>
        <time>2025-05-18T12:15:01Z</time>
      </trkpt>
      <trkpt lat="45.66096" lon="5.27608">
        <ele>272.2</ele>
        <time>2025-05-18T12:15:02Z</time>
      </trkpt>
      <trkpt lat="45.66096" lon="5.27607">
        <ele>272.4</ele>
        <time>2025-05-18T12:15:03Z</time>
      </trkpt>
      <trkpt lat="45.66097" lon="5.27606">
        <ele>272.8</ele>
        <time>2025-05-18T12:15:04Z</time>
      </trkpt>
      <trkpt lat="45.66098" lon="5.27605">
        <ele>273</ele>
        <time>2025-05-18T12:15:05Z</time>
      </trkpt>
      <trkpt lat="45.66099" lon="5.27603">
        <ele>273</ele>
        <time>2025-05-18T12:15:06Z</time>
      </trkpt>
      <trkpt lat="45.66099" lon="5.27602">
        <ele>273.2</ele>
        <time>2025-05-18T12:15:07Z</time>
      </trkpt>
      <trkpt lat="45.661" lon="5.27601">
        <ele>273.2</ele>
        <time>2025-05-18T12:15:08Z</time>
      </trkpt>
      <trkpt lat="45.66101" lon="5.276">
        <ele>273.2</ele>
        <time>2025-05-18T12:15:09Z</time>
      </trkpt>
      <trkpt lat="45.66102" lon="5.27599">
        <ele>273.4</ele>
        <time>2025-05-18T12:15:10Z</time>
      </trkpt>
      <trkpt lat="45.66103" lon="5.27598">
        <ele>274</ele>
        <time>2025-05-18T12:15:11Z</time>
      </trkpt>
      <trkpt lat="45.66104" lon="5.27597">
        <ele>274</ele>
        <time>2025-05-18T12:15:12Z</time>
      </trkpt>
      <trkpt lat="45.66105" lon="5.27596">
        <ele>274.4</ele>
        <time>2025-05-18T12:15:13Z</time>
      </trkpt>
      <trkpt lat="45.66105" lon="5.27596">
        <ele>274.6</ele>
        <time>2025-05-18T12:15:14Z</time>
      </trkpt>
      <trkpt lat="45.66106" lon="5.27595">
        <ele>274.8</ele>
        <time>2025-05-18T12:15:15Z</time>
      </trkpt>
      <trkpt lat="45.66108" lon="5.27595">
        <ele>275.2</ele>
        <time>2025-05-18T12:15:16Z</time>
      </trkpt>
      <trkpt lat="45.66109" lon="5.27595">
        <ele>275.4</ele>
        <time>2025-05-18T12:15:17Z</time>
      </trkpt>
      <trkpt lat="45.66109" lon="5.27595">
        <ele>275.4</ele>
        <time>2025-05-18T12:15:18Z</time>
      </trkpt>
      <trkpt lat="45.66111" lon="5.27594">
        <ele>275.8</ele>
        <time>2025-05-18T12:15:19Z</time>
      </trkpt>
      <trkpt lat="45.66111" lon="5.27593">
        <ele>276</ele>
        <time>2025-05-18T12:15:20Z</time>
      </trkpt>
      <trkpt lat="45.66112" lon="5.27592">
        <ele>276</ele>
        <time>2025-05-18T12:15:21Z</time>
      </trkpt>
      <trkpt lat="45.66113" lon="5.27591">
        <ele>276</ele>
        <time>2025-05-18T12:15:22Z</time>
      </trkpt>
      <trkpt lat="45.66114" lon="5.2759">
        <ele>276.4</ele>
        <time>2025-05-18T12:15:23Z</time>
      </trkpt>
      <trkpt lat="45.66115" lon="5.27589">
        <ele>276.4</ele>
        <time>2025-05-18T12:15:24Z</time>
      </trkpt>
      <trkpt lat="45.66116" lon="5.27588">
        <ele>276.6</ele>
        <time>2025-05-18T12:15:25Z</time>
      </trkpt>
      <trkpt lat="45.66116" lon="5.27588">
        <ele>276.6</ele>
        <time>2025-05-18T12:15:26Z</time>
      </trkpt>
      <trkpt lat="45.66116" lon="5.27587">
        <ele>276.6</ele>
        <time>2025-05-18T12:15:27Z</time>
      </trkpt>
      <trkpt lat="45.66117" lon="5.27587">
        <ele>277</ele>
        <time>2025-05-18T12:15:28Z</time>
      </trkpt>
      <trkpt lat="45.66119" lon="5.27587">
        <ele>277</ele>
        <time>2025-05-18T12:15:29Z</time>
      </trkpt>
      <trkpt lat="45.6612" lon="5.27586">
        <ele>277</ele>
        <time>2025-05-18T12:15:30Z</time>
      </trkpt>
      <trkpt lat="45.66121" lon="5.27585">
        <ele>277.4</ele>
        <time>2025-05-18T12:15:31Z</time>
      </trkpt>
      <trkpt lat="45.66122" lon="5.27584">
        <ele>277.6</ele>
        <time>2025-05-18T12:15:32Z</time>
      </trkpt>
      <trkpt lat="45.66122" lon="5.27582">
        <ele>277.8</ele>
        <time>2025-05-18T12:15:33Z</time>
      </trkpt>
      <trkpt lat="45.66123" lon="5.27581">
        <ele>278</ele>
        <time>2025-05-18T12:15:34Z</time>
      </trkpt>
      <trkpt lat="45.66124" lon="5.27581">
        <ele>278</ele>
        <time>2025-05-18T12:15:35Z</time>
      </trkpt>
      <trkpt lat="45.66125" lon="5.2758">
        <ele>278.4</ele>
        <time>2025-05-18T12:15:36Z</time>
      </trkpt>
      <trkpt lat="45.66125" lon="5.27579">
        <ele>278.4</ele>
        <time>2025-05-18T12:15:37Z</time>
      </trkpt>
      <trkpt lat="45.66126" lon="5.27577">
        <ele>278.6</ele>
        <time>2025-05-18T12:15:38Z</time>
      </trkpt>
      <trkpt lat="45.66126" lon="5.27576">
        <ele>278.6</ele>
        <time>2025-05-18T12:15:39Z</time>
      </trkpt>
      <trkpt lat="45.66127" lon="5.27576">
        <ele>279</ele>
        <time>2025-05-18T12:15:40Z</time>
      </trkpt>
      <trkpt lat="45.66128" lon="5.27574">
        <ele>279.2</ele>
        <time>2025-05-18T12:15:41Z</time>
      </trkpt>
      <trkpt lat="45.66129" lon="5.27573">
        <ele>279.2</ele>
        <time>2025-05-18T12:15:42Z</time>
      </trkpt>
      <trkpt lat="45.66131" lon="5.27573">
        <ele>279.6</ele>
        <time>2025-05-18T12:15:43Z</time>
      </trkpt>
      <trkpt lat="45.66132" lon="5.27572">
        <ele>279.8</ele>
        <time>2025-05-18T12:15:44Z</time>
      </trkpt>
      <trkpt lat="45.66134" lon="5.27571">
        <ele>279.8</ele>
        <time>2025-05-18T12:15:45Z</time>
      </trkpt>
      <trkpt lat="45.66135" lon="5.2757">
        <ele>280.2</ele>
        <time>2025-05-18T12:15:46Z</time>
      </trkpt>
      <trkpt lat="45.66136" lon="5.27569">
        <ele>280.4</ele>
        <time>2025-05-18T12:15:47Z</time>
      </trkpt>
      <trkpt lat="45.66137" lon="5.27568">
        <ele>280.6</ele>
        <time>2025-05-18T12:15:48Z</time>
      </trkpt>
      <trkpt lat="45.66138" lon="5.27567">
        <ele>280.6</ele>
        <time>2025-05-18T12:15:49Z</time>
      </trkpt>
      <trkpt lat="45.66139" lon="5.27565">
        <ele>280.6</ele>
        <time>2025-05-18T12:15:50Z</time>
      </trkpt>
      <trkpt lat="45.6614" lon="5.27565">
        <ele>281</ele>
        <time>2025-05-18T12:15:51Z</time>
      </trkpt>
      <trkpt lat="45.66141" lon="5.27564">
        <ele>281</ele>
        <time>2025-05-18T12:15:52Z</time>
      </trkpt>
      <trkpt lat="45.66142" lon="5.27562">
        <ele>281.4</ele>
        <time>2025-05-18T12:15:53Z</time>
      </trkpt>
      <trkpt lat="45.66143" lon="5.27561">
        <ele>281.4</ele>
        <time>2025-05-18T12:15:54Z</time>
      </trkpt>
      <trkpt lat="45.66144" lon="5.2756">
        <ele>281.6</ele>
        <time>2025-05-18T12:15:55Z</time>
      </trkpt>
      <trkpt lat="45.66146" lon="5.27559">
        <ele>281.6</ele>
        <time>2025-05-18T12:15:56Z</time>
      </trkpt>
      <trkpt lat="45.66147" lon="5.27558">
        <ele>282</ele>
        <time>2025-05-18T12:15:57Z</time>
      </trkpt>
      <trkpt lat="45.66148" lon="5.27558">
        <ele>282.2</ele>
        <time>2025-05-18T12:15:58Z</time>
      </trkpt>
      <trkpt lat="45.66148" lon="5.27557">
        <ele>282.2</ele>
        <time>2025-05-18T12:15:59Z</time>
      </trkpt>
      <trkpt lat="45.66148" lon="5.27557">
        <ele>282.6</ele>
        <time>2025-05-18T12:16:00Z</time>
      </trkpt>
      <trkpt lat="45.66149" lon="5.27556">
        <ele>282.6</ele>
        <time>2025-05-18T12:16:01Z</time>
      </trkpt>
      <trkpt lat="45.6615" lon="5.27554">
        <ele>283</ele>
        <time>2025-05-18T12:16:02Z</time>
      </trkpt>
      <trkpt lat="45.66152" lon="5.27553">
        <ele>283.4</ele>
        <time>2025-05-18T12:16:03Z</time>
      </trkpt>
      <trkpt lat="45.66153" lon="5.27552">
        <ele>283.4</ele>
        <time>2025-05-18T12:16:04Z</time>
      </trkpt>
      <trkpt lat="45.66153" lon="5.27551">
        <ele>283.8</ele>
        <time>2025-05-18T12:16:05Z</time>
      </trkpt>
      <trkpt lat="45.66154" lon="5.2755">
        <ele>283.8</ele>
        <time>2025-05-18T12:16:06Z</time>
      </trkpt>
      <trkpt lat="45.66156" lon="5.27547">
        <ele>284</ele>
        <time>2025-05-18T12:16:07Z</time>
      </trkpt>
      <trkpt lat="45.66156" lon="5.27547">
        <ele>284</ele>
        <time>2025-05-18T12:16:08Z</time>
      </trkpt>
      <trkpt lat="45.66157" lon="5.27546">
        <ele>284.4</ele>
        <time>2025-05-18T12:16:09Z</time>
      </trkpt>
      <trkpt lat="45.66158" lon="5.27546">
        <ele>284.6</ele>
        <time>2025-05-18T12:16:10Z</time>
      </trkpt>
      <trkpt lat="45.66159" lon="5.27545">
        <ele>284.6</ele>
        <time>2025-05-18T12:16:11Z</time>
      </trkpt>
      <trkpt lat="45.66159" lon="5.27544">
        <ele>285</ele>
        <time>2025-05-18T12:16:12Z</time>
      </trkpt>
      <trkpt lat="45.6616" lon="5.27543">
        <ele>285.2</ele>
        <time>2025-05-18T12:16:13Z</time>
      </trkpt>
      <trkpt lat="45.66162" lon="5.27543">
        <ele>285.2</ele>
        <time>2025-05-18T12:16:14Z</time>
      </trkpt>
      <trkpt lat="45.66163" lon="5.27542">
        <ele>285</ele>
        <time>2025-05-18T12:16:15Z</time>
      </trkpt>
      <trkpt lat="45.66164" lon="5.27542">
        <ele>285.2</ele>
        <time>2025-05-18T12:16:16Z</time>
      </trkpt>
      <trkpt lat="45.66165" lon="5.2754">
        <ele>285.4</ele>
        <time>2025-05-18T12:16:17Z</time>
      </trkpt>
      <trkpt lat="45.66166" lon="5.27539">
        <ele>285.4</ele>
        <time>2025-05-18T12:16:18Z</time>
      </trkpt>
      <trkpt lat="45.66167" lon="5.27538">
        <ele>285.8</ele>
        <time>2025-05-18T12:16:19Z</time>
      </trkpt>
      <trkpt lat="45.66168" lon="5.27537">
        <ele>285.8</ele>
        <time>2025-05-18T12:16:20Z</time>
      </trkpt>
      <trkpt lat="45.66169" lon="5.27536">
        <ele>286</ele>
        <time>2025-05-18T12:16:21Z</time>
      </trkpt>
      <trkpt lat="45.66169" lon="5.27535">
        <ele>286</ele>
        <time>2025-05-18T12:16:22Z</time>
      </trkpt>
      <trkpt lat="45.6617" lon="5.27534">
        <ele>286.2</ele>
        <time>2025-05-18T12:16:23Z</time>
      </trkpt>
      <trkpt lat="45.66171" lon="5.27532">
        <ele>286.2</ele>
        <time>2025-05-18T12:16:24Z</time>
      </trkpt>
      <trkpt lat="45.66173" lon="5.27531">
        <ele>286.6</ele>
        <time>2025-05-18T12:16:25Z</time>
      </trkpt>
      <trkpt lat="45.66174" lon="5.27531">
        <ele>286.6</ele>
        <time>2025-05-18T12:16:26Z</time>
      </trkpt>
      <trkpt lat="45.66175" lon="5.27531">
        <ele>287</ele>
        <time>2025-05-18T12:16:27Z</time>
      </trkpt>
      <trkpt lat="45.66177" lon="5.2753">
        <ele>287.2</ele>
        <time>2025-05-18T12:16:28Z</time>
      </trkpt>
      <trkpt lat="45.66178" lon="5.2753">
        <ele>287.4</ele>
        <time>2025-05-18T12:16:29Z</time>
      </trkpt>
      <trkpt lat="45.66179" lon="5.27529">
        <ele>287.8</ele>
        <time>2025-05-18T12:16:30Z</time>
      </trkpt>
      <trkpt lat="45.6618" lon="5.27528">
        <ele>287.8</ele>
        <time>2025-05-18T12:16:31Z</time>
      </trkpt>
      <trkpt lat="45.66181" lon="5.27528">
        <ele>288.2</ele>
        <time>2025-05-18T12:16:32Z</time>
      </trkpt>
      <trkpt lat="45.66182" lon="5.27527">
        <ele>288.6</ele>
        <time>2025-05-18T12:16:33Z</time>
      </trkpt>
      <trkpt lat="45.66184" lon="5.27526">
        <ele>288.8</ele>
        <time>2025-05-18T12:16:34Z</time>
      </trkpt>
      <trkpt lat="45.66184" lon="5.27525">
        <ele>289</ele>
        <time>2025-05-18T12:16:35Z</time>
      </trkpt>
      <trkpt lat="45.66186" lon="5.27524">
        <ele>289</ele>
        <time>2025-05-18T12:16:36Z</time>
      </trkpt>
      <trkpt lat="45.66187" lon="5.27522">
        <ele>289.2</ele>
        <time>2025-05-18T12:16:37Z</time>
      </trkpt>
      <trkpt lat="45.66188" lon="5.2752">
        <ele>289.2</ele>
        <time>2025-05-18T12:16:38Z</time>
      </trkpt>
      <trkpt lat="45.66189" lon="5.27519">
        <ele>289.6</ele>
        <time>2025-05-18T12:16:39Z</time>
      </trkpt>
      <trkpt lat="45.66191" lon="5.27518">
        <ele>289.6</ele>
        <time>2025-05-18T12:16:40Z</time>
      </trkpt>
      <trkpt lat="45.66192" lon="5.27517">
        <ele>289.6</ele>
        <time>2025-05-18T12:16:41Z</time>
      </trkpt>
      <trkpt lat="45.66194" lon="5.27516">
        <ele>289.6</ele>
        <time>2025-05-18T12:16:42Z</time>
      </trkpt>
      <trkpt lat="45.66195" lon="5.27515">
        <ele>289.2</ele>
        <time>2025-05-18T12:16:43Z</time>
      </trkpt>
      <trkpt lat="45.66196" lon="5.27515">
        <ele>289.8</ele>
        <time>2025-05-18T12:16:44Z</time>
      </trkpt>
      <trkpt lat="45.66198" lon="5.27514">
        <ele>290</ele>
        <time>2025-05-18T12:16:45Z</time>
      </trkpt>
      <trkpt lat="45.66199" lon="5.27513">
        <ele>290</ele>
        <time>2025-05-18T12:16:46Z</time>
      </trkpt>
      <trkpt lat="45.662" lon="5.27511">
        <ele>290.2</ele>
        <time>2025-05-18T12:16:47Z</time>
      </trkpt>
      <trkpt lat="45.66201" lon="5.2751">
        <ele>290.6</ele>
        <time>2025-05-18T12:16:48Z</time>
      </trkpt>
      <trkpt lat="45.66202" lon="5.27509">
        <ele>290.8</ele>
        <time>2025-05-18T12:16:49Z</time>
      </trkpt>
      <trkpt lat="45.66203" lon="5.27508">
        <ele>290.8</ele>
        <time>2025-05-18T12:16:50Z</time>
      </trkpt>
      <trkpt lat="45.66204" lon="5.27507">
        <ele>291</ele>
        <time>2025-05-18T12:16:51Z</time>
      </trkpt>
      <trkpt lat="45.66206" lon="5.27506">
        <ele>291</ele>
        <time>2025-05-18T12:16:52Z</time>
      </trkpt>
      <trkpt lat="45.66207" lon="5.27506">
        <ele>291.2</ele>
        <time>2025-05-18T12:16:53Z</time>
      </trkpt>
      <trkpt lat="45.66208" lon="5.27506">
        <ele>291.2</ele>
        <time>2025-05-18T12:16:54Z</time>
      </trkpt>
      <trkpt lat="45.66209" lon="5.27505">
        <ele>291.4</ele>
        <time>2025-05-18T12:16:55Z</time>
      </trkpt>
      <trkpt lat="45.6621" lon="5.27503">
        <ele>291.4</ele>
        <time>2025-05-18T12:16:56Z</time>
      </trkpt>
      <trkpt lat="45.66211" lon="5.27502">
        <ele>291.6</ele>
        <time>2025-05-18T12:16:57Z</time>
      </trkpt>
      <trkpt lat="45.66212" lon="5.27501">
        <ele>291.6</ele>
        <time>2025-05-18T12:16:58Z</time>
      </trkpt>
      <trkpt lat="45.66213" lon="5.27499">
        <ele>291.6</ele>
        <time>2025-05-18T12:16:59Z</time>
      </trkpt>
      <trkpt lat="45.66215" lon="5.27498">
        <ele>291.6</ele>
        <time>2025-05-18T12:17:00Z</time>
      </trkpt>
      <trkpt lat="45.66216" lon="5.27497">
        <ele>292.2</ele>
        <time>2025-05-18T12:17:01Z</time>
      </trkpt>
      <trkpt lat="45.66217" lon="5.27496">
        <ele>292.6</ele>
        <time>2025-05-18T12:17:02Z</time>
      </trkpt>
      <trkpt lat="45.66219" lon="5.27495">
        <ele>292.6</ele>
        <time>2025-05-18T12:17:03Z</time>
      </trkpt>
      <trkpt lat="45.6622" lon="5.27494">
        <ele>292.8</ele>
        <time>2025-05-18T12:17:04Z</time>
      </trkpt>
      <trkpt lat="45.66222" lon="5.27493">
        <ele>293</ele>
        <time>2025-05-18T12:17:05Z</time>
      </trkpt>
      <trkpt lat="45.66224" lon="5.27491">
        <ele>293</ele>
        <time>2025-05-18T12:17:06Z</time>
      </trkpt>
      <trkpt lat="45.66225" lon="5.2749">
        <ele>293.2</ele>
        <time>2025-05-18T12:17:07Z</time>
      </trkpt>
      <trkpt lat="45.66226" lon="5.27489">
        <ele>293.2</ele>
        <time>2025-05-18T12:17:08Z</time>
      </trkpt>
      <trkpt lat="45.66228" lon="5.27488">
        <ele>293.2</ele>
        <time>2025-05-18T12:17:09Z</time>
      </trkpt>
      <trkpt lat="45.66229" lon="5.27487">
        <ele>293.6</ele>
        <time>2025-05-18T12:17:10Z</time>
      </trkpt>
      <trkpt lat="45.66231" lon="5.27486">
        <ele>293.6</ele>
        <time>2025-05-18T12:17:11Z</time>
      </trkpt>
      <trkpt lat="45.66232" lon="5.27486">
        <ele>294</ele>
        <time>2025-05-18T12:17:12Z</time>
      </trkpt>
      <trkpt lat="45.66234" lon="5.27485">
        <ele>294</ele>
        <time>2025-05-18T12:17:13Z</time>
      </trkpt>
      <trkpt lat="45.66235" lon="5.27484">
        <ele>294</ele>
        <time>2025-05-18T12:17:14Z</time>
      </trkpt>
      <trkpt lat="45.66237" lon="5.27483">
        <ele>294.4</ele>
        <time>2025-05-18T12:17:15Z</time>
      </trkpt>
      <trkpt lat="45.66238" lon="5.27482">
        <ele>294.4</ele>
        <time>2025-05-18T12:17:16Z</time>
      </trkpt>
      <trkpt lat="45.66239" lon="5.27481">
        <ele>294.4</ele>
        <time>2025-05-18T12:17:17Z</time>
      </trkpt>
      <trkpt lat="45.6624" lon="5.2748">
        <ele>294.6</ele>
        <time>2025-05-18T12:17:18Z</time>
      </trkpt>
      <trkpt lat="45.66241" lon="5.27479">
        <ele>294.6</ele>
        <time>2025-05-18T12:17:19Z</time>
      </trkpt>
      <trkpt lat="45.66243" lon="5.27478">
        <ele>295</ele>
        <time>2025-05-18T12:17:20Z</time>
      </trkpt>
      <trkpt lat="45.66244" lon="5.27477">
        <ele>295</ele>
        <time>2025-05-18T12:17:21Z</time>
      </trkpt>
      <trkpt lat="45.66246" lon="5.27476">
        <ele>295.4</ele>
        <time>2025-05-18T12:17:22Z</time>
      </trkpt>
      <trkpt lat="45.66247" lon="5.27475">
        <ele>295.6</ele>
        <time>2025-05-18T12:17:23Z</time>
      </trkpt>
      <trkpt lat="45.66248" lon="5.27474">
        <ele>295.6</ele>
        <time>2025-05-18T12:17:24Z</time>
      </trkpt>
      <trkpt lat="45.6625" lon="5.27473">
        <ele>296</ele>
        <time>2025-05-18T12:17:25Z</time>
      </trkpt>
      <trkpt lat="45.66251" lon="5.27472">
        <ele>296.4</ele>
        <time>2025-05-18T12:17:26Z</time>
      </trkpt>
      <trkpt lat="45.66252" lon="5.27471">
        <ele>296.6</ele>
        <time>2025-05-18T12:17:27Z</time>
      </trkpt>
      <trkpt lat="45.66253" lon="5.2747">
        <ele>296.6</ele>
        <time>2025-05-18T12:17:28Z</time>
      </trkpt>
      <trkpt lat="45.66255" lon="5.27468">
        <ele>297</ele>
        <time>2025-05-18T12:17:29Z</time>
      </trkpt>
      <trkpt lat="45.66256" lon="5.27467">
        <ele>297.4</ele>
        <time>2025-05-18T12:17:30Z</time>
      </trkpt>
      <trkpt lat="45.66257" lon="5.27466">
        <ele>297.6</ele>
        <time>2025-05-18T12:17:31Z</time>
      </trkpt>
      <trkpt lat="45.66258" lon="5.27465">
        <ele>297.6</ele>
        <time>2025-05-18T12:17:32Z</time>
      </trkpt>
      <trkpt lat="45.6626" lon="5.27464">
        <ele>297.6</ele>
        <time>2025-05-18T12:17:33Z</time>
      </trkpt>
      <trkpt lat="45.66261" lon="5.27463">
        <ele>297.6</ele>
        <time>2025-05-18T12:17:34Z</time>
      </trkpt>
      <trkpt lat="45.66262" lon="5.27463">
        <ele>297.8</ele>
        <time>2025-05-18T12:17:35Z</time>
      </trkpt>
      <trkpt lat="45.66263" lon="5.27463">
        <ele>297.8</ele>
        <time>2025-05-18T12:17:36Z</time>
      </trkpt>
      <trkpt lat="45.66265" lon="5.27462">
        <ele>297.8</ele>
        <time>2025-05-18T12:17:37Z</time>
      </trkpt>
      <trkpt lat="45.66267" lon="5.27462">
        <ele>298.2</ele>
        <time>2025-05-18T12:17:38Z</time>
      </trkpt>
      <trkpt lat="45.66268" lon="5.27461">
        <ele>298.2</ele>
        <time>2025-05-18T12:17:39Z</time>
      </trkpt>
      <trkpt lat="45.66269" lon="5.27461">
        <ele>298.4</ele>
        <time>2025-05-18T12:17:40Z</time>
      </trkpt>
      <trkpt lat="45.6627" lon="5.2746">
        <ele>298.8</ele>
        <time>2025-05-18T12:17:41Z</time>
      </trkpt>
      <trkpt lat="45.6627" lon="5.2746">
        <ele>298.8</ele>
        <time>2025-05-18T12:17:42Z</time>
      </trkpt>
      <trkpt lat="45.66271" lon="5.27459">
        <ele>299</ele>
        <time>2025-05-18T12:17:43Z</time>
      </trkpt>
      <trkpt lat="45.66273" lon="5.27458">
        <ele>299.2</ele>
        <time>2025-05-18T12:17:44Z</time>
      </trkpt>
      <trkpt lat="45.66274" lon="5.27457">
        <ele>299.2</ele>
        <time>2025-05-18T12:17:45Z</time>
      </trkpt>
      <trkpt lat="45.66275" lon="5.27457">
        <ele>299.6</ele>
        <time>2025-05-18T12:17:46Z</time>
      </trkpt>
      <trkpt lat="45.66276" lon="5.27456">
        <ele>299.6</ele>
        <time>2025-05-18T12:17:47Z</time>
      </trkpt>
      <trkpt lat="45.66277" lon="5.27455">
        <ele>299.6</ele>
        <time>2025-05-18T12:17:48Z</time>
      </trkpt>
      <trkpt lat="45.66279" lon="5.27454">
        <ele>299.6</ele>
        <time>2025-05-18T12:17:49Z</time>
      </trkpt>
      <trkpt lat="45.6628" lon="5.27453">
        <ele>300.2</ele>
        <time>2025-05-18T12:17:50Z</time>
      </trkpt>
      <trkpt lat="45.66281" lon="5.27452">
        <ele>300.4</ele>
        <time>2025-05-18T12:17:51Z</time>
      </trkpt>
      <trkpt lat="45.66282" lon="5.27452">
        <ele>300.6</ele>
        <time>2025-05-18T12:17:52Z</time>
      </trkpt>
      <trkpt lat="45.66283" lon="5.27451">
        <ele>300.8</ele>
        <time>2025-05-18T12:17:53Z</time>
      </trkpt>
      <trkpt lat="45.66284" lon="5.27451">
        <ele>300.8</ele>
        <time>2025-05-18T12:17:54Z</time>
      </trkpt>
      <trkpt lat="45.66286" lon="5.2745">
        <ele>301</ele>
        <time>2025-05-18T12:17:55Z</time>
      </trkpt>
      <trkpt lat="45.66287" lon="5.27449">
        <ele>301</ele>
        <time>2025-05-18T12:17:56Z</time>
      </trkpt>
      <trkpt lat="45.66289" lon="5.27448">
        <ele>301.4</ele>
        <time>2025-05-18T12:17:57Z</time>
      </trkpt>
      <trkpt lat="45.6629" lon="5.27447">
        <ele>301.4</ele>
        <time>2025-05-18T12:17:58Z</time>
      </trkpt>
      <trkpt lat="45.66291" lon="5.27446">
        <ele>301.4</ele>
        <time>2025-05-18T12:17:59Z</time>
      </trkpt>
      <trkpt lat="45.66292" lon="5.27445">
        <ele>301.8</ele>
        <time>2025-05-18T12:18:00Z</time>
      </trkpt>
      <trkpt lat="45.66294" lon="5.27444">
        <ele>301.8</ele>
        <time>2025-05-18T12:18:01Z</time>
      </trkpt>
      <trkpt lat="45.66296" lon="5.27443">
        <ele>302</ele>
        <time>2025-05-18T12:18:02Z</time>
      </trkpt>
      <trkpt lat="45.66297" lon="5.27442">
        <ele>302.4</ele>
        <time>2025-05-18T12:18:03Z</time>
      </trkpt>
      <trkpt lat="45.66298" lon="5.27442">
        <ele>302.4</ele>
        <time>2025-05-18T12:18:04Z</time>
      </trkpt>
      <trkpt lat="45.66299" lon="5.27443">
        <ele>302.6</ele>
        <time>2025-05-18T12:18:05Z</time>
      </trkpt>
      <trkpt lat="45.663" lon="5.27445">
        <ele>302.6</ele>
        <time>2025-05-18T12:18:06Z</time>
      </trkpt>
      <trkpt lat="45.663" lon="5.27448">
        <ele>302.8</ele>
        <time>2025-05-18T12:18:07Z</time>
      </trkpt>
      <trkpt lat="45.663" lon="5.2745">
        <ele>302.8</ele>
        <time>2025-05-18T12:18:08Z</time>
      </trkpt>
      <trkpt lat="45.66299" lon="5.27452">
        <ele>302.8</ele>
        <time>2025-05-18T12:18:09Z</time>
      </trkpt>
      <trkpt lat="45.66299" lon="5.27454">
        <ele>302.8</ele>
        <time>2025-05-18T12:18:10Z</time>
      </trkpt>
      <trkpt lat="45.66298" lon="5.27455">
        <ele>302.8</ele>
        <time>2025-05-18T12:18:11Z</time>
      </trkpt>
      <trkpt lat="45.66302" lon="5.27454">
        <ele>301.6</ele>
        <time>2025-05-18T12:23:51Z</time>
      </trkpt>
      <trkpt lat="45.66302" lon="5.27453">
        <ele>301.6</ele>
        <time>2025-05-18T12:23:52Z</time>
      </trkpt>
      <trkpt lat="45.66302" lon="5.27451">
        <ele>301.2</ele>
        <time>2025-05-18T12:23:53Z</time>
      </trkpt>
      <trkpt lat="45.66302" lon="5.27449">
        <ele>301.2</ele>
        <time>2025-05-18T12:23:54Z</time>
      </trkpt>
      <trkpt lat="45.66302" lon="5.27447">
        <ele>301</ele>
        <time>2025-05-18T12:23:55Z</time>
      </trkpt>
      <trkpt lat="45.66302" lon="5.27444">
        <ele>301</ele>
        <time>2025-05-18T12:23:56Z</time>
      </trkpt>
      <trkpt lat="45.66303" lon="5.27441">
        <ele>301</ele>
        <time>2025-05-18T12:23:57Z</time>
      </trkpt>
      <trkpt lat="45.66304" lon="5.27439">
        <ele>300.8</ele>
        <time>2025-05-18T12:23:58Z</time>
      </trkpt>
      <trkpt lat="45.66306" lon="5.27438">
        <ele>301</ele>
        <time>2025-05-18T12:23:59Z</time>
      </trkpt>
      <trkpt lat="45.66309" lon="5.27437">
        <ele>301.2</ele>
        <time>2025-05-18T12:24:00Z</time>
      </trkpt>
      <trkpt lat="45.66311" lon="5.27436">
        <ele>301.4</ele>
        <time>2025-05-18T12:24:01Z</time>
      </trkpt>
      <trkpt lat="45.66313" lon="5.27435">
        <ele>301.6</ele>
        <time>2025-05-18T12:24:02Z</time>
      </trkpt>
      <trkpt lat="45.66315" lon="5.27434">
        <ele>301.6</ele>
        <time>2025-05-18T12:24:03Z</time>
      </trkpt>
      <trkpt lat="45.66317" lon="5.27432">
        <ele>301.8</ele>
        <time>2025-05-18T12:24:04Z</time>
      </trkpt>
      <trkpt lat="45.66318" lon="5.27431">
        <ele>302.2</ele>
        <time>2025-05-18T12:24:05Z</time>
      </trkpt>
      <trkpt lat="45.6632" lon="5.2743">
        <ele>302.4</ele>
        <time>2025-05-18T12:24:06Z</time>
      </trkpt>
      <trkpt lat="45.66322" lon="5.27429">
        <ele>302.6</ele>
        <time>2025-05-18T12:24:07Z</time>
      </trkpt>
      <trkpt lat="45.66324" lon="5.27428">
        <ele>302.6</ele>
        <time>2025-05-18T12:24:08Z</time>
      </trkpt>
      <trkpt lat="45.66326" lon="5.27427">
        <ele>303</ele>
        <time>2025-05-18T12:24:09Z</time>
      </trkpt>
      <trkpt lat="45.66327" lon="5.27426">
        <ele>303.2</ele>
        <time>2025-05-18T12:24:10Z</time>
      </trkpt>
      <trkpt lat="45.66329" lon="5.27425">
        <ele>303.4</ele>
        <time>2025-05-18T12:24:11Z</time>
      </trkpt>
      <trkpt lat="45.66331" lon="5.27424">
        <ele>303.8</ele>
        <time>2025-05-18T12:24:12Z</time>
      </trkpt>
      <trkpt lat="45.66332" lon="5.27423">
        <ele>303.8</ele>
        <time>2025-05-18T12:24:13Z</time>
      </trkpt>
      <trkpt lat="45.66332" lon="5.27423">
        <ele>304</ele>
        <time>2025-05-18T12:24:14Z</time>
      </trkpt>
      <trkpt lat="45.66336" lon="5.27422">
        <ele>304</ele>
        <time>2025-05-18T12:24:15Z</time>
      </trkpt>
      <trkpt lat="45.66338" lon="5.27421">
        <ele>304.6</ele>
        <time>2025-05-18T12:24:16Z</time>
      </trkpt>
      <trkpt lat="45.66339" lon="5.2742">
        <ele>304.8</ele>
        <time>2025-05-18T12:24:17Z</time>
      </trkpt>
      <trkpt lat="45.66341" lon="5.27419">
        <ele>304.8</ele>
        <time>2025-05-18T12:24:18Z</time>
      </trkpt>
      <trkpt lat="45.66342" lon="5.27418">
        <ele>305.2</ele>
        <time>2025-05-18T12:24:19Z</time>
      </trkpt>
      <trkpt lat="45.66344" lon="5.27417">
        <ele>305.2</ele>
        <time>2025-05-18T12:24:20Z</time>
      </trkpt>
      <trkpt lat="45.66345" lon="5.27416">
        <ele>305.6</ele>
        <time>2025-05-18T12:24:21Z</time>
      </trkpt>
      <trkpt lat="45.66347" lon="5.27415">
        <ele>305.6</ele>
        <time>2025-05-18T12:24:22Z</time>
      </trkpt>
      <trkpt lat="45.66348" lon="5.27414">
        <ele>305.8</ele>
        <time>2025-05-18T12:24:23Z</time>
      </trkpt>
      <trkpt lat="45.6635" lon="5.27413">
        <ele>305.8</ele>
        <time>2025-05-18T12:24:24Z</time>
      </trkpt>
      <trkpt lat="45.66351" lon="5.27412">
        <ele>306.6</ele>
        <time>2025-05-18T12:24:25Z</time>
      </trkpt>
      <trkpt lat="45.66353" lon="5.27411">
        <ele>306.8</ele>
        <time>2025-05-18T12:24:26Z</time>
      </trkpt>
      <trkpt lat="45.66355" lon="5.2741">
        <ele>306.8</ele>
        <time>2025-05-18T12:24:27Z</time>
      </trkpt>
      <trkpt lat="45.66356" lon="5.27409">
        <ele>306.8</ele>
        <time>2025-05-18T12:24:28Z</time>
      </trkpt>
      <trkpt lat="45.66358" lon="5.27409">
        <ele>306.8</ele>
        <time>2025-05-18T12:24:29Z</time>
      </trkpt>
      <trkpt lat="45.6636" lon="5.27408">
        <ele>306.8</ele>
        <time>2025-05-18T12:24:30Z</time>
      </trkpt>
      <trkpt lat="45.66362" lon="5.27407">
        <ele>306.8</ele>
        <time>2025-05-18T12:24:31Z</time>
      </trkpt>
      <trkpt lat="45.66363" lon="5.27407">
        <ele>307.2</ele>
        <time>2025-05-18T12:24:32Z</time>
      </trkpt>
      <trkpt lat="45.66365" lon="5.27406">
        <ele>307.2</ele>
        <time>2025-05-18T12:24:33Z</time>
      </trkpt>
      <trkpt lat="45.66366" lon="5.27405">
        <ele>307.4</ele>
        <time>2025-05-18T12:24:34Z</time>
      </trkpt>
      <trkpt lat="45.66367" lon="5.27404">
        <ele>307.6</ele>
        <time>2025-05-18T12:24:35Z</time>
      </trkpt>
      <trkpt lat="45.66369" lon="5.27403">
        <ele>307.6</ele>
        <time>2025-05-18T12:24:36Z</time>
      </trkpt>
      <trkpt lat="45.66372" lon="5.27402">
        <ele>307.6</ele>
        <time>2025-05-18T12:24:37Z</time>
      </trkpt>
      <trkpt lat="45.66374" lon="5.27401">
        <ele>307.6</ele>
        <time>2025-05-18T12:24:38Z</time>
      </trkpt>
      <trkpt lat="45.66375" lon="5.27401">
        <ele>307.8</ele>
        <time>2025-05-18T12:24:39Z</time>
      </trkpt>
      <trkpt lat="45.66376" lon="5.274">
        <ele>307.8</ele>
        <time>2025-05-18T12:24:40Z</time>
      </trkpt>
      <trkpt lat="45.66378" lon="5.274">
        <ele>307.8</ele>
        <time>2025-05-18T12:24:41Z</time>
      </trkpt>
      <trkpt lat="45.6638" lon="5.27399">
        <ele>308.2</ele>
        <time>2025-05-18T12:24:42Z</time>
      </trkpt>
      <trkpt lat="45.66381" lon="5.27398">
        <ele>308.4</ele>
        <time>2025-05-18T12:24:43Z</time>
      </trkpt>
      <trkpt lat="45.66382" lon="5.27398">
        <ele>308.4</ele>
        <time>2025-05-18T12:24:44Z</time>
      </trkpt>
      <trkpt lat="45.66384" lon="5.27398">
        <ele>308.8</ele>
        <time>2025-05-18T12:24:45Z</time>
      </trkpt>
      <trkpt lat="45.66385" lon="5.27398">
        <ele>309</ele>
        <time>2025-05-18T12:24:46Z</time>
      </trkpt>
      <trkpt lat="45.66387" lon="5.27398">
        <ele>309</ele>
        <time>2025-05-18T12:24:47Z</time>
      </trkpt>
      <trkpt lat="45.66389" lon="5.27398">
        <ele>309.4</ele>
        <time>2025-05-18T12:24:48Z</time>
      </trkpt>
      <trkpt lat="45.6639" lon="5.27399">
        <ele>309.6</ele>
        <time>2025-05-18T12:24:49Z</time>
      </trkpt>
      <trkpt lat="45.66392" lon="5.27399">
        <ele>309.6</ele>
        <time>2025-05-18T12:24:50Z</time>
      </trkpt>
      <trkpt lat="45.66394" lon="5.27399">
        <ele>310</ele>
        <time>2025-05-18T12:24:51Z</time>
      </trkpt>
      <trkpt lat="45.66397" lon="5.27399">
        <ele>310</ele>
        <time>2025-05-18T12:24:52Z</time>
      </trkpt>
      <trkpt lat="45.66399" lon="5.27399">
        <ele>310.2</ele>
        <time>2025-05-18T12:24:53Z</time>
      </trkpt>
      <trkpt lat="45.66401" lon="5.27398">
        <ele>310.2</ele>
        <time>2025-05-18T12:24:54Z</time>
      </trkpt>
      <trkpt lat="45.66401" lon="5.27398">
        <ele>310.2</ele>
        <time>2025-05-18T12:24:55Z</time>
      </trkpt>
      <trkpt lat="45.66403" lon="5.27397">
        <ele>310.4</ele>
        <time>2025-05-18T12:24:56Z</time>
      </trkpt>
      <trkpt lat="45.66405" lon="5.27397">
        <ele>310.4</ele>
        <time>2025-05-18T12:24:57Z</time>
      </trkpt>
      <trkpt lat="45.66407" lon="5.27396">
        <ele>310.4</ele>
        <time>2025-05-18T12:24:58Z</time>
      </trkpt>
      <trkpt lat="45.6641" lon="5.27396">
        <ele>310.4</ele>
        <time>2025-05-18T12:24:59Z</time>
      </trkpt>
      <trkpt lat="45.66412" lon="5.27395">
        <ele>310.8</ele>
        <time>2025-05-18T12:25:00Z</time>
      </trkpt>
      <trkpt lat="45.66414" lon="5.27395">
        <ele>310.8</ele>
        <time>2025-05-18T12:25:01Z</time>
      </trkpt>
      <trkpt lat="45.66416" lon="5.27394">
        <ele>310.8</ele>
        <time>2025-05-18T12:25:02Z</time>
      </trkpt>
      <trkpt lat="45.66418" lon="5.27394">
        <ele>311.2</ele>
        <time>2025-05-18T12:25:03Z</time>
      </trkpt>
      <trkpt lat="45.6642" lon="5.27393">
        <ele>311.6</ele>
        <time>2025-05-18T12:25:04Z</time>
      </trkpt>
      <trkpt lat="45.66422" lon="5.27393">
        <ele>312.2</ele>
        <time>2025-05-18T12:25:05Z</time>
      </trkpt>
      <trkpt lat="45.66425" lon="5.27393">
        <ele>312.2</ele>
        <time>2025-05-18T12:25:06Z</time>
      </trkpt>
      <trkpt lat="45.66427" lon="5.27393">
        <ele>312.8</ele>
        <time>2025-05-18T12:25:07Z</time>
      </trkpt>
      <trkpt lat="45.66428" lon="5.27391">
        <ele>312.8</ele>
        <time>2025-05-18T12:25:08Z</time>
      </trkpt>
      <trkpt lat="45.6643" lon="5.2739">
        <ele>312.8</ele>
        <time>2025-05-18T12:25:09Z</time>
      </trkpt>
      <trkpt lat="45.66431" lon="5.27388">
        <ele>313</ele>
        <time>2025-05-18T12:25:10Z</time>
      </trkpt>
      <trkpt lat="45.66432" lon="5.27387">
        <ele>313</ele>
        <time>2025-05-18T12:25:11Z</time>
      </trkpt>
      <trkpt lat="45.66434" lon="5.27386">
        <ele>313</ele>
        <time>2025-05-18T12:25:12Z</time>
      </trkpt>
      <trkpt lat="45.66435" lon="5.27385">
        <ele>313.4</ele>
        <time>2025-05-18T12:25:13Z</time>
      </trkpt>
      <trkpt lat="45.66436" lon="5.27384">
        <ele>313.6</ele>
        <time>2025-05-18T12:25:14Z</time>
      </trkpt>
      <trkpt lat="45.66438" lon="5.27383">
        <ele>313.6</ele>
        <time>2025-05-18T12:25:15Z</time>
      </trkpt>
      <trkpt lat="45.6644" lon="5.27382">
        <ele>313.6</ele>
        <time>2025-05-18T12:25:16Z</time>
      </trkpt>
      <trkpt lat="45.66441" lon="5.2738">
        <ele>313.6</ele>
        <time>2025-05-18T12:25:17Z</time>
      </trkpt>
      <trkpt lat="45.66442" lon="5.27379">
        <ele>314</ele>
        <time>2025-05-18T12:25:18Z</time>
      </trkpt>
      <trkpt lat="45.66443" lon="5.27377">
        <ele>314.2</ele>
        <time>2025-05-18T12:25:19Z</time>
      </trkpt>
      <trkpt lat="45.66444" lon="5.27374">
        <ele>314.2</ele>
        <time>2025-05-18T12:25:20Z</time>
      </trkpt>
      <trkpt lat="45.66446" lon="5.27372">
        <ele>314.6</ele>
        <time>2025-05-18T12:25:21Z</time>
      </trkpt>
      <trkpt lat="45.66447" lon="5.2737">
        <ele>314.8</ele>
        <time>2025-05-18T12:25:22Z</time>
      </trkpt>
      <trkpt lat="45.66448" lon="5.27368">
        <ele>314.8</ele>
        <time>2025-05-18T12:25:23Z</time>
      </trkpt>
      <trkpt lat="45.66449" lon="5.27366">
        <ele>315.2</ele>
        <time>2025-05-18T12:25:24Z</time>
      </trkpt>
      <trkpt lat="45.6645" lon="5.27363">
        <ele>315.2</ele>
        <time>2025-05-18T12:25:25Z</time>
      </trkpt>
      <trkpt lat="45.66451" lon="5.27361">
        <ele>315.4</ele>
        <time>2025-05-18T12:25:26Z</time>
      </trkpt>
      <trkpt lat="45.66452" lon="5.27358">
        <ele>315.4</ele>
        <time>2025-05-18T12:25:27Z</time>
      </trkpt>
      <trkpt lat="45.66452" lon="5.27356">
        <ele>315.4</ele>
        <time>2025-05-18T12:25:28Z</time>
      </trkpt>
      <trkpt lat="45.66453" lon="5.27353">
        <ele>315.4</ele>
        <time>2025-05-18T12:25:29Z</time>
      </trkpt>
      <trkpt lat="45.66453" lon="5.2735">
        <ele>315.4</ele>
        <time>2025-05-18T12:25:30Z</time>
      </trkpt>
      <trkpt lat="45.66453" lon="5.27347">
        <ele>315.8</ele>
        <time>2025-05-18T12:25:31Z</time>
      </trkpt>
      <trkpt lat="45.66453" lon="5.27345">
        <ele>315.8</ele>
        <time>2025-05-18T12:25:32Z</time>
      </trkpt>
      <trkpt lat="45.66453" lon="5.27342">
        <ele>316.2</ele>
        <time>2025-05-18T12:25:33Z</time>
      </trkpt>
      <trkpt lat="45.66454" lon="5.27339">
        <ele>316.2</ele>
        <time>2025-05-18T12:25:34Z</time>
      </trkpt>
      <trkpt lat="45.66455" lon="5.27337">
        <ele>316.2</ele>
        <time>2025-05-18T12:25:35Z</time>
      </trkpt>
      <trkpt lat="45.66455" lon="5.27334">
        <ele>316.2</ele>
        <time>2025-05-18T12:25:36Z</time>
      </trkpt>
      <trkpt lat="45.66456" lon="5.27331">
        <ele>316.4</ele>
        <time>2025-05-18T12:25:37Z</time>
      </trkpt>
      <trkpt lat="45.66456" lon="5.27327">
        <ele>316.4</ele>
        <time>2025-05-18T12:25:38Z</time>
      </trkpt>
      <trkpt lat="45.66456" lon="5.27324">
        <ele>316.4</ele>
        <time>2025-05-18T12:25:39Z</time>
      </trkpt>
      <trkpt lat="45.66456" lon="5.2732">
        <ele>316.4</ele>
        <time>2025-05-18T12:25:40Z</time>
      </trkpt>
      <trkpt lat="45.66457" lon="5.27316">
        <ele>316.8</ele>
        <time>2025-05-18T12:25:41Z</time>
      </trkpt>
      <trkpt lat="45.66458" lon="5.27312">
        <ele>317</ele>
        <time>2025-05-18T12:25:42Z</time>
      </trkpt>
      <trkpt lat="45.66459" lon="5.27307">
        <ele>317</ele>
        <time>2025-05-18T12:25:43Z</time>
      </trkpt>
      <trkpt lat="45.66459" lon="5.27303">
        <ele>316.6</ele>
        <time>2025-05-18T12:25:44Z</time>
      </trkpt>
      <trkpt lat="45.6646" lon="5.27298">
        <ele>316.6</ele>
        <time>2025-05-18T12:25:45Z</time>
      </trkpt>
      <trkpt lat="45.66461" lon="5.27293">
        <ele>317</ele>
        <time>2025-05-18T12:25:46Z</time>
      </trkpt>
      <trkpt lat="45.66462" lon="5.27287">
        <ele>317</ele>
        <time>2025-05-18T12:25:47Z</time>
      </trkpt>
      <trkpt lat="45.66463" lon="5.27282">
        <ele>317</ele>
        <time>2025-05-18T12:25:48Z</time>
      </trkpt>
      <trkpt lat="45.66464" lon="5.27277">
        <ele>317</ele>
        <time>2025-05-18T12:25:49Z</time>
      </trkpt>
      <trkpt lat="45.66465" lon="5.27271">
        <ele>317</ele>
        <time>2025-05-18T12:25:50Z</time>
      </trkpt>
      <trkpt lat="45.66466" lon="5.27266">
        <ele>317</ele>
        <time>2025-05-18T12:25:51Z</time>
      </trkpt>
      <trkpt lat="45.66468" lon="5.27261">
        <ele>317</ele>
        <time>2025-05-18T12:25:52Z</time>
      </trkpt>
      <trkpt lat="45.66469" lon="5.27255">
        <ele>317</ele>
        <time>2025-05-18T12:25:53Z</time>
      </trkpt>
      <trkpt lat="45.6647" lon="5.27249">
        <ele>317.4</ele>
        <time>2025-05-18T12:25:54Z</time>
      </trkpt>
      <trkpt lat="45.66472" lon="5.27244">
        <ele>317.4</ele>
        <time>2025-05-18T12:25:55Z</time>
      </trkpt>
      <trkpt lat="45.66474" lon="5.27238">
        <ele>317.4</ele>
        <time>2025-05-18T12:25:56Z</time>
      </trkpt>
      <trkpt lat="45.66475" lon="5.27233">
        <ele>317.4</ele>
        <time>2025-05-18T12:25:57Z</time>
      </trkpt>
      <trkpt lat="45.66476" lon="5.27227">
        <ele>317.4</ele>
        <time>2025-05-18T12:25:58Z</time>
      </trkpt>
      <trkpt lat="45.66478" lon="5.27221">
        <ele>317.4</ele>
        <time>2025-05-18T12:25:59Z</time>
      </trkpt>
      <trkpt lat="45.66477" lon="5.27214">
        <ele>317.4</ele>
        <time>2025-05-18T12:26:00Z</time>
      </trkpt>
      <trkpt lat="45.66479" lon="5.27209">
        <ele>317.4</ele>
        <time>2025-05-18T12:26:01Z</time>
      </trkpt>
      <trkpt lat="45.6648" lon="5.27203">
        <ele>317.4</ele>
        <time>2025-05-18T12:26:02Z</time>
      </trkpt>
      <trkpt lat="45.66481" lon="5.27196">
        <ele>317.4</ele>
        <time>2025-05-18T12:26:03Z</time>
      </trkpt>
      <trkpt lat="45.66482" lon="5.2719">
        <ele>317.4</ele>
        <time>2025-05-18T12:26:04Z</time>
      </trkpt>
      <trkpt lat="45.66482" lon="5.27185">
        <ele>317.4</ele>
        <time>2025-05-18T12:26:05Z</time>
      </trkpt>
      <trkpt lat="45.66484" lon="5.27179">
        <ele>317.4</ele>
        <time>2025-05-18T12:26:06Z</time>
      </trkpt>
      <trkpt lat="45.66485" lon="5.27172">
        <ele>317.4</ele>
        <time>2025-05-18T12:26:07Z</time>
      </trkpt>
      <trkpt lat="45.66486" lon="5.27166">
        <ele>317.4</ele>
        <time>2025-05-18T12:26:08Z</time>
      </trkpt>
      <trkpt lat="45.66487" lon="5.27159">
        <ele>317.6</ele>
        <time>2025-05-18T12:26:09Z</time>
      </trkpt>
      <trkpt lat="45.66488" lon="5.27153">
        <ele>317.6</ele>
        <time>2025-05-18T12:26:10Z</time>
      </trkpt>
      <trkpt lat="45.66489" lon="5.27147">
        <ele>317.6</ele>
        <time>2025-05-18T12:26:11Z</time>
      </trkpt>
      <trkpt lat="45.6649" lon="5.27141">
        <ele>318</ele>
        <time>2025-05-18T12:26:12Z</time>
      </trkpt>
      <trkpt lat="45.6649" lon="5.27135">
        <ele>317.6</ele>
        <time>2025-05-18T12:26:13Z</time>
      </trkpt>
      <trkpt lat="45.66491" lon="5.2713">
        <ele>317.8</ele>
        <time>2025-05-18T12:26:14Z</time>
      </trkpt>
      <trkpt lat="45.66492" lon="5.27124">
        <ele>317.8</ele>
        <time>2025-05-18T12:26:15Z</time>
      </trkpt>
      <trkpt lat="45.66492" lon="5.27119">
        <ele>318.2</ele>
        <time>2025-05-18T12:26:16Z</time>
      </trkpt>
      <trkpt lat="45.66493" lon="5.27114">
        <ele>318.8</ele>
        <time>2025-05-18T12:26:17Z</time>
      </trkpt>
      <trkpt lat="45.66494" lon="5.27109">
        <ele>319</ele>
        <time>2025-05-18T12:26:18Z</time>
      </trkpt>
      <trkpt lat="45.66495" lon="5.27103">
        <ele>319</ele>
        <time>2025-05-18T12:26:19Z</time>
      </trkpt>
      <trkpt lat="45.66496" lon="5.27097">
        <ele>319</ele>
        <time>2025-05-18T12:26:20Z</time>
      </trkpt>
      <trkpt lat="45.66497" lon="5.27092">
        <ele>319</ele>
        <time>2025-05-18T12:26:21Z</time>
      </trkpt>
      <trkpt lat="45.66499" lon="5.27086">
        <ele>319.2</ele>
        <time>2025-05-18T12:26:22Z</time>
      </trkpt>
      <trkpt lat="45.665" lon="5.2708">
        <ele>319.4</ele>
        <time>2025-05-18T12:26:23Z</time>
      </trkpt>
      <trkpt lat="45.66501" lon="5.27074">
        <ele>319.4</ele>
        <time>2025-05-18T12:26:24Z</time>
      </trkpt>
      <trkpt lat="45.66503" lon="5.27069">
        <ele>319.4</ele>
        <time>2025-05-18T12:26:25Z</time>
      </trkpt>
      <trkpt lat="45.66504" lon="5.27064">
        <ele>319.4</ele>
        <time>2025-05-18T12:26:26Z</time>
      </trkpt>
      <trkpt lat="45.66505" lon="5.27059">
        <ele>320</ele>
        <time>2025-05-18T12:26:27Z</time>
      </trkpt>
      <trkpt lat="45.66506" lon="5.27054">
        <ele>320</ele>
        <time>2025-05-18T12:26:28Z</time>
      </trkpt>
      <trkpt lat="45.66506" lon="5.27049">
        <ele>320.4</ele>
        <time>2025-05-18T12:26:29Z</time>
      </trkpt>
      <trkpt lat="45.66507" lon="5.27045">
        <ele>320.4</ele>
        <time>2025-05-18T12:26:30Z</time>
      </trkpt>
      <trkpt lat="45.66508" lon="5.2704">
        <ele>320.6</ele>
        <time>2025-05-18T12:26:31Z</time>
      </trkpt>
      <trkpt lat="45.66508" lon="5.27036">
        <ele>320.8</ele>
        <time>2025-05-18T12:26:32Z</time>
      </trkpt>
      <trkpt lat="45.66509" lon="5.27033">
        <ele>320.8</ele>
        <time>2025-05-18T12:26:33Z</time>
      </trkpt>
      <trkpt lat="45.66511" lon="5.27029">
        <ele>321</ele>
        <time>2025-05-18T12:26:34Z</time>
      </trkpt>
      <trkpt lat="45.66512" lon="5.27025">
        <ele>321</ele>
        <time>2025-05-18T12:26:35Z</time>
      </trkpt>
      <trkpt lat="45.66512" lon="5.27022">
        <ele>321</ele>
        <time>2025-05-18T12:26:36Z</time>
      </trkpt>
      <trkpt lat="45.66513" lon="5.27019">
        <ele>321</ele>
        <time>2025-05-18T12:26:37Z</time>
      </trkpt>
      <trkpt lat="45.66514" lon="5.27016">
        <ele>321.6</ele>
        <time>2025-05-18T12:26:38Z</time>
      </trkpt>
      <trkpt lat="45.66515" lon="5.27013">
        <ele>322</ele>
        <time>2025-05-18T12:26:39Z</time>
      </trkpt>
      <trkpt lat="45.66515" lon="5.2701">
        <ele>322.4</ele>
        <time>2025-05-18T12:26:40Z</time>
      </trkpt>
      <trkpt lat="45.66516" lon="5.27007">
        <ele>322.4</ele>
        <time>2025-05-18T12:26:41Z</time>
      </trkpt>
      <trkpt lat="45.66517" lon="5.27004">
        <ele>322.8</ele>
        <time>2025-05-18T12:26:42Z</time>
      </trkpt>
      <trkpt lat="45.66518" lon="5.27003">
        <ele>322.8</ele>
        <time>2025-05-18T12:26:43Z</time>
      </trkpt>
      <trkpt lat="45.6652" lon="5.27001">
        <ele>323.2</ele>
        <time>2025-05-18T12:26:44Z</time>
      </trkpt>
      <trkpt lat="45.6652" lon="5.27">
        <ele>323.4</ele>
        <time>2025-05-18T12:26:45Z</time>
      </trkpt>
      <trkpt lat="45.6652" lon="5.26999">
        <ele>323.4</ele>
        <time>2025-05-18T12:26:46Z</time>
      </trkpt>
      <trkpt lat="45.6652" lon="5.26997">
        <ele>323.8</ele>
        <time>2025-05-18T12:26:47Z</time>
      </trkpt>
      <trkpt lat="45.6652" lon="5.26996">
        <ele>323.8</ele>
        <time>2025-05-18T12:26:48Z</time>
      </trkpt>
      <trkpt lat="45.66519" lon="5.26995">
        <ele>324</ele>
        <time>2025-05-18T12:26:49Z</time>
      </trkpt>
      <trkpt lat="45.66519" lon="5.26996">
        <ele>324</ele>
        <time>2025-05-18T12:26:50Z</time>
      </trkpt>
      <trkpt lat="45.66519" lon="5.26997">
        <ele>323.8</ele>
        <time>2025-05-18T12:27:09Z</time>
      </trkpt>
      <trkpt lat="45.66519" lon="5.26996">
        <ele>323.8</ele>
        <time>2025-05-18T12:27:10Z</time>
      </trkpt>
      <trkpt lat="45.66519" lon="5.26996">
        <ele>323.8</ele>
        <time>2025-05-18T12:27:11Z</time>
      </trkpt>
      <trkpt lat="45.66519" lon="5.2699">
        <ele>323</ele>
        <time>2025-05-18T12:28:04Z</time>
      </trkpt>
      <trkpt lat="45.66519" lon="5.26986">
        <ele>323</ele>
        <time>2025-05-18T12:28:05Z</time>
      </trkpt>
      <trkpt lat="45.6652" lon="5.26982">
        <ele>323.4</ele>
        <time>2025-05-18T12:28:06Z</time>
      </trkpt>
      <trkpt lat="45.66521" lon="5.26978">
        <ele>323.4</ele>
        <time>2025-05-18T12:28:07Z</time>
      </trkpt>
      <trkpt lat="45.66522" lon="5.26974">
        <ele>323.4</ele>
        <time>2025-05-18T12:28:08Z</time>
      </trkpt>
      <trkpt lat="45.66524" lon="5.26969">
        <ele>323.4</ele>
        <time>2025-05-18T12:28:09Z</time>
      </trkpt>
      <trkpt lat="45.66525" lon="5.26964">
        <ele>323.6</ele>
        <time>2025-05-18T12:28:10Z</time>
      </trkpt>
      <trkpt lat="45.66527" lon="5.26959">
        <ele>324</ele>
        <time>2025-05-18T12:28:11Z</time>
      </trkpt>
      <trkpt lat="45.66528" lon="5.26954">
        <ele>324</ele>
        <time>2025-05-18T12:28:12Z</time>
      </trkpt>
      <trkpt lat="45.66529" lon="5.26949">
        <ele>324</ele>
        <time>2025-05-18T12:28:13Z</time>
      </trkpt>
      <trkpt lat="45.6653" lon="5.26944">
        <ele>324.2</ele>
        <time>2025-05-18T12:28:14Z</time>
      </trkpt>
      <trkpt lat="45.66531" lon="5.2694">
        <ele>324.2</ele>
        <time>2025-05-18T12:28:15Z</time>
      </trkpt>
      <trkpt lat="45.66532" lon="5.26935">
        <ele>324.2</ele>
        <time>2025-05-18T12:28:16Z</time>
      </trkpt>
      <trkpt lat="45.66533" lon="5.2693">
        <ele>324.2</ele>
        <time>2025-05-18T12:28:17Z</time>
      </trkpt>
      <trkpt lat="45.66534" lon="5.26926">
        <ele>324.4</ele>
        <time>2025-05-18T12:28:18Z</time>
      </trkpt>
      <trkpt lat="45.66535" lon="5.26922">
        <ele>324.4</ele>
        <time>2025-05-18T12:28:19Z</time>
      </trkpt>
      <trkpt lat="45.66536" lon="5.26918">
        <ele>324.4</ele>
        <time>2025-05-18T12:28:20Z</time>
      </trkpt>
      <trkpt lat="45.66537" lon="5.26914">
        <ele>324.8</ele>
        <time>2025-05-18T12:28:21Z</time>
      </trkpt>
      <trkpt lat="45.66538" lon="5.2691">
        <ele>324.8</ele>
        <time>2025-05-18T12:28:22Z</time>
      </trkpt>
      <trkpt lat="45.66539" lon="5.26905">
        <ele>325</ele>
        <time>2025-05-18T12:28:23Z</time>
      </trkpt>
      <trkpt lat="45.6654" lon="5.26901">
        <ele>325</ele>
        <time>2025-05-18T12:28:24Z</time>
      </trkpt>
      <trkpt lat="45.6654" lon="5.26897">
        <ele>325</ele>
        <time>2025-05-18T12:28:25Z</time>
      </trkpt>
      <trkpt lat="45.6654" lon="5.26893">
        <ele>325.4</ele>
        <time>2025-05-18T12:28:26Z</time>
      </trkpt>
      <trkpt lat="45.6654" lon="5.26888">
        <ele>325.6</ele>
        <time>2025-05-18T12:28:27Z</time>
      </trkpt>
      <trkpt lat="45.66541" lon="5.26884">
        <ele>325.6</ele>
        <time>2025-05-18T12:28:28Z</time>
      </trkpt>
      <trkpt lat="45.66542" lon="5.26879">
        <ele>325.6</ele>
        <time>2025-05-18T12:28:29Z</time>
      </trkpt>
      <trkpt lat="45.66543" lon="5.26875">
        <ele>325.8</ele>
        <time>2025-05-18T12:28:30Z</time>
      </trkpt>
      <trkpt lat="45.66545" lon="5.2687">
        <ele>325.8</ele>
        <time>2025-05-18T12:28:31Z</time>
      </trkpt>
      <trkpt lat="45.66546" lon="5.26865">
        <ele>325.8</ele>
        <time>2025-05-18T12:28:32Z</time>
      </trkpt>
      <trkpt lat="45.66548" lon="5.26861">
        <ele>326.2</ele>
        <time>2025-05-18T12:28:33Z</time>
      </trkpt>
      <trkpt lat="45.66551" lon="5.26858">
        <ele>326.2</ele>
        <time>2025-05-18T12:28:34Z</time>
      </trkpt>
      <trkpt lat="45.66552" lon="5.26854">
        <ele>326.6</ele>
        <time>2025-05-18T12:28:35Z</time>
      </trkpt>
      <trkpt lat="45.66554" lon="5.26852">
        <ele>326.6</ele>
        <time>2025-05-18T12:28:36Z</time>
      </trkpt>
      <trkpt lat="45.66556" lon="5.26849">
        <ele>327</ele>
        <time>2025-05-18T12:28:37Z</time>
      </trkpt>
      <trkpt lat="45.66557" lon="5.26846">
        <ele>327.4</ele>
        <time>2025-05-18T12:28:38Z</time>
      </trkpt>
      <trkpt lat="45.66558" lon="5.26843">
        <ele>327.4</ele>
        <time>2025-05-18T12:28:39Z</time>
      </trkpt>
      <trkpt lat="45.66559" lon="5.2684">
        <ele>327.6</ele>
        <time>2025-05-18T12:28:40Z</time>
      </trkpt>
      <trkpt lat="45.6656" lon="5.26838">
        <ele>327.8</ele>
        <time>2025-05-18T12:28:41Z</time>
      </trkpt>
      <trkpt lat="45.66561" lon="5.26836">
        <ele>327.8</ele>
        <time>2025-05-18T12:28:42Z</time>
      </trkpt>
      <trkpt lat="45.66562" lon="5.26834">
        <ele>328.2</ele>
        <time>2025-05-18T12:28:43Z</time>
      </trkpt>
      <trkpt lat="45.66563" lon="5.26831">
        <ele>328.2</ele>
        <time>2025-05-18T12:28:44Z</time>
      </trkpt>
      <trkpt lat="45.66564" lon="5.26829">
        <ele>328.2</ele>
        <time>2025-05-18T12:28:45Z</time>
      </trkpt>
      <trkpt lat="45.66565" lon="5.26827">
        <ele>328.6</ele>
        <time>2025-05-18T12:28:46Z</time>
      </trkpt>
      <trkpt lat="45.66567" lon="5.26824">
        <ele>328.6</ele>
        <time>2025-05-18T12:28:47Z</time>
      </trkpt>
      <trkpt lat="45.66568" lon="5.26822">
        <ele>329.2</ele>
        <time>2025-05-18T12:28:48Z</time>
      </trkpt>
      <trkpt lat="45.66569" lon="5.26821">
        <ele>329.4</ele>
        <time>2025-05-18T12:28:49Z</time>
      </trkpt>
      <trkpt lat="45.66571" lon="5.26819">
        <ele>329.8</ele>
        <time>2025-05-18T12:28:50Z</time>
      </trkpt>
      <trkpt lat="45.66572" lon="5.26818">
        <ele>330</ele>
        <time>2025-05-18T12:28:51Z</time>
      </trkpt>
      <trkpt lat="45.66574" lon="5.26817">
        <ele>330.2</ele>
        <time>2025-05-18T12:28:52Z</time>
      </trkpt>
      <trkpt lat="45.66575" lon="5.26815">
        <ele>330.2</ele>
        <time>2025-05-18T12:28:53Z</time>
      </trkpt>
      <trkpt lat="45.66577" lon="5.26815">
        <ele>330.6</ele>
        <time>2025-05-18T12:28:54Z</time>
      </trkpt>
      <trkpt lat="45.66578" lon="5.26814">
        <ele>330.6</ele>
        <time>2025-05-18T12:28:55Z</time>
      </trkpt>
      <trkpt lat="45.66579" lon="5.26814">
        <ele>331</ele>
        <time>2025-05-18T12:28:56Z</time>
      </trkpt>
      <trkpt lat="45.6658" lon="5.26814">
        <ele>331</ele>
        <time>2025-05-18T12:28:57Z</time>
      </trkpt>
      <trkpt lat="45.66582" lon="5.26814">
        <ele>331.2</ele>
        <time>2025-05-18T12:28:58Z</time>
      </trkpt>
      <trkpt lat="45.66584" lon="5.26814">
        <ele>331.4</ele>
        <time>2025-05-18T12:28:59Z</time>
      </trkpt>
      <trkpt lat="45.66585" lon="5.26813">
        <ele>331.4</ele>
        <time>2025-05-18T12:29:00Z</time>
      </trkpt>
      <trkpt lat="45.66587" lon="5.26812">
        <ele>331.6</ele>
        <time>2025-05-18T12:29:01Z</time>
      </trkpt>
      <trkpt lat="45.66588" lon="5.26812">
        <ele>332</ele>
        <time>2025-05-18T12:29:02Z</time>
      </trkpt>
      <trkpt lat="45.66589" lon="5.26811">
        <ele>332</ele>
        <time>2025-05-18T12:29:03Z</time>
      </trkpt>
      <trkpt lat="45.66591" lon="5.2681">
        <ele>332.2</ele>
        <time>2025-05-18T12:29:04Z</time>
      </trkpt>
      <trkpt lat="45.66593" lon="5.26809">
        <ele>332.6</ele>
        <time>2025-05-18T12:29:05Z</time>
      </trkpt>
      <trkpt lat="45.66594" lon="5.26808">
        <ele>332.8</ele>
        <time>2025-05-18T12:29:06Z</time>
      </trkpt>
      <trkpt lat="45.66596" lon="5.26807">
        <ele>332.8</ele>
        <time>2025-05-18T12:29:07Z</time>
      </trkpt>
      <trkpt lat="45.66597" lon="5.26806">
        <ele>333.4</ele>
        <time>2025-05-18T12:29:08Z</time>
      </trkpt>
      <trkpt lat="45.66598" lon="5.26806">
        <ele>333.8</ele>
        <time>2025-05-18T12:29:09Z</time>
      </trkpt>
      <trkpt lat="45.666" lon="5.26805">
        <ele>334</ele>
        <time>2025-05-18T12:29:10Z</time>
      </trkpt>
      <trkpt lat="45.66601" lon="5.26804">
        <ele>334.4</ele>
        <time>2025-05-18T12:29:11Z</time>
      </trkpt>
      <trkpt lat="45.66603" lon="5.26803">
        <ele>334.4</ele>
        <time>2025-05-18T12:29:12Z</time>
      </trkpt>
      <trkpt lat="45.66604" lon="5.26803">
        <ele>334.8</ele>
        <time>2025-05-18T12:29:13Z</time>
      </trkpt>
      <trkpt lat="45.66606" lon="5.26802">
        <ele>335</ele>
        <time>2025-05-18T12:29:14Z</time>
      </trkpt>
      <trkpt lat="45.66607" lon="5.26801">
        <ele>335.4</ele>
        <time>2025-05-18T12:29:15Z</time>
      </trkpt>
      <trkpt lat="45.66608" lon="5.26801">
        <ele>335.6</ele>
        <time>2025-05-18T12:29:16Z</time>
      </trkpt>
      <trkpt lat="45.66609" lon="5.268">
        <ele>335.8</ele>
        <time>2025-05-18T12:29:17Z</time>
      </trkpt>
      <trkpt lat="45.6661" lon="5.26799">
        <ele>335.8</ele>
        <time>2025-05-18T12:29:18Z</time>
      </trkpt>
      <trkpt lat="45.66612" lon="5.26798">
        <ele>336</ele>
        <time>2025-05-18T12:29:19Z</time>
      </trkpt>
      <trkpt lat="45.66613" lon="5.26798">
        <ele>336.2</ele>
        <time>2025-05-18T12:29:20Z</time>
      </trkpt>
      <trkpt lat="45.66614" lon="5.26797">
        <ele>336.2</ele>
        <time>2025-05-18T12:29:21Z</time>
      </trkpt>
      <trkpt lat="45.66615" lon="5.26796">
        <ele>336.6</ele>
        <time>2025-05-18T12:29:22Z</time>
      </trkpt>
      <trkpt lat="45.66616" lon="5.26795">
        <ele>336.6</ele>
        <time>2025-05-18T12:29:23Z</time>
      </trkpt>
      <trkpt lat="45.66617" lon="5.26794">
        <ele>336.8</ele>
        <time>2025-05-18T12:29:24Z</time>
      </trkpt>
      <trkpt lat="45.66619" lon="5.26794">
        <ele>337</ele>
        <time>2025-05-18T12:29:25Z</time>
      </trkpt>
      <trkpt lat="45.6662" lon="5.26793">
        <ele>337</ele>
        <time>2025-05-18T12:29:26Z</time>
      </trkpt>
      <trkpt lat="45.6662" lon="5.26792">
        <ele>337.4</ele>
        <time>2025-05-18T12:29:27Z</time>
      </trkpt>
      <trkpt lat="45.66621" lon="5.26791">
        <ele>337.4</ele>
        <time>2025-05-18T12:29:28Z</time>
      </trkpt>
      <trkpt lat="45.66622" lon="5.2679">
        <ele>337.6</ele>
        <time>2025-05-18T12:29:29Z</time>
      </trkpt>
      <trkpt lat="45.66623" lon="5.26788">
        <ele>338</ele>
        <time>2025-05-18T12:29:30Z</time>
      </trkpt>
      <trkpt lat="45.66624" lon="5.26787">
        <ele>338</ele>
        <time>2025-05-18T12:29:31Z</time>
      </trkpt>
      <trkpt lat="45.66626" lon="5.26786">
        <ele>338.2</ele>
        <time>2025-05-18T12:29:32Z</time>
      </trkpt>
      <trkpt lat="45.66627" lon="5.26786">
        <ele>338.2</ele>
        <time>2025-05-18T12:29:33Z</time>
      </trkpt>
      <trkpt lat="45.66629" lon="5.26787">
        <ele>338.4</ele>
        <time>2025-05-18T12:29:34Z</time>
      </trkpt>
      <trkpt lat="45.66631" lon="5.26787">
        <ele>338.4</ele>
        <time>2025-05-18T12:29:35Z</time>
      </trkpt>
      <trkpt lat="45.66632" lon="5.26786">
        <ele>338.8</ele>
        <time>2025-05-18T12:29:36Z</time>
      </trkpt>
      <trkpt lat="45.66633" lon="5.26785">
        <ele>338.8</ele>
        <time>2025-05-18T12:29:37Z</time>
      </trkpt>
      <trkpt lat="45.66633" lon="5.26783">
        <ele>339.2</ele>
        <time>2025-05-18T12:29:38Z</time>
      </trkpt>
      <trkpt lat="45.66633" lon="5.2678">
        <ele>339.2</ele>
        <time>2025-05-18T12:29:39Z</time>
      </trkpt>
      <trkpt lat="45.66634" lon="5.26779">
        <ele>339.2</ele>
        <time>2025-05-18T12:29:40Z</time>
      </trkpt>
      <trkpt lat="45.66635" lon="5.26777">
        <ele>339.4</ele>
        <time>2025-05-18T12:29:41Z</time>
      </trkpt>
      <trkpt lat="45.66635" lon="5.26775">
        <ele>339.4</ele>
        <time>2025-05-18T12:29:42Z</time>
      </trkpt>
      <trkpt lat="45.66636" lon="5.26773">
        <ele>339.8</ele>
        <time>2025-05-18T12:29:43Z</time>
      </trkpt>
      <trkpt lat="45.66636" lon="5.26772">
        <ele>339.8</ele>
        <time>2025-05-18T12:29:44Z</time>
      </trkpt>
      <trkpt lat="45.66637" lon="5.2677">
        <ele>340.2</ele>
        <time>2025-05-18T12:29:45Z</time>
      </trkpt>
      <trkpt lat="45.66638" lon="5.26768">
        <ele>340.2</ele>
        <time>2025-05-18T12:29:46Z</time>
      </trkpt>
      <trkpt lat="45.66639" lon="5.26766">
        <ele>340.6</ele>
        <time>2025-05-18T12:29:47Z</time>
      </trkpt>
      <trkpt lat="45.66639" lon="5.26764">
        <ele>341</ele>
        <time>2025-05-18T12:29:48Z</time>
      </trkpt>
      <trkpt lat="45.66641" lon="5.26763">
        <ele>341</ele>
        <time>2025-05-18T12:29:49Z</time>
      </trkpt>
      <trkpt lat="45.66642" lon="5.26761">
        <ele>340.8</ele>
        <time>2025-05-18T12:29:50Z</time>
      </trkpt>
      <trkpt lat="45.66643" lon="5.26758">
        <ele>341</ele>
        <time>2025-05-18T12:29:51Z</time>
      </trkpt>
      <trkpt lat="45.66643" lon="5.26756">
        <ele>341</ele>
        <time>2025-05-18T12:29:52Z</time>
      </trkpt>
      <trkpt lat="45.66644" lon="5.26753">
        <ele>341.6</ele>
        <time>2025-05-18T12:29:53Z</time>
      </trkpt>
      <trkpt lat="45.66645" lon="5.26751">
        <ele>341.8</ele>
        <time>2025-05-18T12:29:54Z</time>
      </trkpt>
      <trkpt lat="45.66645" lon="5.26749">
        <ele>341.8</ele>
        <time>2025-05-18T12:29:55Z</time>
      </trkpt>
      <trkpt lat="45.66646" lon="5.26747">
        <ele>341.8</ele>
        <time>2025-05-18T12:29:56Z</time>
      </trkpt>
      <trkpt lat="45.66647" lon="5.26745">
        <ele>341.8</ele>
        <time>2025-05-18T12:29:57Z</time>
      </trkpt>
      <trkpt lat="45.66648" lon="5.26743">
        <ele>342</ele>
        <time>2025-05-18T12:29:58Z</time>
      </trkpt>
      <trkpt lat="45.66648" lon="5.26743">
        <ele>342.4</ele>
        <time>2025-05-18T12:29:59Z</time>
      </trkpt>
      <trkpt lat="45.66649" lon="5.2674">
        <ele>342.4</ele>
        <time>2025-05-18T12:30:00Z</time>
      </trkpt>
      <trkpt lat="45.6665" lon="5.26738">
        <ele>342.8</ele>
        <time>2025-05-18T12:30:01Z</time>
      </trkpt>
      <trkpt lat="45.66652" lon="5.26735">
        <ele>342.8</ele>
        <time>2025-05-18T12:30:02Z</time>
      </trkpt>
      <trkpt lat="45.66653" lon="5.26733">
        <ele>342.8</ele>
        <time>2025-05-18T12:30:03Z</time>
      </trkpt>
      <trkpt lat="45.66654" lon="5.2673">
        <ele>342.8</ele>
        <time>2025-05-18T12:30:04Z</time>
      </trkpt>
      <trkpt lat="45.66654" lon="5.26727">
        <ele>343</ele>
        <time>2025-05-18T12:30:05Z</time>
      </trkpt>
      <trkpt lat="45.66655" lon="5.26725">
        <ele>343.4</ele>
        <time>2025-05-18T12:30:06Z</time>
      </trkpt>
      <trkpt lat="45.66655" lon="5.26722">
        <ele>343.4</ele>
        <time>2025-05-18T12:30:07Z</time>
      </trkpt>
      <trkpt lat="45.66656" lon="5.26719">
        <ele>343.6</ele>
        <time>2025-05-18T12:30:08Z</time>
      </trkpt>
      <trkpt lat="45.66656" lon="5.26716">
        <ele>343.8</ele>
        <time>2025-05-18T12:30:09Z</time>
      </trkpt>
      <trkpt lat="45.66656" lon="5.26713">
        <ele>343.8</ele>
        <time>2025-05-18T12:30:10Z</time>
      </trkpt>
      <trkpt lat="45.66656" lon="5.26711">
        <ele>343.8</ele>
        <time>2025-05-18T12:30:11Z</time>
      </trkpt>
      <trkpt lat="45.66656" lon="5.26708">
        <ele>343.8</ele>
        <time>2025-05-18T12:30:12Z</time>
      </trkpt>
      <trkpt lat="45.66657" lon="5.26705">
        <ele>344.2</ele>
        <time>2025-05-18T12:30:13Z</time>
      </trkpt>
      <trkpt lat="45.66657" lon="5.26703">
        <ele>344.2</ele>
        <time>2025-05-18T12:30:14Z</time>
      </trkpt>
      <trkpt lat="45.66657" lon="5.267">
        <ele>344.4</ele>
        <time>2025-05-18T12:30:15Z</time>
      </trkpt>
      <trkpt lat="45.66657" lon="5.26698">
        <ele>344.4</ele>
        <time>2025-05-18T12:30:16Z</time>
      </trkpt>
      <trkpt lat="45.66658" lon="5.26695">
        <ele>344.4</ele>
        <time>2025-05-18T12:30:17Z</time>
      </trkpt>
      <trkpt lat="45.66658" lon="5.26693">
        <ele>344.8</ele>
        <time>2025-05-18T12:30:18Z</time>
      </trkpt>
      <trkpt lat="45.66658" lon="5.2669">
        <ele>344.8</ele>
        <time>2025-05-18T12:30:19Z</time>
      </trkpt>
      <trkpt lat="45.66658" lon="5.26687">
        <ele>344.8</ele>
        <time>2025-05-18T12:30:20Z</time>
      </trkpt>
      <trkpt lat="45.66658" lon="5.26684">
        <ele>344.8</ele>
        <time>2025-05-18T12:30:21Z</time>
      </trkpt>
      <trkpt lat="45.66658" lon="5.26682">
        <ele>344.8</ele>
        <time>2025-05-18T12:30:22Z</time>
      </trkpt>
      <trkpt lat="45.66659" lon="5.26679">
        <ele>345</ele>
        <time>2025-05-18T12:30:23Z</time>
      </trkpt>
      <trkpt lat="45.66659" lon="5.26676">
        <ele>345</ele>
        <time>2025-05-18T12:30:24Z</time>
      </trkpt>
      <trkpt lat="45.66659" lon="5.26673">
        <ele>345</ele>
        <time>2025-05-18T12:30:25Z</time>
      </trkpt>
      <trkpt lat="45.66659" lon="5.2667">
        <ele>345.2</ele>
        <time>2025-05-18T12:30:26Z</time>
      </trkpt>
      <trkpt lat="45.66659" lon="5.26667">
        <ele>345.2</ele>
        <time>2025-05-18T12:30:27Z</time>
      </trkpt>
      <trkpt lat="45.66659" lon="5.26664">
        <ele>345.6</ele>
        <time>2025-05-18T12:30:28Z</time>
      </trkpt>
      <trkpt lat="45.66659" lon="5.26661">
        <ele>345.6</ele>
        <time>2025-05-18T12:30:29Z</time>
      </trkpt>
      <trkpt lat="45.66659" lon="5.26658">
        <ele>345.6</ele>
        <time>2025-05-18T12:30:30Z</time>
      </trkpt>
      <trkpt lat="45.6666" lon="5.26656">
        <ele>346</ele>
        <time>2025-05-18T12:30:31Z</time>
      </trkpt>
      <trkpt lat="45.6666" lon="5.26652">
        <ele>346</ele>
        <time>2025-05-18T12:30:32Z</time>
      </trkpt>
      <trkpt lat="45.6666" lon="5.2665">
        <ele>346.2</ele>
        <time>2025-05-18T12:30:33Z</time>
      </trkpt>
      <trkpt lat="45.6666" lon="5.26647">
        <ele>346.2</ele>
        <time>2025-05-18T12:30:34Z</time>
      </trkpt>
      <trkpt lat="45.6666" lon="5.26645">
        <ele>346.2</ele>
        <time>2025-05-18T12:30:35Z</time>
      </trkpt>
      <trkpt lat="45.6666" lon="5.26642">
        <ele>346.2</ele>
        <time>2025-05-18T12:30:36Z</time>
      </trkpt>
      <trkpt lat="45.6666" lon="5.26639">
        <ele>346.2</ele>
        <time>2025-05-18T12:30:37Z</time>
      </trkpt>
      <trkpt lat="45.66659" lon="5.26636">
        <ele>346.2</ele>
        <time>2025-05-18T12:30:38Z</time>
      </trkpt>
      <trkpt lat="45.66659" lon="5.26633">
        <ele>346.2</ele>
        <time>2025-05-18T12:30:39Z</time>
      </trkpt>
      <trkpt lat="45.66659" lon="5.26631">
        <ele>346.2</ele>
        <time>2025-05-18T12:30:40Z</time>
      </trkpt>
      <trkpt lat="45.66659" lon="5.26628">
        <ele>346.4</ele>
        <time>2025-05-18T12:30:41Z</time>
      </trkpt>
      <trkpt lat="45.66659" lon="5.26625">
        <ele>346.4</ele>
        <time>2025-05-18T12:30:42Z</time>
      </trkpt>
      <trkpt lat="45.66659" lon="5.26622">
        <ele>346.8</ele>
        <time>2025-05-18T12:30:43Z</time>
      </trkpt>
      <trkpt lat="45.66659" lon="5.26619">
        <ele>347</ele>
        <time>2025-05-18T12:30:44Z</time>
      </trkpt>
      <trkpt lat="45.6666" lon="5.26617">
        <ele>347</ele>
        <time>2025-05-18T12:30:45Z</time>
      </trkpt>
      <trkpt lat="45.66659" lon="5.26614">
        <ele>347</ele>
        <time>2025-05-18T12:30:46Z</time>
      </trkpt>
      <trkpt lat="45.66659" lon="5.26611">
        <ele>347.2</ele>
        <time>2025-05-18T12:30:47Z</time>
      </trkpt>
      <trkpt lat="45.66659" lon="5.26608">
        <ele>347.2</ele>
        <time>2025-05-18T12:30:48Z</time>
      </trkpt>
      <trkpt lat="45.66659" lon="5.26606">
        <ele>347.6</ele>
        <time>2025-05-18T12:30:49Z</time>
      </trkpt>
      <trkpt lat="45.6666" lon="5.26603">
        <ele>347.6</ele>
        <time>2025-05-18T12:30:50Z</time>
      </trkpt>
      <trkpt lat="45.6666" lon="5.26601">
        <ele>347.6</ele>
        <time>2025-05-18T12:30:51Z</time>
      </trkpt>
      <trkpt lat="45.6666" lon="5.26598">
        <ele>348</ele>
        <time>2025-05-18T12:30:52Z</time>
      </trkpt>
      <trkpt lat="45.6666" lon="5.26595">
        <ele>348.4</ele>
        <time>2025-05-18T12:30:53Z</time>
      </trkpt>
      <trkpt lat="45.6666" lon="5.26592">
        <ele>348.4</ele>
        <time>2025-05-18T12:30:54Z</time>
      </trkpt>
      <trkpt lat="45.6666" lon="5.2659">
        <ele>348.6</ele>
        <time>2025-05-18T12:30:55Z</time>
      </trkpt>
      <trkpt lat="45.66661" lon="5.26587">
        <ele>348.8</ele>
        <time>2025-05-18T12:30:56Z</time>
      </trkpt>
      <trkpt lat="45.66661" lon="5.26584">
        <ele>349.2</ele>
        <time>2025-05-18T12:30:57Z</time>
      </trkpt>
      <trkpt lat="45.66661" lon="5.26582">
        <ele>349.2</ele>
        <time>2025-05-18T12:30:58Z</time>
      </trkpt>
      <trkpt lat="45.66662" lon="5.26579">
        <ele>349.2</ele>
        <time>2025-05-18T12:30:59Z</time>
      </trkpt>
      <trkpt lat="45.66662" lon="5.26576">
        <ele>349.4</ele>
        <time>2025-05-18T12:31:00Z</time>
      </trkpt>
      <trkpt lat="45.66663" lon="5.26574">
        <ele>349.4</ele>
        <time>2025-05-18T12:31:01Z</time>
      </trkpt>
      <trkpt lat="45.66664" lon="5.26571">
        <ele>349.4</ele>
        <time>2025-05-18T12:31:02Z</time>
      </trkpt>
      <trkpt lat="45.66665" lon="5.26569">
        <ele>349.4</ele>
        <time>2025-05-18T12:31:03Z</time>
      </trkpt>
      <trkpt lat="45.66666" lon="5.26567">
        <ele>349.4</ele>
        <time>2025-05-18T12:31:04Z</time>
      </trkpt>
      <trkpt lat="45.66668" lon="5.26565">
        <ele>349.6</ele>
        <time>2025-05-18T12:31:05Z</time>
      </trkpt>
      <trkpt lat="45.66669" lon="5.26563">
        <ele>349.6</ele>
        <time>2025-05-18T12:31:06Z</time>
      </trkpt>
      <trkpt lat="45.66671" lon="5.26562">
        <ele>350</ele>
        <time>2025-05-18T12:31:07Z</time>
      </trkpt>
      <trkpt lat="45.66672" lon="5.2656">
        <ele>350</ele>
        <time>2025-05-18T12:31:08Z</time>
      </trkpt>
      <trkpt lat="45.66674" lon="5.26559">
        <ele>350.2</ele>
        <time>2025-05-18T12:31:09Z</time>
      </trkpt>
      <trkpt lat="45.66675" lon="5.26557">
        <ele>350.2</ele>
        <time>2025-05-18T12:31:10Z</time>
      </trkpt>
      <trkpt lat="45.66677" lon="5.26556">
        <ele>350.4</ele>
        <time>2025-05-18T12:31:11Z</time>
      </trkpt>
      <trkpt lat="45.66678" lon="5.26555">
        <ele>350.4</ele>
        <time>2025-05-18T12:31:12Z</time>
      </trkpt>
      <trkpt lat="45.66679" lon="5.26554">
        <ele>350.8</ele>
        <time>2025-05-18T12:31:13Z</time>
      </trkpt>
      <trkpt lat="45.66681" lon="5.26553">
        <ele>350.8</ele>
        <time>2025-05-18T12:31:14Z</time>
      </trkpt>
      <trkpt lat="45.66682" lon="5.26551">
        <ele>351.2</ele>
        <time>2025-05-18T12:31:15Z</time>
      </trkpt>
      <trkpt lat="45.66684" lon="5.2655">
        <ele>351.2</ele>
        <time>2025-05-18T12:31:16Z</time>
      </trkpt>
      <trkpt lat="45.66685" lon="5.26549">
        <ele>351.6</ele>
        <time>2025-05-18T12:31:17Z</time>
      </trkpt>
      <trkpt lat="45.66687" lon="5.26547">
        <ele>351.6</ele>
        <time>2025-05-18T12:31:18Z</time>
      </trkpt>
      <trkpt lat="45.66688" lon="5.26544">
        <ele>351.8</ele>
        <time>2025-05-18T12:31:19Z</time>
      </trkpt>
      <trkpt lat="45.6669" lon="5.26543">
        <ele>351.8</ele>
        <time>2025-05-18T12:31:20Z</time>
      </trkpt>
      <trkpt lat="45.66691" lon="5.26541">
        <ele>352.2</ele>
        <time>2025-05-18T12:31:21Z</time>
      </trkpt>
      <trkpt lat="45.66692" lon="5.26539">
        <ele>352.2</ele>
        <time>2025-05-18T12:31:22Z</time>
      </trkpt>
      <trkpt lat="45.66693" lon="5.26538">
        <ele>352.2</ele>
        <time>2025-05-18T12:31:23Z</time>
      </trkpt>
      <trkpt lat="45.66694" lon="5.26536">
        <ele>352.6</ele>
        <time>2025-05-18T12:31:24Z</time>
      </trkpt>
      <trkpt lat="45.66695" lon="5.26535">
        <ele>352.6</ele>
        <time>2025-05-18T12:31:25Z</time>
      </trkpt>
      <trkpt lat="45.66696" lon="5.26534">
        <ele>352.8</ele>
        <time>2025-05-18T12:31:26Z</time>
      </trkpt>
      <trkpt lat="45.66697" lon="5.26532">
        <ele>352.8</ele>
        <time>2025-05-18T12:31:27Z</time>
      </trkpt>
      <trkpt lat="45.66698" lon="5.26529">
        <ele>353.2</ele>
        <time>2025-05-18T12:31:28Z</time>
      </trkpt>
      <trkpt lat="45.66699" lon="5.26527">
        <ele>353.6</ele>
        <time>2025-05-18T12:31:29Z</time>
      </trkpt>
      <trkpt lat="45.667" lon="5.26526">
        <ele>353.8</ele>
        <time>2025-05-18T12:31:30Z</time>
      </trkpt>
      <trkpt lat="45.66701" lon="5.26524">
        <ele>353.8</ele>
        <time>2025-05-18T12:31:31Z</time>
      </trkpt>
      <trkpt lat="45.66702" lon="5.26523">
        <ele>353.8</ele>
        <time>2025-05-18T12:31:32Z</time>
      </trkpt>
      <trkpt lat="45.66704" lon="5.26522">
        <ele>354.2</ele>
        <time>2025-05-18T12:31:33Z</time>
      </trkpt>
      <trkpt lat="45.66705" lon="5.26521">
        <ele>354.2</ele>
        <time>2025-05-18T12:31:34Z</time>
      </trkpt>
      <trkpt lat="45.66706" lon="5.2652">
        <ele>354.2</ele>
        <time>2025-05-18T12:31:35Z</time>
      </trkpt>
      <trkpt lat="45.66707" lon="5.26518">
        <ele>354.2</ele>
        <time>2025-05-18T12:31:36Z</time>
      </trkpt>
      <trkpt lat="45.66708" lon="5.26516">
        <ele>354.2</ele>
        <time>2025-05-18T12:31:37Z</time>
      </trkpt>
      <trkpt lat="45.66709" lon="5.26516">
        <ele>354.2</ele>
        <time>2025-05-18T12:31:38Z</time>
      </trkpt>
      <trkpt lat="45.6671" lon="5.26516">
        <ele>354.4</ele>
        <time>2025-05-18T12:31:39Z</time>
      </trkpt>
      <trkpt lat="45.66711" lon="5.26514">
        <ele>354.4</ele>
        <time>2025-05-18T12:31:40Z</time>
      </trkpt>
      <trkpt lat="45.66713" lon="5.26512">
        <ele>354.8</ele>
        <time>2025-05-18T12:31:41Z</time>
      </trkpt>
      <trkpt lat="45.66715" lon="5.26511">
        <ele>355.2</ele>
        <time>2025-05-18T12:31:42Z</time>
      </trkpt>
      <trkpt lat="45.66716" lon="5.2651">
        <ele>355.2</ele>
        <time>2025-05-18T12:31:43Z</time>
      </trkpt>
      <trkpt lat="45.66717" lon="5.26509">
        <ele>355.2</ele>
        <time>2025-05-18T12:31:44Z</time>
      </trkpt>
      <trkpt lat="45.66718" lon="5.26508">
        <ele>355.4</ele>
        <time>2025-05-18T12:31:45Z</time>
      </trkpt>
      <trkpt lat="45.66719" lon="5.26506">
        <ele>355.4</ele>
        <time>2025-05-18T12:31:46Z</time>
      </trkpt>
      <trkpt lat="45.6672" lon="5.26505">
        <ele>355.6</ele>
        <time>2025-05-18T12:31:47Z</time>
      </trkpt>
      <trkpt lat="45.6672" lon="5.26503">
        <ele>355.6</ele>
        <time>2025-05-18T12:31:48Z</time>
      </trkpt>
      <trkpt lat="45.66721" lon="5.26501">
        <ele>355.6</ele>
        <time>2025-05-18T12:31:49Z</time>
      </trkpt>
      <trkpt lat="45.66722" lon="5.265">
        <ele>356.2</ele>
        <time>2025-05-18T12:31:50Z</time>
      </trkpt>
      <trkpt lat="45.66723" lon="5.26498">
        <ele>356.4</ele>
        <time>2025-05-18T12:31:51Z</time>
      </trkpt>
      <trkpt lat="45.66724" lon="5.26496">
        <ele>356.4</ele>
        <time>2025-05-18T12:31:52Z</time>
      </trkpt>
      <trkpt lat="45.66725" lon="5.26494">
        <ele>356.6</ele>
        <time>2025-05-18T12:31:53Z</time>
      </trkpt>
      <trkpt lat="45.66725" lon="5.26492">
        <ele>356.6</ele>
        <time>2025-05-18T12:31:54Z</time>
      </trkpt>
      <trkpt lat="45.66726" lon="5.2649">
        <ele>356.6</ele>
        <time>2025-05-18T12:31:55Z</time>
      </trkpt>
      <trkpt lat="45.66726" lon="5.26489">
        <ele>357</ele>
        <time>2025-05-18T12:31:56Z</time>
      </trkpt>
      <trkpt lat="45.66727" lon="5.26488">
        <ele>357</ele>
        <time>2025-05-18T12:31:57Z</time>
      </trkpt>
      <trkpt lat="45.66729" lon="5.26487">
        <ele>357.4</ele>
        <time>2025-05-18T12:31:58Z</time>
      </trkpt>
      <trkpt lat="45.66731" lon="5.26486">
        <ele>357.6</ele>
        <time>2025-05-18T12:31:59Z</time>
      </trkpt>
      <trkpt lat="45.66733" lon="5.26485">
        <ele>357.8</ele>
        <time>2025-05-18T12:32:00Z</time>
      </trkpt>
      <trkpt lat="45.66734" lon="5.26484">
        <ele>357.8</ele>
        <time>2025-05-18T12:32:01Z</time>
      </trkpt>
      <trkpt lat="45.66735" lon="5.26484">
        <ele>358</ele>
        <time>2025-05-18T12:32:02Z</time>
      </trkpt>
      <trkpt lat="45.66735" lon="5.26483">
        <ele>358</ele>
        <time>2025-05-18T12:32:03Z</time>
      </trkpt>
      <trkpt lat="45.66736" lon="5.26482">
        <ele>358.4</ele>
        <time>2025-05-18T12:32:04Z</time>
      </trkpt>
      <trkpt lat="45.66739" lon="5.26479">
        <ele>358.4</ele>
        <time>2025-05-18T12:32:05Z</time>
      </trkpt>
      <trkpt lat="45.6674" lon="5.26477">
        <ele>358.8</ele>
        <time>2025-05-18T12:32:06Z</time>
      </trkpt>
      <trkpt lat="45.66743" lon="5.26476">
        <ele>358.8</ele>
        <time>2025-05-18T12:32:07Z</time>
      </trkpt>
      <trkpt lat="45.66744" lon="5.26474">
        <ele>359</ele>
        <time>2025-05-18T12:32:08Z</time>
      </trkpt>
      <trkpt lat="45.66745" lon="5.26474">
        <ele>359</ele>
        <time>2025-05-18T12:32:09Z</time>
      </trkpt>
      <trkpt lat="45.66745" lon="5.26473">
        <ele>359.2</ele>
        <time>2025-05-18T12:32:10Z</time>
      </trkpt>
      <trkpt lat="45.66746" lon="5.26472">
        <ele>359.4</ele>
        <time>2025-05-18T12:32:11Z</time>
      </trkpt>
      <trkpt lat="45.66747" lon="5.26471">
        <ele>359.8</ele>
        <time>2025-05-18T12:32:12Z</time>
      </trkpt>
      <trkpt lat="45.66748" lon="5.2647">
        <ele>359.8</ele>
        <time>2025-05-18T12:32:13Z</time>
      </trkpt>
      <trkpt lat="45.66749" lon="5.2647">
        <ele>359.8</ele>
        <time>2025-05-18T12:32:14Z</time>
      </trkpt>
      <trkpt lat="45.66751" lon="5.26469">
        <ele>360</ele>
        <time>2025-05-18T12:32:15Z</time>
      </trkpt>
      <trkpt lat="45.66752" lon="5.26468">
        <ele>360.2</ele>
        <time>2025-05-18T12:32:16Z</time>
      </trkpt>
      <trkpt lat="45.66753" lon="5.26467">
        <ele>360.2</ele>
        <time>2025-05-18T12:32:17Z</time>
      </trkpt>
      <trkpt lat="45.66754" lon="5.26466">
        <ele>360.6</ele>
        <time>2025-05-18T12:32:18Z</time>
      </trkpt>
      <trkpt lat="45.66755" lon="5.26465">
        <ele>360.8</ele>
        <time>2025-05-18T12:32:19Z</time>
      </trkpt>
      <trkpt lat="45.66756" lon="5.26463">
        <ele>361</ele>
        <time>2025-05-18T12:32:20Z</time>
      </trkpt>
      <trkpt lat="45.66757" lon="5.26462">
        <ele>361</ele>
        <time>2025-05-18T12:32:21Z</time>
      </trkpt>
      <trkpt lat="45.66758" lon="5.26461">
        <ele>361.4</ele>
        <time>2025-05-18T12:32:22Z</time>
      </trkpt>
      <trkpt lat="45.66759" lon="5.26461">
        <ele>361.6</ele>
        <time>2025-05-18T12:32:23Z</time>
      </trkpt>
      <trkpt lat="45.6676" lon="5.2646">
        <ele>361.6</ele>
        <time>2025-05-18T12:32:24Z</time>
      </trkpt>
      <trkpt lat="45.66761" lon="5.26459">
        <ele>362</ele>
        <time>2025-05-18T12:32:25Z</time>
      </trkpt>
      <trkpt lat="45.66761" lon="5.26458">
        <ele>362</ele>
        <time>2025-05-18T12:32:26Z</time>
      </trkpt>
      <trkpt lat="45.66763" lon="5.26457">
        <ele>362.2</ele>
        <time>2025-05-18T12:32:27Z</time>
      </trkpt>
      <trkpt lat="45.66764" lon="5.26456">
        <ele>362.2</ele>
        <time>2025-05-18T12:32:28Z</time>
      </trkpt>
      <trkpt lat="45.66765" lon="5.26456">
        <ele>362.6</ele>
        <time>2025-05-18T12:32:29Z</time>
      </trkpt>
      <trkpt lat="45.66767" lon="5.26455">
        <ele>362.6</ele>
        <time>2025-05-18T12:32:30Z</time>
      </trkpt>
      <trkpt lat="45.66767" lon="5.26455">
        <ele>362.8</ele>
        <time>2025-05-18T12:32:31Z</time>
      </trkpt>
      <trkpt lat="45.66768" lon="5.26453">
        <ele>362.8</ele>
        <time>2025-05-18T12:32:32Z</time>
      </trkpt>
      <trkpt lat="45.66769" lon="5.26452">
        <ele>363.2</ele>
        <time>2025-05-18T12:32:33Z</time>
      </trkpt>
      <trkpt lat="45.6677" lon="5.26451">
        <ele>363.2</ele>
        <time>2025-05-18T12:32:34Z</time>
      </trkpt>
      <trkpt lat="45.66771" lon="5.2645">
        <ele>363.6</ele>
        <time>2025-05-18T12:32:35Z</time>
      </trkpt>
      <trkpt lat="45.66772" lon="5.26449">
        <ele>363.6</ele>
        <time>2025-05-18T12:32:36Z</time>
      </trkpt>
      <trkpt lat="45.66774" lon="5.26449">
        <ele>363.8</ele>
        <time>2025-05-18T12:32:37Z</time>
      </trkpt>
      <trkpt lat="45.66775" lon="5.26448">
        <ele>364.2</ele>
        <time>2025-05-18T12:32:38Z</time>
      </trkpt>
      <trkpt lat="45.66777" lon="5.26448">
        <ele>364.2</ele>
        <time>2025-05-18T12:32:39Z</time>
      </trkpt>
      <trkpt lat="45.66779" lon="5.26448">
        <ele>364.4</ele>
        <time>2025-05-18T12:32:40Z</time>
      </trkpt>
      <trkpt lat="45.6678" lon="5.26447">
        <ele>364.4</ele>
        <time>2025-05-18T12:32:41Z</time>
      </trkpt>
      <trkpt lat="45.66781" lon="5.26447">
        <ele>364.6</ele>
        <time>2025-05-18T12:32:42Z</time>
      </trkpt>
      <trkpt lat="45.66782" lon="5.26446">
        <ele>364.6</ele>
        <time>2025-05-18T12:32:43Z</time>
      </trkpt>
      <trkpt lat="45.66783" lon="5.26445">
        <ele>364.8</ele>
        <time>2025-05-18T12:32:44Z</time>
      </trkpt>
      <trkpt lat="45.66785" lon="5.26444">
        <ele>364.8</ele>
        <time>2025-05-18T12:32:45Z</time>
      </trkpt>
      <trkpt lat="45.66786" lon="5.26443">
        <ele>365.2</ele>
        <time>2025-05-18T12:32:46Z</time>
      </trkpt>
      <trkpt lat="45.66787" lon="5.26441">
        <ele>365.4</ele>
        <time>2025-05-18T12:32:47Z</time>
      </trkpt>
      <trkpt lat="45.66788" lon="5.2644">
        <ele>365.4</ele>
        <time>2025-05-18T12:32:48Z</time>
      </trkpt>
      <trkpt lat="45.66788" lon="5.26439">
        <ele>365.8</ele>
        <time>2025-05-18T12:32:49Z</time>
      </trkpt>
      <trkpt lat="45.66788" lon="5.26438">
        <ele>366</ele>
        <time>2025-05-18T12:32:50Z</time>
      </trkpt>
      <trkpt lat="45.6679" lon="5.26436">
        <ele>366</ele>
        <time>2025-05-18T12:32:51Z</time>
      </trkpt>
      <trkpt lat="45.66791" lon="5.26435">
        <ele>366.2</ele>
        <time>2025-05-18T12:32:52Z</time>
      </trkpt>
      <trkpt lat="45.66792" lon="5.26434">
        <ele>366.6</ele>
        <time>2025-05-18T12:32:53Z</time>
      </trkpt>
      <trkpt lat="45.66793" lon="5.26433">
        <ele>366.6</ele>
        <time>2025-05-18T12:32:54Z</time>
      </trkpt>
      <trkpt lat="45.66794" lon="5.26431">
        <ele>366.8</ele>
        <time>2025-05-18T12:32:55Z</time>
      </trkpt>
      <trkpt lat="45.66795" lon="5.2643">
        <ele>366.8</ele>
        <time>2025-05-18T12:32:56Z</time>
      </trkpt>
      <trkpt lat="45.66795" lon="5.2643">
        <ele>367</ele>
        <time>2025-05-18T12:32:57Z</time>
      </trkpt>
      <trkpt lat="45.66796" lon="5.26429">
        <ele>367</ele>
        <time>2025-05-18T12:32:58Z</time>
      </trkpt>
      <trkpt lat="45.66798" lon="5.26428">
        <ele>367.4</ele>
        <time>2025-05-18T12:32:59Z</time>
      </trkpt>
      <trkpt lat="45.66799" lon="5.26427">
        <ele>367.4</ele>
        <time>2025-05-18T12:33:00Z</time>
      </trkpt>
      <trkpt lat="45.668" lon="5.26427">
        <ele>367.6</ele>
        <time>2025-05-18T12:33:01Z</time>
      </trkpt>
      <trkpt lat="45.66801" lon="5.26426">
        <ele>367.6</ele>
        <time>2025-05-18T12:33:02Z</time>
      </trkpt>
      <trkpt lat="45.66803" lon="5.26426">
        <ele>367.8</ele>
        <time>2025-05-18T12:33:03Z</time>
      </trkpt>
      <trkpt lat="45.66804" lon="5.26425">
        <ele>367.8</ele>
        <time>2025-05-18T12:33:04Z</time>
      </trkpt>
      <trkpt lat="45.66805" lon="5.26424">
        <ele>368</ele>
        <time>2025-05-18T12:33:05Z</time>
      </trkpt>
      <trkpt lat="45.66806" lon="5.26423">
        <ele>368</ele>
        <time>2025-05-18T12:33:06Z</time>
      </trkpt>
      <trkpt lat="45.66807" lon="5.26422">
        <ele>368.4</ele>
        <time>2025-05-18T12:33:07Z</time>
      </trkpt>
      <trkpt lat="45.66808" lon="5.26421">
        <ele>368.4</ele>
        <time>2025-05-18T12:33:08Z</time>
      </trkpt>
      <trkpt lat="45.66809" lon="5.2642">
        <ele>368.8</ele>
        <time>2025-05-18T12:33:09Z</time>
      </trkpt>
      <trkpt lat="45.6681" lon="5.26418">
        <ele>368.8</ele>
        <time>2025-05-18T12:33:10Z</time>
      </trkpt>
      <trkpt lat="45.66812" lon="5.26417">
        <ele>369.2</ele>
        <time>2025-05-18T12:33:11Z</time>
      </trkpt>
      <trkpt lat="45.66814" lon="5.26416">
        <ele>369.2</ele>
        <time>2025-05-18T12:33:12Z</time>
      </trkpt>
      <trkpt lat="45.66815" lon="5.26416">
        <ele>369.4</ele>
        <time>2025-05-18T12:33:13Z</time>
      </trkpt>
      <trkpt lat="45.66817" lon="5.26415">
        <ele>369.4</ele>
        <time>2025-05-18T12:33:14Z</time>
      </trkpt>
      <trkpt lat="45.66818" lon="5.26414">
        <ele>369.4</ele>
        <time>2025-05-18T12:33:15Z</time>
      </trkpt>
      <trkpt lat="45.6682" lon="5.26413">
        <ele>369.8</ele>
        <time>2025-05-18T12:33:16Z</time>
      </trkpt>
      <trkpt lat="45.66822" lon="5.26412">
        <ele>369.8</ele>
        <time>2025-05-18T12:33:17Z</time>
      </trkpt>
      <trkpt lat="45.66823" lon="5.26411">
        <ele>370</ele>
        <time>2025-05-18T12:33:18Z</time>
      </trkpt>
      <trkpt lat="45.66824" lon="5.26409">
        <ele>370</ele>
        <time>2025-05-18T12:33:19Z</time>
      </trkpt>
      <trkpt lat="45.66825" lon="5.26407">
        <ele>370.2</ele>
        <time>2025-05-18T12:33:20Z</time>
      </trkpt>
      <trkpt lat="45.66827" lon="5.26406">
        <ele>370.2</ele>
        <time>2025-05-18T12:33:21Z</time>
      </trkpt>
      <trkpt lat="45.66828" lon="5.26404">
        <ele>370.2</ele>
        <time>2025-05-18T12:33:22Z</time>
      </trkpt>
      <trkpt lat="45.66829" lon="5.26402">
        <ele>370.6</ele>
        <time>2025-05-18T12:33:23Z</time>
      </trkpt>
      <trkpt lat="45.66831" lon="5.26401">
        <ele>370.8</ele>
        <time>2025-05-18T12:33:24Z</time>
      </trkpt>
      <trkpt lat="45.66832" lon="5.26399">
        <ele>370.8</ele>
        <time>2025-05-18T12:33:25Z</time>
      </trkpt>
      <trkpt lat="45.66834" lon="5.26397">
        <ele>371.2</ele>
        <time>2025-05-18T12:33:26Z</time>
      </trkpt>
      <trkpt lat="45.66835" lon="5.26395">
        <ele>371.2</ele>
        <time>2025-05-18T12:33:27Z</time>
      </trkpt>
      <trkpt lat="45.66836" lon="5.26393">
        <ele>371.4</ele>
        <time>2025-05-18T12:33:28Z</time>
      </trkpt>
      <trkpt lat="45.66837" lon="5.26391">
        <ele>371.4</ele>
        <time>2025-05-18T12:33:29Z</time>
      </trkpt>
      <trkpt lat="45.66838" lon="5.26389">
        <ele>371.2</ele>
        <time>2025-05-18T12:33:30Z</time>
      </trkpt>
      <trkpt lat="45.6684" lon="5.26387">
        <ele>371.6</ele>
        <time>2025-05-18T12:33:31Z</time>
      </trkpt>
      <trkpt lat="45.66841" lon="5.26385">
        <ele>371.6</ele>
        <time>2025-05-18T12:33:32Z</time>
      </trkpt>
      <trkpt lat="45.66843" lon="5.26384">
        <ele>371.6</ele>
        <time>2025-05-18T12:33:33Z</time>
      </trkpt>
      <trkpt lat="45.66845" lon="5.26382">
        <ele>371.6</ele>
        <time>2025-05-18T12:33:34Z</time>
      </trkpt>
      <trkpt lat="45.66846" lon="5.2638">
        <ele>371.6</ele>
        <time>2025-05-18T12:33:35Z</time>
      </trkpt>
      <trkpt lat="45.66847" lon="5.26379">
        <ele>372</ele>
        <time>2025-05-18T12:33:36Z</time>
      </trkpt>
      <trkpt lat="45.66849" lon="5.26377">
        <ele>372.2</ele>
        <time>2025-05-18T12:33:37Z</time>
      </trkpt>
      <trkpt lat="45.6685" lon="5.26376">
        <ele>372.6</ele>
        <time>2025-05-18T12:33:38Z</time>
      </trkpt>
      <trkpt lat="45.66852" lon="5.26374">
        <ele>372.6</ele>
        <time>2025-05-18T12:33:39Z</time>
      </trkpt>
      <trkpt lat="45.66854" lon="5.26372">
        <ele>372.8</ele>
        <time>2025-05-18T12:33:40Z</time>
      </trkpt>
      <trkpt lat="45.66855" lon="5.2637">
        <ele>373</ele>
        <time>2025-05-18T12:33:41Z</time>
      </trkpt>
      <trkpt lat="45.66856" lon="5.26368">
        <ele>373</ele>
        <time>2025-05-18T12:33:42Z</time>
      </trkpt>
      <trkpt lat="45.66857" lon="5.26367">
        <ele>373.4</ele>
        <time>2025-05-18T12:33:43Z</time>
      </trkpt>
      <trkpt lat="45.66858" lon="5.26365">
        <ele>373.6</ele>
        <time>2025-05-18T12:33:44Z</time>
      </trkpt>
      <trkpt lat="45.6686" lon="5.26364">
        <ele>373.6</ele>
        <time>2025-05-18T12:33:45Z</time>
      </trkpt>
      <trkpt lat="45.66861" lon="5.26362">
        <ele>373.8</ele>
        <time>2025-05-18T12:33:46Z</time>
      </trkpt>
      <trkpt lat="45.66863" lon="5.2636">
        <ele>374.2</ele>
        <time>2025-05-18T12:33:47Z</time>
      </trkpt>
      <trkpt lat="45.66864" lon="5.26358">
        <ele>374.2</ele>
        <time>2025-05-18T12:33:48Z</time>
      </trkpt>
      <trkpt lat="45.66866" lon="5.26357">
        <ele>374.2</ele>
        <time>2025-05-18T12:33:49Z</time>
      </trkpt>
      <trkpt lat="45.66867" lon="5.26355">
        <ele>374.2</ele>
        <time>2025-05-18T12:33:50Z</time>
      </trkpt>
      <trkpt lat="45.66868" lon="5.26353">
        <ele>374.2</ele>
        <time>2025-05-18T12:33:51Z</time>
      </trkpt>
      <trkpt lat="45.6687" lon="5.26351">
        <ele>374.4</ele>
        <time>2025-05-18T12:33:52Z</time>
      </trkpt>
      <trkpt lat="45.66871" lon="5.26349">
        <ele>374.4</ele>
        <time>2025-05-18T12:33:53Z</time>
      </trkpt>
      <trkpt lat="45.66872" lon="5.26348">
        <ele>374.6</ele>
        <time>2025-05-18T12:33:54Z</time>
      </trkpt>
      <trkpt lat="45.66872" lon="5.26347">
        <ele>374.6</ele>
        <time>2025-05-18T12:33:55Z</time>
      </trkpt>
      <trkpt lat="45.66872" lon="5.26347">
        <ele>375</ele>
        <time>2025-05-18T12:33:56Z</time>
      </trkpt>
      <trkpt lat="45.66873" lon="5.26345">
        <ele>375</ele>
        <time>2025-05-18T12:33:57Z</time>
      </trkpt>
      <trkpt lat="45.66875" lon="5.26343">
        <ele>375.2</ele>
        <time>2025-05-18T12:33:58Z</time>
      </trkpt>
      <trkpt lat="45.66875" lon="5.26342">
        <ele>375.2</ele>
        <time>2025-05-18T12:33:59Z</time>
      </trkpt>
      <trkpt lat="45.66876" lon="5.26341">
        <ele>375.2</ele>
        <time>2025-05-18T12:34:00Z</time>
      </trkpt>
      <trkpt lat="45.66878" lon="5.26338">
        <ele>375.2</ele>
        <time>2025-05-18T12:34:01Z</time>
      </trkpt>
      <trkpt lat="45.66878" lon="5.26337">
        <ele>375.6</ele>
        <time>2025-05-18T12:34:02Z</time>
      </trkpt>
      <trkpt lat="45.66879" lon="5.26337">
        <ele>375.8</ele>
        <time>2025-05-18T12:34:03Z</time>
      </trkpt>
      <trkpt lat="45.66879" lon="5.26335">
        <ele>375.8</ele>
        <time>2025-05-18T12:34:04Z</time>
      </trkpt>
      <trkpt lat="45.6688" lon="5.26334">
        <ele>376.2</ele>
        <time>2025-05-18T12:34:05Z</time>
      </trkpt>
      <trkpt lat="45.66882" lon="5.26333">
        <ele>376.2</ele>
        <time>2025-05-18T12:34:06Z</time>
      </trkpt>
      <trkpt lat="45.66883" lon="5.26331">
        <ele>376.4</ele>
        <time>2025-05-18T12:34:07Z</time>
      </trkpt>
      <trkpt lat="45.66885" lon="5.2633">
        <ele>376.4</ele>
        <time>2025-05-18T12:34:08Z</time>
      </trkpt>
      <trkpt lat="45.66887" lon="5.26328">
        <ele>376.4</ele>
        <time>2025-05-18T12:34:09Z</time>
      </trkpt>
      <trkpt lat="45.66888" lon="5.26327">
        <ele>376.8</ele>
        <time>2025-05-18T12:34:10Z</time>
      </trkpt>
      <trkpt lat="45.66888" lon="5.26327">
        <ele>376.8</ele>
        <time>2025-05-18T12:34:11Z</time>
      </trkpt>
      <trkpt lat="45.66893" lon="5.26323">
        <ele>377.4</ele>
        <time>2025-05-18T12:34:14Z</time>
      </trkpt>
      <trkpt lat="45.66894" lon="5.26321">
        <ele>377.4</ele>
        <time>2025-05-18T12:34:15Z</time>
      </trkpt>
      <trkpt lat="45.66895" lon="5.2632">
        <ele>377.8</ele>
        <time>2025-05-18T12:34:16Z</time>
      </trkpt>
      <trkpt lat="45.66897" lon="5.26319">
        <ele>378</ele>
        <time>2025-05-18T12:34:17Z</time>
      </trkpt>
      <trkpt lat="45.66898" lon="5.26318">
        <ele>378</ele>
        <time>2025-05-18T12:34:18Z</time>
      </trkpt>
      <trkpt lat="45.669" lon="5.26316">
        <ele>378.4</ele>
        <time>2025-05-18T12:34:19Z</time>
      </trkpt>
      <trkpt lat="45.66902" lon="5.26315">
        <ele>378.6</ele>
        <time>2025-05-18T12:34:20Z</time>
      </trkpt>
      <trkpt lat="45.66903" lon="5.26313">
        <ele>378.8</ele>
        <time>2025-05-18T12:34:21Z</time>
      </trkpt>
      <trkpt lat="45.66905" lon="5.26312">
        <ele>378.8</ele>
        <time>2025-05-18T12:34:22Z</time>
      </trkpt>
      <trkpt lat="45.66907" lon="5.26311">
        <ele>378.8</ele>
        <time>2025-05-18T12:34:23Z</time>
      </trkpt>
      <trkpt lat="45.66909" lon="5.2631">
        <ele>379.2</ele>
        <time>2025-05-18T12:34:24Z</time>
      </trkpt>
      <trkpt lat="45.66911" lon="5.2631">
        <ele>379.2</ele>
        <time>2025-05-18T12:34:25Z</time>
      </trkpt>
      <trkpt lat="45.66912" lon="5.26309">
        <ele>379.6</ele>
        <time>2025-05-18T12:34:26Z</time>
      </trkpt>
      <trkpt lat="45.66914" lon="5.26309">
        <ele>379.6</ele>
        <time>2025-05-18T12:34:27Z</time>
      </trkpt>
      <trkpt lat="45.66916" lon="5.26308">
        <ele>379.8</ele>
        <time>2025-05-18T12:34:28Z</time>
      </trkpt>
      <trkpt lat="45.66917" lon="5.26307">
        <ele>379.8</ele>
        <time>2025-05-18T12:34:29Z</time>
      </trkpt>
      <trkpt lat="45.66919" lon="5.26306">
        <ele>380.2</ele>
        <time>2025-05-18T12:34:30Z</time>
      </trkpt>
      <trkpt lat="45.6692" lon="5.26305">
        <ele>380.4</ele>
        <time>2025-05-18T12:34:31Z</time>
      </trkpt>
      <trkpt lat="45.66921" lon="5.26304">
        <ele>380.4</ele>
        <time>2025-05-18T12:34:32Z</time>
      </trkpt>
      <trkpt lat="45.66923" lon="5.26303">
        <ele>380.6</ele>
        <time>2025-05-18T12:34:33Z</time>
      </trkpt>
      <trkpt lat="45.66924" lon="5.26302">
        <ele>380.6</ele>
        <time>2025-05-18T12:34:34Z</time>
      </trkpt>
      <trkpt lat="45.66925" lon="5.26301">
        <ele>380.8</ele>
        <time>2025-05-18T12:34:35Z</time>
      </trkpt>
      <trkpt lat="45.66927" lon="5.26299">
        <ele>380.8</ele>
        <time>2025-05-18T12:34:36Z</time>
      </trkpt>
      <trkpt lat="45.66927" lon="5.26299">
        <ele>381.2</ele>
        <time>2025-05-18T12:34:37Z</time>
      </trkpt>
      <trkpt lat="45.6693" lon="5.26298">
        <ele>381.2</ele>
        <time>2025-05-18T12:34:38Z</time>
      </trkpt>
      <trkpt lat="45.66931" lon="5.26297">
        <ele>381.4</ele>
        <time>2025-05-18T12:34:39Z</time>
      </trkpt>
      <trkpt lat="45.66933" lon="5.26296">
        <ele>381.4</ele>
        <time>2025-05-18T12:34:40Z</time>
      </trkpt>
      <trkpt lat="45.66935" lon="5.26295">
        <ele>381.4</ele>
        <time>2025-05-18T12:34:41Z</time>
      </trkpt>
      <trkpt lat="45.66936" lon="5.26294">
        <ele>381.6</ele>
        <time>2025-05-18T12:34:42Z</time>
      </trkpt>
      <trkpt lat="45.66938" lon="5.26293">
        <ele>381.6</ele>
        <time>2025-05-18T12:34:43Z</time>
      </trkpt>
      <trkpt lat="45.6694" lon="5.26292">
        <ele>382</ele>
        <time>2025-05-18T12:34:44Z</time>
      </trkpt>
      <trkpt lat="45.66941" lon="5.26291">
        <ele>382</ele>
        <time>2025-05-18T12:34:45Z</time>
      </trkpt>
      <trkpt lat="45.66943" lon="5.2629">
        <ele>382.2</ele>
        <time>2025-05-18T12:34:46Z</time>
      </trkpt>
      <trkpt lat="45.66945" lon="5.26289">
        <ele>382.2</ele>
        <time>2025-05-18T12:34:47Z</time>
      </trkpt>
      <trkpt lat="45.66946" lon="5.26288">
        <ele>382.4</ele>
        <time>2025-05-18T12:34:48Z</time>
      </trkpt>
      <trkpt lat="45.66948" lon="5.26287">
        <ele>382.4</ele>
        <time>2025-05-18T12:34:49Z</time>
      </trkpt>
      <trkpt lat="45.66949" lon="5.26286">
        <ele>382.6</ele>
        <time>2025-05-18T12:34:50Z</time>
      </trkpt>
      <trkpt lat="45.66951" lon="5.26285">
        <ele>382.6</ele>
        <time>2025-05-18T12:34:51Z</time>
      </trkpt>
      <trkpt lat="45.66952" lon="5.26284">
        <ele>382.8</ele>
        <time>2025-05-18T12:34:52Z</time>
      </trkpt>
      <trkpt lat="45.66954" lon="5.26283">
        <ele>382.8</ele>
        <time>2025-05-18T12:34:53Z</time>
      </trkpt>
      <trkpt lat="45.66955" lon="5.26282">
        <ele>382.8</ele>
        <time>2025-05-18T12:34:54Z</time>
      </trkpt>
      <trkpt lat="45.66957" lon="5.2628">
        <ele>383.2</ele>
        <time>2025-05-18T12:34:55Z</time>
      </trkpt>
      <trkpt lat="45.66958" lon="5.26279">
        <ele>383.2</ele>
        <time>2025-05-18T12:34:56Z</time>
      </trkpt>
      <trkpt lat="45.6696" lon="5.26278">
        <ele>383.6</ele>
        <time>2025-05-18T12:34:57Z</time>
      </trkpt>
      <trkpt lat="45.66961" lon="5.26276">
        <ele>384</ele>
        <time>2025-05-18T12:34:58Z</time>
      </trkpt>
      <trkpt lat="45.66962" lon="5.26275">
        <ele>384</ele>
        <time>2025-05-18T12:34:59Z</time>
      </trkpt>
      <trkpt lat="45.66963" lon="5.26273">
        <ele>384</ele>
        <time>2025-05-18T12:35:00Z</time>
      </trkpt>
      <trkpt lat="45.66964" lon="5.26272">
        <ele>384</ele>
        <time>2025-05-18T12:35:01Z</time>
      </trkpt>
      <trkpt lat="45.66965" lon="5.2627">
        <ele>384</ele>
        <time>2025-05-18T12:35:02Z</time>
      </trkpt>
      <trkpt lat="45.66966" lon="5.26269">
        <ele>384.2</ele>
        <time>2025-05-18T12:35:03Z</time>
      </trkpt>
      <trkpt lat="45.66967" lon="5.26268">
        <ele>384.2</ele>
        <time>2025-05-18T12:35:04Z</time>
      </trkpt>
      <trkpt lat="45.66969" lon="5.26266">
        <ele>384.6</ele>
        <time>2025-05-18T12:35:05Z</time>
      </trkpt>
      <trkpt lat="45.6697" lon="5.26265">
        <ele>384.6</ele>
        <time>2025-05-18T12:35:06Z</time>
      </trkpt>
      <trkpt lat="45.66971" lon="5.26263">
        <ele>384.8</ele>
        <time>2025-05-18T12:35:07Z</time>
      </trkpt>
      <trkpt lat="45.66973" lon="5.26261">
        <ele>385.2</ele>
        <time>2025-05-18T12:35:08Z</time>
      </trkpt>
      <trkpt lat="45.66974" lon="5.26259">
        <ele>385.4</ele>
        <time>2025-05-18T12:35:09Z</time>
      </trkpt>
      <trkpt lat="45.66975" lon="5.26257">
        <ele>385.6</ele>
        <time>2025-05-18T12:35:10Z</time>
      </trkpt>
      <trkpt lat="45.66976" lon="5.26256">
        <ele>385.6</ele>
        <time>2025-05-18T12:35:11Z</time>
      </trkpt>
      <trkpt lat="45.66977" lon="5.26255">
        <ele>385.6</ele>
        <time>2025-05-18T12:35:12Z</time>
      </trkpt>
      <trkpt lat="45.66978" lon="5.26253">
        <ele>386</ele>
        <time>2025-05-18T12:35:13Z</time>
      </trkpt>
      <trkpt lat="45.6698" lon="5.26252">
        <ele>386</ele>
        <time>2025-05-18T12:35:14Z</time>
      </trkpt>
      <trkpt lat="45.66981" lon="5.2625">
        <ele>386</ele>
        <time>2025-05-18T12:35:15Z</time>
      </trkpt>
      <trkpt lat="45.66982" lon="5.26249">
        <ele>386.2</ele>
        <time>2025-05-18T12:35:16Z</time>
      </trkpt>
      <trkpt lat="45.66983" lon="5.26247">
        <ele>386.2</ele>
        <time>2025-05-18T12:35:17Z</time>
      </trkpt>
      <trkpt lat="45.66984" lon="5.26245">
        <ele>386.4</ele>
        <time>2025-05-18T12:35:18Z</time>
      </trkpt>
      <trkpt lat="45.66985" lon="5.26244">
        <ele>386.4</ele>
        <time>2025-05-18T12:35:19Z</time>
      </trkpt>
      <trkpt lat="45.66986" lon="5.26242">
        <ele>386.8</ele>
        <time>2025-05-18T12:35:20Z</time>
      </trkpt>
      <trkpt lat="45.66986" lon="5.2624">
        <ele>386.8</ele>
        <time>2025-05-18T12:35:21Z</time>
      </trkpt>
      <trkpt lat="45.66988" lon="5.26238">
        <ele>386.8</ele>
        <time>2025-05-18T12:35:22Z</time>
      </trkpt>
      <trkpt lat="45.66989" lon="5.26236">
        <ele>386.8</ele>
        <time>2025-05-18T12:35:23Z</time>
      </trkpt>
      <trkpt lat="45.6699" lon="5.26234">
        <ele>386.8</ele>
        <time>2025-05-18T12:35:24Z</time>
      </trkpt>
      <trkpt lat="45.66992" lon="5.26232">
        <ele>387</ele>
        <time>2025-05-18T12:35:25Z</time>
      </trkpt>
      <trkpt lat="45.66994" lon="5.2623">
        <ele>387</ele>
        <time>2025-05-18T12:35:26Z</time>
      </trkpt>
      <trkpt lat="45.66995" lon="5.26229">
        <ele>387</ele>
        <time>2025-05-18T12:35:27Z</time>
      </trkpt>
      <trkpt lat="45.66996" lon="5.26227">
        <ele>387.2</ele>
        <time>2025-05-18T12:35:28Z</time>
      </trkpt>
      <trkpt lat="45.66998" lon="5.26226">
        <ele>387.2</ele>
        <time>2025-05-18T12:35:29Z</time>
      </trkpt>
      <trkpt lat="45.66999" lon="5.26225">
        <ele>388</ele>
        <time>2025-05-18T12:35:30Z</time>
      </trkpt>
      <trkpt lat="45.67" lon="5.26224">
        <ele>388</ele>
        <time>2025-05-18T12:35:31Z</time>
      </trkpt>
      <trkpt lat="45.67002" lon="5.26221">
        <ele>388</ele>
        <time>2025-05-18T12:35:32Z</time>
      </trkpt>
      <trkpt lat="45.67004" lon="5.26218">
        <ele>388</ele>
        <time>2025-05-18T12:35:33Z</time>
      </trkpt>
      <trkpt lat="45.67005" lon="5.26216">
        <ele>388</ele>
        <time>2025-05-18T12:35:34Z</time>
      </trkpt>
      <trkpt lat="45.67006" lon="5.26215">
        <ele>388</ele>
        <time>2025-05-18T12:35:35Z</time>
      </trkpt>
      <trkpt lat="45.67007" lon="5.26213">
        <ele>388</ele>
        <time>2025-05-18T12:35:36Z</time>
      </trkpt>
      <trkpt lat="45.67008" lon="5.26211">
        <ele>388</ele>
        <time>2025-05-18T12:35:37Z</time>
      </trkpt>
      <trkpt lat="45.67009" lon="5.26209">
        <ele>388</ele>
        <time>2025-05-18T12:35:38Z</time>
      </trkpt>
      <trkpt lat="45.6701" lon="5.26207">
        <ele>388</ele>
        <time>2025-05-18T12:35:39Z</time>
      </trkpt>
      <trkpt lat="45.67012" lon="5.26205">
        <ele>388</ele>
        <time>2025-05-18T12:35:40Z</time>
      </trkpt>
      <trkpt lat="45.67013" lon="5.26203">
        <ele>388.2</ele>
        <time>2025-05-18T12:35:41Z</time>
      </trkpt>
      <trkpt lat="45.67014" lon="5.26201">
        <ele>388.4</ele>
        <time>2025-05-18T12:35:42Z</time>
      </trkpt>
      <trkpt lat="45.67015" lon="5.26199">
        <ele>388.4</ele>
        <time>2025-05-18T12:35:43Z</time>
      </trkpt>
      <trkpt lat="45.67017" lon="5.26197">
        <ele>388.4</ele>
        <time>2025-05-18T12:35:44Z</time>
      </trkpt>
      <trkpt lat="45.67019" lon="5.26195">
        <ele>388.8</ele>
        <time>2025-05-18T12:35:45Z</time>
      </trkpt>
      <trkpt lat="45.6702" lon="5.26194">
        <ele>388.8</ele>
        <time>2025-05-18T12:35:46Z</time>
      </trkpt>
      <trkpt lat="45.67021" lon="5.26192">
        <ele>389</ele>
        <time>2025-05-18T12:35:47Z</time>
      </trkpt>
      <trkpt lat="45.67023" lon="5.26191">
        <ele>389</ele>
        <time>2025-05-18T12:35:48Z</time>
      </trkpt>
      <trkpt lat="45.67024" lon="5.26189">
        <ele>389</ele>
        <time>2025-05-18T12:35:49Z</time>
      </trkpt>
      <trkpt lat="45.67025" lon="5.26187">
        <ele>389.2</ele>
        <time>2025-05-18T12:35:50Z</time>
      </trkpt>
      <trkpt lat="45.67027" lon="5.26185">
        <ele>389.2</ele>
        <time>2025-05-18T12:35:51Z</time>
      </trkpt>
      <trkpt lat="45.67028" lon="5.26183">
        <ele>389.6</ele>
        <time>2025-05-18T12:35:52Z</time>
      </trkpt>
      <trkpt lat="45.67029" lon="5.2618">
        <ele>389.8</ele>
        <time>2025-05-18T12:35:53Z</time>
      </trkpt>
      <trkpt lat="45.67031" lon="5.26179">
        <ele>390</ele>
        <time>2025-05-18T12:35:54Z</time>
      </trkpt>
      <trkpt lat="45.67032" lon="5.26177">
        <ele>390</ele>
        <time>2025-05-18T12:35:55Z</time>
      </trkpt>
      <trkpt lat="45.67034" lon="5.26175">
        <ele>390.4</ele>
        <time>2025-05-18T12:35:56Z</time>
      </trkpt>
      <trkpt lat="45.67035" lon="5.26173">
        <ele>390.4</ele>
        <time>2025-05-18T12:35:57Z</time>
      </trkpt>
      <trkpt lat="45.67036" lon="5.26172">
        <ele>390.6</ele>
        <time>2025-05-18T12:35:58Z</time>
      </trkpt>
      <trkpt lat="45.67036" lon="5.2617">
        <ele>390.6</ele>
        <time>2025-05-18T12:35:59Z</time>
      </trkpt>
      <trkpt lat="45.67038" lon="5.26168">
        <ele>390.6</ele>
        <time>2025-05-18T12:36:00Z</time>
      </trkpt>
      <trkpt lat="45.67039" lon="5.26166">
        <ele>391</ele>
        <time>2025-05-18T12:36:01Z</time>
      </trkpt>
      <trkpt lat="45.6704" lon="5.26165">
        <ele>391</ele>
        <time>2025-05-18T12:36:02Z</time>
      </trkpt>
      <trkpt lat="45.67041" lon="5.26163">
        <ele>391.6</ele>
        <time>2025-05-18T12:36:03Z</time>
      </trkpt>
      <trkpt lat="45.67042" lon="5.26162">
        <ele>391.6</ele>
        <time>2025-05-18T12:36:04Z</time>
      </trkpt>
      <trkpt lat="45.67043" lon="5.26159">
        <ele>391.8</ele>
        <time>2025-05-18T12:36:05Z</time>
      </trkpt>
      <trkpt lat="45.67044" lon="5.26158">
        <ele>391.8</ele>
        <time>2025-05-18T12:36:06Z</time>
      </trkpt>
      <trkpt lat="45.67046" lon="5.26156">
        <ele>391.8</ele>
        <time>2025-05-18T12:36:07Z</time>
      </trkpt>
      <trkpt lat="45.67047" lon="5.26154">
        <ele>392.2</ele>
        <time>2025-05-18T12:36:08Z</time>
      </trkpt>
      <trkpt lat="45.67048" lon="5.26152">
        <ele>392.2</ele>
        <time>2025-05-18T12:36:09Z</time>
      </trkpt>
      <trkpt lat="45.67049" lon="5.2615">
        <ele>392.4</ele>
        <time>2025-05-18T12:36:10Z</time>
      </trkpt>
      <trkpt lat="45.6705" lon="5.26148">
        <ele>392.4</ele>
        <time>2025-05-18T12:36:11Z</time>
      </trkpt>
      <trkpt lat="45.67051" lon="5.26146">
        <ele>393</ele>
        <time>2025-05-18T12:36:12Z</time>
      </trkpt>
      <trkpt lat="45.67052" lon="5.26145">
        <ele>393</ele>
        <time>2025-05-18T12:36:13Z</time>
      </trkpt>
      <trkpt lat="45.67053" lon="5.26143">
        <ele>393.2</ele>
        <time>2025-05-18T12:36:14Z</time>
      </trkpt>
      <trkpt lat="45.67054" lon="5.26141">
        <ele>393.2</ele>
        <time>2025-05-18T12:36:15Z</time>
      </trkpt>
      <trkpt lat="45.67055" lon="5.2614">
        <ele>393.2</ele>
        <time>2025-05-18T12:36:16Z</time>
      </trkpt>
      <trkpt lat="45.67057" lon="5.26138">
        <ele>393.6</ele>
        <time>2025-05-18T12:36:17Z</time>
      </trkpt>
      <trkpt lat="45.67058" lon="5.26137">
        <ele>393.8</ele>
        <time>2025-05-18T12:36:18Z</time>
      </trkpt>
      <trkpt lat="45.67059" lon="5.26135">
        <ele>393.8</ele>
        <time>2025-05-18T12:36:19Z</time>
      </trkpt>
      <trkpt lat="45.6706" lon="5.26133">
        <ele>394.2</ele>
        <time>2025-05-18T12:36:20Z</time>
      </trkpt>
      <trkpt lat="45.67062" lon="5.26131">
        <ele>394.2</ele>
        <time>2025-05-18T12:36:21Z</time>
      </trkpt>
      <trkpt lat="45.67063" lon="5.26129">
        <ele>394.4</ele>
        <time>2025-05-18T12:36:22Z</time>
      </trkpt>
      <trkpt lat="45.67064" lon="5.26127">
        <ele>394.4</ele>
        <time>2025-05-18T12:36:23Z</time>
      </trkpt>
      <trkpt lat="45.67065" lon="5.26125">
        <ele>394.8</ele>
        <time>2025-05-18T12:36:24Z</time>
      </trkpt>
      <trkpt lat="45.67066" lon="5.26124">
        <ele>394.8</ele>
        <time>2025-05-18T12:36:25Z</time>
      </trkpt>
      <trkpt lat="45.67067" lon="5.26122">
        <ele>394.8</ele>
        <time>2025-05-18T12:36:26Z</time>
      </trkpt>
      <trkpt lat="45.67069" lon="5.2612">
        <ele>395</ele>
        <time>2025-05-18T12:36:27Z</time>
      </trkpt>
      <trkpt lat="45.6707" lon="5.26118">
        <ele>395</ele>
        <time>2025-05-18T12:36:28Z</time>
      </trkpt>
      <trkpt lat="45.67071" lon="5.26117">
        <ele>395</ele>
        <time>2025-05-18T12:36:29Z</time>
      </trkpt>
      <trkpt lat="45.67072" lon="5.26116">
        <ele>395.4</ele>
        <time>2025-05-18T12:36:30Z</time>
      </trkpt>
      <trkpt lat="45.67073" lon="5.26114">
        <ele>395.4</ele>
        <time>2025-05-18T12:36:31Z</time>
      </trkpt>
      <trkpt lat="45.67074" lon="5.26112">
        <ele>395.4</ele>
        <time>2025-05-18T12:36:32Z</time>
      </trkpt>
      <trkpt lat="45.67076" lon="5.2611">
        <ele>395.4</ele>
        <time>2025-05-18T12:36:33Z</time>
      </trkpt>
      <trkpt lat="45.67077" lon="5.26108">
        <ele>395.4</ele>
        <time>2025-05-18T12:36:34Z</time>
      </trkpt>
      <trkpt lat="45.67078" lon="5.26107">
        <ele>395.6</ele>
        <time>2025-05-18T12:36:35Z</time>
      </trkpt>
      <trkpt lat="45.6708" lon="5.26105">
        <ele>395.6</ele>
        <time>2025-05-18T12:36:36Z</time>
      </trkpt>
      <trkpt lat="45.67081" lon="5.26103">
        <ele>395.6</ele>
        <time>2025-05-18T12:36:37Z</time>
      </trkpt>
      <trkpt lat="45.67083" lon="5.26102">
        <ele>395.6</ele>
        <time>2025-05-18T12:36:38Z</time>
      </trkpt>
      <trkpt lat="45.67085" lon="5.261">
        <ele>395.6</ele>
        <time>2025-05-18T12:36:39Z</time>
      </trkpt>
      <trkpt lat="45.67086" lon="5.26098">
        <ele>395.6</ele>
        <time>2025-05-18T12:36:40Z</time>
      </trkpt>
      <trkpt lat="45.67088" lon="5.26096">
        <ele>395.6</ele>
        <time>2025-05-18T12:36:41Z</time>
      </trkpt>
      <trkpt lat="45.67089" lon="5.26094">
        <ele>395.6</ele>
        <time>2025-05-18T12:36:42Z</time>
      </trkpt>
      <trkpt lat="45.67091" lon="5.26092">
        <ele>395.6</ele>
        <time>2025-05-18T12:36:43Z</time>
      </trkpt>
      <trkpt lat="45.67094" lon="5.2609">
        <ele>395.6</ele>
        <time>2025-05-18T12:36:44Z</time>
      </trkpt>
      <trkpt lat="45.67096" lon="5.26089">
        <ele>395.8</ele>
        <time>2025-05-18T12:36:45Z</time>
      </trkpt>
      <trkpt lat="45.67098" lon="5.26088">
        <ele>395.8</ele>
        <time>2025-05-18T12:36:46Z</time>
      </trkpt>
      <trkpt lat="45.671" lon="5.26086">
        <ele>395.8</ele>
        <time>2025-05-18T12:36:47Z</time>
      </trkpt>
      <trkpt lat="45.67102" lon="5.26086">
        <ele>396.2</ele>
        <time>2025-05-18T12:36:48Z</time>
      </trkpt>
      <trkpt lat="45.67103" lon="5.26085">
        <ele>396.2</ele>
        <time>2025-05-18T12:36:49Z</time>
      </trkpt>
      <trkpt lat="45.67106" lon="5.26082">
        <ele>396.6</ele>
        <time>2025-05-18T12:36:50Z</time>
      </trkpt>
      <trkpt lat="45.67108" lon="5.2608">
        <ele>396.6</ele>
        <time>2025-05-18T12:36:51Z</time>
      </trkpt>
      <trkpt lat="45.6711" lon="5.26078">
        <ele>396.6</ele>
        <time>2025-05-18T12:36:52Z</time>
      </trkpt>
      <trkpt lat="45.67111" lon="5.26077">
        <ele>396.6</ele>
        <time>2025-05-18T12:36:53Z</time>
      </trkpt>
      <trkpt lat="45.67113" lon="5.26075">
        <ele>396.6</ele>
        <time>2025-05-18T12:36:54Z</time>
      </trkpt>
      <trkpt lat="45.67114" lon="5.26073">
        <ele>396.8</ele>
        <time>2025-05-18T12:36:55Z</time>
      </trkpt>
      <trkpt lat="45.67116" lon="5.26071">
        <ele>396.8</ele>
        <time>2025-05-18T12:36:56Z</time>
      </trkpt>
      <trkpt lat="45.67117" lon="5.2607">
        <ele>396.8</ele>
        <time>2025-05-18T12:36:57Z</time>
      </trkpt>
      <trkpt lat="45.67118" lon="5.26068">
        <ele>396.8</ele>
        <time>2025-05-18T12:36:58Z</time>
      </trkpt>
      <trkpt lat="45.67119" lon="5.26067">
        <ele>396.8</ele>
        <time>2025-05-18T12:36:59Z</time>
      </trkpt>
      <trkpt lat="45.67121" lon="5.26066">
        <ele>396.6</ele>
        <time>2025-05-18T12:37:00Z</time>
      </trkpt>
      <trkpt lat="45.67122" lon="5.26064">
        <ele>396.6</ele>
        <time>2025-05-18T12:37:01Z</time>
      </trkpt>
      <trkpt lat="45.67124" lon="5.26063">
        <ele>396.6</ele>
        <time>2025-05-18T12:37:02Z</time>
      </trkpt>
      <trkpt lat="45.67125" lon="5.26062">
        <ele>396.4</ele>
        <time>2025-05-18T12:37:03Z</time>
      </trkpt>
      <trkpt lat="45.67127" lon="5.26061">
        <ele>396.4</ele>
        <time>2025-05-18T12:37:04Z</time>
      </trkpt>
      <trkpt lat="45.67128" lon="5.2606">
        <ele>396.4</ele>
        <time>2025-05-18T12:37:05Z</time>
      </trkpt>
      <trkpt lat="45.67129" lon="5.26059">
        <ele>396.4</ele>
        <time>2025-05-18T12:37:06Z</time>
      </trkpt>
      <trkpt lat="45.67131" lon="5.26057">
        <ele>396.4</ele>
        <time>2025-05-18T12:37:07Z</time>
      </trkpt>
      <trkpt lat="45.67133" lon="5.26056">
        <ele>396.2</ele>
        <time>2025-05-18T12:37:08Z</time>
      </trkpt>
      <trkpt lat="45.67137" lon="5.26054">
        <ele>396.2</ele>
        <time>2025-05-18T12:37:09Z</time>
      </trkpt>
      <trkpt lat="45.67141" lon="5.26053">
        <ele>396.2</ele>
        <time>2025-05-18T12:37:10Z</time>
      </trkpt>
      <trkpt lat="45.67144" lon="5.26052">
        <ele>395.8</ele>
        <time>2025-05-18T12:37:11Z</time>
      </trkpt>
      <trkpt lat="45.67147" lon="5.26052">
        <ele>395.2</ele>
        <time>2025-05-18T12:37:12Z</time>
      </trkpt>
      <trkpt lat="45.67149" lon="5.26052">
        <ele>395</ele>
        <time>2025-05-18T12:37:13Z</time>
      </trkpt>
      <trkpt lat="45.67151" lon="5.26051">
        <ele>395.4</ele>
        <time>2025-05-18T12:37:14Z</time>
      </trkpt>
      <trkpt lat="45.67153" lon="5.26051">
        <ele>395.6</ele>
        <time>2025-05-18T12:37:15Z</time>
      </trkpt>
      <trkpt lat="45.67155" lon="5.26051">
        <ele>395.6</ele>
        <time>2025-05-18T12:37:16Z</time>
      </trkpt>
      <trkpt lat="45.67157" lon="5.2605">
        <ele>395.4</ele>
        <time>2025-05-18T12:37:17Z</time>
      </trkpt>
      <trkpt lat="45.6716" lon="5.26049">
        <ele>395.4</ele>
        <time>2025-05-18T12:37:18Z</time>
      </trkpt>
      <trkpt lat="45.67162" lon="5.26049">
        <ele>395.4</ele>
        <time>2025-05-18T12:37:19Z</time>
      </trkpt>
      <trkpt lat="45.67164" lon="5.26049">
        <ele>395.2</ele>
        <time>2025-05-18T12:37:20Z</time>
      </trkpt>
      <trkpt lat="45.67168" lon="5.26049">
        <ele>395.2</ele>
        <time>2025-05-18T12:37:21Z</time>
      </trkpt>
      <trkpt lat="45.67171" lon="5.26048">
        <ele>395.2</ele>
        <time>2025-05-18T12:37:22Z</time>
      </trkpt>
      <trkpt lat="45.67174" lon="5.26047">
        <ele>395</ele>
        <time>2025-05-18T12:37:23Z</time>
      </trkpt>
      <trkpt lat="45.67177" lon="5.26046">
        <ele>395</ele>
        <time>2025-05-18T12:37:24Z</time>
      </trkpt>
      <trkpt lat="45.67181" lon="5.26045">
        <ele>394.8</ele>
        <time>2025-05-18T12:37:25Z</time>
      </trkpt>
      <trkpt lat="45.67184" lon="5.26044">
        <ele>394.8</ele>
        <time>2025-05-18T12:37:26Z</time>
      </trkpt>
      <trkpt lat="45.67188" lon="5.26044">
        <ele>394.4</ele>
        <time>2025-05-18T12:37:27Z</time>
      </trkpt>
      <trkpt lat="45.67192" lon="5.26043">
        <ele>394</ele>
        <time>2025-05-18T12:37:28Z</time>
      </trkpt>
      <trkpt lat="45.67197" lon="5.26042">
        <ele>393.4</ele>
        <time>2025-05-18T12:37:29Z</time>
      </trkpt>
      <trkpt lat="45.67201" lon="5.26042">
        <ele>393.8</ele>
        <time>2025-05-18T12:37:30Z</time>
      </trkpt>
      <trkpt lat="45.67206" lon="5.26041">
        <ele>393.8</ele>
        <time>2025-05-18T12:37:31Z</time>
      </trkpt>
      <trkpt lat="45.67212" lon="5.26041">
        <ele>393.2</ele>
        <time>2025-05-18T12:37:32Z</time>
      </trkpt>
      <trkpt lat="45.67218" lon="5.26037">
        <ele>392.6</ele>
        <time>2025-05-18T12:37:33Z</time>
      </trkpt>
      <trkpt lat="45.67223" lon="5.26032">
        <ele>392.2</ele>
        <time>2025-05-18T12:37:34Z</time>
      </trkpt>
      <trkpt lat="45.67229" lon="5.26026">
        <ele>391.8</ele>
        <time>2025-05-18T12:37:35Z</time>
      </trkpt>
      <trkpt lat="45.67234" lon="5.26018">
        <ele>391.8</ele>
        <time>2025-05-18T12:37:36Z</time>
      </trkpt>
      <trkpt lat="45.67241" lon="5.26012">
        <ele>390.6</ele>
        <time>2025-05-18T12:37:37Z</time>
      </trkpt>
      <trkpt lat="45.67247" lon="5.26006">
        <ele>390.4</ele>
        <time>2025-05-18T12:37:38Z</time>
      </trkpt>
      <trkpt lat="45.67253" lon="5.26001">
        <ele>390.4</ele>
        <time>2025-05-18T12:37:39Z</time>
      </trkpt>
      <trkpt lat="45.6726" lon="5.25996">
        <ele>389.8</ele>
        <time>2025-05-18T12:37:40Z</time>
      </trkpt>
      <trkpt lat="45.67266" lon="5.25992">
        <ele>389.6</ele>
        <time>2025-05-18T12:37:41Z</time>
      </trkpt>
      <trkpt lat="45.67272" lon="5.25989">
        <ele>389.6</ele>
        <time>2025-05-18T12:37:42Z</time>
      </trkpt>
      <trkpt lat="45.67278" lon="5.25986">
        <ele>389.6</ele>
        <time>2025-05-18T12:37:43Z</time>
      </trkpt>
      <trkpt lat="45.67285" lon="5.25984">
        <ele>389.6</ele>
        <time>2025-05-18T12:37:44Z</time>
      </trkpt>
      <trkpt lat="45.67287" lon="5.25981">
        <ele>389.6</ele>
        <time>2025-05-18T12:37:45Z</time>
      </trkpt>
      <trkpt lat="45.67293" lon="5.25979">
        <ele>389.6</ele>
        <time>2025-05-18T12:37:46Z</time>
      </trkpt>
      <trkpt lat="45.67298" lon="5.25977">
        <ele>390.2</ele>
        <time>2025-05-18T12:37:47Z</time>
      </trkpt>
      <trkpt lat="45.67303" lon="5.25975">
        <ele>390.2</ele>
        <time>2025-05-18T12:37:48Z</time>
      </trkpt>
      <trkpt lat="45.6731" lon="5.25974">
        <ele>390.2</ele>
        <time>2025-05-18T12:37:49Z</time>
      </trkpt>
      <trkpt lat="45.67317" lon="5.25973">
        <ele>389.2</ele>
        <time>2025-05-18T12:37:50Z</time>
      </trkpt>
      <trkpt lat="45.67323" lon="5.25971">
        <ele>388.6</ele>
        <time>2025-05-18T12:37:51Z</time>
      </trkpt>
      <trkpt lat="45.67333" lon="5.25969">
        <ele>388.2</ele>
        <time>2025-05-18T12:37:52Z</time>
      </trkpt>
      <trkpt lat="45.6734" lon="5.25963">
        <ele>387</ele>
        <time>2025-05-18T12:37:53Z</time>
      </trkpt>
      <trkpt lat="45.67349" lon="5.25957">
        <ele>386</ele>
        <time>2025-05-18T12:37:54Z</time>
      </trkpt>
      <trkpt lat="45.67358" lon="5.25949">
        <ele>384.8</ele>
        <time>2025-05-18T12:37:55Z</time>
      </trkpt>
      <trkpt lat="45.67368" lon="5.25941">
        <ele>384.6</ele>
        <time>2025-05-18T12:37:56Z</time>
      </trkpt>
      <trkpt lat="45.67375" lon="5.25933">
        <ele>383.6</ele>
        <time>2025-05-18T12:37:57Z</time>
      </trkpt>
      <trkpt lat="45.67384" lon="5.25924">
        <ele>382.2</ele>
        <time>2025-05-18T12:37:58Z</time>
      </trkpt>
      <trkpt lat="45.67391" lon="5.25915">
        <ele>381.2</ele>
        <time>2025-05-18T12:37:59Z</time>
      </trkpt>
      <trkpt lat="45.67399" lon="5.25907">
        <ele>380</ele>
        <time>2025-05-18T12:38:00Z</time>
      </trkpt>
      <trkpt lat="45.67406" lon="5.25896">
        <ele>378.6</ele>
        <time>2025-05-18T12:38:01Z</time>
      </trkpt>
      <trkpt lat="45.67415" lon="5.25886">
        <ele>379.2</ele>
        <time>2025-05-18T12:38:02Z</time>
      </trkpt>
      <trkpt lat="45.67422" lon="5.25876">
        <ele>378.8</ele>
        <time>2025-05-18T12:38:03Z</time>
      </trkpt>
      <trkpt lat="45.67429" lon="5.25865">
        <ele>378.2</ele>
        <time>2025-05-18T12:38:04Z</time>
      </trkpt>
      <trkpt lat="45.67434" lon="5.25854">
        <ele>378</ele>
        <time>2025-05-18T12:38:05Z</time>
      </trkpt>
      <trkpt lat="45.67442" lon="5.25846">
        <ele>377.6</ele>
        <time>2025-05-18T12:38:06Z</time>
      </trkpt>
      <trkpt lat="45.67449" lon="5.25838">
        <ele>377.6</ele>
        <time>2025-05-18T12:38:07Z</time>
      </trkpt>
      <trkpt lat="45.67455" lon="5.25829">
        <ele>377.6</ele>
        <time>2025-05-18T12:38:08Z</time>
      </trkpt>
      <trkpt lat="45.6746" lon="5.2582">
        <ele>378</ele>
        <time>2025-05-18T12:38:09Z</time>
      </trkpt>
      <trkpt lat="45.67467" lon="5.25815">
        <ele>379</ele>
        <time>2025-05-18T12:38:10Z</time>
      </trkpt>
      <trkpt lat="45.67472" lon="5.25811">
        <ele>379.4</ele>
        <time>2025-05-18T12:38:11Z</time>
      </trkpt>
      <trkpt lat="45.67477" lon="5.25812">
        <ele>380.2</ele>
        <time>2025-05-18T12:38:12Z</time>
      </trkpt>
      <trkpt lat="45.6748" lon="5.25819">
        <ele>381.2</ele>
        <time>2025-05-18T12:38:13Z</time>
      </trkpt>
      <trkpt lat="45.67485" lon="5.25821">
        <ele>381.8</ele>
        <time>2025-05-18T12:38:14Z</time>
      </trkpt>
      <trkpt lat="45.67488" lon="5.25825">
        <ele>382.4</ele>
        <time>2025-05-18T12:38:15Z</time>
      </trkpt>
      <trkpt lat="45.67491" lon="5.2583">
        <ele>382.8</ele>
        <time>2025-05-18T12:38:16Z</time>
      </trkpt>
      <trkpt lat="45.67494" lon="5.25834">
        <ele>383.2</ele>
        <time>2025-05-18T12:38:17Z</time>
      </trkpt>
      <trkpt lat="45.67498" lon="5.25836">
        <ele>383.6</ele>
        <time>2025-05-18T12:38:18Z</time>
      </trkpt>
      <trkpt lat="45.67502" lon="5.25839">
        <ele>383.6</ele>
        <time>2025-05-18T12:38:19Z</time>
      </trkpt>
      <trkpt lat="45.67506" lon="5.2584">
        <ele>383.6</ele>
        <time>2025-05-18T12:38:20Z</time>
      </trkpt>
      <trkpt lat="45.67512" lon="5.25842">
        <ele>383.8</ele>
        <time>2025-05-18T12:38:21Z</time>
      </trkpt>
      <trkpt lat="45.67517" lon="5.25843">
        <ele>383.6</ele>
        <time>2025-05-18T12:38:22Z</time>
      </trkpt>
      <trkpt lat="45.67524" lon="5.25841">
        <ele>383</ele>
        <time>2025-05-18T12:38:23Z</time>
      </trkpt>
      <trkpt lat="45.6753" lon="5.25839">
        <ele>382.2</ele>
        <time>2025-05-18T12:38:24Z</time>
      </trkpt>
      <trkpt lat="45.67537" lon="5.25836">
        <ele>381.4</ele>
        <time>2025-05-18T12:38:25Z</time>
      </trkpt>
      <trkpt lat="45.67543" lon="5.25833">
        <ele>380.8</ele>
        <time>2025-05-18T12:38:26Z</time>
      </trkpt>
      <trkpt lat="45.6755" lon="5.25829">
        <ele>380.4</ele>
        <time>2025-05-18T12:38:27Z</time>
      </trkpt>
      <trkpt lat="45.67556" lon="5.25824">
        <ele>380</ele>
        <time>2025-05-18T12:38:28Z</time>
      </trkpt>
      <trkpt lat="45.67564" lon="5.25819">
        <ele>379.6</ele>
        <time>2025-05-18T12:38:29Z</time>
      </trkpt>
      <trkpt lat="45.67569" lon="5.25813">
        <ele>379.6</ele>
        <time>2025-05-18T12:38:30Z</time>
      </trkpt>
      <trkpt lat="45.67577" lon="5.25809">
        <ele>379</ele>
        <time>2025-05-18T12:38:31Z</time>
      </trkpt>
      <trkpt lat="45.67584" lon="5.25804">
        <ele>379</ele>
        <time>2025-05-18T12:38:32Z</time>
      </trkpt>
      <trkpt lat="45.67591" lon="5.25798">
        <ele>378.6</ele>
        <time>2025-05-18T12:38:33Z</time>
      </trkpt>
      <trkpt lat="45.67597" lon="5.25791">
        <ele>378.6</ele>
        <time>2025-05-18T12:38:34Z</time>
      </trkpt>
      <trkpt lat="45.67604" lon="5.25785">
        <ele>378.6</ele>
        <time>2025-05-18T12:38:35Z</time>
      </trkpt>
      <trkpt lat="45.67609" lon="5.2578">
        <ele>378.8</ele>
        <time>2025-05-18T12:38:36Z</time>
      </trkpt>
      <trkpt lat="45.67616" lon="5.25776">
        <ele>379</ele>
        <time>2025-05-18T12:38:37Z</time>
      </trkpt>
      <trkpt lat="45.67622" lon="5.25772">
        <ele>379.4</ele>
        <time>2025-05-18T12:38:38Z</time>
      </trkpt>
      <trkpt lat="45.67628" lon="5.25769">
        <ele>379.6</ele>
        <time>2025-05-18T12:38:39Z</time>
      </trkpt>
      <trkpt lat="45.67634" lon="5.25769">
        <ele>379.6</ele>
        <time>2025-05-18T12:38:40Z</time>
      </trkpt>
      <trkpt lat="45.67641" lon="5.25766">
        <ele>379.6</ele>
        <time>2025-05-18T12:38:41Z</time>
      </trkpt>
      <trkpt lat="45.67647" lon="5.25765">
        <ele>379.6</ele>
        <time>2025-05-18T12:38:42Z</time>
      </trkpt>
      <trkpt lat="45.67654" lon="5.25764">
        <ele>379.8</ele>
        <time>2025-05-18T12:38:43Z</time>
      </trkpt>
      <trkpt lat="45.67659" lon="5.25761">
        <ele>379.8</ele>
        <time>2025-05-18T12:38:44Z</time>
      </trkpt>
      <trkpt lat="45.67665" lon="5.2576">
        <ele>379.8</ele>
        <time>2025-05-18T12:38:45Z</time>
      </trkpt>
      <trkpt lat="45.67672" lon="5.25759">
        <ele>379.4</ele>
        <time>2025-05-18T12:38:46Z</time>
      </trkpt>
      <trkpt lat="45.67679" lon="5.25757">
        <ele>379.2</ele>
        <time>2025-05-18T12:38:47Z</time>
      </trkpt>
      <trkpt lat="45.67685" lon="5.25754">
        <ele>378.8</ele>
        <time>2025-05-18T12:38:48Z</time>
      </trkpt>
      <trkpt lat="45.67692" lon="5.25753">
        <ele>378.2</ele>
        <time>2025-05-18T12:38:49Z</time>
      </trkpt>
      <trkpt lat="45.67698" lon="5.2575">
        <ele>377.8</ele>
        <time>2025-05-18T12:38:50Z</time>
      </trkpt>
      <trkpt lat="45.67704" lon="5.25747">
        <ele>377.4</ele>
        <time>2025-05-18T12:38:51Z</time>
      </trkpt>
      <trkpt lat="45.67708" lon="5.25744">
        <ele>377.8</ele>
        <time>2025-05-18T12:38:52Z</time>
      </trkpt>
      <trkpt lat="45.67711" lon="5.25741">
        <ele>378</ele>
        <time>2025-05-18T12:38:53Z</time>
      </trkpt>
      <trkpt lat="45.67713" lon="5.25739">
        <ele>378</ele>
        <time>2025-05-18T12:38:54Z</time>
      </trkpt>
      <trkpt lat="45.67717" lon="5.25736">
        <ele>378.2</ele>
        <time>2025-05-18T12:38:55Z</time>
      </trkpt>
      <trkpt lat="45.6772" lon="5.25733">
        <ele>378.2</ele>
        <time>2025-05-18T12:38:56Z</time>
      </trkpt>
      <trkpt lat="45.67723" lon="5.25729">
        <ele>378</ele>
        <time>2025-05-18T12:38:57Z</time>
      </trkpt>
      <trkpt lat="45.67727" lon="5.25726">
        <ele>378</ele>
        <time>2025-05-18T12:38:58Z</time>
      </trkpt>
      <trkpt lat="45.6773" lon="5.25722">
        <ele>378</ele>
        <time>2025-05-18T12:38:59Z</time>
      </trkpt>
      <trkpt lat="45.67732" lon="5.25718">
        <ele>377.6</ele>
        <time>2025-05-18T12:39:00Z</time>
      </trkpt>
      <trkpt lat="45.67734" lon="5.25713">
        <ele>377.6</ele>
        <time>2025-05-18T12:39:01Z</time>
      </trkpt>
      <trkpt lat="45.67736" lon="5.25707">
        <ele>377.6</ele>
        <time>2025-05-18T12:39:02Z</time>
      </trkpt>
      <trkpt lat="45.67737" lon="5.25702">
        <ele>377.2</ele>
        <time>2025-05-18T12:39:03Z</time>
      </trkpt>
      <trkpt lat="45.67738" lon="5.25697">
        <ele>377</ele>
        <time>2025-05-18T12:39:04Z</time>
      </trkpt>
      <trkpt lat="45.67739" lon="5.25692">
        <ele>377</ele>
        <time>2025-05-18T12:39:05Z</time>
      </trkpt>
      <trkpt lat="45.6774" lon="5.25686">
        <ele>377</ele>
        <time>2025-05-18T12:39:06Z</time>
      </trkpt>
      <trkpt lat="45.67743" lon="5.2568">
        <ele>377</ele>
        <time>2025-05-18T12:39:07Z</time>
      </trkpt>
      <trkpt lat="45.67744" lon="5.25673">
        <ele>376.8</ele>
        <time>2025-05-18T12:39:08Z</time>
      </trkpt>
      <trkpt lat="45.67744" lon="5.25666">
        <ele>376.6</ele>
        <time>2025-05-18T12:39:09Z</time>
      </trkpt>
      <trkpt lat="45.67745" lon="5.25659">
        <ele>376.2</ele>
        <time>2025-05-18T12:39:10Z</time>
      </trkpt>
      <trkpt lat="45.67746" lon="5.25652">
        <ele>376.2</ele>
        <time>2025-05-18T12:39:11Z</time>
      </trkpt>
      <trkpt lat="45.67747" lon="5.25645">
        <ele>376.2</ele>
        <time>2025-05-18T12:39:12Z</time>
      </trkpt>
      <trkpt lat="45.67749" lon="5.25639">
        <ele>376</ele>
        <time>2025-05-18T12:39:13Z</time>
      </trkpt>
      <trkpt lat="45.67749" lon="5.25632">
        <ele>375.6</ele>
        <time>2025-05-18T12:39:14Z</time>
      </trkpt>
      <trkpt lat="45.67752" lon="5.25626">
        <ele>375.6</ele>
        <time>2025-05-18T12:39:15Z</time>
      </trkpt>
      <trkpt lat="45.67754" lon="5.25618">
        <ele>375.2</ele>
        <time>2025-05-18T12:39:16Z</time>
      </trkpt>
      <trkpt lat="45.67756" lon="5.25611">
        <ele>374.8</ele>
        <time>2025-05-18T12:39:17Z</time>
      </trkpt>
      <trkpt lat="45.67757" lon="5.25605">
        <ele>374.6</ele>
        <time>2025-05-18T12:39:18Z</time>
      </trkpt>
      <trkpt lat="45.67758" lon="5.25601">
        <ele>374.6</ele>
        <time>2025-05-18T12:39:19Z</time>
      </trkpt>
      <trkpt lat="45.67759" lon="5.25597">
        <ele>374.6</ele>
        <time>2025-05-18T12:39:20Z</time>
      </trkpt>
      <trkpt lat="45.6776" lon="5.25594">
        <ele>374.6</ele>
        <time>2025-05-18T12:39:21Z</time>
      </trkpt>
      <trkpt lat="45.67762" lon="5.2559">
        <ele>374.4</ele>
        <time>2025-05-18T12:39:22Z</time>
      </trkpt>
      <trkpt lat="45.67763" lon="5.25586">
        <ele>374.4</ele>
        <time>2025-05-18T12:39:23Z</time>
        <extensions>
          <visugpx:TrkExtension xmlns:visugpx="https://www.visugpx.com/editgpx/">
            <visugpx:node>9</visugpx:node>
            </visugpx:TrkExtension>
        </extensions>
      </trkpt>
      <trkpt lat="45.67768" lon="5.25578">
        <ele>365.5</ele>
      </trkpt>
      <trkpt lat="45.67769" lon="5.25569">
        <ele>365.5</ele>
      </trkpt>
      <trkpt lat="45.6779" lon="5.2557">
        <ele>364</ele>
      </trkpt>
      <trkpt lat="45.67866" lon="5.25593">
        <ele>362.6</ele>
      </trkpt>
      <trkpt lat="45.67924" lon="5.25605">
        <ele>362.1</ele>
      </trkpt>
      <trkpt lat="45.67933" lon="5.256">
        <ele>362</ele>
      </trkpt>
      <trkpt lat="45.67936" lon="5.25605">
        <ele>361.6</ele>
      </trkpt>
      <trkpt lat="45.67938" lon="5.25605">
        <ele>361.5</ele>
      </trkpt>
      <trkpt lat="45.67939" lon="5.25605">
        <ele>361.5</ele>
        <extensions>
          <visugpx:TrkExtension xmlns:visugpx="https://www.visugpx.com/editgpx/">
            <visugpx:node>1</visugpx:node>
            </visugpx:TrkExtension>
        </extensions>
      </trkpt>
      <trkpt lat="45.67948" lon="5.2561">
        <ele>358.2</ele>
        <time>2025-05-27T09:05:16Z</time>
      </trkpt>
      <trkpt lat="45.6795" lon="5.25611">
        <ele>358</ele>
        <time>2025-05-27T09:05:17Z</time>
      </trkpt>
      <trkpt lat="45.67952" lon="5.25611">
        <ele>358</ele>
        <time>2025-05-27T09:05:18Z</time>
      </trkpt>
      <trkpt lat="45.67951" lon="5.25611">
        <ele>358</ele>
        <time>2025-05-27T09:05:19Z</time>
      </trkpt>
      <trkpt lat="45.67952" lon="5.2561">
        <ele>357.8</ele>
        <time>2025-05-27T09:05:39Z</time>
      </trkpt>
      <trkpt lat="45.67954" lon="5.2561">
        <ele>357.8</ele>
        <time>2025-05-27T09:05:40Z</time>
      </trkpt>
      <trkpt lat="45.67957" lon="5.2561">
        <ele>357.4</ele>
        <time>2025-05-27T09:05:41Z</time>
      </trkpt>
      <trkpt lat="45.6796" lon="5.2561">
        <ele>357</ele>
        <time>2025-05-27T09:05:42Z</time>
      </trkpt>
      <trkpt lat="45.67963" lon="5.25612">
        <ele>356.8</ele>
        <time>2025-05-27T09:05:43Z</time>
      </trkpt>
      <trkpt lat="45.67967" lon="5.25613">
        <ele>356.6</ele>
        <time>2025-05-27T09:05:44Z</time>
      </trkpt>
      <trkpt lat="45.67972" lon="5.25617">
        <ele>356.2</ele>
        <time>2025-05-27T09:05:45Z</time>
      </trkpt>
      <trkpt lat="45.67976" lon="5.2562">
        <ele>355.8</ele>
        <time>2025-05-27T09:05:46Z</time>
      </trkpt>
      <trkpt lat="45.67981" lon="5.25623">
        <ele>355.2</ele>
        <time>2025-05-27T09:05:47Z</time>
      </trkpt>
      <trkpt lat="45.67987" lon="5.25625">
        <ele>355.2</ele>
        <time>2025-05-27T09:05:48Z</time>
      </trkpt>
      <trkpt lat="45.67992" lon="5.25627">
        <ele>354.4</ele>
        <time>2025-05-27T09:05:49Z</time>
      </trkpt>
      <trkpt lat="45.67997" lon="5.2563">
        <ele>354.2</ele>
        <time>2025-05-27T09:05:50Z</time>
      </trkpt>
      <trkpt lat="45.68003" lon="5.25633">
        <ele>353.8</ele>
        <time>2025-05-27T09:05:51Z</time>
      </trkpt>
      <trkpt lat="45.68009" lon="5.25636">
        <ele>353.4</ele>
        <time>2025-05-27T09:05:52Z</time>
      </trkpt>
      <trkpt lat="45.68014" lon="5.25639">
        <ele>352.8</ele>
        <time>2025-05-27T09:05:53Z</time>
      </trkpt>
      <trkpt lat="45.6802" lon="5.25641">
        <ele>352.4</ele>
        <time>2025-05-27T09:05:54Z</time>
      </trkpt>
      <trkpt lat="45.68025" lon="5.25644">
        <ele>352</ele>
        <time>2025-05-27T09:05:55Z</time>
      </trkpt>
      <trkpt lat="45.68028" lon="5.25648">
        <ele>351.4</ele>
        <time>2025-05-27T09:05:56Z</time>
      </trkpt>
      <trkpt lat="45.68032" lon="5.25654">
        <ele>350.8</ele>
        <time>2025-05-27T09:05:57Z</time>
      </trkpt>
      <trkpt lat="45.68034" lon="5.25661">
        <ele>350.6</ele>
        <time>2025-05-27T09:05:58Z</time>
      </trkpt>
      <trkpt lat="45.68034" lon="5.25668">
        <ele>350.2</ele>
        <time>2025-05-27T09:05:59Z</time>
      </trkpt>
      <trkpt lat="45.68034" lon="5.25673">
        <ele>349.8</ele>
        <time>2025-05-27T09:06:00Z</time>
      </trkpt>
      <trkpt lat="45.68031" lon="5.25679">
        <ele>349.8</ele>
        <time>2025-05-27T09:06:01Z</time>
      </trkpt>
      <trkpt lat="45.68026" lon="5.25682">
        <ele>349.4</ele>
        <time>2025-05-27T09:06:02Z</time>
      </trkpt>
      <trkpt lat="45.68022" lon="5.25685">
        <ele>349.2</ele>
        <time>2025-05-27T09:06:03Z</time>
      </trkpt>
      <trkpt lat="45.68018" lon="5.25689">
        <ele>349.2</ele>
        <time>2025-05-27T09:06:04Z</time>
      </trkpt>
      <trkpt lat="45.68013" lon="5.25692">
        <ele>348.8</ele>
        <time>2025-05-27T09:06:05Z</time>
      </trkpt>
      <trkpt lat="45.68007" lon="5.25695">
        <ele>348.6</ele>
        <time>2025-05-27T09:06:06Z</time>
      </trkpt>
      <trkpt lat="45.68002" lon="5.25699">
        <ele>348.2</ele>
        <time>2025-05-27T09:06:07Z</time>
      </trkpt>
      <trkpt lat="45.67997" lon="5.25705">
        <ele>348.2</ele>
        <time>2025-05-27T09:06:08Z</time>
      </trkpt>
      <trkpt lat="45.67994" lon="5.25713">
        <ele>347.6</ele>
        <time>2025-05-27T09:06:09Z</time>
      </trkpt>
      <trkpt lat="45.6799" lon="5.2572">
        <ele>347.2</ele>
        <time>2025-05-27T09:06:10Z</time>
      </trkpt>
      <trkpt lat="45.67987" lon="5.25729">
        <ele>346.8</ele>
        <time>2025-05-27T09:06:11Z</time>
      </trkpt>
      <trkpt lat="45.67987" lon="5.25737">
        <ele>346</ele>
        <time>2025-05-27T09:06:12Z</time>
      </trkpt>
      <trkpt lat="45.67987" lon="5.25747">
        <ele>345.4</ele>
        <time>2025-05-27T09:06:13Z</time>
      </trkpt>
      <trkpt lat="45.67987" lon="5.25756">
        <ele>345</ele>
        <time>2025-05-27T09:06:14Z</time>
      </trkpt>
      <trkpt lat="45.67989" lon="5.25767">
        <ele>344.8</ele>
        <time>2025-05-27T09:06:15Z</time>
      </trkpt>
      <trkpt lat="45.67991" lon="5.25776">
        <ele>344.8</ele>
        <time>2025-05-27T09:06:16Z</time>
      </trkpt>
      <trkpt lat="45.67992" lon="5.25787">
        <ele>344.4</ele>
        <time>2025-05-27T09:06:17Z</time>
      </trkpt>
      <trkpt lat="45.67994" lon="5.25797">
        <ele>344.4</ele>
        <time>2025-05-27T09:06:18Z</time>
      </trkpt>
      <trkpt lat="45.67995" lon="5.25807">
        <ele>344</ele>
        <time>2025-05-27T09:06:19Z</time>
      </trkpt>
      <trkpt lat="45.67997" lon="5.25817">
        <ele>344</ele>
        <time>2025-05-27T09:06:20Z</time>
      </trkpt>
      <trkpt lat="45.67999" lon="5.25826">
        <ele>344</ele>
        <time>2025-05-27T09:06:21Z</time>
      </trkpt>
      <trkpt lat="45.68001" lon="5.25835">
        <ele>343.8</ele>
        <time>2025-05-27T09:06:22Z</time>
      </trkpt>
      <trkpt lat="45.68003" lon="5.25845">
        <ele>343.8</ele>
        <time>2025-05-27T09:06:23Z</time>
      </trkpt>
      <trkpt lat="45.68004" lon="5.25854">
        <ele>343.8</ele>
        <time>2025-05-27T09:06:24Z</time>
      </trkpt>
      <trkpt lat="45.68006" lon="5.25863">
        <ele>343.8</ele>
        <time>2025-05-27T09:06:25Z</time>
      </trkpt>
      <trkpt lat="45.68007" lon="5.25872">
        <ele>343.8</ele>
        <time>2025-05-27T09:06:26Z</time>
      </trkpt>
      <trkpt lat="45.68009" lon="5.25882">
        <ele>343.8</ele>
        <time>2025-05-27T09:06:27Z</time>
      </trkpt>
      <trkpt lat="45.6801" lon="5.25891">
        <ele>344</ele>
        <time>2025-05-27T09:06:28Z</time>
      </trkpt>
      <trkpt lat="45.68012" lon="5.259">
        <ele>344</ele>
        <time>2025-05-27T09:06:29Z</time>
      </trkpt>
      <trkpt lat="45.68013" lon="5.25908">
        <ele>344.4</ele>
        <time>2025-05-27T09:06:30Z</time>
      </trkpt>
      <trkpt lat="45.68015" lon="5.25917">
        <ele>344.4</ele>
        <time>2025-05-27T09:06:31Z</time>
      </trkpt>
      <trkpt lat="45.68016" lon="5.25926">
        <ele>344.4</ele>
        <time>2025-05-27T09:06:32Z</time>
      </trkpt>
      <trkpt lat="45.68017" lon="5.25935">
        <ele>344.6</ele>
        <time>2025-05-27T09:06:33Z</time>
      </trkpt>
      <trkpt lat="45.68018" lon="5.25944">
        <ele>345</ele>
        <time>2025-05-27T09:06:34Z</time>
      </trkpt>
      <trkpt lat="45.6802" lon="5.25952">
        <ele>345</ele>
        <time>2025-05-27T09:06:35Z</time>
      </trkpt>
      <trkpt lat="45.68022" lon="5.2596">
        <ele>345</ele>
        <time>2025-05-27T09:06:36Z</time>
      </trkpt>
      <trkpt lat="45.68023" lon="5.25968">
        <ele>345.4</ele>
        <time>2025-05-27T09:06:37Z</time>
      </trkpt>
      <trkpt lat="45.68025" lon="5.25975">
        <ele>345.4</ele>
        <time>2025-05-27T09:06:38Z</time>
      </trkpt>
      <trkpt lat="45.68026" lon="5.25982">
        <ele>345.4</ele>
        <time>2025-05-27T09:06:39Z</time>
      </trkpt>
      <trkpt lat="45.68027" lon="5.2599">
        <ele>345.8</ele>
        <time>2025-05-27T09:06:40Z</time>
      </trkpt>
      <trkpt lat="45.68028" lon="5.25997">
        <ele>346.2</ele>
        <time>2025-05-27T09:06:41Z</time>
      </trkpt>
      <trkpt lat="45.68029" lon="5.26004">
        <ele>346.2</ele>
        <time>2025-05-27T09:06:42Z</time>
      </trkpt>
      <trkpt lat="45.68029" lon="5.26012">
        <ele>346.6</ele>
        <time>2025-05-27T09:06:43Z</time>
      </trkpt>
      <trkpt lat="45.6803" lon="5.26019">
        <ele>346.6</ele>
        <time>2025-05-27T09:06:44Z</time>
      </trkpt>
      <trkpt lat="45.68032" lon="5.26026">
        <ele>346.6</ele>
        <time>2025-05-27T09:06:45Z</time>
      </trkpt>
      <trkpt lat="45.68033" lon="5.26033">
        <ele>346.6</ele>
        <time>2025-05-27T09:06:46Z</time>
      </trkpt>
      <trkpt lat="45.68035" lon="5.26041">
        <ele>346.6</ele>
        <time>2025-05-27T09:06:47Z</time>
      </trkpt>
      <trkpt lat="45.68036" lon="5.26049">
        <ele>346.6</ele>
        <time>2025-05-27T09:06:48Z</time>
      </trkpt>
      <trkpt lat="45.68038" lon="5.26057">
        <ele>346.6</ele>
        <time>2025-05-27T09:06:49Z</time>
      </trkpt>
      <trkpt lat="45.68039" lon="5.26065">
        <ele>345.8</ele>
        <time>2025-05-27T09:06:50Z</time>
      </trkpt>
      <trkpt lat="45.6804" lon="5.26074">
        <ele>345.8</ele>
        <time>2025-05-27T09:06:51Z</time>
      </trkpt>
      <trkpt lat="45.68042" lon="5.26083">
        <ele>344.8</ele>
        <time>2025-05-27T09:06:52Z</time>
      </trkpt>
      <trkpt lat="45.68044" lon="5.26093">
        <ele>344.8</ele>
        <time>2025-05-27T09:06:53Z</time>
      </trkpt>
      <trkpt lat="45.68045" lon="5.26101">
        <ele>346.2</ele>
        <time>2025-05-27T09:06:54Z</time>
      </trkpt>
      <trkpt lat="45.68046" lon="5.2611">
        <ele>346.6</ele>
        <time>2025-05-27T09:06:55Z</time>
      </trkpt>
      <trkpt lat="45.68047" lon="5.2612">
        <ele>347</ele>
        <time>2025-05-27T09:06:56Z</time>
      </trkpt>
      <trkpt lat="45.68048" lon="5.26128">
        <ele>346.6</ele>
        <time>2025-05-27T09:06:57Z</time>
      </trkpt>
      <trkpt lat="45.68049" lon="5.26137">
        <ele>346.6</ele>
        <time>2025-05-27T09:06:58Z</time>
      </trkpt>
      <trkpt lat="45.6805" lon="5.26146">
        <ele>346.4</ele>
        <time>2025-05-27T09:06:59Z</time>
      </trkpt>
      <trkpt lat="45.6805" lon="5.26155">
        <ele>346.4</ele>
        <time>2025-05-27T09:07:00Z</time>
      </trkpt>
      <trkpt lat="45.68051" lon="5.26163">
        <ele>346.4</ele>
        <time>2025-05-27T09:07:01Z</time>
      </trkpt>
      <trkpt lat="45.68051" lon="5.26172">
        <ele>346</ele>
        <time>2025-05-27T09:07:02Z</time>
      </trkpt>
      <trkpt lat="45.68052" lon="5.26181">
        <ele>346</ele>
        <time>2025-05-27T09:07:03Z</time>
      </trkpt>
      <trkpt lat="45.68051" lon="5.2619">
        <ele>346</ele>
        <time>2025-05-27T09:07:04Z</time>
      </trkpt>
      <trkpt lat="45.68051" lon="5.26199">
        <ele>346</ele>
        <time>2025-05-27T09:07:05Z</time>
      </trkpt>
      <trkpt lat="45.68051" lon="5.26208">
        <ele>346</ele>
        <time>2025-05-27T09:07:06Z</time>
      </trkpt>
      <trkpt lat="45.6805" lon="5.26217">
        <ele>345.8</ele>
        <time>2025-05-27T09:07:07Z</time>
      </trkpt>
      <trkpt lat="45.6805" lon="5.26225">
        <ele>345.8</ele>
        <time>2025-05-27T09:07:08Z</time>
      </trkpt>
      <trkpt lat="45.68049" lon="5.26233">
        <ele>345.8</ele>
        <time>2025-05-27T09:07:09Z</time>
      </trkpt>
      <trkpt lat="45.68049" lon="5.2624">
        <ele>345.8</ele>
        <time>2025-05-27T09:07:10Z</time>
      </trkpt>
      <trkpt lat="45.68049" lon="5.26248">
        <ele>345.8</ele>
        <time>2025-05-27T09:07:11Z</time>
      </trkpt>
      <trkpt lat="45.6805" lon="5.26256">
        <ele>345.8</ele>
        <time>2025-05-27T09:07:12Z</time>
      </trkpt>
      <trkpt lat="45.6805" lon="5.26264">
        <ele>346</ele>
        <time>2025-05-27T09:07:13Z</time>
      </trkpt>
      <trkpt lat="45.6805" lon="5.26273">
        <ele>346</ele>
        <time>2025-05-27T09:07:14Z</time>
      </trkpt>
      <trkpt lat="45.68051" lon="5.2628">
        <ele>346</ele>
        <time>2025-05-27T09:07:15Z</time>
      </trkpt>
      <trkpt lat="45.68051" lon="5.26289">
        <ele>346</ele>
        <time>2025-05-27T09:07:16Z</time>
      </trkpt>
      <trkpt lat="45.68052" lon="5.26297">
        <ele>346</ele>
        <time>2025-05-27T09:07:17Z</time>
      </trkpt>
      <trkpt lat="45.68051" lon="5.26306">
        <ele>346</ele>
        <time>2025-05-27T09:07:18Z</time>
      </trkpt>
      <trkpt lat="45.68051" lon="5.26315">
        <ele>346</ele>
        <time>2025-05-27T09:07:19Z</time>
      </trkpt>
      <trkpt lat="45.68051" lon="5.26324">
        <ele>346</ele>
        <time>2025-05-27T09:07:20Z</time>
      </trkpt>
      <trkpt lat="45.68051" lon="5.26333">
        <ele>346</ele>
        <time>2025-05-27T09:07:21Z</time>
      </trkpt>
      <trkpt lat="45.68051" lon="5.26342">
        <ele>346</ele>
        <time>2025-05-27T09:07:22Z</time>
      </trkpt>
      <trkpt lat="45.68051" lon="5.26352">
        <ele>346</ele>
        <time>2025-05-27T09:07:23Z</time>
      </trkpt>
      <trkpt lat="45.68052" lon="5.26362">
        <ele>345.4</ele>
        <time>2025-05-27T09:07:24Z</time>
      </trkpt>
      <trkpt lat="45.68053" lon="5.26372">
        <ele>345</ele>
        <time>2025-05-27T09:07:25Z</time>
      </trkpt>
      <trkpt lat="45.68054" lon="5.26383">
        <ele>344.6</ele>
        <time>2025-05-27T09:07:26Z</time>
      </trkpt>
      <trkpt lat="45.68055" lon="5.26394">
        <ele>344.2</ele>
        <time>2025-05-27T09:07:27Z</time>
      </trkpt>
      <trkpt lat="45.68056" lon="5.26406">
        <ele>343.8</ele>
        <time>2025-05-27T09:07:28Z</time>
      </trkpt>
      <trkpt lat="45.68058" lon="5.26418">
        <ele>343.2</ele>
        <time>2025-05-27T09:07:29Z</time>
      </trkpt>
      <trkpt lat="45.68059" lon="5.2643">
        <ele>342.8</ele>
        <time>2025-05-27T09:07:30Z</time>
      </trkpt>
      <trkpt lat="45.6806" lon="5.26443">
        <ele>342</ele>
        <time>2025-05-27T09:07:31Z</time>
      </trkpt>
      <trkpt lat="45.68062" lon="5.26455">
        <ele>341</ele>
        <time>2025-05-27T09:07:32Z</time>
      </trkpt>
      <trkpt lat="45.68063" lon="5.26469">
        <ele>340</ele>
        <time>2025-05-27T09:07:33Z</time>
      </trkpt>
      <trkpt lat="45.68063" lon="5.26482">
        <ele>339.8</ele>
        <time>2025-05-27T09:07:34Z</time>
      </trkpt>
      <trkpt lat="45.68063" lon="5.26496">
        <ele>339.4</ele>
        <time>2025-05-27T09:07:35Z</time>
      </trkpt>
      <trkpt lat="45.68061" lon="5.26509">
        <ele>338.8</ele>
        <time>2025-05-27T09:07:36Z</time>
      </trkpt>
      <trkpt lat="45.68053" lon="5.26535">
        <ele>338</ele>
        <time>2025-05-27T09:07:37Z</time>
      </trkpt>
      <trkpt lat="45.68046" lon="5.26547">
        <ele>337.8</ele>
        <time>2025-05-27T09:07:38Z</time>
      </trkpt>
      <trkpt lat="45.68039" lon="5.26558">
        <ele>336.8</ele>
        <time>2025-05-27T09:07:39Z</time>
      </trkpt>
      <trkpt lat="45.6803" lon="5.26568">
        <ele>336</ele>
        <time>2025-05-27T09:07:40Z</time>
      </trkpt>
      <trkpt lat="45.68022" lon="5.26577">
        <ele>335</ele>
        <time>2025-05-27T09:07:41Z</time>
      </trkpt>
      <trkpt lat="45.68013" lon="5.26586">
        <ele>334.2</ele>
        <time>2025-05-27T09:07:42Z</time>
      </trkpt>
      <trkpt lat="45.68003" lon="5.26595">
        <ele>333.4</ele>
        <time>2025-05-27T09:07:43Z</time>
      </trkpt>
      <trkpt lat="45.67994" lon="5.26605">
        <ele>332.6</ele>
        <time>2025-05-27T09:07:44Z</time>
      </trkpt>
      <trkpt lat="45.67984" lon="5.26614">
        <ele>331.6</ele>
        <time>2025-05-27T09:07:45Z</time>
      </trkpt>
      <trkpt lat="45.67975" lon="5.26623">
        <ele>330.8</ele>
        <time>2025-05-27T09:07:46Z</time>
      </trkpt>
      <trkpt lat="45.67966" lon="5.26633">
        <ele>330</ele>
        <time>2025-05-27T09:07:47Z</time>
      </trkpt>
      <trkpt lat="45.67956" lon="5.26642">
        <ele>329.2</ele>
        <time>2025-05-27T09:07:48Z</time>
      </trkpt>
      <trkpt lat="45.67948" lon="5.26651">
        <ele>328.2</ele>
        <time>2025-05-27T09:07:49Z</time>
      </trkpt>
      <trkpt lat="45.67938" lon="5.2666">
        <ele>327.4</ele>
        <time>2025-05-27T09:07:50Z</time>
      </trkpt>
      <trkpt lat="45.67929" lon="5.26668">
        <ele>326.8</ele>
        <time>2025-05-27T09:07:51Z</time>
      </trkpt>
      <trkpt lat="45.67918" lon="5.26674">
        <ele>326</ele>
        <time>2025-05-27T09:07:52Z</time>
      </trkpt>
      <trkpt lat="45.67908" lon="5.26681">
        <ele>325.4</ele>
        <time>2025-05-27T09:07:53Z</time>
      </trkpt>
      <trkpt lat="45.67908" lon="5.26681">
        <ele>324.6</ele>
        <time>2025-05-27T09:07:54Z</time>
      </trkpt>
      <trkpt lat="45.67897" lon="5.26687">
        <ele>324.2</ele>
        <time>2025-05-27T09:07:55Z</time>
      </trkpt>
      <trkpt lat="45.67886" lon="5.26692">
        <ele>323.8</ele>
        <time>2025-05-27T09:07:56Z</time>
      </trkpt>
      <trkpt lat="45.67875" lon="5.26695">
        <ele>323.2</ele>
        <time>2025-05-27T09:07:57Z</time>
      </trkpt>
      <trkpt lat="45.67863" lon="5.26699">
        <ele>322.6</ele>
        <time>2025-05-27T09:07:58Z</time>
      </trkpt>
      <trkpt lat="45.67851" lon="5.26702">
        <ele>321.6</ele>
        <time>2025-05-27T09:07:59Z</time>
      </trkpt>
      <trkpt lat="45.67839" lon="5.26706">
        <ele>320.6</ele>
        <time>2025-05-27T09:08:00Z</time>
      </trkpt>
      <trkpt lat="45.67827" lon="5.2671">
        <ele>320</ele>
        <time>2025-05-27T09:08:01Z</time>
      </trkpt>
      <trkpt lat="45.67816" lon="5.26715">
        <ele>319</ele>
        <time>2025-05-27T09:08:02Z</time>
      </trkpt>
      <trkpt lat="45.67804" lon="5.2672">
        <ele>318.2</ele>
        <time>2025-05-27T09:08:03Z</time>
      </trkpt>
      <trkpt lat="45.67793" lon="5.26727">
        <ele>317.4</ele>
        <time>2025-05-27T09:08:04Z</time>
      </trkpt>
      <trkpt lat="45.67781" lon="5.26735">
        <ele>316.4</ele>
        <time>2025-05-27T09:08:05Z</time>
      </trkpt>
      <trkpt lat="45.6777" lon="5.26742">
        <ele>315.4</ele>
        <time>2025-05-27T09:08:06Z</time>
      </trkpt>
      <trkpt lat="45.67759" lon="5.26751">
        <ele>314.4</ele>
        <time>2025-05-27T09:08:07Z</time>
      </trkpt>
      <trkpt lat="45.67747" lon="5.26759">
        <ele>313.8</ele>
        <time>2025-05-27T09:08:08Z</time>
      </trkpt>
      <trkpt lat="45.67735" lon="5.26767">
        <ele>313</ele>
        <time>2025-05-27T09:08:09Z</time>
      </trkpt>
      <trkpt lat="45.67723" lon="5.26776">
        <ele>311.6</ele>
        <time>2025-05-27T09:08:10Z</time>
      </trkpt>
      <trkpt lat="45.67711" lon="5.26785">
        <ele>310.2</ele>
        <time>2025-05-27T09:08:11Z</time>
      </trkpt>
      <trkpt lat="45.67698" lon="5.26794">
        <ele>308.6</ele>
        <time>2025-05-27T09:08:12Z</time>
      </trkpt>
      <trkpt lat="45.67685" lon="5.26802">
        <ele>307</ele>
        <time>2025-05-27T09:08:13Z</time>
      </trkpt>
      <trkpt lat="45.67673" lon="5.26811">
        <ele>305.6</ele>
        <time>2025-05-27T09:08:14Z</time>
      </trkpt>
      <trkpt lat="45.67661" lon="5.2682">
        <ele>304.2</ele>
        <time>2025-05-27T09:08:15Z</time>
      </trkpt>
      <trkpt lat="45.67648" lon="5.26828">
        <ele>303</ele>
        <time>2025-05-27T09:08:16Z</time>
      </trkpt>
      <trkpt lat="45.67636" lon="5.26836">
        <ele>302.2</ele>
        <time>2025-05-27T09:08:17Z</time>
      </trkpt>
      <trkpt lat="45.67624" lon="5.26844">
        <ele>301.6</ele>
        <time>2025-05-27T09:08:18Z</time>
      </trkpt>
      <trkpt lat="45.67613" lon="5.26851">
        <ele>300.6</ele>
        <time>2025-05-27T09:08:19Z</time>
      </trkpt>
      <trkpt lat="45.67601" lon="5.2686">
        <ele>300.2</ele>
        <time>2025-05-27T09:08:20Z</time>
      </trkpt>
      <trkpt lat="45.67589" lon="5.26868">
        <ele>300.6</ele>
        <time>2025-05-27T09:08:21Z</time>
      </trkpt>
      <trkpt lat="45.67579" lon="5.26876">
        <ele>300.8</ele>
        <time>2025-05-27T09:08:22Z</time>
      </trkpt>
      <trkpt lat="45.67568" lon="5.26884">
        <ele>300.8</ele>
        <time>2025-05-27T09:08:23Z</time>
      </trkpt>
      <trkpt lat="45.67558" lon="5.26893">
        <ele>301</ele>
        <time>2025-05-27T09:08:24Z</time>
      </trkpt>
      <trkpt lat="45.67548" lon="5.269">
        <ele>301</ele>
        <time>2025-05-27T09:08:25Z</time>
      </trkpt>
      <trkpt lat="45.67539" lon="5.26909">
        <ele>301</ele>
        <time>2025-05-27T09:08:26Z</time>
      </trkpt>
      <trkpt lat="45.67531" lon="5.26914">
        <ele>301</ele>
        <time>2025-05-27T09:08:27Z</time>
      </trkpt>
      <trkpt lat="45.67521" lon="5.26922">
        <ele>301</ele>
        <time>2025-05-27T09:08:28Z</time>
      </trkpt>
      <trkpt lat="45.67514" lon="5.26927">
        <ele>301</ele>
        <time>2025-05-27T09:08:29Z</time>
      </trkpt>
      <trkpt lat="45.67505" lon="5.26934">
        <ele>301</ele>
        <time>2025-05-27T09:08:30Z</time>
      </trkpt>
      <trkpt lat="45.67497" lon="5.26938">
        <ele>301</ele>
        <time>2025-05-27T09:08:31Z</time>
      </trkpt>
      <trkpt lat="45.6749" lon="5.26944">
        <ele>301.4</ele>
        <time>2025-05-27T09:08:32Z</time>
      </trkpt>
      <trkpt lat="45.67482" lon="5.26951">
        <ele>301.6</ele>
        <time>2025-05-27T09:08:33Z</time>
      </trkpt>
      <trkpt lat="45.67476" lon="5.26958">
        <ele>302.4</ele>
        <time>2025-05-27T09:08:34Z</time>
      </trkpt>
      <trkpt lat="45.67469" lon="5.26965">
        <ele>302.8</ele>
        <time>2025-05-27T09:08:35Z</time>
      </trkpt>
      <trkpt lat="45.67465" lon="5.26973">
        <ele>303.2</ele>
        <time>2025-05-27T09:08:36Z</time>
      </trkpt>
      <trkpt lat="45.67458" lon="5.26981">
        <ele>303.2</ele>
        <time>2025-05-27T09:08:37Z</time>
      </trkpt>
      <trkpt lat="45.67452" lon="5.26991">
        <ele>303.2</ele>
        <time>2025-05-27T09:08:38Z</time>
      </trkpt>
      <trkpt lat="45.67445" lon="5.27001">
        <ele>302.8</ele>
        <time>2025-05-27T09:08:39Z</time>
      </trkpt>
      <trkpt lat="45.67439" lon="5.2701">
        <ele>302.8</ele>
        <time>2025-05-27T09:08:40Z</time>
      </trkpt>
      <trkpt lat="45.67434" lon="5.27019">
        <ele>302.6</ele>
        <time>2025-05-27T09:08:41Z</time>
      </trkpt>
      <trkpt lat="45.67431" lon="5.27027">
        <ele>303.2</ele>
        <time>2025-05-27T09:08:42Z</time>
      </trkpt>
      <trkpt lat="45.67426" lon="5.27037">
        <ele>303.4</ele>
        <time>2025-05-27T09:08:43Z</time>
      </trkpt>
      <trkpt lat="45.67422" lon="5.27046">
        <ele>303.8</ele>
        <time>2025-05-27T09:08:44Z</time>
      </trkpt>
      <trkpt lat="45.67418" lon="5.27054">
        <ele>303.8</ele>
        <time>2025-05-27T09:08:45Z</time>
      </trkpt>
      <trkpt lat="45.67413" lon="5.27062">
        <ele>303.4</ele>
        <time>2025-05-27T09:08:46Z</time>
      </trkpt>
      <trkpt lat="45.67409" lon="5.27071">
        <ele>303.4</ele>
        <time>2025-05-27T09:08:47Z</time>
      </trkpt>
      <trkpt lat="45.67404" lon="5.27079">
        <ele>303.4</ele>
        <time>2025-05-27T09:08:48Z</time>
      </trkpt>
      <trkpt lat="45.674" lon="5.27087">
        <ele>303.2</ele>
        <time>2025-05-27T09:08:49Z</time>
      </trkpt>
      <trkpt lat="45.67395" lon="5.27095">
        <ele>303.2</ele>
        <time>2025-05-27T09:08:50Z</time>
      </trkpt>
      <trkpt lat="45.67391" lon="5.27103">
        <ele>303.2</ele>
        <time>2025-05-27T09:08:51Z</time>
      </trkpt>
      <trkpt lat="45.67386" lon="5.2711">
        <ele>303.2</ele>
        <time>2025-05-27T09:08:52Z</time>
      </trkpt>
      <trkpt lat="45.67383" lon="5.27118">
        <ele>303.2</ele>
        <time>2025-05-27T09:08:53Z</time>
      </trkpt>
      <trkpt lat="45.67378" lon="5.27125">
        <ele>303.2</ele>
        <time>2025-05-27T09:08:54Z</time>
      </trkpt>
      <trkpt lat="45.67374" lon="5.27132">
        <ele>303.6</ele>
        <time>2025-05-27T09:08:55Z</time>
      </trkpt>
      <trkpt lat="45.67371" lon="5.27138">
        <ele>303.8</ele>
        <time>2025-05-27T09:08:56Z</time>
      </trkpt>
      <trkpt lat="45.67367" lon="5.27146">
        <ele>303.8</ele>
        <time>2025-05-27T09:08:57Z</time>
      </trkpt>
      <trkpt lat="45.67363" lon="5.27153">
        <ele>303.4</ele>
        <time>2025-05-27T09:08:58Z</time>
      </trkpt>
      <trkpt lat="45.67359" lon="5.27161">
        <ele>303.4</ele>
        <time>2025-05-27T09:08:59Z</time>
      </trkpt>
      <trkpt lat="45.67355" lon="5.27169">
        <ele>303.4</ele>
        <time>2025-05-27T09:09:00Z</time>
      </trkpt>
      <trkpt lat="45.67352" lon="5.27177">
        <ele>303</ele>
        <time>2025-05-27T09:09:01Z</time>
      </trkpt>
      <trkpt lat="45.67347" lon="5.27185">
        <ele>303</ele>
        <time>2025-05-27T09:09:02Z</time>
      </trkpt>
      <trkpt lat="45.67343" lon="5.27192">
        <ele>302.8</ele>
        <time>2025-05-27T09:09:03Z</time>
      </trkpt>
      <trkpt lat="45.6734" lon="5.27201">
        <ele>302.8</ele>
        <time>2025-05-27T09:09:04Z</time>
      </trkpt>
      <trkpt lat="45.67337" lon="5.2721">
        <ele>302.8</ele>
        <time>2025-05-27T09:09:05Z</time>
      </trkpt>
      <trkpt lat="45.67336" lon="5.27218">
        <ele>302.4</ele>
        <time>2025-05-27T09:09:06Z</time>
      </trkpt>
      <trkpt lat="45.67336" lon="5.27226">
        <ele>302.4</ele>
        <time>2025-05-27T09:09:07Z</time>
      </trkpt>
      <trkpt lat="45.67334" lon="5.27235">
        <ele>302.4</ele>
        <time>2025-05-27T09:09:08Z</time>
      </trkpt>
      <trkpt lat="45.67333" lon="5.27242">
        <ele>302.4</ele>
        <time>2025-05-27T09:09:09Z</time>
      </trkpt>
      <trkpt lat="45.67333" lon="5.27247">
        <ele>302.8</ele>
        <time>2025-05-27T09:09:10Z</time>
      </trkpt>
      <trkpt lat="45.67336" lon="5.27253">
        <ele>302.8</ele>
        <time>2025-05-27T09:09:11Z</time>
      </trkpt>
      <trkpt lat="45.67339" lon="5.27255">
        <ele>303</ele>
        <time>2025-05-27T09:09:12Z</time>
      </trkpt>
      <trkpt lat="45.67344" lon="5.27257">
        <ele>302.6</ele>
        <time>2025-05-27T09:09:13Z</time>
      </trkpt>
      <trkpt lat="45.67347" lon="5.27257">
        <ele>302.6</ele>
        <time>2025-05-27T09:09:14Z</time>
      </trkpt>
      <trkpt lat="45.6735" lon="5.27255">
        <ele>303.6</ele>
        <time>2025-05-27T09:09:15Z</time>
      </trkpt>
      <trkpt lat="45.67355" lon="5.27254">
        <ele>303.6</ele>
        <time>2025-05-27T09:09:16Z</time>
      </trkpt>
      <trkpt lat="45.67357" lon="5.27257">
        <ele>304.4</ele>
        <time>2025-05-27T09:09:17Z</time>
      </trkpt>
      <trkpt lat="45.67361" lon="5.27255">
        <ele>304.4</ele>
        <time>2025-05-27T09:09:18Z</time>
      </trkpt>
      <trkpt lat="45.67366" lon="5.27259">
        <ele>304.4</ele>
        <time>2025-05-27T09:09:19Z</time>
      </trkpt>
      <trkpt lat="45.67368" lon="5.27258">
        <ele>304.4</ele>
        <time>2025-05-27T09:09:20Z</time>
      </trkpt>
      <trkpt lat="45.67371" lon="5.27258">
        <ele>304.8</ele>
        <time>2025-05-27T09:09:21Z</time>
      </trkpt>
      <trkpt lat="45.67371" lon="5.27256">
        <ele>304.4</ele>
        <time>2025-05-27T09:09:22Z</time>
      </trkpt>
      <trkpt lat="45.67373" lon="5.2726">
        <ele>305.4</ele>
        <time>2025-05-27T09:09:23Z</time>
      </trkpt>
      <trkpt lat="45.67376" lon="5.27262">
        <ele>305.4</ele>
        <time>2025-05-27T09:09:24Z</time>
      </trkpt>
      <trkpt lat="45.67378" lon="5.27264">
        <ele>306</ele>
        <time>2025-05-27T09:09:25Z</time>
      </trkpt>
      <trkpt lat="45.67381" lon="5.27266">
        <ele>306.4</ele>
        <time>2025-05-27T09:09:26Z</time>
      </trkpt>
      <trkpt lat="45.67382" lon="5.27268">
        <ele>306.4</ele>
        <time>2025-05-27T09:09:27Z</time>
      </trkpt>
      <trkpt lat="45.67385" lon="5.27268">
        <ele>306.6</ele>
        <time>2025-05-27T09:09:28Z</time>
      </trkpt>
      <trkpt lat="45.67389" lon="5.2727">
        <ele>306.6</ele>
        <time>2025-05-27T09:09:29Z</time>
      </trkpt>
      <trkpt lat="45.67391" lon="5.27272">
        <ele>306.6</ele>
        <time>2025-05-27T09:09:30Z</time>
      </trkpt>
      <trkpt lat="45.67395" lon="5.27275">
        <ele>306.6</ele>
        <time>2025-05-27T09:09:31Z</time>
      </trkpt>
      <trkpt lat="45.67398" lon="5.27278">
        <ele>306.6</ele>
        <time>2025-05-27T09:09:32Z</time>
      </trkpt>
      <trkpt lat="45.67402" lon="5.27281">
        <ele>306.6</ele>
        <time>2025-05-27T09:09:33Z</time>
      </trkpt>
      <trkpt lat="45.67403" lon="5.27281">
        <ele>306.6</ele>
        <time>2025-05-27T09:09:34Z</time>
      </trkpt>
      <trkpt lat="45.67408" lon="5.27285">
        <ele>306.8</ele>
        <time>2025-05-27T09:09:35Z</time>
      </trkpt>
      <trkpt lat="45.67411" lon="5.27288">
        <ele>307.2</ele>
        <time>2025-05-27T09:09:36Z</time>
      </trkpt>
      <trkpt lat="45.67415" lon="5.27292">
        <ele>307.2</ele>
        <time>2025-05-27T09:09:37Z</time>
      </trkpt>
      <trkpt lat="45.67418" lon="5.27296">
        <ele>307.2</ele>
        <time>2025-05-27T09:09:38Z</time>
      </trkpt>
      <trkpt lat="45.67421" lon="5.273">
        <ele>307.4</ele>
        <time>2025-05-27T09:09:39Z</time>
      </trkpt>
      <trkpt lat="45.67424" lon="5.27303">
        <ele>307.6</ele>
        <time>2025-05-27T09:09:40Z</time>
      </trkpt>
      <trkpt lat="45.67426" lon="5.27306">
        <ele>307.4</ele>
        <time>2025-05-27T09:09:41Z</time>
      </trkpt>
      <trkpt lat="45.67428" lon="5.2731">
        <ele>307.4</ele>
        <time>2025-05-27T09:09:42Z</time>
      </trkpt>
      <trkpt lat="45.67432" lon="5.27313">
        <ele>307.4</ele>
        <time>2025-05-27T09:09:43Z</time>
      </trkpt>
      <trkpt lat="45.67434" lon="5.27316">
        <ele>307.4</ele>
        <time>2025-05-27T09:09:44Z</time>
      </trkpt>
      <trkpt lat="45.67437" lon="5.27319">
        <ele>307.8</ele>
        <time>2025-05-27T09:09:45Z</time>
      </trkpt>
      <trkpt lat="45.6744" lon="5.27322">
        <ele>307.4</ele>
        <time>2025-05-27T09:09:46Z</time>
      </trkpt>
      <trkpt lat="45.67444" lon="5.27325">
        <ele>307.4</ele>
        <time>2025-05-27T09:09:47Z</time>
      </trkpt>
      <trkpt lat="45.67447" lon="5.27328">
        <ele>308</ele>
        <time>2025-05-27T09:09:48Z</time>
      </trkpt>
      <trkpt lat="45.67449" lon="5.2733">
        <ele>308.4</ele>
        <time>2025-05-27T09:09:49Z</time>
      </trkpt>
      <trkpt lat="45.67452" lon="5.27333">
        <ele>308.6</ele>
        <time>2025-05-27T09:09:50Z</time>
      </trkpt>
      <trkpt lat="45.67454" lon="5.27336">
        <ele>308.6</ele>
        <time>2025-05-27T09:09:51Z</time>
      </trkpt>
      <trkpt lat="45.67456" lon="5.27339">
        <ele>309</ele>
        <time>2025-05-27T09:09:52Z</time>
      </trkpt>
      <trkpt lat="45.67458" lon="5.27342">
        <ele>309.8</ele>
        <time>2025-05-27T09:09:53Z</time>
      </trkpt>
      <trkpt lat="45.67459" lon="5.27345">
        <ele>309.8</ele>
        <time>2025-05-27T09:09:54Z</time>
      </trkpt>
      <trkpt lat="45.67459" lon="5.27347">
        <ele>310</ele>
        <time>2025-05-27T09:09:55Z</time>
      </trkpt>
      <trkpt lat="45.6746" lon="5.2735">
        <ele>310</ele>
        <time>2025-05-27T09:09:56Z</time>
      </trkpt>
      <trkpt lat="45.67461" lon="5.27351">
        <ele>310</ele>
        <time>2025-05-27T09:09:57Z</time>
      </trkpt>
      <trkpt lat="45.67463" lon="5.27353">
        <ele>310.4</ele>
        <time>2025-05-27T09:09:58Z</time>
      </trkpt>
      <trkpt lat="45.67465" lon="5.27353">
        <ele>310.8</ele>
        <time>2025-05-27T09:09:59Z</time>
      </trkpt>
      <trkpt lat="45.67467" lon="5.27354">
        <ele>310.6</ele>
        <time>2025-05-27T09:10:00Z</time>
      </trkpt>
      <trkpt lat="45.6747" lon="5.27355">
        <ele>310.6</ele>
        <time>2025-05-27T09:10:01Z</time>
      </trkpt>
      <trkpt lat="45.67473" lon="5.27356">
        <ele>310.6</ele>
        <time>2025-05-27T09:10:02Z</time>
      </trkpt>
      <trkpt lat="45.67476" lon="5.27357">
        <ele>310.6</ele>
        <time>2025-05-27T09:10:03Z</time>
      </trkpt>
      <trkpt lat="45.67479" lon="5.27358">
        <ele>310.6</ele>
        <time>2025-05-27T09:10:04Z</time>
      </trkpt>
      <trkpt lat="45.67482" lon="5.27359">
        <ele>311</ele>
        <time>2025-05-27T09:10:05Z</time>
      </trkpt>
      <trkpt lat="45.67484" lon="5.27359">
        <ele>311</ele>
        <time>2025-05-27T09:10:06Z</time>
      </trkpt>
      <trkpt lat="45.67487" lon="5.27359">
        <ele>310.6</ele>
        <time>2025-05-27T09:10:07Z</time>
      </trkpt>
      <trkpt lat="45.6749" lon="5.27359">
        <ele>310.6</ele>
        <time>2025-05-27T09:10:08Z</time>
      </trkpt>
      <trkpt lat="45.67494" lon="5.2736">
        <ele>311</ele>
        <time>2025-05-27T09:10:09Z</time>
      </trkpt>
      <trkpt lat="45.67497" lon="5.27361">
        <ele>310.6</ele>
        <time>2025-05-27T09:10:10Z</time>
      </trkpt>
      <trkpt lat="45.675" lon="5.27363">
        <ele>310.6</ele>
        <time>2025-05-27T09:10:11Z</time>
      </trkpt>
      <trkpt lat="45.67504" lon="5.27364">
        <ele>310.6</ele>
        <time>2025-05-27T09:10:12Z</time>
      </trkpt>
      <trkpt lat="45.67509" lon="5.27364">
        <ele>310.6</ele>
        <time>2025-05-27T09:10:13Z</time>
      </trkpt>
      <trkpt lat="45.67512" lon="5.27365">
        <ele>309.8</ele>
        <time>2025-05-27T09:10:14Z</time>
      </trkpt>
      <trkpt lat="45.67517" lon="5.27364">
        <ele>309.2</ele>
        <time>2025-05-27T09:10:15Z</time>
      </trkpt>
      <trkpt lat="45.67521" lon="5.27366">
        <ele>308.6</ele>
        <time>2025-05-27T09:10:16Z</time>
      </trkpt>
      <trkpt lat="45.67524" lon="5.27364">
        <ele>308.6</ele>
        <time>2025-05-27T09:10:17Z</time>
      </trkpt>
      <trkpt lat="45.67529" lon="5.27364">
        <ele>308.6</ele>
        <time>2025-05-27T09:10:18Z</time>
      </trkpt>
      <trkpt lat="45.67533" lon="5.27364">
        <ele>308.2</ele>
        <time>2025-05-27T09:10:19Z</time>
      </trkpt>
      <trkpt lat="45.67537" lon="5.27361">
        <ele>308</ele>
        <time>2025-05-27T09:10:20Z</time>
      </trkpt>
      <trkpt lat="45.67541" lon="5.27358">
        <ele>307.4</ele>
        <time>2025-05-27T09:10:21Z</time>
      </trkpt>
      <trkpt lat="45.67546" lon="5.27356">
        <ele>307.8</ele>
        <time>2025-05-27T09:10:22Z</time>
      </trkpt>
      <trkpt lat="45.6755" lon="5.27355">
        <ele>307.8</ele>
        <time>2025-05-27T09:10:23Z</time>
      </trkpt>
      <trkpt lat="45.67554" lon="5.27354">
        <ele>306.8</ele>
        <time>2025-05-27T09:10:24Z</time>
      </trkpt>
      <trkpt lat="45.67557" lon="5.27351">
        <ele>306.8</ele>
        <time>2025-05-27T09:10:25Z</time>
      </trkpt>
      <trkpt lat="45.67561" lon="5.27345">
        <ele>308</ele>
        <time>2025-05-27T09:10:26Z</time>
      </trkpt>
      <trkpt lat="45.67564" lon="5.27341">
        <ele>306.2</ele>
        <time>2025-05-27T09:10:27Z</time>
      </trkpt>
      <trkpt lat="45.67568" lon="5.27335">
        <ele>305.8</ele>
        <time>2025-05-27T09:10:28Z</time>
      </trkpt>
      <trkpt lat="45.67572" lon="5.2733">
        <ele>305.8</ele>
        <time>2025-05-27T09:10:29Z</time>
      </trkpt>
      <trkpt lat="45.67577" lon="5.27325">
        <ele>305.8</ele>
        <time>2025-05-27T09:10:30Z</time>
      </trkpt>
      <trkpt lat="45.67581" lon="5.27321">
        <ele>305.4</ele>
        <time>2025-05-27T09:10:31Z</time>
      </trkpt>
      <trkpt lat="45.67585" lon="5.27316">
        <ele>305.4</ele>
        <time>2025-05-27T09:10:32Z</time>
      </trkpt>
      <trkpt lat="45.6759" lon="5.27311">
        <ele>305</ele>
        <time>2025-05-27T09:10:33Z</time>
      </trkpt>
      <trkpt lat="45.67594" lon="5.27306">
        <ele>304.4</ele>
        <time>2025-05-27T09:10:34Z</time>
      </trkpt>
      <trkpt lat="45.67599" lon="5.27303">
        <ele>304</ele>
        <time>2025-05-27T09:10:35Z</time>
      </trkpt>
      <trkpt lat="45.67604" lon="5.27299">
        <ele>304</ele>
        <time>2025-05-27T09:10:36Z</time>
      </trkpt>
      <trkpt lat="45.67609" lon="5.27294">
        <ele>304</ele>
        <time>2025-05-27T09:10:37Z</time>
      </trkpt>
      <trkpt lat="45.67613" lon="5.2729">
        <ele>304</ele>
        <time>2025-05-27T09:10:38Z</time>
      </trkpt>
      <trkpt lat="45.67619" lon="5.27287">
        <ele>303.6</ele>
        <time>2025-05-27T09:10:39Z</time>
      </trkpt>
      <trkpt lat="45.67623" lon="5.27284">
        <ele>304.2</ele>
        <time>2025-05-27T09:10:40Z</time>
      </trkpt>
      <trkpt lat="45.67627" lon="5.27281">
        <ele>304.2</ele>
        <time>2025-05-27T09:10:41Z</time>
      </trkpt>
      <trkpt lat="45.67632" lon="5.27279">
        <ele>304.2</ele>
        <time>2025-05-27T09:10:42Z</time>
      </trkpt>
      <trkpt lat="45.67635" lon="5.27276">
        <ele>304.2</ele>
        <time>2025-05-27T09:10:43Z</time>
      </trkpt>
      <trkpt lat="45.67638" lon="5.2727">
        <ele>304.6</ele>
        <time>2025-05-27T09:10:44Z</time>
      </trkpt>
      <trkpt lat="45.67642" lon="5.27267">
        <ele>304.6</ele>
        <time>2025-05-27T09:10:45Z</time>
      </trkpt>
      <trkpt lat="45.67646" lon="5.27266">
        <ele>305</ele>
        <time>2025-05-27T09:10:46Z</time>
      </trkpt>
      <trkpt lat="45.67651" lon="5.27262">
        <ele>305</ele>
        <time>2025-05-27T09:10:47Z</time>
      </trkpt>
      <trkpt lat="45.67656" lon="5.2726">
        <ele>304.6</ele>
        <time>2025-05-27T09:10:48Z</time>
      </trkpt>
      <trkpt lat="45.6766" lon="5.27256">
        <ele>305.2</ele>
        <time>2025-05-27T09:10:49Z</time>
      </trkpt>
      <trkpt lat="45.67665" lon="5.27252">
        <ele>305</ele>
        <time>2025-05-27T09:10:50Z</time>
      </trkpt>
      <trkpt lat="45.67669" lon="5.27249">
        <ele>305.4</ele>
        <time>2025-05-27T09:10:51Z</time>
      </trkpt>
      <trkpt lat="45.67672" lon="5.27246">
        <ele>305.6</ele>
        <time>2025-05-27T09:10:52Z</time>
      </trkpt>
      <trkpt lat="45.67675" lon="5.27244">
        <ele>305.2</ele>
        <time>2025-05-27T09:10:53Z</time>
      </trkpt>
      <trkpt lat="45.67679" lon="5.27241">
        <ele>305.6</ele>
        <time>2025-05-27T09:10:54Z</time>
      </trkpt>
      <trkpt lat="45.67691" lon="5.27235">
        <ele>305.2</ele>
        <time>2025-05-27T09:10:55Z</time>
      </trkpt>
      <trkpt lat="45.67696" lon="5.27234">
        <ele>305</ele>
        <time>2025-05-27T09:10:56Z</time>
      </trkpt>
      <trkpt lat="45.67701" lon="5.27234">
        <ele>305</ele>
        <time>2025-05-27T09:10:57Z</time>
      </trkpt>
      <trkpt lat="45.67707" lon="5.27231">
        <ele>305</ele>
        <time>2025-05-27T09:10:58Z</time>
      </trkpt>
      <trkpt lat="45.67711" lon="5.2723">
        <ele>305.6</ele>
        <time>2025-05-27T09:10:59Z</time>
      </trkpt>
      <trkpt lat="45.67714" lon="5.27227">
        <ele>305.6</ele>
        <time>2025-05-27T09:11:00Z</time>
      </trkpt>
      <trkpt lat="45.67719" lon="5.27227">
        <ele>305.6</ele>
        <time>2025-05-27T09:11:01Z</time>
      </trkpt>
      <trkpt lat="45.67723" lon="5.27224">
        <ele>305.8</ele>
        <time>2025-05-27T09:11:02Z</time>
      </trkpt>
      <trkpt lat="45.67726" lon="5.27224">
        <ele>305.8</ele>
        <time>2025-05-27T09:11:03Z</time>
      </trkpt>
      <trkpt lat="45.67727" lon="5.27224">
        <ele>306</ele>
        <time>2025-05-27T09:11:04Z</time>
      </trkpt>
      <trkpt lat="45.6773" lon="5.27223">
        <ele>306</ele>
        <time>2025-05-27T09:11:05Z</time>
      </trkpt>
      <trkpt lat="45.67729" lon="5.27223">
        <ele>306</ele>
        <time>2025-05-27T09:11:06Z</time>
      </trkpt>
      <trkpt lat="45.67729" lon="5.27223">
        <ele>306</ele>
        <time>2025-05-27T09:11:07Z</time>
      </trkpt>
      <trkpt lat="45.67728" lon="5.27223">
        <ele>306</ele>
        <time>2025-05-27T09:11:08Z</time>
      </trkpt>
      <trkpt lat="45.67728" lon="5.27227">
        <ele>306</ele>
        <time>2025-05-27T09:12:08Z</time>
      </trkpt>
      <trkpt lat="45.67729" lon="5.27226">
        <ele>306.4</ele>
        <time>2025-05-27T09:12:09Z</time>
      </trkpt>
      <trkpt lat="45.67731" lon="5.27224">
        <ele>306.4</ele>
        <time>2025-05-27T09:12:10Z</time>
      </trkpt>
      <trkpt lat="45.67733" lon="5.27223">
        <ele>306</ele>
        <time>2025-05-27T09:12:11Z</time>
      </trkpt>
      <trkpt lat="45.67735" lon="5.27221">
        <ele>306</ele>
        <time>2025-05-27T09:12:12Z</time>
      </trkpt>
      <trkpt lat="45.67737" lon="5.27218">
        <ele>305.8</ele>
        <time>2025-05-27T09:12:13Z</time>
      </trkpt>
      <trkpt lat="45.67739" lon="5.27216">
        <ele>305.6</ele>
        <time>2025-05-27T09:12:14Z</time>
      </trkpt>
      <trkpt lat="45.67742" lon="5.27214">
        <ele>305.6</ele>
        <time>2025-05-27T09:12:15Z</time>
      </trkpt>
      <trkpt lat="45.67746" lon="5.27212">
        <ele>305.6</ele>
        <time>2025-05-27T09:12:16Z</time>
      </trkpt>
      <trkpt lat="45.6775" lon="5.27211">
        <ele>305.6</ele>
        <time>2025-05-27T09:12:17Z</time>
      </trkpt>
      <trkpt lat="45.67755" lon="5.2721">
        <ele>305.6</ele>
        <time>2025-05-27T09:12:18Z</time>
      </trkpt>
      <trkpt lat="45.6776" lon="5.27209">
        <ele>305.6</ele>
        <time>2025-05-27T09:12:19Z</time>
      </trkpt>
      <trkpt lat="45.67764" lon="5.27207">
        <ele>305</ele>
        <time>2025-05-27T09:12:20Z</time>
      </trkpt>
      <trkpt lat="45.67768" lon="5.27205">
        <ele>305.2</ele>
        <time>2025-05-27T09:12:21Z</time>
      </trkpt>
      <trkpt lat="45.67771" lon="5.27203">
        <ele>305.2</ele>
        <time>2025-05-27T09:12:22Z</time>
      </trkpt>
      <trkpt lat="45.67777" lon="5.27197">
        <ele>305.6</ele>
        <time>2025-05-27T09:12:23Z</time>
      </trkpt>
      <trkpt lat="45.67781" lon="5.27195">
        <ele>305.2</ele>
        <time>2025-05-27T09:12:24Z</time>
      </trkpt>
      <trkpt lat="45.67783" lon="5.27193">
        <ele>305.2</ele>
        <time>2025-05-27T09:12:25Z</time>
      </trkpt>
      <trkpt lat="45.67788" lon="5.27192">
        <ele>305.2</ele>
        <time>2025-05-27T09:12:26Z</time>
      </trkpt>
      <trkpt lat="45.67793" lon="5.27191">
        <ele>304.8</ele>
        <time>2025-05-27T09:12:27Z</time>
      </trkpt>
      <trkpt lat="45.67797" lon="5.27187">
        <ele>304.8</ele>
        <time>2025-05-27T09:12:28Z</time>
      </trkpt>
      <trkpt lat="45.67802" lon="5.27184">
        <ele>304.4</ele>
        <time>2025-05-27T09:12:29Z</time>
      </trkpt>
      <trkpt lat="45.67808" lon="5.27183">
        <ele>304</ele>
        <time>2025-05-27T09:12:30Z</time>
      </trkpt>
      <trkpt lat="45.67814" lon="5.27181">
        <ele>305</ele>
        <time>2025-05-27T09:12:31Z</time>
      </trkpt>
      <trkpt lat="45.67818" lon="5.27181">
        <ele>304.4</ele>
        <time>2025-05-27T09:12:32Z</time>
      </trkpt>
      <trkpt lat="45.67825" lon="5.2718">
        <ele>303.4</ele>
        <time>2025-05-27T09:12:33Z</time>
      </trkpt>
      <trkpt lat="45.67831" lon="5.27177">
        <ele>303.4</ele>
        <time>2025-05-27T09:12:34Z</time>
      </trkpt>
      <trkpt lat="45.67836" lon="5.2717">
        <ele>303.4</ele>
        <time>2025-05-27T09:12:35Z</time>
      </trkpt>
      <trkpt lat="45.67841" lon="5.27169">
        <ele>303.4</ele>
        <time>2025-05-27T09:12:36Z</time>
      </trkpt>
      <trkpt lat="45.67847" lon="5.27168">
        <ele>303.4</ele>
        <time>2025-05-27T09:12:37Z</time>
      </trkpt>
      <trkpt lat="45.67854" lon="5.2717">
        <ele>303</ele>
        <time>2025-05-27T09:12:38Z</time>
      </trkpt>
      <trkpt lat="45.6786" lon="5.27172">
        <ele>302.6</ele>
        <time>2025-05-27T09:12:39Z</time>
      </trkpt>
      <trkpt lat="45.67867" lon="5.27171">
        <ele>302.6</ele>
        <time>2025-05-27T09:12:40Z</time>
      </trkpt>
      <trkpt lat="45.67873" lon="5.27171">
        <ele>302.6</ele>
        <time>2025-05-27T09:12:41Z</time>
      </trkpt>
      <trkpt lat="45.67878" lon="5.2717">
        <ele>302.8</ele>
        <time>2025-05-27T09:12:42Z</time>
      </trkpt>
      <trkpt lat="45.67885" lon="5.2717">
        <ele>303.2</ele>
        <time>2025-05-27T09:12:43Z</time>
      </trkpt>
      <trkpt lat="45.67891" lon="5.27168">
        <ele>303.2</ele>
        <time>2025-05-27T09:12:44Z</time>
      </trkpt>
      <trkpt lat="45.67895" lon="5.2717">
        <ele>303.2</ele>
        <time>2025-05-27T09:12:45Z</time>
      </trkpt>
      <trkpt lat="45.67899" lon="5.27169">
        <ele>303.2</ele>
        <time>2025-05-27T09:12:46Z</time>
      </trkpt>
      <trkpt lat="45.67903" lon="5.27164">
        <ele>303.2</ele>
        <time>2025-05-27T09:12:47Z</time>
      </trkpt>
      <trkpt lat="45.67907" lon="5.27163">
        <ele>303.4</ele>
        <time>2025-05-27T09:12:48Z</time>
      </trkpt>
      <trkpt lat="45.67911" lon="5.27159">
        <ele>303.4</ele>
        <time>2025-05-27T09:12:49Z</time>
      </trkpt>
      <trkpt lat="45.67915" lon="5.27157">
        <ele>303.4</ele>
        <time>2025-05-27T09:12:50Z</time>
      </trkpt>
      <trkpt lat="45.6792" lon="5.27155">
        <ele>303.2</ele>
        <time>2025-05-27T09:12:51Z</time>
      </trkpt>
      <trkpt lat="45.67924" lon="5.27151">
        <ele>303.2</ele>
        <time>2025-05-27T09:12:52Z</time>
      </trkpt>
      <trkpt lat="45.67928" lon="5.27151">
        <ele>303.2</ele>
        <time>2025-05-27T09:12:53Z</time>
      </trkpt>
      <trkpt lat="45.67933" lon="5.27148">
        <ele>303.2</ele>
        <time>2025-05-27T09:12:54Z</time>
      </trkpt>
      <trkpt lat="45.67937" lon="5.27146">
        <ele>303.2</ele>
        <time>2025-05-27T09:12:55Z</time>
      </trkpt>
      <trkpt lat="45.67941" lon="5.27145">
        <ele>303.2</ele>
        <time>2025-05-27T09:12:56Z</time>
      </trkpt>
      <trkpt lat="45.67946" lon="5.2714">
        <ele>303.6</ele>
        <time>2025-05-27T09:12:57Z</time>
      </trkpt>
      <trkpt lat="45.67951" lon="5.27137">
        <ele>303.6</ele>
        <time>2025-05-27T09:12:58Z</time>
      </trkpt>
      <trkpt lat="45.67953" lon="5.27132">
        <ele>303</ele>
        <time>2025-05-27T09:12:59Z</time>
      </trkpt>
      <trkpt lat="45.6796" lon="5.27128">
        <ele>303</ele>
        <time>2025-05-27T09:13:00Z</time>
      </trkpt>
      <trkpt lat="45.67964" lon="5.27125">
        <ele>302.8</ele>
        <time>2025-05-27T09:13:01Z</time>
      </trkpt>
      <trkpt lat="45.67968" lon="5.27121">
        <ele>302.8</ele>
        <time>2025-05-27T09:13:02Z</time>
      </trkpt>
      <trkpt lat="45.67973" lon="5.27121">
        <ele>302.8</ele>
        <time>2025-05-27T09:13:03Z</time>
      </trkpt>
      <trkpt lat="45.67979" lon="5.27118">
        <ele>302.8</ele>
        <time>2025-05-27T09:13:04Z</time>
      </trkpt>
      <trkpt lat="45.67983" lon="5.27115">
        <ele>302.8</ele>
        <time>2025-05-27T09:13:05Z</time>
      </trkpt>
      <trkpt lat="45.67987" lon="5.27112">
        <ele>302.4</ele>
        <time>2025-05-27T09:13:06Z</time>
      </trkpt>
      <trkpt lat="45.67994" lon="5.27111">
        <ele>302.4</ele>
        <time>2025-05-27T09:13:07Z</time>
      </trkpt>
      <trkpt lat="45.67998" lon="5.27108">
        <ele>303</ele>
        <time>2025-05-27T09:13:08Z</time>
      </trkpt>
      <trkpt lat="45.68003" lon="5.27103">
        <ele>303</ele>
        <time>2025-05-27T09:13:09Z</time>
      </trkpt>
      <trkpt lat="45.68006" lon="5.27097">
        <ele>303</ele>
        <time>2025-05-27T09:13:10Z</time>
      </trkpt>
      <trkpt lat="45.6801" lon="5.27093">
        <ele>303</ele>
        <time>2025-05-27T09:13:11Z</time>
      </trkpt>
      <trkpt lat="45.68015" lon="5.27089">
        <ele>303</ele>
        <time>2025-05-27T09:13:12Z</time>
      </trkpt>
      <trkpt lat="45.68026" lon="5.27104">
        <ele>303</ele>
        <time>2025-05-27T09:13:13Z</time>
      </trkpt>
      <trkpt lat="45.68031" lon="5.27101">
        <ele>303</ele>
        <time>2025-05-27T09:13:14Z</time>
      </trkpt>
      <trkpt lat="45.68037" lon="5.27101">
        <ele>303.2</ele>
        <time>2025-05-27T09:13:15Z</time>
      </trkpt>
      <trkpt lat="45.68041" lon="5.27098">
        <ele>303.2</ele>
        <time>2025-05-27T09:13:16Z</time>
      </trkpt>
      <trkpt lat="45.68046" lon="5.27096">
        <ele>303.2</ele>
        <time>2025-05-27T09:13:17Z</time>
      </trkpt>
      <trkpt lat="45.68051" lon="5.27094">
        <ele>303</ele>
        <time>2025-05-27T09:13:18Z</time>
      </trkpt>
      <trkpt lat="45.68056" lon="5.27093">
        <ele>303</ele>
        <time>2025-05-27T09:13:19Z</time>
      </trkpt>
      <trkpt lat="45.68062" lon="5.2709">
        <ele>303</ele>
        <time>2025-05-27T09:13:20Z</time>
      </trkpt>
      <trkpt lat="45.68067" lon="5.27088">
        <ele>303</ele>
        <time>2025-05-27T09:13:21Z</time>
      </trkpt>
      <trkpt lat="45.68072" lon="5.27085">
        <ele>303.2</ele>
        <time>2025-05-27T09:13:22Z</time>
      </trkpt>
      <trkpt lat="45.68077" lon="5.27083">
        <ele>303.2</ele>
        <time>2025-05-27T09:13:23Z</time>
      </trkpt>
      <trkpt lat="45.68082" lon="5.27081">
        <ele>303</ele>
        <time>2025-05-27T09:13:24Z</time>
      </trkpt>
      <trkpt lat="45.68088" lon="5.27081">
        <ele>303.6</ele>
        <time>2025-05-27T09:13:25Z</time>
      </trkpt>
      <trkpt lat="45.68093" lon="5.27081">
        <ele>303</ele>
        <time>2025-05-27T09:13:26Z</time>
      </trkpt>
      <trkpt lat="45.68097" lon="5.2708">
        <ele>303</ele>
        <time>2025-05-27T09:13:27Z</time>
      </trkpt>
      <trkpt lat="45.68103" lon="5.27078">
        <ele>303.2</ele>
        <time>2025-05-27T09:13:28Z</time>
      </trkpt>
      <trkpt lat="45.68107" lon="5.27077">
        <ele>303.2</ele>
        <time>2025-05-27T09:13:29Z</time>
      </trkpt>
      <trkpt lat="45.68112" lon="5.27075">
        <ele>303.4</ele>
        <time>2025-05-27T09:13:30Z</time>
      </trkpt>
      <trkpt lat="45.68117" lon="5.27074">
        <ele>303</ele>
        <time>2025-05-27T09:13:31Z</time>
      </trkpt>
      <trkpt lat="45.68122" lon="5.27072">
        <ele>303</ele>
        <time>2025-05-27T09:13:32Z</time>
      </trkpt>
      <trkpt lat="45.68125" lon="5.2707">
        <ele>303</ele>
        <time>2025-05-27T09:13:33Z</time>
      </trkpt>
      <trkpt lat="45.68129" lon="5.27072">
        <ele>303</ele>
        <time>2025-05-27T09:13:34Z</time>
      </trkpt>
      <trkpt lat="45.68135" lon="5.27068">
        <ele>303.4</ele>
        <time>2025-05-27T09:13:35Z</time>
      </trkpt>
      <trkpt lat="45.6814" lon="5.27067">
        <ele>303</ele>
        <time>2025-05-27T09:13:36Z</time>
      </trkpt>
      <trkpt lat="45.68146" lon="5.27065">
        <ele>302.4</ele>
        <time>2025-05-27T09:13:37Z</time>
      </trkpt>
      <trkpt lat="45.68148" lon="5.27062">
        <ele>302.4</ele>
        <time>2025-05-27T09:13:38Z</time>
      </trkpt>
      <trkpt lat="45.68153" lon="5.27059">
        <ele>302.4</ele>
        <time>2025-05-27T09:13:39Z</time>
      </trkpt>
      <trkpt lat="45.68158" lon="5.27061">
        <ele>302.4</ele>
        <time>2025-05-27T09:13:40Z</time>
      </trkpt>
      <trkpt lat="45.68164" lon="5.27062">
        <ele>302.4</ele>
        <time>2025-05-27T09:13:41Z</time>
      </trkpt>
      <trkpt lat="45.6817" lon="5.27061">
        <ele>302.6</ele>
        <time>2025-05-27T09:13:42Z</time>
      </trkpt>
      <trkpt lat="45.68175" lon="5.27058">
        <ele>302.8</ele>
        <time>2025-05-27T09:13:43Z</time>
      </trkpt>
      <trkpt lat="45.68178" lon="5.27053">
        <ele>302.6</ele>
        <time>2025-05-27T09:13:44Z</time>
      </trkpt>
      <trkpt lat="45.68183" lon="5.27049">
        <ele>303.4</ele>
        <time>2025-05-27T09:13:45Z</time>
      </trkpt>
      <trkpt lat="45.68189" lon="5.27049">
        <ele>303</ele>
        <time>2025-05-27T09:13:46Z</time>
      </trkpt>
      <trkpt lat="45.68194" lon="5.27045">
        <ele>303.2</ele>
        <time>2025-05-27T09:13:47Z</time>
      </trkpt>
      <trkpt lat="45.68199" lon="5.27042">
        <ele>305.2</ele>
        <time>2025-05-27T09:13:48Z</time>
      </trkpt>
      <trkpt lat="45.68203" lon="5.2704">
        <ele>304.4</ele>
        <time>2025-05-27T09:13:49Z</time>
      </trkpt>
      <trkpt lat="45.68207" lon="5.27041">
        <ele>303.6</ele>
        <time>2025-05-27T09:13:50Z</time>
      </trkpt>
      <trkpt lat="45.68213" lon="5.27042">
        <ele>304</ele>
        <time>2025-05-27T09:13:51Z</time>
      </trkpt>
      <trkpt lat="45.68218" lon="5.27041">
        <ele>304</ele>
        <time>2025-05-27T09:13:52Z</time>
      </trkpt>
      <trkpt lat="45.68222" lon="5.27041">
        <ele>303.2</ele>
        <time>2025-05-27T09:13:53Z</time>
      </trkpt>
      <trkpt lat="45.68225" lon="5.27044">
        <ele>303.2</ele>
        <time>2025-05-27T09:13:54Z</time>
      </trkpt>
      <trkpt lat="45.68229" lon="5.27043">
        <ele>302.8</ele>
        <time>2025-05-27T09:13:55Z</time>
      </trkpt>
      <trkpt lat="45.68233" lon="5.27042">
        <ele>302.4</ele>
        <time>2025-05-27T09:13:56Z</time>
      </trkpt>
      <trkpt lat="45.68238" lon="5.27041">
        <ele>302.2</ele>
        <time>2025-05-27T09:13:57Z</time>
      </trkpt>
      <trkpt lat="45.68243" lon="5.27039">
        <ele>302.2</ele>
        <time>2025-05-27T09:13:58Z</time>
      </trkpt>
      <trkpt lat="45.68246" lon="5.27037">
        <ele>302.2</ele>
        <time>2025-05-27T09:13:59Z</time>
      </trkpt>
      <trkpt lat="45.6825" lon="5.27034">
        <ele>302.4</ele>
        <time>2025-05-27T09:14:00Z</time>
      </trkpt>
      <trkpt lat="45.68256" lon="5.27036">
        <ele>302.4</ele>
        <time>2025-05-27T09:14:01Z</time>
      </trkpt>
      <trkpt lat="45.6826" lon="5.27034">
        <ele>302.4</ele>
        <time>2025-05-27T09:14:02Z</time>
      </trkpt>
      <trkpt lat="45.68264" lon="5.27035">
        <ele>303</ele>
        <time>2025-05-27T09:14:03Z</time>
      </trkpt>
      <trkpt lat="45.68269" lon="5.27035">
        <ele>303</ele>
        <time>2025-05-27T09:14:04Z</time>
      </trkpt>
      <trkpt lat="45.68274" lon="5.27035">
        <ele>303.2</ele>
        <time>2025-05-27T09:14:05Z</time>
      </trkpt>
      <trkpt lat="45.68279" lon="5.27036">
        <ele>303</ele>
        <time>2025-05-27T09:14:06Z</time>
      </trkpt>
      <trkpt lat="45.68284" lon="5.27035">
        <ele>303</ele>
        <time>2025-05-27T09:14:07Z</time>
      </trkpt>
      <trkpt lat="45.68289" lon="5.27035">
        <ele>303.6</ele>
        <time>2025-05-27T09:14:08Z</time>
      </trkpt>
      <trkpt lat="45.68292" lon="5.27035">
        <ele>303.6</ele>
        <time>2025-05-27T09:14:09Z</time>
      </trkpt>
      <trkpt lat="45.68298" lon="5.27034">
        <ele>303.6</ele>
        <time>2025-05-27T09:14:10Z</time>
      </trkpt>
      <trkpt lat="45.68302" lon="5.27032">
        <ele>303.2</ele>
        <time>2025-05-27T09:14:11Z</time>
      </trkpt>
      <trkpt lat="45.68305" lon="5.27031">
        <ele>303.2</ele>
        <time>2025-05-27T09:14:12Z</time>
      </trkpt>
      <trkpt lat="45.68307" lon="5.27031">
        <ele>303.4</ele>
        <time>2025-05-27T09:14:13Z</time>
      </trkpt>
      <trkpt lat="45.68311" lon="5.27031">
        <ele>303</ele>
        <time>2025-05-27T09:14:14Z</time>
      </trkpt>
      <trkpt lat="45.68316" lon="5.2703">
        <ele>302.2</ele>
        <time>2025-05-27T09:14:15Z</time>
      </trkpt>
      <trkpt lat="45.6832" lon="5.27029">
        <ele>303</ele>
        <time>2025-05-27T09:14:16Z</time>
      </trkpt>
      <trkpt lat="45.68327" lon="5.2703">
        <ele>303</ele>
        <time>2025-05-27T09:14:17Z</time>
      </trkpt>
      <trkpt lat="45.68331" lon="5.27025">
        <ele>303</ele>
        <time>2025-05-27T09:14:18Z</time>
      </trkpt>
      <trkpt lat="45.68336" lon="5.27024">
        <ele>303</ele>
        <time>2025-05-27T09:14:19Z</time>
      </trkpt>
      <trkpt lat="45.6834" lon="5.27021">
        <ele>302.4</ele>
        <time>2025-05-27T09:14:20Z</time>
      </trkpt>
      <trkpt lat="45.68343" lon="5.27019">
        <ele>301.8</ele>
        <time>2025-05-27T09:14:21Z</time>
      </trkpt>
      <trkpt lat="45.68347" lon="5.27018">
        <ele>301.2</ele>
        <time>2025-05-27T09:14:22Z</time>
      </trkpt>
      <trkpt lat="45.68352" lon="5.27018">
        <ele>302</ele>
        <time>2025-05-27T09:14:23Z</time>
      </trkpt>
      <trkpt lat="45.68358" lon="5.27019">
        <ele>302.6</ele>
        <time>2025-05-27T09:14:24Z</time>
      </trkpt>
      <trkpt lat="45.68363" lon="5.27017">
        <ele>302.6</ele>
        <time>2025-05-27T09:14:25Z</time>
      </trkpt>
      <trkpt lat="45.68367" lon="5.27018">
        <ele>302.6</ele>
        <time>2025-05-27T09:14:26Z</time>
      </trkpt>
      <trkpt lat="45.68372" lon="5.27018">
        <ele>302.8</ele>
        <time>2025-05-27T09:14:27Z</time>
      </trkpt>
      <trkpt lat="45.68376" lon="5.27018">
        <ele>302.8</ele>
        <time>2025-05-27T09:14:28Z</time>
      </trkpt>
      <trkpt lat="45.6838" lon="5.27019">
        <ele>302.2</ele>
        <time>2025-05-27T09:14:29Z</time>
      </trkpt>
      <trkpt lat="45.68385" lon="5.2702">
        <ele>302.4</ele>
        <time>2025-05-27T09:14:30Z</time>
      </trkpt>
      <trkpt lat="45.68389" lon="5.27022">
        <ele>302.6</ele>
        <time>2025-05-27T09:14:31Z</time>
      </trkpt>
      <trkpt lat="45.68394" lon="5.27024">
        <ele>302.6</ele>
        <time>2025-05-27T09:14:32Z</time>
      </trkpt>
      <trkpt lat="45.68397" lon="5.27025">
        <ele>303.2</ele>
        <time>2025-05-27T09:14:33Z</time>
      </trkpt>
      <trkpt lat="45.68401" lon="5.27027">
        <ele>302.6</ele>
        <time>2025-05-27T09:14:34Z</time>
      </trkpt>
      <trkpt lat="45.68405" lon="5.27029">
        <ele>302.6</ele>
        <time>2025-05-27T09:14:35Z</time>
      </trkpt>
      <trkpt lat="45.6841" lon="5.27032">
        <ele>302.6</ele>
        <time>2025-05-27T09:14:36Z</time>
      </trkpt>
      <trkpt lat="45.68413" lon="5.27032">
        <ele>303</ele>
        <time>2025-05-27T09:14:37Z</time>
      </trkpt>
      <trkpt lat="45.68416" lon="5.27035">
        <ele>303.2</ele>
        <time>2025-05-27T09:14:38Z</time>
      </trkpt>
      <trkpt lat="45.6842" lon="5.27036">
        <ele>303.2</ele>
        <time>2025-05-27T09:14:39Z</time>
      </trkpt>
      <trkpt lat="45.68423" lon="5.27038">
        <ele>303.2</ele>
        <time>2025-05-27T09:14:40Z</time>
      </trkpt>
      <trkpt lat="45.68423" lon="5.27038">
        <ele>303</ele>
        <time>2025-05-27T09:14:41Z</time>
      </trkpt>
      <trkpt lat="45.68427" lon="5.2704">
        <ele>302.8</ele>
        <time>2025-05-27T09:14:42Z</time>
      </trkpt>
      <trkpt lat="45.68431" lon="5.27041">
        <ele>303.2</ele>
        <time>2025-05-27T09:14:43Z</time>
      </trkpt>
      <trkpt lat="45.68435" lon="5.27043">
        <ele>303</ele>
        <time>2025-05-27T09:14:44Z</time>
      </trkpt>
      <trkpt lat="45.6844" lon="5.27044">
        <ele>303</ele>
        <time>2025-05-27T09:14:45Z</time>
      </trkpt>
      <trkpt lat="45.68443" lon="5.27045">
        <ele>303.2</ele>
        <time>2025-05-27T09:14:46Z</time>
      </trkpt>
      <trkpt lat="45.68447" lon="5.27047">
        <ele>303.6</ele>
        <time>2025-05-27T09:14:47Z</time>
      </trkpt>
      <trkpt lat="45.68451" lon="5.27048">
        <ele>304.2</ele>
        <time>2025-05-27T09:14:48Z</time>
      </trkpt>
      <trkpt lat="45.68455" lon="5.2705">
        <ele>304.2</ele>
        <time>2025-05-27T09:14:49Z</time>
      </trkpt>
      <trkpt lat="45.68459" lon="5.27052">
        <ele>304.2</ele>
        <time>2025-05-27T09:14:50Z</time>
      </trkpt>
      <trkpt lat="45.68462" lon="5.27054">
        <ele>303.8</ele>
        <time>2025-05-27T09:14:51Z</time>
      </trkpt>
      <trkpt lat="45.68466" lon="5.27056">
        <ele>303.8</ele>
        <time>2025-05-27T09:14:52Z</time>
      </trkpt>
      <trkpt lat="45.6847" lon="5.27057">
        <ele>303.8</ele>
        <time>2025-05-27T09:14:53Z</time>
      </trkpt>
      <trkpt lat="45.68476" lon="5.27058">
        <ele>303.8</ele>
        <time>2025-05-27T09:14:54Z</time>
      </trkpt>
      <trkpt lat="45.68481" lon="5.27058">
        <ele>303.6</ele>
        <time>2025-05-27T09:14:55Z</time>
      </trkpt>
      <trkpt lat="45.68485" lon="5.27059">
        <ele>303.6</ele>
        <time>2025-05-27T09:14:56Z</time>
      </trkpt>
      <trkpt lat="45.6849" lon="5.2706">
        <ele>303.2</ele>
        <time>2025-05-27T09:14:57Z</time>
      </trkpt>
      <trkpt lat="45.68496" lon="5.27059">
        <ele>302.6</ele>
        <time>2025-05-27T09:14:58Z</time>
      </trkpt>
      <trkpt lat="45.68499" lon="5.2706">
        <ele>302.6</ele>
        <time>2025-05-27T09:14:59Z</time>
      </trkpt>
      <trkpt lat="45.68501" lon="5.27059">
        <ele>302</ele>
        <time>2025-05-27T09:15:00Z</time>
      </trkpt>
      <trkpt lat="45.68505" lon="5.2706">
        <ele>301.2</ele>
        <time>2025-05-27T09:15:01Z</time>
      </trkpt>
      <trkpt lat="45.68507" lon="5.27058">
        <ele>301.4</ele>
        <time>2025-05-27T09:15:02Z</time>
      </trkpt>
      <trkpt lat="45.68513" lon="5.27059">
        <ele>301.8</ele>
        <time>2025-05-27T09:15:03Z</time>
      </trkpt>
      <trkpt lat="45.68517" lon="5.27058">
        <ele>301.8</ele>
        <time>2025-05-27T09:15:04Z</time>
      </trkpt>
      <trkpt lat="45.6852" lon="5.27058">
        <ele>301.8</ele>
        <time>2025-05-27T09:15:05Z</time>
      </trkpt>
      <trkpt lat="45.68524" lon="5.27055">
        <ele>301.8</ele>
        <time>2025-05-27T09:15:06Z</time>
      </trkpt>
      <trkpt lat="45.68529" lon="5.27054">
        <ele>302.4</ele>
        <time>2025-05-27T09:15:07Z</time>
      </trkpt>
      <trkpt lat="45.68533" lon="5.27053">
        <ele>302.4</ele>
        <time>2025-05-27T09:15:08Z</time>
      </trkpt>
      <trkpt lat="45.68539" lon="5.27047">
        <ele>301.2</ele>
        <time>2025-05-27T09:15:09Z</time>
      </trkpt>
      <trkpt lat="45.68543" lon="5.27043">
        <ele>301.8</ele>
        <time>2025-05-27T09:15:10Z</time>
      </trkpt>
      <trkpt lat="45.68546" lon="5.27039">
        <ele>302.8</ele>
        <time>2025-05-27T09:15:11Z</time>
      </trkpt>
      <trkpt lat="45.6855" lon="5.27037">
        <ele>302.8</ele>
        <time>2025-05-27T09:15:12Z</time>
      </trkpt>
      <trkpt lat="45.68555" lon="5.27034">
        <ele>302.8</ele>
        <time>2025-05-27T09:15:13Z</time>
      </trkpt>
      <trkpt lat="45.68554" lon="5.27032">
        <ele>302.8</ele>
        <time>2025-05-27T09:15:14Z</time>
      </trkpt>
      <trkpt lat="45.68556" lon="5.27029">
        <ele>302.8</ele>
        <time>2025-05-27T09:15:15Z</time>
      </trkpt>
      <trkpt lat="45.68563" lon="5.27022">
        <ele>302.8</ele>
        <time>2025-05-27T09:15:16Z</time>
      </trkpt>
      <trkpt lat="45.68565" lon="5.27019">
        <ele>303</ele>
        <time>2025-05-27T09:15:17Z</time>
      </trkpt>
      <trkpt lat="45.68568" lon="5.27015">
        <ele>303</ele>
        <time>2025-05-27T09:15:18Z</time>
      </trkpt>
      <trkpt lat="45.68572" lon="5.27011">
        <ele>303</ele>
        <time>2025-05-27T09:15:19Z</time>
      </trkpt>
      <trkpt lat="45.68577" lon="5.27006">
        <ele>302.8</ele>
        <time>2025-05-27T09:15:20Z</time>
      </trkpt>
      <trkpt lat="45.6858" lon="5.27002">
        <ele>302.8</ele>
        <time>2025-05-27T09:15:21Z</time>
      </trkpt>
      <trkpt lat="45.68583" lon="5.26998">
        <ele>302.8</ele>
        <time>2025-05-27T09:15:22Z</time>
      </trkpt>
      <trkpt lat="45.68586" lon="5.26995">
        <ele>302.6</ele>
        <time>2025-05-27T09:15:23Z</time>
      </trkpt>
      <trkpt lat="45.68588" lon="5.26991">
        <ele>302.6</ele>
        <time>2025-05-27T09:15:24Z</time>
      </trkpt>
      <trkpt lat="45.68589" lon="5.26985">
        <ele>302.6</ele>
        <time>2025-05-27T09:15:25Z</time>
      </trkpt>
      <trkpt lat="45.68591" lon="5.26974">
        <ele>303</ele>
        <time>2025-05-27T09:15:26Z</time>
      </trkpt>
      <trkpt lat="45.68594" lon="5.26973">
        <ele>303.4</ele>
        <time>2025-05-27T09:15:27Z</time>
      </trkpt>
      <trkpt lat="45.68596" lon="5.26967">
        <ele>303.2</ele>
        <time>2025-05-27T09:15:28Z</time>
      </trkpt>
      <trkpt lat="45.68599" lon="5.26966">
        <ele>303.2</ele>
        <time>2025-05-27T09:15:29Z</time>
      </trkpt>
      <trkpt lat="45.68602" lon="5.2696">
        <ele>303.6</ele>
        <time>2025-05-27T09:15:30Z</time>
      </trkpt>
      <trkpt lat="45.68605" lon="5.26956">
        <ele>304.4</ele>
        <time>2025-05-27T09:15:31Z</time>
      </trkpt>
      <trkpt lat="45.68608" lon="5.26951">
        <ele>304.6</ele>
        <time>2025-05-27T09:15:32Z</time>
      </trkpt>
      <trkpt lat="45.6861" lon="5.26947">
        <ele>304.6</ele>
        <time>2025-05-27T09:15:33Z</time>
      </trkpt>
      <trkpt lat="45.68612" lon="5.26942">
        <ele>304.8</ele>
        <time>2025-05-27T09:15:34Z</time>
      </trkpt>
      <trkpt lat="45.68614" lon="5.26939">
        <ele>304.8</ele>
        <time>2025-05-27T09:15:35Z</time>
      </trkpt>
      <trkpt lat="45.68616" lon="5.26935">
        <ele>305.4</ele>
        <time>2025-05-27T09:15:36Z</time>
      </trkpt>
      <trkpt lat="45.68617" lon="5.26932">
        <ele>305.4</ele>
        <time>2025-05-27T09:15:37Z</time>
      </trkpt>
      <trkpt lat="45.68619" lon="5.26928">
        <ele>305.4</ele>
        <time>2025-05-27T09:15:38Z</time>
      </trkpt>
      <trkpt lat="45.68621" lon="5.26926">
        <ele>306</ele>
        <time>2025-05-27T09:15:39Z</time>
      </trkpt>
      <trkpt lat="45.68621" lon="5.26923">
        <ele>306.2</ele>
        <time>2025-05-27T09:15:40Z</time>
      </trkpt>
      <trkpt lat="45.68623" lon="5.26918">
        <ele>306.6</ele>
        <time>2025-05-27T09:15:41Z</time>
      </trkpt>
      <trkpt lat="45.68625" lon="5.26915">
        <ele>306.6</ele>
        <time>2025-05-27T09:15:42Z</time>
      </trkpt>
      <trkpt lat="45.68626" lon="5.26913">
        <ele>307</ele>
        <time>2025-05-27T09:15:43Z</time>
      </trkpt>
      <trkpt lat="45.68628" lon="5.2691">
        <ele>307</ele>
        <time>2025-05-27T09:15:44Z</time>
      </trkpt>
      <trkpt lat="45.68629" lon="5.26907">
        <ele>307.6</ele>
        <time>2025-05-27T09:15:45Z</time>
      </trkpt>
      <trkpt lat="45.68631" lon="5.26904">
        <ele>307.6</ele>
        <time>2025-05-27T09:15:46Z</time>
      </trkpt>
      <trkpt lat="45.68632" lon="5.26901">
        <ele>308</ele>
        <time>2025-05-27T09:15:47Z</time>
      </trkpt>
      <trkpt lat="45.68634" lon="5.26899">
        <ele>308.6</ele>
        <time>2025-05-27T09:15:48Z</time>
      </trkpt>
      <trkpt lat="45.68636" lon="5.26896">
        <ele>308.6</ele>
        <time>2025-05-27T09:15:49Z</time>
      </trkpt>
      <trkpt lat="45.68638" lon="5.26892">
        <ele>308.6</ele>
        <time>2025-05-27T09:15:50Z</time>
      </trkpt>
      <trkpt lat="45.6864" lon="5.26889">
        <ele>308.8</ele>
        <time>2025-05-27T09:15:51Z</time>
      </trkpt>
      <trkpt lat="45.68642" lon="5.26886">
        <ele>309.2</ele>
        <time>2025-05-27T09:15:52Z</time>
      </trkpt>
      <trkpt lat="45.68644" lon="5.26883">
        <ele>309</ele>
        <time>2025-05-27T09:15:53Z</time>
      </trkpt>
      <trkpt lat="45.68647" lon="5.26881">
        <ele>309</ele>
        <time>2025-05-27T09:15:54Z</time>
      </trkpt>
      <trkpt lat="45.68649" lon="5.26879">
        <ele>308.8</ele>
        <time>2025-05-27T09:15:55Z</time>
      </trkpt>
      <trkpt lat="45.68651" lon="5.26876">
        <ele>309.2</ele>
        <time>2025-05-27T09:15:56Z</time>
      </trkpt>
      <trkpt lat="45.68653" lon="5.26872">
        <ele>309.2</ele>
        <time>2025-05-27T09:15:57Z</time>
      </trkpt>
      <trkpt lat="45.68655" lon="5.26869">
        <ele>309.2</ele>
        <time>2025-05-27T09:15:58Z</time>
      </trkpt>
      <trkpt lat="45.68656" lon="5.26866">
        <ele>309.6</ele>
        <time>2025-05-27T09:15:59Z</time>
      </trkpt>
      <trkpt lat="45.68658" lon="5.26864">
        <ele>309.6</ele>
        <time>2025-05-27T09:16:00Z</time>
      </trkpt>
      <trkpt lat="45.6866" lon="5.26861">
        <ele>309.2</ele>
        <time>2025-05-27T09:16:01Z</time>
      </trkpt>
      <trkpt lat="45.68661" lon="5.26859">
        <ele>309.8</ele>
        <time>2025-05-27T09:16:02Z</time>
      </trkpt>
      <trkpt lat="45.68663" lon="5.26858">
        <ele>310</ele>
        <time>2025-05-27T09:16:03Z</time>
      </trkpt>
      <trkpt lat="45.68664" lon="5.26855">
        <ele>310</ele>
        <time>2025-05-27T09:16:04Z</time>
      </trkpt>
      <trkpt lat="45.68666" lon="5.26852">
        <ele>310.4</ele>
        <time>2025-05-27T09:16:05Z</time>
      </trkpt>
      <trkpt lat="45.68669" lon="5.26848">
        <ele>310.4</ele>
        <time>2025-05-27T09:16:06Z</time>
      </trkpt>
      <trkpt lat="45.68671" lon="5.26846">
        <ele>310.4</ele>
        <time>2025-05-27T09:16:07Z</time>
      </trkpt>
      <trkpt lat="45.68673" lon="5.26843">
        <ele>310.4</ele>
        <time>2025-05-27T09:16:08Z</time>
      </trkpt>
      <trkpt lat="45.68675" lon="5.2684">
        <ele>310.8</ele>
        <time>2025-05-27T09:16:09Z</time>
      </trkpt>
      <trkpt lat="45.68676" lon="5.26838">
        <ele>310.8</ele>
        <time>2025-05-27T09:16:10Z</time>
      </trkpt>
      <trkpt lat="45.68679" lon="5.26835">
        <ele>310.8</ele>
        <time>2025-05-27T09:16:11Z</time>
      </trkpt>
      <trkpt lat="45.68682" lon="5.26832">
        <ele>310.8</ele>
        <time>2025-05-27T09:16:12Z</time>
      </trkpt>
      <trkpt lat="45.68685" lon="5.26831">
        <ele>310.8</ele>
        <time>2025-05-27T09:16:13Z</time>
      </trkpt>
      <trkpt lat="45.68687" lon="5.26829">
        <ele>311.2</ele>
        <time>2025-05-27T09:16:14Z</time>
      </trkpt>
      <trkpt lat="45.68688" lon="5.26827">
        <ele>311.6</ele>
        <time>2025-05-27T09:16:15Z</time>
      </trkpt>
      <trkpt lat="45.68691" lon="5.26825">
        <ele>311.6</ele>
        <time>2025-05-27T09:16:16Z</time>
      </trkpt>
      <trkpt lat="45.68693" lon="5.26823">
        <ele>311.6</ele>
        <time>2025-05-27T09:16:17Z</time>
      </trkpt>
      <trkpt lat="45.68696" lon="5.2682">
        <ele>311.8</ele>
        <time>2025-05-27T09:16:18Z</time>
      </trkpt>
      <trkpt lat="45.68698" lon="5.26818">
        <ele>311.8</ele>
        <time>2025-05-27T09:16:19Z</time>
      </trkpt>
      <trkpt lat="45.68701" lon="5.26816">
        <ele>311.8</ele>
        <time>2025-05-27T09:16:20Z</time>
      </trkpt>
      <trkpt lat="45.68704" lon="5.26812">
        <ele>312.2</ele>
        <time>2025-05-27T09:16:21Z</time>
      </trkpt>
      <trkpt lat="45.68706" lon="5.26809">
        <ele>312.6</ele>
        <time>2025-05-27T09:16:22Z</time>
      </trkpt>
      <trkpt lat="45.68709" lon="5.26806">
        <ele>312.4</ele>
        <time>2025-05-27T09:16:23Z</time>
      </trkpt>
      <trkpt lat="45.68711" lon="5.26804">
        <ele>312.8</ele>
        <time>2025-05-27T09:16:24Z</time>
      </trkpt>
      <trkpt lat="45.68713" lon="5.26801">
        <ele>312.8</ele>
        <time>2025-05-27T09:16:25Z</time>
      </trkpt>
      <trkpt lat="45.68716" lon="5.26797">
        <ele>313.2</ele>
        <time>2025-05-27T09:16:26Z</time>
      </trkpt>
      <trkpt lat="45.68718" lon="5.26795">
        <ele>313.2</ele>
        <time>2025-05-27T09:16:27Z</time>
      </trkpt>
      <trkpt lat="45.68721" lon="5.26794">
        <ele>313</ele>
        <time>2025-05-27T09:16:28Z</time>
      </trkpt>
      <trkpt lat="45.68724" lon="5.26793">
        <ele>313</ele>
        <time>2025-05-27T09:16:29Z</time>
      </trkpt>
      <trkpt lat="45.68727" lon="5.26792">
        <ele>313</ele>
        <time>2025-05-27T09:16:30Z</time>
      </trkpt>
      <trkpt lat="45.6873" lon="5.2679">
        <ele>313</ele>
        <time>2025-05-27T09:16:31Z</time>
      </trkpt>
      <trkpt lat="45.68733" lon="5.26788">
        <ele>313</ele>
        <time>2025-05-27T09:16:32Z</time>
      </trkpt>
      <trkpt lat="45.68736" lon="5.26786">
        <ele>312.6</ele>
        <time>2025-05-27T09:16:33Z</time>
      </trkpt>
      <trkpt lat="45.68739" lon="5.26784">
        <ele>313</ele>
        <time>2025-05-27T09:16:34Z</time>
      </trkpt>
      <trkpt lat="45.68741" lon="5.2678">
        <ele>313.4</ele>
        <time>2025-05-27T09:16:35Z</time>
      </trkpt>
      <trkpt lat="45.68744" lon="5.26777">
        <ele>314</ele>
        <time>2025-05-27T09:16:36Z</time>
      </trkpt>
      <trkpt lat="45.68747" lon="5.26773">
        <ele>314</ele>
        <time>2025-05-27T09:16:37Z</time>
      </trkpt>
      <trkpt lat="45.68749" lon="5.26769">
        <ele>314.4</ele>
        <time>2025-05-27T09:16:38Z</time>
      </trkpt>
      <trkpt lat="45.68751" lon="5.26767">
        <ele>314.8</ele>
        <time>2025-05-27T09:16:39Z</time>
      </trkpt>
      <trkpt lat="45.68753" lon="5.26763">
        <ele>314.8</ele>
        <time>2025-05-27T09:16:40Z</time>
      </trkpt>
      <trkpt lat="45.68755" lon="5.26761">
        <ele>314.8</ele>
        <time>2025-05-27T09:16:41Z</time>
      </trkpt>
      <trkpt lat="45.68757" lon="5.26759">
        <ele>314.8</ele>
        <time>2025-05-27T09:16:42Z</time>
      </trkpt>
      <trkpt lat="45.6876" lon="5.26757">
        <ele>314.8</ele>
        <time>2025-05-27T09:16:43Z</time>
      </trkpt>
      <trkpt lat="45.68762" lon="5.26756">
        <ele>315</ele>
        <time>2025-05-27T09:16:44Z</time>
      </trkpt>
      <trkpt lat="45.68765" lon="5.26755">
        <ele>315</ele>
        <time>2025-05-27T09:16:45Z</time>
      </trkpt>
      <trkpt lat="45.68768" lon="5.26753">
        <ele>315</ele>
        <time>2025-05-27T09:16:46Z</time>
      </trkpt>
      <trkpt lat="45.6877" lon="5.26751">
        <ele>315.2</ele>
        <time>2025-05-27T09:16:47Z</time>
      </trkpt>
      <trkpt lat="45.68772" lon="5.26748">
        <ele>315.2</ele>
        <time>2025-05-27T09:16:48Z</time>
      </trkpt>
      <trkpt lat="45.68775" lon="5.26745">
        <ele>314.8</ele>
        <time>2025-05-27T09:16:49Z</time>
      </trkpt>
      <trkpt lat="45.68777" lon="5.26743">
        <ele>314.8</ele>
        <time>2025-05-27T09:16:50Z</time>
      </trkpt>
      <trkpt lat="45.6878" lon="5.26741">
        <ele>315</ele>
        <time>2025-05-27T09:16:51Z</time>
      </trkpt>
      <trkpt lat="45.68783" lon="5.26738">
        <ele>315</ele>
        <time>2025-05-27T09:16:52Z</time>
      </trkpt>
      <trkpt lat="45.68786" lon="5.26735">
        <ele>315</ele>
        <time>2025-05-27T09:16:53Z</time>
      </trkpt>
      <trkpt lat="45.68788" lon="5.26732">
        <ele>315.2</ele>
        <time>2025-05-27T09:16:54Z</time>
      </trkpt>
      <trkpt lat="45.68791" lon="5.2673">
        <ele>315.2</ele>
        <time>2025-05-27T09:16:55Z</time>
      </trkpt>
      <trkpt lat="45.68794" lon="5.26729">
        <ele>315.2</ele>
        <time>2025-05-27T09:16:56Z</time>
      </trkpt>
      <trkpt lat="45.68797" lon="5.26726">
        <ele>315.6</ele>
        <time>2025-05-27T09:16:57Z</time>
      </trkpt>
      <trkpt lat="45.68799" lon="5.26724">
        <ele>315.6</ele>
        <time>2025-05-27T09:16:58Z</time>
      </trkpt>
      <trkpt lat="45.68802" lon="5.26722">
        <ele>316</ele>
        <time>2025-05-27T09:16:59Z</time>
      </trkpt>
      <trkpt lat="45.68805" lon="5.2672">
        <ele>315.6</ele>
        <time>2025-05-27T09:17:00Z</time>
      </trkpt>
      <trkpt lat="45.68807" lon="5.2672">
        <ele>316</ele>
        <time>2025-05-27T09:17:01Z</time>
      </trkpt>
      <trkpt lat="45.68809" lon="5.26718">
        <ele>316.2</ele>
        <time>2025-05-27T09:17:02Z</time>
      </trkpt>
      <trkpt lat="45.68811" lon="5.26717">
        <ele>316.2</ele>
        <time>2025-05-27T09:17:03Z</time>
      </trkpt>
      <trkpt lat="45.68812" lon="5.26715">
        <ele>316.6</ele>
        <time>2025-05-27T09:17:04Z</time>
      </trkpt>
      <trkpt lat="45.68814" lon="5.26712">
        <ele>316.6</ele>
        <time>2025-05-27T09:17:05Z</time>
      </trkpt>
      <trkpt lat="45.68816" lon="5.2671">
        <ele>316.6</ele>
        <time>2025-05-27T09:17:06Z</time>
      </trkpt>
      <trkpt lat="45.68818" lon="5.26709">
        <ele>316.6</ele>
        <time>2025-05-27T09:17:07Z</time>
      </trkpt>
      <trkpt lat="45.6882" lon="5.26707">
        <ele>317</ele>
        <time>2025-05-27T09:17:08Z</time>
      </trkpt>
      <trkpt lat="45.68822" lon="5.26704">
        <ele>317</ele>
        <time>2025-05-27T09:17:09Z</time>
      </trkpt>
      <trkpt lat="45.68824" lon="5.26701">
        <ele>317</ele>
        <time>2025-05-27T09:17:10Z</time>
      </trkpt>
      <trkpt lat="45.68826" lon="5.26699">
        <ele>317</ele>
        <time>2025-05-27T09:17:11Z</time>
      </trkpt>
      <trkpt lat="45.68829" lon="5.26697">
        <ele>317</ele>
        <time>2025-05-27T09:17:12Z</time>
      </trkpt>
      <trkpt lat="45.68832" lon="5.26696">
        <ele>317.2</ele>
        <time>2025-05-27T09:17:13Z</time>
      </trkpt>
      <trkpt lat="45.68835" lon="5.26695">
        <ele>317.2</ele>
        <time>2025-05-27T09:17:14Z</time>
      </trkpt>
      <trkpt lat="45.68837" lon="5.26694">
        <ele>316.8</ele>
        <time>2025-05-27T09:17:15Z</time>
      </trkpt>
      <trkpt lat="45.68839" lon="5.26694">
        <ele>317</ele>
        <time>2025-05-27T09:17:16Z</time>
      </trkpt>
      <trkpt lat="45.68841" lon="5.26695">
        <ele>317.4</ele>
        <time>2025-05-27T09:17:17Z</time>
      </trkpt>
      <trkpt lat="45.68844" lon="5.26694">
        <ele>318</ele>
        <time>2025-05-27T09:17:18Z</time>
      </trkpt>
      <trkpt lat="45.68846" lon="5.26693">
        <ele>318</ele>
        <time>2025-05-27T09:17:19Z</time>
      </trkpt>
      <trkpt lat="45.68847" lon="5.26693">
        <ele>318</ele>
        <time>2025-05-27T09:17:20Z</time>
      </trkpt>
      <trkpt lat="45.6885" lon="5.26693">
        <ele>318.2</ele>
        <time>2025-05-27T09:17:21Z</time>
      </trkpt>
      <trkpt lat="45.68852" lon="5.26693">
        <ele>318.6</ele>
        <time>2025-05-27T09:17:22Z</time>
      </trkpt>
      <trkpt lat="45.68855" lon="5.26692">
        <ele>318.6</ele>
        <time>2025-05-27T09:17:23Z</time>
      </trkpt>
      <trkpt lat="45.68859" lon="5.26691">
        <ele>318.6</ele>
        <time>2025-05-27T09:17:24Z</time>
      </trkpt>
      <trkpt lat="45.68862" lon="5.26689">
        <ele>318.6</ele>
        <time>2025-05-27T09:17:25Z</time>
      </trkpt>
      <trkpt lat="45.68865" lon="5.26687">
        <ele>318.6</ele>
        <time>2025-05-27T09:17:26Z</time>
      </trkpt>
      <trkpt lat="45.68868" lon="5.26685">
        <ele>319</ele>
        <time>2025-05-27T09:17:27Z</time>
      </trkpt>
      <trkpt lat="45.68871" lon="5.26683">
        <ele>319.4</ele>
        <time>2025-05-27T09:17:28Z</time>
      </trkpt>
      <trkpt lat="45.68874" lon="5.26682">
        <ele>319.8</ele>
        <time>2025-05-27T09:17:29Z</time>
      </trkpt>
      <trkpt lat="45.68877" lon="5.2668">
        <ele>320.2</ele>
        <time>2025-05-27T09:17:30Z</time>
      </trkpt>
      <trkpt lat="45.6888" lon="5.2668">
        <ele>320.2</ele>
        <time>2025-05-27T09:17:31Z</time>
      </trkpt>
      <trkpt lat="45.68882" lon="5.26679">
        <ele>320.2</ele>
        <time>2025-05-27T09:17:32Z</time>
      </trkpt>
      <trkpt lat="45.68884" lon="5.26677">
        <ele>320.2</ele>
        <time>2025-05-27T09:17:33Z</time>
      </trkpt>
      <trkpt lat="45.68886" lon="5.26676">
        <ele>320.4</ele>
        <time>2025-05-27T09:17:34Z</time>
      </trkpt>
      <trkpt lat="45.6889" lon="5.26675">
        <ele>320.8</ele>
        <time>2025-05-27T09:17:35Z</time>
      </trkpt>
      <trkpt lat="45.68892" lon="5.26673">
        <ele>320.8</ele>
        <time>2025-05-27T09:17:36Z</time>
      </trkpt>
      <trkpt lat="45.68895" lon="5.26672">
        <ele>320.8</ele>
        <time>2025-05-27T09:17:37Z</time>
      </trkpt>
      <trkpt lat="45.68898" lon="5.2667">
        <ele>320.8</ele>
        <time>2025-05-27T09:17:38Z</time>
      </trkpt>
      <trkpt lat="45.689" lon="5.26668">
        <ele>320.8</ele>
        <time>2025-05-27T09:17:39Z</time>
      </trkpt>
      <trkpt lat="45.68902" lon="5.26667">
        <ele>320.8</ele>
        <time>2025-05-27T09:17:40Z</time>
      </trkpt>
      <trkpt lat="45.68905" lon="5.26665">
        <ele>321.4</ele>
        <time>2025-05-27T09:17:41Z</time>
      </trkpt>
      <trkpt lat="45.68907" lon="5.26663">
        <ele>321.6</ele>
        <time>2025-05-27T09:17:42Z</time>
      </trkpt>
      <trkpt lat="45.68909" lon="5.26662">
        <ele>322</ele>
        <time>2025-05-27T09:17:43Z</time>
      </trkpt>
      <trkpt lat="45.68912" lon="5.2666">
        <ele>322.2</ele>
        <time>2025-05-27T09:17:44Z</time>
      </trkpt>
      <trkpt lat="45.68915" lon="5.26659">
        <ele>322.8</ele>
        <time>2025-05-27T09:17:45Z</time>
      </trkpt>
      <trkpt lat="45.68917" lon="5.26657">
        <ele>323</ele>
        <time>2025-05-27T09:17:46Z</time>
      </trkpt>
      <trkpt lat="45.68922" lon="5.26655">
        <ele>323</ele>
        <time>2025-05-27T09:17:47Z</time>
      </trkpt>
      <trkpt lat="45.68924" lon="5.26655">
        <ele>323</ele>
        <time>2025-05-27T09:17:48Z</time>
      </trkpt>
      <trkpt lat="45.68925" lon="5.26655">
        <ele>323</ele>
        <time>2025-05-27T09:17:49Z</time>
      </trkpt>
      <trkpt lat="45.68926" lon="5.26655">
        <ele>323.2</ele>
        <time>2025-05-27T09:17:50Z</time>
      </trkpt>
      <trkpt lat="45.68927" lon="5.26654">
        <ele>323.6</ele>
        <time>2025-05-27T09:17:51Z</time>
      </trkpt>
      <trkpt lat="45.68929" lon="5.26654">
        <ele>323.6</ele>
        <time>2025-05-27T09:17:52Z</time>
      </trkpt>
      <trkpt lat="45.68931" lon="5.26655">
        <ele>324</ele>
        <time>2025-05-27T09:17:53Z</time>
      </trkpt>
      <trkpt lat="45.68934" lon="5.26655">
        <ele>324.2</ele>
        <time>2025-05-27T09:17:54Z</time>
      </trkpt>
      <trkpt lat="45.68935" lon="5.26655">
        <ele>324.2</ele>
        <time>2025-05-27T09:17:55Z</time>
      </trkpt>
      <trkpt lat="45.68936" lon="5.26655">
        <ele>324.6</ele>
        <time>2025-05-27T09:17:56Z</time>
      </trkpt>
      <trkpt lat="45.68937" lon="5.26656">
        <ele>325</ele>
        <time>2025-05-27T09:17:57Z</time>
      </trkpt>
      <trkpt lat="45.68938" lon="5.26657">
        <ele>325</ele>
        <time>2025-05-27T09:17:58Z</time>
      </trkpt>
      <trkpt lat="45.68938" lon="5.26657">
        <ele>325</ele>
        <time>2025-05-27T09:17:59Z</time>
      </trkpt>
      <trkpt lat="45.68939" lon="5.26657">
        <ele>325</ele>
        <time>2025-05-27T09:18:00Z</time>
      </trkpt>
      <trkpt lat="45.6894" lon="5.26656">
        <ele>325</ele>
        <time>2025-05-27T09:18:01Z</time>
      </trkpt>
      <trkpt lat="45.6894" lon="5.26656">
        <ele>325.4</ele>
        <time>2025-05-27T09:18:02Z</time>
      </trkpt>
      <trkpt lat="45.68942" lon="5.26657">
        <ele>325.4</ele>
        <time>2025-05-27T09:18:03Z</time>
      </trkpt>
      <trkpt lat="45.68944" lon="5.26657">
        <ele>326</ele>
        <time>2025-05-27T09:18:04Z</time>
      </trkpt>
      <trkpt lat="45.68946" lon="5.26657">
        <ele>326</ele>
        <time>2025-05-27T09:18:05Z</time>
      </trkpt>
      <trkpt lat="45.68948" lon="5.26657">
        <ele>326.4</ele>
        <time>2025-05-27T09:18:06Z</time>
      </trkpt>
      <trkpt lat="45.68948" lon="5.26656">
        <ele>326.4</ele>
        <time>2025-05-27T09:18:07Z</time>
      </trkpt>
      <trkpt lat="45.6895" lon="5.26656">
        <ele>326.4</ele>
        <time>2025-05-27T09:18:08Z</time>
      </trkpt>
      <trkpt lat="45.6895" lon="5.26656">
        <ele>326.4</ele>
        <time>2025-05-27T09:18:09Z</time>
      </trkpt>
      <trkpt lat="45.68951" lon="5.26657">
        <ele>326.4</ele>
        <time>2025-05-27T09:18:10Z</time>
      </trkpt>
      <trkpt lat="45.68952" lon="5.26657">
        <ele>326.4</ele>
        <time>2025-05-27T09:18:11Z</time>
      </trkpt>
      <trkpt lat="45.68954" lon="5.26658">
        <ele>326.4</ele>
        <time>2025-05-27T09:18:12Z</time>
      </trkpt>
      <trkpt lat="45.68955" lon="5.26657">
        <ele>326.8</ele>
        <time>2025-05-27T09:18:13Z</time>
      </trkpt>
      <trkpt lat="45.68957" lon="5.26657">
        <ele>327.2</ele>
        <time>2025-05-27T09:18:14Z</time>
      </trkpt>
      <trkpt lat="45.68959" lon="5.26658">
        <ele>327.8</ele>
        <time>2025-05-27T09:18:15Z</time>
      </trkpt>
      <trkpt lat="45.68961" lon="5.26658">
        <ele>327.8</ele>
        <time>2025-05-27T09:18:16Z</time>
      </trkpt>
      <trkpt lat="45.68962" lon="5.2666">
        <ele>327.8</ele>
        <time>2025-05-27T09:18:17Z</time>
      </trkpt>
      <trkpt lat="45.68964" lon="5.26662">
        <ele>328</ele>
        <time>2025-05-27T09:18:18Z</time>
      </trkpt>
      <trkpt lat="45.68965" lon="5.26664">
        <ele>327.2</ele>
        <time>2025-05-27T09:18:19Z</time>
      </trkpt>
      <trkpt lat="45.68966" lon="5.26666">
        <ele>327.6</ele>
        <time>2025-05-27T09:18:20Z</time>
      </trkpt>
      <trkpt lat="45.68968" lon="5.26667">
        <ele>328</ele>
        <time>2025-05-27T09:18:21Z</time>
      </trkpt>
      <trkpt lat="45.68971" lon="5.26668">
        <ele>328</ele>
        <time>2025-05-27T09:18:22Z</time>
      </trkpt>
      <trkpt lat="45.68973" lon="5.26669">
        <ele>328.4</ele>
        <time>2025-05-27T09:18:23Z</time>
      </trkpt>
      <trkpt lat="45.68975" lon="5.2667">
        <ele>327.8</ele>
        <time>2025-05-27T09:18:24Z</time>
      </trkpt>
      <trkpt lat="45.68977" lon="5.26671">
        <ele>328</ele>
        <time>2025-05-27T09:18:25Z</time>
      </trkpt>
      <trkpt lat="45.68979" lon="5.26672">
        <ele>328.6</ele>
        <time>2025-05-27T09:18:26Z</time>
      </trkpt>
      <trkpt lat="45.6898" lon="5.26673">
        <ele>328.8</ele>
        <time>2025-05-27T09:18:27Z</time>
      </trkpt>
      <trkpt lat="45.68982" lon="5.26673">
        <ele>329.2</ele>
        <time>2025-05-27T09:18:28Z</time>
      </trkpt>
      <trkpt lat="45.68983" lon="5.26674">
        <ele>329.6</ele>
        <time>2025-05-27T09:18:29Z</time>
      </trkpt>
      <trkpt lat="45.68985" lon="5.26675">
        <ele>329.2</ele>
        <time>2025-05-27T09:18:30Z</time>
      </trkpt>
      <trkpt lat="45.68987" lon="5.26677">
        <ele>329.8</ele>
        <time>2025-05-27T09:18:31Z</time>
      </trkpt>
      <trkpt lat="45.68988" lon="5.26678">
        <ele>330.2</ele>
        <time>2025-05-27T09:18:32Z</time>
      </trkpt>
      <trkpt lat="45.6899" lon="5.26679">
        <ele>330.2</ele>
        <time>2025-05-27T09:18:33Z</time>
      </trkpt>
      <trkpt lat="45.68991" lon="5.2668">
        <ele>330.4</ele>
        <time>2025-05-27T09:18:34Z</time>
      </trkpt>
      <trkpt lat="45.68993" lon="5.26681">
        <ele>330.4</ele>
        <time>2025-05-27T09:18:35Z</time>
      </trkpt>
      <trkpt lat="45.68994" lon="5.26682">
        <ele>330.4</ele>
        <time>2025-05-27T09:18:36Z</time>
      </trkpt>
      <trkpt lat="45.68996" lon="5.26683">
        <ele>330.8</ele>
        <time>2025-05-27T09:18:37Z</time>
      </trkpt>
      <trkpt lat="45.68998" lon="5.26683">
        <ele>330.8</ele>
        <time>2025-05-27T09:18:38Z</time>
      </trkpt>
      <trkpt lat="45.69" lon="5.26685">
        <ele>331</ele>
        <time>2025-05-27T09:18:39Z</time>
      </trkpt>
      <trkpt lat="45.69001" lon="5.26686">
        <ele>331</ele>
        <time>2025-05-27T09:18:40Z</time>
      </trkpt>
      <trkpt lat="45.69003" lon="5.26688">
        <ele>331.4</ele>
        <time>2025-05-27T09:18:41Z</time>
      </trkpt>
      <trkpt lat="45.69004" lon="5.26689">
        <ele>331.4</ele>
        <time>2025-05-27T09:18:42Z</time>
      </trkpt>
      <trkpt lat="45.69005" lon="5.2669">
        <ele>331.6</ele>
        <time>2025-05-27T09:18:43Z</time>
      </trkpt>
      <trkpt lat="45.69007" lon="5.26691">
        <ele>331.6</ele>
        <time>2025-05-27T09:18:44Z</time>
      </trkpt>
      <trkpt lat="45.69008" lon="5.26693">
        <ele>332.2</ele>
        <time>2025-05-27T09:18:45Z</time>
      </trkpt>
      <trkpt lat="45.69009" lon="5.26695">
        <ele>332.4</ele>
        <time>2025-05-27T09:18:46Z</time>
      </trkpt>
      <trkpt lat="45.69011" lon="5.26697">
        <ele>332.8</ele>
        <time>2025-05-27T09:18:47Z</time>
      </trkpt>
      <trkpt lat="45.69012" lon="5.26698">
        <ele>332.8</ele>
        <time>2025-05-27T09:18:48Z</time>
      </trkpt>
      <trkpt lat="45.69012" lon="5.26699">
        <ele>333.2</ele>
        <time>2025-05-27T09:18:49Z</time>
      </trkpt>
      <trkpt lat="45.69013" lon="5.267">
        <ele>333.2</ele>
        <time>2025-05-27T09:18:50Z</time>
      </trkpt>
      <trkpt lat="45.69015" lon="5.26702">
        <ele>333.2</ele>
        <time>2025-05-27T09:18:51Z</time>
      </trkpt>
      <trkpt lat="45.69016" lon="5.26704">
        <ele>333.2</ele>
        <time>2025-05-27T09:18:52Z</time>
      </trkpt>
      <trkpt lat="45.69018" lon="5.26705">
        <ele>333.2</ele>
        <time>2025-05-27T09:18:53Z</time>
      </trkpt>
      <trkpt lat="45.69019" lon="5.26707">
        <ele>333.6</ele>
        <time>2025-05-27T09:18:54Z</time>
      </trkpt>
      <trkpt lat="45.69022" lon="5.26708">
        <ele>333.6</ele>
        <time>2025-05-27T09:18:55Z</time>
      </trkpt>
      <trkpt lat="45.69024" lon="5.26709">
        <ele>333.6</ele>
        <time>2025-05-27T09:18:56Z</time>
      </trkpt>
      <trkpt lat="45.69025" lon="5.2671">
        <ele>333.6</ele>
        <time>2025-05-27T09:18:57Z</time>
      </trkpt>
      <trkpt lat="45.69027" lon="5.26711">
        <ele>333.8</ele>
        <time>2025-05-27T09:18:58Z</time>
      </trkpt>
      <trkpt lat="45.69028" lon="5.26712">
        <ele>333.2</ele>
        <time>2025-05-27T09:18:59Z</time>
      </trkpt>
      <trkpt lat="45.6903" lon="5.26713">
        <ele>333.8</ele>
        <time>2025-05-27T09:19:00Z</time>
      </trkpt>
      <trkpt lat="45.69032" lon="5.26715">
        <ele>334</ele>
        <time>2025-05-27T09:19:01Z</time>
      </trkpt>
      <trkpt lat="45.69033" lon="5.26716">
        <ele>334</ele>
        <time>2025-05-27T09:19:02Z</time>
      </trkpt>
      <trkpt lat="45.69035" lon="5.26717">
        <ele>334.2</ele>
        <time>2025-05-27T09:19:03Z</time>
      </trkpt>
      <trkpt lat="45.69036" lon="5.26718">
        <ele>334.8</ele>
        <time>2025-05-27T09:19:04Z</time>
      </trkpt>
      <trkpt lat="45.69038" lon="5.2672">
        <ele>334.8</ele>
        <time>2025-05-27T09:19:05Z</time>
      </trkpt>
      <trkpt lat="45.6904" lon="5.26721">
        <ele>335</ele>
        <time>2025-05-27T09:19:06Z</time>
      </trkpt>
      <trkpt lat="45.69042" lon="5.26723">
        <ele>335.4</ele>
        <time>2025-05-27T09:19:07Z</time>
      </trkpt>
      <trkpt lat="45.69044" lon="5.26724">
        <ele>335.4</ele>
        <time>2025-05-27T09:19:08Z</time>
      </trkpt>
      <trkpt lat="45.69046" lon="5.26725">
        <ele>335</ele>
        <time>2025-05-27T09:19:09Z</time>
      </trkpt>
      <trkpt lat="45.69048" lon="5.26726">
        <ele>335.4</ele>
        <time>2025-05-27T09:19:10Z</time>
      </trkpt>
      <trkpt lat="45.69049" lon="5.26728">
        <ele>335.4</ele>
        <time>2025-05-27T09:19:11Z</time>
      </trkpt>
      <trkpt lat="45.6905" lon="5.2673">
        <ele>335.6</ele>
        <time>2025-05-27T09:19:12Z</time>
      </trkpt>
      <trkpt lat="45.69051" lon="5.26732">
        <ele>335.6</ele>
        <time>2025-05-27T09:19:13Z</time>
      </trkpt>
      <trkpt lat="45.69051" lon="5.26735">
        <ele>335.6</ele>
        <time>2025-05-27T09:19:14Z</time>
      </trkpt>
      <trkpt lat="45.6905" lon="5.26738">
        <ele>335.8</ele>
        <time>2025-05-27T09:19:15Z</time>
      </trkpt>
      <trkpt lat="45.69049" lon="5.26739">
        <ele>335.8</ele>
        <time>2025-05-27T09:19:16Z</time>
      </trkpt>
      <trkpt lat="45.69047" lon="5.2674">
        <ele>336.2</ele>
        <time>2025-05-27T09:19:17Z</time>
      </trkpt>
      <trkpt lat="45.69045" lon="5.26741">
        <ele>336.4</ele>
        <time>2025-05-27T09:19:18Z</time>
      </trkpt>
      <trkpt lat="45.69043" lon="5.26742">
        <ele>336.4</ele>
        <time>2025-05-27T09:19:19Z</time>
      </trkpt>
      <trkpt lat="45.69042" lon="5.26743">
        <ele>336.4</ele>
        <time>2025-05-27T09:19:20Z</time>
      </trkpt>
      <trkpt lat="45.6904" lon="5.26743">
        <ele>336.8</ele>
        <time>2025-05-27T09:19:21Z</time>
      </trkpt>
      <trkpt lat="45.69039" lon="5.26744">
        <ele>336.8</ele>
        <time>2025-05-27T09:19:22Z</time>
      </trkpt>
      <trkpt lat="45.69037" lon="5.26744">
        <ele>337</ele>
        <time>2025-05-27T09:19:23Z</time>
      </trkpt>
      <trkpt lat="45.69035" lon="5.26745">
        <ele>337.4</ele>
        <time>2025-05-27T09:19:24Z</time>
      </trkpt>
      <trkpt lat="45.69033" lon="5.26745">
        <ele>337.4</ele>
        <time>2025-05-27T09:19:25Z</time>
      </trkpt>
      <trkpt lat="45.69032" lon="5.26746">
        <ele>337.6</ele>
        <time>2025-05-27T09:19:26Z</time>
      </trkpt>
      <trkpt lat="45.6903" lon="5.26747">
        <ele>338</ele>
        <time>2025-05-27T09:19:27Z</time>
      </trkpt>
      <trkpt lat="45.69029" lon="5.26748">
        <ele>338</ele>
        <time>2025-05-27T09:19:28Z</time>
      </trkpt>
      <trkpt lat="45.69027" lon="5.2675">
        <ele>338</ele>
        <time>2025-05-27T09:19:29Z</time>
      </trkpt>
      <trkpt lat="45.69025" lon="5.26752">
        <ele>338</ele>
        <time>2025-05-27T09:19:30Z</time>
      </trkpt>
      <trkpt lat="45.69024" lon="5.26753">
        <ele>338.2</ele>
        <time>2025-05-27T09:19:31Z</time>
      </trkpt>
      <trkpt lat="45.69023" lon="5.26755">
        <ele>338.2</ele>
        <time>2025-05-27T09:19:32Z</time>
      </trkpt>
      <trkpt lat="45.69021" lon="5.26756">
        <ele>338.2</ele>
        <time>2025-05-27T09:19:33Z</time>
      </trkpt>
      <trkpt lat="45.6902" lon="5.26758">
        <ele>338.4</ele>
        <time>2025-05-27T09:19:34Z</time>
      </trkpt>
      <trkpt lat="45.69019" lon="5.26759">
        <ele>338.6</ele>
        <time>2025-05-27T09:19:35Z</time>
      </trkpt>
      <trkpt lat="45.69018" lon="5.26761">
        <ele>338.6</ele>
        <time>2025-05-27T09:19:36Z</time>
      </trkpt>
      <trkpt lat="45.69016" lon="5.26763">
        <ele>339</ele>
        <time>2025-05-27T09:19:37Z</time>
      </trkpt>
      <trkpt lat="45.69015" lon="5.26765">
        <ele>339</ele>
        <time>2025-05-27T09:19:38Z</time>
      </trkpt>
      <trkpt lat="45.69014" lon="5.26768">
        <ele>339</ele>
        <time>2025-05-27T09:19:39Z</time>
      </trkpt>
      <trkpt lat="45.69012" lon="5.2677">
        <ele>339.4</ele>
        <time>2025-05-27T09:19:40Z</time>
      </trkpt>
      <trkpt lat="45.69011" lon="5.26772">
        <ele>339.4</ele>
        <time>2025-05-27T09:19:41Z</time>
      </trkpt>
      <trkpt lat="45.6901" lon="5.26775">
        <ele>339.4</ele>
        <time>2025-05-27T09:19:42Z</time>
      </trkpt>
      <trkpt lat="45.69009" lon="5.26777">
        <ele>339.6</ele>
        <time>2025-05-27T09:19:43Z</time>
      </trkpt>
      <trkpt lat="45.69008" lon="5.26779">
        <ele>339.6</ele>
        <time>2025-05-27T09:19:44Z</time>
      </trkpt>
      <trkpt lat="45.69007" lon="5.26782">
        <ele>340</ele>
        <time>2025-05-27T09:19:45Z</time>
      </trkpt>
      <trkpt lat="45.69005" lon="5.26784">
        <ele>340</ele>
        <time>2025-05-27T09:19:46Z</time>
      </trkpt>
      <trkpt lat="45.69004" lon="5.26787">
        <ele>340</ele>
        <time>2025-05-27T09:19:47Z</time>
      </trkpt>
      <trkpt lat="45.69003" lon="5.26789">
        <ele>340.4</ele>
        <time>2025-05-27T09:19:48Z</time>
      </trkpt>
      <trkpt lat="45.69002" lon="5.26791">
        <ele>340.6</ele>
        <time>2025-05-27T09:19:49Z</time>
      </trkpt>
      <trkpt lat="45.69001" lon="5.26794">
        <ele>340.6</ele>
        <time>2025-05-27T09:19:50Z</time>
      </trkpt>
      <trkpt lat="45.69" lon="5.26796">
        <ele>340.8</ele>
        <time>2025-05-27T09:19:51Z</time>
      </trkpt>
      <trkpt lat="45.68999" lon="5.26798">
        <ele>340.8</ele>
        <time>2025-05-27T09:19:52Z</time>
      </trkpt>
      <trkpt lat="45.68998" lon="5.26801">
        <ele>341.2</ele>
        <time>2025-05-27T09:19:53Z</time>
      </trkpt>
      <trkpt lat="45.68997" lon="5.26803">
        <ele>341.4</ele>
        <time>2025-05-27T09:19:54Z</time>
      </trkpt>
      <trkpt lat="45.68997" lon="5.26805">
        <ele>341.6</ele>
        <time>2025-05-27T09:19:55Z</time>
      </trkpt>
      <trkpt lat="45.68996" lon="5.26808">
        <ele>341.6</ele>
        <time>2025-05-27T09:19:56Z</time>
      </trkpt>
      <trkpt lat="45.68995" lon="5.2681">
        <ele>342</ele>
        <time>2025-05-27T09:19:57Z</time>
      </trkpt>
      <trkpt lat="45.68995" lon="5.26812">
        <ele>342</ele>
        <time>2025-05-27T09:19:58Z</time>
      </trkpt>
      <trkpt lat="45.68994" lon="5.26814">
        <ele>342.2</ele>
        <time>2025-05-27T09:19:59Z</time>
      </trkpt>
      <trkpt lat="45.68993" lon="5.26816">
        <ele>342.2</ele>
        <time>2025-05-27T09:20:00Z</time>
      </trkpt>
      <trkpt lat="45.68993" lon="5.26818">
        <ele>342.6</ele>
        <time>2025-05-27T09:20:01Z</time>
      </trkpt>
      <trkpt lat="45.68992" lon="5.2682">
        <ele>342.6</ele>
        <time>2025-05-27T09:20:02Z</time>
      </trkpt>
      <trkpt lat="45.68991" lon="5.26822">
        <ele>342.6</ele>
        <time>2025-05-27T09:20:03Z</time>
      </trkpt>
      <trkpt lat="45.6899" lon="5.26824">
        <ele>342.8</ele>
        <time>2025-05-27T09:20:04Z</time>
      </trkpt>
      <trkpt lat="45.6899" lon="5.26826">
        <ele>342.8</ele>
        <time>2025-05-27T09:20:05Z</time>
      </trkpt>
      <trkpt lat="45.68989" lon="5.26828">
        <ele>343</ele>
        <time>2025-05-27T09:20:06Z</time>
      </trkpt>
      <trkpt lat="45.68988" lon="5.2683">
        <ele>343</ele>
        <time>2025-05-27T09:20:07Z</time>
      </trkpt>
      <trkpt lat="45.68987" lon="5.26832">
        <ele>343.4</ele>
        <time>2025-05-27T09:20:08Z</time>
      </trkpt>
      <trkpt lat="45.68986" lon="5.26833">
        <ele>343.4</ele>
        <time>2025-05-27T09:20:09Z</time>
      </trkpt>
      <trkpt lat="45.68985" lon="5.26835">
        <ele>343.4</ele>
        <time>2025-05-27T09:20:10Z</time>
      </trkpt>
      <trkpt lat="45.68985" lon="5.26838">
        <ele>343.8</ele>
        <time>2025-05-27T09:20:11Z</time>
      </trkpt>
      <trkpt lat="45.68984" lon="5.2684">
        <ele>343.8</ele>
        <time>2025-05-27T09:20:12Z</time>
      </trkpt>
      <trkpt lat="45.68984" lon="5.26843">
        <ele>344</ele>
        <time>2025-05-27T09:20:13Z</time>
      </trkpt>
      <trkpt lat="45.68983" lon="5.26845">
        <ele>344</ele>
        <time>2025-05-27T09:20:14Z</time>
      </trkpt>
      <trkpt lat="45.68982" lon="5.26846">
        <ele>344.4</ele>
        <time>2025-05-27T09:20:15Z</time>
      </trkpt>
      <trkpt lat="45.68981" lon="5.26848">
        <ele>344.6</ele>
        <time>2025-05-27T09:20:16Z</time>
      </trkpt>
      <trkpt lat="45.68981" lon="5.2685">
        <ele>344.6</ele>
        <time>2025-05-27T09:20:17Z</time>
      </trkpt>
      <trkpt lat="45.6898" lon="5.26852">
        <ele>344.6</ele>
        <time>2025-05-27T09:20:18Z</time>
      </trkpt>
      <trkpt lat="45.6898" lon="5.26854">
        <ele>345</ele>
        <time>2025-05-27T09:20:19Z</time>
      </trkpt>
      <trkpt lat="45.6898" lon="5.26856">
        <ele>345.2</ele>
        <time>2025-05-27T09:20:20Z</time>
      </trkpt>
      <trkpt lat="45.68979" lon="5.26858">
        <ele>345.2</ele>
        <time>2025-05-27T09:20:21Z</time>
      </trkpt>
      <trkpt lat="45.68978" lon="5.2686">
        <ele>345.6</ele>
        <time>2025-05-27T09:20:22Z</time>
      </trkpt>
      <trkpt lat="45.68977" lon="5.26861">
        <ele>345.6</ele>
        <time>2025-05-27T09:20:23Z</time>
      </trkpt>
      <trkpt lat="45.68977" lon="5.26863">
        <ele>345.6</ele>
        <time>2025-05-27T09:20:24Z</time>
      </trkpt>
      <trkpt lat="45.68976" lon="5.26865">
        <ele>345.6</ele>
        <time>2025-05-27T09:20:25Z</time>
      </trkpt>
      <trkpt lat="45.68975" lon="5.26867">
        <ele>345.8</ele>
        <time>2025-05-27T09:20:26Z</time>
      </trkpt>
      <trkpt lat="45.68975" lon="5.26868">
        <ele>345.8</ele>
        <time>2025-05-27T09:20:27Z</time>
      </trkpt>
      <trkpt lat="45.68974" lon="5.2687">
        <ele>345.8</ele>
        <time>2025-05-27T09:20:28Z</time>
      </trkpt>
      <trkpt lat="45.68973" lon="5.26872">
        <ele>345.8</ele>
        <time>2025-05-27T09:20:29Z</time>
      </trkpt>
      <trkpt lat="45.68972" lon="5.26874">
        <ele>346</ele>
        <time>2025-05-27T09:20:30Z</time>
      </trkpt>
      <trkpt lat="45.68971" lon="5.26876">
        <ele>346</ele>
        <time>2025-05-27T09:20:31Z</time>
      </trkpt>
      <trkpt lat="45.6897" lon="5.26878">
        <ele>346.4</ele>
        <time>2025-05-27T09:20:32Z</time>
      </trkpt>
      <trkpt lat="45.6897" lon="5.26881">
        <ele>346.4</ele>
        <time>2025-05-27T09:20:33Z</time>
      </trkpt>
      <trkpt lat="45.68969" lon="5.26883">
        <ele>345.6</ele>
        <time>2025-05-27T09:20:34Z</time>
      </trkpt>
      <trkpt lat="45.68968" lon="5.26885">
        <ele>346.6</ele>
        <time>2025-05-27T09:20:35Z</time>
      </trkpt>
      <trkpt lat="45.68967" lon="5.26887">
        <ele>347</ele>
        <time>2025-05-27T09:20:36Z</time>
      </trkpt>
      <trkpt lat="45.68966" lon="5.26889">
        <ele>347</ele>
        <time>2025-05-27T09:20:37Z</time>
      </trkpt>
      <trkpt lat="45.68965" lon="5.26891">
        <ele>347</ele>
        <time>2025-05-27T09:20:38Z</time>
      </trkpt>
      <trkpt lat="45.68964" lon="5.26893">
        <ele>347</ele>
        <time>2025-05-27T09:20:39Z</time>
      </trkpt>
      <trkpt lat="45.68963" lon="5.26895">
        <ele>347.4</ele>
        <time>2025-05-27T09:20:40Z</time>
      </trkpt>
      <trkpt lat="45.68962" lon="5.26897">
        <ele>347.4</ele>
        <time>2025-05-27T09:20:41Z</time>
      </trkpt>
      <trkpt lat="45.68961" lon="5.26899">
        <ele>347.4</ele>
        <time>2025-05-27T09:20:42Z</time>
      </trkpt>
      <trkpt lat="45.6896" lon="5.26901">
        <ele>347.8</ele>
        <time>2025-05-27T09:20:43Z</time>
      </trkpt>
      <trkpt lat="45.68959" lon="5.26903">
        <ele>347.8</ele>
        <time>2025-05-27T09:20:44Z</time>
      </trkpt>
      <trkpt lat="45.68958" lon="5.26905">
        <ele>348</ele>
        <time>2025-05-27T09:20:45Z</time>
      </trkpt>
      <trkpt lat="45.68957" lon="5.26906">
        <ele>348</ele>
        <time>2025-05-27T09:20:46Z</time>
      </trkpt>
      <trkpt lat="45.68955" lon="5.26907">
        <ele>348</ele>
        <time>2025-05-27T09:20:47Z</time>
      </trkpt>
      <trkpt lat="45.68954" lon="5.26909">
        <ele>348</ele>
        <time>2025-05-27T09:20:48Z</time>
      </trkpt>
      <trkpt lat="45.68953" lon="5.2691">
        <ele>347.8</ele>
        <time>2025-05-27T09:20:49Z</time>
      </trkpt>
      <trkpt lat="45.68952" lon="5.26911">
        <ele>347.8</ele>
        <time>2025-05-27T09:20:50Z</time>
      </trkpt>
      <trkpt lat="45.68951" lon="5.26913">
        <ele>348</ele>
        <time>2025-05-27T09:20:51Z</time>
      </trkpt>
      <trkpt lat="45.6895" lon="5.26915">
        <ele>348.8</ele>
        <time>2025-05-27T09:20:52Z</time>
      </trkpt>
      <trkpt lat="45.68949" lon="5.26917">
        <ele>349.4</ele>
        <time>2025-05-27T09:20:53Z</time>
      </trkpt>
      <trkpt lat="45.68947" lon="5.26919">
        <ele>349.6</ele>
        <time>2025-05-27T09:20:54Z</time>
      </trkpt>
      <trkpt lat="45.68946" lon="5.26921">
        <ele>349.6</ele>
        <time>2025-05-27T09:20:55Z</time>
      </trkpt>
      <trkpt lat="45.68945" lon="5.26923">
        <ele>349.8</ele>
        <time>2025-05-27T09:20:56Z</time>
      </trkpt>
      <trkpt lat="45.68944" lon="5.26925">
        <ele>349.8</ele>
        <time>2025-05-27T09:20:57Z</time>
      </trkpt>
      <trkpt lat="45.68942" lon="5.26926">
        <ele>350.2</ele>
        <time>2025-05-27T09:20:58Z</time>
      </trkpt>
      <trkpt lat="45.68941" lon="5.26927">
        <ele>350.2</ele>
        <time>2025-05-27T09:20:59Z</time>
      </trkpt>
      <trkpt lat="45.6894" lon="5.26929">
        <ele>350.2</ele>
        <time>2025-05-27T09:21:00Z</time>
      </trkpt>
      <trkpt lat="45.68939" lon="5.26931">
        <ele>350.6</ele>
        <time>2025-05-27T09:21:01Z</time>
      </trkpt>
      <trkpt lat="45.68938" lon="5.26932">
        <ele>350.8</ele>
        <time>2025-05-27T09:21:02Z</time>
      </trkpt>
      <trkpt lat="45.68937" lon="5.26934">
        <ele>351</ele>
        <time>2025-05-27T09:21:03Z</time>
      </trkpt>
      <trkpt lat="45.68935" lon="5.26936">
        <ele>351</ele>
        <time>2025-05-27T09:21:04Z</time>
      </trkpt>
      <trkpt lat="45.68934" lon="5.26938">
        <ele>351</ele>
        <time>2025-05-27T09:21:05Z</time>
      </trkpt>
      <trkpt lat="45.68933" lon="5.2694">
        <ele>351.4</ele>
        <time>2025-05-27T09:21:06Z</time>
      </trkpt>
      <trkpt lat="45.68932" lon="5.26941">
        <ele>351.4</ele>
        <time>2025-05-27T09:21:07Z</time>
      </trkpt>
      <trkpt lat="45.68931" lon="5.26943">
        <ele>351.6</ele>
        <time>2025-05-27T09:21:08Z</time>
      </trkpt>
      <trkpt lat="45.6893" lon="5.26944">
        <ele>351.6</ele>
        <time>2025-05-27T09:21:09Z</time>
      </trkpt>
      <trkpt lat="45.68929" lon="5.26945">
        <ele>351.8</ele>
        <time>2025-05-27T09:21:10Z</time>
      </trkpt>
      <trkpt lat="45.68928" lon="5.26947">
        <ele>351.8</ele>
        <time>2025-05-27T09:21:11Z</time>
      </trkpt>
      <trkpt lat="45.68927" lon="5.26949">
        <ele>352.2</ele>
        <time>2025-05-27T09:21:12Z</time>
      </trkpt>
      <trkpt lat="45.68926" lon="5.2695">
        <ele>352.4</ele>
        <time>2025-05-27T09:21:13Z</time>
      </trkpt>
      <trkpt lat="45.68925" lon="5.26952">
        <ele>352.4</ele>
        <time>2025-05-27T09:21:14Z</time>
      </trkpt>
      <trkpt lat="45.68924" lon="5.26953">
        <ele>352.8</ele>
        <time>2025-05-27T09:21:15Z</time>
      </trkpt>
      <trkpt lat="45.68923" lon="5.26955">
        <ele>352.8</ele>
        <time>2025-05-27T09:21:16Z</time>
      </trkpt>
      <trkpt lat="45.68922" lon="5.26956">
        <ele>353</ele>
        <time>2025-05-27T09:21:17Z</time>
      </trkpt>
      <trkpt lat="45.68921" lon="5.26957">
        <ele>353.2</ele>
        <time>2025-05-27T09:21:18Z</time>
      </trkpt>
      <trkpt lat="45.6892" lon="5.26959">
        <ele>353.2</ele>
        <time>2025-05-27T09:21:19Z</time>
      </trkpt>
      <trkpt lat="45.68918" lon="5.2696">
        <ele>353.2</ele>
        <time>2025-05-27T09:21:20Z</time>
      </trkpt>
      <trkpt lat="45.68917" lon="5.26962">
        <ele>353.6</ele>
        <time>2025-05-27T09:21:21Z</time>
      </trkpt>
      <trkpt lat="45.68915" lon="5.26964">
        <ele>353.8</ele>
        <time>2025-05-27T09:21:22Z</time>
      </trkpt>
      <trkpt lat="45.68913" lon="5.26968">
        <ele>353.8</ele>
        <time>2025-05-27T09:21:23Z</time>
      </trkpt>
      <trkpt lat="45.68912" lon="5.2697">
        <ele>354.2</ele>
        <time>2025-05-27T09:21:24Z</time>
      </trkpt>
      <trkpt lat="45.6891" lon="5.26972">
        <ele>354.2</ele>
        <time>2025-05-27T09:21:25Z</time>
      </trkpt>
      <trkpt lat="45.68909" lon="5.26973">
        <ele>354.6</ele>
        <time>2025-05-27T09:21:26Z</time>
      </trkpt>
      <trkpt lat="45.68907" lon="5.26975">
        <ele>354.6</ele>
        <time>2025-05-27T09:21:27Z</time>
      </trkpt>
      <trkpt lat="45.68906" lon="5.26977">
        <ele>354.6</ele>
        <time>2025-05-27T09:21:28Z</time>
      </trkpt>
      <trkpt lat="45.68904" lon="5.26979">
        <ele>354.6</ele>
        <time>2025-05-27T09:21:29Z</time>
      </trkpt>
      <trkpt lat="45.68903" lon="5.26981">
        <ele>354.8</ele>
        <time>2025-05-27T09:21:30Z</time>
      </trkpt>
      <trkpt lat="45.68901" lon="5.26983">
        <ele>354.8</ele>
        <time>2025-05-27T09:21:31Z</time>
      </trkpt>
      <trkpt lat="45.689" lon="5.26984">
        <ele>354.8</ele>
        <time>2025-05-27T09:21:32Z</time>
      </trkpt>
      <trkpt lat="45.689" lon="5.26984">
        <ele>355</ele>
        <time>2025-05-27T09:21:33Z</time>
      </trkpt>
      <trkpt lat="45.689" lon="5.26984">
        <ele>355</ele>
        <time>2025-05-27T09:21:34Z</time>
      </trkpt>
      <trkpt lat="45.689" lon="5.26984">
        <ele>355.2</ele>
        <time>2025-05-27T09:21:35Z</time>
      </trkpt>
      <trkpt lat="45.68894" lon="5.26993">
        <ele>355.4</ele>
        <time>2025-05-27T09:21:37Z</time>
      </trkpt>
      <trkpt lat="45.68893" lon="5.26995">
        <ele>356</ele>
        <time>2025-05-27T09:21:38Z</time>
      </trkpt>
      <trkpt lat="45.68891" lon="5.26997">
        <ele>356</ele>
        <time>2025-05-27T09:21:39Z</time>
      </trkpt>
      <trkpt lat="45.6889" lon="5.26999">
        <ele>356.2</ele>
        <time>2025-05-27T09:21:40Z</time>
      </trkpt>
      <trkpt lat="45.68888" lon="5.27001">
        <ele>356.2</ele>
        <time>2025-05-27T09:21:41Z</time>
      </trkpt>
      <trkpt lat="45.68887" lon="5.27003">
        <ele>356.2</ele>
        <time>2025-05-27T09:21:42Z</time>
      </trkpt>
      <trkpt lat="45.68885" lon="5.27004">
        <ele>356.4</ele>
        <time>2025-05-27T09:21:43Z</time>
      </trkpt>
      <trkpt lat="45.68884" lon="5.27006">
        <ele>356.4</ele>
        <time>2025-05-27T09:21:44Z</time>
      </trkpt>
      <trkpt lat="45.68882" lon="5.27008">
        <ele>356.6</ele>
        <time>2025-05-27T09:21:45Z</time>
      </trkpt>
      <trkpt lat="45.68881" lon="5.2701">
        <ele>356.6</ele>
        <time>2025-05-27T09:21:46Z</time>
      </trkpt>
      <trkpt lat="45.6888" lon="5.27012">
        <ele>357</ele>
        <time>2025-05-27T09:21:47Z</time>
      </trkpt>
      <trkpt lat="45.68879" lon="5.27014">
        <ele>357</ele>
        <time>2025-05-27T09:21:48Z</time>
      </trkpt>
      <trkpt lat="45.68878" lon="5.27016">
        <ele>357.2</ele>
        <time>2025-05-27T09:21:49Z</time>
      </trkpt>
      <trkpt lat="45.68876" lon="5.27018">
        <ele>357.2</ele>
        <time>2025-05-27T09:21:50Z</time>
      </trkpt>
      <trkpt lat="45.68875" lon="5.2702">
        <ele>357.2</ele>
        <time>2025-05-27T09:21:51Z</time>
      </trkpt>
      <trkpt lat="45.68873" lon="5.27022">
        <ele>357.6</ele>
        <time>2025-05-27T09:21:52Z</time>
      </trkpt>
      <trkpt lat="45.68872" lon="5.27024">
        <ele>357.6</ele>
        <time>2025-05-27T09:21:53Z</time>
      </trkpt>
      <trkpt lat="45.6887" lon="5.27025">
        <ele>357.8</ele>
        <time>2025-05-27T09:21:54Z</time>
      </trkpt>
      <trkpt lat="45.68869" lon="5.27028">
        <ele>358</ele>
        <time>2025-05-27T09:21:55Z</time>
      </trkpt>
      <trkpt lat="45.68868" lon="5.2703">
        <ele>358</ele>
        <time>2025-05-27T09:21:56Z</time>
      </trkpt>
      <trkpt lat="45.68866" lon="5.27032">
        <ele>358</ele>
        <time>2025-05-27T09:21:57Z</time>
      </trkpt>
      <trkpt lat="45.68865" lon="5.27034">
        <ele>358.2</ele>
        <time>2025-05-27T09:21:58Z</time>
      </trkpt>
      <trkpt lat="45.68863" lon="5.27037">
        <ele>358.2</ele>
        <time>2025-05-27T09:21:59Z</time>
      </trkpt>
      <trkpt lat="45.68862" lon="5.27039">
        <ele>358.2</ele>
        <time>2025-05-27T09:22:00Z</time>
      </trkpt>
      <trkpt lat="45.6886" lon="5.27041">
        <ele>358.4</ele>
        <time>2025-05-27T09:22:01Z</time>
      </trkpt>
      <trkpt lat="45.68859" lon="5.27043">
        <ele>358.4</ele>
        <time>2025-05-27T09:22:02Z</time>
      </trkpt>
      <trkpt lat="45.68858" lon="5.27045">
        <ele>358.4</ele>
        <time>2025-05-27T09:22:03Z</time>
      </trkpt>
      <trkpt lat="45.68856" lon="5.27047">
        <ele>358.4</ele>
        <time>2025-05-27T09:22:04Z</time>
      </trkpt>
      <trkpt lat="45.68855" lon="5.27049">
        <ele>358.8</ele>
        <time>2025-05-27T09:22:05Z</time>
      </trkpt>
      <trkpt lat="45.68854" lon="5.27051">
        <ele>358.8</ele>
        <time>2025-05-27T09:22:06Z</time>
      </trkpt>
      <trkpt lat="45.68852" lon="5.27052">
        <ele>358.8</ele>
        <time>2025-05-27T09:22:07Z</time>
      </trkpt>
      <trkpt lat="45.68851" lon="5.27054">
        <ele>359</ele>
        <time>2025-05-27T09:22:08Z</time>
      </trkpt>
      <trkpt lat="45.6885" lon="5.27055">
        <ele>359</ele>
        <time>2025-05-27T09:22:09Z</time>
      </trkpt>
      <trkpt lat="45.68848" lon="5.27058">
        <ele>359</ele>
        <time>2025-05-27T09:22:10Z</time>
      </trkpt>
      <trkpt lat="45.68847" lon="5.2706">
        <ele>359</ele>
        <time>2025-05-27T09:22:11Z</time>
      </trkpt>
      <trkpt lat="45.68845" lon="5.27062">
        <ele>359</ele>
        <time>2025-05-27T09:22:12Z</time>
      </trkpt>
      <trkpt lat="45.68844" lon="5.27065">
        <ele>359</ele>
        <time>2025-05-27T09:22:13Z</time>
      </trkpt>
      <trkpt lat="45.68843" lon="5.27067">
        <ele>359</ele>
        <time>2025-05-27T09:22:14Z</time>
      </trkpt>
      <trkpt lat="45.68842" lon="5.27069">
        <ele>359.4</ele>
        <time>2025-05-27T09:22:15Z</time>
      </trkpt>
      <trkpt lat="45.6884" lon="5.27071">
        <ele>359.4</ele>
        <time>2025-05-27T09:22:16Z</time>
      </trkpt>
      <trkpt lat="45.68839" lon="5.27073">
        <ele>359.4</ele>
        <time>2025-05-27T09:22:17Z</time>
      </trkpt>
      <trkpt lat="45.68838" lon="5.27075">
        <ele>359.4</ele>
        <time>2025-05-27T09:22:18Z</time>
      </trkpt>
      <trkpt lat="45.68837" lon="5.27077">
        <ele>359.4</ele>
        <time>2025-05-27T09:22:19Z</time>
      </trkpt>
      <trkpt lat="45.68836" lon="5.27078">
        <ele>359.4</ele>
        <time>2025-05-27T09:22:20Z</time>
      </trkpt>
      <trkpt lat="45.68835" lon="5.2708">
        <ele>359.4</ele>
        <time>2025-05-27T09:22:21Z</time>
      </trkpt>
      <trkpt lat="45.68834" lon="5.27082">
        <ele>359.4</ele>
        <time>2025-05-27T09:22:22Z</time>
      </trkpt>
      <trkpt lat="45.68833" lon="5.27084">
        <ele>359.4</ele>
        <time>2025-05-27T09:22:23Z</time>
      </trkpt>
      <trkpt lat="45.68833" lon="5.27084">
        <ele>359.6</ele>
        <time>2025-05-27T09:22:24Z</time>
      </trkpt>
      <trkpt lat="45.68834" lon="5.27084">
        <ele>359</ele>
        <time>2025-05-27T09:22:25Z</time>
      </trkpt>
      <trkpt lat="45.68833" lon="5.27085">
        <ele>359</ele>
        <time>2025-05-27T09:22:26Z</time>
      </trkpt>
      <trkpt lat="45.68832" lon="5.27088">
        <ele>359</ele>
        <time>2025-05-27T09:22:27Z</time>
      </trkpt>
      <trkpt lat="45.68831" lon="5.2709">
        <ele>359</ele>
        <time>2025-05-27T09:22:28Z</time>
      </trkpt>
      <trkpt lat="45.6883" lon="5.27092">
        <ele>359</ele>
        <time>2025-05-27T09:22:29Z</time>
      </trkpt>
      <trkpt lat="45.68829" lon="5.27093">
        <ele>359</ele>
        <time>2025-05-27T09:22:30Z</time>
      </trkpt>
      <trkpt lat="45.68828" lon="5.27094">
        <ele>359.4</ele>
        <time>2025-05-27T09:22:31Z</time>
      </trkpt>
      <trkpt lat="45.68827" lon="5.27095">
        <ele>359.4</ele>
        <time>2025-05-27T09:22:32Z</time>
      </trkpt>
      <trkpt lat="45.68825" lon="5.27094">
        <ele>359</ele>
        <time>2025-05-27T09:22:33Z</time>
      </trkpt>
      <trkpt lat="45.68824" lon="5.27093">
        <ele>359</ele>
        <time>2025-05-27T09:22:34Z</time>
      </trkpt>
      <trkpt lat="45.68823" lon="5.27091">
        <ele>358.8</ele>
        <time>2025-05-27T09:22:35Z</time>
      </trkpt>
      <trkpt lat="45.68823" lon="5.2709">
        <ele>358.8</ele>
        <time>2025-05-27T09:22:36Z</time>
      </trkpt>
      <trkpt lat="45.68822" lon="5.27089">
        <ele>358.8</ele>
        <time>2025-05-27T09:22:37Z</time>
      </trkpt>
      <trkpt lat="45.68821" lon="5.27089">
        <ele>358.8</ele>
        <time>2025-05-27T09:22:38Z</time>
      </trkpt>
      <trkpt lat="45.68821" lon="5.27089">
        <ele>358.4</ele>
        <time>2025-05-27T09:22:39Z</time>
      </trkpt>
      <trkpt lat="45.68821" lon="5.27091">
        <ele>359.6</ele>
        <time>2025-05-27T09:26:51Z</time>
      </trkpt>
      <trkpt lat="45.68821" lon="5.27092">
        <ele>359.2</ele>
        <time>2025-05-27T09:26:52Z</time>
      </trkpt>
      <trkpt lat="45.68821" lon="5.27093">
        <ele>359.2</ele>
        <time>2025-05-27T09:26:53Z</time>
      </trkpt>
      <trkpt lat="45.68821" lon="5.27094">
        <ele>359.2</ele>
        <time>2025-05-27T09:26:54Z</time>
      </trkpt>
      <trkpt lat="45.68822" lon="5.27095">
        <ele>359</ele>
        <time>2025-05-27T09:26:55Z</time>
      </trkpt>
      <trkpt lat="45.68822" lon="5.27095">
        <ele>359</ele>
        <time>2025-05-27T09:26:56Z</time>
      </trkpt>
      <trkpt lat="45.68822" lon="5.27095">
        <ele>359</ele>
        <time>2025-05-27T09:26:57Z</time>
      </trkpt>
      <trkpt lat="45.68823" lon="5.27097">
        <ele>359.2</ele>
        <time>2025-05-27T09:27:03Z</time>
      </trkpt>
      <trkpt lat="45.68824" lon="5.27098">
        <ele>359.4</ele>
        <time>2025-05-27T09:27:04Z</time>
      </trkpt>
      <trkpt lat="45.68825" lon="5.27098">
        <ele>359.4</ele>
        <time>2025-05-27T09:27:05Z</time>
      </trkpt>
      <trkpt lat="45.68825" lon="5.27099">
        <ele>359.4</ele>
        <time>2025-05-27T09:27:06Z</time>
      </trkpt>
      <trkpt lat="45.68825" lon="5.27102">
        <ele>359.4</ele>
        <time>2025-05-27T09:27:07Z</time>
      </trkpt>
      <trkpt lat="45.68824" lon="5.27105">
        <ele>359.8</ele>
        <time>2025-05-27T09:27:08Z</time>
      </trkpt>
      <trkpt lat="45.68822" lon="5.27107">
        <ele>359.8</ele>
        <time>2025-05-27T09:27:09Z</time>
      </trkpt>
      <trkpt lat="45.6882" lon="5.2711">
        <ele>359.8</ele>
        <time>2025-05-27T09:27:10Z</time>
      </trkpt>
      <trkpt lat="45.68817" lon="5.27112">
        <ele>359.8</ele>
        <time>2025-05-27T09:27:11Z</time>
      </trkpt>
      <trkpt lat="45.68815" lon="5.27115">
        <ele>359.2</ele>
        <time>2025-05-27T09:27:12Z</time>
      </trkpt>
      <trkpt lat="45.68812" lon="5.27119">
        <ele>359.2</ele>
        <time>2025-05-27T09:27:13Z</time>
      </trkpt>
      <trkpt lat="45.68809" lon="5.27123">
        <ele>359.2</ele>
        <time>2025-05-27T09:27:14Z</time>
      </trkpt>
      <trkpt lat="45.68809" lon="5.27123">
        <ele>358.8</ele>
        <time>2025-05-27T09:27:15Z</time>
      </trkpt>
      <trkpt lat="45.68807" lon="5.27127">
        <ele>358.6</ele>
        <time>2025-05-27T09:27:16Z</time>
      </trkpt>
      <trkpt lat="45.68804" lon="5.27132">
        <ele>358.6</ele>
        <time>2025-05-27T09:27:17Z</time>
      </trkpt>
      <trkpt lat="45.68802" lon="5.27135">
        <ele>358.2</ele>
        <time>2025-05-27T09:27:18Z</time>
      </trkpt>
      <trkpt lat="45.68801" lon="5.27136">
        <ele>358.2</ele>
        <time>2025-05-27T09:27:19Z</time>
      </trkpt>
      <trkpt lat="45.688" lon="5.27137">
        <ele>358.2</ele>
        <time>2025-05-27T09:27:20Z</time>
      </trkpt>
      <trkpt lat="45.688" lon="5.27137">
        <ele>358.6</ele>
        <time>2025-05-27T09:27:21Z</time>
      </trkpt>
      <trkpt lat="45.688" lon="5.27137">
        <ele>358.6</ele>
        <time>2025-05-27T09:27:22Z</time>
      </trkpt>
      <trkpt lat="45.68799" lon="5.27139">
        <ele>358.4</ele>
        <time>2025-05-27T09:27:26Z</time>
      </trkpt>
      <trkpt lat="45.68798" lon="5.27142">
        <ele>358</ele>
        <time>2025-05-27T09:27:27Z</time>
      </trkpt>
      <trkpt lat="45.68797" lon="5.27145">
        <ele>357.8</ele>
        <time>2025-05-27T09:27:28Z</time>
      </trkpt>
      <trkpt lat="45.68796" lon="5.27148">
        <ele>357.4</ele>
        <time>2025-05-27T09:27:29Z</time>
      </trkpt>
      <trkpt lat="45.68795" lon="5.27152">
        <ele>357.4</ele>
        <time>2025-05-27T09:27:30Z</time>
      </trkpt>
      <trkpt lat="45.68793" lon="5.27156">
        <ele>357.4</ele>
        <time>2025-05-27T09:27:31Z</time>
      </trkpt>
      <trkpt lat="45.68791" lon="5.27161">
        <ele>357.4</ele>
        <time>2025-05-27T09:27:32Z</time>
      </trkpt>
      <trkpt lat="45.68789" lon="5.27168">
        <ele>356.8</ele>
        <time>2025-05-27T09:27:33Z</time>
      </trkpt>
      <trkpt lat="45.68787" lon="5.27175">
        <ele>356</ele>
        <time>2025-05-27T09:27:34Z</time>
      </trkpt>
      <trkpt lat="45.68786" lon="5.27184">
        <ele>355.2</ele>
        <time>2025-05-27T09:27:35Z</time>
      </trkpt>
      <trkpt lat="45.68785" lon="5.27193">
        <ele>354.4</ele>
        <time>2025-05-27T09:27:36Z</time>
      </trkpt>
      <trkpt lat="45.68784" lon="5.27204">
        <ele>353.6</ele>
        <time>2025-05-27T09:27:37Z</time>
      </trkpt>
      <trkpt lat="45.68782" lon="5.27215">
        <ele>352.2</ele>
        <time>2025-05-27T09:27:38Z</time>
      </trkpt>
      <trkpt lat="45.6878" lon="5.27229">
        <ele>351</ele>
        <time>2025-05-27T09:27:39Z</time>
      </trkpt>
      <trkpt lat="45.68776" lon="5.27242">
        <ele>349.8</ele>
        <time>2025-05-27T09:27:40Z</time>
      </trkpt>
      <trkpt lat="45.68771" lon="5.27253">
        <ele>348</ele>
        <time>2025-05-27T09:27:41Z</time>
      </trkpt>
      <trkpt lat="45.68765" lon="5.27264">
        <ele>347</ele>
        <time>2025-05-27T09:27:42Z</time>
      </trkpt>
      <trkpt lat="45.68759" lon="5.27274">
        <ele>346</ele>
        <time>2025-05-27T09:27:43Z</time>
      </trkpt>
      <trkpt lat="45.68752" lon="5.27284">
        <ele>345.8</ele>
        <time>2025-05-27T09:27:44Z</time>
      </trkpt>
      <trkpt lat="45.68745" lon="5.27293">
        <ele>345.2</ele>
        <time>2025-05-27T09:27:45Z</time>
      </trkpt>
      <trkpt lat="45.68738" lon="5.27302">
        <ele>345.2</ele>
        <time>2025-05-27T09:27:46Z</time>
      </trkpt>
      <trkpt lat="45.6873" lon="5.2731">
        <ele>345.2</ele>
        <time>2025-05-27T09:27:47Z</time>
      </trkpt>
      <trkpt lat="45.68723" lon="5.27317">
        <ele>345.2</ele>
        <time>2025-05-27T09:27:48Z</time>
      </trkpt>
      <trkpt lat="45.68717" lon="5.27324">
        <ele>345.2</ele>
        <time>2025-05-27T09:27:49Z</time>
      </trkpt>
      <trkpt lat="45.68711" lon="5.27331">
        <ele>345.2</ele>
        <time>2025-05-27T09:27:50Z</time>
      </trkpt>
      <trkpt lat="45.68705" lon="5.27337">
        <ele>345.2</ele>
        <time>2025-05-27T09:27:51Z</time>
      </trkpt>
      <trkpt lat="45.687" lon="5.27344">
        <ele>346</ele>
        <time>2025-05-27T09:27:52Z</time>
      </trkpt>
      <trkpt lat="45.68694" lon="5.2735">
        <ele>346.2</ele>
        <time>2025-05-27T09:27:53Z</time>
      </trkpt>
      <trkpt lat="45.68689" lon="5.27355">
        <ele>346.4</ele>
        <time>2025-05-27T09:27:54Z</time>
      </trkpt>
      <trkpt lat="45.68684" lon="5.2736">
        <ele>346.8</ele>
        <time>2025-05-27T09:27:55Z</time>
      </trkpt>
      <trkpt lat="45.68677" lon="5.27365">
        <ele>346.4</ele>
        <time>2025-05-27T09:27:56Z</time>
      </trkpt>
      <trkpt lat="45.68671" lon="5.27368">
        <ele>346</ele>
        <time>2025-05-27T09:27:57Z</time>
      </trkpt>
      <trkpt lat="45.68664" lon="5.27372">
        <ele>346.4</ele>
        <time>2025-05-27T09:27:58Z</time>
      </trkpt>
      <trkpt lat="45.68657" lon="5.27374">
        <ele>346.4</ele>
        <time>2025-05-27T09:27:59Z</time>
      </trkpt>
      <trkpt lat="45.68651" lon="5.27378">
        <ele>345.8</ele>
        <time>2025-05-27T09:28:00Z</time>
      </trkpt>
      <trkpt lat="45.68644" lon="5.27381">
        <ele>345.6</ele>
        <time>2025-05-27T09:28:01Z</time>
      </trkpt>
      <trkpt lat="45.68638" lon="5.27386">
        <ele>346</ele>
        <time>2025-05-27T09:28:02Z</time>
      </trkpt>
      <trkpt lat="45.68631" lon="5.27391">
        <ele>345.6</ele>
        <time>2025-05-27T09:28:03Z</time>
      </trkpt>
      <trkpt lat="45.68625" lon="5.27397">
        <ele>345</ele>
        <time>2025-05-27T09:28:04Z</time>
      </trkpt>
      <trkpt lat="45.68619" lon="5.27403">
        <ele>344.4</ele>
        <time>2025-05-27T09:28:05Z</time>
      </trkpt>
      <trkpt lat="45.68613" lon="5.27409">
        <ele>344.4</ele>
        <time>2025-05-27T09:28:06Z</time>
      </trkpt>
      <trkpt lat="45.68607" lon="5.27415">
        <ele>344</ele>
        <time>2025-05-27T09:28:07Z</time>
      </trkpt>
      <trkpt lat="45.68601" lon="5.27421">
        <ele>344.2</ele>
        <time>2025-05-27T09:28:08Z</time>
      </trkpt>
      <trkpt lat="45.68594" lon="5.27425">
        <ele>344.2</ele>
        <time>2025-05-27T09:28:09Z</time>
      </trkpt>
      <trkpt lat="45.68587" lon="5.27429">
        <ele>344.2</ele>
        <time>2025-05-27T09:28:10Z</time>
      </trkpt>
      <trkpt lat="45.6858" lon="5.27433">
        <ele>344.2</ele>
        <time>2025-05-27T09:28:11Z</time>
      </trkpt>
      <trkpt lat="45.68573" lon="5.27437">
        <ele>344.2</ele>
        <time>2025-05-27T09:28:12Z</time>
      </trkpt>
      <trkpt lat="45.68567" lon="5.27441">
        <ele>344.6</ele>
        <time>2025-05-27T09:28:13Z</time>
      </trkpt>
      <trkpt lat="45.6856" lon="5.27444">
        <ele>343.2</ele>
        <time>2025-05-27T09:28:14Z</time>
      </trkpt>
      <trkpt lat="45.68555" lon="5.27447">
        <ele>343.6</ele>
        <time>2025-05-27T09:28:15Z</time>
      </trkpt>
      <trkpt lat="45.6855" lon="5.27452">
        <ele>345</ele>
        <time>2025-05-27T09:28:16Z</time>
      </trkpt>
      <trkpt lat="45.68545" lon="5.27457">
        <ele>345.6</ele>
        <time>2025-05-27T09:28:17Z</time>
      </trkpt>
      <trkpt lat="45.68542" lon="5.2746">
        <ele>346</ele>
        <time>2025-05-27T09:28:18Z</time>
      </trkpt>
      <trkpt lat="45.68538" lon="5.27464">
        <ele>346.6</ele>
        <time>2025-05-27T09:28:19Z</time>
      </trkpt>
      <trkpt lat="45.68535" lon="5.27469">
        <ele>347.4</ele>
        <time>2025-05-27T09:28:20Z</time>
      </trkpt>
      <trkpt lat="45.68531" lon="5.27474">
        <ele>348</ele>
        <time>2025-05-27T09:28:21Z</time>
      </trkpt>
      <trkpt lat="45.68528" lon="5.27478">
        <ele>348</ele>
        <time>2025-05-27T09:28:22Z</time>
      </trkpt>
      <trkpt lat="45.68525" lon="5.27483">
        <ele>348.6</ele>
        <time>2025-05-27T09:28:23Z</time>
      </trkpt>
      <trkpt lat="45.68522" lon="5.27487">
        <ele>348.8</ele>
        <time>2025-05-27T09:28:24Z</time>
      </trkpt>
      <trkpt lat="45.68519" lon="5.27492">
        <ele>349</ele>
        <time>2025-05-27T09:28:25Z</time>
      </trkpt>
      <trkpt lat="45.68516" lon="5.27495">
        <ele>349</ele>
        <time>2025-05-27T09:28:26Z</time>
      </trkpt>
      <trkpt lat="45.68513" lon="5.275">
        <ele>349.6</ele>
        <time>2025-05-27T09:28:27Z</time>
      </trkpt>
      <trkpt lat="45.68511" lon="5.27504">
        <ele>349.8</ele>
        <time>2025-05-27T09:28:28Z</time>
      </trkpt>
      <trkpt lat="45.68508" lon="5.27508">
        <ele>350.2</ele>
        <time>2025-05-27T09:28:29Z</time>
      </trkpt>
      <trkpt lat="45.68505" lon="5.27513">
        <ele>350.2</ele>
        <time>2025-05-27T09:28:30Z</time>
      </trkpt>
      <trkpt lat="45.68501" lon="5.27518">
        <ele>350.4</ele>
        <time>2025-05-27T09:28:31Z</time>
      </trkpt>
      <trkpt lat="45.68498" lon="5.27522">
        <ele>350.4</ele>
        <time>2025-05-27T09:28:32Z</time>
      </trkpt>
      <trkpt lat="45.68496" lon="5.27526">
        <ele>349.6</ele>
        <time>2025-05-27T09:28:33Z</time>
      </trkpt>
      <trkpt lat="45.68493" lon="5.27531">
        <ele>350.2</ele>
        <time>2025-05-27T09:28:34Z</time>
      </trkpt>
      <trkpt lat="45.6849" lon="5.27535">
        <ele>350.2</ele>
        <time>2025-05-27T09:28:35Z</time>
      </trkpt>
      <trkpt lat="45.68486" lon="5.2754">
        <ele>350.2</ele>
        <time>2025-05-27T09:28:36Z</time>
      </trkpt>
      <trkpt lat="45.68483" lon="5.27544">
        <ele>350.2</ele>
        <time>2025-05-27T09:28:37Z</time>
      </trkpt>
      <trkpt lat="45.6848" lon="5.27547">
        <ele>350.2</ele>
        <time>2025-05-27T09:28:38Z</time>
      </trkpt>
      <trkpt lat="45.68479" lon="5.27548">
        <ele>350.6</ele>
        <time>2025-05-27T09:28:39Z</time>
      </trkpt>
      <trkpt lat="45.68478" lon="5.27549">
        <ele>350.6</ele>
        <time>2025-05-27T09:28:40Z</time>
      </trkpt>
      <trkpt lat="45.68478" lon="5.27549">
        <ele>350.6</ele>
        <time>2025-05-27T09:28:41Z</time>
      </trkpt>
      <trkpt lat="45.68478" lon="5.27549">
        <ele>351</ele>
        <time>2025-05-27T09:28:42Z</time>
      </trkpt>
      <trkpt lat="45.68479" lon="5.27549">
        <ele>350.6</ele>
        <time>2025-05-27T09:28:59Z</time>
      </trkpt>
      <trkpt lat="45.68479" lon="5.27552">
        <ele>350.6</ele>
        <time>2025-05-27T09:29:00Z</time>
      </trkpt>
      <trkpt lat="45.68479" lon="5.27555">
        <ele>350.6</ele>
        <time>2025-05-27T09:29:01Z</time>
      </trkpt>
      <trkpt lat="45.6848" lon="5.27558">
        <ele>350.6</ele>
        <time>2025-05-27T09:29:02Z</time>
      </trkpt>
      <trkpt lat="45.68481" lon="5.27562">
        <ele>350.2</ele>
        <time>2025-05-27T09:29:03Z</time>
      </trkpt>
      <trkpt lat="45.68482" lon="5.27566">
        <ele>349.8</ele>
        <time>2025-05-27T09:29:04Z</time>
      </trkpt>
      <trkpt lat="45.68482" lon="5.27573">
        <ele>349.4</ele>
        <time>2025-05-27T09:29:05Z</time>
      </trkpt>
      <trkpt lat="45.68482" lon="5.27578">
        <ele>349.8</ele>
        <time>2025-05-27T09:29:06Z</time>
      </trkpt>
      <trkpt lat="45.68482" lon="5.27583">
        <ele>349.6</ele>
        <time>2025-05-27T09:29:07Z</time>
      </trkpt>
      <trkpt lat="45.68481" lon="5.27593">
        <ele>349.2</ele>
        <time>2025-05-27T09:29:08Z</time>
      </trkpt>
      <trkpt lat="45.68481" lon="5.276">
        <ele>349.2</ele>
        <time>2025-05-27T09:29:09Z</time>
      </trkpt>
      <trkpt lat="45.68479" lon="5.27608">
        <ele>348.4</ele>
        <time>2025-05-27T09:29:10Z</time>
      </trkpt>
      <trkpt lat="45.68477" lon="5.27616">
        <ele>348</ele>
        <time>2025-05-27T09:29:11Z</time>
      </trkpt>
      <trkpt lat="45.68475" lon="5.27624">
        <ele>348.4</ele>
        <time>2025-05-27T09:29:12Z</time>
      </trkpt>
      <trkpt lat="45.68472" lon="5.27633">
        <ele>348</ele>
        <time>2025-05-27T09:29:13Z</time>
      </trkpt>
      <trkpt lat="45.68471" lon="5.27641">
        <ele>347.4</ele>
        <time>2025-05-27T09:29:14Z</time>
      </trkpt>
      <trkpt lat="45.68471" lon="5.27647">
        <ele>346.8</ele>
        <time>2025-05-27T09:29:15Z</time>
      </trkpt>
      <trkpt lat="45.68469" lon="5.27656">
        <ele>345.8</ele>
        <time>2025-05-27T09:29:16Z</time>
      </trkpt>
      <trkpt lat="45.68469" lon="5.27662">
        <ele>345.6</ele>
        <time>2025-05-27T09:29:17Z</time>
      </trkpt>
      <trkpt lat="45.68469" lon="5.27668">
        <ele>345.4</ele>
        <time>2025-05-27T09:29:18Z</time>
      </trkpt>
      <trkpt lat="45.68469" lon="5.27675">
        <ele>345.4</ele>
        <time>2025-05-27T09:29:19Z</time>
      </trkpt>
      <trkpt lat="45.68469" lon="5.27682">
        <ele>344.2</ele>
        <time>2025-05-27T09:29:20Z</time>
      </trkpt>
      <trkpt lat="45.68471" lon="5.27687">
        <ele>344</ele>
        <time>2025-05-27T09:29:21Z</time>
      </trkpt>
      <trkpt lat="45.68473" lon="5.27693">
        <ele>343.6</ele>
        <time>2025-05-27T09:29:22Z</time>
      </trkpt>
      <trkpt lat="45.68478" lon="5.27698">
        <ele>343.6</ele>
        <time>2025-05-27T09:29:23Z</time>
      </trkpt>
      <trkpt lat="45.68482" lon="5.27703">
        <ele>342</ele>
        <time>2025-05-27T09:29:24Z</time>
      </trkpt>
      <trkpt lat="45.68483" lon="5.27707">
        <ele>342</ele>
        <time>2025-05-27T09:29:25Z</time>
      </trkpt>
      <trkpt lat="45.68484" lon="5.27708">
        <ele>342.2</ele>
        <time>2025-05-27T09:29:26Z</time>
      </trkpt>
      <trkpt lat="45.68486" lon="5.2771">
        <ele>342.2</ele>
        <time>2025-05-27T09:29:27Z</time>
      </trkpt>
      <trkpt lat="45.68488" lon="5.27712">
        <ele>342.2</ele>
        <time>2025-05-27T09:29:28Z</time>
      </trkpt>
      <trkpt lat="45.68489" lon="5.27714">
        <ele>342.2</ele>
        <time>2025-05-27T09:29:29Z</time>
      </trkpt>
      <trkpt lat="45.68491" lon="5.27719">
        <ele>341.8</ele>
        <time>2025-05-27T09:29:30Z</time>
      </trkpt>
      <trkpt lat="45.68493" lon="5.27723">
        <ele>341.8</ele>
        <time>2025-05-27T09:29:31Z</time>
      </trkpt>
      <trkpt lat="45.68491" lon="5.27726">
        <ele>341.8</ele>
        <time>2025-05-27T09:29:32Z</time>
      </trkpt>
      <trkpt lat="45.68488" lon="5.27729">
        <ele>341.8</ele>
        <time>2025-05-27T09:29:33Z</time>
      </trkpt>
      <trkpt lat="45.68486" lon="5.27733">
        <ele>341.8</ele>
        <time>2025-05-27T09:29:34Z</time>
      </trkpt>
      <trkpt lat="45.68484" lon="5.27735">
        <ele>341.8</ele>
        <time>2025-05-27T09:29:35Z</time>
      </trkpt>
      <trkpt lat="45.6848" lon="5.27737">
        <ele>341.8</ele>
        <time>2025-05-27T09:29:36Z</time>
      </trkpt>
      <trkpt lat="45.68478" lon="5.27739">
        <ele>341.8</ele>
        <time>2025-05-27T09:29:37Z</time>
      </trkpt>
      <trkpt lat="45.68477" lon="5.27739">
        <ele>341.8</ele>
        <time>2025-05-27T09:29:38Z</time>
      </trkpt>
      <trkpt lat="45.68478" lon="5.2774">
        <ele>341.8</ele>
        <time>2025-05-27T09:29:39Z</time>
      </trkpt>
      <trkpt lat="45.68477" lon="5.27742">
        <ele>342.2</ele>
        <time>2025-05-27T09:29:49Z</time>
      </trkpt>
      <trkpt lat="45.68475" lon="5.27744">
        <ele>342</ele>
        <time>2025-05-27T09:29:50Z</time>
      </trkpt>
      <trkpt lat="45.68473" lon="5.27746">
        <ele>342</ele>
        <time>2025-05-27T09:29:51Z</time>
      </trkpt>
      <trkpt lat="45.68472" lon="5.27748">
        <ele>342.4</ele>
        <time>2025-05-27T09:29:52Z</time>
      </trkpt>
      <trkpt lat="45.6847" lon="5.27752">
        <ele>341.6</ele>
        <time>2025-05-27T09:29:53Z</time>
      </trkpt>
      <trkpt lat="45.6847" lon="5.27756">
        <ele>341.4</ele>
        <time>2025-05-27T09:29:54Z</time>
      </trkpt>
      <trkpt lat="45.6847" lon="5.27761">
        <ele>341.4</ele>
        <time>2025-05-27T09:29:55Z</time>
      </trkpt>
      <trkpt lat="45.68472" lon="5.27766">
        <ele>341.2</ele>
        <time>2025-05-27T09:29:56Z</time>
      </trkpt>
      <trkpt lat="45.68475" lon="5.27771">
        <ele>341</ele>
        <time>2025-05-27T09:29:57Z</time>
      </trkpt>
      <trkpt lat="45.68477" lon="5.27776">
        <ele>340.6</ele>
        <time>2025-05-27T09:29:58Z</time>
      </trkpt>
      <trkpt lat="45.68479" lon="5.2778">
        <ele>340.6</ele>
        <time>2025-05-27T09:29:59Z</time>
      </trkpt>
      <trkpt lat="45.68482" lon="5.27784">
        <ele>340.6</ele>
        <time>2025-05-27T09:30:00Z</time>
      </trkpt>
      <trkpt lat="45.68486" lon="5.27791">
        <ele>340.6</ele>
        <time>2025-05-27T09:30:01Z</time>
      </trkpt>
      <trkpt lat="45.68487" lon="5.27797">
        <ele>340.6</ele>
        <time>2025-05-27T09:30:02Z</time>
      </trkpt>
      <trkpt lat="45.68489" lon="5.27802">
        <ele>340.4</ele>
        <time>2025-05-27T09:30:03Z</time>
      </trkpt>
      <trkpt lat="45.6849" lon="5.27806">
        <ele>340</ele>
        <time>2025-05-27T09:30:04Z</time>
      </trkpt>
      <trkpt lat="45.68488" lon="5.27808">
        <ele>339.8</ele>
        <time>2025-05-27T09:30:05Z</time>
      </trkpt>
      <trkpt lat="45.68485" lon="5.27812">
        <ele>339.8</ele>
        <time>2025-05-27T09:30:06Z</time>
      </trkpt>
      <trkpt lat="45.68483" lon="5.27813">
        <ele>339.8</ele>
        <time>2025-05-27T09:30:07Z</time>
      </trkpt>
      <trkpt lat="45.68481" lon="5.27814">
        <ele>339.8</ele>
        <time>2025-05-27T09:30:08Z</time>
      </trkpt>
      <trkpt lat="45.68478" lon="5.27816">
        <ele>339.8</ele>
        <time>2025-05-27T09:30:09Z</time>
      </trkpt>
      <trkpt lat="45.68476" lon="5.27816">
        <ele>340.4</ele>
        <time>2025-05-27T09:30:10Z</time>
      </trkpt>
      <trkpt lat="45.68473" lon="5.27817">
        <ele>340.6</ele>
        <time>2025-05-27T09:30:11Z</time>
      </trkpt>
      <trkpt lat="45.6847" lon="5.27817">
        <ele>340.6</ele>
        <time>2025-05-27T09:30:12Z</time>
      </trkpt>
      <trkpt lat="45.68468" lon="5.27817">
        <ele>341</ele>
        <time>2025-05-27T09:30:13Z</time>
      </trkpt>
      <trkpt lat="45.68466" lon="5.27818">
        <ele>341.4</ele>
        <time>2025-05-27T09:30:14Z</time>
      </trkpt>
      <trkpt lat="45.68465" lon="5.27818">
        <ele>341.6</ele>
        <time>2025-05-27T09:30:15Z</time>
      </trkpt>
      <trkpt lat="45.68463" lon="5.27818">
        <ele>342</ele>
        <time>2025-05-27T09:30:16Z</time>
      </trkpt>
      <trkpt lat="45.68462" lon="5.27819">
        <ele>342.4</ele>
        <time>2025-05-27T09:30:17Z</time>
      </trkpt>
      <trkpt lat="45.68461" lon="5.2782">
        <ele>342.8</ele>
        <time>2025-05-27T09:30:18Z</time>
      </trkpt>
      <trkpt lat="45.68459" lon="5.27821">
        <ele>343</ele>
        <time>2025-05-27T09:30:19Z</time>
      </trkpt>
      <trkpt lat="45.68458" lon="5.27822">
        <ele>343</ele>
        <time>2025-05-27T09:30:20Z</time>
      </trkpt>
      <trkpt lat="45.68457" lon="5.27823">
        <ele>343.6</ele>
        <time>2025-05-27T09:30:21Z</time>
      </trkpt>
      <trkpt lat="45.68456" lon="5.27824">
        <ele>344</ele>
        <time>2025-05-27T09:30:22Z</time>
      </trkpt>
      <trkpt lat="45.68454" lon="5.27825">
        <ele>344</ele>
        <time>2025-05-27T09:30:23Z</time>
      </trkpt>
      <trkpt lat="45.68453" lon="5.27827">
        <ele>344.6</ele>
        <time>2025-05-27T09:30:24Z</time>
      </trkpt>
      <trkpt lat="45.68451" lon="5.27828">
        <ele>345.2</ele>
        <time>2025-05-27T09:30:25Z</time>
      </trkpt>
      <trkpt lat="45.68451" lon="5.27828">
        <ele>345.4</ele>
        <time>2025-05-27T09:30:26Z</time>
      </trkpt>
      <trkpt lat="45.6845" lon="5.27829">
        <ele>345.4</ele>
        <time>2025-05-27T09:30:27Z</time>
      </trkpt>
      <trkpt lat="45.68449" lon="5.2783">
        <ele>345.8</ele>
        <time>2025-05-27T09:30:28Z</time>
      </trkpt>
      <trkpt lat="45.68448" lon="5.27831">
        <ele>345.8</ele>
        <time>2025-05-27T09:30:29Z</time>
      </trkpt>
      <trkpt lat="45.68447" lon="5.27832">
        <ele>346.2</ele>
        <time>2025-05-27T09:30:30Z</time>
      </trkpt>
      <trkpt lat="45.68446" lon="5.27833">
        <ele>346.8</ele>
        <time>2025-05-27T09:30:31Z</time>
      </trkpt>
      <trkpt lat="45.68445" lon="5.27833">
        <ele>347.2</ele>
        <time>2025-05-27T09:30:32Z</time>
      </trkpt>
      <trkpt lat="45.68444" lon="5.27834">
        <ele>347.2</ele>
        <time>2025-05-27T09:30:33Z</time>
      </trkpt>
      <trkpt lat="45.68443" lon="5.27835">
        <ele>347.6</ele>
        <time>2025-05-27T09:30:34Z</time>
      </trkpt>
      <trkpt lat="45.68442" lon="5.27836">
        <ele>347.8</ele>
        <time>2025-05-27T09:30:35Z</time>
      </trkpt>
      <trkpt lat="45.6844" lon="5.27838">
        <ele>348</ele>
        <time>2025-05-27T09:30:36Z</time>
      </trkpt>
      <trkpt lat="45.68438" lon="5.27839">
        <ele>348.4</ele>
        <time>2025-05-27T09:30:37Z</time>
      </trkpt>
      <trkpt lat="45.68438" lon="5.27841">
        <ele>348.4</ele>
        <time>2025-05-27T09:30:38Z</time>
      </trkpt>
      <trkpt lat="45.68437" lon="5.27843">
        <ele>349</ele>
        <time>2025-05-27T09:30:39Z</time>
      </trkpt>
      <trkpt lat="45.68437" lon="5.27845">
        <ele>349</ele>
        <time>2025-05-27T09:30:40Z</time>
      </trkpt>
      <trkpt lat="45.68437" lon="5.27847">
        <ele>349.2</ele>
        <time>2025-05-27T09:30:41Z</time>
      </trkpt>
      <trkpt lat="45.68436" lon="5.27849">
        <ele>349.2</ele>
        <time>2025-05-27T09:30:42Z</time>
      </trkpt>
      <trkpt lat="45.68436" lon="5.2785">
        <ele>349.6</ele>
        <time>2025-05-27T09:30:43Z</time>
      </trkpt>
      <trkpt lat="45.68436" lon="5.27852">
        <ele>349.6</ele>
        <time>2025-05-27T09:30:44Z</time>
      </trkpt>
      <trkpt lat="45.68436" lon="5.27855">
        <ele>350</ele>
        <time>2025-05-27T09:30:45Z</time>
      </trkpt>
      <trkpt lat="45.68435" lon="5.27857">
        <ele>350.2</ele>
        <time>2025-05-27T09:30:46Z</time>
      </trkpt>
      <trkpt lat="45.68435" lon="5.2786">
        <ele>350.4</ele>
        <time>2025-05-27T09:30:47Z</time>
      </trkpt>
      <trkpt lat="45.68434" lon="5.27862">
        <ele>350.4</ele>
        <time>2025-05-27T09:30:48Z</time>
      </trkpt>
      <trkpt lat="45.68433" lon="5.27862">
        <ele>350.8</ele>
        <time>2025-05-27T09:30:49Z</time>
      </trkpt>
      <trkpt lat="45.68432" lon="5.27864">
        <ele>351.2</ele>
        <time>2025-05-27T09:30:50Z</time>
      </trkpt>
      <trkpt lat="45.68432" lon="5.27865">
        <ele>351.4</ele>
        <time>2025-05-27T09:30:51Z</time>
      </trkpt>
      <trkpt lat="45.68432" lon="5.27867">
        <ele>351.8</ele>
        <time>2025-05-27T09:30:52Z</time>
      </trkpt>
      <trkpt lat="45.68432" lon="5.27867">
        <ele>351.8</ele>
        <time>2025-05-27T09:30:53Z</time>
      </trkpt>
      <trkpt lat="45.68431" lon="5.27869">
        <ele>352.2</ele>
        <time>2025-05-27T09:30:54Z</time>
      </trkpt>
      <trkpt lat="45.68431" lon="5.2787">
        <ele>352.2</ele>
        <time>2025-05-27T09:30:55Z</time>
      </trkpt>
      <trkpt lat="45.68431" lon="5.27872">
        <ele>352.6</ele>
        <time>2025-05-27T09:30:56Z</time>
      </trkpt>
      <trkpt lat="45.68431" lon="5.27873">
        <ele>352.6</ele>
        <time>2025-05-27T09:30:57Z</time>
      </trkpt>
      <trkpt lat="45.6843" lon="5.27874">
        <ele>353</ele>
        <time>2025-05-27T09:30:58Z</time>
      </trkpt>
      <trkpt lat="45.68429" lon="5.27876">
        <ele>352.2</ele>
        <time>2025-05-27T09:30:59Z</time>
      </trkpt>
      <trkpt lat="45.68428" lon="5.27878">
        <ele>352.6</ele>
        <time>2025-05-27T09:31:00Z</time>
      </trkpt>
      <trkpt lat="45.68427" lon="5.2788">
        <ele>353</ele>
        <time>2025-05-27T09:31:01Z</time>
      </trkpt>
      <trkpt lat="45.68427" lon="5.27881">
        <ele>353.2</ele>
        <time>2025-05-27T09:31:02Z</time>
      </trkpt>
      <trkpt lat="45.68426" lon="5.27883">
        <ele>353.2</ele>
        <time>2025-05-27T09:31:03Z</time>
      </trkpt>
      <trkpt lat="45.68426" lon="5.27885">
        <ele>353.6</ele>
        <time>2025-05-27T09:31:04Z</time>
      </trkpt>
      <trkpt lat="45.68425" lon="5.27887">
        <ele>353.6</ele>
        <time>2025-05-27T09:31:05Z</time>
      </trkpt>
      <trkpt lat="45.68425" lon="5.27889">
        <ele>353.8</ele>
        <time>2025-05-27T09:31:06Z</time>
      </trkpt>
      <trkpt lat="45.68425" lon="5.27891">
        <ele>353.8</ele>
        <time>2025-05-27T09:31:07Z</time>
      </trkpt>
      <trkpt lat="45.68425" lon="5.27893">
        <ele>354</ele>
        <time>2025-05-27T09:31:08Z</time>
      </trkpt>
      <trkpt lat="45.68425" lon="5.27896">
        <ele>354</ele>
        <time>2025-05-27T09:31:09Z</time>
      </trkpt>
      <trkpt lat="45.68426" lon="5.27898">
        <ele>354</ele>
        <time>2025-05-27T09:31:10Z</time>
      </trkpt>
      <trkpt lat="45.68427" lon="5.27901">
        <ele>354</ele>
        <time>2025-05-27T09:31:11Z</time>
      </trkpt>
      <trkpt lat="45.68428" lon="5.27903">
        <ele>354</ele>
        <time>2025-05-27T09:31:12Z</time>
      </trkpt>
      <trkpt lat="45.68428" lon="5.27907">
        <ele>354</ele>
        <time>2025-05-27T09:31:13Z</time>
      </trkpt>
      <trkpt lat="45.68429" lon="5.2791">
        <ele>354</ele>
        <time>2025-05-27T09:31:14Z</time>
      </trkpt>
      <trkpt lat="45.6843" lon="5.27913">
        <ele>354</ele>
        <time>2025-05-27T09:31:15Z</time>
      </trkpt>
      <trkpt lat="45.68431" lon="5.27914">
        <ele>353.4</ele>
        <time>2025-05-27T09:31:16Z</time>
      </trkpt>
      <trkpt lat="45.68431" lon="5.27916">
        <ele>354.4</ele>
        <time>2025-05-27T09:31:17Z</time>
      </trkpt>
      <trkpt lat="45.68431" lon="5.27918">
        <ele>354.4</ele>
        <time>2025-05-27T09:31:18Z</time>
      </trkpt>
      <trkpt lat="45.68432" lon="5.27921">
        <ele>354</ele>
        <time>2025-05-27T09:31:19Z</time>
      </trkpt>
      <trkpt lat="45.68433" lon="5.27924">
        <ele>354</ele>
        <time>2025-05-27T09:31:20Z</time>
      </trkpt>
      <trkpt lat="45.68434" lon="5.27927">
        <ele>354</ele>
        <time>2025-05-27T09:31:21Z</time>
      </trkpt>
      <trkpt lat="45.68435" lon="5.27931">
        <ele>353.4</ele>
        <time>2025-05-27T09:31:22Z</time>
      </trkpt>
      <trkpt lat="45.68436" lon="5.27937">
        <ele>353</ele>
        <time>2025-05-27T09:31:23Z</time>
      </trkpt>
      <trkpt lat="45.68436" lon="5.27942">
        <ele>353</ele>
        <time>2025-05-27T09:31:24Z</time>
      </trkpt>
      <trkpt lat="45.68436" lon="5.27947">
        <ele>352.4</ele>
        <time>2025-05-27T09:31:25Z</time>
      </trkpt>
      <trkpt lat="45.68435" lon="5.27952">
        <ele>352.4</ele>
        <time>2025-05-27T09:31:26Z</time>
      </trkpt>
      <trkpt lat="45.68434" lon="5.27957">
        <ele>352.4</ele>
        <time>2025-05-27T09:31:27Z</time>
      </trkpt>
      <trkpt lat="45.68432" lon="5.27961">
        <ele>352.4</ele>
        <time>2025-05-27T09:31:28Z</time>
      </trkpt>
      <trkpt lat="45.68431" lon="5.27965">
        <ele>352.4</ele>
        <time>2025-05-27T09:31:29Z</time>
      </trkpt>
      <trkpt lat="45.68428" lon="5.27968">
        <ele>352</ele>
        <time>2025-05-27T09:31:30Z</time>
      </trkpt>
      <trkpt lat="45.68427" lon="5.27972">
        <ele>352</ele>
        <time>2025-05-27T09:31:31Z</time>
      </trkpt>
      <trkpt lat="45.68425" lon="5.27975">
        <ele>352.4</ele>
        <time>2025-05-27T09:31:32Z</time>
      </trkpt>
      <trkpt lat="45.68424" lon="5.27979">
        <ele>352.8</ele>
        <time>2025-05-27T09:31:33Z</time>
      </trkpt>
      <trkpt lat="45.68422" lon="5.27983">
        <ele>352.4</ele>
        <time>2025-05-27T09:31:34Z</time>
      </trkpt>
      <trkpt lat="45.68421" lon="5.27988">
        <ele>352.2</ele>
        <time>2025-05-27T09:31:35Z</time>
      </trkpt>
      <trkpt lat="45.6842" lon="5.27993">
        <ele>352.2</ele>
        <time>2025-05-27T09:31:36Z</time>
      </trkpt>
      <trkpt lat="45.6842" lon="5.27998">
        <ele>351.8</ele>
        <time>2025-05-27T09:31:37Z</time>
      </trkpt>
      <trkpt lat="45.6842" lon="5.28003">
        <ele>351.8</ele>
        <time>2025-05-27T09:31:38Z</time>
      </trkpt>
      <trkpt lat="45.68419" lon="5.28009">
        <ele>351.8</ele>
        <time>2025-05-27T09:31:39Z</time>
      </trkpt>
      <trkpt lat="45.68416" lon="5.28018">
        <ele>351.8</ele>
        <time>2025-05-27T09:31:40Z</time>
      </trkpt>
      <trkpt lat="45.68414" lon="5.28024">
        <ele>351.2</ele>
        <time>2025-05-27T09:31:41Z</time>
      </trkpt>
      <trkpt lat="45.68411" lon="5.28029">
        <ele>350.8</ele>
        <time>2025-05-27T09:31:42Z</time>
      </trkpt>
      <trkpt lat="45.68408" lon="5.28034">
        <ele>350.6</ele>
        <time>2025-05-27T09:31:43Z</time>
      </trkpt>
      <trkpt lat="45.68405" lon="5.28038">
        <ele>350.6</ele>
        <time>2025-05-27T09:31:44Z</time>
      </trkpt>
      <trkpt lat="45.68401" lon="5.28037">
        <ele>350.8</ele>
        <time>2025-05-27T09:31:45Z</time>
      </trkpt>
      <trkpt lat="45.68397" lon="5.28038">
        <ele>351</ele>
        <time>2025-05-27T09:31:46Z</time>
      </trkpt>
      <trkpt lat="45.68394" lon="5.28038">
        <ele>351.4</ele>
        <time>2025-05-27T09:31:47Z</time>
      </trkpt>
      <trkpt lat="45.68391" lon="5.28039">
        <ele>351.6</ele>
        <time>2025-05-27T09:31:48Z</time>
      </trkpt>
      <trkpt lat="45.68388" lon="5.28041">
        <ele>351.8</ele>
        <time>2025-05-27T09:31:49Z</time>
      </trkpt>
      <trkpt lat="45.68385" lon="5.28045">
        <ele>352.2</ele>
        <time>2025-05-27T09:31:50Z</time>
      </trkpt>
      <trkpt lat="45.68383" lon="5.28048">
        <ele>351.8</ele>
        <time>2025-05-27T09:31:51Z</time>
      </trkpt>
      <trkpt lat="45.68381" lon="5.28052">
        <ele>352.2</ele>
        <time>2025-05-27T09:31:52Z</time>
      </trkpt>
      <trkpt lat="45.68379" lon="5.28056">
        <ele>352.2</ele>
        <time>2025-05-27T09:31:53Z</time>
      </trkpt>
      <trkpt lat="45.68376" lon="5.2806">
        <ele>352.2</ele>
        <time>2025-05-27T09:31:54Z</time>
      </trkpt>
      <trkpt lat="45.68375" lon="5.28063">
        <ele>352.2</ele>
        <time>2025-05-27T09:31:55Z</time>
      </trkpt>
      <trkpt lat="45.68372" lon="5.28067">
        <ele>352.2</ele>
        <time>2025-05-27T09:31:56Z</time>
      </trkpt>
      <trkpt lat="45.6837" lon="5.2807">
        <ele>352.2</ele>
        <time>2025-05-27T09:31:57Z</time>
      </trkpt>
      <trkpt lat="45.68366" lon="5.28078">
        <ele>352</ele>
        <time>2025-05-27T09:31:58Z</time>
      </trkpt>
      <trkpt lat="45.68363" lon="5.28082">
        <ele>352</ele>
        <time>2025-05-27T09:31:59Z</time>
      </trkpt>
      <trkpt lat="45.68359" lon="5.28085">
        <ele>352</ele>
        <time>2025-05-27T09:32:00Z</time>
      </trkpt>
      <trkpt lat="45.68356" lon="5.28088">
        <ele>352</ele>
        <time>2025-05-27T09:32:01Z</time>
      </trkpt>
      <trkpt lat="45.68356" lon="5.28088">
        <ele>352</ele>
        <time>2025-05-27T09:32:02Z</time>
      </trkpt>
      <trkpt lat="45.68356" lon="5.28088">
        <ele>352</ele>
        <time>2025-05-27T09:32:03Z</time>
      </trkpt>
      <trkpt lat="45.68346" lon="5.28083">
        <ele>352.4</ele>
        <time>2025-05-27T09:32:05Z</time>
      </trkpt>
      <trkpt lat="45.68344" lon="5.28081">
        <ele>352.8</ele>
        <time>2025-05-27T09:32:06Z</time>
      </trkpt>
      <trkpt lat="45.68341" lon="5.2808">
        <ele>352.8</ele>
        <time>2025-05-27T09:32:07Z</time>
      </trkpt>
      <trkpt lat="45.68339" lon="5.28079">
        <ele>353</ele>
        <time>2025-05-27T09:32:08Z</time>
      </trkpt>
      <trkpt lat="45.68336" lon="5.28077">
        <ele>353</ele>
        <time>2025-05-27T09:32:09Z</time>
      </trkpt>
      <trkpt lat="45.68334" lon="5.28075">
        <ele>353</ele>
        <time>2025-05-27T09:32:10Z</time>
      </trkpt>
      <trkpt lat="45.68331" lon="5.28073">
        <ele>353.6</ele>
        <time>2025-05-27T09:32:11Z</time>
      </trkpt>
      <trkpt lat="45.68328" lon="5.28071">
        <ele>353.6</ele>
        <time>2025-05-27T09:32:12Z</time>
      </trkpt>
      <trkpt lat="45.68326" lon="5.28069">
        <ele>354.2</ele>
        <time>2025-05-27T09:32:13Z</time>
      </trkpt>
      <trkpt lat="45.68325" lon="5.28069">
        <ele>354.2</ele>
        <time>2025-05-27T09:32:14Z</time>
      </trkpt>
      <trkpt lat="45.68323" lon="5.28067">
        <ele>354.6</ele>
        <time>2025-05-27T09:32:15Z</time>
      </trkpt>
      <trkpt lat="45.68321" lon="5.28065">
        <ele>355</ele>
        <time>2025-05-27T09:32:16Z</time>
      </trkpt>
      <trkpt lat="45.68319" lon="5.28063">
        <ele>355</ele>
        <time>2025-05-27T09:32:17Z</time>
      </trkpt>
      <trkpt lat="45.68317" lon="5.28061">
        <ele>355</ele>
        <time>2025-05-27T09:32:18Z</time>
      </trkpt>
      <trkpt lat="45.68315" lon="5.28058">
        <ele>355.4</ele>
        <time>2025-05-27T09:32:19Z</time>
      </trkpt>
      <trkpt lat="45.68313" lon="5.28055">
        <ele>355.4</ele>
        <time>2025-05-27T09:32:20Z</time>
      </trkpt>
      <trkpt lat="45.68311" lon="5.28053">
        <ele>355.4</ele>
        <time>2025-05-27T09:32:21Z</time>
      </trkpt>
      <trkpt lat="45.68308" lon="5.2805">
        <ele>355.4</ele>
        <time>2025-05-27T09:32:22Z</time>
      </trkpt>
      <trkpt lat="45.68306" lon="5.28047">
        <ele>355.6</ele>
        <time>2025-05-27T09:32:23Z</time>
      </trkpt>
      <trkpt lat="45.68303" lon="5.28044">
        <ele>355.6</ele>
        <time>2025-05-27T09:32:24Z</time>
      </trkpt>
      <trkpt lat="45.683" lon="5.28041">
        <ele>355.6</ele>
        <time>2025-05-27T09:32:25Z</time>
      </trkpt>
      <trkpt lat="45.68298" lon="5.28039">
        <ele>355.4</ele>
        <time>2025-05-27T09:32:26Z</time>
      </trkpt>
      <trkpt lat="45.68296" lon="5.28036">
        <ele>355.4</ele>
        <time>2025-05-27T09:32:27Z</time>
      </trkpt>
      <trkpt lat="45.68294" lon="5.28034">
        <ele>356.2</ele>
        <time>2025-05-27T09:32:28Z</time>
      </trkpt>
      <trkpt lat="45.68291" lon="5.28031">
        <ele>355</ele>
        <time>2025-05-27T09:32:29Z</time>
      </trkpt>
      <trkpt lat="45.6829" lon="5.28029">
        <ele>355.4</ele>
        <time>2025-05-27T09:32:30Z</time>
      </trkpt>
      <trkpt lat="45.68288" lon="5.28028">
        <ele>355.4</ele>
        <time>2025-05-27T09:32:31Z</time>
      </trkpt>
      <trkpt lat="45.68286" lon="5.28025">
        <ele>355.4</ele>
        <time>2025-05-27T09:32:32Z</time>
      </trkpt>
      <trkpt lat="45.68285" lon="5.28023">
        <ele>355.8</ele>
        <time>2025-05-27T09:32:33Z</time>
      </trkpt>
      <trkpt lat="45.68283" lon="5.2802">
        <ele>355.8</ele>
        <time>2025-05-27T09:32:34Z</time>
      </trkpt>
      <trkpt lat="45.68282" lon="5.28019">
        <ele>355.8</ele>
        <time>2025-05-27T09:32:35Z</time>
      </trkpt>
      <trkpt lat="45.68281" lon="5.28017">
        <ele>355.8</ele>
        <time>2025-05-27T09:32:36Z</time>
      </trkpt>
      <trkpt lat="45.6828" lon="5.28015">
        <ele>356</ele>
        <time>2025-05-27T09:32:37Z</time>
      </trkpt>
      <trkpt lat="45.68277" lon="5.28012">
        <ele>356</ele>
        <time>2025-05-27T09:32:38Z</time>
      </trkpt>
      <trkpt lat="45.68275" lon="5.2801">
        <ele>356</ele>
        <time>2025-05-27T09:32:39Z</time>
      </trkpt>
      <trkpt lat="45.68273" lon="5.28008">
        <ele>355.8</ele>
        <time>2025-05-27T09:32:40Z</time>
      </trkpt>
      <trkpt lat="45.68271" lon="5.28005">
        <ele>356.2</ele>
        <time>2025-05-27T09:32:41Z</time>
      </trkpt>
      <trkpt lat="45.68269" lon="5.28002">
        <ele>356.2</ele>
        <time>2025-05-27T09:32:42Z</time>
      </trkpt>
      <trkpt lat="45.68267" lon="5.28">
        <ele>356.8</ele>
        <time>2025-05-27T09:32:43Z</time>
      </trkpt>
      <trkpt lat="45.68265" lon="5.27997">
        <ele>356.8</ele>
        <time>2025-05-27T09:32:44Z</time>
      </trkpt>
      <trkpt lat="45.68263" lon="5.27995">
        <ele>357</ele>
        <time>2025-05-27T09:32:45Z</time>
      </trkpt>
      <trkpt lat="45.68261" lon="5.27992">
        <ele>357</ele>
        <time>2025-05-27T09:32:46Z</time>
      </trkpt>
      <trkpt lat="45.68261" lon="5.27992">
        <ele>357</ele>
        <time>2025-05-27T09:32:47Z</time>
      </trkpt>
      <trkpt lat="45.68257" lon="5.27987">
        <ele>357</ele>
        <time>2025-05-27T09:32:48Z</time>
      </trkpt>
      <trkpt lat="45.68255" lon="5.27985">
        <ele>357.8</ele>
        <time>2025-05-27T09:32:49Z</time>
      </trkpt>
      <trkpt lat="45.68253" lon="5.27983">
        <ele>357.8</ele>
        <time>2025-05-27T09:32:50Z</time>
      </trkpt>
      <trkpt lat="45.68252" lon="5.27981">
        <ele>358.2</ele>
        <time>2025-05-27T09:32:51Z</time>
      </trkpt>
      <trkpt lat="45.68251" lon="5.2798">
        <ele>358.2</ele>
        <time>2025-05-27T09:32:52Z</time>
      </trkpt>
      <trkpt lat="45.68251" lon="5.27979">
        <ele>358.2</ele>
        <time>2025-05-27T09:32:53Z</time>
      </trkpt>
      <trkpt lat="45.6825" lon="5.27977">
        <ele>358.2</ele>
        <time>2025-05-27T09:32:54Z</time>
      </trkpt>
      <trkpt lat="45.68248" lon="5.27976">
        <ele>357.2</ele>
        <time>2025-05-27T09:32:55Z</time>
      </trkpt>
      <trkpt lat="45.68246" lon="5.27976">
        <ele>357.8</ele>
        <time>2025-05-27T09:32:56Z</time>
      </trkpt>
      <trkpt lat="45.68243" lon="5.27976">
        <ele>358</ele>
        <time>2025-05-27T09:32:57Z</time>
      </trkpt>
      <trkpt lat="45.68241" lon="5.27977">
        <ele>358</ele>
        <time>2025-05-27T09:32:58Z</time>
      </trkpt>
      <trkpt lat="45.68238" lon="5.27979">
        <ele>358</ele>
        <time>2025-05-27T09:32:59Z</time>
      </trkpt>
      <trkpt lat="45.68236" lon="5.2798">
        <ele>358.4</ele>
        <time>2025-05-27T09:33:00Z</time>
      </trkpt>
      <trkpt lat="45.68233" lon="5.27981">
        <ele>358.4</ele>
        <time>2025-05-27T09:33:01Z</time>
      </trkpt>
      <trkpt lat="45.6823" lon="5.27983">
        <ele>358.4</ele>
        <time>2025-05-27T09:33:02Z</time>
      </trkpt>
      <trkpt lat="45.68227" lon="5.27984">
        <ele>357.6</ele>
        <time>2025-05-27T09:33:03Z</time>
      </trkpt>
      <trkpt lat="45.68225" lon="5.27985">
        <ele>358.4</ele>
        <time>2025-05-27T09:33:04Z</time>
      </trkpt>
      <trkpt lat="45.68222" lon="5.27986">
        <ele>358.6</ele>
        <time>2025-05-27T09:33:05Z</time>
      </trkpt>
      <trkpt lat="45.6822" lon="5.27988">
        <ele>359.2</ele>
        <time>2025-05-27T09:33:06Z</time>
      </trkpt>
      <trkpt lat="45.68217" lon="5.2799">
        <ele>359.2</ele>
        <time>2025-05-27T09:33:07Z</time>
      </trkpt>
      <trkpt lat="45.68214" lon="5.27991">
        <ele>359.2</ele>
        <time>2025-05-27T09:33:08Z</time>
      </trkpt>
      <trkpt lat="45.68211" lon="5.27992">
        <ele>360</ele>
        <time>2025-05-27T09:33:09Z</time>
      </trkpt>
      <trkpt lat="45.68208" lon="5.27994">
        <ele>359.8</ele>
        <time>2025-05-27T09:33:10Z</time>
      </trkpt>
      <trkpt lat="45.68205" lon="5.27995">
        <ele>359.4</ele>
        <time>2025-05-27T09:33:11Z</time>
      </trkpt>
      <trkpt lat="45.68203" lon="5.27997">
        <ele>359</ele>
        <time>2025-05-27T09:33:12Z</time>
      </trkpt>
      <trkpt lat="45.682" lon="5.27999">
        <ele>358.8</ele>
        <time>2025-05-27T09:33:13Z</time>
      </trkpt>
      <trkpt lat="45.68197" lon="5.28">
        <ele>358.8</ele>
        <time>2025-05-27T09:33:14Z</time>
      </trkpt>
      <trkpt lat="45.68194" lon="5.28002">
        <ele>358.4</ele>
        <time>2025-05-27T09:33:15Z</time>
      </trkpt>
      <trkpt lat="45.6819" lon="5.28004">
        <ele>358.4</ele>
        <time>2025-05-27T09:33:16Z</time>
      </trkpt>
      <trkpt lat="45.68186" lon="5.28006">
        <ele>358.4</ele>
        <time>2025-05-27T09:33:17Z</time>
      </trkpt>
      <trkpt lat="45.68182" lon="5.28008">
        <ele>358.2</ele>
        <time>2025-05-27T09:33:18Z</time>
      </trkpt>
      <trkpt lat="45.68178" lon="5.28012">
        <ele>358.2</ele>
        <time>2025-05-27T09:33:19Z</time>
      </trkpt>
      <trkpt lat="45.68173" lon="5.28014">
        <ele>358.2</ele>
        <time>2025-05-27T09:33:20Z</time>
      </trkpt>
      <trkpt lat="45.68169" lon="5.28016">
        <ele>357.8</ele>
        <time>2025-05-27T09:33:21Z</time>
      </trkpt>
      <trkpt lat="45.68165" lon="5.28018">
        <ele>357.8</ele>
        <time>2025-05-27T09:33:22Z</time>
      </trkpt>
      <trkpt lat="45.6816" lon="5.28021">
        <ele>357.8</ele>
        <time>2025-05-27T09:33:23Z</time>
      </trkpt>
      <trkpt lat="45.68156" lon="5.28023">
        <ele>357.6</ele>
        <time>2025-05-27T09:33:24Z</time>
      </trkpt>
      <trkpt lat="45.68152" lon="5.28027">
        <ele>357.6</ele>
        <time>2025-05-27T09:33:25Z</time>
      </trkpt>
      <trkpt lat="45.68148" lon="5.28029">
        <ele>357.6</ele>
        <time>2025-05-27T09:33:26Z</time>
      </trkpt>
      <trkpt lat="45.68142" lon="5.28031">
        <ele>357.6</ele>
        <time>2025-05-27T09:33:27Z</time>
      </trkpt>
      <trkpt lat="45.6814" lon="5.28033">
        <ele>357.6</ele>
        <time>2025-05-27T09:33:28Z</time>
      </trkpt>
      <trkpt lat="45.68135" lon="5.28035">
        <ele>357.6</ele>
        <time>2025-05-27T09:33:29Z</time>
      </trkpt>
      <trkpt lat="45.6813" lon="5.28037">
        <ele>357.6</ele>
        <time>2025-05-27T09:33:30Z</time>
      </trkpt>
      <trkpt lat="45.68124" lon="5.2804">
        <ele>357.6</ele>
        <time>2025-05-27T09:33:31Z</time>
      </trkpt>
      <trkpt lat="45.68119" lon="5.28044">
        <ele>357.6</ele>
        <time>2025-05-27T09:33:32Z</time>
      </trkpt>
      <trkpt lat="45.68114" lon="5.28047">
        <ele>357.6</ele>
        <time>2025-05-27T09:33:33Z</time>
      </trkpt>
      <trkpt lat="45.68108" lon="5.2805">
        <ele>357.6</ele>
        <time>2025-05-27T09:33:34Z</time>
      </trkpt>
      <trkpt lat="45.68103" lon="5.28053">
        <ele>357.6</ele>
        <time>2025-05-27T09:33:35Z</time>
      </trkpt>
      <trkpt lat="45.68098" lon="5.28056">
        <ele>357.6</ele>
        <time>2025-05-27T09:33:36Z</time>
      </trkpt>
      <trkpt lat="45.68092" lon="5.28059">
        <ele>357.6</ele>
        <time>2025-05-27T09:33:37Z</time>
      </trkpt>
      <trkpt lat="45.68087" lon="5.28061">
        <ele>357.6</ele>
        <time>2025-05-27T09:33:38Z</time>
      </trkpt>
      <trkpt lat="45.68082" lon="5.28065">
        <ele>357.2</ele>
        <time>2025-05-27T09:33:39Z</time>
      </trkpt>
      <trkpt lat="45.68077" lon="5.28067">
        <ele>357.4</ele>
        <time>2025-05-27T09:33:40Z</time>
      </trkpt>
      <trkpt lat="45.68073" lon="5.28071">
        <ele>357.4</ele>
        <time>2025-05-27T09:33:41Z</time>
      </trkpt>
      <trkpt lat="45.68068" lon="5.28073">
        <ele>357.4</ele>
        <time>2025-05-27T09:33:42Z</time>
      </trkpt>
      <trkpt lat="45.68063" lon="5.28076">
        <ele>357.4</ele>
        <time>2025-05-27T09:33:43Z</time>
      </trkpt>
      <trkpt lat="45.68059" lon="5.28078">
        <ele>357.8</ele>
        <time>2025-05-27T09:33:44Z</time>
      </trkpt>
      <trkpt lat="45.68055" lon="5.28082">
        <ele>357.8</ele>
        <time>2025-05-27T09:33:45Z</time>
      </trkpt>
      <trkpt lat="45.6805" lon="5.28084">
        <ele>358.2</ele>
        <time>2025-05-27T09:33:46Z</time>
      </trkpt>
      <trkpt lat="45.68046" lon="5.28087">
        <ele>358.4</ele>
        <time>2025-05-27T09:33:47Z</time>
      </trkpt>
      <trkpt lat="45.68042" lon="5.28091">
        <ele>358.4</ele>
        <time>2025-05-27T09:33:48Z</time>
      </trkpt>
      <trkpt lat="45.68038" lon="5.28095">
        <ele>358.8</ele>
        <time>2025-05-27T09:33:49Z</time>
      </trkpt>
      <trkpt lat="45.68034" lon="5.28098">
        <ele>358.8</ele>
        <time>2025-05-27T09:33:50Z</time>
      </trkpt>
      <trkpt lat="45.6803" lon="5.28101">
        <ele>358.8</ele>
        <time>2025-05-27T09:33:51Z</time>
      </trkpt>
      <trkpt lat="45.68026" lon="5.28105">
        <ele>358.8</ele>
        <time>2025-05-27T09:33:52Z</time>
      </trkpt>
      <trkpt lat="45.68021" lon="5.28109">
        <ele>358.8</ele>
        <time>2025-05-27T09:33:53Z</time>
      </trkpt>
      <trkpt lat="45.68017" lon="5.28112">
        <ele>359.2</ele>
        <time>2025-05-27T09:33:54Z</time>
      </trkpt>
      <trkpt lat="45.68012" lon="5.28116">
        <ele>359.4</ele>
        <time>2025-05-27T09:33:55Z</time>
      </trkpt>
      <trkpt lat="45.68008" lon="5.2812">
        <ele>359.4</ele>
        <time>2025-05-27T09:33:56Z</time>
      </trkpt>
      <trkpt lat="45.68004" lon="5.28123">
        <ele>359.4</ele>
        <time>2025-05-27T09:33:57Z</time>
      </trkpt>
      <trkpt lat="45.68" lon="5.28124">
        <ele>359.4</ele>
        <time>2025-05-27T09:33:58Z</time>
      </trkpt>
      <trkpt lat="45.67997" lon="5.28127">
        <ele>359.4</ele>
        <time>2025-05-27T09:33:59Z</time>
      </trkpt>
      <trkpt lat="45.67992" lon="5.28129">
        <ele>359.4</ele>
        <time>2025-05-27T09:34:00Z</time>
      </trkpt>
      <trkpt lat="45.67988" lon="5.28131">
        <ele>359.4</ele>
        <time>2025-05-27T09:34:01Z</time>
      </trkpt>
      <trkpt lat="45.67985" lon="5.28132">
        <ele>359.4</ele>
        <time>2025-05-27T09:34:02Z</time>
      </trkpt>
      <trkpt lat="45.67981" lon="5.28134">
        <ele>359.4</ele>
        <time>2025-05-27T09:34:03Z</time>
      </trkpt>
      <trkpt lat="45.67977" lon="5.28136">
        <ele>359.6</ele>
        <time>2025-05-27T09:34:04Z</time>
      </trkpt>
      <trkpt lat="45.67974" lon="5.28137">
        <ele>359.6</ele>
        <time>2025-05-27T09:34:05Z</time>
      </trkpt>
      <trkpt lat="45.6797" lon="5.28139">
        <ele>359.6</ele>
        <time>2025-05-27T09:34:06Z</time>
      </trkpt>
      <trkpt lat="45.67967" lon="5.2814">
        <ele>360</ele>
        <time>2025-05-27T09:34:07Z</time>
      </trkpt>
      <trkpt lat="45.67964" lon="5.28141">
        <ele>360.2</ele>
        <time>2025-05-27T09:34:08Z</time>
      </trkpt>
      <trkpt lat="45.67961" lon="5.28142">
        <ele>360.2</ele>
        <time>2025-05-27T09:34:09Z</time>
      </trkpt>
      <trkpt lat="45.67959" lon="5.28143">
        <ele>360.6</ele>
        <time>2025-05-27T09:34:10Z</time>
      </trkpt>
      <trkpt lat="45.67956" lon="5.28144">
        <ele>360.6</ele>
        <time>2025-05-27T09:34:11Z</time>
      </trkpt>
      <trkpt lat="45.67953" lon="5.28145">
        <ele>360.6</ele>
        <time>2025-05-27T09:34:12Z</time>
      </trkpt>
      <trkpt lat="45.6795" lon="5.28147">
        <ele>360.6</ele>
        <time>2025-05-27T09:34:13Z</time>
      </trkpt>
      <trkpt lat="45.67947" lon="5.28149">
        <ele>360.6</ele>
        <time>2025-05-27T09:34:14Z</time>
      </trkpt>
      <trkpt lat="45.67944" lon="5.2815">
        <ele>361</ele>
        <time>2025-05-27T09:34:15Z</time>
      </trkpt>
      <trkpt lat="45.6794" lon="5.28151">
        <ele>361</ele>
        <time>2025-05-27T09:34:16Z</time>
      </trkpt>
      <trkpt lat="45.67934" lon="5.28153">
        <ele>360.6</ele>
        <time>2025-05-27T09:34:17Z</time>
      </trkpt>
      <trkpt lat="45.67931" lon="5.28155">
        <ele>361.2</ele>
        <time>2025-05-27T09:34:18Z</time>
      </trkpt>
      <trkpt lat="45.67928" lon="5.28157">
        <ele>361.6</ele>
        <time>2025-05-27T09:34:19Z</time>
      </trkpt>
      <trkpt lat="45.67924" lon="5.28158">
        <ele>361.6</ele>
        <time>2025-05-27T09:34:20Z</time>
      </trkpt>
      <trkpt lat="45.67921" lon="5.28159">
        <ele>361.6</ele>
        <time>2025-05-27T09:34:21Z</time>
      </trkpt>
      <trkpt lat="45.67917" lon="5.2816">
        <ele>361.6</ele>
        <time>2025-05-27T09:34:22Z</time>
      </trkpt>
      <trkpt lat="45.67913" lon="5.28161">
        <ele>361.6</ele>
        <time>2025-05-27T09:34:23Z</time>
      </trkpt>
      <trkpt lat="45.67908" lon="5.28163">
        <ele>361.6</ele>
        <time>2025-05-27T09:34:24Z</time>
      </trkpt>
      <trkpt lat="45.67904" lon="5.28165">
        <ele>361.6</ele>
        <time>2025-05-27T09:34:25Z</time>
      </trkpt>
      <trkpt lat="45.67899" lon="5.28167">
        <ele>361.6</ele>
        <time>2025-05-27T09:34:26Z</time>
      </trkpt>
      <trkpt lat="45.67894" lon="5.28169">
        <ele>361.2</ele>
        <time>2025-05-27T09:34:27Z</time>
      </trkpt>
      <trkpt lat="45.67888" lon="5.28171">
        <ele>360.6</ele>
        <time>2025-05-27T09:34:28Z</time>
      </trkpt>
      <trkpt lat="45.67882" lon="5.28173">
        <ele>360.6</ele>
        <time>2025-05-27T09:34:29Z</time>
      </trkpt>
      <trkpt lat="45.67877" lon="5.28176">
        <ele>359.8</ele>
        <time>2025-05-27T09:34:30Z</time>
      </trkpt>
      <trkpt lat="45.67869" lon="5.2818">
        <ele>359.4</ele>
        <time>2025-05-27T09:34:31Z</time>
      </trkpt>
      <trkpt lat="45.67869" lon="5.2818">
        <ele>359</ele>
        <time>2025-05-27T09:34:32Z</time>
      </trkpt>
      <trkpt lat="45.67863" lon="5.28184">
        <ele>358.4</ele>
        <time>2025-05-27T09:34:33Z</time>
      </trkpt>
      <trkpt lat="45.67855" lon="5.28187">
        <ele>357.8</ele>
        <time>2025-05-27T09:34:34Z</time>
      </trkpt>
      <trkpt lat="45.67848" lon="5.2819">
        <ele>357.4</ele>
        <time>2025-05-27T09:34:35Z</time>
      </trkpt>
      <trkpt lat="45.67841" lon="5.28193">
        <ele>357</ele>
        <time>2025-05-27T09:34:36Z</time>
      </trkpt>
      <trkpt lat="45.67835" lon="5.28197">
        <ele>356.8</ele>
        <time>2025-05-27T09:34:37Z</time>
      </trkpt>
      <trkpt lat="45.67828" lon="5.28201">
        <ele>356.4</ele>
        <time>2025-05-27T09:34:38Z</time>
      </trkpt>
      <trkpt lat="45.67822" lon="5.28205">
        <ele>356.2</ele>
        <time>2025-05-27T09:34:39Z</time>
      </trkpt>
      <trkpt lat="45.67816" lon="5.28209">
        <ele>356</ele>
        <time>2025-05-27T09:34:40Z</time>
      </trkpt>
      <trkpt lat="45.6781" lon="5.28212">
        <ele>355.8</ele>
        <time>2025-05-27T09:34:41Z</time>
      </trkpt>
      <trkpt lat="45.67805" lon="5.28217">
        <ele>355.8</ele>
        <time>2025-05-27T09:34:42Z</time>
      </trkpt>
      <trkpt lat="45.67799" lon="5.2822">
        <ele>355.4</ele>
        <time>2025-05-27T09:34:43Z</time>
      </trkpt>
      <trkpt lat="45.67795" lon="5.28224">
        <ele>355.4</ele>
        <time>2025-05-27T09:34:44Z</time>
      </trkpt>
      <trkpt lat="45.6779" lon="5.28227">
        <ele>355.4</ele>
        <time>2025-05-27T09:34:45Z</time>
      </trkpt>
      <trkpt lat="45.67787" lon="5.28229">
        <ele>355</ele>
        <time>2025-05-27T09:34:46Z</time>
      </trkpt>
      <trkpt lat="45.67784" lon="5.28229">
        <ele>355</ele>
        <time>2025-05-27T09:34:47Z</time>
      </trkpt>
      <trkpt lat="45.67781" lon="5.28228">
        <ele>354.4</ele>
        <time>2025-05-27T09:34:48Z</time>
      </trkpt>
      <trkpt lat="45.6778" lon="5.28223">
        <ele>354.4</ele>
        <time>2025-05-27T09:34:49Z</time>
      </trkpt>
      <trkpt lat="45.67779" lon="5.28219">
        <ele>354.4</ele>
        <time>2025-05-27T09:34:50Z</time>
      </trkpt>
      <trkpt lat="45.67778" lon="5.28215">
        <ele>354.8</ele>
        <time>2025-05-27T09:34:51Z</time>
      </trkpt>
      <trkpt lat="45.67778" lon="5.2821">
        <ele>354.8</ele>
        <time>2025-05-27T09:34:52Z</time>
      </trkpt>
      <trkpt lat="45.67777" lon="5.28207">
        <ele>354.8</ele>
        <time>2025-05-27T09:34:53Z</time>
      </trkpt>
      <trkpt lat="45.67776" lon="5.28202">
        <ele>355</ele>
        <time>2025-05-27T09:34:54Z</time>
      </trkpt>
      <trkpt lat="45.67775" lon="5.28197">
        <ele>355</ele>
        <time>2025-05-27T09:34:55Z</time>
      </trkpt>
      <trkpt lat="45.67773" lon="5.28192">
        <ele>355</ele>
        <time>2025-05-27T09:34:56Z</time>
      </trkpt>
      <trkpt lat="45.67772" lon="5.28187">
        <ele>355.4</ele>
        <time>2025-05-27T09:34:57Z</time>
      </trkpt>
      <trkpt lat="45.67771" lon="5.28182">
        <ele>355.8</ele>
        <time>2025-05-27T09:34:58Z</time>
      </trkpt>
      <trkpt lat="45.6777" lon="5.28177">
        <ele>356.4</ele>
        <time>2025-05-27T09:34:59Z</time>
      </trkpt>
      <trkpt lat="45.67768" lon="5.28173">
        <ele>356.8</ele>
        <time>2025-05-27T09:35:00Z</time>
      </trkpt>
      <trkpt lat="45.67767" lon="5.28168">
        <ele>356.8</ele>
        <time>2025-05-27T09:35:01Z</time>
      </trkpt>
      <trkpt lat="45.67765" lon="5.28163">
        <ele>356.8</ele>
        <time>2025-05-27T09:35:02Z</time>
      </trkpt>
      <trkpt lat="45.67764" lon="5.28159">
        <ele>357.8</ele>
        <time>2025-05-27T09:35:03Z</time>
      </trkpt>
      <trkpt lat="45.67763" lon="5.28154">
        <ele>357.8</ele>
        <time>2025-05-27T09:35:04Z</time>
      </trkpt>
      <trkpt lat="45.67762" lon="5.2815">
        <ele>358.2</ele>
        <time>2025-05-27T09:35:05Z</time>
      </trkpt>
      <trkpt lat="45.6776" lon="5.28146">
        <ele>358.2</ele>
        <time>2025-05-27T09:35:06Z</time>
      </trkpt>
      <trkpt lat="45.67759" lon="5.28142">
        <ele>358.2</ele>
        <time>2025-05-27T09:35:07Z</time>
      </trkpt>
      <trkpt lat="45.67757" lon="5.28138">
        <ele>358.6</ele>
        <time>2025-05-27T09:35:08Z</time>
      </trkpt>
      <trkpt lat="45.67756" lon="5.28134">
        <ele>359.4</ele>
        <time>2025-05-27T09:35:09Z</time>
      </trkpt>
      <trkpt lat="45.67754" lon="5.2813">
        <ele>359.4</ele>
        <time>2025-05-27T09:35:10Z</time>
      </trkpt>
      <trkpt lat="45.67753" lon="5.28126">
        <ele>359.4</ele>
        <time>2025-05-27T09:35:11Z</time>
      </trkpt>
      <trkpt lat="45.67752" lon="5.28122">
        <ele>359</ele>
        <time>2025-05-27T09:35:12Z</time>
      </trkpt>
      <trkpt lat="45.6775" lon="5.28118">
        <ele>359</ele>
        <time>2025-05-27T09:35:13Z</time>
      </trkpt>
      <trkpt lat="45.67749" lon="5.28113">
        <ele>359</ele>
        <time>2025-05-27T09:35:14Z</time>
      </trkpt>
      <trkpt lat="45.67748" lon="5.28109">
        <ele>359.4</ele>
        <time>2025-05-27T09:35:15Z</time>
      </trkpt>
      <trkpt lat="45.67747" lon="5.28104">
        <ele>359.2</ele>
        <time>2025-05-27T09:35:16Z</time>
      </trkpt>
      <trkpt lat="45.67746" lon="5.28099">
        <ele>359.2</ele>
        <time>2025-05-27T09:35:17Z</time>
      </trkpt>
      <trkpt lat="45.67745" lon="5.28093">
        <ele>359.2</ele>
        <time>2025-05-27T09:35:18Z</time>
      </trkpt>
      <trkpt lat="45.67744" lon="5.28088">
        <ele>359.2</ele>
        <time>2025-05-27T09:35:19Z</time>
      </trkpt>
      <trkpt lat="45.67744" lon="5.28082">
        <ele>359.2</ele>
        <time>2025-05-27T09:35:20Z</time>
      </trkpt>
      <trkpt lat="45.67743" lon="5.28077">
        <ele>359.2</ele>
        <time>2025-05-27T09:35:21Z</time>
      </trkpt>
      <trkpt lat="45.67742" lon="5.28071">
        <ele>359.4</ele>
        <time>2025-05-27T09:35:22Z</time>
      </trkpt>
      <trkpt lat="45.67741" lon="5.28066">
        <ele>359.4</ele>
        <time>2025-05-27T09:35:23Z</time>
      </trkpt>
      <trkpt lat="45.6774" lon="5.2806">
        <ele>359.4</ele>
        <time>2025-05-27T09:35:24Z</time>
      </trkpt>
      <trkpt lat="45.67739" lon="5.28055">
        <ele>359.4</ele>
        <time>2025-05-27T09:35:25Z</time>
      </trkpt>
      <trkpt lat="45.67738" lon="5.28051">
        <ele>359.4</ele>
        <time>2025-05-27T09:35:26Z</time>
      </trkpt>
      <trkpt lat="45.67736" lon="5.28046">
        <ele>359.6</ele>
        <time>2025-05-27T09:35:27Z</time>
      </trkpt>
      <trkpt lat="45.67735" lon="5.28042">
        <ele>360</ele>
        <time>2025-05-27T09:35:28Z</time>
      </trkpt>
      <trkpt lat="45.67734" lon="5.28039">
        <ele>360</ele>
        <time>2025-05-27T09:35:29Z</time>
      </trkpt>
      <trkpt lat="45.67733" lon="5.28035">
        <ele>360</ele>
        <time>2025-05-27T09:35:30Z</time>
      </trkpt>
      <trkpt lat="45.67732" lon="5.28032">
        <ele>360</ele>
        <time>2025-05-27T09:35:31Z</time>
      </trkpt>
      <trkpt lat="45.67731" lon="5.28029">
        <ele>360.6</ele>
        <time>2025-05-27T09:35:32Z</time>
      </trkpt>
      <trkpt lat="45.6773" lon="5.28024">
        <ele>360.8</ele>
        <time>2025-05-27T09:35:33Z</time>
      </trkpt>
      <trkpt lat="45.67728" lon="5.28019">
        <ele>361.2</ele>
        <time>2025-05-27T09:35:34Z</time>
      </trkpt>
      <trkpt lat="45.67727" lon="5.28016">
        <ele>361.6</ele>
        <time>2025-05-27T09:35:35Z</time>
      </trkpt>
      <trkpt lat="45.67725" lon="5.28012">
        <ele>361.6</ele>
        <time>2025-05-27T09:35:36Z</time>
      </trkpt>
      <trkpt lat="45.67723" lon="5.28006">
        <ele>362</ele>
        <time>2025-05-27T09:35:37Z</time>
      </trkpt>
      <trkpt lat="45.67721" lon="5.28002">
        <ele>362</ele>
        <time>2025-05-27T09:35:38Z</time>
      </trkpt>
      <trkpt lat="45.67719" lon="5.27997">
        <ele>362</ele>
        <time>2025-05-27T09:35:39Z</time>
      </trkpt>
      <trkpt lat="45.67717" lon="5.27992">
        <ele>361.6</ele>
        <time>2025-05-27T09:35:40Z</time>
      </trkpt>
      <trkpt lat="45.67712" lon="5.27985">
        <ele>361.6</ele>
        <time>2025-05-27T09:35:41Z</time>
      </trkpt>
      <trkpt lat="45.6771" lon="5.2798">
        <ele>361.6</ele>
        <time>2025-05-27T09:35:42Z</time>
      </trkpt>
      <trkpt lat="45.67707" lon="5.27976">
        <ele>361.6</ele>
        <time>2025-05-27T09:35:43Z</time>
      </trkpt>
      <trkpt lat="45.67704" lon="5.27971">
        <ele>361.2</ele>
        <time>2025-05-27T09:35:44Z</time>
      </trkpt>
      <trkpt lat="45.67701" lon="5.27966">
        <ele>361.2</ele>
        <time>2025-05-27T09:35:45Z</time>
      </trkpt>
      <trkpt lat="45.67698" lon="5.27961">
        <ele>360.8</ele>
        <time>2025-05-27T09:35:46Z</time>
      </trkpt>
      <trkpt lat="45.67695" lon="5.27955">
        <ele>360.8</ele>
        <time>2025-05-27T09:35:47Z</time>
      </trkpt>
      <trkpt lat="45.67692" lon="5.2795">
        <ele>360.6</ele>
        <time>2025-05-27T09:35:48Z</time>
      </trkpt>
      <trkpt lat="45.6769" lon="5.27945">
        <ele>360.8</ele>
        <time>2025-05-27T09:35:49Z</time>
      </trkpt>
      <trkpt lat="45.67686" lon="5.27939">
        <ele>360.8</ele>
        <time>2025-05-27T09:35:50Z</time>
      </trkpt>
      <trkpt lat="45.67683" lon="5.27935">
        <ele>361</ele>
        <time>2025-05-27T09:35:51Z</time>
      </trkpt>
      <trkpt lat="45.6768" lon="5.27931">
        <ele>361.8</ele>
        <time>2025-05-27T09:35:52Z</time>
      </trkpt>
      <trkpt lat="45.67676" lon="5.27927">
        <ele>361.8</ele>
        <time>2025-05-27T09:35:53Z</time>
      </trkpt>
      <trkpt lat="45.67674" lon="5.27924">
        <ele>361.6</ele>
        <time>2025-05-27T09:35:54Z</time>
      </trkpt>
      <trkpt lat="45.6767" lon="5.27921">
        <ele>361.4</ele>
        <time>2025-05-27T09:35:55Z</time>
      </trkpt>
      <trkpt lat="45.67667" lon="5.27917">
        <ele>361.4</ele>
        <time>2025-05-27T09:35:56Z</time>
      </trkpt>
      <trkpt lat="45.67665" lon="5.27913">
        <ele>361.8</ele>
        <time>2025-05-27T09:35:57Z</time>
      </trkpt>
      <trkpt lat="45.67662" lon="5.27909">
        <ele>361.8</ele>
        <time>2025-05-27T09:35:58Z</time>
      </trkpt>
      <trkpt lat="45.67659" lon="5.27906">
        <ele>361.8</ele>
        <time>2025-05-27T09:35:59Z</time>
      </trkpt>
      <trkpt lat="45.67656" lon="5.27902">
        <ele>362.2</ele>
        <time>2025-05-27T09:36:00Z</time>
      </trkpt>
      <trkpt lat="45.67653" lon="5.27899">
        <ele>362.2</ele>
        <time>2025-05-27T09:36:01Z</time>
      </trkpt>
      <trkpt lat="45.6765" lon="5.27896">
        <ele>362.8</ele>
        <time>2025-05-27T09:36:02Z</time>
      </trkpt>
      <trkpt lat="45.67647" lon="5.27893">
        <ele>362.8</ele>
        <time>2025-05-27T09:36:03Z</time>
      </trkpt>
      <trkpt lat="45.67644" lon="5.27889">
        <ele>363</ele>
        <time>2025-05-27T09:36:04Z</time>
      </trkpt>
      <trkpt lat="45.67641" lon="5.27886">
        <ele>363</ele>
        <time>2025-05-27T09:36:05Z</time>
      </trkpt>
      <trkpt lat="45.67637" lon="5.27882">
        <ele>362.6</ele>
        <time>2025-05-27T09:36:06Z</time>
      </trkpt>
      <trkpt lat="45.67634" lon="5.27878">
        <ele>362.6</ele>
        <time>2025-05-27T09:36:07Z</time>
      </trkpt>
      <trkpt lat="45.6763" lon="5.27874">
        <ele>362.4</ele>
        <time>2025-05-27T09:36:08Z</time>
      </trkpt>
      <trkpt lat="45.67626" lon="5.2787">
        <ele>362.4</ele>
        <time>2025-05-27T09:36:09Z</time>
      </trkpt>
      <trkpt lat="45.67623" lon="5.27866">
        <ele>362.4</ele>
        <time>2025-05-27T09:36:10Z</time>
      </trkpt>
      <trkpt lat="45.67619" lon="5.27863">
        <ele>362.4</ele>
        <time>2025-05-27T09:36:11Z</time>
      </trkpt>
      <trkpt lat="45.67615" lon="5.27858">
        <ele>363.2</ele>
        <time>2025-05-27T09:36:12Z</time>
      </trkpt>
      <trkpt lat="45.67612" lon="5.27855">
        <ele>363.2</ele>
        <time>2025-05-27T09:36:13Z</time>
      </trkpt>
      <trkpt lat="45.67608" lon="5.2785">
        <ele>363.2</ele>
        <time>2025-05-27T09:36:14Z</time>
      </trkpt>
      <trkpt lat="45.67605" lon="5.27846">
        <ele>363</ele>
        <time>2025-05-27T09:36:15Z</time>
      </trkpt>
      <trkpt lat="45.67601" lon="5.27841">
        <ele>363</ele>
        <time>2025-05-27T09:36:16Z</time>
      </trkpt>
      <trkpt lat="45.67598" lon="5.27837">
        <ele>362.8</ele>
        <time>2025-05-27T09:36:17Z</time>
      </trkpt>
      <trkpt lat="45.67595" lon="5.27833">
        <ele>363</ele>
        <time>2025-05-27T09:36:18Z</time>
      </trkpt>
      <trkpt lat="45.67592" lon="5.2783">
        <ele>363.6</ele>
        <time>2025-05-27T09:36:19Z</time>
      </trkpt>
      <trkpt lat="45.67588" lon="5.27827">
        <ele>363.6</ele>
        <time>2025-05-27T09:36:20Z</time>
      </trkpt>
      <trkpt lat="45.67585" lon="5.27824">
        <ele>363.6</ele>
        <time>2025-05-27T09:36:21Z</time>
      </trkpt>
      <trkpt lat="45.67581" lon="5.27821">
        <ele>362.8</ele>
        <time>2025-05-27T09:36:22Z</time>
      </trkpt>
      <trkpt lat="45.67578" lon="5.27817">
        <ele>363.2</ele>
        <time>2025-05-27T09:36:23Z</time>
      </trkpt>
      <trkpt lat="45.67573" lon="5.27812">
        <ele>362.8</ele>
        <time>2025-05-27T09:36:24Z</time>
      </trkpt>
      <trkpt lat="45.67571" lon="5.27807">
        <ele>362.2</ele>
        <time>2025-05-27T09:36:25Z</time>
      </trkpt>
      <trkpt lat="45.67567" lon="5.27803">
        <ele>362.6</ele>
        <time>2025-05-27T09:36:26Z</time>
      </trkpt>
      <trkpt lat="45.67564" lon="5.27798">
        <ele>362.6</ele>
        <time>2025-05-27T09:36:27Z</time>
      </trkpt>
      <trkpt lat="45.67561" lon="5.27795">
        <ele>362.8</ele>
        <time>2025-05-27T09:36:28Z</time>
      </trkpt>
      <trkpt lat="45.67557" lon="5.27791">
        <ele>363.2</ele>
        <time>2025-05-27T09:36:29Z</time>
      </trkpt>
      <trkpt lat="45.67554" lon="5.27788">
        <ele>364</ele>
        <time>2025-05-27T09:36:30Z</time>
      </trkpt>
      <trkpt lat="45.67551" lon="5.27785">
        <ele>363.8</ele>
        <time>2025-05-27T09:36:31Z</time>
      </trkpt>
      <trkpt lat="45.67548" lon="5.27782">
        <ele>364</ele>
        <time>2025-05-27T09:36:32Z</time>
      </trkpt>
      <trkpt lat="45.67545" lon="5.27779">
        <ele>364.4</ele>
        <time>2025-05-27T09:36:33Z</time>
      </trkpt>
      <trkpt lat="45.67542" lon="5.27776">
        <ele>364</ele>
        <time>2025-05-27T09:36:34Z</time>
      </trkpt>
      <trkpt lat="45.67541" lon="5.27771">
        <ele>364.2</ele>
        <time>2025-05-27T09:36:35Z</time>
      </trkpt>
      <trkpt lat="45.67538" lon="5.27769">
        <ele>364.6</ele>
        <time>2025-05-27T09:36:36Z</time>
      </trkpt>
      <trkpt lat="45.67534" lon="5.27766">
        <ele>364.6</ele>
        <time>2025-05-27T09:36:37Z</time>
      </trkpt>
      <trkpt lat="45.67531" lon="5.27763">
        <ele>365</ele>
        <time>2025-05-27T09:36:38Z</time>
      </trkpt>
      <trkpt lat="45.67527" lon="5.2776">
        <ele>365</ele>
        <time>2025-05-27T09:36:39Z</time>
      </trkpt>
      <trkpt lat="45.67524" lon="5.27757">
        <ele>365</ele>
        <time>2025-05-27T09:36:40Z</time>
      </trkpt>
      <trkpt lat="45.67521" lon="5.27754">
        <ele>365</ele>
        <time>2025-05-27T09:36:41Z</time>
      </trkpt>
      <trkpt lat="45.67517" lon="5.27751">
        <ele>365</ele>
        <time>2025-05-27T09:36:42Z</time>
      </trkpt>
      <trkpt lat="45.67514" lon="5.27748">
        <ele>365</ele>
        <time>2025-05-27T09:36:43Z</time>
      </trkpt>
      <trkpt lat="45.67511" lon="5.27744">
        <ele>365.4</ele>
        <time>2025-05-27T09:36:44Z</time>
      </trkpt>
      <trkpt lat="45.67507" lon="5.27741">
        <ele>364.8</ele>
        <time>2025-05-27T09:36:45Z</time>
      </trkpt>
      <trkpt lat="45.67504" lon="5.27738">
        <ele>365</ele>
        <time>2025-05-27T09:36:46Z</time>
      </trkpt>
      <trkpt lat="45.67501" lon="5.27735">
        <ele>366.4</ele>
        <time>2025-05-27T09:36:47Z</time>
      </trkpt>
      <trkpt lat="45.67498" lon="5.27733">
        <ele>365.8</ele>
        <time>2025-05-27T09:36:48Z</time>
      </trkpt>
      <trkpt lat="45.67495" lon="5.27731">
        <ele>365.8</ele>
        <time>2025-05-27T09:36:49Z</time>
      </trkpt>
      <trkpt lat="45.67492" lon="5.27728">
        <ele>365.6</ele>
        <time>2025-05-27T09:36:50Z</time>
      </trkpt>
      <trkpt lat="45.67488" lon="5.27724">
        <ele>365.6</ele>
        <time>2025-05-27T09:36:51Z</time>
      </trkpt>
      <trkpt lat="45.67485" lon="5.27721">
        <ele>365.4</ele>
        <time>2025-05-27T09:36:52Z</time>
      </trkpt>
      <trkpt lat="45.67481" lon="5.27718">
        <ele>365.4</ele>
        <time>2025-05-27T09:36:53Z</time>
      </trkpt>
      <trkpt lat="45.67477" lon="5.27713">
        <ele>365.4</ele>
        <time>2025-05-27T09:36:54Z</time>
      </trkpt>
      <trkpt lat="45.67476" lon="5.27709">
        <ele>365.4</ele>
        <time>2025-05-27T09:36:55Z</time>
      </trkpt>
      <trkpt lat="45.67471" lon="5.27707">
        <ele>365.4</ele>
        <time>2025-05-27T09:36:56Z</time>
      </trkpt>
      <trkpt lat="45.67466" lon="5.27702">
        <ele>365.4</ele>
        <time>2025-05-27T09:36:57Z</time>
      </trkpt>
      <trkpt lat="45.67463" lon="5.27697">
        <ele>364.8</ele>
        <time>2025-05-27T09:36:58Z</time>
      </trkpt>
      <trkpt lat="45.67459" lon="5.27691">
        <ele>364.2</ele>
        <time>2025-05-27T09:36:59Z</time>
      </trkpt>
      <trkpt lat="45.67455" lon="5.27684">
        <ele>363.8</ele>
        <time>2025-05-27T09:37:00Z</time>
      </trkpt>
      <trkpt lat="45.67452" lon="5.27679">
        <ele>363.8</ele>
        <time>2025-05-27T09:37:01Z</time>
      </trkpt>
      <trkpt lat="45.67449" lon="5.27672">
        <ele>363.8</ele>
        <time>2025-05-27T09:37:02Z</time>
      </trkpt>
      <trkpt lat="45.67445" lon="5.27667">
        <ele>363.8</ele>
        <time>2025-05-27T09:37:03Z</time>
      </trkpt>
      <trkpt lat="45.67441" lon="5.27661">
        <ele>363.2</ele>
        <time>2025-05-27T09:37:04Z</time>
      </trkpt>
      <trkpt lat="45.67437" lon="5.27656">
        <ele>363.2</ele>
        <time>2025-05-27T09:37:05Z</time>
      </trkpt>
      <trkpt lat="45.67433" lon="5.27649">
        <ele>363.2</ele>
        <time>2025-05-27T09:37:06Z</time>
      </trkpt>
      <trkpt lat="45.67428" lon="5.27645">
        <ele>362.4</ele>
        <time>2025-05-27T09:37:07Z</time>
      </trkpt>
      <trkpt lat="45.67423" lon="5.27643">
        <ele>361.8</ele>
        <time>2025-05-27T09:37:08Z</time>
      </trkpt>
      <trkpt lat="45.6742" lon="5.27646">
        <ele>361.4</ele>
        <time>2025-05-27T09:37:09Z</time>
      </trkpt>
      <trkpt lat="45.67416" lon="5.27646">
        <ele>361.4</ele>
        <time>2025-05-27T09:37:10Z</time>
      </trkpt>
      <trkpt lat="45.67412" lon="5.27643">
        <ele>361.4</ele>
        <time>2025-05-27T09:37:11Z</time>
      </trkpt>
      <trkpt lat="45.67407" lon="5.27641">
        <ele>360.2</ele>
        <time>2025-05-27T09:37:12Z</time>
      </trkpt>
      <trkpt lat="45.67403" lon="5.27639">
        <ele>361</ele>
        <time>2025-05-27T09:37:13Z</time>
      </trkpt>
      <trkpt lat="45.67399" lon="5.27636">
        <ele>361</ele>
        <time>2025-05-27T09:37:14Z</time>
      </trkpt>
      <trkpt lat="45.67395" lon="5.27634">
        <ele>360.8</ele>
        <time>2025-05-27T09:37:15Z</time>
      </trkpt>
      <trkpt lat="45.6739" lon="5.27633">
        <ele>360.4</ele>
        <time>2025-05-27T09:37:16Z</time>
      </trkpt>
      <trkpt lat="45.67386" lon="5.27632">
        <ele>360.8</ele>
        <time>2025-05-27T09:37:17Z</time>
      </trkpt>
      <trkpt lat="45.6738" lon="5.27637">
        <ele>356.4</ele>
        <time>2025-05-27T09:37:18Z</time>
      </trkpt>
      <trkpt lat="45.67375" lon="5.27643">
        <ele>357.2</ele>
        <time>2025-05-27T09:37:19Z</time>
      </trkpt>
      <trkpt lat="45.67369" lon="5.2765">
        <ele>356.6</ele>
        <time>2025-05-27T09:37:20Z</time>
      </trkpt>
      <trkpt lat="45.67365" lon="5.27657">
        <ele>356.6</ele>
        <time>2025-05-27T09:37:21Z</time>
      </trkpt>
      <trkpt lat="45.67359" lon="5.27664">
        <ele>357.2</ele>
        <time>2025-05-27T09:37:22Z</time>
      </trkpt>
      <trkpt lat="45.67354" lon="5.27669">
        <ele>357.2</ele>
        <time>2025-05-27T09:37:23Z</time>
      </trkpt>
      <trkpt lat="45.6735" lon="5.27674">
        <ele>356.6</ele>
        <time>2025-05-27T09:37:24Z</time>
      </trkpt>
      <trkpt lat="45.67346" lon="5.27679">
        <ele>357.2</ele>
        <time>2025-05-27T09:37:25Z</time>
      </trkpt>
      <trkpt lat="45.67343" lon="5.27682">
        <ele>358.4</ele>
        <time>2025-05-27T09:37:26Z</time>
      </trkpt>
      <trkpt lat="45.67341" lon="5.27685">
        <ele>358.4</ele>
        <time>2025-05-27T09:37:27Z</time>
      </trkpt>
      <trkpt lat="45.67338" lon="5.27686">
        <ele>358.8</ele>
        <time>2025-05-27T09:37:28Z</time>
      </trkpt>
      <trkpt lat="45.67336" lon="5.27688">
        <ele>359.6</ele>
        <time>2025-05-27T09:37:29Z</time>
      </trkpt>
      <trkpt lat="45.67334" lon="5.2769">
        <ele>359.6</ele>
        <time>2025-05-27T09:37:30Z</time>
      </trkpt>
      <trkpt lat="45.67332" lon="5.27692">
        <ele>360</ele>
        <time>2025-05-27T09:37:31Z</time>
      </trkpt>
      <trkpt lat="45.6733" lon="5.27695">
        <ele>360</ele>
        <time>2025-05-27T09:37:32Z</time>
      </trkpt>
      <trkpt lat="45.67328" lon="5.27697">
        <ele>360.2</ele>
        <time>2025-05-27T09:37:33Z</time>
      </trkpt>
      <trkpt lat="45.67325" lon="5.277">
        <ele>360.2</ele>
        <time>2025-05-27T09:37:34Z</time>
      </trkpt>
      <trkpt lat="45.67323" lon="5.27704">
        <ele>359.2</ele>
        <time>2025-05-27T09:37:35Z</time>
      </trkpt>
      <trkpt lat="45.67319" lon="5.27707">
        <ele>359.6</ele>
        <time>2025-05-27T09:37:36Z</time>
      </trkpt>
      <trkpt lat="45.67316" lon="5.27709">
        <ele>359.2</ele>
        <time>2025-05-27T09:37:37Z</time>
      </trkpt>
      <trkpt lat="45.67312" lon="5.27708">
        <ele>358.6</ele>
        <time>2025-05-27T09:37:38Z</time>
      </trkpt>
      <trkpt lat="45.67309" lon="5.27708">
        <ele>358.4</ele>
        <time>2025-05-27T09:37:39Z</time>
      </trkpt>
      <trkpt lat="45.67305" lon="5.27705">
        <ele>358.4</ele>
        <time>2025-05-27T09:37:40Z</time>
      </trkpt>
      <trkpt lat="45.67302" lon="5.27702">
        <ele>356.8</ele>
        <time>2025-05-27T09:37:41Z</time>
      </trkpt>
      <trkpt lat="45.67299" lon="5.27699">
        <ele>356.8</ele>
        <time>2025-05-27T09:37:42Z</time>
      </trkpt>
      <trkpt lat="45.67295" lon="5.27698">
        <ele>357.2</ele>
        <time>2025-05-27T09:37:43Z</time>
      </trkpt>
      <trkpt lat="45.67292" lon="5.27697">
        <ele>357.2</ele>
        <time>2025-05-27T09:37:44Z</time>
      </trkpt>
      <trkpt lat="45.67288" lon="5.27695">
        <ele>357.2</ele>
        <time>2025-05-27T09:37:45Z</time>
      </trkpt>
      <trkpt lat="45.67283" lon="5.27693">
        <ele>356.8</ele>
        <time>2025-05-27T09:37:46Z</time>
      </trkpt>
      <trkpt lat="45.67279" lon="5.2769">
        <ele>354.6</ele>
        <time>2025-05-27T09:37:47Z</time>
      </trkpt>
      <trkpt lat="45.67274" lon="5.27686">
        <ele>354.6</ele>
        <time>2025-05-27T09:37:48Z</time>
      </trkpt>
      <trkpt lat="45.67269" lon="5.27683">
        <ele>354.6</ele>
        <time>2025-05-27T09:37:49Z</time>
      </trkpt>
      <trkpt lat="45.67258" lon="5.27679">
        <ele>354.4</ele>
        <time>2025-05-27T09:37:50Z</time>
      </trkpt>
      <trkpt lat="45.67253" lon="5.27679">
        <ele>354.6</ele>
        <time>2025-05-27T09:37:51Z</time>
      </trkpt>
      <trkpt lat="45.67248" lon="5.27679">
        <ele>354.6</ele>
        <time>2025-05-27T09:37:52Z</time>
      </trkpt>
      <trkpt lat="45.67243" lon="5.2768">
        <ele>354.6</ele>
        <time>2025-05-27T09:37:53Z</time>
      </trkpt>
      <trkpt lat="45.67239" lon="5.27682">
        <ele>355.2</ele>
        <time>2025-05-27T09:37:54Z</time>
      </trkpt>
      <trkpt lat="45.67235" lon="5.27684">
        <ele>354.6</ele>
        <time>2025-05-27T09:37:55Z</time>
      </trkpt>
      <trkpt lat="45.6723" lon="5.27685">
        <ele>354.2</ele>
        <time>2025-05-27T09:37:56Z</time>
      </trkpt>
      <trkpt lat="45.67228" lon="5.27687">
        <ele>354.2</ele>
        <time>2025-05-27T09:37:57Z</time>
      </trkpt>
      <trkpt lat="45.67226" lon="5.27689">
        <ele>354.4</ele>
        <time>2025-05-27T09:37:58Z</time>
      </trkpt>
      <trkpt lat="45.67225" lon="5.2769">
        <ele>354.4</ele>
        <time>2025-05-27T09:37:59Z</time>
      </trkpt>
      <trkpt lat="45.67225" lon="5.2769">
        <ele>354</ele>
        <time>2025-05-27T09:38:00Z</time>
      </trkpt>
      <trkpt lat="45.67225" lon="5.27691">
        <ele>354</ele>
        <time>2025-05-27T09:38:01Z</time>
      </trkpt>
      <trkpt lat="45.67225" lon="5.27691">
        <ele>353.8</ele>
        <time>2025-05-27T09:38:02Z</time>
      </trkpt>
      <trkpt lat="45.67223" lon="5.27692">
        <ele>353.4</ele>
        <time>2025-05-27T09:38:09Z</time>
      </trkpt>
      <trkpt lat="45.67222" lon="5.27694">
        <ele>352.6</ele>
        <time>2025-05-27T09:38:10Z</time>
      </trkpt>
      <trkpt lat="45.67221" lon="5.27699">
        <ele>352.4</ele>
        <time>2025-05-27T09:38:11Z</time>
      </trkpt>
      <trkpt lat="45.67221" lon="5.27704">
        <ele>351.2</ele>
        <time>2025-05-27T09:38:12Z</time>
      </trkpt>
      <trkpt lat="45.67221" lon="5.27709">
        <ele>351.4</ele>
        <time>2025-05-27T09:38:13Z</time>
      </trkpt>
      <trkpt lat="45.67222" lon="5.27712">
        <ele>351.4</ele>
        <time>2025-05-27T09:38:14Z</time>
      </trkpt>
      <trkpt lat="45.67222" lon="5.27714">
        <ele>351.4</ele>
        <time>2025-05-27T09:38:15Z</time>
      </trkpt>
      <trkpt lat="45.67222" lon="5.27715">
        <ele>351.4</ele>
        <time>2025-05-27T09:38:16Z</time>
      </trkpt>
      <trkpt lat="45.67222" lon="5.27715">
        <ele>351.4</ele>
        <time>2025-05-27T09:38:17Z</time>
      </trkpt>
      <trkpt lat="45.67222" lon="5.27714">
        <ele>351.4</ele>
        <time>2025-05-27T09:38:18Z</time>
      </trkpt>
      <trkpt lat="45.67222" lon="5.27715">
        <ele>351.8</ele>
        <time>2025-05-27T09:39:23Z</time>
      </trkpt>
      <trkpt lat="45.67222" lon="5.27718">
        <ele>352.2</ele>
        <time>2025-05-27T09:39:24Z</time>
      </trkpt>
      <trkpt lat="45.67222" lon="5.27723">
        <ele>352.6</ele>
        <time>2025-05-27T09:39:25Z</time>
      </trkpt>
      <trkpt lat="45.67221" lon="5.2773">
        <ele>351.8</ele>
        <time>2025-05-27T09:39:26Z</time>
      </trkpt>
      <trkpt lat="45.67222" lon="5.27736">
        <ele>351.4</ele>
        <time>2025-05-27T09:39:27Z</time>
      </trkpt>
      <trkpt lat="45.67222" lon="5.27742">
        <ele>351.4</ele>
        <time>2025-05-27T09:39:28Z</time>
      </trkpt>
      <trkpt lat="45.67221" lon="5.27749">
        <ele>351</ele>
        <time>2025-05-27T09:39:29Z</time>
      </trkpt>
      <trkpt lat="45.67221" lon="5.27756">
        <ele>350.2</ele>
        <time>2025-05-27T09:39:30Z</time>
      </trkpt>
      <trkpt lat="45.67221" lon="5.27764">
        <ele>349.6</ele>
        <time>2025-05-27T09:39:31Z</time>
      </trkpt>
      <trkpt lat="45.67222" lon="5.27772">
        <ele>349.4</ele>
        <time>2025-05-27T09:39:32Z</time>
      </trkpt>
      <trkpt lat="45.67222" lon="5.2778">
        <ele>349.4</ele>
        <time>2025-05-27T09:39:33Z</time>
      </trkpt>
      <trkpt lat="45.67222" lon="5.27788">
        <ele>349</ele>
        <time>2025-05-27T09:39:34Z</time>
      </trkpt>
      <trkpt lat="45.67221" lon="5.27796">
        <ele>348.6</ele>
        <time>2025-05-27T09:39:35Z</time>
      </trkpt>
      <trkpt lat="45.67222" lon="5.27803">
        <ele>348.4</ele>
        <time>2025-05-27T09:39:36Z</time>
      </trkpt>
      <trkpt lat="45.67221" lon="5.27811">
        <ele>348</ele>
        <time>2025-05-27T09:39:37Z</time>
      </trkpt>
      <trkpt lat="45.67222" lon="5.27819">
        <ele>348</ele>
        <time>2025-05-27T09:39:38Z</time>
      </trkpt>
      <trkpt lat="45.67222" lon="5.27826">
        <ele>348</ele>
        <time>2025-05-27T09:39:39Z</time>
      </trkpt>
      <trkpt lat="45.67223" lon="5.27835">
        <ele>348</ele>
        <time>2025-05-27T09:39:40Z</time>
      </trkpt>
      <trkpt lat="45.67223" lon="5.27844">
        <ele>347.4</ele>
        <time>2025-05-27T09:39:41Z</time>
      </trkpt>
      <trkpt lat="45.67223" lon="5.27853">
        <ele>347.4</ele>
        <time>2025-05-27T09:39:42Z</time>
      </trkpt>
      <trkpt lat="45.67223" lon="5.2786">
        <ele>347.4</ele>
        <time>2025-05-27T09:39:43Z</time>
      </trkpt>
      <trkpt lat="45.67222" lon="5.27869">
        <ele>346.8</ele>
        <time>2025-05-27T09:39:44Z</time>
      </trkpt>
      <trkpt lat="45.67223" lon="5.27876">
        <ele>347.2</ele>
        <time>2025-05-27T09:39:45Z</time>
      </trkpt>
      <trkpt lat="45.67223" lon="5.27883">
        <ele>347.6</ele>
        <time>2025-05-27T09:39:46Z</time>
      </trkpt>
      <trkpt lat="45.67224" lon="5.2789">
        <ele>347.2</ele>
        <time>2025-05-27T09:39:47Z</time>
      </trkpt>
      <trkpt lat="45.67224" lon="5.27896">
        <ele>346.6</ele>
        <time>2025-05-27T09:39:48Z</time>
      </trkpt>
      <trkpt lat="45.67224" lon="5.27904">
        <ele>346.8</ele>
        <time>2025-05-27T09:39:49Z</time>
      </trkpt>
      <trkpt lat="45.67225" lon="5.27911">
        <ele>346.8</ele>
        <time>2025-05-27T09:39:50Z</time>
      </trkpt>
      <trkpt lat="45.67225" lon="5.27918">
        <ele>346.8</ele>
        <time>2025-05-27T09:39:51Z</time>
      </trkpt>
      <trkpt lat="45.67224" lon="5.27925">
        <ele>346</ele>
        <time>2025-05-27T09:39:52Z</time>
      </trkpt>
      <trkpt lat="45.67225" lon="5.27932">
        <ele>346</ele>
        <time>2025-05-27T09:39:53Z</time>
      </trkpt>
      <trkpt lat="45.67225" lon="5.27939">
        <ele>346</ele>
        <time>2025-05-27T09:39:54Z</time>
      </trkpt>
      <trkpt lat="45.67225" lon="5.27945">
        <ele>345.4</ele>
        <time>2025-05-27T09:39:55Z</time>
      </trkpt>
      <trkpt lat="45.67225" lon="5.27952">
        <ele>345.2</ele>
        <time>2025-05-27T09:39:56Z</time>
      </trkpt>
      <trkpt lat="45.67226" lon="5.2796">
        <ele>345</ele>
        <time>2025-05-27T09:39:57Z</time>
      </trkpt>
      <trkpt lat="45.67225" lon="5.27966">
        <ele>343.4</ele>
        <time>2025-05-27T09:39:58Z</time>
      </trkpt>
      <trkpt lat="45.67225" lon="5.27973">
        <ele>344.4</ele>
        <time>2025-05-27T09:39:59Z</time>
      </trkpt>
      <trkpt lat="45.67225" lon="5.2798">
        <ele>345.6</ele>
        <time>2025-05-27T09:40:00Z</time>
      </trkpt>
      <trkpt lat="45.67225" lon="5.27986">
        <ele>346.2</ele>
        <time>2025-05-27T09:40:01Z</time>
      </trkpt>
      <trkpt lat="45.67225" lon="5.27993">
        <ele>346.2</ele>
        <time>2025-05-27T09:40:02Z</time>
      </trkpt>
      <trkpt lat="45.67224" lon="5.27999">
        <ele>346.2</ele>
        <time>2025-05-27T09:40:03Z</time>
      </trkpt>
      <trkpt lat="45.67224" lon="5.28005">
        <ele>345.8</ele>
        <time>2025-05-27T09:40:04Z</time>
      </trkpt>
      <trkpt lat="45.67224" lon="5.28012">
        <ele>345.4</ele>
        <time>2025-05-27T09:40:05Z</time>
      </trkpt>
      <trkpt lat="45.67223" lon="5.28018">
        <ele>345</ele>
        <time>2025-05-27T09:40:06Z</time>
      </trkpt>
      <trkpt lat="45.67221" lon="5.28025">
        <ele>345</ele>
        <time>2025-05-27T09:40:07Z</time>
      </trkpt>
      <trkpt lat="45.6722" lon="5.28032">
        <ele>344.8</ele>
        <time>2025-05-27T09:40:08Z</time>
      </trkpt>
      <trkpt lat="45.67218" lon="5.28039">
        <ele>344.4</ele>
        <time>2025-05-27T09:40:09Z</time>
      </trkpt>
      <trkpt lat="45.67216" lon="5.28047">
        <ele>344.8</ele>
        <time>2025-05-27T09:40:10Z</time>
      </trkpt>
      <trkpt lat="45.67214" lon="5.28055">
        <ele>344</ele>
        <time>2025-05-27T09:40:11Z</time>
      </trkpt>
      <trkpt lat="45.67211" lon="5.28062">
        <ele>343.6</ele>
        <time>2025-05-27T09:40:12Z</time>
      </trkpt>
      <trkpt lat="45.67208" lon="5.28069">
        <ele>343.6</ele>
        <time>2025-05-27T09:40:13Z</time>
      </trkpt>
      <trkpt lat="45.67205" lon="5.28074">
        <ele>343.2</ele>
        <time>2025-05-27T09:40:14Z</time>
      </trkpt>
      <trkpt lat="45.67201" lon="5.28078">
        <ele>343.8</ele>
        <time>2025-05-27T09:40:15Z</time>
      </trkpt>
      <trkpt lat="45.67196" lon="5.2808">
        <ele>343.6</ele>
        <time>2025-05-27T09:40:16Z</time>
      </trkpt>
      <trkpt lat="45.67191" lon="5.2808">
        <ele>343.6</ele>
        <time>2025-05-27T09:40:17Z</time>
      </trkpt>
      <trkpt lat="45.67186" lon="5.28079">
        <ele>343.2</ele>
        <time>2025-05-27T09:40:18Z</time>
      </trkpt>
      <trkpt lat="45.67181" lon="5.28078">
        <ele>343.2</ele>
        <time>2025-05-27T09:40:19Z</time>
      </trkpt>
      <trkpt lat="45.67176" lon="5.28078">
        <ele>343.2</ele>
        <time>2025-05-27T09:40:20Z</time>
      </trkpt>
      <trkpt lat="45.67171" lon="5.2808">
        <ele>344.2</ele>
        <time>2025-05-27T09:40:21Z</time>
      </trkpt>
      <trkpt lat="45.67166" lon="5.28081">
        <ele>344.2</ele>
        <time>2025-05-27T09:40:22Z</time>
      </trkpt>
      <trkpt lat="45.6716" lon="5.28081">
        <ele>344.2</ele>
        <time>2025-05-27T09:40:23Z</time>
      </trkpt>
      <trkpt lat="45.67156" lon="5.28083">
        <ele>344.2</ele>
        <time>2025-05-27T09:40:24Z</time>
      </trkpt>
      <trkpt lat="45.67152" lon="5.28086">
        <ele>343.8</ele>
        <time>2025-05-27T09:40:25Z</time>
      </trkpt>
      <trkpt lat="45.67149" lon="5.28089">
        <ele>343.4</ele>
        <time>2025-05-27T09:40:26Z</time>
      </trkpt>
      <trkpt lat="45.67145" lon="5.28092">
        <ele>343</ele>
        <time>2025-05-27T09:40:27Z</time>
      </trkpt>
      <trkpt lat="45.6714" lon="5.28095">
        <ele>344.8</ele>
        <time>2025-05-27T09:40:28Z</time>
      </trkpt>
      <trkpt lat="45.67136" lon="5.28098">
        <ele>343.6</ele>
        <time>2025-05-27T09:40:29Z</time>
      </trkpt>
      <trkpt lat="45.67132" lon="5.28101">
        <ele>342.8</ele>
        <time>2025-05-27T09:40:30Z</time>
      </trkpt>
      <trkpt lat="45.67127" lon="5.28105">
        <ele>342.6</ele>
        <time>2025-05-27T09:40:31Z</time>
      </trkpt>
      <trkpt lat="45.67123" lon="5.28108">
        <ele>342.2</ele>
        <time>2025-05-27T09:40:32Z</time>
      </trkpt>
      <trkpt lat="45.67119" lon="5.28112">
        <ele>342.4</ele>
        <time>2025-05-27T09:40:33Z</time>
      </trkpt>
      <trkpt lat="45.67115" lon="5.28115">
        <ele>342</ele>
        <time>2025-05-27T09:40:34Z</time>
      </trkpt>
      <trkpt lat="45.67111" lon="5.28118">
        <ele>342</ele>
        <time>2025-05-27T09:40:35Z</time>
      </trkpt>
      <trkpt lat="45.67107" lon="5.28119">
        <ele>342.4</ele>
        <time>2025-05-27T09:40:36Z</time>
      </trkpt>
      <trkpt lat="45.67105" lon="5.28122">
        <ele>342.4</ele>
        <time>2025-05-27T09:40:37Z</time>
      </trkpt>
      <trkpt lat="45.67103" lon="5.28123">
        <ele>342.4</ele>
        <time>2025-05-27T09:40:38Z</time>
      </trkpt>
      <trkpt lat="45.67101" lon="5.28126">
        <ele>342.4</ele>
        <time>2025-05-27T09:40:39Z</time>
      </trkpt>
      <trkpt lat="45.67099" lon="5.28127">
        <ele>342.6</ele>
        <time>2025-05-27T09:40:40Z</time>
      </trkpt>
      <trkpt lat="45.67097" lon="5.28129">
        <ele>342.6</ele>
        <time>2025-05-27T09:40:41Z</time>
      </trkpt>
      <trkpt lat="45.67096" lon="5.28132">
        <ele>342.6</ele>
        <time>2025-05-27T09:40:42Z</time>
      </trkpt>
      <trkpt lat="45.67096" lon="5.28135">
        <ele>342.6</ele>
        <time>2025-05-27T09:40:43Z</time>
      </trkpt>
      <trkpt lat="45.67095" lon="5.28136">
        <ele>342.6</ele>
        <time>2025-05-27T09:40:44Z</time>
      </trkpt>
      <trkpt lat="45.67093" lon="5.28138">
        <ele>342.6</ele>
        <time>2025-05-27T09:40:45Z</time>
      </trkpt>
      <trkpt lat="45.67093" lon="5.2814">
        <ele>342.6</ele>
        <time>2025-05-27T09:40:46Z</time>
      </trkpt>
      <trkpt lat="45.67092" lon="5.28142">
        <ele>342.6</ele>
        <time>2025-05-27T09:40:47Z</time>
      </trkpt>
      <trkpt lat="45.67091" lon="5.28143">
        <ele>342.4</ele>
        <time>2025-05-27T09:40:48Z</time>
      </trkpt>
      <trkpt lat="45.67091" lon="5.28146">
        <ele>342.4</ele>
        <time>2025-05-27T09:40:49Z</time>
      </trkpt>
      <trkpt lat="45.6709" lon="5.28148">
        <ele>342.2</ele>
        <time>2025-05-27T09:40:50Z</time>
      </trkpt>
      <trkpt lat="45.6709" lon="5.28151">
        <ele>342</ele>
        <time>2025-05-27T09:40:51Z</time>
      </trkpt>
      <trkpt lat="45.67089" lon="5.28154">
        <ele>341.6</ele>
        <time>2025-05-27T09:40:52Z</time>
      </trkpt>
      <trkpt lat="45.67088" lon="5.28158">
        <ele>341.2</ele>
        <time>2025-05-27T09:40:53Z</time>
      </trkpt>
      <trkpt lat="45.67088" lon="5.28161">
        <ele>340.8</ele>
        <time>2025-05-27T09:40:54Z</time>
      </trkpt>
      <trkpt lat="45.67086" lon="5.28165">
        <ele>340.6</ele>
        <time>2025-05-27T09:40:55Z</time>
      </trkpt>
      <trkpt lat="45.67085" lon="5.28168">
        <ele>340.6</ele>
        <time>2025-05-27T09:40:56Z</time>
      </trkpt>
      <trkpt lat="45.67084" lon="5.28172">
        <ele>340.4</ele>
        <time>2025-05-27T09:40:57Z</time>
      </trkpt>
      <trkpt lat="45.67083" lon="5.28177">
        <ele>340.4</ele>
        <time>2025-05-27T09:40:58Z</time>
      </trkpt>
      <trkpt lat="45.67082" lon="5.28182">
        <ele>340.4</ele>
        <time>2025-05-27T09:40:59Z</time>
      </trkpt>
      <trkpt lat="45.67081" lon="5.28187">
        <ele>340.4</ele>
        <time>2025-05-27T09:41:00Z</time>
      </trkpt>
      <trkpt lat="45.67081" lon="5.28192">
        <ele>340.4</ele>
        <time>2025-05-27T09:41:01Z</time>
      </trkpt>
      <trkpt lat="45.6708" lon="5.28196">
        <ele>340.4</ele>
        <time>2025-05-27T09:41:02Z</time>
      </trkpt>
      <trkpt lat="45.67079" lon="5.282">
        <ele>340.2</ele>
        <time>2025-05-27T09:41:03Z</time>
      </trkpt>
      <trkpt lat="45.67078" lon="5.28205">
        <ele>340.2</ele>
        <time>2025-05-27T09:41:04Z</time>
      </trkpt>
      <trkpt lat="45.67077" lon="5.28208">
        <ele>339.8</ele>
        <time>2025-05-27T09:41:05Z</time>
      </trkpt>
      <trkpt lat="45.67076" lon="5.28212">
        <ele>339.6</ele>
        <time>2025-05-27T09:41:06Z</time>
      </trkpt>
      <trkpt lat="45.67075" lon="5.28215">
        <ele>339.6</ele>
        <time>2025-05-27T09:41:07Z</time>
      </trkpt>
      <trkpt lat="45.67074" lon="5.28218">
        <ele>339.6</ele>
        <time>2025-05-27T09:41:08Z</time>
      </trkpt>
      <trkpt lat="45.67073" lon="5.2822">
        <ele>339.6</ele>
        <time>2025-05-27T09:41:09Z</time>
      </trkpt>
      <trkpt lat="45.67071" lon="5.28225">
        <ele>339.2</ele>
        <time>2025-05-27T09:41:10Z</time>
      </trkpt>
      <trkpt lat="45.67069" lon="5.28229">
        <ele>339.2</ele>
        <time>2025-05-27T09:41:11Z</time>
      </trkpt>
      <trkpt lat="45.67067" lon="5.28233">
        <ele>338.8</ele>
        <time>2025-05-27T09:41:12Z</time>
      </trkpt>
      <trkpt lat="45.67066" lon="5.28236">
        <ele>338</ele>
        <time>2025-05-27T09:41:13Z</time>
      </trkpt>
      <trkpt lat="45.67064" lon="5.2824">
        <ele>337.8</ele>
        <time>2025-05-27T09:41:14Z</time>
      </trkpt>
      <trkpt lat="45.67062" lon="5.28243">
        <ele>337.4</ele>
        <time>2025-05-27T09:41:15Z</time>
      </trkpt>
      <trkpt lat="45.67061" lon="5.28247">
        <ele>337.4</ele>
        <time>2025-05-27T09:41:16Z</time>
      </trkpt>
      <trkpt lat="45.6706" lon="5.2825">
        <ele>337.4</ele>
        <time>2025-05-27T09:41:17Z</time>
      </trkpt>
      <trkpt lat="45.67059" lon="5.28253">
        <ele>337.2</ele>
        <time>2025-05-27T09:41:18Z</time>
      </trkpt>
      <trkpt lat="45.67058" lon="5.28255">
        <ele>336.8</ele>
        <time>2025-05-27T09:41:19Z</time>
      </trkpt>
      <trkpt lat="45.67057" lon="5.28257">
        <ele>336.4</ele>
        <time>2025-05-27T09:41:20Z</time>
      </trkpt>
      <trkpt lat="45.67056" lon="5.28259">
        <ele>336.4</ele>
        <time>2025-05-27T09:41:21Z</time>
      </trkpt>
      <trkpt lat="45.67055" lon="5.2826">
        <ele>336</ele>
        <time>2025-05-27T09:41:22Z</time>
      </trkpt>
      <trkpt lat="45.67054" lon="5.28261">
        <ele>335.8</ele>
        <time>2025-05-27T09:41:23Z</time>
      </trkpt>
      <trkpt lat="45.67052" lon="5.28261">
        <ele>335.6</ele>
        <time>2025-05-27T09:41:24Z</time>
      </trkpt>
      <trkpt lat="45.6705" lon="5.28259">
        <ele>335.4</ele>
        <time>2025-05-27T09:41:25Z</time>
      </trkpt>
      <trkpt lat="45.67048" lon="5.28257">
        <ele>335</ele>
        <time>2025-05-27T09:41:26Z</time>
      </trkpt>
      <trkpt lat="45.67048" lon="5.28254">
        <ele>335</ele>
        <time>2025-05-27T09:41:27Z</time>
      </trkpt>
      <trkpt lat="45.67048" lon="5.28253">
        <ele>335</ele>
        <time>2025-05-27T09:41:28Z</time>
      </trkpt>
      <trkpt lat="45.67048" lon="5.28251">
        <ele>335</ele>
        <time>2025-05-27T09:41:29Z</time>
      </trkpt>
      <trkpt lat="45.67048" lon="5.2825">
        <ele>334.8</ele>
        <time>2025-05-27T09:41:30Z</time>
      </trkpt>
      <trkpt lat="45.67047" lon="5.28248">
        <ele>334.8</ele>
        <time>2025-05-27T09:41:31Z</time>
      </trkpt>
      <trkpt lat="45.67047" lon="5.28246">
        <ele>334.8</ele>
        <time>2025-05-27T09:41:32Z</time>
      </trkpt>
      <trkpt lat="45.67047" lon="5.28244">
        <ele>334.8</ele>
        <time>2025-05-27T09:41:33Z</time>
      </trkpt>
      <trkpt lat="45.67046" lon="5.28243">
        <ele>334.8</ele>
        <time>2025-05-27T09:41:34Z</time>
      </trkpt>
      <trkpt lat="45.67045" lon="5.28244">
        <ele>334.6</ele>
        <time>2025-05-27T09:41:35Z</time>
      </trkpt>
      <trkpt lat="45.67044" lon="5.28247">
        <ele>334.6</ele>
        <time>2025-05-27T09:41:36Z</time>
      </trkpt>
      <trkpt lat="45.67045" lon="5.2825">
        <ele>334.6</ele>
        <time>2025-05-27T09:41:37Z</time>
      </trkpt>
      <trkpt lat="45.67046" lon="5.28254">
        <ele>334.6</ele>
        <time>2025-05-27T09:41:38Z</time>
      </trkpt>
      <trkpt lat="45.67048" lon="5.28257">
        <ele>334.6</ele>
        <time>2025-05-27T09:41:39Z</time>
      </trkpt>
      <trkpt lat="45.67049" lon="5.28262">
        <ele>334.6</ele>
        <time>2025-05-27T09:41:40Z</time>
      </trkpt>
      <trkpt lat="45.6705" lon="5.28266">
        <ele>334.4</ele>
        <time>2025-05-27T09:41:41Z</time>
      </trkpt>
      <trkpt lat="45.67051" lon="5.28271">
        <ele>334.2</ele>
        <time>2025-05-27T09:41:42Z</time>
      </trkpt>
      <trkpt lat="45.67052" lon="5.28275">
        <ele>333.8</ele>
        <time>2025-05-27T09:41:43Z</time>
      </trkpt>
      <trkpt lat="45.67053" lon="5.2828">
        <ele>333.4</ele>
        <time>2025-05-27T09:41:44Z</time>
      </trkpt>
      <trkpt lat="45.67055" lon="5.28289">
        <ele>333.4</ele>
        <time>2025-05-27T09:41:45Z</time>
      </trkpt>
      <trkpt lat="45.67057" lon="5.28293">
        <ele>333.2</ele>
        <time>2025-05-27T09:41:46Z</time>
      </trkpt>
      <trkpt lat="45.67058" lon="5.28298">
        <ele>332.8</ele>
        <time>2025-05-27T09:41:47Z</time>
      </trkpt>
      <trkpt lat="45.67059" lon="5.28303">
        <ele>332.8</ele>
        <time>2025-05-27T09:41:48Z</time>
      </trkpt>
      <trkpt lat="45.67061" lon="5.28308">
        <ele>332.8</ele>
        <time>2025-05-27T09:41:49Z</time>
      </trkpt>
      <trkpt lat="45.67063" lon="5.28314">
        <ele>332.6</ele>
        <time>2025-05-27T09:41:50Z</time>
      </trkpt>
      <trkpt lat="45.67064" lon="5.28319">
        <ele>332.6</ele>
        <time>2025-05-27T09:41:51Z</time>
      </trkpt>
      <trkpt lat="45.67064" lon="5.28329">
        <ele>332.6</ele>
        <time>2025-05-27T09:41:52Z</time>
      </trkpt>
      <trkpt lat="45.67066" lon="5.28336">
        <ele>332.6</ele>
        <time>2025-05-27T09:41:53Z</time>
      </trkpt>
      <trkpt lat="45.67067" lon="5.28342">
        <ele>332.4</ele>
        <time>2025-05-27T09:41:54Z</time>
      </trkpt>
      <trkpt lat="45.67069" lon="5.28351">
        <ele>332.4</ele>
        <time>2025-05-27T09:41:55Z</time>
      </trkpt>
      <trkpt lat="45.6707" lon="5.28358">
        <ele>332</ele>
        <time>2025-05-27T09:41:56Z</time>
      </trkpt>
      <trkpt lat="45.67072" lon="5.28367">
        <ele>332.2</ele>
        <time>2025-05-27T09:41:57Z</time>
      </trkpt>
      <trkpt lat="45.67073" lon="5.28375">
        <ele>332</ele>
        <time>2025-05-27T09:41:58Z</time>
      </trkpt>
      <trkpt lat="45.67075" lon="5.28383">
        <ele>331.6</ele>
        <time>2025-05-27T09:41:59Z</time>
      </trkpt>
      <trkpt lat="45.67077" lon="5.28391">
        <ele>331.6</ele>
        <time>2025-05-27T09:42:00Z</time>
      </trkpt>
      <trkpt lat="45.67079" lon="5.28399">
        <ele>331.6</ele>
        <time>2025-05-27T09:42:01Z</time>
      </trkpt>
      <trkpt lat="45.67081" lon="5.28407">
        <ele>331</ele>
        <time>2025-05-27T09:42:02Z</time>
      </trkpt>
      <trkpt lat="45.67083" lon="5.28416">
        <ele>330.8</ele>
        <time>2025-05-27T09:42:03Z</time>
      </trkpt>
      <trkpt lat="45.67084" lon="5.28425">
        <ele>330.6</ele>
        <time>2025-05-27T09:42:04Z</time>
      </trkpt>
      <trkpt lat="45.67085" lon="5.28435">
        <ele>330.4</ele>
        <time>2025-05-27T09:42:05Z</time>
      </trkpt>
      <trkpt lat="45.67085" lon="5.28435">
        <ele>330</ele>
        <time>2025-05-27T09:42:06Z</time>
      </trkpt>
      <trkpt lat="45.67088" lon="5.28444">
        <ele>329.8</ele>
        <time>2025-05-27T09:42:07Z</time>
      </trkpt>
      <trkpt lat="45.67089" lon="5.28454">
        <ele>329.8</ele>
        <time>2025-05-27T09:42:08Z</time>
      </trkpt>
      <trkpt lat="45.67091" lon="5.28462">
        <ele>329.4</ele>
        <time>2025-05-27T09:42:09Z</time>
      </trkpt>
      <trkpt lat="45.67093" lon="5.28473">
        <ele>329.4</ele>
        <time>2025-05-27T09:42:10Z</time>
      </trkpt>
      <trkpt lat="45.67094" lon="5.28481">
        <ele>328.8</ele>
        <time>2025-05-27T09:42:11Z</time>
      </trkpt>
      <trkpt lat="45.67097" lon="5.28491">
        <ele>328.4</ele>
        <time>2025-05-27T09:42:12Z</time>
      </trkpt>
      <trkpt lat="45.67099" lon="5.28502">
        <ele>328</ele>
        <time>2025-05-27T09:42:13Z</time>
      </trkpt>
      <trkpt lat="45.67101" lon="5.28513">
        <ele>328.4</ele>
        <time>2025-05-27T09:42:14Z</time>
      </trkpt>
      <trkpt lat="45.67103" lon="5.28524">
        <ele>328.4</ele>
        <time>2025-05-27T09:42:15Z</time>
      </trkpt>
      <trkpt lat="45.67105" lon="5.28535">
        <ele>327.6</ele>
        <time>2025-05-27T09:42:16Z</time>
      </trkpt>
      <trkpt lat="45.67106" lon="5.28546">
        <ele>327.2</ele>
        <time>2025-05-27T09:42:17Z</time>
      </trkpt>
      <trkpt lat="45.67109" lon="5.28556">
        <ele>326.8</ele>
        <time>2025-05-27T09:42:18Z</time>
      </trkpt>
      <trkpt lat="45.67111" lon="5.28568">
        <ele>326.2</ele>
        <time>2025-05-27T09:42:19Z</time>
      </trkpt>
      <trkpt lat="45.67113" lon="5.28578">
        <ele>325.6</ele>
        <time>2025-05-27T09:42:20Z</time>
      </trkpt>
      <trkpt lat="45.67115" lon="5.2859">
        <ele>325.6</ele>
        <time>2025-05-27T09:42:21Z</time>
      </trkpt>
      <trkpt lat="45.67118" lon="5.28601">
        <ele>325</ele>
        <time>2025-05-27T09:42:22Z</time>
      </trkpt>
      <trkpt lat="45.67121" lon="5.28611">
        <ele>324.6</ele>
        <time>2025-05-27T09:42:23Z</time>
      </trkpt>
      <trkpt lat="45.67123" lon="5.28621">
        <ele>324.2</ele>
        <time>2025-05-27T09:42:24Z</time>
      </trkpt>
      <trkpt lat="45.67127" lon="5.28632">
        <ele>324</ele>
        <time>2025-05-27T09:42:25Z</time>
      </trkpt>
      <trkpt lat="45.6713" lon="5.28642">
        <ele>323.6</ele>
        <time>2025-05-27T09:42:26Z</time>
      </trkpt>
      <trkpt lat="45.67133" lon="5.28653">
        <ele>323.2</ele>
        <time>2025-05-27T09:42:27Z</time>
      </trkpt>
      <trkpt lat="45.67136" lon="5.28661">
        <ele>322.8</ele>
        <time>2025-05-27T09:42:28Z</time>
      </trkpt>
      <trkpt lat="45.67139" lon="5.2867">
        <ele>322.6</ele>
        <time>2025-05-27T09:42:29Z</time>
      </trkpt>
      <trkpt lat="45.67143" lon="5.28679">
        <ele>323.4</ele>
        <time>2025-05-27T09:42:30Z</time>
      </trkpt>
      <trkpt lat="45.67147" lon="5.28687">
        <ele>323.4</ele>
        <time>2025-05-27T09:42:31Z</time>
      </trkpt>
      <trkpt lat="45.67152" lon="5.28696">
        <ele>323.4</ele>
        <time>2025-05-27T09:42:32Z</time>
      </trkpt>
      <trkpt lat="45.67156" lon="5.28704">
        <ele>323.4</ele>
        <time>2025-05-27T09:42:33Z</time>
      </trkpt>
      <trkpt lat="45.6716" lon="5.28713">
        <ele>323.4</ele>
        <time>2025-05-27T09:42:34Z</time>
      </trkpt>
      <trkpt lat="45.67164" lon="5.28722">
        <ele>323.4</ele>
        <time>2025-05-27T09:42:35Z</time>
      </trkpt>
      <trkpt lat="45.67168" lon="5.2873">
        <ele>323</ele>
        <time>2025-05-27T09:42:36Z</time>
      </trkpt>
      <trkpt lat="45.67171" lon="5.2874">
        <ele>322.6</ele>
        <time>2025-05-27T09:42:37Z</time>
      </trkpt>
      <trkpt lat="45.67175" lon="5.28749">
        <ele>322</ele>
        <time>2025-05-27T09:42:38Z</time>
      </trkpt>
      <trkpt lat="45.67179" lon="5.28758">
        <ele>321.4</ele>
        <time>2025-05-27T09:42:39Z</time>
      </trkpt>
      <trkpt lat="45.67183" lon="5.28766">
        <ele>320.8</ele>
        <time>2025-05-27T09:42:40Z</time>
      </trkpt>
      <trkpt lat="45.67188" lon="5.28773">
        <ele>320.8</ele>
        <time>2025-05-27T09:42:41Z</time>
      </trkpt>
      <trkpt lat="45.67192" lon="5.28781">
        <ele>320.8</ele>
        <time>2025-05-27T09:42:42Z</time>
      </trkpt>
      <trkpt lat="45.67196" lon="5.28788">
        <ele>320.8</ele>
        <time>2025-05-27T09:42:43Z</time>
      </trkpt>
      <trkpt lat="45.67199" lon="5.28794">
        <ele>320.6</ele>
        <time>2025-05-27T09:42:44Z</time>
      </trkpt>
      <trkpt lat="45.67201" lon="5.28799">
        <ele>320.6</ele>
        <time>2025-05-27T09:42:45Z</time>
      </trkpt>
      <trkpt lat="45.67202" lon="5.28803">
        <ele>321</ele>
        <time>2025-05-27T09:42:46Z</time>
      </trkpt>
      <trkpt lat="45.67204" lon="5.28806">
        <ele>321.2</ele>
        <time>2025-05-27T09:42:47Z</time>
      </trkpt>
      <trkpt lat="45.67205" lon="5.28811">
        <ele>321.2</ele>
        <time>2025-05-27T09:42:48Z</time>
      </trkpt>
      <trkpt lat="45.67204" lon="5.28816">
        <ele>321.4</ele>
        <time>2025-05-27T09:42:49Z</time>
      </trkpt>
      <trkpt lat="45.67202" lon="5.2882">
        <ele>321.4</ele>
        <time>2025-05-27T09:42:50Z</time>
      </trkpt>
      <trkpt lat="45.67198" lon="5.28823">
        <ele>321.4</ele>
        <time>2025-05-27T09:42:51Z</time>
      </trkpt>
      <trkpt lat="45.67194" lon="5.28827">
        <ele>321</ele>
        <time>2025-05-27T09:42:52Z</time>
      </trkpt>
      <trkpt lat="45.6719" lon="5.28831">
        <ele>321</ele>
        <time>2025-05-27T09:42:53Z</time>
      </trkpt>
      <trkpt lat="45.67184" lon="5.28835">
        <ele>320.8</ele>
        <time>2025-05-27T09:42:54Z</time>
      </trkpt>
      <trkpt lat="45.6718" lon="5.28839">
        <ele>320.8</ele>
        <time>2025-05-27T09:42:55Z</time>
      </trkpt>
      <trkpt lat="45.67174" lon="5.28844">
        <ele>320.8</ele>
        <time>2025-05-27T09:42:56Z</time>
      </trkpt>
      <trkpt lat="45.67168" lon="5.28849">
        <ele>320.8</ele>
        <time>2025-05-27T09:42:57Z</time>
      </trkpt>
      <trkpt lat="45.67163" lon="5.28854">
        <ele>320.8</ele>
        <time>2025-05-27T09:42:58Z</time>
      </trkpt>
      <trkpt lat="45.67157" lon="5.28859">
        <ele>320.4</ele>
        <time>2025-05-27T09:42:59Z</time>
      </trkpt>
      <trkpt lat="45.67152" lon="5.28864">
        <ele>320</ele>
        <time>2025-05-27T09:43:00Z</time>
      </trkpt>
      <trkpt lat="45.67145" lon="5.28869">
        <ele>320</ele>
        <time>2025-05-27T09:43:01Z</time>
      </trkpt>
      <trkpt lat="45.67139" lon="5.28874">
        <ele>319.8</ele>
        <time>2025-05-27T09:43:02Z</time>
      </trkpt>
      <trkpt lat="45.67133" lon="5.2888">
        <ele>319.8</ele>
        <time>2025-05-27T09:43:03Z</time>
      </trkpt>
      <trkpt lat="45.67127" lon="5.28884">
        <ele>319.2</ele>
        <time>2025-05-27T09:43:04Z</time>
      </trkpt>
      <trkpt lat="45.67122" lon="5.28889">
        <ele>318.2</ele>
        <time>2025-05-27T09:43:05Z</time>
      </trkpt>
      <trkpt lat="45.67115" lon="5.28893">
        <ele>318.8</ele>
        <time>2025-05-27T09:43:06Z</time>
      </trkpt>
      <trkpt lat="45.67109" lon="5.28897">
        <ele>318.8</ele>
        <time>2025-05-27T09:43:07Z</time>
      </trkpt>
      <trkpt lat="45.67103" lon="5.28901">
        <ele>318.8</ele>
        <time>2025-05-27T09:43:08Z</time>
      </trkpt>
      <trkpt lat="45.67097" lon="5.28904">
        <ele>318.6</ele>
        <time>2025-05-27T09:43:09Z</time>
      </trkpt>
      <trkpt lat="45.67089" lon="5.28907">
        <ele>318.2</ele>
        <time>2025-05-27T09:43:10Z</time>
      </trkpt>
      <trkpt lat="45.67083" lon="5.2891">
        <ele>318</ele>
        <time>2025-05-27T09:43:11Z</time>
      </trkpt>
      <trkpt lat="45.67076" lon="5.28912">
        <ele>317.6</ele>
        <time>2025-05-27T09:43:12Z</time>
      </trkpt>
      <trkpt lat="45.67068" lon="5.28914">
        <ele>317.2</ele>
        <time>2025-05-27T09:43:13Z</time>
      </trkpt>
      <trkpt lat="45.67061" lon="5.28916">
        <ele>317</ele>
        <time>2025-05-27T09:43:14Z</time>
      </trkpt>
      <trkpt lat="45.67055" lon="5.28919">
        <ele>317</ele>
        <time>2025-05-27T09:43:15Z</time>
      </trkpt>
      <trkpt lat="45.67048" lon="5.2892">
        <ele>316.6</ele>
        <time>2025-05-27T09:43:16Z</time>
      </trkpt>
      <trkpt lat="45.6704" lon="5.28924">
        <ele>316</ele>
        <time>2025-05-27T09:43:17Z</time>
      </trkpt>
      <trkpt lat="45.67034" lon="5.28923">
        <ele>315.8</ele>
        <time>2025-05-27T09:43:18Z</time>
      </trkpt>
      <trkpt lat="45.67027" lon="5.28926">
        <ele>315.6</ele>
        <time>2025-05-27T09:43:19Z</time>
      </trkpt>
      <trkpt lat="45.67021" lon="5.28927">
        <ele>315.2</ele>
        <time>2025-05-27T09:43:20Z</time>
      </trkpt>
      <trkpt lat="45.67015" lon="5.2893">
        <ele>315.2</ele>
        <time>2025-05-27T09:43:21Z</time>
      </trkpt>
      <trkpt lat="45.67008" lon="5.28933">
        <ele>315.2</ele>
        <time>2025-05-27T09:43:22Z</time>
      </trkpt>
      <trkpt lat="45.67003" lon="5.28937">
        <ele>314.6</ele>
        <time>2025-05-27T09:43:23Z</time>
      </trkpt>
      <trkpt lat="45.66997" lon="5.28945">
        <ele>314.2</ele>
        <time>2025-05-27T09:43:24Z</time>
      </trkpt>
      <trkpt lat="45.66994" lon="5.28953">
        <ele>313.8</ele>
        <time>2025-05-27T09:43:25Z</time>
      </trkpt>
      <trkpt lat="45.66992" lon="5.28959">
        <ele>313.6</ele>
        <time>2025-05-27T09:43:26Z</time>
      </trkpt>
      <trkpt lat="45.6699" lon="5.28968">
        <ele>313.6</ele>
        <time>2025-05-27T09:43:27Z</time>
      </trkpt>
      <trkpt lat="45.6699" lon="5.28976">
        <ele>312.8</ele>
        <time>2025-05-27T09:43:28Z</time>
      </trkpt>
      <trkpt lat="45.6699" lon="5.28984">
        <ele>312.4</ele>
        <time>2025-05-27T09:43:29Z</time>
      </trkpt>
      <trkpt lat="45.66991" lon="5.28992">
        <ele>312</ele>
        <time>2025-05-27T09:43:30Z</time>
      </trkpt>
      <trkpt lat="45.66994" lon="5.29">
        <ele>311.4</ele>
        <time>2025-05-27T09:43:31Z</time>
      </trkpt>
      <trkpt lat="45.66996" lon="5.29009">
        <ele>311.2</ele>
        <time>2025-05-27T09:43:32Z</time>
      </trkpt>
      <trkpt lat="45.66998" lon="5.29017">
        <ele>310.8</ele>
        <time>2025-05-27T09:43:33Z</time>
      </trkpt>
      <trkpt lat="45.67001" lon="5.29025">
        <ele>311.2</ele>
        <time>2025-05-27T09:43:34Z</time>
      </trkpt>
      <trkpt lat="45.67003" lon="5.29031">
        <ele>311.6</ele>
        <time>2025-05-27T09:43:35Z</time>
      </trkpt>
      <trkpt lat="45.67005" lon="5.29038">
        <ele>311.8</ele>
        <time>2025-05-27T09:43:36Z</time>
      </trkpt>
      <trkpt lat="45.67007" lon="5.29045">
        <ele>311.8</ele>
        <time>2025-05-27T09:43:37Z</time>
      </trkpt>
      <trkpt lat="45.67009" lon="5.29052">
        <ele>312.4</ele>
        <time>2025-05-27T09:43:38Z</time>
      </trkpt>
      <trkpt lat="45.6701" lon="5.29059">
        <ele>312.6</ele>
        <time>2025-05-27T09:43:39Z</time>
      </trkpt>
      <trkpt lat="45.67011" lon="5.29065">
        <ele>313</ele>
        <time>2025-05-27T09:43:40Z</time>
      </trkpt>
      <trkpt lat="45.67012" lon="5.29072">
        <ele>313</ele>
        <time>2025-05-27T09:43:41Z</time>
      </trkpt>
      <trkpt lat="45.67014" lon="5.29078">
        <ele>313</ele>
        <time>2025-05-27T09:43:42Z</time>
      </trkpt>
      <trkpt lat="45.67015" lon="5.29084">
        <ele>312.6</ele>
        <time>2025-05-27T09:43:43Z</time>
      </trkpt>
      <trkpt lat="45.67016" lon="5.2909">
        <ele>312.6</ele>
        <time>2025-05-27T09:43:44Z</time>
      </trkpt>
      <trkpt lat="45.67018" lon="5.29096">
        <ele>312.8</ele>
        <time>2025-05-27T09:43:45Z</time>
      </trkpt>
      <trkpt lat="45.6702" lon="5.29102">
        <ele>313.2</ele>
        <time>2025-05-27T09:43:46Z</time>
      </trkpt>
      <trkpt lat="45.67023" lon="5.29107">
        <ele>313.2</ele>
        <time>2025-05-27T09:43:47Z</time>
      </trkpt>
      <trkpt lat="45.67026" lon="5.29112">
        <ele>313.2</ele>
        <time>2025-05-27T09:43:48Z</time>
      </trkpt>
      <trkpt lat="45.6703" lon="5.29117">
        <ele>312.8</ele>
        <time>2025-05-27T09:43:49Z</time>
      </trkpt>
      <trkpt lat="45.67035" lon="5.2912">
        <ele>312.4</ele>
        <time>2025-05-27T09:43:50Z</time>
      </trkpt>
      <trkpt lat="45.67041" lon="5.29121">
        <ele>312.4</ele>
        <time>2025-05-27T09:43:51Z</time>
      </trkpt>
      <trkpt lat="45.67046" lon="5.29122">
        <ele>312.4</ele>
        <time>2025-05-27T09:43:52Z</time>
      </trkpt>
      <trkpt lat="45.67051" lon="5.29119">
        <ele>312.6</ele>
        <time>2025-05-27T09:43:53Z</time>
      </trkpt>
      <trkpt lat="45.67056" lon="5.29118">
        <ele>312.6</ele>
        <time>2025-05-27T09:43:54Z</time>
      </trkpt>
      <trkpt lat="45.6706" lon="5.29116">
        <ele>312.6</ele>
        <time>2025-05-27T09:43:55Z</time>
      </trkpt>
      <trkpt lat="45.67065" lon="5.29115">
        <ele>312.6</ele>
        <time>2025-05-27T09:43:56Z</time>
      </trkpt>
      <trkpt lat="45.6707" lon="5.29113">
        <ele>312.4</ele>
        <time>2025-05-27T09:43:57Z</time>
      </trkpt>
      <trkpt lat="45.67074" lon="5.29112">
        <ele>312.2</ele>
        <time>2025-05-27T09:43:58Z</time>
      </trkpt>
      <trkpt lat="45.67079" lon="5.2911">
        <ele>312.4</ele>
        <time>2025-05-27T09:43:59Z</time>
      </trkpt>
      <trkpt lat="45.67083" lon="5.29109">
        <ele>312.6</ele>
        <time>2025-05-27T09:44:00Z</time>
      </trkpt>
      <trkpt lat="45.67087" lon="5.29108">
        <ele>312.6</ele>
        <time>2025-05-27T09:44:01Z</time>
      </trkpt>
      <trkpt lat="45.6709" lon="5.29108">
        <ele>312.6</ele>
        <time>2025-05-27T09:44:02Z</time>
      </trkpt>
      <trkpt lat="45.67092" lon="5.29109">
        <ele>313</ele>
        <time>2025-05-27T09:44:03Z</time>
      </trkpt>
      <trkpt lat="45.67094" lon="5.29111">
        <ele>313</ele>
        <time>2025-05-27T09:44:04Z</time>
      </trkpt>
      <trkpt lat="45.67094" lon="5.29116">
        <ele>313.2</ele>
        <time>2025-05-27T09:44:05Z</time>
      </trkpt>
      <trkpt lat="45.67095" lon="5.2912">
        <ele>313.2</ele>
        <time>2025-05-27T09:44:06Z</time>
      </trkpt>
      <trkpt lat="45.67096" lon="5.29126">
        <ele>313.2</ele>
        <time>2025-05-27T09:44:07Z</time>
      </trkpt>
      <trkpt lat="45.67097" lon="5.29131">
        <ele>313.2</ele>
        <time>2025-05-27T09:44:08Z</time>
      </trkpt>
      <trkpt lat="45.671" lon="5.29137">
        <ele>313.2</ele>
        <time>2025-05-27T09:44:09Z</time>
      </trkpt>
      <trkpt lat="45.671" lon="5.29137">
        <ele>313.2</ele>
        <time>2025-05-27T09:44:10Z</time>
      </trkpt>
      <trkpt lat="45.671" lon="5.29137">
        <ele>313.2</ele>
        <time>2025-05-27T09:44:11Z</time>
      </trkpt>
      <trkpt lat="45.67107" lon="5.29159">
        <ele>313</ele>
        <time>2025-05-27T09:44:13Z</time>
      </trkpt>
      <trkpt lat="45.67109" lon="5.29165">
        <ele>313</ele>
        <time>2025-05-27T09:44:14Z</time>
      </trkpt>
      <trkpt lat="45.67112" lon="5.2917">
        <ele>312.8</ele>
        <time>2025-05-27T09:44:15Z</time>
      </trkpt>
      <trkpt lat="45.67115" lon="5.29177">
        <ele>312.8</ele>
        <time>2025-05-27T09:44:16Z</time>
      </trkpt>
      <trkpt lat="45.67117" lon="5.29182">
        <ele>312.4</ele>
        <time>2025-05-27T09:44:17Z</time>
      </trkpt>
      <trkpt lat="45.6712" lon="5.29188">
        <ele>312.4</ele>
        <time>2025-05-27T09:44:18Z</time>
      </trkpt>
      <trkpt lat="45.67122" lon="5.29194">
        <ele>312.4</ele>
        <time>2025-05-27T09:44:19Z</time>
      </trkpt>
      <trkpt lat="45.67124" lon="5.29199">
        <ele>312.4</ele>
        <time>2025-05-27T09:44:20Z</time>
      </trkpt>
      <trkpt lat="45.67126" lon="5.29206">
        <ele>312.2</ele>
        <time>2025-05-27T09:44:21Z</time>
      </trkpt>
      <trkpt lat="45.67128" lon="5.29212">
        <ele>312.2</ele>
        <time>2025-05-27T09:44:22Z</time>
      </trkpt>
      <trkpt lat="45.6713" lon="5.29219">
        <ele>312.2</ele>
        <time>2025-05-27T09:44:23Z</time>
      </trkpt>
      <trkpt lat="45.67131" lon="5.29225">
        <ele>312.2</ele>
        <time>2025-05-27T09:44:24Z</time>
      </trkpt>
      <trkpt lat="45.67133" lon="5.29229">
        <ele>311.8</ele>
        <time>2025-05-27T09:44:25Z</time>
      </trkpt>
      <trkpt lat="45.67135" lon="5.29233">
        <ele>311.8</ele>
        <time>2025-05-27T09:44:26Z</time>
      </trkpt>
      <trkpt lat="45.67136" lon="5.29237">
        <ele>312.2</ele>
        <time>2025-05-27T09:44:27Z</time>
      </trkpt>
      <trkpt lat="45.67136" lon="5.29242">
        <ele>312.2</ele>
        <time>2025-05-27T09:44:28Z</time>
      </trkpt>
      <trkpt lat="45.67137" lon="5.29246">
        <ele>312.2</ele>
        <time>2025-05-27T09:44:29Z</time>
      </trkpt>
      <trkpt lat="45.67136" lon="5.2925">
        <ele>312.2</ele>
        <time>2025-05-27T09:44:30Z</time>
      </trkpt>
      <trkpt lat="45.67137" lon="5.29253">
        <ele>312.2</ele>
        <time>2025-05-27T09:44:31Z</time>
      </trkpt>
      <trkpt lat="45.67113" lon="5.29173">
        <ele>309.4</ele>
        <time>2025-05-27T09:49:12Z</time>
      </trkpt>
      <trkpt lat="45.67111" lon="5.2917">
        <ele>310</ele>
        <time>2025-05-27T09:49:13Z</time>
      </trkpt>
      <trkpt lat="45.67109" lon="5.29166">
        <ele>310.4</ele>
        <time>2025-05-27T09:49:14Z</time>
      </trkpt>
      <trkpt lat="45.67108" lon="5.29163">
        <ele>310.8</ele>
        <time>2025-05-27T09:49:15Z</time>
      </trkpt>
      <trkpt lat="45.67107" lon="5.29159">
        <ele>311</ele>
        <time>2025-05-27T09:49:16Z</time>
      </trkpt>
      <trkpt lat="45.67106" lon="5.29155">
        <ele>311</ele>
        <time>2025-05-27T09:49:17Z</time>
      </trkpt>
      <trkpt lat="45.67105" lon="5.29151">
        <ele>311.4</ele>
        <time>2025-05-27T09:49:18Z</time>
      </trkpt>
      <trkpt lat="45.67103" lon="5.29147">
        <ele>311.4</ele>
        <time>2025-05-27T09:49:19Z</time>
      </trkpt>
      <trkpt lat="45.67102" lon="5.29142">
        <ele>311.6</ele>
        <time>2025-05-27T09:49:20Z</time>
      </trkpt>
      <trkpt lat="45.671" lon="5.29138">
        <ele>311.6</ele>
        <time>2025-05-27T09:49:21Z</time>
      </trkpt>
      <trkpt lat="45.67098" lon="5.29133">
        <ele>311.8</ele>
        <time>2025-05-27T09:49:22Z</time>
      </trkpt>
      <trkpt lat="45.67097" lon="5.29129">
        <ele>311.8</ele>
        <time>2025-05-27T09:49:23Z</time>
      </trkpt>
      <trkpt lat="45.67095" lon="5.29124">
        <ele>311.8</ele>
        <time>2025-05-27T09:49:24Z</time>
      </trkpt>
      <trkpt lat="45.67094" lon="5.29118">
        <ele>312</ele>
        <time>2025-05-27T09:49:25Z</time>
      </trkpt>
      <trkpt lat="45.67094" lon="5.29113">
        <ele>312</ele>
        <time>2025-05-27T09:49:26Z</time>
      </trkpt>
      <trkpt lat="45.67096" lon="5.29109">
        <ele>311.8</ele>
        <time>2025-05-27T09:49:27Z</time>
      </trkpt>
      <trkpt lat="45.67099" lon="5.29105">
        <ele>311.8</ele>
        <time>2025-05-27T09:49:28Z</time>
      </trkpt>
      <trkpt lat="45.67102" lon="5.29104">
        <ele>311.8</ele>
        <time>2025-05-27T09:49:29Z</time>
      </trkpt>
      <trkpt lat="45.67105" lon="5.29103">
        <ele>311.8</ele>
        <time>2025-05-27T09:49:30Z</time>
      </trkpt>
      <trkpt lat="45.67109" lon="5.29104">
        <ele>310.4</ele>
        <time>2025-05-27T09:49:31Z</time>
      </trkpt>
      <trkpt lat="45.67113" lon="5.29105">
        <ele>310.8</ele>
        <time>2025-05-27T09:49:32Z</time>
      </trkpt>
      <trkpt lat="45.67117" lon="5.29106">
        <ele>310.8</ele>
        <time>2025-05-27T09:49:33Z</time>
      </trkpt>
      <trkpt lat="45.67121" lon="5.29107">
        <ele>311.2</ele>
        <time>2025-05-27T09:49:34Z</time>
      </trkpt>
      <trkpt lat="45.67124" lon="5.29108">
        <ele>311.2</ele>
        <time>2025-05-27T09:49:35Z</time>
      </trkpt>
      <trkpt lat="45.67127" lon="5.29108">
        <ele>311.6</ele>
        <time>2025-05-27T09:49:36Z</time>
      </trkpt>
      <trkpt lat="45.6713" lon="5.29109">
        <ele>311.6</ele>
        <time>2025-05-27T09:49:37Z</time>
      </trkpt>
      <trkpt lat="45.67134" lon="5.29109">
        <ele>311</ele>
        <time>2025-05-27T09:49:38Z</time>
      </trkpt>
      <trkpt lat="45.67138" lon="5.29109">
        <ele>311.4</ele>
        <time>2025-05-27T09:49:39Z</time>
      </trkpt>
      <trkpt lat="45.67141" lon="5.2911">
        <ele>311.6</ele>
        <time>2025-05-27T09:49:40Z</time>
      </trkpt>
      <trkpt lat="45.67144" lon="5.29112">
        <ele>309.8</ele>
        <time>2025-05-27T09:49:41Z</time>
      </trkpt>
      <trkpt lat="45.67148" lon="5.29113">
        <ele>310.2</ele>
        <time>2025-05-27T09:49:42Z</time>
      </trkpt>
      <trkpt lat="45.67152" lon="5.29113">
        <ele>310.6</ele>
        <time>2025-05-27T09:49:43Z</time>
      </trkpt>
      <trkpt lat="45.67156" lon="5.29114">
        <ele>310.6</ele>
        <time>2025-05-27T09:49:44Z</time>
      </trkpt>
      <trkpt lat="45.67159" lon="5.29115">
        <ele>311</ele>
        <time>2025-05-27T09:49:45Z</time>
      </trkpt>
      <trkpt lat="45.67163" lon="5.29116">
        <ele>311</ele>
        <time>2025-05-27T09:49:46Z</time>
      </trkpt>
      <trkpt lat="45.67167" lon="5.29117">
        <ele>311.2</ele>
        <time>2025-05-27T09:49:47Z</time>
      </trkpt>
      <trkpt lat="45.67172" lon="5.29119">
        <ele>311.2</ele>
        <time>2025-05-27T09:49:48Z</time>
      </trkpt>
      <trkpt lat="45.67175" lon="5.29119">
        <ele>311.2</ele>
        <time>2025-05-27T09:49:49Z</time>
      </trkpt>
      <trkpt lat="45.67179" lon="5.2912">
        <ele>311.6</ele>
        <time>2025-05-27T09:49:50Z</time>
      </trkpt>
      <trkpt lat="45.67183" lon="5.29121">
        <ele>311.6</ele>
        <time>2025-05-27T09:49:51Z</time>
      </trkpt>
      <trkpt lat="45.67187" lon="5.29122">
        <ele>311.8</ele>
        <time>2025-05-27T09:49:52Z</time>
      </trkpt>
      <trkpt lat="45.67191" lon="5.29123">
        <ele>311.8</ele>
        <time>2025-05-27T09:49:53Z</time>
      </trkpt>
      <trkpt lat="45.67196" lon="5.29124">
        <ele>311.8</ele>
        <time>2025-05-27T09:49:54Z</time>
      </trkpt>
      <trkpt lat="45.672" lon="5.29126">
        <ele>311.8</ele>
        <time>2025-05-27T09:49:55Z</time>
      </trkpt>
      <trkpt lat="45.67204" lon="5.29127">
        <ele>311.8</ele>
        <time>2025-05-27T09:49:56Z</time>
      </trkpt>
      <trkpt lat="45.67208" lon="5.29129">
        <ele>312</ele>
        <time>2025-05-27T09:49:57Z</time>
      </trkpt>
      <trkpt lat="45.67213" lon="5.2913">
        <ele>312.4</ele>
        <time>2025-05-27T09:49:58Z</time>
      </trkpt>
      <trkpt lat="45.67217" lon="5.29132">
        <ele>312.4</ele>
        <time>2025-05-27T09:49:59Z</time>
      </trkpt>
      <trkpt lat="45.67221" lon="5.29132">
        <ele>312.6</ele>
        <time>2025-05-27T09:50:00Z</time>
      </trkpt>
      <trkpt lat="45.67225" lon="5.29133">
        <ele>312.6</ele>
        <time>2025-05-27T09:50:01Z</time>
      </trkpt>
      <trkpt lat="45.67229" lon="5.29137">
        <ele>312.6</ele>
        <time>2025-05-27T09:50:02Z</time>
      </trkpt>
      <trkpt lat="45.67232" lon="5.29141">
        <ele>312.6</ele>
        <time>2025-05-27T09:50:03Z</time>
      </trkpt>
      <trkpt lat="45.67235" lon="5.29147">
        <ele>312.6</ele>
        <time>2025-05-27T09:50:04Z</time>
      </trkpt>
      <trkpt lat="45.67237" lon="5.29152">
        <ele>312.6</ele>
        <time>2025-05-27T09:50:05Z</time>
      </trkpt>
      <trkpt lat="45.6724" lon="5.29158">
        <ele>312.6</ele>
        <time>2025-05-27T09:50:06Z</time>
      </trkpt>
      <trkpt lat="45.67243" lon="5.29164">
        <ele>312.6</ele>
        <time>2025-05-27T09:50:07Z</time>
      </trkpt>
      <trkpt lat="45.67247" lon="5.29168">
        <ele>312.6</ele>
        <time>2025-05-27T09:50:08Z</time>
      </trkpt>
      <trkpt lat="45.6725" lon="5.29174">
        <ele>312.6</ele>
        <time>2025-05-27T09:50:09Z</time>
      </trkpt>
      <trkpt lat="45.67253" lon="5.29178">
        <ele>312.6</ele>
        <time>2025-05-27T09:50:10Z</time>
      </trkpt>
      <trkpt lat="45.67257" lon="5.29183">
        <ele>312.6</ele>
        <time>2025-05-27T09:50:11Z</time>
      </trkpt>
      <trkpt lat="45.67261" lon="5.29186">
        <ele>312.6</ele>
        <time>2025-05-27T09:50:12Z</time>
      </trkpt>
      <trkpt lat="45.67265" lon="5.29189">
        <ele>312.6</ele>
        <time>2025-05-27T09:50:13Z</time>
      </trkpt>
      <trkpt lat="45.67269" lon="5.29193">
        <ele>312.6</ele>
        <time>2025-05-27T09:50:14Z</time>
      </trkpt>
      <trkpt lat="45.67273" lon="5.29195">
        <ele>312.6</ele>
        <time>2025-05-27T09:50:15Z</time>
      </trkpt>
      <trkpt lat="45.67278" lon="5.29197">
        <ele>312.6</ele>
        <time>2025-05-27T09:50:16Z</time>
      </trkpt>
      <trkpt lat="45.67282" lon="5.29195">
        <ele>312.2</ele>
        <time>2025-05-27T09:50:17Z</time>
      </trkpt>
      <trkpt lat="45.67286" lon="5.29195">
        <ele>312</ele>
        <time>2025-05-27T09:50:18Z</time>
      </trkpt>
      <trkpt lat="45.67291" lon="5.29194">
        <ele>311.8</ele>
        <time>2025-05-27T09:50:19Z</time>
      </trkpt>
      <trkpt lat="45.67296" lon="5.29194">
        <ele>311.2</ele>
        <time>2025-05-27T09:50:20Z</time>
      </trkpt>
      <trkpt lat="45.67301" lon="5.29192">
        <ele>311.2</ele>
        <time>2025-05-27T09:50:21Z</time>
      </trkpt>
      <trkpt lat="45.67305" lon="5.29193">
        <ele>311.2</ele>
        <time>2025-05-27T09:50:22Z</time>
      </trkpt>
      <trkpt lat="45.67311" lon="5.29193">
        <ele>311</ele>
        <time>2025-05-27T09:50:23Z</time>
      </trkpt>
      <trkpt lat="45.67317" lon="5.29193">
        <ele>310.6</ele>
        <time>2025-05-27T09:50:24Z</time>
      </trkpt>
      <trkpt lat="45.67324" lon="5.29196">
        <ele>310.2</ele>
        <time>2025-05-27T09:50:25Z</time>
      </trkpt>
      <trkpt lat="45.67329" lon="5.29198">
        <ele>309.4</ele>
        <time>2025-05-27T09:50:26Z</time>
      </trkpt>
      <trkpt lat="45.67336" lon="5.29199">
        <ele>309</ele>
        <time>2025-05-27T09:50:27Z</time>
      </trkpt>
      <trkpt lat="45.67342" lon="5.29201">
        <ele>308.4</ele>
        <time>2025-05-27T09:50:28Z</time>
      </trkpt>
      <trkpt lat="45.67348" lon="5.29203">
        <ele>308</ele>
        <time>2025-05-27T09:50:29Z</time>
      </trkpt>
      <trkpt lat="45.67355" lon="5.29204">
        <ele>307.6</ele>
        <time>2025-05-27T09:50:30Z</time>
      </trkpt>
      <trkpt lat="45.67362" lon="5.29206">
        <ele>307.6</ele>
        <time>2025-05-27T09:50:31Z</time>
      </trkpt>
      <trkpt lat="45.67368" lon="5.29207">
        <ele>307.2</ele>
        <time>2025-05-27T09:50:32Z</time>
      </trkpt>
      <trkpt lat="45.67375" lon="5.29207">
        <ele>307.2</ele>
        <time>2025-05-27T09:50:33Z</time>
      </trkpt>
      <trkpt lat="45.67382" lon="5.29208">
        <ele>306.8</ele>
        <time>2025-05-27T09:50:34Z</time>
      </trkpt>
      <trkpt lat="45.67389" lon="5.29211">
        <ele>306.8</ele>
        <time>2025-05-27T09:50:35Z</time>
      </trkpt>
      <trkpt lat="45.67396" lon="5.29212">
        <ele>306.2</ele>
        <time>2025-05-27T09:50:36Z</time>
      </trkpt>
      <trkpt lat="45.67403" lon="5.29215">
        <ele>305.8</ele>
        <time>2025-05-27T09:50:37Z</time>
      </trkpt>
      <trkpt lat="45.67409" lon="5.29215">
        <ele>305.8</ele>
        <time>2025-05-27T09:50:38Z</time>
      </trkpt>
      <trkpt lat="45.67417" lon="5.29216">
        <ele>305.8</ele>
        <time>2025-05-27T09:50:39Z</time>
      </trkpt>
      <trkpt lat="45.67424" lon="5.29216">
        <ele>305.4</ele>
        <time>2025-05-27T09:50:40Z</time>
      </trkpt>
      <trkpt lat="45.67431" lon="5.2922">
        <ele>305</ele>
        <time>2025-05-27T09:50:41Z</time>
      </trkpt>
      <trkpt lat="45.67438" lon="5.29218">
        <ele>304.8</ele>
        <time>2025-05-27T09:50:42Z</time>
      </trkpt>
      <trkpt lat="45.67445" lon="5.2922">
        <ele>304.8</ele>
        <time>2025-05-27T09:50:43Z</time>
      </trkpt>
      <trkpt lat="45.67453" lon="5.29216">
        <ele>304.8</ele>
        <time>2025-05-27T09:50:44Z</time>
      </trkpt>
      <trkpt lat="45.67465" lon="5.29219">
        <ele>304.8</ele>
        <time>2025-05-27T09:50:45Z</time>
      </trkpt>
      <trkpt lat="45.6747" lon="5.29223">
        <ele>304.8</ele>
        <time>2025-05-27T09:50:46Z</time>
      </trkpt>
      <trkpt lat="45.67475" lon="5.29227">
        <ele>304.8</ele>
        <time>2025-05-27T09:50:47Z</time>
      </trkpt>
      <trkpt lat="45.6748" lon="5.29232">
        <ele>304.8</ele>
        <time>2025-05-27T09:50:48Z</time>
      </trkpt>
      <trkpt lat="45.67485" lon="5.29238">
        <ele>304.6</ele>
        <time>2025-05-27T09:50:49Z</time>
      </trkpt>
      <trkpt lat="45.6749" lon="5.29244">
        <ele>304.8</ele>
        <time>2025-05-27T09:50:50Z</time>
      </trkpt>
      <trkpt lat="45.67495" lon="5.29251">
        <ele>304.8</ele>
        <time>2025-05-27T09:50:51Z</time>
      </trkpt>
      <trkpt lat="45.67499" lon="5.29257">
        <ele>304.8</ele>
        <time>2025-05-27T09:50:52Z</time>
      </trkpt>
      <trkpt lat="45.67502" lon="5.29264">
        <ele>304.8</ele>
        <time>2025-05-27T09:50:53Z</time>
      </trkpt>
      <trkpt lat="45.67505" lon="5.29272">
        <ele>305.2</ele>
        <time>2025-05-27T09:50:54Z</time>
      </trkpt>
      <trkpt lat="45.67508" lon="5.29281">
        <ele>305.2</ele>
        <time>2025-05-27T09:50:55Z</time>
      </trkpt>
      <trkpt lat="45.6751" lon="5.2929">
        <ele>305.2</ele>
        <time>2025-05-27T09:50:56Z</time>
      </trkpt>
      <trkpt lat="45.67513" lon="5.293">
        <ele>305</ele>
        <time>2025-05-27T09:50:57Z</time>
      </trkpt>
      <trkpt lat="45.67515" lon="5.29309">
        <ele>303.8</ele>
        <time>2025-05-27T09:50:58Z</time>
      </trkpt>
      <trkpt lat="45.67517" lon="5.29318">
        <ele>303.8</ele>
        <time>2025-05-27T09:50:59Z</time>
      </trkpt>
      <trkpt lat="45.6752" lon="5.29328">
        <ele>303.8</ele>
        <time>2025-05-27T09:51:00Z</time>
      </trkpt>
      <trkpt lat="45.67525" lon="5.29337">
        <ele>303.4</ele>
        <time>2025-05-27T09:51:01Z</time>
      </trkpt>
      <trkpt lat="45.6753" lon="5.29346">
        <ele>303.2</ele>
        <time>2025-05-27T09:51:02Z</time>
      </trkpt>
      <trkpt lat="45.67537" lon="5.29352">
        <ele>302.6</ele>
        <time>2025-05-27T09:51:03Z</time>
      </trkpt>
      <trkpt lat="45.67543" lon="5.2936">
        <ele>302.2</ele>
        <time>2025-05-27T09:51:04Z</time>
      </trkpt>
      <trkpt lat="45.67543" lon="5.2936">
        <ele>301.4</ele>
        <time>2025-05-27T09:51:05Z</time>
      </trkpt>
      <trkpt lat="45.67549" lon="5.29368">
        <ele>300.6</ele>
        <time>2025-05-27T09:51:06Z</time>
      </trkpt>
      <trkpt lat="45.67554" lon="5.29377">
        <ele>300.4</ele>
        <time>2025-05-27T09:51:07Z</time>
      </trkpt>
      <trkpt lat="45.67559" lon="5.29386">
        <ele>300.2</ele>
        <time>2025-05-27T09:51:08Z</time>
      </trkpt>
      <trkpt lat="45.67562" lon="5.29396">
        <ele>300.2</ele>
        <time>2025-05-27T09:51:09Z</time>
      </trkpt>
      <trkpt lat="45.67566" lon="5.29404">
        <ele>299.8</ele>
        <time>2025-05-27T09:51:10Z</time>
      </trkpt>
      <trkpt lat="45.6757" lon="5.29413">
        <ele>299.6</ele>
        <time>2025-05-27T09:51:11Z</time>
      </trkpt>
      <trkpt lat="45.67573" lon="5.29421">
        <ele>299.6</ele>
        <time>2025-05-27T09:51:12Z</time>
      </trkpt>
      <trkpt lat="45.67575" lon="5.29426">
        <ele>299.6</ele>
        <time>2025-05-27T09:51:13Z</time>
      </trkpt>
      <trkpt lat="45.67576" lon="5.29431">
        <ele>299.6</ele>
        <time>2025-05-27T09:51:14Z</time>
      </trkpt>
      <trkpt lat="45.67577" lon="5.29435">
        <ele>299.6</ele>
        <time>2025-05-27T09:51:15Z</time>
      </trkpt>
      <trkpt lat="45.67579" lon="5.29437">
        <ele>299.4</ele>
        <time>2025-05-27T09:51:16Z</time>
      </trkpt>
      <trkpt lat="45.67579" lon="5.2944">
        <ele>299.4</ele>
        <time>2025-05-27T09:51:17Z</time>
      </trkpt>
      <trkpt lat="45.6758" lon="5.29442">
        <ele>299.4</ele>
        <time>2025-05-27T09:51:18Z</time>
      </trkpt>
      <trkpt lat="45.67582" lon="5.29444">
        <ele>299.4</ele>
        <time>2025-05-27T09:51:19Z</time>
      </trkpt>
      <trkpt lat="45.67583" lon="5.29447">
        <ele>299</ele>
        <time>2025-05-27T09:51:20Z</time>
      </trkpt>
      <trkpt lat="45.67583" lon="5.29449">
        <ele>299.2</ele>
        <time>2025-05-27T09:51:21Z</time>
      </trkpt>
      <trkpt lat="45.67584" lon="5.29451">
        <ele>299.2</ele>
        <time>2025-05-27T09:51:22Z</time>
      </trkpt>
      <trkpt lat="45.67584" lon="5.29453">
        <ele>299.2</ele>
        <time>2025-05-27T09:51:23Z</time>
      </trkpt>
      <trkpt lat="45.67584" lon="5.29453">
        <ele>299.2</ele>
        <time>2025-05-27T09:51:24Z</time>
      </trkpt>
      <trkpt lat="45.67584" lon="5.29453">
        <ele>299.2</ele>
        <time>2025-05-27T09:51:33Z</time>
      </trkpt>
      <trkpt lat="45.67586" lon="5.29453">
        <ele>299.2</ele>
        <time>2025-05-27T09:51:34Z</time>
      </trkpt>
      <trkpt lat="45.67588" lon="5.29454">
        <ele>298.8</ele>
        <time>2025-05-27T09:51:35Z</time>
      </trkpt>
      <trkpt lat="45.67591" lon="5.29456">
        <ele>298.8</ele>
        <time>2025-05-27T09:51:36Z</time>
      </trkpt>
      <trkpt lat="45.67595" lon="5.29457">
        <ele>298.2</ele>
        <time>2025-05-27T09:51:37Z</time>
      </trkpt>
      <trkpt lat="45.676" lon="5.29454">
        <ele>297.4</ele>
        <time>2025-05-27T09:51:38Z</time>
      </trkpt>
      <trkpt lat="45.67603" lon="5.29446">
        <ele>296.6</ele>
        <time>2025-05-27T09:51:39Z</time>
      </trkpt>
      <trkpt lat="45.67606" lon="5.29439">
        <ele>295.4</ele>
        <time>2025-05-27T09:51:40Z</time>
      </trkpt>
      <trkpt lat="45.67602" lon="5.29428">
        <ele>294.4</ele>
        <time>2025-05-27T09:51:41Z</time>
      </trkpt>
      <trkpt lat="45.67601" lon="5.29418">
        <ele>293.4</ele>
        <time>2025-05-27T09:51:42Z</time>
      </trkpt>
      <trkpt lat="45.676" lon="5.29406">
        <ele>292.4</ele>
        <time>2025-05-27T09:51:43Z</time>
      </trkpt>
      <trkpt lat="45.676" lon="5.29395">
        <ele>291</ele>
        <time>2025-05-27T09:51:44Z</time>
      </trkpt>
      <trkpt lat="45.67601" lon="5.29383">
        <ele>289.6</ele>
        <time>2025-05-27T09:51:45Z</time>
      </trkpt>
      <trkpt lat="45.67603" lon="5.29371">
        <ele>288.2</ele>
        <time>2025-05-27T09:51:46Z</time>
      </trkpt>
      <trkpt lat="45.67607" lon="5.29359">
        <ele>286.6</ele>
        <time>2025-05-27T09:51:47Z</time>
      </trkpt>
      <trkpt lat="45.67611" lon="5.29348">
        <ele>285.2</ele>
        <time>2025-05-27T09:51:48Z</time>
      </trkpt>
      <trkpt lat="45.67621" lon="5.29339">
        <ele>283.4</ele>
        <time>2025-05-27T09:51:49Z</time>
      </trkpt>
      <trkpt lat="45.67629" lon="5.29334">
        <ele>281.8</ele>
        <time>2025-05-27T09:51:50Z</time>
      </trkpt>
      <trkpt lat="45.67638" lon="5.29327">
        <ele>280.8</ele>
        <time>2025-05-27T09:51:51Z</time>
      </trkpt>
      <trkpt lat="45.67645" lon="5.29316">
        <ele>279.6</ele>
        <time>2025-05-27T09:51:52Z</time>
      </trkpt>
      <trkpt lat="45.67653" lon="5.29304">
        <ele>278.6</ele>
        <time>2025-05-27T09:51:53Z</time>
      </trkpt>
      <trkpt lat="45.67659" lon="5.29293">
        <ele>277.4</ele>
        <time>2025-05-27T09:51:54Z</time>
      </trkpt>
      <trkpt lat="45.67665" lon="5.29281">
        <ele>276.2</ele>
        <time>2025-05-27T09:51:55Z</time>
      </trkpt>
      <trkpt lat="45.6767" lon="5.2927">
        <ele>275</ele>
        <time>2025-05-27T09:51:56Z</time>
      </trkpt>
      <trkpt lat="45.67674" lon="5.29259">
        <ele>274</ele>
        <time>2025-05-27T09:51:57Z</time>
      </trkpt>
      <trkpt lat="45.67677" lon="5.29251">
        <ele>273.4</ele>
        <time>2025-05-27T09:51:58Z</time>
      </trkpt>
      <trkpt lat="45.6768" lon="5.29245">
        <ele>272.6</ele>
        <time>2025-05-27T09:51:59Z</time>
      </trkpt>
      <trkpt lat="45.67686" lon="5.29241">
        <ele>271.8</ele>
        <time>2025-05-27T09:52:00Z</time>
      </trkpt>
      <trkpt lat="45.67693" lon="5.29241">
        <ele>270.8</ele>
        <time>2025-05-27T09:52:01Z</time>
      </trkpt>
      <trkpt lat="45.67699" lon="5.29246">
        <ele>269.8</ele>
        <time>2025-05-27T09:52:02Z</time>
      </trkpt>
      <trkpt lat="45.67705" lon="5.29254">
        <ele>268.4</ele>
        <time>2025-05-27T09:52:03Z</time>
      </trkpt>
      <trkpt lat="45.67711" lon="5.29264">
        <ele>267.2</ele>
        <time>2025-05-27T09:52:04Z</time>
      </trkpt>
      <trkpt lat="45.67718" lon="5.29273">
        <ele>265.8</ele>
        <time>2025-05-27T09:52:05Z</time>
      </trkpt>
      <trkpt lat="45.67725" lon="5.29283">
        <ele>264.4</ele>
        <time>2025-05-27T09:52:06Z</time>
      </trkpt>
      <trkpt lat="45.67732" lon="5.29294">
        <ele>263</ele>
        <time>2025-05-27T09:52:07Z</time>
      </trkpt>
      <trkpt lat="45.67739" lon="5.29305">
        <ele>261.8</ele>
        <time>2025-05-27T09:52:08Z</time>
      </trkpt>
      <trkpt lat="45.67745" lon="5.29317">
        <ele>260.6</ele>
        <time>2025-05-27T09:52:09Z</time>
      </trkpt>
      <trkpt lat="45.67751" lon="5.29331">
        <ele>259.8</ele>
        <time>2025-05-27T09:52:10Z</time>
      </trkpt>
      <trkpt lat="45.67756" lon="5.29345">
        <ele>259</ele>
        <time>2025-05-27T09:52:11Z</time>
      </trkpt>
      <trkpt lat="45.67762" lon="5.29359">
        <ele>258.4</ele>
        <time>2025-05-27T09:52:12Z</time>
      </trkpt>
      <trkpt lat="45.67767" lon="5.29372">
        <ele>257.6</ele>
        <time>2025-05-27T09:52:13Z</time>
      </trkpt>
      <trkpt lat="45.67772" lon="5.29385">
        <ele>257.2</ele>
        <time>2025-05-27T09:52:14Z</time>
      </trkpt>
      <trkpt lat="45.67777" lon="5.29397">
        <ele>256.4</ele>
        <time>2025-05-27T09:52:15Z</time>
      </trkpt>
      <trkpt lat="45.67782" lon="5.29408">
        <ele>256</ele>
        <time>2025-05-27T09:52:16Z</time>
      </trkpt>
      <trkpt lat="45.67787" lon="5.29417">
        <ele>255</ele>
        <time>2025-05-27T09:52:17Z</time>
      </trkpt>
      <trkpt lat="45.67792" lon="5.29426">
        <ele>254.4</ele>
        <time>2025-05-27T09:52:18Z</time>
      </trkpt>
      <trkpt lat="45.67797" lon="5.29434">
        <ele>253.6</ele>
        <time>2025-05-27T09:52:19Z</time>
      </trkpt>
      <trkpt lat="45.67802" lon="5.29443">
        <ele>252.8</ele>
        <time>2025-05-27T09:52:20Z</time>
      </trkpt>
      <trkpt lat="45.67808" lon="5.29451">
        <ele>252</ele>
        <time>2025-05-27T09:52:21Z</time>
      </trkpt>
      <trkpt lat="45.67812" lon="5.2946">
        <ele>251</ele>
        <time>2025-05-27T09:52:22Z</time>
      </trkpt>
      <trkpt lat="45.67817" lon="5.29467">
        <ele>250.4</ele>
        <time>2025-05-27T09:52:23Z</time>
      </trkpt>
      <trkpt lat="45.67822" lon="5.29474">
        <ele>249.8</ele>
        <time>2025-05-27T09:52:24Z</time>
      </trkpt>
      <trkpt lat="45.67825" lon="5.2948">
        <ele>249.8</ele>
        <time>2025-05-27T09:52:25Z</time>
      </trkpt>
      <trkpt lat="45.67829" lon="5.29485">
        <ele>249.6</ele>
        <time>2025-05-27T09:52:26Z</time>
      </trkpt>
      <trkpt lat="45.67831" lon="5.29489">
        <ele>249.2</ele>
        <time>2025-05-27T09:52:27Z</time>
      </trkpt>
      <trkpt lat="45.67832" lon="5.29492">
        <ele>249.2</ele>
        <time>2025-05-27T09:52:28Z</time>
      </trkpt>
      <trkpt lat="45.67832" lon="5.29493">
        <ele>248.8</ele>
        <time>2025-05-27T09:52:29Z</time>
      </trkpt>
      <trkpt lat="45.6783" lon="5.29495">
        <ele>248.6</ele>
        <time>2025-05-27T09:52:30Z</time>
      </trkpt>
      <trkpt lat="45.67829" lon="5.29498">
        <ele>248.4</ele>
        <time>2025-05-27T09:52:31Z</time>
      </trkpt>
      <trkpt lat="45.67828" lon="5.29502">
        <ele>248.4</ele>
        <time>2025-05-27T09:52:32Z</time>
      </trkpt>
      <trkpt lat="45.67826" lon="5.29505">
        <ele>248</ele>
        <time>2025-05-27T09:52:33Z</time>
      </trkpt>
      <trkpt lat="45.67825" lon="5.29511">
        <ele>247.6</ele>
        <time>2025-05-27T09:52:34Z</time>
      </trkpt>
      <trkpt lat="45.67825" lon="5.29516">
        <ele>246.8</ele>
        <time>2025-05-27T09:52:35Z</time>
      </trkpt>
      <trkpt lat="45.67825" lon="5.29523">
        <ele>246.6</ele>
        <time>2025-05-27T09:52:36Z</time>
      </trkpt>
      <trkpt lat="45.67826" lon="5.29529">
        <ele>246</ele>
        <time>2025-05-27T09:52:37Z</time>
      </trkpt>
      <trkpt lat="45.67826" lon="5.29535">
        <ele>246</ele>
        <time>2025-05-27T09:52:38Z</time>
      </trkpt>
      <trkpt lat="45.67825" lon="5.29541">
        <ele>245.6</ele>
        <time>2025-05-27T09:52:39Z</time>
      </trkpt>
      <trkpt lat="45.67824" lon="5.29545">
        <ele>245.6</ele>
        <time>2025-05-27T09:52:40Z</time>
      </trkpt>
      <trkpt lat="45.67825" lon="5.29549">
        <ele>245.2</ele>
        <time>2025-05-27T09:52:41Z</time>
      </trkpt>
      <trkpt lat="45.67825" lon="5.29554">
        <ele>245.2</ele>
        <time>2025-05-27T09:52:42Z</time>
      </trkpt>
      <trkpt lat="45.67825" lon="5.2956">
        <ele>244.6</ele>
        <time>2025-05-27T09:52:43Z</time>
      </trkpt>
      <trkpt lat="45.67825" lon="5.29565">
        <ele>244.6</ele>
        <time>2025-05-27T09:52:44Z</time>
      </trkpt>
      <trkpt lat="45.67825" lon="5.2957">
        <ele>244.4</ele>
        <time>2025-05-27T09:52:45Z</time>
      </trkpt>
      <trkpt lat="45.67824" lon="5.29575">
        <ele>244.4</ele>
        <time>2025-05-27T09:52:46Z</time>
      </trkpt>
      <trkpt lat="45.67824" lon="5.29578">
        <ele>244.4</ele>
        <time>2025-05-27T09:52:47Z</time>
      </trkpt>
      <trkpt lat="45.67824" lon="5.29581">
        <ele>244.4</ele>
        <time>2025-05-27T09:52:48Z</time>
      </trkpt>
      <trkpt lat="45.67824" lon="5.29583">
        <ele>244.4</ele>
        <time>2025-05-27T09:52:49Z</time>
      </trkpt>
      <trkpt lat="45.67824" lon="5.29584">
        <ele>244.4</ele>
        <time>2025-05-27T09:52:50Z</time>
      </trkpt>
      <trkpt lat="45.67824" lon="5.29585">
        <ele>244.4</ele>
        <time>2025-05-27T09:52:51Z</time>
      </trkpt>
      <trkpt lat="45.67826" lon="5.29585">
        <ele>245</ele>
        <time>2025-05-27T09:53:44Z</time>
      </trkpt>
      <trkpt lat="45.67826" lon="5.29588">
        <ele>245</ele>
        <time>2025-05-27T09:53:45Z</time>
      </trkpt>
      <trkpt lat="45.67826" lon="5.2959">
        <ele>244.8</ele>
        <time>2025-05-27T09:53:46Z</time>
      </trkpt>
      <trkpt lat="45.67827" lon="5.29593">
        <ele>244.4</ele>
        <time>2025-05-27T09:53:47Z</time>
      </trkpt>
      <trkpt lat="45.67827" lon="5.29596">
        <ele>244</ele>
        <time>2025-05-27T09:53:48Z</time>
      </trkpt>
      <trkpt lat="45.67827" lon="5.296">
        <ele>244</ele>
        <time>2025-05-27T09:53:49Z</time>
      </trkpt>
      <trkpt lat="45.67827" lon="5.29605">
        <ele>244</ele>
        <time>2025-05-27T09:53:50Z</time>
      </trkpt>
      <trkpt lat="45.67826" lon="5.2961">
        <ele>244.2</ele>
        <time>2025-05-27T09:53:51Z</time>
      </trkpt>
      <trkpt lat="45.67826" lon="5.29615">
        <ele>244.2</ele>
        <time>2025-05-27T09:53:52Z</time>
      </trkpt>
      <trkpt lat="45.67826" lon="5.29621">
        <ele>244.2</ele>
        <time>2025-05-27T09:53:53Z</time>
      </trkpt>
      <trkpt lat="45.67825" lon="5.29626">
        <ele>244.6</ele>
        <time>2025-05-27T09:53:54Z</time>
      </trkpt>
      <trkpt lat="45.67825" lon="5.29631">
        <ele>245.2</ele>
        <time>2025-05-27T09:53:55Z</time>
      </trkpt>
      <trkpt lat="45.67825" lon="5.29636">
        <ele>245.2</ele>
        <time>2025-05-27T09:53:56Z</time>
      </trkpt>
      <trkpt lat="45.67825" lon="5.29641">
        <ele>245</ele>
        <time>2025-05-27T09:53:57Z</time>
      </trkpt>
      <trkpt lat="45.67825" lon="5.29646">
        <ele>245</ele>
        <time>2025-05-27T09:53:58Z</time>
      </trkpt>
      <trkpt lat="45.67825" lon="5.29649">
        <ele>245</ele>
        <time>2025-05-27T09:53:59Z</time>
      </trkpt>
      <trkpt lat="45.67825" lon="5.29651">
        <ele>245</ele>
        <time>2025-05-27T09:54:00Z</time>
      </trkpt>
      <trkpt lat="45.67825" lon="5.29654">
        <ele>245.6</ele>
        <time>2025-05-27T09:54:01Z</time>
      </trkpt>
      <trkpt lat="45.67825" lon="5.29658">
        <ele>246.4</ele>
        <time>2025-05-27T09:54:02Z</time>
      </trkpt>
      <trkpt lat="45.67825" lon="5.29661">
        <ele>246.8</ele>
        <time>2025-05-27T09:54:03Z</time>
      </trkpt>
      <trkpt lat="45.67825" lon="5.29663">
        <ele>246.8</ele>
        <time>2025-05-27T09:54:04Z</time>
      </trkpt>
      <trkpt lat="45.67825" lon="5.29664">
        <ele>247</ele>
        <time>2025-05-27T09:54:05Z</time>
      </trkpt>
      <trkpt lat="45.67824" lon="5.29666">
        <ele>247</ele>
        <time>2025-05-27T09:54:06Z</time>
      </trkpt>
      <trkpt lat="45.67824" lon="5.29668">
        <ele>247</ele>
        <time>2025-05-27T09:54:07Z</time>
      </trkpt>
      <trkpt lat="45.67824" lon="5.29671">
        <ele>247</ele>
        <time>2025-05-27T09:54:08Z</time>
      </trkpt>
      <trkpt lat="45.67824" lon="5.29674">
        <ele>246.2</ele>
        <time>2025-05-27T09:54:09Z</time>
      </trkpt>
      <trkpt lat="45.67824" lon="5.29676">
        <ele>247.2</ele>
        <time>2025-05-27T09:54:10Z</time>
      </trkpt>
      <trkpt lat="45.67824" lon="5.2968">
        <ele>247.2</ele>
        <time>2025-05-27T09:54:11Z</time>
      </trkpt>
      <trkpt lat="45.67824" lon="5.29683">
        <ele>247.2</ele>
        <time>2025-05-27T09:54:12Z</time>
      </trkpt>
      <trkpt lat="45.67824" lon="5.29686">
        <ele>247.6</ele>
        <time>2025-05-27T09:54:13Z</time>
      </trkpt>
      <trkpt lat="45.67824" lon="5.29691">
        <ele>247.6</ele>
        <time>2025-05-27T09:54:14Z</time>
      </trkpt>
      <trkpt lat="45.67822" lon="5.29695">
        <ele>247.6</ele>
        <time>2025-05-27T09:54:15Z</time>
      </trkpt>
      <trkpt lat="45.67822" lon="5.29698">
        <ele>247.6</ele>
        <time>2025-05-27T09:54:16Z</time>
      </trkpt>
      <trkpt lat="45.67821" lon="5.29701">
        <ele>248.2</ele>
        <time>2025-05-27T09:54:17Z</time>
      </trkpt>
      <trkpt lat="45.6782" lon="5.29705">
        <ele>248.2</ele>
        <time>2025-05-27T09:54:18Z</time>
      </trkpt>
      <trkpt lat="45.6782" lon="5.29709">
        <ele>248.2</ele>
        <time>2025-05-27T09:54:19Z</time>
      </trkpt>
      <trkpt lat="45.6782" lon="5.29716">
        <ele>248.2</ele>
        <time>2025-05-27T09:54:20Z</time>
      </trkpt>
      <trkpt lat="45.6782" lon="5.29718">
        <ele>248.6</ele>
        <time>2025-05-27T09:54:21Z</time>
      </trkpt>
      <trkpt lat="45.6782" lon="5.29721">
        <ele>249</ele>
        <time>2025-05-27T09:54:22Z</time>
      </trkpt>
      <trkpt lat="45.67819" lon="5.29724">
        <ele>249.2</ele>
        <time>2025-05-27T09:54:23Z</time>
      </trkpt>
      <trkpt lat="45.67818" lon="5.29725">
        <ele>249.6</ele>
        <time>2025-05-27T09:54:24Z</time>
      </trkpt>
      <trkpt lat="45.67817" lon="5.29727">
        <ele>249.6</ele>
        <time>2025-05-27T09:54:25Z</time>
      </trkpt>
      <trkpt lat="45.67816" lon="5.29727">
        <ele>249.8</ele>
        <time>2025-05-27T09:54:26Z</time>
      </trkpt>
      <trkpt lat="45.67814" lon="5.29729">
        <ele>249.8</ele>
        <time>2025-05-27T09:54:27Z</time>
      </trkpt>
      <trkpt lat="45.67813" lon="5.2973">
        <ele>250.4</ele>
        <time>2025-05-27T09:54:28Z</time>
      </trkpt>
      <trkpt lat="45.67812" lon="5.29733">
        <ele>250.4</ele>
        <time>2025-05-27T09:54:29Z</time>
      </trkpt>
      <trkpt lat="45.67811" lon="5.29735">
        <ele>250.6</ele>
        <time>2025-05-27T09:54:30Z</time>
      </trkpt>
      <trkpt lat="45.6781" lon="5.29737">
        <ele>250.6</ele>
        <time>2025-05-27T09:54:31Z</time>
      </trkpt>
      <trkpt lat="45.67809" lon="5.29738">
        <ele>250.6</ele>
        <time>2025-05-27T09:54:32Z</time>
      </trkpt>
      <trkpt lat="45.67808" lon="5.2974">
        <ele>251</ele>
        <time>2025-05-27T09:54:33Z</time>
      </trkpt>
      <trkpt lat="45.67806" lon="5.29742">
        <ele>251</ele>
        <time>2025-05-27T09:54:34Z</time>
      </trkpt>
      <trkpt lat="45.67806" lon="5.29743">
        <ele>251.4</ele>
        <time>2025-05-27T09:54:35Z</time>
      </trkpt>
      <trkpt lat="45.67806" lon="5.29743">
        <ele>251.8</ele>
        <time>2025-05-27T09:54:36Z</time>
      </trkpt>
      <trkpt lat="45.67805" lon="5.29744">
        <ele>251.8</ele>
        <time>2025-05-27T09:54:37Z</time>
      </trkpt>
      <trkpt lat="45.67805" lon="5.29744">
        <ele>251.8</ele>
        <time>2025-05-27T09:54:38Z</time>
      </trkpt>
      <trkpt lat="45.67805" lon="5.29746">
        <ele>252</ele>
        <time>2025-05-27T09:54:39Z</time>
      </trkpt>
      <trkpt lat="45.67804" lon="5.29748">
        <ele>252</ele>
        <time>2025-05-27T09:54:40Z</time>
      </trkpt>
      <trkpt lat="45.67803" lon="5.2975">
        <ele>252.4</ele>
        <time>2025-05-27T09:54:41Z</time>
      </trkpt>
      <trkpt lat="45.67802" lon="5.29752">
        <ele>252.8</ele>
        <time>2025-05-27T09:54:42Z</time>
      </trkpt>
      <trkpt lat="45.67801" lon="5.29754">
        <ele>252.8</ele>
        <time>2025-05-27T09:54:43Z</time>
      </trkpt>
      <trkpt lat="45.67801" lon="5.29754">
        <ele>253.2</ele>
        <time>2025-05-27T09:54:44Z</time>
      </trkpt>
      <trkpt lat="45.67801" lon="5.29754">
        <ele>253.2</ele>
        <time>2025-05-27T09:54:45Z</time>
      </trkpt>
      <trkpt lat="45.67801" lon="5.29764">
        <ele>253.6</ele>
        <time>2025-05-27T09:54:46Z</time>
      </trkpt>
      <trkpt lat="45.67801" lon="5.29766">
        <ele>253.6</ele>
        <time>2025-05-27T09:54:47Z</time>
      </trkpt>
      <trkpt lat="45.67802" lon="5.29769">
        <ele>253.6</ele>
        <time>2025-05-27T09:54:48Z</time>
      </trkpt>
      <trkpt lat="45.67802" lon="5.29771">
        <ele>253.6</ele>
        <time>2025-05-27T09:54:49Z</time>
      </trkpt>
      <trkpt lat="45.67803" lon="5.29772">
        <ele>254</ele>
        <time>2025-05-27T09:54:50Z</time>
      </trkpt>
      <trkpt lat="45.67803" lon="5.29774">
        <ele>254</ele>
        <time>2025-05-27T09:54:51Z</time>
      </trkpt>
      <trkpt lat="45.67804" lon="5.29775">
        <ele>254.4</ele>
        <time>2025-05-27T09:54:52Z</time>
      </trkpt>
      <trkpt lat="45.67804" lon="5.29776">
        <ele>254.8</ele>
        <time>2025-05-27T09:54:53Z</time>
      </trkpt>
      <trkpt lat="45.67804" lon="5.29776">
        <ele>254.8</ele>
        <time>2025-05-27T09:54:54Z</time>
      </trkpt>
      <trkpt lat="45.67803" lon="5.29779">
        <ele>254.8</ele>
        <time>2025-05-27T09:55:56Z</time>
      </trkpt>
      <trkpt lat="45.67803" lon="5.2978">
        <ele>254.8</ele>
        <time>2025-05-27T09:55:57Z</time>
      </trkpt>
      <trkpt lat="45.67803" lon="5.29781">
        <ele>254.8</ele>
        <time>2025-05-27T09:55:58Z</time>
      </trkpt>
      <trkpt lat="45.67803" lon="5.29783">
        <ele>254.8</ele>
        <time>2025-05-27T09:55:59Z</time>
      </trkpt>
      <trkpt lat="45.67805" lon="5.29785">
        <ele>254.2</ele>
        <time>2025-05-27T09:56:00Z</time>
      </trkpt>
      <trkpt lat="45.67807" lon="5.29787">
        <ele>254.8</ele>
        <time>2025-05-27T09:56:01Z</time>
      </trkpt>
      <trkpt lat="45.67808" lon="5.29788">
        <ele>255.2</ele>
        <time>2025-05-27T09:56:02Z</time>
      </trkpt>
      <trkpt lat="45.67809" lon="5.29792">
        <ele>254.8</ele>
        <time>2025-05-27T09:56:03Z</time>
      </trkpt>
      <trkpt lat="45.67809" lon="5.29795">
        <ele>255.2</ele>
        <time>2025-05-27T09:56:04Z</time>
      </trkpt>
      <trkpt lat="45.67809" lon="5.29799">
        <ele>255.2</ele>
        <time>2025-05-27T09:56:05Z</time>
      </trkpt>
      <trkpt lat="45.67808" lon="5.29801">
        <ele>255.2</ele>
        <time>2025-05-27T09:56:06Z</time>
      </trkpt>
      <trkpt lat="45.67806" lon="5.29804">
        <ele>255.2</ele>
        <time>2025-05-27T09:56:07Z</time>
      </trkpt>
      <trkpt lat="45.67804" lon="5.29806">
        <ele>255.8</ele>
        <time>2025-05-27T09:56:08Z</time>
      </trkpt>
      <trkpt lat="45.67802" lon="5.29808">
        <ele>256</ele>
        <time>2025-05-27T09:56:09Z</time>
      </trkpt>
      <trkpt lat="45.67801" lon="5.2981">
        <ele>256</ele>
        <time>2025-05-27T09:56:10Z</time>
      </trkpt>
      <trkpt lat="45.67799" lon="5.29811">
        <ele>256.4</ele>
        <time>2025-05-27T09:56:11Z</time>
      </trkpt>
      <trkpt lat="45.67797" lon="5.29811">
        <ele>256.4</ele>
        <time>2025-05-27T09:56:12Z</time>
      </trkpt>
      <trkpt lat="45.67796" lon="5.29812">
        <ele>256.4</ele>
        <time>2025-05-27T09:56:13Z</time>
      </trkpt>
      <trkpt lat="45.67794" lon="5.29813">
        <ele>256.8</ele>
        <time>2025-05-27T09:56:14Z</time>
      </trkpt>
      <trkpt lat="45.67792" lon="5.29814">
        <ele>256.2</ele>
        <time>2025-05-27T09:56:15Z</time>
      </trkpt>
      <trkpt lat="45.67791" lon="5.29815">
        <ele>256.8</ele>
        <time>2025-05-27T09:56:16Z</time>
      </trkpt>
      <trkpt lat="45.6779" lon="5.29815">
        <ele>257.2</ele>
        <time>2025-05-27T09:56:17Z</time>
      </trkpt>
      <trkpt lat="45.67788" lon="5.29815">
        <ele>257.2</ele>
        <time>2025-05-27T09:56:18Z</time>
      </trkpt>
      <trkpt lat="45.67786" lon="5.29816">
        <ele>257.6</ele>
        <time>2025-05-27T09:56:19Z</time>
      </trkpt>
      <trkpt lat="45.67785" lon="5.29817">
        <ele>258.2</ele>
        <time>2025-05-27T09:56:20Z</time>
      </trkpt>
      <trkpt lat="45.67784" lon="5.29818">
        <ele>258.2</ele>
        <time>2025-05-27T09:56:21Z</time>
      </trkpt>
      <trkpt lat="45.67782" lon="5.29819">
        <ele>258.2</ele>
        <time>2025-05-27T09:56:22Z</time>
      </trkpt>
      <trkpt lat="45.6778" lon="5.29819">
        <ele>258.6</ele>
        <time>2025-05-27T09:56:23Z</time>
      </trkpt>
      <trkpt lat="45.67778" lon="5.29819">
        <ele>259</ele>
        <time>2025-05-27T09:56:24Z</time>
      </trkpt>
      <trkpt lat="45.67776" lon="5.29819">
        <ele>259</ele>
        <time>2025-05-27T09:56:25Z</time>
      </trkpt>
      <trkpt lat="45.67774" lon="5.2982">
        <ele>259.4</ele>
        <time>2025-05-27T09:56:26Z</time>
      </trkpt>
      <trkpt lat="45.67773" lon="5.29821">
        <ele>259.4</ele>
        <time>2025-05-27T09:56:27Z</time>
      </trkpt>
      <trkpt lat="45.67771" lon="5.29822">
        <ele>259.8</ele>
        <time>2025-05-27T09:56:28Z</time>
      </trkpt>
      <trkpt lat="45.6777" lon="5.29823">
        <ele>260</ele>
        <time>2025-05-27T09:56:29Z</time>
      </trkpt>
      <trkpt lat="45.67768" lon="5.29825">
        <ele>260</ele>
        <time>2025-05-27T09:56:30Z</time>
      </trkpt>
      <trkpt lat="45.67767" lon="5.29826">
        <ele>260.2</ele>
        <time>2025-05-27T09:56:31Z</time>
      </trkpt>
      <trkpt lat="45.67766" lon="5.29828">
        <ele>260.2</ele>
        <time>2025-05-27T09:56:32Z</time>
      </trkpt>
      <trkpt lat="45.67764" lon="5.29829">
        <ele>260.4</ele>
        <time>2025-05-27T09:56:33Z</time>
      </trkpt>
      <trkpt lat="45.67763" lon="5.29831">
        <ele>260.8</ele>
        <time>2025-05-27T09:56:34Z</time>
      </trkpt>
      <trkpt lat="45.67762" lon="5.29834">
        <ele>260.8</ele>
        <time>2025-05-27T09:56:35Z</time>
      </trkpt>
      <trkpt lat="45.6776" lon="5.29836">
        <ele>260.8</ele>
        <time>2025-05-27T09:56:36Z</time>
      </trkpt>
      <trkpt lat="45.67759" lon="5.29838">
        <ele>261</ele>
        <time>2025-05-27T09:56:37Z</time>
      </trkpt>
      <trkpt lat="45.67758" lon="5.29841">
        <ele>261</ele>
        <time>2025-05-27T09:56:38Z</time>
      </trkpt>
      <trkpt lat="45.67756" lon="5.29842">
        <ele>261</ele>
        <time>2025-05-27T09:56:39Z</time>
      </trkpt>
      <trkpt lat="45.67756" lon="5.29844">
        <ele>261.4</ele>
        <time>2025-05-27T09:56:40Z</time>
      </trkpt>
      <trkpt lat="45.67755" lon="5.29846">
        <ele>261.6</ele>
        <time>2025-05-27T09:56:41Z</time>
      </trkpt>
      <trkpt lat="45.67754" lon="5.29848">
        <ele>261.6</ele>
        <time>2025-05-27T09:56:42Z</time>
      </trkpt>
      <trkpt lat="45.67753" lon="5.2985">
        <ele>261.6</ele>
        <time>2025-05-27T09:56:43Z</time>
      </trkpt>
      <trkpt lat="45.67752" lon="5.29851">
        <ele>262</ele>
        <time>2025-05-27T09:56:44Z</time>
      </trkpt>
      <trkpt lat="45.67751" lon="5.29853">
        <ele>262</ele>
        <time>2025-05-27T09:56:45Z</time>
      </trkpt>
      <trkpt lat="45.67749" lon="5.29854">
        <ele>262.2</ele>
        <time>2025-05-27T09:56:46Z</time>
      </trkpt>
      <trkpt lat="45.67748" lon="5.29855">
        <ele>262.4</ele>
        <time>2025-05-27T09:56:47Z</time>
      </trkpt>
      <trkpt lat="45.67747" lon="5.29856">
        <ele>262.8</ele>
        <time>2025-05-27T09:56:48Z</time>
      </trkpt>
      <trkpt lat="45.67745" lon="5.29858">
        <ele>263</ele>
        <time>2025-05-27T09:56:49Z</time>
      </trkpt>
      <trkpt lat="45.67744" lon="5.2986">
        <ele>263</ele>
        <time>2025-05-27T09:56:50Z</time>
      </trkpt>
      <trkpt lat="45.67743" lon="5.29861">
        <ele>263.2</ele>
        <time>2025-05-27T09:56:51Z</time>
      </trkpt>
      <trkpt lat="45.67741" lon="5.29862">
        <ele>263.2</ele>
        <time>2025-05-27T09:56:52Z</time>
      </trkpt>
      <trkpt lat="45.67741" lon="5.29864">
        <ele>263.8</ele>
        <time>2025-05-27T09:56:53Z</time>
      </trkpt>
      <trkpt lat="45.6774" lon="5.29865">
        <ele>264</ele>
        <time>2025-05-27T09:56:54Z</time>
      </trkpt>
      <trkpt lat="45.67739" lon="5.29866">
        <ele>264</ele>
        <time>2025-05-27T09:56:55Z</time>
      </trkpt>
      <trkpt lat="45.67738" lon="5.29868">
        <ele>264.2</ele>
        <time>2025-05-27T09:56:56Z</time>
      </trkpt>
      <trkpt lat="45.67737" lon="5.29869">
        <ele>264.6</ele>
        <time>2025-05-27T09:56:57Z</time>
      </trkpt>
      <trkpt lat="45.67737" lon="5.29871">
        <ele>264.6</ele>
        <time>2025-05-27T09:56:58Z</time>
      </trkpt>
      <trkpt lat="45.67737" lon="5.29873">
        <ele>264.6</ele>
        <time>2025-05-27T09:56:59Z</time>
      </trkpt>
      <trkpt lat="45.67736" lon="5.29875">
        <ele>264.4</ele>
        <time>2025-05-27T09:57:00Z</time>
      </trkpt>
      <trkpt lat="45.67736" lon="5.29878">
        <ele>264.8</ele>
        <time>2025-05-27T09:57:01Z</time>
      </trkpt>
      <trkpt lat="45.67735" lon="5.29879">
        <ele>264.8</ele>
        <time>2025-05-27T09:57:02Z</time>
      </trkpt>
      <trkpt lat="45.67735" lon="5.29881">
        <ele>264.8</ele>
        <time>2025-05-27T09:57:03Z</time>
      </trkpt>
      <trkpt lat="45.67735" lon="5.29883">
        <ele>265</ele>
        <time>2025-05-27T09:57:04Z</time>
      </trkpt>
      <trkpt lat="45.67734" lon="5.29884">
        <ele>265.2</ele>
        <time>2025-05-27T09:57:05Z</time>
      </trkpt>
      <trkpt lat="45.67734" lon="5.29887">
        <ele>265.2</ele>
        <time>2025-05-27T09:57:06Z</time>
      </trkpt>
      <trkpt lat="45.67735" lon="5.29889">
        <ele>265.2</ele>
        <time>2025-05-27T09:57:07Z</time>
      </trkpt>
      <trkpt lat="45.67735" lon="5.2989">
        <ele>265.4</ele>
        <time>2025-05-27T09:57:08Z</time>
      </trkpt>
      <trkpt lat="45.67735" lon="5.29893">
        <ele>265.8</ele>
        <time>2025-05-27T09:57:09Z</time>
      </trkpt>
      <trkpt lat="45.67735" lon="5.29896">
        <ele>265.2</ele>
        <time>2025-05-27T09:57:10Z</time>
      </trkpt>
      <trkpt lat="45.67736" lon="5.29898">
        <ele>265.6</ele>
        <time>2025-05-27T09:57:11Z</time>
      </trkpt>
      <trkpt lat="45.67736" lon="5.299">
        <ele>265.6</ele>
        <time>2025-05-27T09:57:12Z</time>
      </trkpt>
      <trkpt lat="45.67737" lon="5.29901">
        <ele>265.8</ele>
        <time>2025-05-27T09:57:13Z</time>
      </trkpt>
      <trkpt lat="45.67738" lon="5.29904">
        <ele>265.8</ele>
        <time>2025-05-27T09:57:14Z</time>
      </trkpt>
      <trkpt lat="45.67739" lon="5.29906">
        <ele>266.2</ele>
        <time>2025-05-27T09:57:15Z</time>
      </trkpt>
      <trkpt lat="45.67739" lon="5.29909">
        <ele>266.4</ele>
        <time>2025-05-27T09:57:16Z</time>
      </trkpt>
      <trkpt lat="45.6774" lon="5.29912">
        <ele>266.4</ele>
        <time>2025-05-27T09:57:17Z</time>
      </trkpt>
      <trkpt lat="45.67741" lon="5.29915">
        <ele>264.6</ele>
        <time>2025-05-27T09:57:18Z</time>
      </trkpt>
      <trkpt lat="45.67742" lon="5.2992">
        <ele>265.2</ele>
        <time>2025-05-27T09:57:19Z</time>
      </trkpt>
      <trkpt lat="45.67742" lon="5.29923">
        <ele>265.6</ele>
        <time>2025-05-27T09:57:20Z</time>
      </trkpt>
      <trkpt lat="45.67743" lon="5.29926">
        <ele>265.8</ele>
        <time>2025-05-27T09:57:21Z</time>
      </trkpt>
      <trkpt lat="45.67743" lon="5.2993">
        <ele>265.8</ele>
        <time>2025-05-27T09:57:22Z</time>
      </trkpt>
      <trkpt lat="45.67743" lon="5.29934">
        <ele>265.8</ele>
        <time>2025-05-27T09:57:23Z</time>
      </trkpt>
      <trkpt lat="45.67743" lon="5.29939">
        <ele>265.8</ele>
        <time>2025-05-27T09:57:24Z</time>
      </trkpt>
      <trkpt lat="45.67744" lon="5.29945">
        <ele>265.8</ele>
        <time>2025-05-27T09:57:25Z</time>
      </trkpt>
      <trkpt lat="45.67744" lon="5.2995">
        <ele>265.8</ele>
        <time>2025-05-27T09:57:26Z</time>
      </trkpt>
      <trkpt lat="45.67744" lon="5.29955">
        <ele>265.4</ele>
        <time>2025-05-27T09:57:27Z</time>
      </trkpt>
      <trkpt lat="45.67744" lon="5.2996">
        <ele>265.4</ele>
        <time>2025-05-27T09:57:28Z</time>
      </trkpt>
      <trkpt lat="45.67745" lon="5.29964">
        <ele>263.6</ele>
        <time>2025-05-27T09:57:29Z</time>
      </trkpt>
      <trkpt lat="45.67745" lon="5.2997">
        <ele>264.2</ele>
        <time>2025-05-27T09:57:30Z</time>
      </trkpt>
      <trkpt lat="45.67745" lon="5.29975">
        <ele>264.6</ele>
        <time>2025-05-27T09:57:31Z</time>
      </trkpt>
      <trkpt lat="45.67745" lon="5.29979">
        <ele>265</ele>
        <time>2025-05-27T09:57:32Z</time>
      </trkpt>
      <trkpt lat="45.67745" lon="5.29985">
        <ele>265.2</ele>
        <time>2025-05-27T09:57:33Z</time>
      </trkpt>
      <trkpt lat="45.67745" lon="5.29989">
        <ele>265.4</ele>
        <time>2025-05-27T09:57:34Z</time>
      </trkpt>
      <trkpt lat="45.67745" lon="5.29993">
        <ele>265.4</ele>
        <time>2025-05-27T09:57:35Z</time>
      </trkpt>
      <trkpt lat="45.67745" lon="5.29998">
        <ele>266</ele>
        <time>2025-05-27T09:57:36Z</time>
      </trkpt>
      <trkpt lat="45.67745" lon="5.30004">
        <ele>266.4</ele>
        <time>2025-05-27T09:57:37Z</time>
      </trkpt>
      <trkpt lat="45.67745" lon="5.30009">
        <ele>266.8</ele>
        <time>2025-05-27T09:57:38Z</time>
      </trkpt>
      <trkpt lat="45.67745" lon="5.30013">
        <ele>266.8</ele>
        <time>2025-05-27T09:57:39Z</time>
      </trkpt>
      <trkpt lat="45.67746" lon="5.30017">
        <ele>266.8</ele>
        <time>2025-05-27T09:57:40Z</time>
      </trkpt>
      <trkpt lat="45.67747" lon="5.3002">
        <ele>267</ele>
        <time>2025-05-27T09:57:41Z</time>
      </trkpt>
      <trkpt lat="45.67748" lon="5.30024">
        <ele>267.6</ele>
        <time>2025-05-27T09:57:42Z</time>
      </trkpt>
      <trkpt lat="45.67751" lon="5.30028">
        <ele>268</ele>
        <time>2025-05-27T09:57:43Z</time>
      </trkpt>
      <trkpt lat="45.67753" lon="5.30031">
        <ele>268.2</ele>
        <time>2025-05-27T09:57:44Z</time>
      </trkpt>
      <trkpt lat="45.67756" lon="5.30033">
        <ele>269.2</ele>
        <time>2025-05-27T09:57:45Z</time>
      </trkpt>
      <trkpt lat="45.67758" lon="5.30034">
        <ele>269.6</ele>
        <time>2025-05-27T09:57:46Z</time>
      </trkpt>
      <trkpt lat="45.6776" lon="5.30036">
        <ele>270</ele>
        <time>2025-05-27T09:57:47Z</time>
      </trkpt>
      <trkpt lat="45.67762" lon="5.30037">
        <ele>270</ele>
        <time>2025-05-27T09:57:48Z</time>
      </trkpt>
      <trkpt lat="45.67763" lon="5.30038">
        <ele>270.6</ele>
        <time>2025-05-27T09:57:49Z</time>
      </trkpt>
      <trkpt lat="45.67765" lon="5.30041">
        <ele>270.6</ele>
        <time>2025-05-27T09:57:50Z</time>
      </trkpt>
      <trkpt lat="45.67767" lon="5.30043">
        <ele>270.6</ele>
        <time>2025-05-27T09:57:51Z</time>
      </trkpt>
      <trkpt lat="45.67768" lon="5.30046">
        <ele>270.2</ele>
        <time>2025-05-27T09:57:52Z</time>
      </trkpt>
      <trkpt lat="45.67769" lon="5.30049">
        <ele>270.2</ele>
        <time>2025-05-27T09:57:53Z</time>
      </trkpt>
      <trkpt lat="45.6777" lon="5.30052">
        <ele>270.2</ele>
        <time>2025-05-27T09:57:54Z</time>
      </trkpt>
      <trkpt lat="45.67772" lon="5.30055">
        <ele>270.2</ele>
        <time>2025-05-27T09:57:55Z</time>
      </trkpt>
      <trkpt lat="45.67774" lon="5.30058">
        <ele>270.2</ele>
        <time>2025-05-27T09:57:56Z</time>
      </trkpt>
      <trkpt lat="45.67775" lon="5.30062">
        <ele>270.2</ele>
        <time>2025-05-27T09:57:57Z</time>
      </trkpt>
      <trkpt lat="45.67777" lon="5.30065">
        <ele>270.6</ele>
        <time>2025-05-27T09:57:58Z</time>
      </trkpt>
      <trkpt lat="45.67779" lon="5.30068">
        <ele>270.6</ele>
        <time>2025-05-27T09:57:59Z</time>
      </trkpt>
      <trkpt lat="45.67781" lon="5.30071">
        <ele>270.6</ele>
        <time>2025-05-27T09:58:00Z</time>
      </trkpt>
      <trkpt lat="45.67782" lon="5.30073">
        <ele>270.6</ele>
        <time>2025-05-27T09:58:01Z</time>
      </trkpt>
      <trkpt lat="45.67784" lon="5.30076">
        <ele>271</ele>
        <time>2025-05-27T09:58:02Z</time>
      </trkpt>
      <trkpt lat="45.67786" lon="5.30079">
        <ele>271.2</ele>
        <time>2025-05-27T09:58:03Z</time>
      </trkpt>
      <trkpt lat="45.67788" lon="5.30082">
        <ele>271.2</ele>
        <time>2025-05-27T09:58:04Z</time>
      </trkpt>
      <trkpt lat="45.6779" lon="5.30085">
        <ele>271.2</ele>
        <time>2025-05-27T09:58:05Z</time>
      </trkpt>
      <trkpt lat="45.67792" lon="5.30088">
        <ele>271.2</ele>
        <time>2025-05-27T09:58:06Z</time>
      </trkpt>
      <trkpt lat="45.67794" lon="5.30091">
        <ele>271.2</ele>
        <time>2025-05-27T09:58:07Z</time>
      </trkpt>
      <trkpt lat="45.67795" lon="5.30094">
        <ele>270.8</ele>
        <time>2025-05-27T09:58:08Z</time>
      </trkpt>
      <trkpt lat="45.67797" lon="5.30097">
        <ele>271.2</ele>
        <time>2025-05-27T09:58:09Z</time>
      </trkpt>
      <trkpt lat="45.67799" lon="5.30101">
        <ele>271.6</ele>
        <time>2025-05-27T09:58:10Z</time>
      </trkpt>
      <trkpt lat="45.678" lon="5.30104">
        <ele>271.6</ele>
        <time>2025-05-27T09:58:11Z</time>
      </trkpt>
      <trkpt lat="45.67801" lon="5.30107">
        <ele>271.8</ele>
        <time>2025-05-27T09:58:12Z</time>
      </trkpt>
      <trkpt lat="45.67803" lon="5.30111">
        <ele>272</ele>
        <time>2025-05-27T09:58:13Z</time>
      </trkpt>
      <trkpt lat="45.67804" lon="5.30114">
        <ele>272.4</ele>
        <time>2025-05-27T09:58:14Z</time>
      </trkpt>
      <trkpt lat="45.67807" lon="5.30117">
        <ele>272</ele>
        <time>2025-05-27T09:58:15Z</time>
      </trkpt>
      <trkpt lat="45.67809" lon="5.30118">
        <ele>272.4</ele>
        <time>2025-05-27T09:58:16Z</time>
      </trkpt>
      <trkpt lat="45.67812" lon="5.3012">
        <ele>272</ele>
        <time>2025-05-27T09:58:17Z</time>
      </trkpt>
      <trkpt lat="45.67814" lon="5.30123">
        <ele>272</ele>
        <time>2025-05-27T09:58:18Z</time>
      </trkpt>
      <trkpt lat="45.67816" lon="5.30126">
        <ele>272.4</ele>
        <time>2025-05-27T09:58:19Z</time>
      </trkpt>
      <trkpt lat="45.67818" lon="5.30129">
        <ele>272.4</ele>
        <time>2025-05-27T09:58:20Z</time>
      </trkpt>
      <trkpt lat="45.6782" lon="5.30133">
        <ele>272.4</ele>
        <time>2025-05-27T09:58:21Z</time>
      </trkpt>
      <trkpt lat="45.67821" lon="5.30136">
        <ele>272.4</ele>
        <time>2025-05-27T09:58:22Z</time>
      </trkpt>
      <trkpt lat="45.67823" lon="5.3014">
        <ele>272.4</ele>
        <time>2025-05-27T09:58:23Z</time>
      </trkpt>
      <trkpt lat="45.67825" lon="5.30144">
        <ele>272.4</ele>
        <time>2025-05-27T09:58:24Z</time>
      </trkpt>
      <trkpt lat="45.67827" lon="5.30147">
        <ele>272.6</ele>
        <time>2025-05-27T09:58:25Z</time>
      </trkpt>
      <trkpt lat="45.67829" lon="5.30149">
        <ele>273.2</ele>
        <time>2025-05-27T09:58:26Z</time>
      </trkpt>
      <trkpt lat="45.6783" lon="5.30151">
        <ele>273.2</ele>
        <time>2025-05-27T09:58:27Z</time>
      </trkpt>
      <trkpt lat="45.67832" lon="5.30153">
        <ele>273.4</ele>
        <time>2025-05-27T09:58:28Z</time>
      </trkpt>
      <trkpt lat="45.67834" lon="5.30156">
        <ele>273.2</ele>
        <time>2025-05-27T09:58:29Z</time>
      </trkpt>
      <trkpt lat="45.67836" lon="5.30158">
        <ele>273.8</ele>
        <time>2025-05-27T09:58:30Z</time>
      </trkpt>
      <trkpt lat="45.67837" lon="5.3016">
        <ele>273.8</ele>
        <time>2025-05-27T09:58:31Z</time>
      </trkpt>
      <trkpt lat="45.67838" lon="5.30163">
        <ele>274</ele>
        <time>2025-05-27T09:58:32Z</time>
      </trkpt>
      <trkpt lat="45.67839" lon="5.30165">
        <ele>274.6</ele>
        <time>2025-05-27T09:58:33Z</time>
      </trkpt>
      <trkpt lat="45.6784" lon="5.30168">
        <ele>275</ele>
        <time>2025-05-27T09:58:34Z</time>
      </trkpt>
      <trkpt lat="45.67841" lon="5.30171">
        <ele>275</ele>
        <time>2025-05-27T09:58:35Z</time>
      </trkpt>
      <trkpt lat="45.67842" lon="5.30175">
        <ele>275</ele>
        <time>2025-05-27T09:58:36Z</time>
      </trkpt>
      <trkpt lat="45.67843" lon="5.30177">
        <ele>275</ele>
        <time>2025-05-27T09:58:37Z</time>
      </trkpt>
      <trkpt lat="45.67845" lon="5.30179">
        <ele>275</ele>
        <time>2025-05-27T09:58:38Z</time>
      </trkpt>
      <trkpt lat="45.67848" lon="5.30186">
        <ele>275.4</ele>
        <time>2025-05-27T09:58:39Z</time>
      </trkpt>
      <trkpt lat="45.6785" lon="5.30189">
        <ele>275.4</ele>
        <time>2025-05-27T09:58:40Z</time>
      </trkpt>
      <trkpt lat="45.67852" lon="5.30192">
        <ele>275.8</ele>
        <time>2025-05-27T09:58:41Z</time>
      </trkpt>
      <trkpt lat="45.67853" lon="5.30196">
        <ele>276.2</ele>
        <time>2025-05-27T09:58:42Z</time>
      </trkpt>
      <trkpt lat="45.67855" lon="5.30199">
        <ele>276.2</ele>
        <time>2025-05-27T09:58:43Z</time>
      </trkpt>
      <trkpt lat="45.67856" lon="5.30201">
        <ele>276</ele>
        <time>2025-05-27T09:58:44Z</time>
      </trkpt>
      <trkpt lat="45.67858" lon="5.30204">
        <ele>276.2</ele>
        <time>2025-05-27T09:58:45Z</time>
      </trkpt>
      <trkpt lat="45.67859" lon="5.30206">
        <ele>276.2</ele>
        <time>2025-05-27T09:58:46Z</time>
      </trkpt>
      <trkpt lat="45.6786" lon="5.30209">
        <ele>276.2</ele>
        <time>2025-05-27T09:58:47Z</time>
      </trkpt>
      <trkpt lat="45.67862" lon="5.30212">
        <ele>276.6</ele>
        <time>2025-05-27T09:58:48Z</time>
      </trkpt>
      <trkpt lat="45.67864" lon="5.30215">
        <ele>276.6</ele>
        <time>2025-05-27T09:58:49Z</time>
      </trkpt>
      <trkpt lat="45.67866" lon="5.30217">
        <ele>276.6</ele>
        <time>2025-05-27T09:58:50Z</time>
      </trkpt>
      <trkpt lat="45.67868" lon="5.30219">
        <ele>276.6</ele>
        <time>2025-05-27T09:58:51Z</time>
      </trkpt>
      <trkpt lat="45.6787" lon="5.30223">
        <ele>276.6</ele>
        <time>2025-05-27T09:58:52Z</time>
      </trkpt>
      <trkpt lat="45.67873" lon="5.30228">
        <ele>277</ele>
        <time>2025-05-27T09:58:53Z</time>
      </trkpt>
      <trkpt lat="45.67875" lon="5.30231">
        <ele>277</ele>
        <time>2025-05-27T09:58:54Z</time>
      </trkpt>
      <trkpt lat="45.67877" lon="5.30236">
        <ele>276.4</ele>
        <time>2025-05-27T09:58:55Z</time>
      </trkpt>
      <trkpt lat="45.67879" lon="5.3024">
        <ele>276.4</ele>
        <time>2025-05-27T09:58:56Z</time>
      </trkpt>
      <trkpt lat="45.67881" lon="5.30244">
        <ele>276</ele>
        <time>2025-05-27T09:58:57Z</time>
      </trkpt>
      <trkpt lat="45.67883" lon="5.30248">
        <ele>276</ele>
        <time>2025-05-27T09:58:58Z</time>
      </trkpt>
      <trkpt lat="45.67885" lon="5.30253">
        <ele>276</ele>
        <time>2025-05-27T09:58:59Z</time>
      </trkpt>
      <trkpt lat="45.67885" lon="5.30253">
        <ele>275.6</ele>
        <time>2025-05-27T09:59:00Z</time>
      </trkpt>
      <trkpt lat="45.67886" lon="5.30259">
        <ele>275</ele>
        <time>2025-05-27T09:59:01Z</time>
      </trkpt>
      <trkpt lat="45.67888" lon="5.30265">
        <ele>274.8</ele>
        <time>2025-05-27T09:59:02Z</time>
      </trkpt>
      <trkpt lat="45.67889" lon="5.30271">
        <ele>274.8</ele>
        <time>2025-05-27T09:59:03Z</time>
      </trkpt>
      <trkpt lat="45.6789" lon="5.30277">
        <ele>274.4</ele>
        <time>2025-05-27T09:59:04Z</time>
      </trkpt>
      <trkpt lat="45.67891" lon="5.30286">
        <ele>273.8</ele>
        <time>2025-05-27T09:59:05Z</time>
      </trkpt>
      <trkpt lat="45.67894" lon="5.30292">
        <ele>273.8</ele>
        <time>2025-05-27T09:59:06Z</time>
      </trkpt>
      <trkpt lat="45.67896" lon="5.303">
        <ele>273.8</ele>
        <time>2025-05-27T09:59:07Z</time>
      </trkpt>
      <trkpt lat="45.67899" lon="5.30304">
        <ele>273.8</ele>
        <time>2025-05-27T09:59:08Z</time>
      </trkpt>
      <trkpt lat="45.67901" lon="5.30309">
        <ele>273.8</ele>
        <time>2025-05-27T09:59:09Z</time>
      </trkpt>
      <trkpt lat="45.67903" lon="5.30315">
        <ele>273.8</ele>
        <time>2025-05-27T09:59:10Z</time>
      </trkpt>
      <trkpt lat="45.67905" lon="5.30321">
        <ele>274</ele>
        <time>2025-05-27T09:59:11Z</time>
      </trkpt>
      <trkpt lat="45.67907" lon="5.30327">
        <ele>274</ele>
        <time>2025-05-27T09:59:12Z</time>
      </trkpt>
      <trkpt lat="45.67908" lon="5.30333">
        <ele>274</ele>
        <time>2025-05-27T09:59:13Z</time>
      </trkpt>
      <trkpt lat="45.67911" lon="5.30339">
        <ele>274</ele>
        <time>2025-05-27T09:59:14Z</time>
      </trkpt>
      <trkpt lat="45.67913" lon="5.30344">
        <ele>274.4</ele>
        <time>2025-05-27T09:59:15Z</time>
      </trkpt>
      <trkpt lat="45.67915" lon="5.30349">
        <ele>274.8</ele>
        <time>2025-05-27T09:59:16Z</time>
      </trkpt>
      <trkpt lat="45.67918" lon="5.30355">
        <ele>274.8</ele>
        <time>2025-05-27T09:59:17Z</time>
      </trkpt>
      <trkpt lat="45.6792" lon="5.30359">
        <ele>275.4</ele>
        <time>2025-05-27T09:59:18Z</time>
      </trkpt>
      <trkpt lat="45.67922" lon="5.30363">
        <ele>275</ele>
        <time>2025-05-27T09:59:19Z</time>
      </trkpt>
      <trkpt lat="45.67924" lon="5.30368">
        <ele>275</ele>
        <time>2025-05-27T09:59:20Z</time>
      </trkpt>
      <trkpt lat="45.67926" lon="5.30373">
        <ele>275.4</ele>
        <time>2025-05-27T09:59:21Z</time>
      </trkpt>
      <trkpt lat="45.67928" lon="5.30377">
        <ele>275.8</ele>
        <time>2025-05-27T09:59:22Z</time>
      </trkpt>
      <trkpt lat="45.67929" lon="5.30382">
        <ele>275.8</ele>
        <time>2025-05-27T09:59:23Z</time>
      </trkpt>
      <trkpt lat="45.67931" lon="5.30388">
        <ele>275.8</ele>
        <time>2025-05-27T09:59:24Z</time>
      </trkpt>
      <trkpt lat="45.67933" lon="5.30392">
        <ele>275.8</ele>
        <time>2025-05-27T09:59:25Z</time>
      </trkpt>
      <trkpt lat="45.67934" lon="5.30398">
        <ele>276</ele>
        <time>2025-05-27T09:59:26Z</time>
      </trkpt>
      <trkpt lat="45.67936" lon="5.30403">
        <ele>276</ele>
        <time>2025-05-27T09:59:27Z</time>
      </trkpt>
      <trkpt lat="45.67938" lon="5.30408">
        <ele>276</ele>
        <time>2025-05-27T09:59:28Z</time>
      </trkpt>
      <trkpt lat="45.6794" lon="5.30414">
        <ele>276.4</ele>
        <time>2025-05-27T09:59:29Z</time>
      </trkpt>
      <trkpt lat="45.67942" lon="5.30418">
        <ele>276.4</ele>
        <time>2025-05-27T09:59:30Z</time>
      </trkpt>
      <trkpt lat="45.67944" lon="5.30422">
        <ele>277.4</ele>
        <time>2025-05-27T09:59:31Z</time>
      </trkpt>
      <trkpt lat="45.67946" lon="5.30426">
        <ele>277</ele>
        <time>2025-05-27T09:59:32Z</time>
      </trkpt>
      <trkpt lat="45.67948" lon="5.3043">
        <ele>276.6</ele>
        <time>2025-05-27T09:59:33Z</time>
      </trkpt>
      <trkpt lat="45.67949" lon="5.30434">
        <ele>276.6</ele>
        <time>2025-05-27T09:59:34Z</time>
      </trkpt>
      <trkpt lat="45.67951" lon="5.30439">
        <ele>276.6</ele>
        <time>2025-05-27T09:59:35Z</time>
      </trkpt>
      <trkpt lat="45.67952" lon="5.30444">
        <ele>276.2</ele>
        <time>2025-05-27T09:59:36Z</time>
      </trkpt>
      <trkpt lat="45.67954" lon="5.30448">
        <ele>276.6</ele>
        <time>2025-05-27T09:59:37Z</time>
      </trkpt>
      <trkpt lat="45.67955" lon="5.30452">
        <ele>275.6</ele>
        <time>2025-05-27T09:59:38Z</time>
      </trkpt>
      <trkpt lat="45.67956" lon="5.30457">
        <ele>276</ele>
        <time>2025-05-27T09:59:39Z</time>
      </trkpt>
      <trkpt lat="45.67956" lon="5.30461">
        <ele>276</ele>
        <time>2025-05-27T09:59:40Z</time>
      </trkpt>
      <trkpt lat="45.67957" lon="5.30463">
        <ele>276</ele>
        <time>2025-05-27T09:59:41Z</time>
      </trkpt>
      <trkpt lat="45.67957" lon="5.30466">
        <ele>276.4</ele>
        <time>2025-05-27T09:59:42Z</time>
      </trkpt>
      <trkpt lat="45.6796" lon="5.30473">
        <ele>276.4</ele>
        <time>2025-05-27T09:59:43Z</time>
      </trkpt>
      <trkpt lat="45.67963" lon="5.30478">
        <ele>276</ele>
        <time>2025-05-27T09:59:44Z</time>
      </trkpt>
      <trkpt lat="45.67964" lon="5.30482">
        <ele>276.2</ele>
        <time>2025-05-27T09:59:45Z</time>
      </trkpt>
      <trkpt lat="45.67966" lon="5.30489">
        <ele>275.8</ele>
        <time>2025-05-27T09:59:46Z</time>
      </trkpt>
      <trkpt lat="45.67968" lon="5.30494">
        <ele>276</ele>
        <time>2025-05-27T09:59:47Z</time>
      </trkpt>
      <trkpt lat="45.6797" lon="5.30499">
        <ele>275.6</ele>
        <time>2025-05-27T09:59:48Z</time>
      </trkpt>
      <trkpt lat="45.67972" lon="5.30504">
        <ele>275.2</ele>
        <time>2025-05-27T09:59:49Z</time>
      </trkpt>
      <trkpt lat="45.67974" lon="5.30508">
        <ele>275.8</ele>
        <time>2025-05-27T09:59:50Z</time>
      </trkpt>
      <trkpt lat="45.67976" lon="5.30514">
        <ele>275.8</ele>
        <time>2025-05-27T09:59:51Z</time>
      </trkpt>
      <trkpt lat="45.67978" lon="5.30518">
        <ele>275.4</ele>
        <time>2025-05-27T09:59:52Z</time>
      </trkpt>
      <trkpt lat="45.6798" lon="5.30523">
        <ele>275.4</ele>
        <time>2025-05-27T09:59:53Z</time>
      </trkpt>
      <trkpt lat="45.67983" lon="5.30529">
        <ele>275.8</ele>
        <time>2025-05-27T09:59:54Z</time>
      </trkpt>
      <trkpt lat="45.67985" lon="5.30535">
        <ele>276.2</ele>
        <time>2025-05-27T09:59:55Z</time>
      </trkpt>
      <trkpt lat="45.67988" lon="5.30541">
        <ele>276.2</ele>
        <time>2025-05-27T09:59:56Z</time>
      </trkpt>
      <trkpt lat="45.6799" lon="5.30546">
        <ele>277</ele>
        <time>2025-05-27T09:59:57Z</time>
      </trkpt>
      <trkpt lat="45.67992" lon="5.30551">
        <ele>277</ele>
        <time>2025-05-27T09:59:58Z</time>
      </trkpt>
      <trkpt lat="45.67994" lon="5.30555">
        <ele>277</ele>
        <time>2025-05-27T09:59:59Z</time>
      </trkpt>
      <trkpt lat="45.67996" lon="5.3056">
        <ele>276.6</ele>
        <time>2025-05-27T10:00:00Z</time>
      </trkpt>
      <trkpt lat="45.67997" lon="5.30566">
        <ele>276.2</ele>
        <time>2025-05-27T10:00:01Z</time>
      </trkpt>
      <trkpt lat="45.67998" lon="5.3057">
        <ele>276.8</ele>
        <time>2025-05-27T10:00:02Z</time>
      </trkpt>
      <trkpt lat="45.68" lon="5.30575">
        <ele>276.8</ele>
        <time>2025-05-27T10:00:03Z</time>
      </trkpt>
      <trkpt lat="45.68003" lon="5.30578">
        <ele>276.2</ele>
        <time>2025-05-27T10:00:04Z</time>
      </trkpt>
      <trkpt lat="45.68006" lon="5.30583">
        <ele>276.2</ele>
        <time>2025-05-27T10:00:05Z</time>
      </trkpt>
      <trkpt lat="45.68008" lon="5.30588">
        <ele>276.2</ele>
        <time>2025-05-27T10:00:06Z</time>
      </trkpt>
      <trkpt lat="45.6801" lon="5.30593">
        <ele>276.2</ele>
        <time>2025-05-27T10:00:07Z</time>
      </trkpt>
      <trkpt lat="45.68014" lon="5.30598">
        <ele>276.2</ele>
        <time>2025-05-27T10:00:08Z</time>
      </trkpt>
      <trkpt lat="45.68017" lon="5.30603">
        <ele>276</ele>
        <time>2025-05-27T10:00:09Z</time>
      </trkpt>
      <trkpt lat="45.68019" lon="5.30607">
        <ele>276</ele>
        <time>2025-05-27T10:00:10Z</time>
      </trkpt>
      <trkpt lat="45.68022" lon="5.30612">
        <ele>276</ele>
        <time>2025-05-27T10:00:11Z</time>
      </trkpt>
      <trkpt lat="45.68025" lon="5.30618">
        <ele>276.8</ele>
        <time>2025-05-27T10:00:12Z</time>
      </trkpt>
      <trkpt lat="45.68029" lon="5.30622">
        <ele>276.8</ele>
        <time>2025-05-27T10:00:13Z</time>
      </trkpt>
      <trkpt lat="45.68032" lon="5.30627">
        <ele>277</ele>
        <time>2025-05-27T10:00:14Z</time>
      </trkpt>
      <trkpt lat="45.68035" lon="5.30633">
        <ele>277</ele>
        <time>2025-05-27T10:00:15Z</time>
      </trkpt>
      <trkpt lat="45.68038" lon="5.30638">
        <ele>277</ele>
        <time>2025-05-27T10:00:16Z</time>
      </trkpt>
      <trkpt lat="45.68041" lon="5.30644">
        <ele>276.4</ele>
        <time>2025-05-27T10:00:17Z</time>
      </trkpt>
      <trkpt lat="45.68045" lon="5.3065">
        <ele>276</ele>
        <time>2025-05-27T10:00:18Z</time>
      </trkpt>
      <trkpt lat="45.68048" lon="5.30656">
        <ele>276</ele>
        <time>2025-05-27T10:00:19Z</time>
      </trkpt>
      <trkpt lat="45.68051" lon="5.30662">
        <ele>276</ele>
        <time>2025-05-27T10:00:20Z</time>
      </trkpt>
      <trkpt lat="45.68054" lon="5.3067">
        <ele>276</ele>
        <time>2025-05-27T10:00:21Z</time>
      </trkpt>
      <trkpt lat="45.68058" lon="5.30676">
        <ele>276</ele>
        <time>2025-05-27T10:00:22Z</time>
      </trkpt>
      <trkpt lat="45.6806" lon="5.30682">
        <ele>275.8</ele>
        <time>2025-05-27T10:00:23Z</time>
      </trkpt>
      <trkpt lat="45.68064" lon="5.30689">
        <ele>275.2</ele>
        <time>2025-05-27T10:00:24Z</time>
      </trkpt>
      <trkpt lat="45.68067" lon="5.30696">
        <ele>275.2</ele>
        <time>2025-05-27T10:00:25Z</time>
      </trkpt>
      <trkpt lat="45.6807" lon="5.30703">
        <ele>274.8</ele>
        <time>2025-05-27T10:00:26Z</time>
      </trkpt>
      <trkpt lat="45.68074" lon="5.3071">
        <ele>274.8</ele>
        <time>2025-05-27T10:00:27Z</time>
      </trkpt>
      <trkpt lat="45.68078" lon="5.30717">
        <ele>274.4</ele>
        <time>2025-05-27T10:00:28Z</time>
      </trkpt>
      <trkpt lat="45.68081" lon="5.30724">
        <ele>274.4</ele>
        <time>2025-05-27T10:00:29Z</time>
      </trkpt>
      <trkpt lat="45.68085" lon="5.3073">
        <ele>274.4</ele>
        <time>2025-05-27T10:00:30Z</time>
      </trkpt>
      <trkpt lat="45.68088" lon="5.30738">
        <ele>274</ele>
        <time>2025-05-27T10:00:31Z</time>
      </trkpt>
      <trkpt lat="45.68091" lon="5.30745">
        <ele>274</ele>
        <time>2025-05-27T10:00:32Z</time>
      </trkpt>
      <trkpt lat="45.68095" lon="5.30751">
        <ele>273.4</ele>
        <time>2025-05-27T10:00:33Z</time>
      </trkpt>
      <trkpt lat="45.68099" lon="5.30757">
        <ele>272.2</ele>
        <time>2025-05-27T10:00:34Z</time>
      </trkpt>
      <trkpt lat="45.68104" lon="5.30763">
        <ele>271.8</ele>
        <time>2025-05-27T10:00:35Z</time>
      </trkpt>
      <trkpt lat="45.68107" lon="5.3077">
        <ele>270.4</ele>
        <time>2025-05-27T10:00:36Z</time>
      </trkpt>
      <trkpt lat="45.68111" lon="5.30777">
        <ele>270.4</ele>
        <time>2025-05-27T10:00:37Z</time>
      </trkpt>
      <trkpt lat="45.68114" lon="5.30784">
        <ele>270.4</ele>
        <time>2025-05-27T10:00:38Z</time>
      </trkpt>
      <trkpt lat="45.68117" lon="5.30791">
        <ele>270.4</ele>
        <time>2025-05-27T10:00:39Z</time>
      </trkpt>
      <trkpt lat="45.68121" lon="5.30798">
        <ele>270.6</ele>
        <time>2025-05-27T10:00:40Z</time>
      </trkpt>
      <trkpt lat="45.68125" lon="5.30806">
        <ele>271.4</ele>
        <time>2025-05-27T10:00:41Z</time>
      </trkpt>
      <trkpt lat="45.68128" lon="5.30813">
        <ele>270.6</ele>
        <time>2025-05-27T10:00:42Z</time>
      </trkpt>
      <trkpt lat="45.68132" lon="5.3082">
        <ele>271.8</ele>
        <time>2025-05-27T10:00:43Z</time>
      </trkpt>
      <trkpt lat="45.68136" lon="5.30827">
        <ele>274</ele>
        <time>2025-05-27T10:00:44Z</time>
      </trkpt>
      <trkpt lat="45.68141" lon="5.30834">
        <ele>273.4</ele>
        <time>2025-05-27T10:00:45Z</time>
      </trkpt>
      <trkpt lat="45.68145" lon="5.30841">
        <ele>272.8</ele>
        <time>2025-05-27T10:00:46Z</time>
      </trkpt>
      <trkpt lat="45.68149" lon="5.30848">
        <ele>271.4</ele>
        <time>2025-05-27T10:00:47Z</time>
      </trkpt>
      <trkpt lat="45.68153" lon="5.30856">
        <ele>271.4</ele>
        <time>2025-05-27T10:00:48Z</time>
      </trkpt>
      <trkpt lat="45.68157" lon="5.30864">
        <ele>270.4</ele>
        <time>2025-05-27T10:00:49Z</time>
      </trkpt>
      <trkpt lat="45.68161" lon="5.30872">
        <ele>269.8</ele>
        <time>2025-05-27T10:00:50Z</time>
      </trkpt>
      <trkpt lat="45.68165" lon="5.3088">
        <ele>269.6</ele>
        <time>2025-05-27T10:00:51Z</time>
      </trkpt>
      <trkpt lat="45.68169" lon="5.30888">
        <ele>270</ele>
        <time>2025-05-27T10:00:52Z</time>
      </trkpt>
      <trkpt lat="45.68173" lon="5.30895">
        <ele>269.8</ele>
        <time>2025-05-27T10:00:53Z</time>
      </trkpt>
      <trkpt lat="45.68177" lon="5.30902">
        <ele>270</ele>
        <time>2025-05-27T10:00:54Z</time>
      </trkpt>
      <trkpt lat="45.68182" lon="5.30908">
        <ele>269.8</ele>
        <time>2025-05-27T10:00:55Z</time>
      </trkpt>
      <trkpt lat="45.68185" lon="5.30915">
        <ele>269.8</ele>
        <time>2025-05-27T10:00:56Z</time>
      </trkpt>
      <trkpt lat="45.68189" lon="5.30923">
        <ele>269.8</ele>
        <time>2025-05-27T10:00:57Z</time>
      </trkpt>
      <trkpt lat="45.68193" lon="5.3093">
        <ele>270.2</ele>
        <time>2025-05-27T10:00:58Z</time>
      </trkpt>
      <trkpt lat="45.68195" lon="5.30937">
        <ele>270.2</ele>
        <time>2025-05-27T10:00:59Z</time>
      </trkpt>
      <trkpt lat="45.68199" lon="5.30944">
        <ele>270.2</ele>
        <time>2025-05-27T10:01:00Z</time>
      </trkpt>
      <trkpt lat="45.68202" lon="5.3095">
        <ele>270.2</ele>
        <time>2025-05-27T10:01:01Z</time>
      </trkpt>
      <trkpt lat="45.68205" lon="5.30958">
        <ele>270.2</ele>
        <time>2025-05-27T10:01:02Z</time>
      </trkpt>
      <trkpt lat="45.68207" lon="5.30965">
        <ele>270.6</ele>
        <time>2025-05-27T10:01:03Z</time>
      </trkpt>
      <trkpt lat="45.68211" lon="5.30971">
        <ele>270.6</ele>
        <time>2025-05-27T10:01:04Z</time>
      </trkpt>
      <trkpt lat="45.68213" lon="5.30977">
        <ele>270.6</ele>
        <time>2025-05-27T10:01:05Z</time>
      </trkpt>
      <trkpt lat="45.68216" lon="5.30983">
        <ele>270.6</ele>
        <time>2025-05-27T10:01:06Z</time>
      </trkpt>
      <trkpt lat="45.68219" lon="5.30989">
        <ele>270.6</ele>
        <time>2025-05-27T10:01:07Z</time>
      </trkpt>
      <trkpt lat="45.68222" lon="5.30996">
        <ele>270.6</ele>
        <time>2025-05-27T10:01:08Z</time>
      </trkpt>
      <trkpt lat="45.68225" lon="5.31003">
        <ele>271.2</ele>
        <time>2025-05-27T10:01:09Z</time>
      </trkpt>
      <trkpt lat="45.68228" lon="5.3101">
        <ele>271.2</ele>
        <time>2025-05-27T10:01:10Z</time>
      </trkpt>
      <trkpt lat="45.68232" lon="5.31017">
        <ele>270</ele>
        <time>2025-05-27T10:01:11Z</time>
      </trkpt>
      <trkpt lat="45.68234" lon="5.31025">
        <ele>270.2</ele>
        <time>2025-05-27T10:01:12Z</time>
      </trkpt>
      <trkpt lat="45.68237" lon="5.31032">
        <ele>270.2</ele>
        <time>2025-05-27T10:01:13Z</time>
      </trkpt>
      <trkpt lat="45.68238" lon="5.31037">
        <ele>270.6</ele>
        <time>2025-05-27T10:01:14Z</time>
      </trkpt>
      <trkpt lat="45.6824" lon="5.31042">
        <ele>270.6</ele>
        <time>2025-05-27T10:01:15Z</time>
      </trkpt>
      <trkpt lat="45.68241" lon="5.31049">
        <ele>270.6</ele>
        <time>2025-05-27T10:01:16Z</time>
      </trkpt>
      <trkpt lat="45.68242" lon="5.31054">
        <ele>271.4</ele>
        <time>2025-05-27T10:01:17Z</time>
      </trkpt>
      <trkpt lat="45.68244" lon="5.31059">
        <ele>271.8</ele>
        <time>2025-05-27T10:01:18Z</time>
      </trkpt>
      <trkpt lat="45.68245" lon="5.31063">
        <ele>272.8</ele>
        <time>2025-05-27T10:01:19Z</time>
      </trkpt>
      <trkpt lat="45.68246" lon="5.31067">
        <ele>273</ele>
        <time>2025-05-27T10:01:20Z</time>
      </trkpt>
      <trkpt lat="45.68247" lon="5.31071">
        <ele>273</ele>
        <time>2025-05-27T10:01:21Z</time>
      </trkpt>
      <trkpt lat="45.68249" lon="5.31077">
        <ele>273</ele>
        <time>2025-05-27T10:01:22Z</time>
      </trkpt>
      <trkpt lat="45.6825" lon="5.31082">
        <ele>272.8</ele>
        <time>2025-05-27T10:01:23Z</time>
      </trkpt>
      <trkpt lat="45.68252" lon="5.31087">
        <ele>272.8</ele>
        <time>2025-05-27T10:01:24Z</time>
      </trkpt>
      <trkpt lat="45.68254" lon="5.31093">
        <ele>273.6</ele>
        <time>2025-05-27T10:01:25Z</time>
      </trkpt>
      <trkpt lat="45.68256" lon="5.31099">
        <ele>272.8</ele>
        <time>2025-05-27T10:01:26Z</time>
      </trkpt>
      <trkpt lat="45.68259" lon="5.31104">
        <ele>272.4</ele>
        <time>2025-05-27T10:01:27Z</time>
      </trkpt>
      <trkpt lat="45.6826" lon="5.3111">
        <ele>271.6</ele>
        <time>2025-05-27T10:01:28Z</time>
      </trkpt>
      <trkpt lat="45.68262" lon="5.31117">
        <ele>271.2</ele>
        <time>2025-05-27T10:01:29Z</time>
      </trkpt>
      <trkpt lat="45.68265" lon="5.31124">
        <ele>271.2</ele>
        <time>2025-05-27T10:01:30Z</time>
      </trkpt>
      <trkpt lat="45.68267" lon="5.3113">
        <ele>272.2</ele>
        <time>2025-05-27T10:01:31Z</time>
      </trkpt>
      <trkpt lat="45.6827" lon="5.31136">
        <ele>270.2</ele>
        <time>2025-05-27T10:01:32Z</time>
      </trkpt>
      <trkpt lat="45.68272" lon="5.31142">
        <ele>269.8</ele>
        <time>2025-05-27T10:01:33Z</time>
      </trkpt>
      <trkpt lat="45.68275" lon="5.31148">
        <ele>269.8</ele>
        <time>2025-05-27T10:01:34Z</time>
      </trkpt>
      <trkpt lat="45.68278" lon="5.31153">
        <ele>269.8</ele>
        <time>2025-05-27T10:01:35Z</time>
      </trkpt>
      <trkpt lat="45.68282" lon="5.31157">
        <ele>269.8</ele>
        <time>2025-05-27T10:01:36Z</time>
      </trkpt>
      <trkpt lat="45.68285" lon="5.3116">
        <ele>270</ele>
        <time>2025-05-27T10:01:37Z</time>
      </trkpt>
      <trkpt lat="45.68288" lon="5.31161">
        <ele>270.2</ele>
        <time>2025-05-27T10:01:38Z</time>
      </trkpt>
      <trkpt lat="45.6829" lon="5.31161">
        <ele>270.4</ele>
        <time>2025-05-27T10:01:39Z</time>
      </trkpt>
      <trkpt lat="45.68291" lon="5.31161">
        <ele>270.6</ele>
        <time>2025-05-27T10:01:40Z</time>
      </trkpt>
      <trkpt lat="45.68291" lon="5.31162">
        <ele>270.6</ele>
        <time>2025-05-27T10:01:41Z</time>
      </trkpt>
      <trkpt lat="45.6829" lon="5.31162">
        <ele>271.2</ele>
        <time>2025-05-27T10:01:42Z</time>
      </trkpt>
      <trkpt lat="45.68292" lon="5.31162">
        <ele>271.4</ele>
        <time>2025-05-27T10:01:47Z</time>
      </trkpt>
      <trkpt lat="45.68294" lon="5.3116">
        <ele>271.4</ele>
        <time>2025-05-27T10:01:48Z</time>
      </trkpt>
      <trkpt lat="45.68294" lon="5.31157">
        <ele>271.4</ele>
        <time>2025-05-27T10:01:49Z</time>
      </trkpt>
      <trkpt lat="45.68294" lon="5.31155">
        <ele>271.4</ele>
        <time>2025-05-27T10:01:50Z</time>
      </trkpt>
      <trkpt lat="45.68294" lon="5.31151">
        <ele>271.4</ele>
        <time>2025-05-27T10:01:51Z</time>
      </trkpt>
      <trkpt lat="45.68295" lon="5.31148">
        <ele>271.4</ele>
        <time>2025-05-27T10:01:52Z</time>
      </trkpt>
      <trkpt lat="45.68296" lon="5.31146">
        <ele>271.4</ele>
        <time>2025-05-27T10:01:53Z</time>
      </trkpt>
      <trkpt lat="45.68297" lon="5.31143">
        <ele>271.8</ele>
        <time>2025-05-27T10:01:54Z</time>
      </trkpt>
      <trkpt lat="45.68297" lon="5.31141">
        <ele>271.8</ele>
        <time>2025-05-27T10:01:55Z</time>
      </trkpt>
      <trkpt lat="45.68298" lon="5.31138">
        <ele>272.4</ele>
        <time>2025-05-27T10:01:56Z</time>
      </trkpt>
      <trkpt lat="45.68298" lon="5.31136">
        <ele>272.4</ele>
        <time>2025-05-27T10:01:57Z</time>
      </trkpt>
      <trkpt lat="45.68298" lon="5.31132">
        <ele>272.8</ele>
        <time>2025-05-27T10:01:58Z</time>
      </trkpt>
      <trkpt lat="45.68298" lon="5.31129">
        <ele>272.8</ele>
        <time>2025-05-27T10:01:59Z</time>
      </trkpt>
      <trkpt lat="45.68298" lon="5.31126">
        <ele>273</ele>
        <time>2025-05-27T10:02:00Z</time>
      </trkpt>
      <trkpt lat="45.68298" lon="5.31123">
        <ele>273.2</ele>
        <time>2025-05-27T10:02:01Z</time>
      </trkpt>
      <trkpt lat="45.68298" lon="5.3112">
        <ele>273.6</ele>
        <time>2025-05-27T10:02:02Z</time>
      </trkpt>
      <trkpt lat="45.68298" lon="5.31116">
        <ele>273.8</ele>
        <time>2025-05-27T10:02:03Z</time>
      </trkpt>
      <trkpt lat="45.68298" lon="5.31113">
        <ele>274.2</ele>
        <time>2025-05-27T10:02:04Z</time>
      </trkpt>
      <trkpt lat="45.68299" lon="5.31111">
        <ele>274.2</ele>
        <time>2025-05-27T10:02:05Z</time>
      </trkpt>
      <trkpt lat="45.68299" lon="5.31107">
        <ele>274.4</ele>
        <time>2025-05-27T10:02:06Z</time>
      </trkpt>
      <trkpt lat="45.68299" lon="5.311">
        <ele>274.4</ele>
        <time>2025-05-27T10:02:07Z</time>
      </trkpt>
      <trkpt lat="45.68299" lon="5.31097">
        <ele>274.4</ele>
        <time>2025-05-27T10:02:08Z</time>
      </trkpt>
      <trkpt lat="45.68299" lon="5.31093">
        <ele>274.8</ele>
        <time>2025-05-27T10:02:09Z</time>
      </trkpt>
      <trkpt lat="45.68299" lon="5.3109">
        <ele>274.8</ele>
        <time>2025-05-27T10:02:10Z</time>
      </trkpt>
      <trkpt lat="45.68299" lon="5.31086">
        <ele>275</ele>
        <time>2025-05-27T10:02:11Z</time>
      </trkpt>
      <trkpt lat="45.68299" lon="5.31082">
        <ele>275.2</ele>
        <time>2025-05-27T10:02:12Z</time>
      </trkpt>
      <trkpt lat="45.68299" lon="5.31079">
        <ele>275.6</ele>
        <time>2025-05-27T10:02:13Z</time>
      </trkpt>
      <trkpt lat="45.68299" lon="5.31075">
        <ele>275.6</ele>
        <time>2025-05-27T10:02:14Z</time>
      </trkpt>
      <trkpt lat="45.68299" lon="5.31072">
        <ele>275.6</ele>
        <time>2025-05-27T10:02:15Z</time>
      </trkpt>
      <trkpt lat="45.683" lon="5.31069">
        <ele>275.8</ele>
        <time>2025-05-27T10:02:16Z</time>
      </trkpt>
      <trkpt lat="45.68301" lon="5.31066">
        <ele>276</ele>
        <time>2025-05-27T10:02:17Z</time>
      </trkpt>
      <trkpt lat="45.68302" lon="5.31063">
        <ele>276</ele>
        <time>2025-05-27T10:02:18Z</time>
      </trkpt>
      <trkpt lat="45.68303" lon="5.31061">
        <ele>276</ele>
        <time>2025-05-27T10:02:19Z</time>
      </trkpt>
      <trkpt lat="45.68305" lon="5.3106">
        <ele>276</ele>
        <time>2025-05-27T10:02:20Z</time>
      </trkpt>
      <trkpt lat="45.68306" lon="5.3106">
        <ele>276</ele>
        <time>2025-05-27T10:02:21Z</time>
      </trkpt>
      <trkpt lat="45.68307" lon="5.31059">
        <ele>276.2</ele>
        <time>2025-05-27T10:02:22Z</time>
      </trkpt>
      <trkpt lat="45.68308" lon="5.31058">
        <ele>276.2</ele>
        <time>2025-05-27T10:02:23Z</time>
      </trkpt>
      <trkpt lat="45.68311" lon="5.31056">
        <ele>276.2</ele>
        <time>2025-05-27T10:02:24Z</time>
      </trkpt>
      <trkpt lat="45.68313" lon="5.31054">
        <ele>276.2</ele>
        <time>2025-05-27T10:02:25Z</time>
      </trkpt>
      <trkpt lat="45.68315" lon="5.31051">
        <ele>276.6</ele>
        <time>2025-05-27T10:02:26Z</time>
      </trkpt>
      <trkpt lat="45.68317" lon="5.31048">
        <ele>276.8</ele>
        <time>2025-05-27T10:02:27Z</time>
      </trkpt>
      <trkpt lat="45.68317" lon="5.31048">
        <ele>276.8</ele>
        <time>2025-05-27T10:02:28Z</time>
      </trkpt>
      <trkpt lat="45.68318" lon="5.31044">
        <ele>276.8</ele>
        <time>2025-05-27T10:02:29Z</time>
      </trkpt>
      <trkpt lat="45.68319" lon="5.3104">
        <ele>276.8</ele>
        <time>2025-05-27T10:02:30Z</time>
      </trkpt>
      <trkpt lat="45.68318" lon="5.31035">
        <ele>277.4</ele>
        <time>2025-05-27T10:02:31Z</time>
      </trkpt>
      <trkpt lat="45.68318" lon="5.31031">
        <ele>277.6</ele>
        <time>2025-05-27T10:02:32Z</time>
      </trkpt>
      <trkpt lat="45.68317" lon="5.31026">
        <ele>277.6</ele>
        <time>2025-05-27T10:02:33Z</time>
      </trkpt>
      <trkpt lat="45.68317" lon="5.31022">
        <ele>277.2</ele>
        <time>2025-05-27T10:02:34Z</time>
      </trkpt>
      <trkpt lat="45.68316" lon="5.31017">
        <ele>277</ele>
        <time>2025-05-27T10:02:35Z</time>
      </trkpt>
      <trkpt lat="45.68315" lon="5.31013">
        <ele>277</ele>
        <time>2025-05-27T10:02:36Z</time>
      </trkpt>
      <trkpt lat="45.68314" lon="5.31008">
        <ele>277</ele>
        <time>2025-05-27T10:02:37Z</time>
      </trkpt>
      <trkpt lat="45.68314" lon="5.31003">
        <ele>277</ele>
        <time>2025-05-27T10:02:38Z</time>
      </trkpt>
      <trkpt lat="45.68314" lon="5.30998">
        <ele>277.8</ele>
        <time>2025-05-27T10:02:39Z</time>
      </trkpt>
      <trkpt lat="45.68314" lon="5.30993">
        <ele>277.8</ele>
        <time>2025-05-27T10:02:40Z</time>
      </trkpt>
      <trkpt lat="45.68313" lon="5.30989">
        <ele>277.2</ele>
        <time>2025-05-27T10:02:41Z</time>
      </trkpt>
      <trkpt lat="45.68313" lon="5.30984">
        <ele>277.2</ele>
        <time>2025-05-27T10:02:42Z</time>
      </trkpt>
      <trkpt lat="45.68313" lon="5.3098">
        <ele>277.6</ele>
        <time>2025-05-27T10:02:43Z</time>
      </trkpt>
      <trkpt lat="45.68313" lon="5.30975">
        <ele>278</ele>
        <time>2025-05-27T10:02:44Z</time>
      </trkpt>
      <trkpt lat="45.68312" lon="5.3097">
        <ele>278</ele>
        <time>2025-05-27T10:02:45Z</time>
      </trkpt>
      <trkpt lat="45.68312" lon="5.30965">
        <ele>278</ele>
        <time>2025-05-27T10:02:46Z</time>
      </trkpt>
      <trkpt lat="45.68311" lon="5.30961">
        <ele>278.6</ele>
        <time>2025-05-27T10:02:47Z</time>
      </trkpt>
      <trkpt lat="45.68311" lon="5.30956">
        <ele>278.6</ele>
        <time>2025-05-27T10:02:48Z</time>
      </trkpt>
      <trkpt lat="45.68311" lon="5.30951">
        <ele>278.6</ele>
        <time>2025-05-27T10:02:49Z</time>
      </trkpt>
      <trkpt lat="45.68311" lon="5.30946">
        <ele>278.4</ele>
        <time>2025-05-27T10:02:50Z</time>
      </trkpt>
      <trkpt lat="45.68311" lon="5.30941">
        <ele>278.4</ele>
        <time>2025-05-27T10:02:51Z</time>
      </trkpt>
      <trkpt lat="45.6831" lon="5.30937">
        <ele>278.2</ele>
        <time>2025-05-27T10:02:52Z</time>
      </trkpt>
      <trkpt lat="45.6831" lon="5.30932">
        <ele>278.6</ele>
        <time>2025-05-27T10:02:53Z</time>
      </trkpt>
      <trkpt lat="45.68311" lon="5.30927">
        <ele>278.6</ele>
        <time>2025-05-27T10:02:54Z</time>
      </trkpt>
      <trkpt lat="45.68311" lon="5.30922">
        <ele>279</ele>
        <time>2025-05-27T10:02:55Z</time>
      </trkpt>
      <trkpt lat="45.68311" lon="5.30917">
        <ele>279.2</ele>
        <time>2025-05-27T10:02:56Z</time>
      </trkpt>
      <trkpt lat="45.6831" lon="5.30913">
        <ele>279.6</ele>
        <time>2025-05-27T10:02:57Z</time>
      </trkpt>
      <trkpt lat="45.6831" lon="5.30908">
        <ele>279.8</ele>
        <time>2025-05-27T10:02:58Z</time>
      </trkpt>
      <trkpt lat="45.6831" lon="5.30904">
        <ele>280.2</ele>
        <time>2025-05-27T10:02:59Z</time>
      </trkpt>
      <trkpt lat="45.6831" lon="5.30899">
        <ele>280.2</ele>
        <time>2025-05-27T10:03:00Z</time>
      </trkpt>
      <trkpt lat="45.6831" lon="5.30895">
        <ele>280.2</ele>
        <time>2025-05-27T10:03:01Z</time>
      </trkpt>
      <trkpt lat="45.6831" lon="5.3089">
        <ele>280.6</ele>
        <time>2025-05-27T10:03:02Z</time>
      </trkpt>
      <trkpt lat="45.6831" lon="5.30886">
        <ele>280.6</ele>
        <time>2025-05-27T10:03:03Z</time>
      </trkpt>
      <trkpt lat="45.6831" lon="5.30881">
        <ele>280.8</ele>
        <time>2025-05-27T10:03:04Z</time>
      </trkpt>
      <trkpt lat="45.6831" lon="5.30877">
        <ele>280.6</ele>
        <time>2025-05-27T10:03:05Z</time>
      </trkpt>
      <trkpt lat="45.6831" lon="5.30872">
        <ele>280.6</ele>
        <time>2025-05-27T10:03:06Z</time>
      </trkpt>
      <trkpt lat="45.6831" lon="5.30867">
        <ele>280.6</ele>
        <time>2025-05-27T10:03:07Z</time>
      </trkpt>
      <trkpt lat="45.68309" lon="5.30863">
        <ele>280.6</ele>
        <time>2025-05-27T10:03:08Z</time>
      </trkpt>
      <trkpt lat="45.68309" lon="5.30858">
        <ele>280.6</ele>
        <time>2025-05-27T10:03:09Z</time>
      </trkpt>
      <trkpt lat="45.68308" lon="5.30854">
        <ele>281.2</ele>
        <time>2025-05-27T10:03:10Z</time>
      </trkpt>
      <trkpt lat="45.68308" lon="5.3085">
        <ele>281.6</ele>
        <time>2025-05-27T10:03:11Z</time>
      </trkpt>
      <trkpt lat="45.68307" lon="5.30845">
        <ele>281.6</ele>
        <time>2025-05-27T10:03:12Z</time>
      </trkpt>
      <trkpt lat="45.68307" lon="5.30841">
        <ele>281.6</ele>
        <time>2025-05-27T10:03:13Z</time>
      </trkpt>
      <trkpt lat="45.68307" lon="5.30836">
        <ele>281.6</ele>
        <time>2025-05-27T10:03:14Z</time>
      </trkpt>
      <trkpt lat="45.68306" lon="5.30832">
        <ele>281.2</ele>
        <time>2025-05-27T10:03:15Z</time>
      </trkpt>
      <trkpt lat="45.68306" lon="5.30827">
        <ele>281.4</ele>
        <time>2025-05-27T10:03:16Z</time>
      </trkpt>
      <trkpt lat="45.68306" lon="5.30822">
        <ele>281.4</ele>
        <time>2025-05-27T10:03:17Z</time>
      </trkpt>
      <trkpt lat="45.68306" lon="5.30818">
        <ele>281.8</ele>
        <time>2025-05-27T10:03:18Z</time>
      </trkpt>
      <trkpt lat="45.68306" lon="5.30814">
        <ele>281.8</ele>
        <time>2025-05-27T10:03:19Z</time>
      </trkpt>
      <trkpt lat="45.68307" lon="5.30809">
        <ele>283</ele>
        <time>2025-05-27T10:03:20Z</time>
      </trkpt>
      <trkpt lat="45.68307" lon="5.30805">
        <ele>282.4</ele>
        <time>2025-05-27T10:03:21Z</time>
      </trkpt>
      <trkpt lat="45.68307" lon="5.308">
        <ele>282.8</ele>
        <time>2025-05-27T10:03:22Z</time>
      </trkpt>
      <trkpt lat="45.68308" lon="5.30795">
        <ele>283.2</ele>
        <time>2025-05-27T10:03:23Z</time>
      </trkpt>
      <trkpt lat="45.68307" lon="5.3079">
        <ele>282.8</ele>
        <time>2025-05-27T10:03:24Z</time>
      </trkpt>
      <trkpt lat="45.68307" lon="5.30786">
        <ele>282.8</ele>
        <time>2025-05-27T10:03:25Z</time>
      </trkpt>
      <trkpt lat="45.68307" lon="5.30782">
        <ele>282.4</ele>
        <time>2025-05-27T10:03:26Z</time>
      </trkpt>
      <trkpt lat="45.68306" lon="5.30777">
        <ele>281.8</ele>
        <time>2025-05-27T10:03:27Z</time>
      </trkpt>
      <trkpt lat="45.68306" lon="5.30773">
        <ele>281.8</ele>
        <time>2025-05-27T10:03:28Z</time>
      </trkpt>
      <trkpt lat="45.68306" lon="5.30768">
        <ele>282.6</ele>
        <time>2025-05-27T10:03:29Z</time>
      </trkpt>
      <trkpt lat="45.68305" lon="5.30763">
        <ele>282.6</ele>
        <time>2025-05-27T10:03:30Z</time>
      </trkpt>
      <trkpt lat="45.68305" lon="5.30759">
        <ele>282.2</ele>
        <time>2025-05-27T10:03:31Z</time>
      </trkpt>
      <trkpt lat="45.68305" lon="5.30754">
        <ele>283</ele>
        <time>2025-05-27T10:03:32Z</time>
      </trkpt>
      <trkpt lat="45.68304" lon="5.30749">
        <ele>283.2</ele>
        <time>2025-05-27T10:03:33Z</time>
      </trkpt>
      <trkpt lat="45.68304" lon="5.30744">
        <ele>283.8</ele>
        <time>2025-05-27T10:03:34Z</time>
      </trkpt>
      <trkpt lat="45.68303" lon="5.30739">
        <ele>283.4</ele>
        <time>2025-05-27T10:03:35Z</time>
      </trkpt>
      <trkpt lat="45.68303" lon="5.30734">
        <ele>283.4</ele>
        <time>2025-05-27T10:03:36Z</time>
      </trkpt>
      <trkpt lat="45.68303" lon="5.30729">
        <ele>283.4</ele>
        <time>2025-05-27T10:03:37Z</time>
      </trkpt>
      <trkpt lat="45.68303" lon="5.30724">
        <ele>284</ele>
        <time>2025-05-27T10:03:38Z</time>
      </trkpt>
      <trkpt lat="45.68302" lon="5.30719">
        <ele>283.8</ele>
        <time>2025-05-27T10:03:39Z</time>
      </trkpt>
      <trkpt lat="45.68302" lon="5.30715">
        <ele>283.8</ele>
        <time>2025-05-27T10:03:40Z</time>
      </trkpt>
      <trkpt lat="45.68301" lon="5.3071">
        <ele>284.2</ele>
        <time>2025-05-27T10:03:41Z</time>
      </trkpt>
      <trkpt lat="45.683" lon="5.30705">
        <ele>284.2</ele>
        <time>2025-05-27T10:03:42Z</time>
      </trkpt>
      <trkpt lat="45.68299" lon="5.30699">
        <ele>284.2</ele>
        <time>2025-05-27T10:03:43Z</time>
      </trkpt>
      <trkpt lat="45.68298" lon="5.30694">
        <ele>283.8</ele>
        <time>2025-05-27T10:03:44Z</time>
      </trkpt>
      <trkpt lat="45.68297" lon="5.30689">
        <ele>283.8</ele>
        <time>2025-05-27T10:03:45Z</time>
      </trkpt>
      <trkpt lat="45.68295" lon="5.30685">
        <ele>283.8</ele>
        <time>2025-05-27T10:03:46Z</time>
      </trkpt>
      <trkpt lat="45.68294" lon="5.30681">
        <ele>283.8</ele>
        <time>2025-05-27T10:03:47Z</time>
      </trkpt>
      <trkpt lat="45.68293" lon="5.30677">
        <ele>284.2</ele>
        <time>2025-05-27T10:03:48Z</time>
      </trkpt>
      <trkpt lat="45.68292" lon="5.30674">
        <ele>284.4</ele>
        <time>2025-05-27T10:03:49Z</time>
      </trkpt>
      <trkpt lat="45.68291" lon="5.30672">
        <ele>284.4</ele>
        <time>2025-05-27T10:03:50Z</time>
      </trkpt>
      <trkpt lat="45.68291" lon="5.30672">
        <ele>284.8</ele>
        <time>2025-05-27T10:03:51Z</time>
      </trkpt>
      <trkpt lat="45.68291" lon="5.30672">
        <ele>284.8</ele>
        <time>2025-05-27T10:03:52Z</time>
      </trkpt>
      <trkpt lat="45.68291" lon="5.3067">
        <ele>285</ele>
        <time>2025-05-27T10:04:38Z</time>
      </trkpt>
      <trkpt lat="45.68291" lon="5.30666">
        <ele>285.6</ele>
        <time>2025-05-27T10:04:39Z</time>
      </trkpt>
      <trkpt lat="45.68291" lon="5.30662">
        <ele>285.4</ele>
        <time>2025-05-27T10:04:40Z</time>
      </trkpt>
      <trkpt lat="45.6829" lon="5.30658">
        <ele>285.4</ele>
        <time>2025-05-27T10:04:41Z</time>
      </trkpt>
      <trkpt lat="45.68289" lon="5.30653">
        <ele>285</ele>
        <time>2025-05-27T10:04:42Z</time>
      </trkpt>
      <trkpt lat="45.68288" lon="5.30648">
        <ele>285</ele>
        <time>2025-05-27T10:04:43Z</time>
      </trkpt>
      <trkpt lat="45.68288" lon="5.30643">
        <ele>285</ele>
        <time>2025-05-27T10:04:44Z</time>
      </trkpt>
      <trkpt lat="45.68287" lon="5.30637">
        <ele>284.8</ele>
        <time>2025-05-27T10:04:45Z</time>
      </trkpt>
      <trkpt lat="45.68286" lon="5.30632">
        <ele>285</ele>
        <time>2025-05-27T10:04:46Z</time>
      </trkpt>
      <trkpt lat="45.68286" lon="5.30627">
        <ele>285</ele>
        <time>2025-05-27T10:04:47Z</time>
      </trkpt>
      <trkpt lat="45.68286" lon="5.30621">
        <ele>285</ele>
        <time>2025-05-27T10:04:48Z</time>
      </trkpt>
      <trkpt lat="45.68285" lon="5.30615">
        <ele>285.2</ele>
        <time>2025-05-27T10:04:49Z</time>
      </trkpt>
      <trkpt lat="45.68285" lon="5.3061">
        <ele>285.6</ele>
        <time>2025-05-27T10:04:50Z</time>
      </trkpt>
      <trkpt lat="45.68284" lon="5.30605">
        <ele>285.6</ele>
        <time>2025-05-27T10:04:51Z</time>
      </trkpt>
      <trkpt lat="45.68283" lon="5.30599">
        <ele>285.6</ele>
        <time>2025-05-27T10:04:52Z</time>
      </trkpt>
      <trkpt lat="45.68283" lon="5.30593">
        <ele>285.6</ele>
        <time>2025-05-27T10:04:53Z</time>
      </trkpt>
      <trkpt lat="45.68282" lon="5.30588">
        <ele>285.8</ele>
        <time>2025-05-27T10:04:54Z</time>
      </trkpt>
      <trkpt lat="45.68281" lon="5.30583">
        <ele>285.2</ele>
        <time>2025-05-27T10:04:55Z</time>
      </trkpt>
      <trkpt lat="45.68281" lon="5.30577">
        <ele>285.2</ele>
        <time>2025-05-27T10:04:56Z</time>
      </trkpt>
      <trkpt lat="45.6828" lon="5.30572">
        <ele>285.2</ele>
        <time>2025-05-27T10:04:57Z</time>
      </trkpt>
      <trkpt lat="45.68279" lon="5.30567">
        <ele>285.6</ele>
        <time>2025-05-27T10:04:58Z</time>
      </trkpt>
      <trkpt lat="45.68278" lon="5.30562">
        <ele>285.6</ele>
        <time>2025-05-27T10:04:59Z</time>
      </trkpt>
      <trkpt lat="45.68277" lon="5.30557">
        <ele>285.4</ele>
        <time>2025-05-27T10:05:00Z</time>
      </trkpt>
      <trkpt lat="45.68276" lon="5.30553">
        <ele>286</ele>
        <time>2025-05-27T10:05:01Z</time>
      </trkpt>
      <trkpt lat="45.68274" lon="5.30548">
        <ele>286.4</ele>
        <time>2025-05-27T10:05:02Z</time>
      </trkpt>
      <trkpt lat="45.68272" lon="5.30544">
        <ele>286.2</ele>
        <time>2025-05-27T10:05:03Z</time>
      </trkpt>
      <trkpt lat="45.6827" lon="5.3054">
        <ele>286.2</ele>
        <time>2025-05-27T10:05:04Z</time>
      </trkpt>
      <trkpt lat="45.68269" lon="5.30537">
        <ele>287</ele>
        <time>2025-05-27T10:05:05Z</time>
      </trkpt>
      <trkpt lat="45.68267" lon="5.30534">
        <ele>287</ele>
        <time>2025-05-27T10:05:06Z</time>
      </trkpt>
      <trkpt lat="45.68266" lon="5.30528">
        <ele>288</ele>
        <time>2025-05-27T10:05:07Z</time>
      </trkpt>
      <trkpt lat="45.68266" lon="5.30523">
        <ele>287.6</ele>
        <time>2025-05-27T10:05:08Z</time>
      </trkpt>
      <trkpt lat="45.68266" lon="5.30519">
        <ele>288.2</ele>
        <time>2025-05-27T10:05:09Z</time>
      </trkpt>
      <trkpt lat="45.68265" lon="5.30513">
        <ele>288.2</ele>
        <time>2025-05-27T10:05:10Z</time>
      </trkpt>
      <trkpt lat="45.68266" lon="5.30508">
        <ele>287.8</ele>
        <time>2025-05-27T10:05:11Z</time>
      </trkpt>
      <trkpt lat="45.68266" lon="5.30503">
        <ele>288.2</ele>
        <time>2025-05-27T10:05:12Z</time>
      </trkpt>
      <trkpt lat="45.68268" lon="5.30498">
        <ele>288.4</ele>
        <time>2025-05-27T10:05:13Z</time>
      </trkpt>
      <trkpt lat="45.68269" lon="5.30493">
        <ele>289</ele>
        <time>2025-05-27T10:05:14Z</time>
      </trkpt>
      <trkpt lat="45.6827" lon="5.30488">
        <ele>289</ele>
        <time>2025-05-27T10:05:15Z</time>
      </trkpt>
      <trkpt lat="45.6827" lon="5.30485">
        <ele>289.2</ele>
        <time>2025-05-27T10:05:16Z</time>
      </trkpt>
      <trkpt lat="45.6827" lon="5.30481">
        <ele>289</ele>
        <time>2025-05-27T10:05:17Z</time>
      </trkpt>
      <trkpt lat="45.6827" lon="5.30476">
        <ele>288.4</ele>
        <time>2025-05-27T10:05:18Z</time>
      </trkpt>
      <trkpt lat="45.68271" lon="5.30472">
        <ele>288.4</ele>
        <time>2025-05-27T10:05:19Z</time>
      </trkpt>
      <trkpt lat="45.68271" lon="5.30472">
        <ele>288.8</ele>
        <time>2025-05-27T10:05:20Z</time>
      </trkpt>
      <trkpt lat="45.68271" lon="5.30472">
        <ele>288.8</ele>
        <time>2025-05-27T10:05:21Z</time>
      </trkpt>
      <trkpt lat="45.68273" lon="5.30457">
        <ele>290.6</ele>
        <time>2025-05-27T10:05:23Z</time>
      </trkpt>
      <trkpt lat="45.68274" lon="5.30453">
        <ele>291</ele>
        <time>2025-05-27T10:05:24Z</time>
      </trkpt>
      <trkpt lat="45.68274" lon="5.3045">
        <ele>291.4</ele>
        <time>2025-05-27T10:05:25Z</time>
      </trkpt>
      <trkpt lat="45.68274" lon="5.30446">
        <ele>291.8</ele>
        <time>2025-05-27T10:05:26Z</time>
      </trkpt>
      <trkpt lat="45.68274" lon="5.30442">
        <ele>291.2</ele>
        <time>2025-05-27T10:05:27Z</time>
      </trkpt>
      <trkpt lat="45.68274" lon="5.30439">
        <ele>290.6</ele>
        <time>2025-05-27T10:05:28Z</time>
      </trkpt>
      <trkpt lat="45.68274" lon="5.30435">
        <ele>290.8</ele>
        <time>2025-05-27T10:05:29Z</time>
      </trkpt>
      <trkpt lat="45.68274" lon="5.30432">
        <ele>290.8</ele>
        <time>2025-05-27T10:05:30Z</time>
      </trkpt>
      <trkpt lat="45.68274" lon="5.30428">
        <ele>291.2</ele>
        <time>2025-05-27T10:05:31Z</time>
      </trkpt>
      <trkpt lat="45.68275" lon="5.30425">
        <ele>291.2</ele>
        <time>2025-05-27T10:05:32Z</time>
      </trkpt>
      <trkpt lat="45.68276" lon="5.30422">
        <ele>291.2</ele>
        <time>2025-05-27T10:05:33Z</time>
      </trkpt>
      <trkpt lat="45.68277" lon="5.30418">
        <ele>291.8</ele>
        <time>2025-05-27T10:05:34Z</time>
      </trkpt>
      <trkpt lat="45.68277" lon="5.30415">
        <ele>291.8</ele>
        <time>2025-05-27T10:05:35Z</time>
      </trkpt>
      <trkpt lat="45.68278" lon="5.30411">
        <ele>291.8</ele>
        <time>2025-05-27T10:05:36Z</time>
      </trkpt>
      <trkpt lat="45.68278" lon="5.30408">
        <ele>292</ele>
        <time>2025-05-27T10:05:37Z</time>
      </trkpt>
      <trkpt lat="45.68278" lon="5.30404">
        <ele>292</ele>
        <time>2025-05-27T10:05:38Z</time>
      </trkpt>
      <trkpt lat="45.68278" lon="5.30401">
        <ele>292</ele>
        <time>2025-05-27T10:05:39Z</time>
      </trkpt>
      <trkpt lat="45.68278" lon="5.30397">
        <ele>292</ele>
        <time>2025-05-27T10:05:40Z</time>
      </trkpt>
      <trkpt lat="45.68279" lon="5.30393">
        <ele>292</ele>
        <time>2025-05-27T10:05:41Z</time>
      </trkpt>
      <trkpt lat="45.68278" lon="5.30389">
        <ele>292</ele>
        <time>2025-05-27T10:05:42Z</time>
      </trkpt>
      <trkpt lat="45.68278" lon="5.30385">
        <ele>292.4</ele>
        <time>2025-05-27T10:05:43Z</time>
      </trkpt>
      <trkpt lat="45.68278" lon="5.3038">
        <ele>292.4</ele>
        <time>2025-05-27T10:05:44Z</time>
      </trkpt>
      <trkpt lat="45.68278" lon="5.30376">
        <ele>292.4</ele>
        <time>2025-05-27T10:05:45Z</time>
      </trkpt>
      <trkpt lat="45.68278" lon="5.30372">
        <ele>292.8</ele>
        <time>2025-05-27T10:05:46Z</time>
      </trkpt>
      <trkpt lat="45.68278" lon="5.30368">
        <ele>292.8</ele>
        <time>2025-05-27T10:05:47Z</time>
      </trkpt>
      <trkpt lat="45.68277" lon="5.30363">
        <ele>292.8</ele>
        <time>2025-05-27T10:05:48Z</time>
      </trkpt>
      <trkpt lat="45.68277" lon="5.30359">
        <ele>292.6</ele>
        <time>2025-05-27T10:05:49Z</time>
      </trkpt>
      <trkpt lat="45.68277" lon="5.30355">
        <ele>292.6</ele>
        <time>2025-05-27T10:05:50Z</time>
      </trkpt>
      <trkpt lat="45.68277" lon="5.30351">
        <ele>292.6</ele>
        <time>2025-05-27T10:05:51Z</time>
      </trkpt>
      <trkpt lat="45.68277" lon="5.30347">
        <ele>292.6</ele>
        <time>2025-05-27T10:05:52Z</time>
      </trkpt>
      <trkpt lat="45.68277" lon="5.30343">
        <ele>293.2</ele>
        <time>2025-05-27T10:05:53Z</time>
      </trkpt>
      <trkpt lat="45.68276" lon="5.3034">
        <ele>292.8</ele>
        <time>2025-05-27T10:05:54Z</time>
      </trkpt>
      <trkpt lat="45.68276" lon="5.30335">
        <ele>292.8</ele>
        <time>2025-05-27T10:05:55Z</time>
      </trkpt>
      <trkpt lat="45.68276" lon="5.30331">
        <ele>293.4</ele>
        <time>2025-05-27T10:05:56Z</time>
      </trkpt>
      <trkpt lat="45.68276" lon="5.30327">
        <ele>293.4</ele>
        <time>2025-05-27T10:05:57Z</time>
      </trkpt>
      <trkpt lat="45.68275" lon="5.30323">
        <ele>293.4</ele>
        <time>2025-05-27T10:05:58Z</time>
      </trkpt>
      <trkpt lat="45.68275" lon="5.30318">
        <ele>293.6</ele>
        <time>2025-05-27T10:05:59Z</time>
      </trkpt>
      <trkpt lat="45.68275" lon="5.30314">
        <ele>293.6</ele>
        <time>2025-05-27T10:06:00Z</time>
      </trkpt>
      <trkpt lat="45.68274" lon="5.30309">
        <ele>293.6</ele>
        <time>2025-05-27T10:06:01Z</time>
      </trkpt>
      <trkpt lat="45.68274" lon="5.30305">
        <ele>293.6</ele>
        <time>2025-05-27T10:06:02Z</time>
      </trkpt>
      <trkpt lat="45.68274" lon="5.303">
        <ele>293.8</ele>
        <time>2025-05-27T10:06:03Z</time>
      </trkpt>
      <trkpt lat="45.68274" lon="5.30296">
        <ele>294</ele>
        <time>2025-05-27T10:06:04Z</time>
      </trkpt>
      <trkpt lat="45.68273" lon="5.30292">
        <ele>294</ele>
        <time>2025-05-27T10:06:05Z</time>
      </trkpt>
      <trkpt lat="45.68273" lon="5.30287">
        <ele>294.4</ele>
        <time>2025-05-27T10:06:06Z</time>
      </trkpt>
      <trkpt lat="45.68273" lon="5.30283">
        <ele>294.4</ele>
        <time>2025-05-27T10:06:07Z</time>
      </trkpt>
      <trkpt lat="45.68273" lon="5.30279">
        <ele>294.4</ele>
        <time>2025-05-27T10:06:08Z</time>
      </trkpt>
      <trkpt lat="45.68272" lon="5.30274">
        <ele>294.4</ele>
        <time>2025-05-27T10:06:09Z</time>
      </trkpt>
      <trkpt lat="45.68272" lon="5.3027">
        <ele>294.2</ele>
        <time>2025-05-27T10:06:10Z</time>
      </trkpt>
      <trkpt lat="45.68272" lon="5.30266">
        <ele>294.6</ele>
        <time>2025-05-27T10:06:11Z</time>
      </trkpt>
      <trkpt lat="45.68272" lon="5.30262">
        <ele>294.6</ele>
        <time>2025-05-27T10:06:12Z</time>
      </trkpt>
      <trkpt lat="45.68271" lon="5.30257">
        <ele>295</ele>
        <time>2025-05-27T10:06:13Z</time>
      </trkpt>
      <trkpt lat="45.68271" lon="5.30253">
        <ele>295.2</ele>
        <time>2025-05-27T10:06:14Z</time>
      </trkpt>
      <trkpt lat="45.68271" lon="5.30249">
        <ele>295.2</ele>
        <time>2025-05-27T10:06:15Z</time>
      </trkpt>
      <trkpt lat="45.68271" lon="5.30245">
        <ele>294.8</ele>
        <time>2025-05-27T10:06:16Z</time>
      </trkpt>
      <trkpt lat="45.68271" lon="5.30241">
        <ele>294.8</ele>
        <time>2025-05-27T10:06:17Z</time>
      </trkpt>
      <trkpt lat="45.68271" lon="5.30237">
        <ele>294.8</ele>
        <time>2025-05-27T10:06:18Z</time>
      </trkpt>
      <trkpt lat="45.68272" lon="5.30233">
        <ele>295.2</ele>
        <time>2025-05-27T10:06:19Z</time>
      </trkpt>
      <trkpt lat="45.68272" lon="5.30224">
        <ele>295.6</ele>
        <time>2025-05-27T10:06:20Z</time>
      </trkpt>
      <trkpt lat="45.68272" lon="5.3022">
        <ele>296.2</ele>
        <time>2025-05-27T10:06:21Z</time>
      </trkpt>
      <trkpt lat="45.68272" lon="5.30215">
        <ele>296.2</ele>
        <time>2025-05-27T10:06:22Z</time>
      </trkpt>
      <trkpt lat="45.68272" lon="5.30211">
        <ele>296.2</ele>
        <time>2025-05-27T10:06:23Z</time>
      </trkpt>
      <trkpt lat="45.68273" lon="5.30206">
        <ele>296.2</ele>
        <time>2025-05-27T10:06:24Z</time>
      </trkpt>
      <trkpt lat="45.68273" lon="5.30202">
        <ele>296.4</ele>
        <time>2025-05-27T10:06:25Z</time>
      </trkpt>
      <trkpt lat="45.68273" lon="5.30197">
        <ele>296.4</ele>
        <time>2025-05-27T10:06:26Z</time>
      </trkpt>
      <trkpt lat="45.68274" lon="5.30194">
        <ele>296.4</ele>
        <time>2025-05-27T10:06:27Z</time>
      </trkpt>
      <trkpt lat="45.68274" lon="5.30191">
        <ele>295.8</ele>
        <time>2025-05-27T10:06:28Z</time>
      </trkpt>
      <trkpt lat="45.68275" lon="5.30189">
        <ele>296</ele>
        <time>2025-05-27T10:06:29Z</time>
      </trkpt>
      <trkpt lat="45.68275" lon="5.30188">
        <ele>296</ele>
        <time>2025-05-27T10:06:30Z</time>
      </trkpt>
      <trkpt lat="45.68275" lon="5.30187">
        <ele>296.4</ele>
        <time>2025-05-27T10:06:31Z</time>
      </trkpt>
      <trkpt lat="45.68275" lon="5.30187">
        <ele>296.4</ele>
        <time>2025-05-27T10:06:32Z</time>
      </trkpt>
      <trkpt lat="45.68275" lon="5.30187">
        <ele>295.8</ele>
        <time>2025-05-27T10:06:33Z</time>
      </trkpt>
      <trkpt lat="45.68275" lon="5.30186">
        <ele>295.6</ele>
        <time>2025-05-27T10:06:34Z</time>
      </trkpt>
      <trkpt lat="45.68275" lon="5.30185">
        <ele>295.2</ele>
        <time>2025-05-27T10:06:35Z</time>
      </trkpt>
      <trkpt lat="45.68276" lon="5.30184">
        <ele>295.2</ele>
        <time>2025-05-27T10:06:36Z</time>
      </trkpt>
      <trkpt lat="45.68277" lon="5.30183">
        <ele>295.2</ele>
        <time>2025-05-27T10:06:37Z</time>
      </trkpt>
      <trkpt lat="45.68277" lon="5.30183">
        <ele>295.4</ele>
        <time>2025-05-27T10:06:38Z</time>
      </trkpt>
      <trkpt lat="45.68278" lon="5.30183">
        <ele>295.4</ele>
        <time>2025-05-27T10:06:39Z</time>
      </trkpt>
      <trkpt lat="45.68278" lon="5.30183">
        <ele>295.4</ele>
        <time>2025-05-27T10:06:40Z</time>
      </trkpt>
      <trkpt lat="45.68278" lon="5.30183">
        <ele>295.4</ele>
        <time>2025-05-27T10:06:41Z</time>
      </trkpt>
      <trkpt lat="45.68277" lon="5.30181">
        <ele>296.6</ele>
        <time>2025-05-27T10:08:09Z</time>
      </trkpt>
      <trkpt lat="45.68276" lon="5.30181">
        <ele>296.6</ele>
        <time>2025-05-27T10:08:10Z</time>
      </trkpt>
      <trkpt lat="45.68276" lon="5.3018">
        <ele>296.2</ele>
        <time>2025-05-27T10:08:11Z</time>
      </trkpt>
      <trkpt lat="45.68275" lon="5.3018">
        <ele>296.2</ele>
        <time>2025-05-27T10:08:12Z</time>
      </trkpt>
      <trkpt lat="45.68275" lon="5.30179">
        <ele>296</ele>
        <time>2025-05-27T10:08:13Z</time>
      </trkpt>
      <trkpt lat="45.68275" lon="5.30178">
        <ele>295.8</ele>
        <time>2025-05-27T10:08:14Z</time>
      </trkpt>
      <trkpt lat="45.68275" lon="5.30177">
        <ele>295.4</ele>
        <time>2025-05-27T10:08:15Z</time>
      </trkpt>
      <trkpt lat="45.68275" lon="5.30175">
        <ele>295.4</ele>
        <time>2025-05-27T10:08:16Z</time>
      </trkpt>
      <trkpt lat="45.68276" lon="5.30172">
        <ele>295.4</ele>
        <time>2025-05-27T10:08:17Z</time>
      </trkpt>
      <trkpt lat="45.68277" lon="5.30168">
        <ele>295.8</ele>
        <time>2025-05-27T10:08:18Z</time>
      </trkpt>
      <trkpt lat="45.68278" lon="5.30164">
        <ele>295.4</ele>
        <time>2025-05-27T10:08:19Z</time>
      </trkpt>
      <trkpt lat="45.68279" lon="5.30159">
        <ele>295</ele>
        <time>2025-05-27T10:08:20Z</time>
      </trkpt>
      <trkpt lat="45.6828" lon="5.30155">
        <ele>295.6</ele>
        <time>2025-05-27T10:08:21Z</time>
      </trkpt>
      <trkpt lat="45.68281" lon="5.30151">
        <ele>295.6</ele>
        <time>2025-05-27T10:08:22Z</time>
      </trkpt>
      <trkpt lat="45.68282" lon="5.30146">
        <ele>295.2</ele>
        <time>2025-05-27T10:08:23Z</time>
      </trkpt>
      <trkpt lat="45.68283" lon="5.30141">
        <ele>295.2</ele>
        <time>2025-05-27T10:08:24Z</time>
      </trkpt>
      <trkpt lat="45.68284" lon="5.30136">
        <ele>294.4</ele>
        <time>2025-05-27T10:08:25Z</time>
      </trkpt>
      <trkpt lat="45.68286" lon="5.30131">
        <ele>294.6</ele>
        <time>2025-05-27T10:08:26Z</time>
      </trkpt>
      <trkpt lat="45.68287" lon="5.30126">
        <ele>294.6</ele>
        <time>2025-05-27T10:08:27Z</time>
      </trkpt>
      <trkpt lat="45.68288" lon="5.3012">
        <ele>294.6</ele>
        <time>2025-05-27T10:08:28Z</time>
      </trkpt>
      <trkpt lat="45.68289" lon="5.30115">
        <ele>294.6</ele>
        <time>2025-05-27T10:08:29Z</time>
      </trkpt>
      <trkpt lat="45.6829" lon="5.30111">
        <ele>294.6</ele>
        <time>2025-05-27T10:08:30Z</time>
      </trkpt>
      <trkpt lat="45.68292" lon="5.30106">
        <ele>294.6</ele>
        <time>2025-05-27T10:08:31Z</time>
      </trkpt>
      <trkpt lat="45.68293" lon="5.30102">
        <ele>295.4</ele>
        <time>2025-05-27T10:08:32Z</time>
      </trkpt>
      <trkpt lat="45.68294" lon="5.30097">
        <ele>295.4</ele>
        <time>2025-05-27T10:08:33Z</time>
      </trkpt>
      <trkpt lat="45.68296" lon="5.30093">
        <ele>295.6</ele>
        <time>2025-05-27T10:08:34Z</time>
      </trkpt>
      <trkpt lat="45.68297" lon="5.30089">
        <ele>295.6</ele>
        <time>2025-05-27T10:08:35Z</time>
      </trkpt>
      <trkpt lat="45.68298" lon="5.30086">
        <ele>296</ele>
        <time>2025-05-27T10:08:36Z</time>
      </trkpt>
      <trkpt lat="45.68299" lon="5.30082">
        <ele>296.2</ele>
        <time>2025-05-27T10:08:37Z</time>
      </trkpt>
      <trkpt lat="45.68301" lon="5.30076">
        <ele>296.6</ele>
        <time>2025-05-27T10:08:38Z</time>
      </trkpt>
      <trkpt lat="45.68301" lon="5.30071">
        <ele>297</ele>
        <time>2025-05-27T10:08:39Z</time>
      </trkpt>
      <trkpt lat="45.68302" lon="5.30066">
        <ele>297</ele>
        <time>2025-05-27T10:08:40Z</time>
      </trkpt>
      <trkpt lat="45.68303" lon="5.3006">
        <ele>295.4</ele>
        <time>2025-05-27T10:08:41Z</time>
      </trkpt>
      <trkpt lat="45.68304" lon="5.30054">
        <ele>295.4</ele>
        <time>2025-05-27T10:08:42Z</time>
      </trkpt>
      <trkpt lat="45.68303" lon="5.30048">
        <ele>296.2</ele>
        <time>2025-05-27T10:08:43Z</time>
      </trkpt>
      <trkpt lat="45.68303" lon="5.30043">
        <ele>296.2</ele>
        <time>2025-05-27T10:08:44Z</time>
      </trkpt>
      <trkpt lat="45.68303" lon="5.30037">
        <ele>295.8</ele>
        <time>2025-05-27T10:08:45Z</time>
      </trkpt>
      <trkpt lat="45.68302" lon="5.30031">
        <ele>295.4</ele>
        <time>2025-05-27T10:08:46Z</time>
      </trkpt>
      <trkpt lat="45.68302" lon="5.30026">
        <ele>295.8</ele>
        <time>2025-05-27T10:08:47Z</time>
      </trkpt>
      <trkpt lat="45.68302" lon="5.30021">
        <ele>295.8</ele>
        <time>2025-05-27T10:08:48Z</time>
      </trkpt>
      <trkpt lat="45.68301" lon="5.30015">
        <ele>295.8</ele>
        <time>2025-05-27T10:08:49Z</time>
      </trkpt>
      <trkpt lat="45.68301" lon="5.3001">
        <ele>296</ele>
        <time>2025-05-27T10:08:50Z</time>
      </trkpt>
      <trkpt lat="45.683" lon="5.30005">
        <ele>296.8</ele>
        <time>2025-05-27T10:08:51Z</time>
      </trkpt>
      <trkpt lat="45.683" lon="5.3">
        <ele>296.8</ele>
        <time>2025-05-27T10:08:52Z</time>
      </trkpt>
      <trkpt lat="45.68301" lon="5.29994">
        <ele>296.8</ele>
        <time>2025-05-27T10:08:53Z</time>
      </trkpt>
      <trkpt lat="45.68301" lon="5.29989">
        <ele>297.2</ele>
        <time>2025-05-27T10:08:54Z</time>
      </trkpt>
      <trkpt lat="45.68301" lon="5.29983">
        <ele>297</ele>
        <time>2025-05-27T10:08:55Z</time>
      </trkpt>
      <trkpt lat="45.68301" lon="5.29979">
        <ele>297.6</ele>
        <time>2025-05-27T10:08:56Z</time>
      </trkpt>
      <trkpt lat="45.68302" lon="5.29974">
        <ele>297.6</ele>
        <time>2025-05-27T10:08:57Z</time>
      </trkpt>
      <trkpt lat="45.68302" lon="5.29969">
        <ele>297.6</ele>
        <time>2025-05-27T10:08:58Z</time>
      </trkpt>
      <trkpt lat="45.68303" lon="5.29963">
        <ele>298</ele>
        <time>2025-05-27T10:08:59Z</time>
      </trkpt>
      <trkpt lat="45.68304" lon="5.29958">
        <ele>297.6</ele>
        <time>2025-05-27T10:09:00Z</time>
      </trkpt>
      <trkpt lat="45.68305" lon="5.29953">
        <ele>297.6</ele>
        <time>2025-05-27T10:09:01Z</time>
      </trkpt>
      <trkpt lat="45.68306" lon="5.29947">
        <ele>297.6</ele>
        <time>2025-05-27T10:09:02Z</time>
      </trkpt>
      <trkpt lat="45.68307" lon="5.29942">
        <ele>297.6</ele>
        <time>2025-05-27T10:09:03Z</time>
      </trkpt>
      <trkpt lat="45.68307" lon="5.29936">
        <ele>297.6</ele>
        <time>2025-05-27T10:09:04Z</time>
      </trkpt>
      <trkpt lat="45.68308" lon="5.29931">
        <ele>297.6</ele>
        <time>2025-05-27T10:09:05Z</time>
      </trkpt>
      <trkpt lat="45.68309" lon="5.29925">
        <ele>297.8</ele>
        <time>2025-05-27T10:09:06Z</time>
      </trkpt>
      <trkpt lat="45.68309" lon="5.29919">
        <ele>297.8</ele>
        <time>2025-05-27T10:09:07Z</time>
      </trkpt>
      <trkpt lat="45.68311" lon="5.29913">
        <ele>297.8</ele>
        <time>2025-05-27T10:09:08Z</time>
      </trkpt>
      <trkpt lat="45.68311" lon="5.29906">
        <ele>297.8</ele>
        <time>2025-05-27T10:09:09Z</time>
      </trkpt>
      <trkpt lat="45.68312" lon="5.29899">
        <ele>298</ele>
        <time>2025-05-27T10:09:10Z</time>
      </trkpt>
      <trkpt lat="45.68311" lon="5.29893">
        <ele>298</ele>
        <time>2025-05-27T10:09:11Z</time>
      </trkpt>
      <trkpt lat="45.68311" lon="5.29886">
        <ele>298.4</ele>
        <time>2025-05-27T10:09:12Z</time>
      </trkpt>
      <trkpt lat="45.6831" lon="5.2988">
        <ele>299</ele>
        <time>2025-05-27T10:09:13Z</time>
      </trkpt>
      <trkpt lat="45.68308" lon="5.29872">
        <ele>298.6</ele>
        <time>2025-05-27T10:09:14Z</time>
      </trkpt>
      <trkpt lat="45.68309" lon="5.29863">
        <ele>298.6</ele>
        <time>2025-05-27T10:09:15Z</time>
      </trkpt>
      <trkpt lat="45.68308" lon="5.29857">
        <ele>298.4</ele>
        <time>2025-05-27T10:09:16Z</time>
      </trkpt>
      <trkpt lat="45.68308" lon="5.2985">
        <ele>298.4</ele>
        <time>2025-05-27T10:09:17Z</time>
      </trkpt>
      <trkpt lat="45.68309" lon="5.29844">
        <ele>298.2</ele>
        <time>2025-05-27T10:09:18Z</time>
      </trkpt>
      <trkpt lat="45.6831" lon="5.29838">
        <ele>298.2</ele>
        <time>2025-05-27T10:09:19Z</time>
      </trkpt>
      <trkpt lat="45.68312" lon="5.29833">
        <ele>298.2</ele>
        <time>2025-05-27T10:09:20Z</time>
      </trkpt>
      <trkpt lat="45.68314" lon="5.29827">
        <ele>298.2</ele>
        <time>2025-05-27T10:09:21Z</time>
      </trkpt>
      <trkpt lat="45.68317" lon="5.29822">
        <ele>298.4</ele>
        <time>2025-05-27T10:09:22Z</time>
      </trkpt>
      <trkpt lat="45.68318" lon="5.29819">
        <ele>298.2</ele>
        <time>2025-05-27T10:09:23Z</time>
      </trkpt>
      <trkpt lat="45.68318" lon="5.29813">
        <ele>298.6</ele>
        <time>2025-05-27T10:09:24Z</time>
      </trkpt>
      <trkpt lat="45.68319" lon="5.29805">
        <ele>298.6</ele>
        <time>2025-05-27T10:09:25Z</time>
      </trkpt>
      <trkpt lat="45.68321" lon="5.29801">
        <ele>299</ele>
        <time>2025-05-27T10:09:26Z</time>
      </trkpt>
      <trkpt lat="45.68321" lon="5.29796">
        <ele>299.2</ele>
        <time>2025-05-27T10:09:27Z</time>
      </trkpt>
      <trkpt lat="45.68321" lon="5.29792">
        <ele>299.2</ele>
        <time>2025-05-27T10:09:28Z</time>
      </trkpt>
      <trkpt lat="45.68322" lon="5.29787">
        <ele>299.2</ele>
        <time>2025-05-27T10:09:29Z</time>
      </trkpt>
      <trkpt lat="45.68323" lon="5.29781">
        <ele>299.2</ele>
        <time>2025-05-27T10:09:30Z</time>
      </trkpt>
      <trkpt lat="45.68324" lon="5.29772">
        <ele>298.8</ele>
        <time>2025-05-27T10:09:31Z</time>
      </trkpt>
      <trkpt lat="45.68325" lon="5.29767">
        <ele>298.8</ele>
        <time>2025-05-27T10:09:32Z</time>
      </trkpt>
      <trkpt lat="45.68325" lon="5.2976">
        <ele>298.8</ele>
        <time>2025-05-27T10:09:33Z</time>
      </trkpt>
      <trkpt lat="45.68326" lon="5.29753">
        <ele>299</ele>
        <time>2025-05-27T10:09:34Z</time>
      </trkpt>
      <trkpt lat="45.68325" lon="5.29746">
        <ele>299.4</ele>
        <time>2025-05-27T10:09:35Z</time>
      </trkpt>
      <trkpt lat="45.68325" lon="5.2974">
        <ele>299.4</ele>
        <time>2025-05-27T10:09:36Z</time>
      </trkpt>
      <trkpt lat="45.68326" lon="5.29733">
        <ele>299.8</ele>
        <time>2025-05-27T10:09:37Z</time>
      </trkpt>
      <trkpt lat="45.68327" lon="5.29727">
        <ele>300.6</ele>
        <time>2025-05-27T10:09:38Z</time>
      </trkpt>
      <trkpt lat="45.68326" lon="5.2972">
        <ele>300</ele>
        <time>2025-05-27T10:09:39Z</time>
      </trkpt>
      <trkpt lat="45.68325" lon="5.29714">
        <ele>300</ele>
        <time>2025-05-27T10:09:40Z</time>
      </trkpt>
      <trkpt lat="45.68324" lon="5.29708">
        <ele>299.8</ele>
        <time>2025-05-27T10:09:41Z</time>
      </trkpt>
      <trkpt lat="45.68322" lon="5.29701">
        <ele>300.2</ele>
        <time>2025-05-27T10:09:42Z</time>
      </trkpt>
      <trkpt lat="45.68322" lon="5.29696">
        <ele>300.2</ele>
        <time>2025-05-27T10:09:43Z</time>
      </trkpt>
      <trkpt lat="45.6832" lon="5.29689">
        <ele>299.4</ele>
        <time>2025-05-27T10:09:44Z</time>
      </trkpt>
      <trkpt lat="45.68321" lon="5.29685">
        <ele>299.2</ele>
        <time>2025-05-27T10:09:45Z</time>
      </trkpt>
      <trkpt lat="45.6832" lon="5.29679">
        <ele>298.6</ele>
        <time>2025-05-27T10:09:46Z</time>
      </trkpt>
      <trkpt lat="45.6832" lon="5.29672">
        <ele>298.6</ele>
        <time>2025-05-27T10:09:47Z</time>
      </trkpt>
      <trkpt lat="45.6832" lon="5.29665">
        <ele>298.6</ele>
        <time>2025-05-27T10:09:48Z</time>
      </trkpt>
      <trkpt lat="45.6832" lon="5.29659">
        <ele>298.4</ele>
        <time>2025-05-27T10:09:49Z</time>
      </trkpt>
      <trkpt lat="45.68321" lon="5.29651">
        <ele>298.4</ele>
        <time>2025-05-27T10:09:50Z</time>
      </trkpt>
      <trkpt lat="45.68322" lon="5.29644">
        <ele>298.4</ele>
        <time>2025-05-27T10:09:51Z</time>
      </trkpt>
      <trkpt lat="45.68324" lon="5.29636">
        <ele>298.4</ele>
        <time>2025-05-27T10:09:52Z</time>
      </trkpt>
      <trkpt lat="45.68324" lon="5.29626">
        <ele>297.2</ele>
        <time>2025-05-27T10:09:53Z</time>
      </trkpt>
      <trkpt lat="45.68327" lon="5.2962">
        <ele>297.6</ele>
        <time>2025-05-27T10:09:54Z</time>
      </trkpt>
      <trkpt lat="45.68329" lon="5.29614">
        <ele>297.6</ele>
        <time>2025-05-27T10:09:55Z</time>
      </trkpt>
      <trkpt lat="45.68331" lon="5.29606">
        <ele>297.6</ele>
        <time>2025-05-27T10:09:56Z</time>
      </trkpt>
      <trkpt lat="45.68332" lon="5.29598">
        <ele>297.6</ele>
        <time>2025-05-27T10:09:57Z</time>
      </trkpt>
      <trkpt lat="45.68333" lon="5.29592">
        <ele>298</ele>
        <time>2025-05-27T10:09:58Z</time>
      </trkpt>
      <trkpt lat="45.68335" lon="5.29586">
        <ele>298</ele>
        <time>2025-05-27T10:09:59Z</time>
      </trkpt>
      <trkpt lat="45.68337" lon="5.2958">
        <ele>298</ele>
        <time>2025-05-27T10:10:00Z</time>
      </trkpt>
      <trkpt lat="45.6834" lon="5.29573">
        <ele>298</ele>
        <time>2025-05-27T10:10:01Z</time>
      </trkpt>
      <trkpt lat="45.68342" lon="5.29567">
        <ele>299</ele>
        <time>2025-05-27T10:10:02Z</time>
      </trkpt>
      <trkpt lat="45.68344" lon="5.29561">
        <ele>299</ele>
        <time>2025-05-27T10:10:03Z</time>
      </trkpt>
      <trkpt lat="45.68348" lon="5.29557">
        <ele>297.6</ele>
        <time>2025-05-27T10:10:04Z</time>
      </trkpt>
      <trkpt lat="45.68351" lon="5.29549">
        <ele>297</ele>
        <time>2025-05-27T10:10:05Z</time>
      </trkpt>
      <trkpt lat="45.68355" lon="5.29544">
        <ele>296.6</ele>
        <time>2025-05-27T10:10:06Z</time>
      </trkpt>
      <trkpt lat="45.68357" lon="5.29536">
        <ele>296.6</ele>
        <time>2025-05-27T10:10:07Z</time>
      </trkpt>
      <trkpt lat="45.68361" lon="5.29529">
        <ele>296.6</ele>
        <time>2025-05-27T10:10:08Z</time>
      </trkpt>
      <trkpt lat="45.68364" lon="5.29522">
        <ele>295.8</ele>
        <time>2025-05-27T10:10:09Z</time>
      </trkpt>
      <trkpt lat="45.68366" lon="5.29514">
        <ele>296.2</ele>
        <time>2025-05-27T10:10:10Z</time>
      </trkpt>
      <trkpt lat="45.6837" lon="5.29507">
        <ele>294.6</ele>
        <time>2025-05-27T10:10:11Z</time>
      </trkpt>
      <trkpt lat="45.68374" lon="5.29502">
        <ele>294.6</ele>
        <time>2025-05-27T10:10:12Z</time>
      </trkpt>
      <trkpt lat="45.68377" lon="5.29494">
        <ele>294.2</ele>
        <time>2025-05-27T10:10:13Z</time>
      </trkpt>
      <trkpt lat="45.68379" lon="5.29491">
        <ele>295.6</ele>
        <time>2025-05-27T10:10:14Z</time>
      </trkpt>
      <trkpt lat="45.68383" lon="5.29485">
        <ele>294</ele>
        <time>2025-05-27T10:10:15Z</time>
      </trkpt>
      <trkpt lat="45.68388" lon="5.29482">
        <ele>293</ele>
        <time>2025-05-27T10:10:16Z</time>
      </trkpt>
      <trkpt lat="45.68393" lon="5.29476">
        <ele>292.4</ele>
        <time>2025-05-27T10:10:17Z</time>
      </trkpt>
      <trkpt lat="45.68397" lon="5.2947">
        <ele>292</ele>
        <time>2025-05-27T10:10:18Z</time>
      </trkpt>
      <trkpt lat="45.68401" lon="5.29461">
        <ele>291</ele>
        <time>2025-05-27T10:10:19Z</time>
      </trkpt>
      <trkpt lat="45.68407" lon="5.29452">
        <ele>291.6</ele>
        <time>2025-05-27T10:10:20Z</time>
      </trkpt>
      <trkpt lat="45.68409" lon="5.29443">
        <ele>291.6</ele>
        <time>2025-05-27T10:10:21Z</time>
      </trkpt>
      <trkpt lat="45.68412" lon="5.29437">
        <ele>291.6</ele>
        <time>2025-05-27T10:10:22Z</time>
      </trkpt>
      <trkpt lat="45.68415" lon="5.29431">
        <ele>290.4</ele>
        <time>2025-05-27T10:10:23Z</time>
      </trkpt>
      <trkpt lat="45.68419" lon="5.29423">
        <ele>290.4</ele>
        <time>2025-05-27T10:10:24Z</time>
      </trkpt>
      <trkpt lat="45.68422" lon="5.29417">
        <ele>290</ele>
        <time>2025-05-27T10:10:25Z</time>
      </trkpt>
      <trkpt lat="45.68425" lon="5.29411">
        <ele>289.6</ele>
        <time>2025-05-27T10:10:26Z</time>
      </trkpt>
      <trkpt lat="45.68427" lon="5.2941">
        <ele>289.2</ele>
        <time>2025-05-27T10:10:27Z</time>
      </trkpt>
      <trkpt lat="45.68428" lon="5.29408">
        <ele>289</ele>
        <time>2025-05-27T10:10:28Z</time>
      </trkpt>
      <trkpt lat="45.68428" lon="5.29404">
        <ele>288.6</ele>
        <time>2025-05-27T10:10:29Z</time>
      </trkpt>
      <trkpt lat="45.68429" lon="5.29401">
        <ele>289</ele>
        <time>2025-05-27T10:10:30Z</time>
      </trkpt>
      <trkpt lat="45.6843" lon="5.29396">
        <ele>288.8</ele>
        <time>2025-05-27T10:10:31Z</time>
      </trkpt>
      <trkpt lat="45.68431" lon="5.29393">
        <ele>288.2</ele>
        <time>2025-05-27T10:10:32Z</time>
      </trkpt>
      <trkpt lat="45.68432" lon="5.2939">
        <ele>287.8</ele>
        <time>2025-05-27T10:10:33Z</time>
      </trkpt>
      <trkpt lat="45.68433" lon="5.2939">
        <ele>287.2</ele>
        <time>2025-05-27T10:10:34Z</time>
      </trkpt>
      <trkpt lat="45.68434" lon="5.29386">
        <ele>287</ele>
        <time>2025-05-27T10:10:35Z</time>
      </trkpt>
      <trkpt lat="45.68434" lon="5.29383">
        <ele>287</ele>
        <time>2025-05-27T10:10:36Z</time>
      </trkpt>
      <trkpt lat="45.68435" lon="5.29381">
        <ele>286.2</ele>
        <time>2025-05-27T10:10:37Z</time>
      </trkpt>
      <trkpt lat="45.68435" lon="5.29378">
        <ele>286.2</ele>
        <time>2025-05-27T10:10:38Z</time>
      </trkpt>
      <trkpt lat="45.68437" lon="5.29375">
        <ele>286</ele>
        <time>2025-05-27T10:10:39Z</time>
      </trkpt>
      <trkpt lat="45.68439" lon="5.29373">
        <ele>285.4</ele>
        <time>2025-05-27T10:10:40Z</time>
      </trkpt>
      <trkpt lat="45.68441" lon="5.2937">
        <ele>285</ele>
        <time>2025-05-27T10:10:41Z</time>
      </trkpt>
      <trkpt lat="45.68442" lon="5.29367">
        <ele>284.8</ele>
        <time>2025-05-27T10:10:42Z</time>
      </trkpt>
      <trkpt lat="45.68444" lon="5.29363">
        <ele>284.2</ele>
        <time>2025-05-27T10:10:43Z</time>
      </trkpt>
      <trkpt lat="45.68446" lon="5.29358">
        <ele>284</ele>
        <time>2025-05-27T10:10:44Z</time>
      </trkpt>
      <trkpt lat="45.68448" lon="5.29352">
        <ele>283.2</ele>
        <time>2025-05-27T10:10:45Z</time>
      </trkpt>
      <trkpt lat="45.68453" lon="5.29341">
        <ele>282.6</ele>
        <time>2025-05-27T10:10:46Z</time>
      </trkpt>
      <trkpt lat="45.68457" lon="5.29338">
        <ele>282.4</ele>
        <time>2025-05-27T10:10:47Z</time>
      </trkpt>
      <trkpt lat="45.68459" lon="5.29333">
        <ele>282</ele>
        <time>2025-05-27T10:10:48Z</time>
      </trkpt>
      <trkpt lat="45.68461" lon="5.29327">
        <ele>281.8</ele>
        <time>2025-05-27T10:10:49Z</time>
      </trkpt>
      <trkpt lat="45.68463" lon="5.29324">
        <ele>279.6</ele>
        <time>2025-05-27T10:10:50Z</time>
      </trkpt>
      <trkpt lat="45.68466" lon="5.29319">
        <ele>279.6</ele>
        <time>2025-05-27T10:10:51Z</time>
      </trkpt>
      <trkpt lat="45.68467" lon="5.29317">
        <ele>280.4</ele>
        <time>2025-05-27T10:10:52Z</time>
      </trkpt>
      <trkpt lat="45.6847" lon="5.29313">
        <ele>279.2</ele>
        <time>2025-05-27T10:10:53Z</time>
      </trkpt>
      <trkpt lat="45.68471" lon="5.29309">
        <ele>279.2</ele>
        <time>2025-05-27T10:10:54Z</time>
      </trkpt>
      <trkpt lat="45.68475" lon="5.29304">
        <ele>279.6</ele>
        <time>2025-05-27T10:10:55Z</time>
      </trkpt>
      <trkpt lat="45.68477" lon="5.293">
        <ele>278.8</ele>
        <time>2025-05-27T10:10:56Z</time>
      </trkpt>
      <trkpt lat="45.68478" lon="5.29297">
        <ele>278.2</ele>
        <time>2025-05-27T10:10:57Z</time>
      </trkpt>
      <trkpt lat="45.6848" lon="5.29295">
        <ele>277.6</ele>
        <time>2025-05-27T10:10:58Z</time>
      </trkpt>
      <trkpt lat="45.6848" lon="5.29294">
        <ele>277.2</ele>
        <time>2025-05-27T10:10:59Z</time>
      </trkpt>
      <trkpt lat="45.68481" lon="5.29293">
        <ele>277</ele>
        <time>2025-05-27T10:11:00Z</time>
      </trkpt>
      <trkpt lat="45.68481" lon="5.29292">
        <ele>276.8</ele>
        <time>2025-05-27T10:11:01Z</time>
      </trkpt>
      <trkpt lat="45.68482" lon="5.29292">
        <ele>276.8</ele>
        <time>2025-05-27T10:11:02Z</time>
      </trkpt>
      <trkpt lat="45.68482" lon="5.29292">
        <ele>276.8</ele>
        <time>2025-05-27T10:11:03Z</time>
      </trkpt>
      <trkpt lat="45.68482" lon="5.29291">
        <ele>276.8</ele>
        <time>2025-05-27T10:11:04Z</time>
      </trkpt>
      <trkpt lat="45.68482" lon="5.29291">
        <ele>276.8</ele>
        <time>2025-05-27T10:11:05Z</time>
      </trkpt>
      <trkpt lat="45.68483" lon="5.2929">
        <ele>276.8</ele>
        <time>2025-05-27T10:11:06Z</time>
      </trkpt>
      <trkpt lat="45.68484" lon="5.29288">
        <ele>276.8</ele>
        <time>2025-05-27T10:11:07Z</time>
      </trkpt>
      <trkpt lat="45.68485" lon="5.29286">
        <ele>276.4</ele>
        <time>2025-05-27T10:11:08Z</time>
      </trkpt>
      <trkpt lat="45.68487" lon="5.29282">
        <ele>276.2</ele>
        <time>2025-05-27T10:11:09Z</time>
      </trkpt>
      <trkpt lat="45.68489" lon="5.29279">
        <ele>277</ele>
        <time>2025-05-27T10:11:10Z</time>
      </trkpt>
      <trkpt lat="45.68491" lon="5.29275">
        <ele>276.4</ele>
        <time>2025-05-27T10:11:11Z</time>
      </trkpt>
      <trkpt lat="45.68494" lon="5.2927">
        <ele>275.4</ele>
        <time>2025-05-27T10:11:12Z</time>
      </trkpt>
      <trkpt lat="45.68496" lon="5.29265">
        <ele>274.8</ele>
        <time>2025-05-27T10:11:13Z</time>
      </trkpt>
      <trkpt lat="45.68498" lon="5.2926">
        <ele>273.6</ele>
        <time>2025-05-27T10:11:14Z</time>
      </trkpt>
      <trkpt lat="45.68501" lon="5.29251">
        <ele>273.6</ele>
        <time>2025-05-27T10:11:15Z</time>
      </trkpt>
      <trkpt lat="45.68504" lon="5.29243">
        <ele>273.6</ele>
        <time>2025-05-27T10:11:16Z</time>
      </trkpt>
      <trkpt lat="45.68507" lon="5.29238">
        <ele>274.2</ele>
        <time>2025-05-27T10:11:17Z</time>
      </trkpt>
      <trkpt lat="45.68508" lon="5.29232">
        <ele>274.2</ele>
        <time>2025-05-27T10:11:18Z</time>
      </trkpt>
      <trkpt lat="45.68509" lon="5.29233">
        <ele>274.2</ele>
        <time>2025-05-27T10:11:19Z</time>
      </trkpt>
      <trkpt lat="45.68511" lon="5.29228">
        <ele>274.4</ele>
        <time>2025-05-27T10:11:20Z</time>
      </trkpt>
      <trkpt lat="45.68513" lon="5.29227">
        <ele>274.2</ele>
        <time>2025-05-27T10:11:21Z</time>
      </trkpt>
      <trkpt lat="45.68514" lon="5.29225">
        <ele>273.6</ele>
        <time>2025-05-27T10:11:22Z</time>
      </trkpt>
      <trkpt lat="45.68516" lon="5.29223">
        <ele>273.6</ele>
        <time>2025-05-27T10:11:23Z</time>
      </trkpt>
      <trkpt lat="45.68518" lon="5.29222">
        <ele>273.6</ele>
        <time>2025-05-27T10:11:24Z</time>
      </trkpt>
      <trkpt lat="45.68518" lon="5.29219">
        <ele>273.4</ele>
        <time>2025-05-27T10:11:25Z</time>
      </trkpt>
      <trkpt lat="45.68521" lon="5.29215">
        <ele>273</ele>
        <time>2025-05-27T10:11:26Z</time>
      </trkpt>
      <trkpt lat="45.68523" lon="5.29213">
        <ele>273</ele>
        <time>2025-05-27T10:11:27Z</time>
      </trkpt>
      <trkpt lat="45.68526" lon="5.29211">
        <ele>273</ele>
        <time>2025-05-27T10:11:28Z</time>
      </trkpt>
      <trkpt lat="45.68528" lon="5.2921">
        <ele>273</ele>
        <time>2025-05-27T10:11:29Z</time>
      </trkpt>
      <trkpt lat="45.68531" lon="5.29208">
        <ele>272.4</ele>
        <time>2025-05-27T10:11:30Z</time>
      </trkpt>
      <trkpt lat="45.68534" lon="5.29206">
        <ele>272.2</ele>
        <time>2025-05-27T10:11:31Z</time>
      </trkpt>
      <trkpt lat="45.68535" lon="5.29204">
        <ele>272.2</ele>
        <time>2025-05-27T10:11:32Z</time>
      </trkpt>
      <trkpt lat="45.68538" lon="5.29203">
        <ele>271.8</ele>
        <time>2025-05-27T10:11:33Z</time>
      </trkpt>
      <trkpt lat="45.68542" lon="5.29202">
        <ele>271.8</ele>
        <time>2025-05-27T10:11:34Z</time>
      </trkpt>
      <trkpt lat="45.68546" lon="5.29201">
        <ele>271.8</ele>
        <time>2025-05-27T10:11:35Z</time>
      </trkpt>
      <trkpt lat="45.6855" lon="5.29201">
        <ele>271.8</ele>
        <time>2025-05-27T10:11:36Z</time>
      </trkpt>
      <trkpt lat="45.68555" lon="5.29201">
        <ele>272.4</ele>
        <time>2025-05-27T10:11:37Z</time>
      </trkpt>
      <trkpt lat="45.68559" lon="5.29202">
        <ele>272</ele>
        <time>2025-05-27T10:11:38Z</time>
      </trkpt>
      <trkpt lat="45.68563" lon="5.29203">
        <ele>272</ele>
        <time>2025-05-27T10:11:39Z</time>
      </trkpt>
      <trkpt lat="45.68567" lon="5.29204">
        <ele>271.4</ele>
        <time>2025-05-27T10:11:40Z</time>
      </trkpt>
      <trkpt lat="45.68571" lon="5.29202">
        <ele>271.4</ele>
        <time>2025-05-27T10:11:41Z</time>
      </trkpt>
      <trkpt lat="45.68574" lon="5.292">
        <ele>271.4</ele>
        <time>2025-05-27T10:11:42Z</time>
      </trkpt>
      <trkpt lat="45.68579" lon="5.29194">
        <ele>271.6</ele>
        <time>2025-05-27T10:11:43Z</time>
      </trkpt>
      <trkpt lat="45.68583" lon="5.29191">
        <ele>271.6</ele>
        <time>2025-05-27T10:11:44Z</time>
      </trkpt>
      <trkpt lat="45.68587" lon="5.29187">
        <ele>271</ele>
        <time>2025-05-27T10:11:45Z</time>
      </trkpt>
      <trkpt lat="45.68591" lon="5.29185">
        <ele>270.6</ele>
        <time>2025-05-27T10:11:46Z</time>
      </trkpt>
      <trkpt lat="45.68597" lon="5.29185">
        <ele>270.6</ele>
        <time>2025-05-27T10:11:47Z</time>
      </trkpt>
      <trkpt lat="45.686" lon="5.29181">
        <ele>270.6</ele>
        <time>2025-05-27T10:11:48Z</time>
      </trkpt>
      <trkpt lat="45.68604" lon="5.29178">
        <ele>270.6</ele>
        <time>2025-05-27T10:11:49Z</time>
      </trkpt>
      <trkpt lat="45.68607" lon="5.29175">
        <ele>270</ele>
        <time>2025-05-27T10:11:50Z</time>
      </trkpt>
      <trkpt lat="45.68611" lon="5.2917">
        <ele>270</ele>
        <time>2025-05-27T10:11:51Z</time>
      </trkpt>
      <trkpt lat="45.68615" lon="5.29168">
        <ele>270</ele>
        <time>2025-05-27T10:11:52Z</time>
      </trkpt>
      <trkpt lat="45.68619" lon="5.29165">
        <ele>270</ele>
        <time>2025-05-27T10:11:53Z</time>
      </trkpt>
      <trkpt lat="45.68621" lon="5.29163">
        <ele>270</ele>
        <time>2025-05-27T10:11:54Z</time>
      </trkpt>
      <trkpt lat="45.68623" lon="5.29162">
        <ele>269.8</ele>
        <time>2025-05-27T10:11:55Z</time>
      </trkpt>
      <trkpt lat="45.68625" lon="5.29159">
        <ele>269.8</ele>
        <time>2025-05-27T10:11:56Z</time>
      </trkpt>
      <trkpt lat="45.68628" lon="5.29157">
        <ele>269.8</ele>
        <time>2025-05-27T10:11:57Z</time>
      </trkpt>
      <trkpt lat="45.68631" lon="5.29156">
        <ele>269.8</ele>
        <time>2025-05-27T10:11:58Z</time>
      </trkpt>
      <trkpt lat="45.68633" lon="5.29153">
        <ele>269.6</ele>
        <time>2025-05-27T10:11:59Z</time>
      </trkpt>
      <trkpt lat="45.68636" lon="5.2915">
        <ele>269.4</ele>
        <time>2025-05-27T10:12:00Z</time>
      </trkpt>
      <trkpt lat="45.68638" lon="5.29151">
        <ele>269.4</ele>
        <time>2025-05-27T10:12:01Z</time>
      </trkpt>
      <trkpt lat="45.68642" lon="5.29148">
        <ele>269.8</ele>
        <time>2025-05-27T10:12:02Z</time>
      </trkpt>
      <trkpt lat="45.68646" lon="5.29148">
        <ele>269.8</ele>
        <time>2025-05-27T10:12:03Z</time>
      </trkpt>
      <trkpt lat="45.6865" lon="5.29147">
        <ele>269.8</ele>
        <time>2025-05-27T10:12:04Z</time>
      </trkpt>
      <trkpt lat="45.68653" lon="5.29146">
        <ele>269.8</ele>
        <time>2025-05-27T10:12:05Z</time>
      </trkpt>
      <trkpt lat="45.68657" lon="5.29147">
        <ele>269.8</ele>
        <time>2025-05-27T10:12:06Z</time>
      </trkpt>
      <trkpt lat="45.68661" lon="5.29147">
        <ele>269.8</ele>
        <time>2025-05-27T10:12:07Z</time>
      </trkpt>
      <trkpt lat="45.68665" lon="5.29148">
        <ele>269.8</ele>
        <time>2025-05-27T10:12:08Z</time>
      </trkpt>
      <trkpt lat="45.68669" lon="5.29148">
        <ele>269.8</ele>
        <time>2025-05-27T10:12:09Z</time>
      </trkpt>
      <trkpt lat="45.68675" lon="5.29148">
        <ele>269.8</ele>
        <time>2025-05-27T10:12:10Z</time>
      </trkpt>
      <trkpt lat="45.68678" lon="5.29148">
        <ele>269.8</ele>
        <time>2025-05-27T10:12:11Z</time>
      </trkpt>
      <trkpt lat="45.68684" lon="5.29148">
        <ele>270.2</ele>
        <time>2025-05-27T10:12:12Z</time>
      </trkpt>
      <trkpt lat="45.68687" lon="5.29146">
        <ele>269.6</ele>
        <time>2025-05-27T10:12:13Z</time>
      </trkpt>
      <trkpt lat="45.6869" lon="5.29146">
        <ele>269.6</ele>
        <time>2025-05-27T10:12:14Z</time>
      </trkpt>
      <trkpt lat="45.68694" lon="5.29146">
        <ele>269.6</ele>
        <time>2025-05-27T10:12:15Z</time>
      </trkpt>
      <trkpt lat="45.68699" lon="5.29145">
        <ele>269.8</ele>
        <time>2025-05-27T10:12:16Z</time>
      </trkpt>
      <trkpt lat="45.68702" lon="5.29143">
        <ele>269.8</ele>
        <time>2025-05-27T10:12:17Z</time>
      </trkpt>
      <trkpt lat="45.68706" lon="5.29141">
        <ele>270</ele>
        <time>2025-05-27T10:12:18Z</time>
      </trkpt>
      <trkpt lat="45.6871" lon="5.29141">
        <ele>270.4</ele>
        <time>2025-05-27T10:12:19Z</time>
      </trkpt>
      <trkpt lat="45.68714" lon="5.29139">
        <ele>270</ele>
        <time>2025-05-27T10:12:20Z</time>
      </trkpt>
      <trkpt lat="45.68717" lon="5.29138">
        <ele>270.2</ele>
        <time>2025-05-27T10:12:21Z</time>
      </trkpt>
      <trkpt lat="45.68721" lon="5.29138">
        <ele>270.2</ele>
        <time>2025-05-27T10:12:22Z</time>
      </trkpt>
      <trkpt lat="45.68725" lon="5.29138">
        <ele>270.6</ele>
        <time>2025-05-27T10:12:23Z</time>
      </trkpt>
      <trkpt lat="45.68729" lon="5.29138">
        <ele>270.4</ele>
        <time>2025-05-27T10:12:24Z</time>
      </trkpt>
      <trkpt lat="45.68733" lon="5.29137">
        <ele>270.8</ele>
        <time>2025-05-27T10:12:25Z</time>
      </trkpt>
      <trkpt lat="45.68737" lon="5.29136">
        <ele>270.8</ele>
        <time>2025-05-27T10:12:26Z</time>
      </trkpt>
      <trkpt lat="45.68741" lon="5.29136">
        <ele>271.4</ele>
        <time>2025-05-27T10:12:27Z</time>
      </trkpt>
      <trkpt lat="45.68745" lon="5.29136">
        <ele>271.4</ele>
        <time>2025-05-27T10:12:28Z</time>
      </trkpt>
      <trkpt lat="45.68751" lon="5.29134">
        <ele>271.4</ele>
        <time>2025-05-27T10:12:29Z</time>
      </trkpt>
      <trkpt lat="45.68754" lon="5.29133">
        <ele>271.4</ele>
        <time>2025-05-27T10:12:30Z</time>
      </trkpt>
      <trkpt lat="45.68758" lon="5.29134">
        <ele>270.4</ele>
        <time>2025-05-27T10:12:31Z</time>
      </trkpt>
      <trkpt lat="45.6876" lon="5.29137">
        <ele>270.8</ele>
        <time>2025-05-27T10:12:32Z</time>
      </trkpt>
      <trkpt lat="45.68764" lon="5.29136">
        <ele>271.2</ele>
        <time>2025-05-27T10:12:33Z</time>
      </trkpt>
      <trkpt lat="45.68767" lon="5.29137">
        <ele>271.6</ele>
        <time>2025-05-27T10:12:34Z</time>
      </trkpt>
      <trkpt lat="45.68771" lon="5.29136">
        <ele>272</ele>
        <time>2025-05-27T10:12:35Z</time>
      </trkpt>
      <trkpt lat="45.68775" lon="5.29134">
        <ele>272.8</ele>
        <time>2025-05-27T10:12:36Z</time>
      </trkpt>
      <trkpt lat="45.68776" lon="5.29133">
        <ele>273.2</ele>
        <time>2025-05-27T10:12:37Z</time>
      </trkpt>
      <trkpt lat="45.68779" lon="5.29132">
        <ele>273.2</ele>
        <time>2025-05-27T10:12:38Z</time>
      </trkpt>
      <trkpt lat="45.68781" lon="5.29129">
        <ele>273.2</ele>
        <time>2025-05-27T10:12:39Z</time>
      </trkpt>
      <trkpt lat="45.68783" lon="5.29128">
        <ele>273.4</ele>
        <time>2025-05-27T10:12:40Z</time>
      </trkpt>
      <trkpt lat="45.68785" lon="5.29128">
        <ele>273.4</ele>
        <time>2025-05-27T10:12:41Z</time>
      </trkpt>
      <trkpt lat="45.68786" lon="5.29128">
        <ele>273.8</ele>
        <time>2025-05-27T10:12:42Z</time>
      </trkpt>
      <trkpt lat="45.68788" lon="5.29128">
        <ele>273.8</ele>
        <time>2025-05-27T10:12:43Z</time>
      </trkpt>
      <trkpt lat="45.6879" lon="5.29129">
        <ele>274.2</ele>
        <time>2025-05-27T10:12:44Z</time>
      </trkpt>
      <trkpt lat="45.68792" lon="5.29129">
        <ele>274.4</ele>
        <time>2025-05-27T10:12:45Z</time>
      </trkpt>
      <trkpt lat="45.68794" lon="5.2913">
        <ele>274.4</ele>
        <time>2025-05-27T10:12:46Z</time>
      </trkpt>
      <trkpt lat="45.68797" lon="5.2913">
        <ele>274.4</ele>
        <time>2025-05-27T10:12:47Z</time>
      </trkpt>
      <trkpt lat="45.68799" lon="5.29131">
        <ele>274.8</ele>
        <time>2025-05-27T10:12:48Z</time>
      </trkpt>
      <trkpt lat="45.68801" lon="5.29131">
        <ele>274.8</ele>
        <time>2025-05-27T10:12:49Z</time>
      </trkpt>
      <trkpt lat="45.68804" lon="5.29131">
        <ele>275.4</ele>
        <time>2025-05-27T10:12:50Z</time>
      </trkpt>
      <trkpt lat="45.68806" lon="5.29132">
        <ele>275.4</ele>
        <time>2025-05-27T10:12:51Z</time>
      </trkpt>
      <trkpt lat="45.68809" lon="5.29132">
        <ele>275.6</ele>
        <time>2025-05-27T10:12:52Z</time>
      </trkpt>
      <trkpt lat="45.68811" lon="5.29133">
        <ele>275.6</ele>
        <time>2025-05-27T10:12:53Z</time>
      </trkpt>
      <trkpt lat="45.68814" lon="5.29134">
        <ele>275.6</ele>
        <time>2025-05-27T10:12:54Z</time>
      </trkpt>
      <trkpt lat="45.68816" lon="5.29136">
        <ele>275</ele>
        <time>2025-05-27T10:12:55Z</time>
      </trkpt>
      <trkpt lat="45.68818" lon="5.29137">
        <ele>275.6</ele>
        <time>2025-05-27T10:12:56Z</time>
      </trkpt>
      <trkpt lat="45.6882" lon="5.29138">
        <ele>276</ele>
        <time>2025-05-27T10:12:57Z</time>
      </trkpt>
      <trkpt lat="45.68823" lon="5.29139">
        <ele>276.2</ele>
        <time>2025-05-27T10:12:58Z</time>
      </trkpt>
      <trkpt lat="45.68824" lon="5.2914">
        <ele>276.2</ele>
        <time>2025-05-27T10:12:59Z</time>
      </trkpt>
      <trkpt lat="45.68826" lon="5.2914">
        <ele>276.6</ele>
        <time>2025-05-27T10:13:00Z</time>
      </trkpt>
      <trkpt lat="45.68828" lon="5.29141">
        <ele>276.6</ele>
        <time>2025-05-27T10:13:01Z</time>
      </trkpt>
      <trkpt lat="45.68829" lon="5.29141">
        <ele>277</ele>
        <time>2025-05-27T10:13:02Z</time>
      </trkpt>
      <trkpt lat="45.68831" lon="5.29142">
        <ele>277</ele>
        <time>2025-05-27T10:13:03Z</time>
      </trkpt>
      <trkpt lat="45.68832" lon="5.29144">
        <ele>277.4</ele>
        <time>2025-05-27T10:13:04Z</time>
      </trkpt>
      <trkpt lat="45.68834" lon="5.29146">
        <ele>277.4</ele>
        <time>2025-05-27T10:13:05Z</time>
      </trkpt>
      <trkpt lat="45.68835" lon="5.29148">
        <ele>277.4</ele>
        <time>2025-05-27T10:13:06Z</time>
      </trkpt>
      <trkpt lat="45.68837" lon="5.29151">
        <ele>277.4</ele>
        <time>2025-05-27T10:13:07Z</time>
      </trkpt>
      <trkpt lat="45.68839" lon="5.29153">
        <ele>277.6</ele>
        <time>2025-05-27T10:13:08Z</time>
      </trkpt>
      <trkpt lat="45.68841" lon="5.29154">
        <ele>277.6</ele>
        <time>2025-05-27T10:13:09Z</time>
      </trkpt>
      <trkpt lat="45.68844" lon="5.29156">
        <ele>277.8</ele>
        <time>2025-05-27T10:13:10Z</time>
      </trkpt>
      <trkpt lat="45.68845" lon="5.29157">
        <ele>278</ele>
        <time>2025-05-27T10:13:11Z</time>
      </trkpt>
      <trkpt lat="45.68846" lon="5.29157">
        <ele>278.2</ele>
        <time>2025-05-27T10:13:12Z</time>
      </trkpt>
      <trkpt lat="45.68848" lon="5.29159">
        <ele>278.6</ele>
        <time>2025-05-27T10:13:13Z</time>
      </trkpt>
      <trkpt lat="45.68851" lon="5.29161">
        <ele>278.8</ele>
        <time>2025-05-27T10:13:14Z</time>
      </trkpt>
      <trkpt lat="45.68853" lon="5.29162">
        <ele>279.2</ele>
        <time>2025-05-27T10:13:15Z</time>
      </trkpt>
      <trkpt lat="45.68854" lon="5.29163">
        <ele>279.4</ele>
        <time>2025-05-27T10:13:16Z</time>
      </trkpt>
      <trkpt lat="45.68856" lon="5.29164">
        <ele>279.6</ele>
        <time>2025-05-27T10:13:17Z</time>
      </trkpt>
      <trkpt lat="45.68858" lon="5.29165">
        <ele>279.6</ele>
        <time>2025-05-27T10:13:18Z</time>
      </trkpt>
      <trkpt lat="45.6886" lon="5.29166">
        <ele>279.6</ele>
        <time>2025-05-27T10:13:19Z</time>
      </trkpt>
      <trkpt lat="45.68863" lon="5.29167">
        <ele>279.6</ele>
        <time>2025-05-27T10:13:20Z</time>
      </trkpt>
      <trkpt lat="45.68865" lon="5.29167">
        <ele>279.6</ele>
        <time>2025-05-27T10:13:21Z</time>
      </trkpt>
      <trkpt lat="45.68867" lon="5.29167">
        <ele>279.6</ele>
        <time>2025-05-27T10:13:22Z</time>
      </trkpt>
      <trkpt lat="45.68868" lon="5.29167">
        <ele>279.8</ele>
        <time>2025-05-27T10:13:23Z</time>
      </trkpt>
      <trkpt lat="45.6887" lon="5.29168">
        <ele>280</ele>
        <time>2025-05-27T10:13:24Z</time>
      </trkpt>
      <trkpt lat="45.68872" lon="5.29169">
        <ele>280</ele>
        <time>2025-05-27T10:13:25Z</time>
      </trkpt>
      <trkpt lat="45.68874" lon="5.29169">
        <ele>280.6</ele>
        <time>2025-05-27T10:13:26Z</time>
      </trkpt>
      <trkpt lat="45.68876" lon="5.29169">
        <ele>280.6</ele>
        <time>2025-05-27T10:13:27Z</time>
      </trkpt>
      <trkpt lat="45.68878" lon="5.29169">
        <ele>280.8</ele>
        <time>2025-05-27T10:13:28Z</time>
      </trkpt>
      <trkpt lat="45.68879" lon="5.29169">
        <ele>281</ele>
        <time>2025-05-27T10:13:29Z</time>
      </trkpt>
      <trkpt lat="45.68881" lon="5.29169">
        <ele>281.2</ele>
        <time>2025-05-27T10:13:30Z</time>
      </trkpt>
      <trkpt lat="45.68883" lon="5.29168">
        <ele>281.2</ele>
        <time>2025-05-27T10:13:31Z</time>
      </trkpt>
      <trkpt lat="45.68885" lon="5.29168">
        <ele>281.2</ele>
        <time>2025-05-27T10:13:32Z</time>
      </trkpt>
      <trkpt lat="45.68888" lon="5.29169">
        <ele>281.6</ele>
        <time>2025-05-27T10:13:33Z</time>
      </trkpt>
      <trkpt lat="45.6889" lon="5.29169">
        <ele>281.6</ele>
        <time>2025-05-27T10:13:34Z</time>
      </trkpt>
      <trkpt lat="45.68892" lon="5.29169">
        <ele>281.8</ele>
        <time>2025-05-27T10:13:35Z</time>
      </trkpt>
      <trkpt lat="45.68893" lon="5.29168">
        <ele>281.8</ele>
        <time>2025-05-27T10:13:36Z</time>
      </trkpt>
      <trkpt lat="45.68894" lon="5.29168">
        <ele>282</ele>
        <time>2025-05-27T10:13:37Z</time>
      </trkpt>
      <trkpt lat="45.68897" lon="5.29169">
        <ele>282</ele>
        <time>2025-05-27T10:13:38Z</time>
      </trkpt>
      <trkpt lat="45.689" lon="5.29172">
        <ele>282.4</ele>
        <time>2025-05-27T10:13:39Z</time>
      </trkpt>
      <trkpt lat="45.68903" lon="5.29175">
        <ele>282.2</ele>
        <time>2025-05-27T10:13:40Z</time>
      </trkpt>
      <trkpt lat="45.68905" lon="5.29177">
        <ele>282.2</ele>
        <time>2025-05-27T10:13:41Z</time>
      </trkpt>
      <trkpt lat="45.68906" lon="5.29178">
        <ele>282.2</ele>
        <time>2025-05-27T10:13:42Z</time>
      </trkpt>
      <trkpt lat="45.68908" lon="5.29179">
        <ele>281</ele>
        <time>2025-05-27T10:13:43Z</time>
      </trkpt>
      <trkpt lat="45.68911" lon="5.29182">
        <ele>281.6</ele>
        <time>2025-05-27T10:13:44Z</time>
      </trkpt>
      <trkpt lat="45.68913" lon="5.29185">
        <ele>282.4</ele>
        <time>2025-05-27T10:13:45Z</time>
      </trkpt>
      <trkpt lat="45.68915" lon="5.29187">
        <ele>282.8</ele>
        <time>2025-05-27T10:13:46Z</time>
      </trkpt>
      <trkpt lat="45.68917" lon="5.29189">
        <ele>282.8</ele>
        <time>2025-05-27T10:13:47Z</time>
      </trkpt>
      <trkpt lat="45.6892" lon="5.29191">
        <ele>283</ele>
        <time>2025-05-27T10:13:48Z</time>
      </trkpt>
      <trkpt lat="45.68922" lon="5.29194">
        <ele>283</ele>
        <time>2025-05-27T10:13:49Z</time>
      </trkpt>
      <trkpt lat="45.68924" lon="5.29195">
        <ele>283.4</ele>
        <time>2025-05-27T10:13:50Z</time>
      </trkpt>
      <trkpt lat="45.68926" lon="5.29198">
        <ele>283.4</ele>
        <time>2025-05-27T10:13:51Z</time>
      </trkpt>
      <trkpt lat="45.68928" lon="5.292">
        <ele>283.6</ele>
        <time>2025-05-27T10:13:52Z</time>
      </trkpt>
      <trkpt lat="45.6893" lon="5.29202">
        <ele>284.2</ele>
        <time>2025-05-27T10:13:53Z</time>
      </trkpt>
      <trkpt lat="45.68932" lon="5.29205">
        <ele>284.2</ele>
        <time>2025-05-27T10:13:54Z</time>
      </trkpt>
      <trkpt lat="45.68935" lon="5.29207">
        <ele>284.2</ele>
        <time>2025-05-27T10:13:55Z</time>
      </trkpt>
      <trkpt lat="45.68938" lon="5.29209">
        <ele>284.2</ele>
        <time>2025-05-27T10:13:56Z</time>
      </trkpt>
      <trkpt lat="45.68941" lon="5.29211">
        <ele>284.6</ele>
        <time>2025-05-27T10:13:57Z</time>
      </trkpt>
      <trkpt lat="45.68945" lon="5.29212">
        <ele>285</ele>
        <time>2025-05-27T10:13:58Z</time>
      </trkpt>
      <trkpt lat="45.68947" lon="5.29214">
        <ele>285</ele>
        <time>2025-05-27T10:13:59Z</time>
      </trkpt>
      <trkpt lat="45.68949" lon="5.29217">
        <ele>285</ele>
        <time>2025-05-27T10:14:00Z</time>
      </trkpt>
      <trkpt lat="45.68951" lon="5.2922">
        <ele>285</ele>
        <time>2025-05-27T10:14:01Z</time>
      </trkpt>
      <trkpt lat="45.68953" lon="5.29223">
        <ele>285</ele>
        <time>2025-05-27T10:14:02Z</time>
      </trkpt>
      <trkpt lat="45.68956" lon="5.29226">
        <ele>284.6</ele>
        <time>2025-05-27T10:14:03Z</time>
      </trkpt>
      <trkpt lat="45.68958" lon="5.29228">
        <ele>284.6</ele>
        <time>2025-05-27T10:14:04Z</time>
      </trkpt>
      <trkpt lat="45.6896" lon="5.2923">
        <ele>284.6</ele>
        <time>2025-05-27T10:14:05Z</time>
      </trkpt>
      <trkpt lat="45.68962" lon="5.29229">
        <ele>285</ele>
        <time>2025-05-27T10:14:06Z</time>
      </trkpt>
      <trkpt lat="45.68964" lon="5.29228">
        <ele>285</ele>
        <time>2025-05-27T10:14:07Z</time>
      </trkpt>
      <trkpt lat="45.68964" lon="5.29228">
        <ele>285.2</ele>
        <time>2025-05-27T10:14:08Z</time>
      </trkpt>
      <trkpt lat="45.68965" lon="5.29228">
        <ele>285.2</ele>
        <time>2025-05-27T10:14:09Z</time>
      </trkpt>
      <trkpt lat="45.68967" lon="5.2923">
        <ele>285.6</ele>
        <time>2025-05-27T10:14:10Z</time>
      </trkpt>
      <trkpt lat="45.68969" lon="5.29232">
        <ele>285.6</ele>
        <time>2025-05-27T10:14:11Z</time>
      </trkpt>
      <trkpt lat="45.68971" lon="5.29234">
        <ele>286</ele>
        <time>2025-05-27T10:14:12Z</time>
      </trkpt>
      <trkpt lat="45.68974" lon="5.29236">
        <ele>286</ele>
        <time>2025-05-27T10:14:13Z</time>
      </trkpt>
      <trkpt lat="45.68976" lon="5.29238">
        <ele>286</ele>
        <time>2025-05-27T10:14:14Z</time>
      </trkpt>
      <trkpt lat="45.68978" lon="5.2924">
        <ele>286.4</ele>
        <time>2025-05-27T10:14:15Z</time>
      </trkpt>
      <trkpt lat="45.6898" lon="5.29242">
        <ele>286.6</ele>
        <time>2025-05-27T10:14:16Z</time>
      </trkpt>
      <trkpt lat="45.68982" lon="5.29243">
        <ele>287</ele>
        <time>2025-05-27T10:14:17Z</time>
      </trkpt>
      <trkpt lat="45.68984" lon="5.29245">
        <ele>287</ele>
        <time>2025-05-27T10:14:18Z</time>
      </trkpt>
      <trkpt lat="45.68986" lon="5.29246">
        <ele>287.4</ele>
        <time>2025-05-27T10:14:19Z</time>
      </trkpt>
      <trkpt lat="45.68988" lon="5.29246">
        <ele>287.4</ele>
        <time>2025-05-27T10:14:20Z</time>
      </trkpt>
      <trkpt lat="45.6899" lon="5.29247">
        <ele>287.8</ele>
        <time>2025-05-27T10:14:21Z</time>
      </trkpt>
      <trkpt lat="45.68992" lon="5.29247">
        <ele>287.8</ele>
        <time>2025-05-27T10:14:22Z</time>
      </trkpt>
      <trkpt lat="45.68994" lon="5.29248">
        <ele>287.8</ele>
        <time>2025-05-27T10:14:23Z</time>
      </trkpt>
      <trkpt lat="45.68995" lon="5.2925">
        <ele>288</ele>
        <time>2025-05-27T10:14:24Z</time>
      </trkpt>
      <trkpt lat="45.68996" lon="5.29251">
        <ele>288</ele>
        <time>2025-05-27T10:14:25Z</time>
      </trkpt>
      <trkpt lat="45.68998" lon="5.29252">
        <ele>288.4</ele>
        <time>2025-05-27T10:14:26Z</time>
      </trkpt>
      <trkpt lat="45.69" lon="5.29253">
        <ele>288.4</ele>
        <time>2025-05-27T10:14:27Z</time>
      </trkpt>
      <trkpt lat="45.69002" lon="5.29253">
        <ele>288.8</ele>
        <time>2025-05-27T10:14:28Z</time>
      </trkpt>
      <trkpt lat="45.69004" lon="5.29254">
        <ele>288.8</ele>
        <time>2025-05-27T10:14:29Z</time>
      </trkpt>
      <trkpt lat="45.69006" lon="5.29255">
        <ele>289.4</ele>
        <time>2025-05-27T10:14:30Z</time>
      </trkpt>
      <trkpt lat="45.69008" lon="5.29256">
        <ele>289.4</ele>
        <time>2025-05-27T10:14:31Z</time>
      </trkpt>
      <trkpt lat="45.6901" lon="5.29256">
        <ele>289.6</ele>
        <time>2025-05-27T10:14:32Z</time>
      </trkpt>
      <trkpt lat="45.69012" lon="5.29257">
        <ele>289.6</ele>
        <time>2025-05-27T10:14:33Z</time>
      </trkpt>
      <trkpt lat="45.69014" lon="5.29258">
        <ele>289.6</ele>
        <time>2025-05-27T10:14:34Z</time>
      </trkpt>
      <trkpt lat="45.69017" lon="5.29261">
        <ele>289.6</ele>
        <time>2025-05-27T10:14:35Z</time>
      </trkpt>
      <trkpt lat="45.69019" lon="5.29262">
        <ele>289.6</ele>
        <time>2025-05-27T10:14:36Z</time>
      </trkpt>
      <trkpt lat="45.6902" lon="5.29263">
        <ele>290.2</ele>
        <time>2025-05-27T10:14:37Z</time>
      </trkpt>
      <trkpt lat="45.69021" lon="5.29264">
        <ele>290.2</ele>
        <time>2025-05-27T10:14:38Z</time>
      </trkpt>
      <trkpt lat="45.69022" lon="5.29266">
        <ele>290.6</ele>
        <time>2025-05-27T10:14:39Z</time>
      </trkpt>
      <trkpt lat="45.69024" lon="5.29268">
        <ele>290.6</ele>
        <time>2025-05-27T10:14:40Z</time>
      </trkpt>
      <trkpt lat="45.69026" lon="5.2927">
        <ele>290.6</ele>
        <time>2025-05-27T10:14:41Z</time>
      </trkpt>
      <trkpt lat="45.69028" lon="5.29271">
        <ele>290.6</ele>
        <time>2025-05-27T10:14:42Z</time>
      </trkpt>
      <trkpt lat="45.69031" lon="5.29273">
        <ele>291.2</ele>
        <time>2025-05-27T10:14:43Z</time>
      </trkpt>
      <trkpt lat="45.69033" lon="5.29275">
        <ele>291.2</ele>
        <time>2025-05-27T10:14:44Z</time>
      </trkpt>
      <trkpt lat="45.69033" lon="5.29275">
        <ele>291.4</ele>
        <time>2025-05-27T10:14:45Z</time>
      </trkpt>
      <trkpt lat="45.69034" lon="5.29276">
        <ele>291.6</ele>
        <time>2025-05-27T10:14:46Z</time>
      </trkpt>
      <trkpt lat="45.69036" lon="5.29277">
        <ele>291.6</ele>
        <time>2025-05-27T10:14:47Z</time>
      </trkpt>
      <trkpt lat="45.69039" lon="5.29279">
        <ele>292</ele>
        <time>2025-05-27T10:14:48Z</time>
      </trkpt>
      <trkpt lat="45.69041" lon="5.2928">
        <ele>292.4</ele>
        <time>2025-05-27T10:14:49Z</time>
      </trkpt>
      <trkpt lat="45.69043" lon="5.29281">
        <ele>292.4</ele>
        <time>2025-05-27T10:14:50Z</time>
      </trkpt>
      <trkpt lat="45.69046" lon="5.29282">
        <ele>292.4</ele>
        <time>2025-05-27T10:14:51Z</time>
      </trkpt>
      <trkpt lat="45.69047" lon="5.29284">
        <ele>292.8</ele>
        <time>2025-05-27T10:14:52Z</time>
      </trkpt>
      <trkpt lat="45.6905" lon="5.29287">
        <ele>293.2</ele>
        <time>2025-05-27T10:14:53Z</time>
      </trkpt>
      <trkpt lat="45.69052" lon="5.29289">
        <ele>293.6</ele>
        <time>2025-05-27T10:14:54Z</time>
      </trkpt>
      <trkpt lat="45.69053" lon="5.29291">
        <ele>293.8</ele>
        <time>2025-05-27T10:14:55Z</time>
      </trkpt>
      <trkpt lat="45.69054" lon="5.29292">
        <ele>293.8</ele>
        <time>2025-05-27T10:14:56Z</time>
      </trkpt>
      <trkpt lat="45.69056" lon="5.29293">
        <ele>293.8</ele>
        <time>2025-05-27T10:14:57Z</time>
      </trkpt>
      <trkpt lat="45.69058" lon="5.29294">
        <ele>294</ele>
        <time>2025-05-27T10:14:58Z</time>
      </trkpt>
      <trkpt lat="45.69059" lon="5.29295">
        <ele>294.2</ele>
        <time>2025-05-27T10:14:59Z</time>
      </trkpt>
      <trkpt lat="45.6906" lon="5.29297">
        <ele>294.4</ele>
        <time>2025-05-27T10:15:00Z</time>
      </trkpt>
      <trkpt lat="45.69062" lon="5.29298">
        <ele>294.8</ele>
        <time>2025-05-27T10:15:01Z</time>
      </trkpt>
      <trkpt lat="45.69063" lon="5.29301">
        <ele>295</ele>
        <time>2025-05-27T10:15:02Z</time>
      </trkpt>
      <trkpt lat="45.69064" lon="5.29303">
        <ele>295.2</ele>
        <time>2025-05-27T10:15:03Z</time>
      </trkpt>
      <trkpt lat="45.69065" lon="5.29305">
        <ele>295.2</ele>
        <time>2025-05-27T10:15:04Z</time>
      </trkpt>
      <trkpt lat="45.69066" lon="5.29308">
        <ele>295.6</ele>
        <time>2025-05-27T10:15:05Z</time>
      </trkpt>
      <trkpt lat="45.69067" lon="5.2931">
        <ele>295.6</ele>
        <time>2025-05-27T10:15:06Z</time>
      </trkpt>
      <trkpt lat="45.69069" lon="5.29312">
        <ele>295.8</ele>
        <time>2025-05-27T10:15:07Z</time>
      </trkpt>
      <trkpt lat="45.6907" lon="5.29314">
        <ele>295.8</ele>
        <time>2025-05-27T10:15:08Z</time>
      </trkpt>
      <trkpt lat="45.69071" lon="5.29315">
        <ele>296</ele>
        <time>2025-05-27T10:15:09Z</time>
      </trkpt>
      <trkpt lat="45.69072" lon="5.29317">
        <ele>296.4</ele>
        <time>2025-05-27T10:15:10Z</time>
      </trkpt>
      <trkpt lat="45.69074" lon="5.29318">
        <ele>296.4</ele>
        <time>2025-05-27T10:15:11Z</time>
      </trkpt>
      <trkpt lat="45.69075" lon="5.29319">
        <ele>296.2</ele>
        <time>2025-05-27T10:15:12Z</time>
      </trkpt>
      <trkpt lat="45.69076" lon="5.29321">
        <ele>296.2</ele>
        <time>2025-05-27T10:15:13Z</time>
      </trkpt>
      <trkpt lat="45.69077" lon="5.29322">
        <ele>296.6</ele>
        <time>2025-05-27T10:15:14Z</time>
      </trkpt>
      <trkpt lat="45.69078" lon="5.29325">
        <ele>296.6</ele>
        <time>2025-05-27T10:15:15Z</time>
      </trkpt>
      <trkpt lat="45.69079" lon="5.29327">
        <ele>296.6</ele>
        <time>2025-05-27T10:15:16Z</time>
      </trkpt>
      <trkpt lat="45.69079" lon="5.29328">
        <ele>296.8</ele>
        <time>2025-05-27T10:15:17Z</time>
      </trkpt>
      <trkpt lat="45.6908" lon="5.29328">
        <ele>297.2</ele>
        <time>2025-05-27T10:15:18Z</time>
      </trkpt>
      <trkpt lat="45.6908" lon="5.2933">
        <ele>297.4</ele>
        <time>2025-05-27T10:15:23Z</time>
      </trkpt>
      <trkpt lat="45.69082" lon="5.29333">
        <ele>297.4</ele>
        <time>2025-05-27T10:15:24Z</time>
      </trkpt>
      <trkpt lat="45.69085" lon="5.29335">
        <ele>297.4</ele>
        <time>2025-05-27T10:15:25Z</time>
      </trkpt>
      <trkpt lat="45.69087" lon="5.29336">
        <ele>297.4</ele>
        <time>2025-05-27T10:15:26Z</time>
      </trkpt>
      <trkpt lat="45.69089" lon="5.29336">
        <ele>297</ele>
        <time>2025-05-27T10:15:27Z</time>
      </trkpt>
      <trkpt lat="45.69092" lon="5.29335">
        <ele>297</ele>
        <time>2025-05-27T10:15:28Z</time>
      </trkpt>
      <trkpt lat="45.69094" lon="5.29334">
        <ele>297</ele>
        <time>2025-05-27T10:15:29Z</time>
      </trkpt>
      <trkpt lat="45.69096" lon="5.29333">
        <ele>297.6</ele>
        <time>2025-05-27T10:15:30Z</time>
      </trkpt>
      <trkpt lat="45.69097" lon="5.29332">
        <ele>297.6</ele>
        <time>2025-05-27T10:15:31Z</time>
      </trkpt>
      <trkpt lat="45.69099" lon="5.29332">
        <ele>297.6</ele>
        <time>2025-05-27T10:15:32Z</time>
      </trkpt>
      <trkpt lat="45.69102" lon="5.29332">
        <ele>298</ele>
        <time>2025-05-27T10:15:33Z</time>
      </trkpt>
      <trkpt lat="45.69104" lon="5.29332">
        <ele>298</ele>
        <time>2025-05-27T10:15:34Z</time>
      </trkpt>
      <trkpt lat="45.69106" lon="5.29331">
        <ele>298.4</ele>
        <time>2025-05-27T10:15:35Z</time>
      </trkpt>
      <trkpt lat="45.69108" lon="5.29331">
        <ele>298.4</ele>
        <time>2025-05-27T10:15:36Z</time>
      </trkpt>
      <trkpt lat="45.6911" lon="5.29331">
        <ele>298.6</ele>
        <time>2025-05-27T10:15:37Z</time>
      </trkpt>
      <trkpt lat="45.69112" lon="5.2933">
        <ele>298.6</ele>
        <time>2025-05-27T10:15:38Z</time>
      </trkpt>
      <trkpt lat="45.69114" lon="5.2933">
        <ele>298.6</ele>
        <time>2025-05-27T10:15:39Z</time>
      </trkpt>
      <trkpt lat="45.69115" lon="5.29329">
        <ele>299</ele>
        <time>2025-05-27T10:15:40Z</time>
      </trkpt>
      <trkpt lat="45.69117" lon="5.29329">
        <ele>299.2</ele>
        <time>2025-05-27T10:15:41Z</time>
      </trkpt>
      <trkpt lat="45.69118" lon="5.29329">
        <ele>299.2</ele>
        <time>2025-05-27T10:15:42Z</time>
      </trkpt>
      <trkpt lat="45.69121" lon="5.29331">
        <ele>299.6</ele>
        <time>2025-05-27T10:15:43Z</time>
      </trkpt>
      <trkpt lat="45.69122" lon="5.29333">
        <ele>299.6</ele>
        <time>2025-05-27T10:15:44Z</time>
      </trkpt>
      <trkpt lat="45.69123" lon="5.29335">
        <ele>299.6</ele>
        <time>2025-05-27T10:15:45Z</time>
      </trkpt>
      <trkpt lat="45.69124" lon="5.29337">
        <ele>299.6</ele>
        <time>2025-05-27T10:15:46Z</time>
      </trkpt>
      <trkpt lat="45.69125" lon="5.2934">
        <ele>300</ele>
        <time>2025-05-27T10:15:47Z</time>
      </trkpt>
      <trkpt lat="45.69127" lon="5.29342">
        <ele>300</ele>
        <time>2025-05-27T10:15:48Z</time>
      </trkpt>
      <trkpt lat="45.69128" lon="5.29344">
        <ele>300.4</ele>
        <time>2025-05-27T10:15:49Z</time>
      </trkpt>
      <trkpt lat="45.69129" lon="5.29345">
        <ele>300.6</ele>
        <time>2025-05-27T10:15:50Z</time>
      </trkpt>
      <trkpt lat="45.6913" lon="5.29348">
        <ele>300.8</ele>
        <time>2025-05-27T10:15:51Z</time>
      </trkpt>
      <trkpt lat="45.69131" lon="5.2935">
        <ele>301</ele>
        <time>2025-05-27T10:15:52Z</time>
      </trkpt>
      <trkpt lat="45.69132" lon="5.29351">
        <ele>301</ele>
        <time>2025-05-27T10:15:53Z</time>
      </trkpt>
      <trkpt lat="45.69133" lon="5.29353">
        <ele>301.4</ele>
        <time>2025-05-27T10:15:54Z</time>
      </trkpt>
      <trkpt lat="45.69134" lon="5.29355">
        <ele>301.8</ele>
        <time>2025-05-27T10:15:55Z</time>
      </trkpt>
      <trkpt lat="45.69136" lon="5.29357">
        <ele>301.8</ele>
        <time>2025-05-27T10:15:56Z</time>
      </trkpt>
      <trkpt lat="45.69137" lon="5.2936">
        <ele>301.8</ele>
        <time>2025-05-27T10:15:57Z</time>
      </trkpt>
      <trkpt lat="45.69138" lon="5.29361">
        <ele>301.8</ele>
        <time>2025-05-27T10:15:58Z</time>
      </trkpt>
      <trkpt lat="45.69139" lon="5.29363">
        <ele>301.8</ele>
        <time>2025-05-27T10:15:59Z</time>
      </trkpt>
      <trkpt lat="45.69139" lon="5.29363">
        <ele>302.2</ele>
        <time>2025-05-27T10:16:00Z</time>
      </trkpt>
      <trkpt lat="45.69139" lon="5.29363">
        <ele>302.2</ele>
        <time>2025-05-27T10:16:01Z</time>
      </trkpt>
      <trkpt lat="45.69146" lon="5.29371">
        <ele>302.8</ele>
        <time>2025-05-27T10:16:03Z</time>
      </trkpt>
      <trkpt lat="45.69147" lon="5.29372">
        <ele>302.8</ele>
        <time>2025-05-27T10:16:04Z</time>
      </trkpt>
      <trkpt lat="45.69148" lon="5.29374">
        <ele>303.2</ele>
        <time>2025-05-27T10:16:05Z</time>
      </trkpt>
      <trkpt lat="45.69148" lon="5.29376">
        <ele>303.4</ele>
        <time>2025-05-27T10:16:06Z</time>
      </trkpt>
      <trkpt lat="45.69149" lon="5.29378">
        <ele>303.8</ele>
        <time>2025-05-27T10:16:07Z</time>
      </trkpt>
      <trkpt lat="45.6915" lon="5.29379">
        <ele>304</ele>
        <time>2025-05-27T10:16:08Z</time>
      </trkpt>
      <trkpt lat="45.69151" lon="5.2938">
        <ele>304</ele>
        <time>2025-05-27T10:16:09Z</time>
      </trkpt>
      <trkpt lat="45.69152" lon="5.2938">
        <ele>304.2</ele>
        <time>2025-05-27T10:16:10Z</time>
      </trkpt>
      <trkpt lat="45.69153" lon="5.29381">
        <ele>304.2</ele>
        <time>2025-05-27T10:16:11Z</time>
      </trkpt>
      <trkpt lat="45.69154" lon="5.29383">
        <ele>304.6</ele>
        <time>2025-05-27T10:16:12Z</time>
      </trkpt>
      <trkpt lat="45.69155" lon="5.29385">
        <ele>304.6</ele>
        <time>2025-05-27T10:16:13Z</time>
      </trkpt>
      <trkpt lat="45.69156" lon="5.29388">
        <ele>304.8</ele>
        <time>2025-05-27T10:16:14Z</time>
      </trkpt>
      <trkpt lat="45.69156" lon="5.29389">
        <ele>305</ele>
        <time>2025-05-27T10:16:15Z</time>
      </trkpt>
      <trkpt lat="45.69157" lon="5.29391">
        <ele>305</ele>
        <time>2025-05-27T10:16:16Z</time>
      </trkpt>
      <trkpt lat="45.69158" lon="5.29393">
        <ele>305</ele>
        <time>2025-05-27T10:16:17Z</time>
      </trkpt>
      <trkpt lat="45.69158" lon="5.29394">
        <ele>305.4</ele>
        <time>2025-05-27T10:16:18Z</time>
      </trkpt>
      <trkpt lat="45.6916" lon="5.29395">
        <ele>305.6</ele>
        <time>2025-05-27T10:16:19Z</time>
      </trkpt>
      <trkpt lat="45.69161" lon="5.29396">
        <ele>306</ele>
        <time>2025-05-27T10:16:20Z</time>
      </trkpt>
      <trkpt lat="45.69162" lon="5.29397">
        <ele>306</ele>
        <time>2025-05-27T10:16:21Z</time>
      </trkpt>
      <trkpt lat="45.69164" lon="5.29398">
        <ele>306.2</ele>
        <time>2025-05-27T10:16:22Z</time>
      </trkpt>
      <trkpt lat="45.69165" lon="5.29398">
        <ele>306.2</ele>
        <time>2025-05-27T10:16:23Z</time>
      </trkpt>
      <trkpt lat="45.69167" lon="5.29399">
        <ele>306.4</ele>
        <time>2025-05-27T10:16:24Z</time>
      </trkpt>
      <trkpt lat="45.69169" lon="5.29401">
        <ele>306.4</ele>
        <time>2025-05-27T10:16:25Z</time>
      </trkpt>
      <trkpt lat="45.6917" lon="5.29402">
        <ele>306.8</ele>
        <time>2025-05-27T10:16:26Z</time>
      </trkpt>
      <trkpt lat="45.69172" lon="5.29403">
        <ele>306.8</ele>
        <time>2025-05-27T10:16:27Z</time>
      </trkpt>
      <trkpt lat="45.69173" lon="5.29404">
        <ele>307</ele>
        <time>2025-05-27T10:16:28Z</time>
      </trkpt>
      <trkpt lat="45.69175" lon="5.29405">
        <ele>307</ele>
        <time>2025-05-27T10:16:29Z</time>
      </trkpt>
      <trkpt lat="45.69177" lon="5.29406">
        <ele>307.4</ele>
        <time>2025-05-27T10:16:30Z</time>
      </trkpt>
      <trkpt lat="45.69179" lon="5.29407">
        <ele>307.4</ele>
        <time>2025-05-27T10:16:31Z</time>
      </trkpt>
      <trkpt lat="45.69181" lon="5.29408">
        <ele>307.8</ele>
        <time>2025-05-27T10:16:32Z</time>
      </trkpt>
      <trkpt lat="45.69184" lon="5.2941">
        <ele>308</ele>
        <time>2025-05-27T10:16:33Z</time>
      </trkpt>
      <trkpt lat="45.69186" lon="5.29412">
        <ele>308.2</ele>
        <time>2025-05-27T10:16:34Z</time>
      </trkpt>
      <trkpt lat="45.69187" lon="5.29413">
        <ele>308.2</ele>
        <time>2025-05-27T10:16:35Z</time>
      </trkpt>
      <trkpt lat="45.69189" lon="5.29414">
        <ele>308.6</ele>
        <time>2025-05-27T10:16:36Z</time>
      </trkpt>
      <trkpt lat="45.69191" lon="5.29416">
        <ele>308.6</ele>
        <time>2025-05-27T10:16:37Z</time>
      </trkpt>
      <trkpt lat="45.69193" lon="5.29417">
        <ele>308.8</ele>
        <time>2025-05-27T10:16:38Z</time>
      </trkpt>
      <trkpt lat="45.69194" lon="5.29419">
        <ele>309.2</ele>
        <time>2025-05-27T10:16:39Z</time>
      </trkpt>
      <trkpt lat="45.69195" lon="5.2942">
        <ele>309.2</ele>
        <time>2025-05-27T10:16:40Z</time>
      </trkpt>
      <trkpt lat="45.69197" lon="5.29422">
        <ele>309.4</ele>
        <time>2025-05-27T10:16:41Z</time>
      </trkpt>
      <trkpt lat="45.69198" lon="5.29424">
        <ele>309.6</ele>
        <time>2025-05-27T10:16:42Z</time>
      </trkpt>
      <trkpt lat="45.692" lon="5.29426">
        <ele>309.6</ele>
        <time>2025-05-27T10:16:43Z</time>
      </trkpt>
      <trkpt lat="45.69201" lon="5.29427">
        <ele>309.8</ele>
        <time>2025-05-27T10:16:44Z</time>
      </trkpt>
      <trkpt lat="45.69203" lon="5.29428">
        <ele>310.2</ele>
        <time>2025-05-27T10:16:45Z</time>
      </trkpt>
      <trkpt lat="45.69204" lon="5.2943">
        <ele>310.4</ele>
        <time>2025-05-27T10:16:46Z</time>
      </trkpt>
      <trkpt lat="45.69206" lon="5.29431">
        <ele>310.4</ele>
        <time>2025-05-27T10:16:47Z</time>
      </trkpt>
      <trkpt lat="45.69207" lon="5.29431">
        <ele>310.8</ele>
        <time>2025-05-27T10:16:48Z</time>
      </trkpt>
      <trkpt lat="45.69209" lon="5.29432">
        <ele>311</ele>
        <time>2025-05-27T10:16:49Z</time>
      </trkpt>
      <trkpt lat="45.6921" lon="5.29433">
        <ele>311</ele>
        <time>2025-05-27T10:16:50Z</time>
      </trkpt>
      <trkpt lat="45.69211" lon="5.29434">
        <ele>311.2</ele>
        <time>2025-05-27T10:16:51Z</time>
      </trkpt>
      <trkpt lat="45.69212" lon="5.29435">
        <ele>311.2</ele>
        <time>2025-05-27T10:16:52Z</time>
      </trkpt>
      <trkpt lat="45.69214" lon="5.29435">
        <ele>311.2</ele>
        <time>2025-05-27T10:16:53Z</time>
      </trkpt>
      <trkpt lat="45.69215" lon="5.29436">
        <ele>311.8</ele>
        <time>2025-05-27T10:16:54Z</time>
      </trkpt>
      <trkpt lat="45.69216" lon="5.29437">
        <ele>311.8</ele>
        <time>2025-05-27T10:16:55Z</time>
      </trkpt>
      <trkpt lat="45.69217" lon="5.29438">
        <ele>312</ele>
        <time>2025-05-27T10:16:56Z</time>
      </trkpt>
      <trkpt lat="45.69218" lon="5.2944">
        <ele>312</ele>
        <time>2025-05-27T10:16:57Z</time>
      </trkpt>
      <trkpt lat="45.69219" lon="5.29442">
        <ele>312</ele>
        <time>2025-05-27T10:16:58Z</time>
      </trkpt>
      <trkpt lat="45.6922" lon="5.29443">
        <ele>312</ele>
        <time>2025-05-27T10:16:59Z</time>
      </trkpt>
      <trkpt lat="45.69221" lon="5.29445">
        <ele>312</ele>
        <time>2025-05-27T10:17:00Z</time>
      </trkpt>
      <trkpt lat="45.69222" lon="5.29445">
        <ele>312.4</ele>
        <time>2025-05-27T10:17:01Z</time>
      </trkpt>
      <trkpt lat="45.69223" lon="5.29446">
        <ele>312.4</ele>
        <time>2025-05-27T10:17:02Z</time>
      </trkpt>
      <trkpt lat="45.69224" lon="5.29447">
        <ele>312.4</ele>
        <time>2025-05-27T10:17:03Z</time>
      </trkpt>
      <trkpt lat="45.69225" lon="5.29448">
        <ele>312.6</ele>
        <time>2025-05-27T10:17:04Z</time>
      </trkpt>
      <trkpt lat="45.69227" lon="5.29449">
        <ele>312.6</ele>
        <time>2025-05-27T10:17:05Z</time>
      </trkpt>
      <trkpt lat="45.69228" lon="5.2945">
        <ele>313.2</ele>
        <time>2025-05-27T10:17:06Z</time>
      </trkpt>
      <trkpt lat="45.6923" lon="5.29452">
        <ele>312.8</ele>
        <time>2025-05-27T10:17:07Z</time>
      </trkpt>
      <trkpt lat="45.69231" lon="5.29453">
        <ele>313.2</ele>
        <time>2025-05-27T10:17:08Z</time>
      </trkpt>
      <trkpt lat="45.69232" lon="5.29453">
        <ele>313.8</ele>
        <time>2025-05-27T10:17:09Z</time>
      </trkpt>
      <trkpt lat="45.69235" lon="5.29454">
        <ele>314</ele>
        <time>2025-05-27T10:17:10Z</time>
      </trkpt>
      <trkpt lat="45.69236" lon="5.29454">
        <ele>314</ele>
        <time>2025-05-27T10:17:11Z</time>
      </trkpt>
      <trkpt lat="45.69237" lon="5.29454">
        <ele>314</ele>
        <time>2025-05-27T10:17:12Z</time>
      </trkpt>
      <trkpt lat="45.69238" lon="5.29454">
        <ele>314.4</ele>
        <time>2025-05-27T10:17:13Z</time>
      </trkpt>
      <trkpt lat="45.6924" lon="5.29455">
        <ele>314.4</ele>
        <time>2025-05-27T10:17:14Z</time>
      </trkpt>
      <trkpt lat="45.69241" lon="5.29456">
        <ele>314.4</ele>
        <time>2025-05-27T10:17:15Z</time>
      </trkpt>
      <trkpt lat="45.69242" lon="5.29456">
        <ele>314.4</ele>
        <time>2025-05-27T10:17:16Z</time>
      </trkpt>
      <trkpt lat="45.69244" lon="5.29457">
        <ele>314.4</ele>
        <time>2025-05-27T10:17:17Z</time>
      </trkpt>
      <trkpt lat="45.69246" lon="5.29458">
        <ele>315</ele>
        <time>2025-05-27T10:17:18Z</time>
      </trkpt>
      <trkpt lat="45.69247" lon="5.2946">
        <ele>315</ele>
        <time>2025-05-27T10:17:19Z</time>
      </trkpt>
      <trkpt lat="45.69248" lon="5.29462">
        <ele>315.4</ele>
        <time>2025-05-27T10:17:20Z</time>
      </trkpt>
      <trkpt lat="45.69249" lon="5.29464">
        <ele>315.4</ele>
        <time>2025-05-27T10:17:21Z</time>
      </trkpt>
      <trkpt lat="45.69251" lon="5.29466">
        <ele>315.4</ele>
        <time>2025-05-27T10:17:22Z</time>
      </trkpt>
      <trkpt lat="45.69253" lon="5.29468">
        <ele>315.6</ele>
        <time>2025-05-27T10:17:23Z</time>
      </trkpt>
      <trkpt lat="45.69255" lon="5.2947">
        <ele>315.6</ele>
        <time>2025-05-27T10:17:24Z</time>
      </trkpt>
      <trkpt lat="45.69256" lon="5.29471">
        <ele>315.6</ele>
        <time>2025-05-27T10:17:25Z</time>
      </trkpt>
      <trkpt lat="45.69258" lon="5.29473">
        <ele>316</ele>
        <time>2025-05-27T10:17:26Z</time>
      </trkpt>
      <trkpt lat="45.6926" lon="5.29475">
        <ele>316</ele>
        <time>2025-05-27T10:17:27Z</time>
      </trkpt>
      <trkpt lat="45.69262" lon="5.29477">
        <ele>316.2</ele>
        <time>2025-05-27T10:17:28Z</time>
      </trkpt>
      <trkpt lat="45.69265" lon="5.29479">
        <ele>316.2</ele>
        <time>2025-05-27T10:17:29Z</time>
      </trkpt>
      <trkpt lat="45.69266" lon="5.2948">
        <ele>316.6</ele>
        <time>2025-05-27T10:17:30Z</time>
      </trkpt>
      <trkpt lat="45.69268" lon="5.29481">
        <ele>316.6</ele>
        <time>2025-05-27T10:17:31Z</time>
      </trkpt>
      <trkpt lat="45.69269" lon="5.29481">
        <ele>317</ele>
        <time>2025-05-27T10:17:32Z</time>
      </trkpt>
      <trkpt lat="45.69271" lon="5.29483">
        <ele>317.2</ele>
        <time>2025-05-27T10:17:33Z</time>
      </trkpt>
      <trkpt lat="45.69271" lon="5.29483">
        <ele>317.2</ele>
        <time>2025-05-27T10:17:34Z</time>
      </trkpt>
      <trkpt lat="45.69272" lon="5.29484">
        <ele>317.2</ele>
        <time>2025-05-27T10:17:35Z</time>
      </trkpt>
      <trkpt lat="45.69274" lon="5.29485">
        <ele>317.4</ele>
        <time>2025-05-27T10:17:36Z</time>
      </trkpt>
      <trkpt lat="45.69276" lon="5.29486">
        <ele>317.6</ele>
        <time>2025-05-27T10:17:37Z</time>
      </trkpt>
      <trkpt lat="45.69278" lon="5.29487">
        <ele>317.6</ele>
        <time>2025-05-27T10:17:38Z</time>
      </trkpt>
      <trkpt lat="45.6928" lon="5.29487">
        <ele>318</ele>
        <time>2025-05-27T10:17:39Z</time>
      </trkpt>
      <trkpt lat="45.69281" lon="5.29488">
        <ele>318</ele>
        <time>2025-05-27T10:17:40Z</time>
      </trkpt>
      <trkpt lat="45.69283" lon="5.29488">
        <ele>318.2</ele>
        <time>2025-05-27T10:17:41Z</time>
      </trkpt>
      <trkpt lat="45.69285" lon="5.29488">
        <ele>318.2</ele>
        <time>2025-05-27T10:17:42Z</time>
      </trkpt>
      <trkpt lat="45.69287" lon="5.29489">
        <ele>318.4</ele>
        <time>2025-05-27T10:17:43Z</time>
      </trkpt>
      <trkpt lat="45.69289" lon="5.29489">
        <ele>318.4</ele>
        <time>2025-05-27T10:17:44Z</time>
      </trkpt>
      <trkpt lat="45.69291" lon="5.2949">
        <ele>318.4</ele>
        <time>2025-05-27T10:17:45Z</time>
      </trkpt>
      <trkpt lat="45.69293" lon="5.29491">
        <ele>318.8</ele>
        <time>2025-05-27T10:17:46Z</time>
      </trkpt>
      <trkpt lat="45.69297" lon="5.29491">
        <ele>318.8</ele>
        <time>2025-05-27T10:17:47Z</time>
      </trkpt>
      <trkpt lat="45.69299" lon="5.29491">
        <ele>318.8</ele>
        <time>2025-05-27T10:17:48Z</time>
      </trkpt>
      <trkpt lat="45.69301" lon="5.29491">
        <ele>318.8</ele>
        <time>2025-05-27T10:17:49Z</time>
      </trkpt>
      <trkpt lat="45.69302" lon="5.29492">
        <ele>318.8</ele>
        <time>2025-05-27T10:17:50Z</time>
      </trkpt>
      <trkpt lat="45.69304" lon="5.29492">
        <ele>319.2</ele>
        <time>2025-05-27T10:17:51Z</time>
      </trkpt>
      <trkpt lat="45.69307" lon="5.29492">
        <ele>319.2</ele>
        <time>2025-05-27T10:17:52Z</time>
      </trkpt>
      <trkpt lat="45.69309" lon="5.29492">
        <ele>319</ele>
        <time>2025-05-27T10:17:53Z</time>
      </trkpt>
      <trkpt lat="45.69312" lon="5.29492">
        <ele>319</ele>
        <time>2025-05-27T10:17:54Z</time>
      </trkpt>
      <trkpt lat="45.69313" lon="5.29492">
        <ele>318.4</ele>
        <time>2025-05-27T10:17:55Z</time>
      </trkpt>
      <trkpt lat="45.69315" lon="5.29493">
        <ele>318.4</ele>
        <time>2025-05-27T10:17:56Z</time>
      </trkpt>
      <trkpt lat="45.69317" lon="5.29495">
        <ele>318.4</ele>
        <time>2025-05-27T10:17:57Z</time>
      </trkpt>
      <trkpt lat="45.69319" lon="5.29497">
        <ele>318.8</ele>
        <time>2025-05-27T10:17:58Z</time>
      </trkpt>
      <trkpt lat="45.69321" lon="5.29498">
        <ele>318.8</ele>
        <time>2025-05-27T10:17:59Z</time>
      </trkpt>
      <trkpt lat="45.69324" lon="5.29501">
        <ele>319</ele>
        <time>2025-05-27T10:18:00Z</time>
      </trkpt>
      <trkpt lat="45.69326" lon="5.29502">
        <ele>319.2</ele>
        <time>2025-05-27T10:18:01Z</time>
      </trkpt>
      <trkpt lat="45.69329" lon="5.29504">
        <ele>319.2</ele>
        <time>2025-05-27T10:18:02Z</time>
      </trkpt>
      <trkpt lat="45.6933" lon="5.29506">
        <ele>319.2</ele>
        <time>2025-05-27T10:18:03Z</time>
      </trkpt>
      <trkpt lat="45.69332" lon="5.29508">
        <ele>319.6</ele>
        <time>2025-05-27T10:18:04Z</time>
      </trkpt>
      <trkpt lat="45.69335" lon="5.29509">
        <ele>319.6</ele>
        <time>2025-05-27T10:18:05Z</time>
      </trkpt>
      <trkpt lat="45.69337" lon="5.29511">
        <ele>319.6</ele>
        <time>2025-05-27T10:18:06Z</time>
      </trkpt>
      <trkpt lat="45.69339" lon="5.29511">
        <ele>320</ele>
        <time>2025-05-27T10:18:07Z</time>
      </trkpt>
      <trkpt lat="45.69342" lon="5.29512">
        <ele>320</ele>
        <time>2025-05-27T10:18:08Z</time>
      </trkpt>
      <trkpt lat="45.69342" lon="5.29512">
        <ele>320</ele>
        <time>2025-05-27T10:18:09Z</time>
      </trkpt>
      <trkpt lat="45.69344" lon="5.29513">
        <ele>320</ele>
        <time>2025-05-27T10:18:10Z</time>
      </trkpt>
      <trkpt lat="45.69346" lon="5.29514">
        <ele>320</ele>
        <time>2025-05-27T10:18:11Z</time>
      </trkpt>
      <trkpt lat="45.69349" lon="5.29516">
        <ele>320.4</ele>
        <time>2025-05-27T10:18:12Z</time>
      </trkpt>
      <trkpt lat="45.69349" lon="5.29516">
        <ele>320.4</ele>
        <time>2025-05-27T10:18:13Z</time>
      </trkpt>
      <trkpt lat="45.69349" lon="5.29516">
        <ele>320.4</ele>
        <time>2025-05-27T10:18:14Z</time>
      </trkpt>
      <trkpt lat="45.69354" lon="5.29517">
        <ele>320.4</ele>
        <time>2025-05-27T10:18:15Z</time>
      </trkpt>
      <trkpt lat="45.69356" lon="5.29517">
        <ele>320.4</ele>
        <time>2025-05-27T10:18:16Z</time>
      </trkpt>
      <trkpt lat="45.69358" lon="5.29517">
        <ele>320.4</ele>
        <time>2025-05-27T10:18:17Z</time>
      </trkpt>
      <trkpt lat="45.6936" lon="5.29518">
        <ele>320.4</ele>
        <time>2025-05-27T10:18:18Z</time>
      </trkpt>
      <trkpt lat="45.69362" lon="5.29519">
        <ele>320.4</ele>
        <time>2025-05-27T10:18:19Z</time>
      </trkpt>
      <trkpt lat="45.69365" lon="5.2952">
        <ele>320.8</ele>
        <time>2025-05-27T10:18:20Z</time>
      </trkpt>
      <trkpt lat="45.69368" lon="5.29521">
        <ele>320.4</ele>
        <time>2025-05-27T10:18:21Z</time>
      </trkpt>
      <trkpt lat="45.69371" lon="5.29522">
        <ele>320.4</ele>
        <time>2025-05-27T10:18:22Z</time>
      </trkpt>
      <trkpt lat="45.69374" lon="5.29522">
        <ele>320.4</ele>
        <time>2025-05-27T10:18:23Z</time>
      </trkpt>
      <trkpt lat="45.69376" lon="5.29522">
        <ele>320.4</ele>
        <time>2025-05-27T10:18:24Z</time>
      </trkpt>
      <trkpt lat="45.69379" lon="5.29523">
        <ele>320.4</ele>
        <time>2025-05-27T10:18:25Z</time>
      </trkpt>
      <trkpt lat="45.69382" lon="5.29524">
        <ele>320.4</ele>
        <time>2025-05-27T10:18:26Z</time>
      </trkpt>
      <trkpt lat="45.69386" lon="5.29525">
        <ele>320.4</ele>
        <time>2025-05-27T10:18:27Z</time>
      </trkpt>
      <trkpt lat="45.69389" lon="5.29527">
        <ele>320.8</ele>
        <time>2025-05-27T10:18:28Z</time>
      </trkpt>
      <trkpt lat="45.69391" lon="5.29529">
        <ele>320.8</ele>
        <time>2025-05-27T10:18:29Z</time>
      </trkpt>
      <trkpt lat="45.69393" lon="5.2953">
        <ele>320.4</ele>
        <time>2025-05-27T10:18:30Z</time>
      </trkpt>
      <trkpt lat="45.69396" lon="5.29532">
        <ele>320.4</ele>
        <time>2025-05-27T10:18:31Z</time>
      </trkpt>
      <trkpt lat="45.69399" lon="5.29534">
        <ele>320.4</ele>
        <time>2025-05-27T10:18:32Z</time>
      </trkpt>
      <trkpt lat="45.69402" lon="5.29535">
        <ele>320.2</ele>
        <time>2025-05-27T10:18:33Z</time>
      </trkpt>
      <trkpt lat="45.69405" lon="5.29536">
        <ele>320.2</ele>
        <time>2025-05-27T10:18:34Z</time>
      </trkpt>
      <trkpt lat="45.69407" lon="5.29538">
        <ele>320.2</ele>
        <time>2025-05-27T10:18:35Z</time>
      </trkpt>
      <trkpt lat="45.69411" lon="5.29541">
        <ele>320.2</ele>
        <time>2025-05-27T10:18:36Z</time>
      </trkpt>
      <trkpt lat="45.69414" lon="5.29543">
        <ele>320.2</ele>
        <time>2025-05-27T10:18:37Z</time>
      </trkpt>
      <trkpt lat="45.69416" lon="5.29545">
        <ele>320.2</ele>
        <time>2025-05-27T10:18:38Z</time>
      </trkpt>
      <trkpt lat="45.69418" lon="5.29546">
        <ele>320.2</ele>
        <time>2025-05-27T10:18:39Z</time>
      </trkpt>
      <trkpt lat="45.6942" lon="5.29547">
        <ele>320.2</ele>
        <time>2025-05-27T10:18:40Z</time>
      </trkpt>
      <trkpt lat="45.69422" lon="5.29549">
        <ele>320.2</ele>
        <time>2025-05-27T10:18:41Z</time>
      </trkpt>
      <trkpt lat="45.69425" lon="5.2955">
        <ele>320.2</ele>
        <time>2025-05-27T10:18:42Z</time>
      </trkpt>
      <trkpt lat="45.69427" lon="5.29552">
        <ele>320.2</ele>
        <time>2025-05-27T10:18:43Z</time>
      </trkpt>
      <trkpt lat="45.6943" lon="5.29554">
        <ele>320.2</ele>
        <time>2025-05-27T10:18:44Z</time>
      </trkpt>
      <trkpt lat="45.69434" lon="5.29557">
        <ele>320.4</ele>
        <time>2025-05-27T10:18:45Z</time>
      </trkpt>
      <trkpt lat="45.69439" lon="5.2956">
        <ele>320.8</ele>
        <time>2025-05-27T10:18:46Z</time>
      </trkpt>
      <trkpt lat="45.69443" lon="5.29561">
        <ele>320.8</ele>
        <time>2025-05-27T10:18:47Z</time>
      </trkpt>
      <trkpt lat="45.69447" lon="5.29563">
        <ele>320.8</ele>
        <time>2025-05-27T10:18:48Z</time>
      </trkpt>
      <trkpt lat="45.6945" lon="5.29564">
        <ele>321.2</ele>
        <time>2025-05-27T10:18:49Z</time>
      </trkpt>
      <trkpt lat="45.69453" lon="5.29566">
        <ele>321.2</ele>
        <time>2025-05-27T10:18:50Z</time>
      </trkpt>
      <trkpt lat="45.69457" lon="5.29569">
        <ele>321.4</ele>
        <time>2025-05-27T10:18:51Z</time>
      </trkpt>
      <trkpt lat="45.6946" lon="5.29571">
        <ele>321.4</ele>
        <time>2025-05-27T10:18:52Z</time>
      </trkpt>
      <trkpt lat="45.69463" lon="5.29573">
        <ele>321.4</ele>
        <time>2025-05-27T10:18:53Z</time>
      </trkpt>
      <trkpt lat="45.69466" lon="5.29576">
        <ele>321.4</ele>
        <time>2025-05-27T10:18:54Z</time>
      </trkpt>
      <trkpt lat="45.69469" lon="5.29578">
        <ele>321.4</ele>
        <time>2025-05-27T10:18:55Z</time>
      </trkpt>
      <trkpt lat="45.69472" lon="5.2958">
        <ele>321.4</ele>
        <time>2025-05-27T10:18:56Z</time>
      </trkpt>
      <trkpt lat="45.69474" lon="5.29583">
        <ele>321.4</ele>
        <time>2025-05-27T10:18:57Z</time>
      </trkpt>
      <trkpt lat="45.69476" lon="5.29585">
        <ele>321.8</ele>
        <time>2025-05-27T10:18:58Z</time>
      </trkpt>
      <trkpt lat="45.69478" lon="5.29587">
        <ele>321.8</ele>
        <time>2025-05-27T10:18:59Z</time>
      </trkpt>
      <trkpt lat="45.6948" lon="5.29589">
        <ele>322</ele>
        <time>2025-05-27T10:19:00Z</time>
      </trkpt>
      <trkpt lat="45.69481" lon="5.29591">
        <ele>322</ele>
        <time>2025-05-27T10:19:01Z</time>
      </trkpt>
      <trkpt lat="45.69484" lon="5.29594">
        <ele>322</ele>
        <time>2025-05-27T10:19:02Z</time>
      </trkpt>
      <trkpt lat="45.69487" lon="5.29597">
        <ele>322</ele>
        <time>2025-05-27T10:19:03Z</time>
      </trkpt>
      <trkpt lat="45.69489" lon="5.29599">
        <ele>322</ele>
        <time>2025-05-27T10:19:04Z</time>
      </trkpt>
      <trkpt lat="45.69491" lon="5.29601">
        <ele>322</ele>
        <time>2025-05-27T10:19:05Z</time>
      </trkpt>
      <trkpt lat="45.69493" lon="5.29603">
        <ele>322.2</ele>
        <time>2025-05-27T10:19:06Z</time>
      </trkpt>
      <trkpt lat="45.69495" lon="5.29605">
        <ele>322.2</ele>
        <time>2025-05-27T10:19:07Z</time>
      </trkpt>
      <trkpt lat="45.69498" lon="5.29608">
        <ele>322.6</ele>
        <time>2025-05-27T10:19:08Z</time>
      </trkpt>
      <trkpt lat="45.695" lon="5.2961">
        <ele>322.8</ele>
        <time>2025-05-27T10:19:09Z</time>
      </trkpt>
      <trkpt lat="45.69502" lon="5.29611">
        <ele>322.8</ele>
        <time>2025-05-27T10:19:10Z</time>
      </trkpt>
      <trkpt lat="45.69503" lon="5.29611">
        <ele>323.4</ele>
        <time>2025-05-27T10:19:11Z</time>
      </trkpt>
      <trkpt lat="45.69504" lon="5.29611">
        <ele>323.6</ele>
        <time>2025-05-27T10:19:12Z</time>
      </trkpt>
      <trkpt lat="45.69506" lon="5.29611">
        <ele>323.6</ele>
        <time>2025-05-27T10:19:13Z</time>
      </trkpt>
      <trkpt lat="45.69508" lon="5.29612">
        <ele>323.6</ele>
        <time>2025-05-27T10:19:14Z</time>
      </trkpt>
      <trkpt lat="45.6951" lon="5.29613">
        <ele>324</ele>
        <time>2025-05-27T10:19:15Z</time>
      </trkpt>
      <trkpt lat="45.69513" lon="5.29615">
        <ele>324</ele>
        <time>2025-05-27T10:19:16Z</time>
      </trkpt>
      <trkpt lat="45.69515" lon="5.29616">
        <ele>323.8</ele>
        <time>2025-05-27T10:19:17Z</time>
      </trkpt>
      <trkpt lat="45.69517" lon="5.29618">
        <ele>323.8</ele>
        <time>2025-05-27T10:19:18Z</time>
      </trkpt>
      <trkpt lat="45.6952" lon="5.29619">
        <ele>324.4</ele>
        <time>2025-05-27T10:19:19Z</time>
      </trkpt>
      <trkpt lat="45.69523" lon="5.29621">
        <ele>324.4</ele>
        <time>2025-05-27T10:19:20Z</time>
      </trkpt>
      <trkpt lat="45.69526" lon="5.29622">
        <ele>324.6</ele>
        <time>2025-05-27T10:19:21Z</time>
      </trkpt>
      <trkpt lat="45.69529" lon="5.29623">
        <ele>324.8</ele>
        <time>2025-05-27T10:19:22Z</time>
      </trkpt>
      <trkpt lat="45.69531" lon="5.29623">
        <ele>324.8</ele>
        <time>2025-05-27T10:19:23Z</time>
      </trkpt>
      <trkpt lat="45.69534" lon="5.29624">
        <ele>324.8</ele>
        <time>2025-05-27T10:19:24Z</time>
      </trkpt>
      <trkpt lat="45.69537" lon="5.29624">
        <ele>324.8</ele>
        <time>2025-05-27T10:19:25Z</time>
      </trkpt>
      <trkpt lat="45.69539" lon="5.29625">
        <ele>324.8</ele>
        <time>2025-05-27T10:19:26Z</time>
      </trkpt>
      <trkpt lat="45.69541" lon="5.29627">
        <ele>325.2</ele>
        <time>2025-05-27T10:19:27Z</time>
      </trkpt>
      <trkpt lat="45.69543" lon="5.29629">
        <ele>325.2</ele>
        <time>2025-05-27T10:19:28Z</time>
      </trkpt>
      <trkpt lat="45.69546" lon="5.29632">
        <ele>325.2</ele>
        <time>2025-05-27T10:19:29Z</time>
      </trkpt>
      <trkpt lat="45.69548" lon="5.29633">
        <ele>325.6</ele>
        <time>2025-05-27T10:19:30Z</time>
      </trkpt>
      <trkpt lat="45.6955" lon="5.29633">
        <ele>325.6</ele>
        <time>2025-05-27T10:19:31Z</time>
      </trkpt>
      <trkpt lat="45.69552" lon="5.29633">
        <ele>325.6</ele>
        <time>2025-05-27T10:19:32Z</time>
      </trkpt>
      <trkpt lat="45.69554" lon="5.29634">
        <ele>325.8</ele>
        <time>2025-05-27T10:19:33Z</time>
      </trkpt>
      <trkpt lat="45.69557" lon="5.29635">
        <ele>325.8</ele>
        <time>2025-05-27T10:19:34Z</time>
      </trkpt>
      <trkpt lat="45.69558" lon="5.29637">
        <ele>326</ele>
        <time>2025-05-27T10:19:35Z</time>
      </trkpt>
      <trkpt lat="45.69559" lon="5.29638">
        <ele>326</ele>
        <time>2025-05-27T10:19:36Z</time>
      </trkpt>
      <trkpt lat="45.6956" lon="5.29639">
        <ele>326.2</ele>
        <time>2025-05-27T10:19:37Z</time>
      </trkpt>
      <trkpt lat="45.69561" lon="5.29641">
        <ele>326.8</ele>
        <time>2025-05-27T10:19:38Z</time>
      </trkpt>
      <trkpt lat="45.69562" lon="5.29643">
        <ele>326.8</ele>
        <time>2025-05-27T10:19:39Z</time>
      </trkpt>
      <trkpt lat="45.69563" lon="5.29644">
        <ele>326.8</ele>
        <time>2025-05-27T10:19:40Z</time>
      </trkpt>
      <trkpt lat="45.69564" lon="5.29645">
        <ele>326.8</ele>
        <time>2025-05-27T10:19:41Z</time>
      </trkpt>
      <trkpt lat="45.69567" lon="5.29646">
        <ele>326.8</ele>
        <time>2025-05-27T10:19:42Z</time>
      </trkpt>
      <trkpt lat="45.6957" lon="5.29648">
        <ele>326.8</ele>
        <time>2025-05-27T10:19:43Z</time>
      </trkpt>
      <trkpt lat="45.69573" lon="5.2965">
        <ele>326.8</ele>
        <time>2025-05-27T10:19:44Z</time>
      </trkpt>
      <trkpt lat="45.69576" lon="5.29652">
        <ele>327</ele>
        <time>2025-05-27T10:19:45Z</time>
      </trkpt>
      <trkpt lat="45.69579" lon="5.29655">
        <ele>327</ele>
        <time>2025-05-27T10:19:46Z</time>
      </trkpt>
      <trkpt lat="45.69582" lon="5.29657">
        <ele>327</ele>
        <time>2025-05-27T10:19:47Z</time>
      </trkpt>
      <trkpt lat="45.69584" lon="5.29659">
        <ele>327.2</ele>
        <time>2025-05-27T10:19:48Z</time>
      </trkpt>
      <trkpt lat="45.69587" lon="5.29661">
        <ele>327.2</ele>
        <time>2025-05-27T10:19:49Z</time>
      </trkpt>
      <trkpt lat="45.6959" lon="5.29663">
        <ele>327.2</ele>
        <time>2025-05-27T10:19:50Z</time>
      </trkpt>
      <trkpt lat="45.69593" lon="5.29664">
        <ele>327.6</ele>
        <time>2025-05-27T10:19:51Z</time>
      </trkpt>
      <trkpt lat="45.69595" lon="5.29666">
        <ele>328</ele>
        <time>2025-05-27T10:19:52Z</time>
      </trkpt>
      <trkpt lat="45.69597" lon="5.29667">
        <ele>328</ele>
        <time>2025-05-27T10:19:53Z</time>
      </trkpt>
      <trkpt lat="45.696" lon="5.29669">
        <ele>328</ele>
        <time>2025-05-27T10:19:54Z</time>
      </trkpt>
      <trkpt lat="45.69604" lon="5.29672">
        <ele>328</ele>
        <time>2025-05-27T10:19:55Z</time>
      </trkpt>
      <trkpt lat="45.69607" lon="5.29674">
        <ele>328.2</ele>
        <time>2025-05-27T10:19:56Z</time>
      </trkpt>
      <trkpt lat="45.6961" lon="5.29676">
        <ele>328</ele>
        <time>2025-05-27T10:19:57Z</time>
      </trkpt>
      <trkpt lat="45.69613" lon="5.29678">
        <ele>328</ele>
        <time>2025-05-27T10:19:58Z</time>
      </trkpt>
      <trkpt lat="45.69615" lon="5.29679">
        <ele>328.4</ele>
        <time>2025-05-27T10:19:59Z</time>
      </trkpt>
      <trkpt lat="45.69617" lon="5.29679">
        <ele>328.4</ele>
        <time>2025-05-27T10:20:00Z</time>
      </trkpt>
      <trkpt lat="45.6962" lon="5.2968">
        <ele>328.6</ele>
        <time>2025-05-27T10:20:01Z</time>
      </trkpt>
      <trkpt lat="45.69621" lon="5.2968">
        <ele>328.8</ele>
        <time>2025-05-27T10:20:02Z</time>
      </trkpt>
      <trkpt lat="45.69623" lon="5.29681">
        <ele>328.8</ele>
        <time>2025-05-27T10:20:03Z</time>
      </trkpt>
      <trkpt lat="45.69626" lon="5.29683">
        <ele>328.8</ele>
        <time>2025-05-27T10:20:04Z</time>
      </trkpt>
      <trkpt lat="45.69629" lon="5.29685">
        <ele>329.4</ele>
        <time>2025-05-27T10:20:05Z</time>
      </trkpt>
      <trkpt lat="45.69632" lon="5.29686">
        <ele>329.4</ele>
        <time>2025-05-27T10:20:06Z</time>
      </trkpt>
      <trkpt lat="45.69634" lon="5.29688">
        <ele>329.6</ele>
        <time>2025-05-27T10:20:07Z</time>
      </trkpt>
      <trkpt lat="45.69637" lon="5.2969">
        <ele>329.6</ele>
        <time>2025-05-27T10:20:08Z</time>
      </trkpt>
      <trkpt lat="45.6964" lon="5.29693">
        <ele>329.6</ele>
        <time>2025-05-27T10:20:09Z</time>
      </trkpt>
      <trkpt lat="45.69643" lon="5.29695">
        <ele>330</ele>
        <time>2025-05-27T10:20:10Z</time>
      </trkpt>
      <trkpt lat="45.69645" lon="5.29697">
        <ele>330</ele>
        <time>2025-05-27T10:20:11Z</time>
      </trkpt>
      <trkpt lat="45.69648" lon="5.297">
        <ele>330</ele>
        <time>2025-05-27T10:20:12Z</time>
      </trkpt>
      <trkpt lat="45.69651" lon="5.29703">
        <ele>330.4</ele>
        <time>2025-05-27T10:20:13Z</time>
      </trkpt>
      <trkpt lat="45.69653" lon="5.29706">
        <ele>330.4</ele>
        <time>2025-05-27T10:20:14Z</time>
      </trkpt>
      <trkpt lat="45.69655" lon="5.29709">
        <ele>330.8</ele>
        <time>2025-05-27T10:20:15Z</time>
      </trkpt>
      <trkpt lat="45.69656" lon="5.29713">
        <ele>331.2</ele>
        <time>2025-05-27T10:20:16Z</time>
      </trkpt>
      <trkpt lat="45.69657" lon="5.29715">
        <ele>331.2</ele>
        <time>2025-05-27T10:20:17Z</time>
      </trkpt>
      <trkpt lat="45.69659" lon="5.29716">
        <ele>331.4</ele>
        <time>2025-05-27T10:20:18Z</time>
      </trkpt>
      <trkpt lat="45.6966" lon="5.29718">
        <ele>331.6</ele>
        <time>2025-05-27T10:20:19Z</time>
      </trkpt>
      <trkpt lat="45.69662" lon="5.2972">
        <ele>331.6</ele>
        <time>2025-05-27T10:20:20Z</time>
      </trkpt>
      <trkpt lat="45.69664" lon="5.29721">
        <ele>331.6</ele>
        <time>2025-05-27T10:20:21Z</time>
      </trkpt>
      <trkpt lat="45.69666" lon="5.29723">
        <ele>331.6</ele>
        <time>2025-05-27T10:20:22Z</time>
      </trkpt>
      <trkpt lat="45.69669" lon="5.29725">
        <ele>331.6</ele>
        <time>2025-05-27T10:20:23Z</time>
      </trkpt>
      <trkpt lat="45.69671" lon="5.29727">
        <ele>332</ele>
        <time>2025-05-27T10:20:24Z</time>
      </trkpt>
      <trkpt lat="45.69673" lon="5.29729">
        <ele>332.2</ele>
        <time>2025-05-27T10:20:25Z</time>
      </trkpt>
      <trkpt lat="45.69674" lon="5.29731">
        <ele>332.4</ele>
        <time>2025-05-27T10:20:26Z</time>
      </trkpt>
      <trkpt lat="45.69676" lon="5.29734">
        <ele>332.4</ele>
        <time>2025-05-27T10:20:27Z</time>
      </trkpt>
      <trkpt lat="45.69677" lon="5.29736">
        <ele>332.8</ele>
        <time>2025-05-27T10:20:28Z</time>
      </trkpt>
      <trkpt lat="45.69678" lon="5.29738">
        <ele>332.8</ele>
        <time>2025-05-27T10:20:29Z</time>
      </trkpt>
      <trkpt lat="45.69679" lon="5.2974">
        <ele>332.8</ele>
        <time>2025-05-27T10:20:30Z</time>
      </trkpt>
      <trkpt lat="45.6968" lon="5.29742">
        <ele>333.2</ele>
        <time>2025-05-27T10:20:31Z</time>
      </trkpt>
      <trkpt lat="45.69682" lon="5.29744">
        <ele>333.4</ele>
        <time>2025-05-27T10:20:32Z</time>
      </trkpt>
      <trkpt lat="45.69683" lon="5.29746">
        <ele>333.4</ele>
        <time>2025-05-27T10:20:33Z</time>
      </trkpt>
      <trkpt lat="45.69683" lon="5.29747">
        <ele>333.4</ele>
        <time>2025-05-27T10:20:34Z</time>
      </trkpt>
      <trkpt lat="45.69684" lon="5.29748">
        <ele>333.8</ele>
        <time>2025-05-27T10:20:35Z</time>
      </trkpt>
      <trkpt lat="45.69685" lon="5.2975">
        <ele>333.8</ele>
        <time>2025-05-27T10:20:36Z</time>
      </trkpt>
      <trkpt lat="45.69686" lon="5.29752">
        <ele>334.2</ele>
        <time>2025-05-27T10:20:37Z</time>
      </trkpt>
      <trkpt lat="45.69686" lon="5.29754">
        <ele>334.6</ele>
        <time>2025-05-27T10:20:38Z</time>
      </trkpt>
      <trkpt lat="45.69688" lon="5.29755">
        <ele>334.6</ele>
        <time>2025-05-27T10:20:39Z</time>
      </trkpt>
      <trkpt lat="45.69689" lon="5.29757">
        <ele>334.8</ele>
        <time>2025-05-27T10:20:40Z</time>
      </trkpt>
      <trkpt lat="45.6969" lon="5.29758">
        <ele>334.8</ele>
        <time>2025-05-27T10:20:41Z</time>
      </trkpt>
      <trkpt lat="45.6969" lon="5.29759">
        <ele>335.2</ele>
        <time>2025-05-27T10:20:42Z</time>
      </trkpt>
      <trkpt lat="45.6969" lon="5.2976">
        <ele>335.2</ele>
        <time>2025-05-27T10:20:43Z</time>
      </trkpt>
      <trkpt lat="45.69691" lon="5.29761">
        <ele>336</ele>
        <time>2025-05-27T10:20:44Z</time>
      </trkpt>
      <trkpt lat="45.69693" lon="5.29764">
        <ele>336.6</ele>
        <time>2025-05-27T10:20:45Z</time>
      </trkpt>
      <trkpt lat="45.69694" lon="5.29765">
        <ele>336.6</ele>
        <time>2025-05-27T10:20:46Z</time>
      </trkpt>
      <trkpt lat="45.69694" lon="5.29767">
        <ele>336.8</ele>
        <time>2025-05-27T10:20:47Z</time>
      </trkpt>
      <trkpt lat="45.69695" lon="5.29769">
        <ele>337</ele>
        <time>2025-05-27T10:20:48Z</time>
      </trkpt>
      <trkpt lat="45.69696" lon="5.29771">
        <ele>337</ele>
        <time>2025-05-27T10:20:49Z</time>
      </trkpt>
      <trkpt lat="45.69697" lon="5.29772">
        <ele>337</ele>
        <time>2025-05-27T10:20:50Z</time>
      </trkpt>
      <trkpt lat="45.69697" lon="5.29773">
        <ele>337</ele>
        <time>2025-05-27T10:20:51Z</time>
      </trkpt>
      <trkpt lat="45.69697" lon="5.29774">
        <ele>337.6</ele>
        <time>2025-05-27T10:20:52Z</time>
      </trkpt>
      <trkpt lat="45.69697" lon="5.29775">
        <ele>338</ele>
        <time>2025-05-27T10:20:53Z</time>
      </trkpt>
      <trkpt lat="45.69698" lon="5.29777">
        <ele>338</ele>
        <time>2025-05-27T10:20:54Z</time>
      </trkpt>
      <trkpt lat="45.69698" lon="5.29778">
        <ele>338.4</ele>
        <time>2025-05-27T10:20:55Z</time>
      </trkpt>
      <trkpt lat="45.69699" lon="5.29779">
        <ele>338.4</ele>
        <time>2025-05-27T10:20:56Z</time>
      </trkpt>
      <trkpt lat="45.697" lon="5.29781">
        <ele>338.8</ele>
        <time>2025-05-27T10:20:57Z</time>
      </trkpt>
      <trkpt lat="45.69701" lon="5.29782">
        <ele>339</ele>
        <time>2025-05-27T10:20:58Z</time>
      </trkpt>
      <trkpt lat="45.69701" lon="5.29784">
        <ele>339</ele>
        <time>2025-05-27T10:20:59Z</time>
      </trkpt>
      <trkpt lat="45.697" lon="5.29785">
        <ele>339.6</ele>
        <time>2025-05-27T10:21:00Z</time>
      </trkpt>
      <trkpt lat="45.697" lon="5.29787">
        <ele>339.6</ele>
        <time>2025-05-27T10:21:01Z</time>
      </trkpt>
      <trkpt lat="45.69699" lon="5.29789">
        <ele>338.4</ele>
        <time>2025-05-27T10:21:02Z</time>
      </trkpt>
      <trkpt lat="45.69698" lon="5.2979">
        <ele>338.6</ele>
        <time>2025-05-27T10:21:03Z</time>
      </trkpt>
      <trkpt lat="45.69698" lon="5.2979">
        <ele>338.8</ele>
        <time>2025-05-27T10:21:04Z</time>
      </trkpt>
      <trkpt lat="45.69697" lon="5.29791">
        <ele>338.8</ele>
        <time>2025-05-27T10:21:05Z</time>
      </trkpt>
      <trkpt lat="45.69695" lon="5.29791">
        <ele>339.4</ele>
        <time>2025-05-27T10:21:06Z</time>
      </trkpt>
      <trkpt lat="45.69694" lon="5.29792">
        <ele>339.4</ele>
        <time>2025-05-27T10:21:07Z</time>
      </trkpt>
      <trkpt lat="45.69693" lon="5.29794">
        <ele>339.4</ele>
        <time>2025-05-27T10:21:08Z</time>
      </trkpt>
      <trkpt lat="45.69693" lon="5.29796">
        <ele>339.6</ele>
        <time>2025-05-27T10:21:09Z</time>
      </trkpt>
      <trkpt lat="45.69693" lon="5.29797">
        <ele>339.6</ele>
        <time>2025-05-27T10:21:10Z</time>
      </trkpt>
      <trkpt lat="45.69693" lon="5.29798">
        <ele>339.6</ele>
        <time>2025-05-27T10:21:11Z</time>
      </trkpt>
      <trkpt lat="45.69693" lon="5.29799">
        <ele>339.6</ele>
        <time>2025-05-27T10:21:12Z</time>
      </trkpt>
      <trkpt lat="45.69693" lon="5.29799">
        <ele>339.6</ele>
        <time>2025-05-27T10:21:13Z</time>
      </trkpt>
      <trkpt lat="45.69693" lon="5.298">
        <ele>340.2</ele>
        <time>2025-05-27T10:21:32Z</time>
      </trkpt>
      <trkpt lat="45.69694" lon="5.298">
        <ele>340.2</ele>
        <time>2025-05-27T10:21:33Z</time>
      </trkpt>
      <trkpt lat="45.69695" lon="5.298">
        <ele>340.2</ele>
        <time>2025-05-27T10:21:34Z</time>
      </trkpt>
      <trkpt lat="45.69696" lon="5.29799">
        <ele>340.4</ele>
        <time>2025-05-27T10:21:35Z</time>
      </trkpt>
      <trkpt lat="45.69697" lon="5.29797">
        <ele>340.4</ele>
        <time>2025-05-27T10:21:36Z</time>
      </trkpt>
      <trkpt lat="45.69698" lon="5.29795">
        <ele>340.2</ele>
        <time>2025-05-27T10:21:37Z</time>
      </trkpt>
      <trkpt lat="45.69698" lon="5.29792">
        <ele>340</ele>
        <time>2025-05-27T10:21:38Z</time>
      </trkpt>
      <trkpt lat="45.69699" lon="5.29789">
        <ele>339.2</ele>
        <time>2025-05-27T10:21:39Z</time>
      </trkpt>
      <trkpt lat="45.69699" lon="5.29786">
        <ele>339.2</ele>
        <time>2025-05-27T10:21:40Z</time>
      </trkpt>
      <trkpt lat="45.69699" lon="5.29783">
        <ele>339.2</ele>
        <time>2025-05-27T10:21:41Z</time>
      </trkpt>
      <trkpt lat="45.697" lon="5.2978">
        <ele>339.2</ele>
        <time>2025-05-27T10:21:42Z</time>
      </trkpt>
      <trkpt lat="45.69701" lon="5.29778">
        <ele>339.2</ele>
        <time>2025-05-27T10:21:43Z</time>
      </trkpt>
      <trkpt lat="45.69702" lon="5.29775">
        <ele>339.2</ele>
        <time>2025-05-27T10:21:44Z</time>
      </trkpt>
      <trkpt lat="45.69703" lon="5.29772">
        <ele>339</ele>
        <time>2025-05-27T10:21:45Z</time>
      </trkpt>
      <trkpt lat="45.69704" lon="5.29771">
        <ele>339</ele>
        <time>2025-05-27T10:21:46Z</time>
      </trkpt>
      <trkpt lat="45.69704" lon="5.2977">
        <ele>339</ele>
        <time>2025-05-27T10:21:47Z</time>
      </trkpt>
      <trkpt lat="45.69704" lon="5.2977">
        <ele>339</ele>
        <time>2025-05-27T10:21:48Z</time>
      </trkpt>
      <trkpt lat="45.69705" lon="5.29765">
        <ele>338.8</ele>
        <time>2025-05-27T10:28:18Z</time>
      </trkpt>
      <trkpt lat="45.69706" lon="5.29764">
        <ele>338.8</ele>
        <time>2025-05-27T10:28:19Z</time>
      </trkpt>
      <trkpt lat="45.69707" lon="5.29762">
        <ele>338.8</ele>
        <time>2025-05-27T10:28:20Z</time>
      </trkpt>
      <trkpt lat="45.69708" lon="5.29759">
        <ele>338.8</ele>
        <time>2025-05-27T10:28:21Z</time>
      </trkpt>
      <trkpt lat="45.69709" lon="5.29756">
        <ele>338.8</ele>
        <time>2025-05-27T10:28:22Z</time>
      </trkpt>
      <trkpt lat="45.69711" lon="5.29753">
        <ele>338.8</ele>
        <time>2025-05-27T10:28:23Z</time>
      </trkpt>
      <trkpt lat="45.69712" lon="5.2975">
        <ele>338.8</ele>
        <time>2025-05-27T10:28:24Z</time>
      </trkpt>
      <trkpt lat="45.69713" lon="5.29748">
        <ele>338.8</ele>
        <time>2025-05-27T10:28:25Z</time>
      </trkpt>
      <trkpt lat="45.69714" lon="5.29745">
        <ele>338.8</ele>
        <time>2025-05-27T10:28:26Z</time>
      </trkpt>
      <trkpt lat="45.69715" lon="5.29742">
        <ele>338.8</ele>
        <time>2025-05-27T10:28:27Z</time>
      </trkpt>
      <trkpt lat="45.69716" lon="5.29739">
        <ele>338.8</ele>
        <time>2025-05-27T10:28:28Z</time>
      </trkpt>
      <trkpt lat="45.69718" lon="5.29737">
        <ele>338.8</ele>
        <time>2025-05-27T10:28:29Z</time>
      </trkpt>
      <trkpt lat="45.6972" lon="5.29734">
        <ele>338.8</ele>
        <time>2025-05-27T10:28:30Z</time>
      </trkpt>
      <trkpt lat="45.69723" lon="5.29732">
        <ele>338.8</ele>
        <time>2025-05-27T10:28:31Z</time>
      </trkpt>
      <trkpt lat="45.69726" lon="5.29729">
        <ele>339</ele>
        <time>2025-05-27T10:28:32Z</time>
      </trkpt>
      <trkpt lat="45.69729" lon="5.29727">
        <ele>339</ele>
        <time>2025-05-27T10:28:33Z</time>
      </trkpt>
      <trkpt lat="45.69731" lon="5.29726">
        <ele>339</ele>
        <time>2025-05-27T10:28:34Z</time>
      </trkpt>
      <trkpt lat="45.69734" lon="5.29726">
        <ele>339</ele>
        <time>2025-05-27T10:28:35Z</time>
      </trkpt>
      <trkpt lat="45.69737" lon="5.29725">
        <ele>339</ele>
        <time>2025-05-27T10:28:36Z</time>
      </trkpt>
      <trkpt lat="45.6974" lon="5.29724">
        <ele>339</ele>
        <time>2025-05-27T10:28:37Z</time>
      </trkpt>
      <trkpt lat="45.69743" lon="5.29724">
        <ele>339</ele>
        <time>2025-05-27T10:28:38Z</time>
      </trkpt>
      <trkpt lat="45.69746" lon="5.29724">
        <ele>339</ele>
        <time>2025-05-27T10:28:39Z</time>
      </trkpt>
      <trkpt lat="45.69749" lon="5.29723">
        <ele>339.2</ele>
        <time>2025-05-27T10:28:40Z</time>
      </trkpt>
      <trkpt lat="45.69753" lon="5.29722">
        <ele>339.2</ele>
        <time>2025-05-27T10:28:41Z</time>
      </trkpt>
      <trkpt lat="45.69754" lon="5.29721">
        <ele>339.6</ele>
        <time>2025-05-27T10:28:42Z</time>
      </trkpt>
      <trkpt lat="45.69756" lon="5.2972">
        <ele>339.6</ele>
        <time>2025-05-27T10:28:43Z</time>
      </trkpt>
      <trkpt lat="45.69758" lon="5.29719">
        <ele>340</ele>
        <time>2025-05-27T10:28:44Z</time>
      </trkpt>
      <trkpt lat="45.6976" lon="5.29718">
        <ele>340.4</ele>
        <time>2025-05-27T10:28:45Z</time>
      </trkpt>
      <trkpt lat="45.69761" lon="5.29717">
        <ele>340.4</ele>
        <time>2025-05-27T10:28:46Z</time>
      </trkpt>
      <trkpt lat="45.69763" lon="5.29716">
        <ele>340.8</ele>
        <time>2025-05-27T10:28:47Z</time>
      </trkpt>
      <trkpt lat="45.69764" lon="5.29715">
        <ele>340.8</ele>
        <time>2025-05-27T10:28:48Z</time>
      </trkpt>
      <trkpt lat="45.69766" lon="5.29713">
        <ele>341</ele>
        <time>2025-05-27T10:28:49Z</time>
      </trkpt>
      <trkpt lat="45.69768" lon="5.2971">
        <ele>341</ele>
        <time>2025-05-27T10:28:50Z</time>
      </trkpt>
      <trkpt lat="45.6977" lon="5.29707">
        <ele>341.4</ele>
        <time>2025-05-27T10:28:51Z</time>
      </trkpt>
      <trkpt lat="45.69772" lon="5.29705">
        <ele>341.4</ele>
        <time>2025-05-27T10:28:52Z</time>
      </trkpt>
      <trkpt lat="45.69774" lon="5.29701">
        <ele>341.4</ele>
        <time>2025-05-27T10:28:53Z</time>
      </trkpt>
      <trkpt lat="45.69777" lon="5.29698">
        <ele>341.4</ele>
        <time>2025-05-27T10:28:54Z</time>
      </trkpt>
      <trkpt lat="45.69779" lon="5.29694">
        <ele>341</ele>
        <time>2025-05-27T10:28:55Z</time>
      </trkpt>
      <trkpt lat="45.69781" lon="5.29691">
        <ele>341</ele>
        <time>2025-05-27T10:28:56Z</time>
      </trkpt>
      <trkpt lat="45.69784" lon="5.29688">
        <ele>341.4</ele>
        <time>2025-05-27T10:28:57Z</time>
      </trkpt>
      <trkpt lat="45.69784" lon="5.29688">
        <ele>341.8</ele>
        <time>2025-05-27T10:28:58Z</time>
      </trkpt>
      <trkpt lat="45.69786" lon="5.29685">
        <ele>341.8</ele>
        <time>2025-05-27T10:28:59Z</time>
      </trkpt>
      <trkpt lat="45.69788" lon="5.29682">
        <ele>341.8</ele>
        <time>2025-05-27T10:29:00Z</time>
      </trkpt>
      <trkpt lat="45.6979" lon="5.29679">
        <ele>341.8</ele>
        <time>2025-05-27T10:29:01Z</time>
      </trkpt>
      <trkpt lat="45.69791" lon="5.29676">
        <ele>342.2</ele>
        <time>2025-05-27T10:29:02Z</time>
      </trkpt>
      <trkpt lat="45.69793" lon="5.29673">
        <ele>342.2</ele>
        <time>2025-05-27T10:29:03Z</time>
      </trkpt>
      <trkpt lat="45.69795" lon="5.29669">
        <ele>342.2</ele>
        <time>2025-05-27T10:29:04Z</time>
      </trkpt>
      <trkpt lat="45.69797" lon="5.29667">
        <ele>342.4</ele>
        <time>2025-05-27T10:29:05Z</time>
      </trkpt>
      <trkpt lat="45.69798" lon="5.29664">
        <ele>342.6</ele>
        <time>2025-05-27T10:29:06Z</time>
      </trkpt>
      <trkpt lat="45.69799" lon="5.29662">
        <ele>342.6</ele>
        <time>2025-05-27T10:29:07Z</time>
      </trkpt>
      <trkpt lat="45.69801" lon="5.29659">
        <ele>343</ele>
        <time>2025-05-27T10:29:08Z</time>
      </trkpt>
      <trkpt lat="45.69802" lon="5.29657">
        <ele>343</ele>
        <time>2025-05-27T10:29:09Z</time>
      </trkpt>
      <trkpt lat="45.69804" lon="5.29656">
        <ele>343</ele>
        <time>2025-05-27T10:29:10Z</time>
      </trkpt>
      <trkpt lat="45.69806" lon="5.29654">
        <ele>343.2</ele>
        <time>2025-05-27T10:29:11Z</time>
      </trkpt>
      <trkpt lat="45.69809" lon="5.29653">
        <ele>343.2</ele>
        <time>2025-05-27T10:29:12Z</time>
      </trkpt>
      <trkpt lat="45.69811" lon="5.29651">
        <ele>343.6</ele>
        <time>2025-05-27T10:29:13Z</time>
      </trkpt>
      <trkpt lat="45.69814" lon="5.2965">
        <ele>343.6</ele>
        <time>2025-05-27T10:29:14Z</time>
      </trkpt>
      <trkpt lat="45.69816" lon="5.29649">
        <ele>344</ele>
        <time>2025-05-27T10:29:15Z</time>
      </trkpt>
      <trkpt lat="45.69819" lon="5.29647">
        <ele>344</ele>
        <time>2025-05-27T10:29:16Z</time>
      </trkpt>
      <trkpt lat="45.69821" lon="5.29644">
        <ele>344</ele>
        <time>2025-05-27T10:29:17Z</time>
      </trkpt>
      <trkpt lat="45.69823" lon="5.2964">
        <ele>344</ele>
        <time>2025-05-27T10:29:18Z</time>
      </trkpt>
      <trkpt lat="45.69824" lon="5.29637">
        <ele>344.4</ele>
        <time>2025-05-27T10:29:19Z</time>
      </trkpt>
      <trkpt lat="45.69825" lon="5.29634">
        <ele>344.4</ele>
        <time>2025-05-27T10:29:20Z</time>
      </trkpt>
      <trkpt lat="45.69826" lon="5.2963">
        <ele>344.8</ele>
        <time>2025-05-27T10:29:21Z</time>
      </trkpt>
      <trkpt lat="45.69828" lon="5.29627">
        <ele>345</ele>
        <time>2025-05-27T10:29:22Z</time>
      </trkpt>
      <trkpt lat="45.6983" lon="5.29625">
        <ele>345</ele>
        <time>2025-05-27T10:29:23Z</time>
      </trkpt>
      <trkpt lat="45.69832" lon="5.29624">
        <ele>345</ele>
        <time>2025-05-27T10:29:24Z</time>
      </trkpt>
      <trkpt lat="45.69834" lon="5.29623">
        <ele>345</ele>
        <time>2025-05-27T10:29:25Z</time>
      </trkpt>
      <trkpt lat="45.69836" lon="5.29622">
        <ele>344.8</ele>
        <time>2025-05-27T10:29:26Z</time>
      </trkpt>
      <trkpt lat="45.69838" lon="5.2962">
        <ele>344.8</ele>
        <time>2025-05-27T10:29:27Z</time>
      </trkpt>
      <trkpt lat="45.69841" lon="5.29617">
        <ele>344.8</ele>
        <time>2025-05-27T10:29:28Z</time>
      </trkpt>
      <trkpt lat="45.69844" lon="5.29613">
        <ele>344.8</ele>
        <time>2025-05-27T10:29:29Z</time>
      </trkpt>
      <trkpt lat="45.69847" lon="5.2961">
        <ele>344.8</ele>
        <time>2025-05-27T10:29:30Z</time>
      </trkpt>
      <trkpt lat="45.69849" lon="5.29607">
        <ele>344.4</ele>
        <time>2025-05-27T10:29:31Z</time>
      </trkpt>
      <trkpt lat="45.69852" lon="5.29604">
        <ele>344.4</ele>
        <time>2025-05-27T10:29:32Z</time>
      </trkpt>
      <trkpt lat="45.69854" lon="5.296">
        <ele>344.4</ele>
        <time>2025-05-27T10:29:33Z</time>
      </trkpt>
      <trkpt lat="45.69856" lon="5.29596">
        <ele>344.4</ele>
        <time>2025-05-27T10:29:34Z</time>
      </trkpt>
      <trkpt lat="45.69857" lon="5.29591">
        <ele>344.4</ele>
        <time>2025-05-27T10:29:35Z</time>
      </trkpt>
      <trkpt lat="45.69858" lon="5.29587">
        <ele>344.4</ele>
        <time>2025-05-27T10:29:36Z</time>
      </trkpt>
      <trkpt lat="45.69858" lon="5.29583">
        <ele>344.4</ele>
        <time>2025-05-27T10:29:37Z</time>
      </trkpt>
      <trkpt lat="45.69859" lon="5.29578">
        <ele>344.4</ele>
        <time>2025-05-27T10:29:38Z</time>
      </trkpt>
      <trkpt lat="45.69861" lon="5.29575">
        <ele>344.2</ele>
        <time>2025-05-27T10:29:39Z</time>
      </trkpt>
      <trkpt lat="45.69862" lon="5.29571">
        <ele>343.6</ele>
        <time>2025-05-27T10:29:40Z</time>
      </trkpt>
      <trkpt lat="45.69865" lon="5.29568">
        <ele>343.8</ele>
        <time>2025-05-27T10:29:41Z</time>
      </trkpt>
      <trkpt lat="45.69867" lon="5.29566">
        <ele>343.8</ele>
        <time>2025-05-27T10:29:42Z</time>
      </trkpt>
      <trkpt lat="45.6987" lon="5.29563">
        <ele>344.4</ele>
        <time>2025-05-27T10:29:43Z</time>
      </trkpt>
      <trkpt lat="45.69873" lon="5.29561">
        <ele>343.2</ele>
        <time>2025-05-27T10:29:44Z</time>
      </trkpt>
      <trkpt lat="45.69875" lon="5.29559">
        <ele>342.8</ele>
        <time>2025-05-27T10:29:45Z</time>
      </trkpt>
      <trkpt lat="45.69877" lon="5.29551">
        <ele>343.2</ele>
        <time>2025-05-27T10:29:46Z</time>
      </trkpt>
      <trkpt lat="45.6988" lon="5.29544">
        <ele>342.6</ele>
        <time>2025-05-27T10:29:47Z</time>
      </trkpt>
      <trkpt lat="45.69882" lon="5.2954">
        <ele>342.2</ele>
        <time>2025-05-27T10:29:48Z</time>
      </trkpt>
      <trkpt lat="45.69884" lon="5.29536">
        <ele>341.6</ele>
        <time>2025-05-27T10:29:49Z</time>
      </trkpt>
      <trkpt lat="45.69886" lon="5.2953">
        <ele>340.2</ele>
        <time>2025-05-27T10:29:50Z</time>
      </trkpt>
      <trkpt lat="45.69888" lon="5.29525">
        <ele>339.8</ele>
        <time>2025-05-27T10:29:51Z</time>
      </trkpt>
      <trkpt lat="45.6989" lon="5.29517">
        <ele>339</ele>
        <time>2025-05-27T10:29:52Z</time>
      </trkpt>
      <trkpt lat="45.69893" lon="5.29509">
        <ele>338.8</ele>
        <time>2025-05-27T10:29:53Z</time>
      </trkpt>
      <trkpt lat="45.69894" lon="5.29507">
        <ele>338.6</ele>
        <time>2025-05-27T10:29:54Z</time>
      </trkpt>
      <trkpt lat="45.69897" lon="5.29506">
        <ele>338.6</ele>
        <time>2025-05-27T10:29:55Z</time>
      </trkpt>
      <trkpt lat="45.69898" lon="5.29502">
        <ele>338.6</ele>
        <time>2025-05-27T10:29:56Z</time>
      </trkpt>
      <trkpt lat="45.699" lon="5.29499">
        <ele>338.2</ele>
        <time>2025-05-27T10:29:57Z</time>
      </trkpt>
      <trkpt lat="45.699" lon="5.29497">
        <ele>338.2</ele>
        <time>2025-05-27T10:29:58Z</time>
      </trkpt>
      <trkpt lat="45.69901" lon="5.29494">
        <ele>338</ele>
        <time>2025-05-27T10:29:59Z</time>
      </trkpt>
      <trkpt lat="45.69901" lon="5.29493">
        <ele>338</ele>
        <time>2025-05-27T10:30:00Z</time>
      </trkpt>
      <trkpt lat="45.69903" lon="5.29489">
        <ele>337.8</ele>
        <time>2025-05-27T10:30:01Z</time>
      </trkpt>
      <trkpt lat="45.69904" lon="5.29487">
        <ele>337.8</ele>
        <time>2025-05-27T10:30:02Z</time>
      </trkpt>
      <trkpt lat="45.69905" lon="5.29484">
        <ele>337.4</ele>
        <time>2025-05-27T10:30:03Z</time>
      </trkpt>
      <trkpt lat="45.69906" lon="5.29483">
        <ele>337.2</ele>
        <time>2025-05-27T10:30:04Z</time>
      </trkpt>
      <trkpt lat="45.69906" lon="5.29483">
        <ele>337.2</ele>
        <time>2025-05-27T10:30:05Z</time>
      </trkpt>
      <trkpt lat="45.69906" lon="5.29482">
        <ele>337.2</ele>
        <time>2025-05-27T10:30:06Z</time>
      </trkpt>
      <trkpt lat="45.69907" lon="5.29481">
        <ele>337</ele>
        <time>2025-05-27T10:30:07Z</time>
      </trkpt>
      <trkpt lat="45.69907" lon="5.29481">
        <ele>337</ele>
        <time>2025-05-27T10:30:08Z</time>
      </trkpt>
      <trkpt lat="45.69908" lon="5.29481">
        <ele>337</ele>
        <time>2025-05-27T10:30:09Z</time>
      </trkpt>
      <trkpt lat="45.6991" lon="5.2948">
        <ele>337.6</ele>
        <time>2025-05-27T10:30:10Z</time>
      </trkpt>
      <trkpt lat="45.69912" lon="5.29481">
        <ele>337</ele>
        <time>2025-05-27T10:30:11Z</time>
      </trkpt>
      <trkpt lat="45.69913" lon="5.2948">
        <ele>337</ele>
        <time>2025-05-27T10:30:12Z</time>
      </trkpt>
      <trkpt lat="45.69915" lon="5.2948">
        <ele>337</ele>
        <time>2025-05-27T10:30:13Z</time>
      </trkpt>
      <trkpt lat="45.69918" lon="5.2948">
        <ele>336.4</ele>
        <time>2025-05-27T10:30:14Z</time>
      </trkpt>
      <trkpt lat="45.6992" lon="5.29478">
        <ele>335.6</ele>
        <time>2025-05-27T10:30:15Z</time>
      </trkpt>
      <trkpt lat="45.69922" lon="5.29476">
        <ele>335.2</ele>
        <time>2025-05-27T10:30:16Z</time>
      </trkpt>
      <trkpt lat="45.69924" lon="5.29474">
        <ele>334.8</ele>
        <time>2025-05-27T10:30:17Z</time>
      </trkpt>
      <trkpt lat="45.69926" lon="5.29473">
        <ele>334.8</ele>
        <time>2025-05-27T10:30:18Z</time>
      </trkpt>
      <trkpt lat="45.69929" lon="5.29472">
        <ele>334.4</ele>
        <time>2025-05-27T10:30:19Z</time>
      </trkpt>
      <trkpt lat="45.69932" lon="5.29471">
        <ele>333.6</ele>
        <time>2025-05-27T10:30:20Z</time>
      </trkpt>
      <trkpt lat="45.69934" lon="5.2947">
        <ele>332.4</ele>
        <time>2025-05-27T10:30:21Z</time>
      </trkpt>
      <trkpt lat="45.69936" lon="5.29468">
        <ele>333</ele>
        <time>2025-05-27T10:30:22Z</time>
      </trkpt>
      <trkpt lat="45.69937" lon="5.29465">
        <ele>332.4</ele>
        <time>2025-05-27T10:30:23Z</time>
      </trkpt>
      <trkpt lat="45.69937" lon="5.29461">
        <ele>331.8</ele>
        <time>2025-05-27T10:30:24Z</time>
      </trkpt>
      <trkpt lat="45.69937" lon="5.29456">
        <ele>331.4</ele>
        <time>2025-05-27T10:30:25Z</time>
      </trkpt>
      <trkpt lat="45.69937" lon="5.29452">
        <ele>330.6</ele>
        <time>2025-05-27T10:30:26Z</time>
      </trkpt>
      <trkpt lat="45.69937" lon="5.29447">
        <ele>330</ele>
        <time>2025-05-27T10:30:27Z</time>
      </trkpt>
      <trkpt lat="45.69938" lon="5.29443">
        <ele>329.4</ele>
        <time>2025-05-27T10:30:28Z</time>
      </trkpt>
      <trkpt lat="45.69938" lon="5.29439">
        <ele>328.8</ele>
        <time>2025-05-27T10:30:29Z</time>
      </trkpt>
      <trkpt lat="45.69938" lon="5.29436">
        <ele>328.2</ele>
        <time>2025-05-27T10:30:30Z</time>
      </trkpt>
      <trkpt lat="45.69939" lon="5.29434">
        <ele>327.8</ele>
        <time>2025-05-27T10:30:31Z</time>
      </trkpt>
      <trkpt lat="45.69939" lon="5.29431">
        <ele>327.4</ele>
        <time>2025-05-27T10:30:32Z</time>
      </trkpt>
      <trkpt lat="45.69941" lon="5.29428">
        <ele>327.4</ele>
        <time>2025-05-27T10:30:33Z</time>
      </trkpt>
      <trkpt lat="45.69942" lon="5.29426">
        <ele>326.8</ele>
        <time>2025-05-27T10:30:34Z</time>
      </trkpt>
      <trkpt lat="45.69943" lon="5.29424">
        <ele>326.8</ele>
        <time>2025-05-27T10:30:35Z</time>
      </trkpt>
      <trkpt lat="45.69944" lon="5.29422">
        <ele>326.2</ele>
        <time>2025-05-27T10:30:36Z</time>
      </trkpt>
      <trkpt lat="45.69945" lon="5.29422">
        <ele>326.2</ele>
        <time>2025-05-27T10:30:37Z</time>
      </trkpt>
      <trkpt lat="45.69947" lon="5.29421">
        <ele>325.4</ele>
        <time>2025-05-27T10:30:38Z</time>
      </trkpt>
      <trkpt lat="45.69949" lon="5.29421">
        <ele>324.4</ele>
        <time>2025-05-27T10:30:39Z</time>
      </trkpt>
      <trkpt lat="45.69951" lon="5.29422">
        <ele>324.4</ele>
        <time>2025-05-27T10:30:40Z</time>
      </trkpt>
      <trkpt lat="45.69953" lon="5.29425">
        <ele>324.2</ele>
        <time>2025-05-27T10:30:41Z</time>
      </trkpt>
      <trkpt lat="45.69956" lon="5.29428">
        <ele>324.2</ele>
        <time>2025-05-27T10:30:42Z</time>
      </trkpt>
      <trkpt lat="45.69958" lon="5.29431">
        <ele>323.4</ele>
        <time>2025-05-27T10:30:43Z</time>
      </trkpt>
      <trkpt lat="45.69961" lon="5.29434">
        <ele>322.8</ele>
        <time>2025-05-27T10:30:44Z</time>
      </trkpt>
      <trkpt lat="45.69963" lon="5.29437">
        <ele>322.2</ele>
        <time>2025-05-27T10:30:45Z</time>
      </trkpt>
      <trkpt lat="45.69965" lon="5.2944">
        <ele>322.2</ele>
        <time>2025-05-27T10:30:46Z</time>
      </trkpt>
      <trkpt lat="45.69966" lon="5.29443">
        <ele>322.4</ele>
        <time>2025-05-27T10:30:47Z</time>
      </trkpt>
      <trkpt lat="45.69968" lon="5.29446">
        <ele>322</ele>
        <time>2025-05-27T10:30:48Z</time>
      </trkpt>
      <trkpt lat="45.6997" lon="5.29449">
        <ele>322</ele>
        <time>2025-05-27T10:30:49Z</time>
      </trkpt>
      <trkpt lat="45.69973" lon="5.29452">
        <ele>321.4</ele>
        <time>2025-05-27T10:30:50Z</time>
      </trkpt>
      <trkpt lat="45.69976" lon="5.29454">
        <ele>320.8</ele>
        <time>2025-05-27T10:30:51Z</time>
      </trkpt>
      <trkpt lat="45.69978" lon="5.29455">
        <ele>320.4</ele>
        <time>2025-05-27T10:30:52Z</time>
      </trkpt>
      <trkpt lat="45.6998" lon="5.29457">
        <ele>319.6</ele>
        <time>2025-05-27T10:30:53Z</time>
      </trkpt>
      <trkpt lat="45.69983" lon="5.2946">
        <ele>319.6</ele>
        <time>2025-05-27T10:30:54Z</time>
      </trkpt>
      <trkpt lat="45.69985" lon="5.29463">
        <ele>318.8</ele>
        <time>2025-05-27T10:30:55Z</time>
      </trkpt>
      <trkpt lat="45.6999" lon="5.29471">
        <ele>318</ele>
        <time>2025-05-27T10:30:56Z</time>
      </trkpt>
      <trkpt lat="45.69994" lon="5.29475">
        <ele>317</ele>
        <time>2025-05-27T10:30:57Z</time>
      </trkpt>
      <trkpt lat="45.69997" lon="5.29479">
        <ele>315.8</ele>
        <time>2025-05-27T10:30:58Z</time>
      </trkpt>
      <trkpt lat="45.70002" lon="5.29482">
        <ele>315.4</ele>
        <time>2025-05-27T10:30:59Z</time>
      </trkpt>
      <trkpt lat="45.70005" lon="5.29484">
        <ele>316.6</ele>
        <time>2025-05-27T10:31:00Z</time>
      </trkpt>
      <trkpt lat="45.7001" lon="5.29484">
        <ele>315</ele>
        <time>2025-05-27T10:31:01Z</time>
      </trkpt>
      <trkpt lat="45.70011" lon="5.29483">
        <ele>314</ele>
        <time>2025-05-27T10:31:02Z</time>
      </trkpt>
      <trkpt lat="45.70015" lon="5.29483">
        <ele>313.2</ele>
        <time>2025-05-27T10:31:03Z</time>
      </trkpt>
      <trkpt lat="45.70019" lon="5.29481">
        <ele>312.6</ele>
        <time>2025-05-27T10:31:04Z</time>
      </trkpt>
      <trkpt lat="45.70023" lon="5.29478">
        <ele>313</ele>
        <time>2025-05-27T10:31:05Z</time>
      </trkpt>
      <trkpt lat="45.70029" lon="5.29477">
        <ele>312.4</ele>
        <time>2025-05-27T10:31:06Z</time>
      </trkpt>
      <trkpt lat="45.70033" lon="5.29477">
        <ele>311.6</ele>
        <time>2025-05-27T10:31:07Z</time>
      </trkpt>
      <trkpt lat="45.70037" lon="5.29477">
        <ele>311.4</ele>
        <time>2025-05-27T10:31:08Z</time>
      </trkpt>
      <trkpt lat="45.70041" lon="5.29476">
        <ele>309</ele>
        <time>2025-05-27T10:31:09Z</time>
      </trkpt>
      <trkpt lat="45.70044" lon="5.29472">
        <ele>309</ele>
        <time>2025-05-27T10:31:10Z</time>
      </trkpt>
      <trkpt lat="45.70046" lon="5.29464">
        <ele>308.6</ele>
        <time>2025-05-27T10:31:11Z</time>
      </trkpt>
      <trkpt lat="45.7005" lon="5.2946">
        <ele>307.6</ele>
        <time>2025-05-27T10:31:12Z</time>
      </trkpt>
      <trkpt lat="45.70054" lon="5.29456">
        <ele>307</ele>
        <time>2025-05-27T10:31:13Z</time>
      </trkpt>
      <trkpt lat="45.70057" lon="5.2945">
        <ele>306.8</ele>
        <time>2025-05-27T10:31:14Z</time>
      </trkpt>
      <trkpt lat="45.7006" lon="5.29444">
        <ele>306.2</ele>
        <time>2025-05-27T10:31:15Z</time>
      </trkpt>
      <trkpt lat="45.70063" lon="5.29433">
        <ele>305.8</ele>
        <time>2025-05-27T10:31:16Z</time>
      </trkpt>
      <trkpt lat="45.70065" lon="5.29427">
        <ele>305.6</ele>
        <time>2025-05-27T10:31:17Z</time>
      </trkpt>
      <trkpt lat="45.70067" lon="5.29422">
        <ele>305.6</ele>
        <time>2025-05-27T10:31:18Z</time>
      </trkpt>
      <trkpt lat="45.70066" lon="5.29418">
        <ele>305.4</ele>
        <time>2025-05-27T10:31:19Z</time>
      </trkpt>
      <trkpt lat="45.70067" lon="5.29415">
        <ele>305.2</ele>
        <time>2025-05-27T10:31:20Z</time>
      </trkpt>
      <trkpt lat="45.70068" lon="5.29411">
        <ele>305.2</ele>
        <time>2025-05-27T10:31:21Z</time>
      </trkpt>
      <trkpt lat="45.70068" lon="5.29405">
        <ele>305.2</ele>
        <time>2025-05-27T10:31:22Z</time>
      </trkpt>
      <trkpt lat="45.70068" lon="5.294">
        <ele>305.2</ele>
        <time>2025-05-27T10:31:23Z</time>
      </trkpt>
      <trkpt lat="45.70067" lon="5.29395">
        <ele>304.8</ele>
        <time>2025-05-27T10:31:24Z</time>
      </trkpt>
      <trkpt lat="45.70066" lon="5.2939">
        <ele>304.4</ele>
        <time>2025-05-27T10:31:25Z</time>
      </trkpt>
      <trkpt lat="45.70067" lon="5.29386">
        <ele>304.6</ele>
        <time>2025-05-27T10:31:26Z</time>
      </trkpt>
      <trkpt lat="45.70067" lon="5.29379">
        <ele>304</ele>
        <time>2025-05-27T10:31:27Z</time>
      </trkpt>
      <trkpt lat="45.70068" lon="5.29374">
        <ele>304</ele>
        <time>2025-05-27T10:31:28Z</time>
      </trkpt>
      <trkpt lat="45.70072" lon="5.29369">
        <ele>304</ele>
        <time>2025-05-27T10:31:29Z</time>
      </trkpt>
      <trkpt lat="45.70075" lon="5.29363">
        <ele>303.6</ele>
        <time>2025-05-27T10:31:30Z</time>
      </trkpt>
      <trkpt lat="45.70078" lon="5.29354">
        <ele>304</ele>
        <time>2025-05-27T10:31:31Z</time>
      </trkpt>
      <trkpt lat="45.70081" lon="5.29347">
        <ele>303.4</ele>
        <time>2025-05-27T10:31:32Z</time>
      </trkpt>
      <trkpt lat="45.70083" lon="5.2934">
        <ele>303.4</ele>
        <time>2025-05-27T10:31:33Z</time>
      </trkpt>
      <trkpt lat="45.70085" lon="5.29336">
        <ele>303.6</ele>
        <time>2025-05-27T10:31:34Z</time>
      </trkpt>
      <trkpt lat="45.70088" lon="5.29334">
        <ele>303.2</ele>
        <time>2025-05-27T10:31:35Z</time>
      </trkpt>
      <trkpt lat="45.70089" lon="5.29329">
        <ele>303</ele>
        <time>2025-05-27T10:31:36Z</time>
      </trkpt>
      <trkpt lat="45.7009" lon="5.29324">
        <ele>302.2</ele>
        <time>2025-05-27T10:31:37Z</time>
      </trkpt>
      <trkpt lat="45.70092" lon="5.29319">
        <ele>302.2</ele>
        <time>2025-05-27T10:31:38Z</time>
      </trkpt>
      <trkpt lat="45.70093" lon="5.29317">
        <ele>301.8</ele>
        <time>2025-05-27T10:31:39Z</time>
      </trkpt>
      <trkpt lat="45.70093" lon="5.29313">
        <ele>301</ele>
        <time>2025-05-27T10:31:40Z</time>
      </trkpt>
      <trkpt lat="45.70092" lon="5.29307">
        <ele>299.2</ele>
        <time>2025-05-27T10:31:41Z</time>
      </trkpt>
      <trkpt lat="45.7009" lon="5.29302">
        <ele>298.2</ele>
        <time>2025-05-27T10:31:42Z</time>
      </trkpt>
      <trkpt lat="45.70091" lon="5.29299">
        <ele>297.6</ele>
        <time>2025-05-27T10:31:43Z</time>
      </trkpt>
      <trkpt lat="45.70092" lon="5.29296">
        <ele>297.4</ele>
        <time>2025-05-27T10:31:44Z</time>
      </trkpt>
      <trkpt lat="45.70092" lon="5.29291">
        <ele>296.8</ele>
        <time>2025-05-27T10:31:45Z</time>
      </trkpt>
      <trkpt lat="45.70092" lon="5.29287">
        <ele>296.8</ele>
        <time>2025-05-27T10:31:46Z</time>
      </trkpt>
      <trkpt lat="45.70093" lon="5.29278">
        <ele>295.4</ele>
        <time>2025-05-27T10:31:47Z</time>
      </trkpt>
      <trkpt lat="45.70092" lon="5.29272">
        <ele>294.4</ele>
        <time>2025-05-27T10:31:48Z</time>
      </trkpt>
      <trkpt lat="45.70092" lon="5.29265">
        <ele>293.6</ele>
        <time>2025-05-27T10:31:49Z</time>
      </trkpt>
      <trkpt lat="45.70092" lon="5.29257">
        <ele>293.2</ele>
        <time>2025-05-27T10:31:50Z</time>
      </trkpt>
      <trkpt lat="45.70094" lon="5.29251">
        <ele>291.8</ele>
        <time>2025-05-27T10:31:51Z</time>
      </trkpt>
      <trkpt lat="45.70095" lon="5.29244">
        <ele>291.8</ele>
        <time>2025-05-27T10:31:52Z</time>
      </trkpt>
      <trkpt lat="45.70096" lon="5.29239">
        <ele>291.4</ele>
        <time>2025-05-27T10:31:53Z</time>
      </trkpt>
      <trkpt lat="45.70098" lon="5.29232">
        <ele>291.8</ele>
        <time>2025-05-27T10:31:54Z</time>
      </trkpt>
      <trkpt lat="45.701" lon="5.29227">
        <ele>291.4</ele>
        <time>2025-05-27T10:31:55Z</time>
      </trkpt>
      <trkpt lat="45.70101" lon="5.2922">
        <ele>291</ele>
        <time>2025-05-27T10:31:56Z</time>
      </trkpt>
      <trkpt lat="45.70103" lon="5.29215">
        <ele>290.6</ele>
        <time>2025-05-27T10:31:57Z</time>
      </trkpt>
      <trkpt lat="45.70105" lon="5.29213">
        <ele>290.2</ele>
        <time>2025-05-27T10:31:58Z</time>
      </trkpt>
      <trkpt lat="45.70107" lon="5.29212">
        <ele>289.8</ele>
        <time>2025-05-27T10:31:59Z</time>
      </trkpt>
      <trkpt lat="45.70108" lon="5.2921">
        <ele>289.2</ele>
        <time>2025-05-27T10:32:00Z</time>
      </trkpt>
      <trkpt lat="45.7011" lon="5.29208">
        <ele>288</ele>
        <time>2025-05-27T10:32:01Z</time>
      </trkpt>
      <trkpt lat="45.70111" lon="5.29207">
        <ele>286.6</ele>
        <time>2025-05-27T10:32:02Z</time>
      </trkpt>
      <trkpt lat="45.70111" lon="5.29206">
        <ele>286</ele>
        <time>2025-05-27T10:32:03Z</time>
      </trkpt>
      <trkpt lat="45.70111" lon="5.29205">
        <ele>285.6</ele>
        <time>2025-05-27T10:32:04Z</time>
      </trkpt>
      <trkpt lat="45.7011" lon="5.29204">
        <ele>285.2</ele>
        <time>2025-05-27T10:32:05Z</time>
      </trkpt>
      <trkpt lat="45.7011" lon="5.29202">
        <ele>285</ele>
        <time>2025-05-27T10:32:06Z</time>
      </trkpt>
      <trkpt lat="45.70111" lon="5.292">
        <ele>284.8</ele>
        <time>2025-05-27T10:32:07Z</time>
      </trkpt>
      <trkpt lat="45.70111" lon="5.29199">
        <ele>284.6</ele>
        <time>2025-05-27T10:32:08Z</time>
      </trkpt>
      <trkpt lat="45.70112" lon="5.292">
        <ele>283.4</ele>
        <time>2025-05-27T10:32:09Z</time>
      </trkpt>
      <trkpt lat="45.70117" lon="5.29197">
        <ele>283</ele>
        <time>2025-05-27T10:32:24Z</time>
      </trkpt>
      <trkpt lat="45.70118" lon="5.29197">
        <ele>283</ele>
        <time>2025-05-27T10:32:25Z</time>
      </trkpt>
      <trkpt lat="45.7012" lon="5.29197">
        <ele>281.8</ele>
        <time>2025-05-27T10:32:26Z</time>
      </trkpt>
      <trkpt lat="45.70122" lon="5.29197">
        <ele>281.8</ele>
        <time>2025-05-27T10:32:27Z</time>
      </trkpt>
      <trkpt lat="45.70124" lon="5.29197">
        <ele>283</ele>
        <time>2025-05-27T10:32:28Z</time>
      </trkpt>
      <trkpt lat="45.70128" lon="5.29197">
        <ele>281.4</ele>
        <time>2025-05-27T10:32:29Z</time>
      </trkpt>
      <trkpt lat="45.7014" lon="5.29202">
        <ele>281.2</ele>
        <time>2025-05-27T10:32:30Z</time>
      </trkpt>
      <trkpt lat="45.70142" lon="5.29204">
        <ele>280.4</ele>
        <time>2025-05-27T10:32:31Z</time>
      </trkpt>
      <trkpt lat="45.70147" lon="5.29207">
        <ele>279.8</ele>
        <time>2025-05-27T10:32:32Z</time>
      </trkpt>
      <trkpt lat="45.70152" lon="5.29209">
        <ele>279.8</ele>
        <time>2025-05-27T10:32:33Z</time>
      </trkpt>
      <trkpt lat="45.70156" lon="5.29209">
        <ele>279.8</ele>
        <time>2025-05-27T10:32:34Z</time>
      </trkpt>
      <trkpt lat="45.7016" lon="5.29212">
        <ele>279.6</ele>
        <time>2025-05-27T10:32:35Z</time>
      </trkpt>
      <trkpt lat="45.70162" lon="5.29209">
        <ele>279</ele>
        <time>2025-05-27T10:32:36Z</time>
      </trkpt>
      <trkpt lat="45.70169" lon="5.2921">
        <ele>278.4</ele>
        <time>2025-05-27T10:32:37Z</time>
      </trkpt>
      <trkpt lat="45.70169" lon="5.29209">
        <ele>278.4</ele>
        <time>2025-05-27T10:32:38Z</time>
      </trkpt>
      <trkpt lat="45.70171" lon="5.2921">
        <ele>276.6</ele>
        <time>2025-05-27T10:32:39Z</time>
      </trkpt>
      <trkpt lat="45.70172" lon="5.29208">
        <ele>272.8</ele>
        <time>2025-05-27T10:32:40Z</time>
      </trkpt>
      <trkpt lat="45.70174" lon="5.29208">
        <ele>273.8</ele>
        <time>2025-05-27T10:32:41Z</time>
      </trkpt>
      <trkpt lat="45.70177" lon="5.29209">
        <ele>274.6</ele>
        <time>2025-05-27T10:32:42Z</time>
      </trkpt>
      <trkpt lat="45.70179" lon="5.2921">
        <ele>274.6</ele>
        <time>2025-05-27T10:32:43Z</time>
      </trkpt>
      <trkpt lat="45.7018" lon="5.29208">
        <ele>274.6</ele>
        <time>2025-05-27T10:32:44Z</time>
      </trkpt>
      <trkpt lat="45.70183" lon="5.29208">
        <ele>274.6</ele>
        <time>2025-05-27T10:32:45Z</time>
      </trkpt>
      <trkpt lat="45.70186" lon="5.29207">
        <ele>274.2</ele>
        <time>2025-05-27T10:32:46Z</time>
      </trkpt>
      <trkpt lat="45.70189" lon="5.29206">
        <ele>273.2</ele>
        <time>2025-05-27T10:32:47Z</time>
      </trkpt>
      <trkpt lat="45.702" lon="5.29209">
        <ele>272.8</ele>
        <time>2025-05-27T10:32:48Z</time>
      </trkpt>
      <trkpt lat="45.70207" lon="5.29207">
        <ele>272.2</ele>
        <time>2025-05-27T10:32:49Z</time>
      </trkpt>
      <trkpt lat="45.70213" lon="5.29208">
        <ele>272.2</ele>
        <time>2025-05-27T10:32:50Z</time>
      </trkpt>
      <trkpt lat="45.70217" lon="5.29209">
        <ele>272.2</ele>
        <time>2025-05-27T10:32:51Z</time>
      </trkpt>
      <trkpt lat="45.70223" lon="5.2921">
        <ele>271.6</ele>
        <time>2025-05-27T10:32:52Z</time>
      </trkpt>
      <trkpt lat="45.70226" lon="5.29212">
        <ele>271.2</ele>
        <time>2025-05-27T10:32:53Z</time>
      </trkpt>
      <trkpt lat="45.70231" lon="5.29216">
        <ele>270.6</ele>
        <time>2025-05-27T10:32:54Z</time>
      </trkpt>
      <trkpt lat="45.70235" lon="5.29217">
        <ele>269.2</ele>
        <time>2025-05-27T10:32:55Z</time>
      </trkpt>
      <trkpt lat="45.70239" lon="5.2922">
        <ele>269.2</ele>
        <time>2025-05-27T10:32:56Z</time>
      </trkpt>
      <trkpt lat="45.70241" lon="5.29224">
        <ele>268.8</ele>
        <time>2025-05-27T10:32:57Z</time>
      </trkpt>
      <trkpt lat="45.70243" lon="5.29227">
        <ele>268.4</ele>
        <time>2025-05-27T10:32:58Z</time>
      </trkpt>
      <trkpt lat="45.70245" lon="5.29227">
        <ele>268.4</ele>
        <time>2025-05-27T10:32:59Z</time>
      </trkpt>
      <trkpt lat="45.70246" lon="5.29228">
        <ele>268</ele>
        <time>2025-05-27T10:33:00Z</time>
      </trkpt>
      <trkpt lat="45.70247" lon="5.29228">
        <ele>268</ele>
        <time>2025-05-27T10:33:01Z</time>
      </trkpt>
      <trkpt lat="45.70249" lon="5.2923">
        <ele>267.8</ele>
        <time>2025-05-27T10:33:02Z</time>
      </trkpt>
      <trkpt lat="45.70251" lon="5.2923">
        <ele>267.8</ele>
        <time>2025-05-27T10:33:03Z</time>
      </trkpt>
      <trkpt lat="45.70253" lon="5.2923">
        <ele>267.8</ele>
        <time>2025-05-27T10:33:04Z</time>
      </trkpt>
      <trkpt lat="45.70254" lon="5.29228">
        <ele>267.8</ele>
        <time>2025-05-27T10:33:05Z</time>
      </trkpt>
      <trkpt lat="45.70255" lon="5.29226">
        <ele>267.8</ele>
        <time>2025-05-27T10:33:06Z</time>
      </trkpt>
      <trkpt lat="45.70253" lon="5.29223">
        <ele>267.8</ele>
        <time>2025-05-27T10:33:07Z</time>
      </trkpt>
      <trkpt lat="45.70252" lon="5.2922">
        <ele>267.8</ele>
        <time>2025-05-27T10:33:08Z</time>
      </trkpt>
      <trkpt lat="45.70251" lon="5.29218">
        <ele>267.4</ele>
        <time>2025-05-27T10:33:09Z</time>
      </trkpt>
      <trkpt lat="45.7025" lon="5.29214">
        <ele>267.4</ele>
        <time>2025-05-27T10:33:10Z</time>
      </trkpt>
      <trkpt lat="45.70249" lon="5.2921">
        <ele>267.4</ele>
        <time>2025-05-27T10:33:11Z</time>
      </trkpt>
      <trkpt lat="45.70248" lon="5.29207">
        <ele>267.4</ele>
        <time>2025-05-27T10:33:12Z</time>
      </trkpt>
      <trkpt lat="45.70247" lon="5.29204">
        <ele>267.4</ele>
        <time>2025-05-27T10:33:13Z</time>
      </trkpt>
      <trkpt lat="45.70245" lon="5.292">
        <ele>267.2</ele>
        <time>2025-05-27T10:33:14Z</time>
      </trkpt>
      <trkpt lat="45.70244" lon="5.29196">
        <ele>267.2</ele>
        <time>2025-05-27T10:33:15Z</time>
      </trkpt>
      <trkpt lat="45.70242" lon="5.29191">
        <ele>266.8</ele>
        <time>2025-05-27T10:33:16Z</time>
      </trkpt>
      <trkpt lat="45.70241" lon="5.29186">
        <ele>266.4</ele>
        <time>2025-05-27T10:33:17Z</time>
      </trkpt>
      <trkpt lat="45.70239" lon="5.29181">
        <ele>266.2</ele>
        <time>2025-05-27T10:33:18Z</time>
      </trkpt>
      <trkpt lat="45.70236" lon="5.29175">
        <ele>265.8</ele>
        <time>2025-05-27T10:33:19Z</time>
      </trkpt>
      <trkpt lat="45.70234" lon="5.29169">
        <ele>265.4</ele>
        <time>2025-05-27T10:33:20Z</time>
      </trkpt>
      <trkpt lat="45.70232" lon="5.29163">
        <ele>265</ele>
        <time>2025-05-27T10:33:21Z</time>
      </trkpt>
      <trkpt lat="45.70229" lon="5.29156">
        <ele>264.6</ele>
        <time>2025-05-27T10:33:22Z</time>
      </trkpt>
      <trkpt lat="45.70227" lon="5.2915">
        <ele>264.2</ele>
        <time>2025-05-27T10:33:23Z</time>
      </trkpt>
      <trkpt lat="45.70224" lon="5.29143">
        <ele>264.2</ele>
        <time>2025-05-27T10:33:24Z</time>
      </trkpt>
      <trkpt lat="45.70222" lon="5.29135">
        <ele>263.8</ele>
        <time>2025-05-27T10:33:25Z</time>
      </trkpt>
      <trkpt lat="45.70219" lon="5.29128">
        <ele>263.8</ele>
        <time>2025-05-27T10:33:26Z</time>
      </trkpt>
      <trkpt lat="45.70217" lon="5.29121">
        <ele>263.6</ele>
        <time>2025-05-27T10:33:27Z</time>
      </trkpt>
      <trkpt lat="45.70213" lon="5.29113">
        <ele>263.4</ele>
        <time>2025-05-27T10:33:28Z</time>
      </trkpt>
      <trkpt lat="45.7021" lon="5.29105">
        <ele>263.4</ele>
        <time>2025-05-27T10:33:29Z</time>
      </trkpt>
      <trkpt lat="45.70208" lon="5.29098">
        <ele>263.4</ele>
        <time>2025-05-27T10:33:30Z</time>
      </trkpt>
      <trkpt lat="45.70204" lon="5.2909">
        <ele>263.4</ele>
        <time>2025-05-27T10:33:31Z</time>
      </trkpt>
      <trkpt lat="45.70202" lon="5.29083">
        <ele>263.4</ele>
        <time>2025-05-27T10:33:32Z</time>
      </trkpt>
      <trkpt lat="45.70199" lon="5.29075">
        <ele>263.4</ele>
        <time>2025-05-27T10:33:33Z</time>
      </trkpt>
      <trkpt lat="45.70196" lon="5.29067">
        <ele>263.4</ele>
        <time>2025-05-27T10:33:34Z</time>
      </trkpt>
      <trkpt lat="45.70193" lon="5.29059">
        <ele>262.8</ele>
        <time>2025-05-27T10:33:35Z</time>
      </trkpt>
      <trkpt lat="45.7019" lon="5.29051">
        <ele>262.8</ele>
        <time>2025-05-27T10:33:36Z</time>
      </trkpt>
      <trkpt lat="45.70186" lon="5.29043">
        <ele>262.2</ele>
        <time>2025-05-27T10:33:37Z</time>
      </trkpt>
      <trkpt lat="45.70184" lon="5.29036">
        <ele>262.2</ele>
        <time>2025-05-27T10:33:38Z</time>
      </trkpt>
      <trkpt lat="45.70181" lon="5.29028">
        <ele>262.2</ele>
        <time>2025-05-27T10:33:39Z</time>
      </trkpt>
      <trkpt lat="45.70178" lon="5.2902">
        <ele>262.2</ele>
        <time>2025-05-27T10:33:40Z</time>
      </trkpt>
      <trkpt lat="45.70175" lon="5.29013">
        <ele>262</ele>
        <time>2025-05-27T10:33:41Z</time>
      </trkpt>
      <trkpt lat="45.70172" lon="5.29006">
        <ele>262</ele>
        <time>2025-05-27T10:33:42Z</time>
      </trkpt>
      <trkpt lat="45.7017" lon="5.28998">
        <ele>262</ele>
        <time>2025-05-27T10:33:43Z</time>
      </trkpt>
      <trkpt lat="45.70168" lon="5.2899">
        <ele>262</ele>
        <time>2025-05-27T10:33:44Z</time>
      </trkpt>
      <trkpt lat="45.70166" lon="5.28982">
        <ele>261.6</ele>
        <time>2025-05-27T10:33:45Z</time>
      </trkpt>
      <trkpt lat="45.70164" lon="5.28974">
        <ele>261.6</ele>
        <time>2025-05-27T10:33:46Z</time>
      </trkpt>
      <trkpt lat="45.70162" lon="5.28966">
        <ele>261.2</ele>
        <time>2025-05-27T10:33:47Z</time>
      </trkpt>
      <trkpt lat="45.70161" lon="5.28959">
        <ele>261.2</ele>
        <time>2025-05-27T10:33:48Z</time>
      </trkpt>
      <trkpt lat="45.70158" lon="5.28952">
        <ele>261</ele>
        <time>2025-05-27T10:33:49Z</time>
      </trkpt>
      <trkpt lat="45.70156" lon="5.28947">
        <ele>261</ele>
        <time>2025-05-27T10:33:50Z</time>
      </trkpt>
      <trkpt lat="45.70153" lon="5.2894">
        <ele>261</ele>
        <time>2025-05-27T10:33:51Z</time>
      </trkpt>
      <trkpt lat="45.7015" lon="5.28934">
        <ele>260.6</ele>
        <time>2025-05-27T10:33:52Z</time>
      </trkpt>
      <trkpt lat="45.70146" lon="5.28927">
        <ele>260.6</ele>
        <time>2025-05-27T10:33:53Z</time>
      </trkpt>
      <trkpt lat="45.70143" lon="5.28922">
        <ele>259.8</ele>
        <time>2025-05-27T10:33:54Z</time>
      </trkpt>
      <trkpt lat="45.70139" lon="5.28917">
        <ele>260.2</ele>
        <time>2025-05-27T10:33:55Z</time>
      </trkpt>
      <trkpt lat="45.70135" lon="5.28913">
        <ele>260.6</ele>
        <time>2025-05-27T10:33:56Z</time>
      </trkpt>
      <trkpt lat="45.70132" lon="5.28908">
        <ele>260.6</ele>
        <time>2025-05-27T10:33:57Z</time>
      </trkpt>
      <trkpt lat="45.70128" lon="5.28905">
        <ele>260.6</ele>
        <time>2025-05-27T10:33:58Z</time>
      </trkpt>
      <trkpt lat="45.70124" lon="5.28902">
        <ele>261</ele>
        <time>2025-05-27T10:33:59Z</time>
      </trkpt>
      <trkpt lat="45.70119" lon="5.28903">
        <ele>261.4</ele>
        <time>2025-05-27T10:34:00Z</time>
      </trkpt>
      <trkpt lat="45.70115" lon="5.28903">
        <ele>261.4</ele>
        <time>2025-05-27T10:34:01Z</time>
      </trkpt>
      <trkpt lat="45.70111" lon="5.28904">
        <ele>261.8</ele>
        <time>2025-05-27T10:34:02Z</time>
      </trkpt>
      <trkpt lat="45.70107" lon="5.28907">
        <ele>262.2</ele>
        <time>2025-05-27T10:34:03Z</time>
      </trkpt>
      <trkpt lat="45.70102" lon="5.28909">
        <ele>262.2</ele>
        <time>2025-05-27T10:34:04Z</time>
      </trkpt>
      <trkpt lat="45.70098" lon="5.2891">
        <ele>261.6</ele>
        <time>2025-05-27T10:34:05Z</time>
      </trkpt>
      <trkpt lat="45.70093" lon="5.28912">
        <ele>262</ele>
        <time>2025-05-27T10:34:06Z</time>
      </trkpt>
      <trkpt lat="45.70089" lon="5.28913">
        <ele>262.4</ele>
        <time>2025-05-27T10:34:07Z</time>
      </trkpt>
      <trkpt lat="45.70084" lon="5.28914">
        <ele>262.6</ele>
        <time>2025-05-27T10:34:08Z</time>
      </trkpt>
      <trkpt lat="45.7008" lon="5.28915">
        <ele>262.8</ele>
        <time>2025-05-27T10:34:09Z</time>
      </trkpt>
      <trkpt lat="45.70075" lon="5.28916">
        <ele>262.8</ele>
        <time>2025-05-27T10:34:10Z</time>
      </trkpt>
      <trkpt lat="45.7007" lon="5.28916">
        <ele>263.4</ele>
        <time>2025-05-27T10:34:11Z</time>
      </trkpt>
      <trkpt lat="45.70066" lon="5.28916">
        <ele>264</ele>
        <time>2025-05-27T10:34:12Z</time>
      </trkpt>
      <trkpt lat="45.70062" lon="5.28916">
        <ele>264.2</ele>
        <time>2025-05-27T10:34:13Z</time>
      </trkpt>
      <trkpt lat="45.70057" lon="5.28916">
        <ele>264.6</ele>
        <time>2025-05-27T10:34:14Z</time>
      </trkpt>
      <trkpt lat="45.70053" lon="5.28914">
        <ele>264.6</ele>
        <time>2025-05-27T10:34:15Z</time>
      </trkpt>
      <trkpt lat="45.70049" lon="5.28913">
        <ele>264.6</ele>
        <time>2025-05-27T10:34:16Z</time>
      </trkpt>
      <trkpt lat="45.70045" lon="5.28913">
        <ele>264.8</ele>
        <time>2025-05-27T10:34:17Z</time>
      </trkpt>
      <trkpt lat="45.70041" lon="5.28911">
        <ele>264.8</ele>
        <time>2025-05-27T10:34:18Z</time>
      </trkpt>
      <trkpt lat="45.70038" lon="5.28909">
        <ele>265.2</ele>
        <time>2025-05-27T10:34:19Z</time>
      </trkpt>
      <trkpt lat="45.70034" lon="5.28908">
        <ele>265.6</ele>
        <time>2025-05-27T10:34:20Z</time>
      </trkpt>
      <trkpt lat="45.70031" lon="5.28908">
        <ele>265.8</ele>
        <time>2025-05-27T10:34:21Z</time>
      </trkpt>
      <trkpt lat="45.70029" lon="5.28907">
        <ele>265.8</ele>
        <time>2025-05-27T10:34:22Z</time>
      </trkpt>
      <trkpt lat="45.70026" lon="5.28906">
        <ele>265.8</ele>
        <time>2025-05-27T10:34:23Z</time>
      </trkpt>
      <trkpt lat="45.70023" lon="5.28904">
        <ele>266.4</ele>
        <time>2025-05-27T10:34:24Z</time>
      </trkpt>
      <trkpt lat="45.7002" lon="5.28903">
        <ele>266.8</ele>
        <time>2025-05-27T10:34:25Z</time>
      </trkpt>
      <trkpt lat="45.70018" lon="5.28901">
        <ele>266.8</ele>
        <time>2025-05-27T10:34:26Z</time>
      </trkpt>
      <trkpt lat="45.70016" lon="5.28899">
        <ele>267.4</ele>
        <time>2025-05-27T10:34:27Z</time>
      </trkpt>
      <trkpt lat="45.70013" lon="5.28897">
        <ele>267.4</ele>
        <time>2025-05-27T10:34:28Z</time>
      </trkpt>
      <trkpt lat="45.70011" lon="5.28896">
        <ele>267.8</ele>
        <time>2025-05-27T10:34:29Z</time>
      </trkpt>
      <trkpt lat="45.70009" lon="5.28894">
        <ele>268.4</ele>
        <time>2025-05-27T10:34:30Z</time>
      </trkpt>
      <trkpt lat="45.70007" lon="5.28892">
        <ele>268.4</ele>
        <time>2025-05-27T10:34:31Z</time>
      </trkpt>
      <trkpt lat="45.70005" lon="5.2889">
        <ele>268.6</ele>
        <time>2025-05-27T10:34:32Z</time>
      </trkpt>
      <trkpt lat="45.70003" lon="5.28889">
        <ele>268.6</ele>
        <time>2025-05-27T10:34:33Z</time>
      </trkpt>
      <trkpt lat="45.70002" lon="5.28887">
        <ele>268.8</ele>
        <time>2025-05-27T10:34:34Z</time>
      </trkpt>
      <trkpt lat="45.7" lon="5.28885">
        <ele>269.2</ele>
        <time>2025-05-27T10:34:35Z</time>
      </trkpt>
      <trkpt lat="45.69998" lon="5.28883">
        <ele>269.2</ele>
        <time>2025-05-27T10:34:36Z</time>
      </trkpt>
      <trkpt lat="45.69997" lon="5.28881">
        <ele>269.6</ele>
        <time>2025-05-27T10:34:37Z</time>
      </trkpt>
      <trkpt lat="45.69995" lon="5.28879">
        <ele>269.8</ele>
        <time>2025-05-27T10:34:38Z</time>
      </trkpt>
      <trkpt lat="45.69993" lon="5.28877">
        <ele>269.8</ele>
        <time>2025-05-27T10:34:39Z</time>
      </trkpt>
      <trkpt lat="45.69992" lon="5.28876">
        <ele>270.2</ele>
        <time>2025-05-27T10:34:40Z</time>
      </trkpt>
      <trkpt lat="45.6999" lon="5.28874">
        <ele>270.2</ele>
        <time>2025-05-27T10:34:41Z</time>
      </trkpt>
      <trkpt lat="45.69989" lon="5.28872">
        <ele>270.4</ele>
        <time>2025-05-27T10:34:42Z</time>
      </trkpt>
      <trkpt lat="45.69987" lon="5.2887">
        <ele>270.6</ele>
        <time>2025-05-27T10:34:43Z</time>
      </trkpt>
      <trkpt lat="45.69985" lon="5.28869">
        <ele>270.8</ele>
        <time>2025-05-27T10:34:44Z</time>
      </trkpt>
      <trkpt lat="45.69984" lon="5.28867">
        <ele>271</ele>
        <time>2025-05-27T10:34:45Z</time>
      </trkpt>
      <trkpt lat="45.69982" lon="5.28866">
        <ele>271.4</ele>
        <time>2025-05-27T10:34:46Z</time>
      </trkpt>
      <trkpt lat="45.6998" lon="5.28864">
        <ele>271.4</ele>
        <time>2025-05-27T10:34:47Z</time>
      </trkpt>
      <trkpt lat="45.69978" lon="5.28862">
        <ele>271.4</ele>
        <time>2025-05-27T10:34:48Z</time>
      </trkpt>
      <trkpt lat="45.69976" lon="5.28859">
        <ele>271.6</ele>
        <time>2025-05-27T10:34:49Z</time>
      </trkpt>
      <trkpt lat="45.69975" lon="5.28857">
        <ele>272</ele>
        <time>2025-05-27T10:34:50Z</time>
      </trkpt>
      <trkpt lat="45.69974" lon="5.28855">
        <ele>272.2</ele>
        <time>2025-05-27T10:34:51Z</time>
      </trkpt>
      <trkpt lat="45.69972" lon="5.28853">
        <ele>272.2</ele>
        <time>2025-05-27T10:34:52Z</time>
      </trkpt>
      <trkpt lat="45.69971" lon="5.28852">
        <ele>272.4</ele>
        <time>2025-05-27T10:34:53Z</time>
      </trkpt>
      <trkpt lat="45.69969" lon="5.28849">
        <ele>272.4</ele>
        <time>2025-05-27T10:34:54Z</time>
      </trkpt>
      <trkpt lat="45.69967" lon="5.28847">
        <ele>272.8</ele>
        <time>2025-05-27T10:34:55Z</time>
      </trkpt>
      <trkpt lat="45.69966" lon="5.28846">
        <ele>272.8</ele>
        <time>2025-05-27T10:34:56Z</time>
      </trkpt>
      <trkpt lat="45.69965" lon="5.28844">
        <ele>273</ele>
        <time>2025-05-27T10:34:57Z</time>
      </trkpt>
      <trkpt lat="45.69964" lon="5.28843">
        <ele>273</ele>
        <time>2025-05-27T10:34:58Z</time>
      </trkpt>
      <trkpt lat="45.69963" lon="5.28841">
        <ele>273.4</ele>
        <time>2025-05-27T10:34:59Z</time>
      </trkpt>
      <trkpt lat="45.69962" lon="5.28839">
        <ele>273.4</ele>
        <time>2025-05-27T10:35:00Z</time>
      </trkpt>
      <trkpt lat="45.69961" lon="5.28837">
        <ele>273.6</ele>
        <time>2025-05-27T10:35:01Z</time>
      </trkpt>
      <trkpt lat="45.6996" lon="5.28836">
        <ele>273.8</ele>
        <time>2025-05-27T10:35:02Z</time>
      </trkpt>
      <trkpt lat="45.69959" lon="5.28834">
        <ele>273.8</ele>
        <time>2025-05-27T10:35:03Z</time>
      </trkpt>
      <trkpt lat="45.69957" lon="5.28833">
        <ele>274.2</ele>
        <time>2025-05-27T10:35:04Z</time>
      </trkpt>
      <trkpt lat="45.69956" lon="5.28831">
        <ele>274.6</ele>
        <time>2025-05-27T10:35:05Z</time>
      </trkpt>
      <trkpt lat="45.69955" lon="5.28828">
        <ele>274.6</ele>
        <time>2025-05-27T10:35:06Z</time>
      </trkpt>
      <trkpt lat="45.69954" lon="5.28827">
        <ele>275</ele>
        <time>2025-05-27T10:35:07Z</time>
      </trkpt>
      <trkpt lat="45.69954" lon="5.28825">
        <ele>275.2</ele>
        <time>2025-05-27T10:35:08Z</time>
      </trkpt>
      <trkpt lat="45.69952" lon="5.28824">
        <ele>275.2</ele>
        <time>2025-05-27T10:35:09Z</time>
      </trkpt>
      <trkpt lat="45.69951" lon="5.28822">
        <ele>275.6</ele>
        <time>2025-05-27T10:35:10Z</time>
      </trkpt>
      <trkpt lat="45.6995" lon="5.28821">
        <ele>275.6</ele>
        <time>2025-05-27T10:35:11Z</time>
      </trkpt>
      <trkpt lat="45.69948" lon="5.2882">
        <ele>275.6</ele>
        <time>2025-05-27T10:35:12Z</time>
      </trkpt>
      <trkpt lat="45.69947" lon="5.2882">
        <ele>275.6</ele>
        <time>2025-05-27T10:35:13Z</time>
      </trkpt>
      <trkpt lat="45.69945" lon="5.28819">
        <ele>276</ele>
        <time>2025-05-27T10:35:14Z</time>
      </trkpt>
      <trkpt lat="45.69943" lon="5.28818">
        <ele>276</ele>
        <time>2025-05-27T10:35:15Z</time>
      </trkpt>
      <trkpt lat="45.69942" lon="5.28817">
        <ele>276</ele>
        <time>2025-05-27T10:35:16Z</time>
      </trkpt>
      <trkpt lat="45.6994" lon="5.28817">
        <ele>276.2</ele>
        <time>2025-05-27T10:35:17Z</time>
      </trkpt>
      <trkpt lat="45.69938" lon="5.28817">
        <ele>276.2</ele>
        <time>2025-05-27T10:35:18Z</time>
      </trkpt>
      <trkpt lat="45.69937" lon="5.28816">
        <ele>276.6</ele>
        <time>2025-05-27T10:35:19Z</time>
      </trkpt>
      <trkpt lat="45.69935" lon="5.28816">
        <ele>276.6</ele>
        <time>2025-05-27T10:35:20Z</time>
      </trkpt>
      <trkpt lat="45.69933" lon="5.28815">
        <ele>276.8</ele>
        <time>2025-05-27T10:35:21Z</time>
      </trkpt>
      <trkpt lat="45.69932" lon="5.28814">
        <ele>276.8</ele>
        <time>2025-05-27T10:35:22Z</time>
      </trkpt>
      <trkpt lat="45.69931" lon="5.28813">
        <ele>276.8</ele>
        <time>2025-05-27T10:35:23Z</time>
      </trkpt>
      <trkpt lat="45.69929" lon="5.28813">
        <ele>276.8</ele>
        <time>2025-05-27T10:35:24Z</time>
      </trkpt>
      <trkpt lat="45.69928" lon="5.28812">
        <ele>276.8</ele>
        <time>2025-05-27T10:35:25Z</time>
      </trkpt>
      <trkpt lat="45.69926" lon="5.28812">
        <ele>277</ele>
        <time>2025-05-27T10:35:26Z</time>
      </trkpt>
      <trkpt lat="45.69925" lon="5.28811">
        <ele>277.4</ele>
        <time>2025-05-27T10:35:27Z</time>
      </trkpt>
      <trkpt lat="45.69923" lon="5.2881">
        <ele>277.4</ele>
        <time>2025-05-27T10:35:28Z</time>
      </trkpt>
      <trkpt lat="45.69922" lon="5.2881">
        <ele>277.4</ele>
        <time>2025-05-27T10:35:29Z</time>
      </trkpt>
      <trkpt lat="45.6992" lon="5.28809">
        <ele>277.8</ele>
        <time>2025-05-27T10:35:30Z</time>
      </trkpt>
      <trkpt lat="45.69918" lon="5.28808">
        <ele>277.8</ele>
        <time>2025-05-27T10:35:31Z</time>
      </trkpt>
      <trkpt lat="45.69917" lon="5.28808">
        <ele>277.8</ele>
        <time>2025-05-27T10:35:32Z</time>
      </trkpt>
      <trkpt lat="45.69916" lon="5.28807">
        <ele>278.2</ele>
        <time>2025-05-27T10:35:33Z</time>
      </trkpt>
      <trkpt lat="45.69914" lon="5.28806">
        <ele>278.2</ele>
        <time>2025-05-27T10:35:34Z</time>
      </trkpt>
      <trkpt lat="45.69913" lon="5.28805">
        <ele>278.4</ele>
        <time>2025-05-27T10:35:35Z</time>
      </trkpt>
      <trkpt lat="45.69911" lon="5.28804">
        <ele>278.4</ele>
        <time>2025-05-27T10:35:36Z</time>
      </trkpt>
      <trkpt lat="45.69909" lon="5.28802">
        <ele>278.4</ele>
        <time>2025-05-27T10:35:37Z</time>
      </trkpt>
      <trkpt lat="45.69908" lon="5.28801">
        <ele>278.6</ele>
        <time>2025-05-27T10:35:38Z</time>
      </trkpt>
      <trkpt lat="45.69906" lon="5.288">
        <ele>278.8</ele>
        <time>2025-05-27T10:35:39Z</time>
      </trkpt>
      <trkpt lat="45.69905" lon="5.28799">
        <ele>279</ele>
        <time>2025-05-27T10:35:40Z</time>
      </trkpt>
      <trkpt lat="45.69904" lon="5.28798">
        <ele>279.4</ele>
        <time>2025-05-27T10:35:41Z</time>
      </trkpt>
      <trkpt lat="45.69903" lon="5.28796">
        <ele>279.4</ele>
        <time>2025-05-27T10:35:42Z</time>
      </trkpt>
      <trkpt lat="45.69901" lon="5.28794">
        <ele>279.8</ele>
        <time>2025-05-27T10:35:43Z</time>
      </trkpt>
      <trkpt lat="45.699" lon="5.28792">
        <ele>280</ele>
        <time>2025-05-27T10:35:44Z</time>
      </trkpt>
      <trkpt lat="45.69898" lon="5.28789">
        <ele>280</ele>
        <time>2025-05-27T10:35:45Z</time>
      </trkpt>
      <trkpt lat="45.69896" lon="5.28788">
        <ele>280.4</ele>
        <time>2025-05-27T10:35:46Z</time>
      </trkpt>
      <trkpt lat="45.69895" lon="5.28786">
        <ele>280.4</ele>
        <time>2025-05-27T10:35:47Z</time>
      </trkpt>
      <trkpt lat="45.69893" lon="5.28785">
        <ele>280.6</ele>
        <time>2025-05-27T10:35:48Z</time>
      </trkpt>
      <trkpt lat="45.69892" lon="5.28782">
        <ele>280.6</ele>
        <time>2025-05-27T10:35:49Z</time>
      </trkpt>
      <trkpt lat="45.6989" lon="5.28779">
        <ele>280.6</ele>
        <time>2025-05-27T10:35:50Z</time>
      </trkpt>
      <trkpt lat="45.69889" lon="5.28778">
        <ele>280.6</ele>
        <time>2025-05-27T10:35:51Z</time>
      </trkpt>
      <trkpt lat="45.69888" lon="5.28777">
        <ele>280.8</ele>
        <time>2025-05-27T10:35:52Z</time>
      </trkpt>
      <trkpt lat="45.69887" lon="5.28775">
        <ele>280.8</ele>
        <time>2025-05-27T10:35:53Z</time>
      </trkpt>
      <trkpt lat="45.69886" lon="5.28773">
        <ele>281.2</ele>
        <time>2025-05-27T10:35:54Z</time>
      </trkpt>
      <trkpt lat="45.69885" lon="5.2877">
        <ele>281.2</ele>
        <time>2025-05-27T10:35:55Z</time>
      </trkpt>
      <trkpt lat="45.69884" lon="5.28768">
        <ele>281.4</ele>
        <time>2025-05-27T10:35:56Z</time>
      </trkpt>
      <trkpt lat="45.69883" lon="5.28766">
        <ele>281.8</ele>
        <time>2025-05-27T10:35:57Z</time>
      </trkpt>
      <trkpt lat="45.69882" lon="5.28765">
        <ele>281.8</ele>
        <time>2025-05-27T10:35:58Z</time>
      </trkpt>
      <trkpt lat="45.69881" lon="5.28763">
        <ele>282</ele>
        <time>2025-05-27T10:35:59Z</time>
      </trkpt>
      <trkpt lat="45.69879" lon="5.28761">
        <ele>282</ele>
        <time>2025-05-27T10:36:00Z</time>
      </trkpt>
      <trkpt lat="45.69879" lon="5.28761">
        <ele>282.4</ele>
        <time>2025-05-27T10:36:01Z</time>
      </trkpt>
      <trkpt lat="45.69878" lon="5.28759">
        <ele>282.4</ele>
        <time>2025-05-27T10:36:02Z</time>
      </trkpt>
      <trkpt lat="45.69878" lon="5.28757">
        <ele>282.6</ele>
        <time>2025-05-27T10:36:03Z</time>
      </trkpt>
      <trkpt lat="45.69878" lon="5.28754">
        <ele>282.6</ele>
        <time>2025-05-27T10:36:04Z</time>
      </trkpt>
      <trkpt lat="45.69877" lon="5.28752">
        <ele>282.6</ele>
        <time>2025-05-27T10:36:05Z</time>
      </trkpt>
      <trkpt lat="45.69876" lon="5.2875">
        <ele>283</ele>
        <time>2025-05-27T10:36:06Z</time>
      </trkpt>
      <trkpt lat="45.69875" lon="5.28747">
        <ele>283</ele>
        <time>2025-05-27T10:36:07Z</time>
      </trkpt>
      <trkpt lat="45.69875" lon="5.28745">
        <ele>283</ele>
        <time>2025-05-27T10:36:08Z</time>
      </trkpt>
      <trkpt lat="45.69874" lon="5.28743">
        <ele>283</ele>
        <time>2025-05-27T10:36:09Z</time>
      </trkpt>
      <trkpt lat="45.69873" lon="5.28741">
        <ele>283.4</ele>
        <time>2025-05-27T10:36:10Z</time>
      </trkpt>
      <trkpt lat="45.69872" lon="5.28739">
        <ele>283.6</ele>
        <time>2025-05-27T10:36:11Z</time>
      </trkpt>
      <trkpt lat="45.69872" lon="5.28737">
        <ele>283.6</ele>
        <time>2025-05-27T10:36:12Z</time>
      </trkpt>
      <trkpt lat="45.69871" lon="5.28735">
        <ele>284</ele>
        <time>2025-05-27T10:36:13Z</time>
      </trkpt>
      <trkpt lat="45.69871" lon="5.28733">
        <ele>284</ele>
        <time>2025-05-27T10:36:14Z</time>
      </trkpt>
      <trkpt lat="45.6987" lon="5.28731">
        <ele>284.2</ele>
        <time>2025-05-27T10:36:15Z</time>
      </trkpt>
      <trkpt lat="45.6987" lon="5.28729">
        <ele>284.2</ele>
        <time>2025-05-27T10:36:16Z</time>
      </trkpt>
      <trkpt lat="45.6987" lon="5.28727">
        <ele>284.2</ele>
        <time>2025-05-27T10:36:17Z</time>
      </trkpt>
      <trkpt lat="45.69869" lon="5.28725">
        <ele>284.6</ele>
        <time>2025-05-27T10:36:18Z</time>
      </trkpt>
      <trkpt lat="45.69867" lon="5.28723">
        <ele>284.6</ele>
        <time>2025-05-27T10:36:19Z</time>
      </trkpt>
      <trkpt lat="45.69866" lon="5.28722">
        <ele>284.6</ele>
        <time>2025-05-27T10:36:20Z</time>
      </trkpt>
      <trkpt lat="45.69865" lon="5.28721">
        <ele>284.8</ele>
        <time>2025-05-27T10:36:21Z</time>
      </trkpt>
      <trkpt lat="45.69864" lon="5.28719">
        <ele>285</ele>
        <time>2025-05-27T10:36:22Z</time>
      </trkpt>
      <trkpt lat="45.69863" lon="5.28717">
        <ele>285</ele>
        <time>2025-05-27T10:36:23Z</time>
      </trkpt>
      <trkpt lat="45.69862" lon="5.28716">
        <ele>285</ele>
        <time>2025-05-27T10:36:24Z</time>
      </trkpt>
      <trkpt lat="45.69862" lon="5.28713">
        <ele>285.8</ele>
        <time>2025-05-27T10:36:25Z</time>
      </trkpt>
      <trkpt lat="45.69861" lon="5.28711">
        <ele>285.8</ele>
        <time>2025-05-27T10:36:26Z</time>
      </trkpt>
      <trkpt lat="45.69861" lon="5.28709">
        <ele>286</ele>
        <time>2025-05-27T10:36:27Z</time>
      </trkpt>
      <trkpt lat="45.6986" lon="5.28707">
        <ele>286</ele>
        <time>2025-05-27T10:36:28Z</time>
      </trkpt>
      <trkpt lat="45.69859" lon="5.28704">
        <ele>286</ele>
        <time>2025-05-27T10:36:29Z</time>
      </trkpt>
      <trkpt lat="45.69859" lon="5.28701">
        <ele>286</ele>
        <time>2025-05-27T10:36:30Z</time>
      </trkpt>
      <trkpt lat="45.69859" lon="5.28698">
        <ele>286.6</ele>
        <time>2025-05-27T10:36:31Z</time>
      </trkpt>
      <trkpt lat="45.69859" lon="5.28694">
        <ele>286.6</ele>
        <time>2025-05-27T10:36:32Z</time>
      </trkpt>
      <trkpt lat="45.69859" lon="5.28691">
        <ele>286.8</ele>
        <time>2025-05-27T10:36:33Z</time>
      </trkpt>
      <trkpt lat="45.69859" lon="5.28688">
        <ele>286.8</ele>
        <time>2025-05-27T10:36:34Z</time>
      </trkpt>
      <trkpt lat="45.69858" lon="5.28685">
        <ele>286.6</ele>
        <time>2025-05-27T10:36:35Z</time>
      </trkpt>
      <trkpt lat="45.69857" lon="5.28682">
        <ele>286.6</ele>
        <time>2025-05-27T10:36:36Z</time>
      </trkpt>
      <trkpt lat="45.69857" lon="5.2868">
        <ele>286.8</ele>
        <time>2025-05-27T10:36:37Z</time>
      </trkpt>
      <trkpt lat="45.69856" lon="5.28678">
        <ele>286.8</ele>
        <time>2025-05-27T10:36:38Z</time>
      </trkpt>
      <trkpt lat="45.69856" lon="5.28675">
        <ele>286.8</ele>
        <time>2025-05-27T10:36:39Z</time>
      </trkpt>
      <trkpt lat="45.69855" lon="5.28672">
        <ele>287.2</ele>
        <time>2025-05-27T10:36:40Z</time>
      </trkpt>
      <trkpt lat="45.69854" lon="5.2867">
        <ele>287</ele>
        <time>2025-05-27T10:36:41Z</time>
      </trkpt>
      <trkpt lat="45.69853" lon="5.28667">
        <ele>287</ele>
        <time>2025-05-27T10:36:42Z</time>
      </trkpt>
      <trkpt lat="45.69852" lon="5.28665">
        <ele>286.6</ele>
        <time>2025-05-27T10:36:43Z</time>
      </trkpt>
      <trkpt lat="45.69851" lon="5.28662">
        <ele>287</ele>
        <time>2025-05-27T10:36:44Z</time>
      </trkpt>
      <trkpt lat="45.6985" lon="5.2866">
        <ele>287</ele>
        <time>2025-05-27T10:36:45Z</time>
      </trkpt>
      <trkpt lat="45.69849" lon="5.28658">
        <ele>287</ele>
        <time>2025-05-27T10:36:46Z</time>
      </trkpt>
      <trkpt lat="45.69847" lon="5.28655">
        <ele>287</ele>
        <time>2025-05-27T10:36:47Z</time>
      </trkpt>
      <trkpt lat="45.69846" lon="5.28653">
        <ele>287</ele>
        <time>2025-05-27T10:36:48Z</time>
      </trkpt>
      <trkpt lat="45.69845" lon="5.2865">
        <ele>287.4</ele>
        <time>2025-05-27T10:36:49Z</time>
      </trkpt>
      <trkpt lat="45.69844" lon="5.28648">
        <ele>287.6</ele>
        <time>2025-05-27T10:36:50Z</time>
      </trkpt>
      <trkpt lat="45.69843" lon="5.28645">
        <ele>287.8</ele>
        <time>2025-05-27T10:36:51Z</time>
      </trkpt>
      <trkpt lat="45.69843" lon="5.28644">
        <ele>288.2</ele>
        <time>2025-05-27T10:36:52Z</time>
      </trkpt>
      <trkpt lat="45.69842" lon="5.28643">
        <ele>287.6</ele>
        <time>2025-05-27T10:36:53Z</time>
      </trkpt>
      <trkpt lat="45.69843" lon="5.28641">
        <ele>288</ele>
        <time>2025-05-27T10:36:54Z</time>
      </trkpt>
      <trkpt lat="45.69843" lon="5.28639">
        <ele>288.2</ele>
        <time>2025-05-27T10:36:55Z</time>
      </trkpt>
      <trkpt lat="45.69842" lon="5.28636">
        <ele>288.2</ele>
        <time>2025-05-27T10:36:56Z</time>
      </trkpt>
      <trkpt lat="45.69841" lon="5.28632">
        <ele>288.6</ele>
        <time>2025-05-27T10:36:57Z</time>
      </trkpt>
      <trkpt lat="45.6984" lon="5.2863">
        <ele>288.8</ele>
        <time>2025-05-27T10:36:58Z</time>
      </trkpt>
      <trkpt lat="45.69839" lon="5.28628">
        <ele>288.8</ele>
        <time>2025-05-27T10:36:59Z</time>
      </trkpt>
      <trkpt lat="45.69839" lon="5.28625">
        <ele>288.8</ele>
        <time>2025-05-27T10:37:00Z</time>
      </trkpt>
      <trkpt lat="45.69838" lon="5.28622">
        <ele>289.2</ele>
        <time>2025-05-27T10:37:01Z</time>
      </trkpt>
      <trkpt lat="45.69837" lon="5.28619">
        <ele>289.4</ele>
        <time>2025-05-27T10:37:02Z</time>
      </trkpt>
      <trkpt lat="45.69836" lon="5.28617">
        <ele>289.4</ele>
        <time>2025-05-27T10:37:03Z</time>
      </trkpt>
      <trkpt lat="45.69834" lon="5.28615">
        <ele>289.4</ele>
        <time>2025-05-27T10:37:04Z</time>
      </trkpt>
      <trkpt lat="45.69833" lon="5.28612">
        <ele>289.4</ele>
        <time>2025-05-27T10:37:05Z</time>
      </trkpt>
      <trkpt lat="45.69831" lon="5.2861">
        <ele>289.4</ele>
        <time>2025-05-27T10:37:06Z</time>
      </trkpt>
      <trkpt lat="45.69831" lon="5.28607">
        <ele>289.4</ele>
        <time>2025-05-27T10:37:07Z</time>
      </trkpt>
      <trkpt lat="45.6983" lon="5.28603">
        <ele>289.8</ele>
        <time>2025-05-27T10:37:08Z</time>
      </trkpt>
      <trkpt lat="45.69829" lon="5.286">
        <ele>289.6</ele>
        <time>2025-05-27T10:37:09Z</time>
      </trkpt>
      <trkpt lat="45.69828" lon="5.28598">
        <ele>289.8</ele>
        <time>2025-05-27T10:37:10Z</time>
      </trkpt>
      <trkpt lat="45.69827" lon="5.28595">
        <ele>289.8</ele>
        <time>2025-05-27T10:37:11Z</time>
      </trkpt>
      <trkpt lat="45.69826" lon="5.28592">
        <ele>289.8</ele>
        <time>2025-05-27T10:37:12Z</time>
      </trkpt>
      <trkpt lat="45.69825" lon="5.28589">
        <ele>289.8</ele>
        <time>2025-05-27T10:37:13Z</time>
      </trkpt>
      <trkpt lat="45.69825" lon="5.28586">
        <ele>289.8</ele>
        <time>2025-05-27T10:37:14Z</time>
      </trkpt>
      <trkpt lat="45.69824" lon="5.28583">
        <ele>289.8</ele>
        <time>2025-05-27T10:37:15Z</time>
      </trkpt>
      <trkpt lat="45.69824" lon="5.2858">
        <ele>290.4</ele>
        <time>2025-05-27T10:37:16Z</time>
      </trkpt>
      <trkpt lat="45.69823" lon="5.28577">
        <ele>290.4</ele>
        <time>2025-05-27T10:37:17Z</time>
      </trkpt>
      <trkpt lat="45.69822" lon="5.28574">
        <ele>290.4</ele>
        <time>2025-05-27T10:37:18Z</time>
      </trkpt>
      <trkpt lat="45.69821" lon="5.28571">
        <ele>290.8</ele>
        <time>2025-05-27T10:37:19Z</time>
      </trkpt>
      <trkpt lat="45.69821" lon="5.28568">
        <ele>290.8</ele>
        <time>2025-05-27T10:37:20Z</time>
      </trkpt>
      <trkpt lat="45.6982" lon="5.28565">
        <ele>291</ele>
        <time>2025-05-27T10:37:21Z</time>
      </trkpt>
      <trkpt lat="45.69819" lon="5.28563">
        <ele>291</ele>
        <time>2025-05-27T10:37:22Z</time>
      </trkpt>
      <trkpt lat="45.69819" lon="5.2856">
        <ele>291</ele>
        <time>2025-05-27T10:37:23Z</time>
      </trkpt>
      <trkpt lat="45.69818" lon="5.28558">
        <ele>291.6</ele>
        <time>2025-05-27T10:37:24Z</time>
      </trkpt>
      <trkpt lat="45.69818" lon="5.28556">
        <ele>291.6</ele>
        <time>2025-05-27T10:37:25Z</time>
      </trkpt>
      <trkpt lat="45.69817" lon="5.28553">
        <ele>291.6</ele>
        <time>2025-05-27T10:37:26Z</time>
      </trkpt>
      <trkpt lat="45.69817" lon="5.2855">
        <ele>291.6</ele>
        <time>2025-05-27T10:37:27Z</time>
      </trkpt>
      <trkpt lat="45.69817" lon="5.28547">
        <ele>291.6</ele>
        <time>2025-05-27T10:37:28Z</time>
      </trkpt>
      <trkpt lat="45.69816" lon="5.28544">
        <ele>292</ele>
        <time>2025-05-27T10:37:29Z</time>
      </trkpt>
      <trkpt lat="45.69816" lon="5.2854">
        <ele>292.4</ele>
        <time>2025-05-27T10:37:30Z</time>
      </trkpt>
      <trkpt lat="45.69815" lon="5.28538">
        <ele>292.4</ele>
        <time>2025-05-27T10:37:31Z</time>
      </trkpt>
      <trkpt lat="45.69814" lon="5.28534">
        <ele>292.6</ele>
        <time>2025-05-27T10:37:32Z</time>
      </trkpt>
      <trkpt lat="45.69814" lon="5.28531">
        <ele>292.6</ele>
        <time>2025-05-27T10:37:33Z</time>
      </trkpt>
      <trkpt lat="45.69814" lon="5.28528">
        <ele>293.2</ele>
        <time>2025-05-27T10:37:34Z</time>
      </trkpt>
      <trkpt lat="45.69813" lon="5.28525">
        <ele>293.2</ele>
        <time>2025-05-27T10:37:35Z</time>
      </trkpt>
      <trkpt lat="45.69813" lon="5.28521">
        <ele>293.2</ele>
        <time>2025-05-27T10:37:36Z</time>
      </trkpt>
      <trkpt lat="45.69813" lon="5.28518">
        <ele>293.4</ele>
        <time>2025-05-27T10:37:37Z</time>
      </trkpt>
      <trkpt lat="45.69812" lon="5.28514">
        <ele>293.4</ele>
        <time>2025-05-27T10:37:38Z</time>
      </trkpt>
      <trkpt lat="45.69812" lon="5.28511">
        <ele>293.4</ele>
        <time>2025-05-27T10:37:39Z</time>
      </trkpt>
      <trkpt lat="45.69812" lon="5.28507">
        <ele>293.4</ele>
        <time>2025-05-27T10:37:40Z</time>
      </trkpt>
      <trkpt lat="45.69812" lon="5.28504">
        <ele>293.4</ele>
        <time>2025-05-27T10:37:41Z</time>
      </trkpt>
      <trkpt lat="45.69812" lon="5.285">
        <ele>293.2</ele>
        <time>2025-05-27T10:37:42Z</time>
      </trkpt>
      <trkpt lat="45.69812" lon="5.28497">
        <ele>293.4</ele>
        <time>2025-05-27T10:37:43Z</time>
      </trkpt>
      <trkpt lat="45.69812" lon="5.28493">
        <ele>293.4</ele>
        <time>2025-05-27T10:37:44Z</time>
      </trkpt>
      <trkpt lat="45.69812" lon="5.2849">
        <ele>293.8</ele>
        <time>2025-05-27T10:37:45Z</time>
      </trkpt>
      <trkpt lat="45.69811" lon="5.28486">
        <ele>293.8</ele>
        <time>2025-05-27T10:37:46Z</time>
      </trkpt>
      <trkpt lat="45.69811" lon="5.28483">
        <ele>293.8</ele>
        <time>2025-05-27T10:37:47Z</time>
      </trkpt>
      <trkpt lat="45.6981" lon="5.28479">
        <ele>293.8</ele>
        <time>2025-05-27T10:37:48Z</time>
      </trkpt>
      <trkpt lat="45.6981" lon="5.28476">
        <ele>293.8</ele>
        <time>2025-05-27T10:37:49Z</time>
      </trkpt>
      <trkpt lat="45.69809" lon="5.28472">
        <ele>294</ele>
        <time>2025-05-27T10:37:50Z</time>
      </trkpt>
      <trkpt lat="45.69809" lon="5.28468">
        <ele>294</ele>
        <time>2025-05-27T10:37:51Z</time>
      </trkpt>
      <trkpt lat="45.69808" lon="5.28465">
        <ele>293.8</ele>
        <time>2025-05-27T10:37:52Z</time>
      </trkpt>
      <trkpt lat="45.69808" lon="5.28462">
        <ele>293.8</ele>
        <time>2025-05-27T10:37:53Z</time>
      </trkpt>
      <trkpt lat="45.69808" lon="5.28459">
        <ele>293.8</ele>
        <time>2025-05-27T10:37:54Z</time>
      </trkpt>
      <trkpt lat="45.69808" lon="5.28456">
        <ele>294</ele>
        <time>2025-05-27T10:37:55Z</time>
      </trkpt>
      <trkpt lat="45.69808" lon="5.28452">
        <ele>294</ele>
        <time>2025-05-27T10:37:56Z</time>
      </trkpt>
      <trkpt lat="45.69807" lon="5.28449">
        <ele>294</ele>
        <time>2025-05-27T10:37:57Z</time>
      </trkpt>
      <trkpt lat="45.69807" lon="5.28446">
        <ele>294</ele>
        <time>2025-05-27T10:37:58Z</time>
      </trkpt>
      <trkpt lat="45.69807" lon="5.28443">
        <ele>294.6</ele>
        <time>2025-05-27T10:37:59Z</time>
      </trkpt>
      <trkpt lat="45.69805" lon="5.28441">
        <ele>295.2</ele>
        <time>2025-05-27T10:38:00Z</time>
      </trkpt>
      <trkpt lat="45.69805" lon="5.28438">
        <ele>295.6</ele>
        <time>2025-05-27T10:38:01Z</time>
      </trkpt>
      <trkpt lat="45.69805" lon="5.28435">
        <ele>295.8</ele>
        <time>2025-05-27T10:38:02Z</time>
      </trkpt>
      <trkpt lat="45.69805" lon="5.28432">
        <ele>296.4</ele>
        <time>2025-05-27T10:38:03Z</time>
      </trkpt>
      <trkpt lat="45.69806" lon="5.28429">
        <ele>296.8</ele>
        <time>2025-05-27T10:38:04Z</time>
      </trkpt>
      <trkpt lat="45.69806" lon="5.28426">
        <ele>296.8</ele>
        <time>2025-05-27T10:38:05Z</time>
      </trkpt>
      <trkpt lat="45.69806" lon="5.28423">
        <ele>296.6</ele>
        <time>2025-05-27T10:38:06Z</time>
      </trkpt>
      <trkpt lat="45.69807" lon="5.28421">
        <ele>296.6</ele>
        <time>2025-05-27T10:38:07Z</time>
      </trkpt>
      <trkpt lat="45.69808" lon="5.28418">
        <ele>297</ele>
        <time>2025-05-27T10:38:08Z</time>
      </trkpt>
      <trkpt lat="45.6981" lon="5.28415">
        <ele>297.2</ele>
        <time>2025-05-27T10:38:09Z</time>
      </trkpt>
      <trkpt lat="45.69811" lon="5.28413">
        <ele>297.2</ele>
        <time>2025-05-27T10:38:10Z</time>
      </trkpt>
      <trkpt lat="45.69812" lon="5.2841">
        <ele>297.2</ele>
        <time>2025-05-27T10:38:11Z</time>
      </trkpt>
      <trkpt lat="45.69813" lon="5.28408">
        <ele>297.8</ele>
        <time>2025-05-27T10:38:12Z</time>
      </trkpt>
      <trkpt lat="45.69814" lon="5.28405">
        <ele>297.6</ele>
        <time>2025-05-27T10:38:13Z</time>
      </trkpt>
      <trkpt lat="45.69815" lon="5.28403">
        <ele>297.6</ele>
        <time>2025-05-27T10:38:14Z</time>
      </trkpt>
      <trkpt lat="45.69816" lon="5.284">
        <ele>297.6</ele>
        <time>2025-05-27T10:38:15Z</time>
      </trkpt>
      <trkpt lat="45.69818" lon="5.28397">
        <ele>297.6</ele>
        <time>2025-05-27T10:38:16Z</time>
      </trkpt>
      <trkpt lat="45.6982" lon="5.28394">
        <ele>297.6</ele>
        <time>2025-05-27T10:38:17Z</time>
      </trkpt>
      <trkpt lat="45.69821" lon="5.28393">
        <ele>297.2</ele>
        <time>2025-05-27T10:38:18Z</time>
      </trkpt>
      <trkpt lat="45.69822" lon="5.28391">
        <ele>297</ele>
        <time>2025-05-27T10:38:19Z</time>
      </trkpt>
      <trkpt lat="45.69824" lon="5.28389">
        <ele>297</ele>
        <time>2025-05-27T10:38:20Z</time>
      </trkpt>
      <trkpt lat="45.69826" lon="5.28386">
        <ele>297.4</ele>
        <time>2025-05-27T10:38:21Z</time>
      </trkpt>
      <trkpt lat="45.69827" lon="5.28384">
        <ele>297.4</ele>
        <time>2025-05-27T10:38:22Z</time>
      </trkpt>
      <trkpt lat="45.6983" lon="5.28383">
        <ele>298</ele>
        <time>2025-05-27T10:38:23Z</time>
      </trkpt>
      <trkpt lat="45.69832" lon="5.28381">
        <ele>298</ele>
        <time>2025-05-27T10:38:24Z</time>
      </trkpt>
      <trkpt lat="45.69834" lon="5.2838">
        <ele>298</ele>
        <time>2025-05-27T10:38:25Z</time>
      </trkpt>
      <trkpt lat="45.69837" lon="5.28379">
        <ele>298.2</ele>
        <time>2025-05-27T10:38:26Z</time>
      </trkpt>
      <trkpt lat="45.69839" lon="5.28378">
        <ele>298</ele>
        <time>2025-05-27T10:38:27Z</time>
      </trkpt>
      <trkpt lat="45.69841" lon="5.28377">
        <ele>298.6</ele>
        <time>2025-05-27T10:38:28Z</time>
      </trkpt>
      <trkpt lat="45.69843" lon="5.28375">
        <ele>298.4</ele>
        <time>2025-05-27T10:38:29Z</time>
      </trkpt>
      <trkpt lat="45.69845" lon="5.28374">
        <ele>298.6</ele>
        <time>2025-05-27T10:38:30Z</time>
      </trkpt>
      <trkpt lat="45.69846" lon="5.28372">
        <ele>298.4</ele>
        <time>2025-05-27T10:38:31Z</time>
      </trkpt>
      <trkpt lat="45.69848" lon="5.28371">
        <ele>298.4</ele>
        <time>2025-05-27T10:38:32Z</time>
      </trkpt>
      <trkpt lat="45.6985" lon="5.2837">
        <ele>298.8</ele>
        <time>2025-05-27T10:38:33Z</time>
      </trkpt>
      <trkpt lat="45.69852" lon="5.28368">
        <ele>298.8</ele>
        <time>2025-05-27T10:38:34Z</time>
      </trkpt>
      <trkpt lat="45.69853" lon="5.28368">
        <ele>299</ele>
        <time>2025-05-27T10:38:35Z</time>
      </trkpt>
      <trkpt lat="45.69855" lon="5.28367">
        <ele>299</ele>
        <time>2025-05-27T10:38:36Z</time>
      </trkpt>
      <trkpt lat="45.69857" lon="5.28366">
        <ele>299.6</ele>
        <time>2025-05-27T10:38:37Z</time>
      </trkpt>
      <trkpt lat="45.69859" lon="5.28366">
        <ele>299.6</ele>
        <time>2025-05-27T10:38:38Z</time>
      </trkpt>
      <trkpt lat="45.69861" lon="5.28364">
        <ele>299.6</ele>
        <time>2025-05-27T10:38:39Z</time>
      </trkpt>
      <trkpt lat="45.69863" lon="5.28363">
        <ele>300</ele>
        <time>2025-05-27T10:38:40Z</time>
      </trkpt>
      <trkpt lat="45.69866" lon="5.28361">
        <ele>300.4</ele>
        <time>2025-05-27T10:38:41Z</time>
      </trkpt>
      <trkpt lat="45.69868" lon="5.28359">
        <ele>299.8</ele>
        <time>2025-05-27T10:38:42Z</time>
      </trkpt>
      <trkpt lat="45.69869" lon="5.28357">
        <ele>300.4</ele>
        <time>2025-05-27T10:38:43Z</time>
      </trkpt>
      <trkpt lat="45.69872" lon="5.28355">
        <ele>300</ele>
        <time>2025-05-27T10:38:44Z</time>
      </trkpt>
      <trkpt lat="45.69874" lon="5.28353">
        <ele>300</ele>
        <time>2025-05-27T10:38:45Z</time>
      </trkpt>
      <trkpt lat="45.69877" lon="5.28352">
        <ele>300.2</ele>
        <time>2025-05-27T10:38:46Z</time>
      </trkpt>
      <trkpt lat="45.69879" lon="5.28351">
        <ele>300.2</ele>
        <time>2025-05-27T10:38:47Z</time>
      </trkpt>
      <trkpt lat="45.69881" lon="5.2835">
        <ele>300.6</ele>
        <time>2025-05-27T10:38:48Z</time>
      </trkpt>
      <trkpt lat="45.69884" lon="5.28349">
        <ele>300</ele>
        <time>2025-05-27T10:38:49Z</time>
      </trkpt>
      <trkpt lat="45.69887" lon="5.28348">
        <ele>300.2</ele>
        <time>2025-05-27T10:38:50Z</time>
      </trkpt>
      <trkpt lat="45.6989" lon="5.28348">
        <ele>300.2</ele>
        <time>2025-05-27T10:38:51Z</time>
      </trkpt>
      <trkpt lat="45.69893" lon="5.28347">
        <ele>301</ele>
        <time>2025-05-27T10:38:52Z</time>
      </trkpt>
      <trkpt lat="45.69896" lon="5.28346">
        <ele>301</ele>
        <time>2025-05-27T10:38:53Z</time>
      </trkpt>
      <trkpt lat="45.69899" lon="5.28345">
        <ele>301</ele>
        <time>2025-05-27T10:38:54Z</time>
      </trkpt>
      <trkpt lat="45.69901" lon="5.28343">
        <ele>301</ele>
        <time>2025-05-27T10:38:55Z</time>
      </trkpt>
      <trkpt lat="45.69904" lon="5.28342">
        <ele>301.4</ele>
        <time>2025-05-27T10:38:56Z</time>
      </trkpt>
      <trkpt lat="45.69907" lon="5.28341">
        <ele>301.8</ele>
        <time>2025-05-27T10:38:57Z</time>
      </trkpt>
      <trkpt lat="45.69909" lon="5.28341">
        <ele>301.8</ele>
        <time>2025-05-27T10:38:58Z</time>
      </trkpt>
      <trkpt lat="45.69912" lon="5.2834">
        <ele>301.8</ele>
        <time>2025-05-27T10:38:59Z</time>
      </trkpt>
      <trkpt lat="45.69914" lon="5.28339">
        <ele>301.8</ele>
        <time>2025-05-27T10:39:00Z</time>
      </trkpt>
      <trkpt lat="45.69916" lon="5.28338">
        <ele>301.8</ele>
        <time>2025-05-27T10:39:01Z</time>
      </trkpt>
      <trkpt lat="45.69919" lon="5.28337">
        <ele>301.8</ele>
        <time>2025-05-27T10:39:02Z</time>
      </trkpt>
      <trkpt lat="45.69921" lon="5.28336">
        <ele>301.4</ele>
        <time>2025-05-27T10:39:03Z</time>
      </trkpt>
      <trkpt lat="45.69923" lon="5.28334">
        <ele>301.4</ele>
        <time>2025-05-27T10:39:04Z</time>
      </trkpt>
      <trkpt lat="45.69926" lon="5.28333">
        <ele>301.4</ele>
        <time>2025-05-27T10:39:05Z</time>
      </trkpt>
      <trkpt lat="45.69928" lon="5.28331">
        <ele>301.4</ele>
        <time>2025-05-27T10:39:06Z</time>
      </trkpt>
      <trkpt lat="45.6993" lon="5.2833">
        <ele>301.4</ele>
        <time>2025-05-27T10:39:07Z</time>
      </trkpt>
      <trkpt lat="45.69932" lon="5.28328">
        <ele>301.4</ele>
        <time>2025-05-27T10:39:08Z</time>
      </trkpt>
      <trkpt lat="45.69935" lon="5.28326">
        <ele>301.4</ele>
        <time>2025-05-27T10:39:09Z</time>
      </trkpt>
      <trkpt lat="45.69936" lon="5.28324">
        <ele>301.4</ele>
        <time>2025-05-27T10:39:10Z</time>
      </trkpt>
      <trkpt lat="45.69938" lon="5.28322">
        <ele>301.4</ele>
        <time>2025-05-27T10:39:11Z</time>
      </trkpt>
      <trkpt lat="45.6994" lon="5.2832">
        <ele>302</ele>
        <time>2025-05-27T10:39:12Z</time>
      </trkpt>
      <trkpt lat="45.6994" lon="5.2832">
        <ele>302</ele>
        <time>2025-05-27T10:39:13Z</time>
      </trkpt>
      <trkpt lat="45.6994" lon="5.2832">
        <ele>302</ele>
        <time>2025-05-27T10:39:14Z</time>
      </trkpt>
      <trkpt lat="45.69949" lon="5.28314">
        <ele>302</ele>
        <time>2025-05-27T10:39:16Z</time>
      </trkpt>
      <trkpt lat="45.69951" lon="5.28313">
        <ele>302.2</ele>
        <time>2025-05-27T10:39:17Z</time>
      </trkpt>
      <trkpt lat="45.69953" lon="5.28311">
        <ele>302.2</ele>
        <time>2025-05-27T10:39:18Z</time>
      </trkpt>
      <trkpt lat="45.69955" lon="5.28309">
        <ele>302.8</ele>
        <time>2025-05-27T10:39:19Z</time>
      </trkpt>
      <trkpt lat="45.69956" lon="5.28308">
        <ele>303</ele>
        <time>2025-05-27T10:39:20Z</time>
      </trkpt>
      <trkpt lat="45.69958" lon="5.28307">
        <ele>303</ele>
        <time>2025-05-27T10:39:21Z</time>
      </trkpt>
      <trkpt lat="45.69959" lon="5.28306">
        <ele>303.4</ele>
        <time>2025-05-27T10:39:22Z</time>
      </trkpt>
      <trkpt lat="45.69961" lon="5.28305">
        <ele>303.4</ele>
        <time>2025-05-27T10:39:23Z</time>
      </trkpt>
      <trkpt lat="45.69963" lon="5.28303">
        <ele>303.8</ele>
        <time>2025-05-27T10:39:24Z</time>
      </trkpt>
      <trkpt lat="45.69964" lon="5.28302">
        <ele>304</ele>
        <time>2025-05-27T10:39:25Z</time>
      </trkpt>
      <trkpt lat="45.69966" lon="5.283">
        <ele>304.4</ele>
        <time>2025-05-27T10:39:26Z</time>
      </trkpt>
      <trkpt lat="45.69967" lon="5.28299">
        <ele>304.4</ele>
        <time>2025-05-27T10:39:27Z</time>
      </trkpt>
      <trkpt lat="45.69969" lon="5.28297">
        <ele>304.6</ele>
        <time>2025-05-27T10:39:28Z</time>
      </trkpt>
      <trkpt lat="45.6997" lon="5.28296">
        <ele>304.6</ele>
        <time>2025-05-27T10:39:29Z</time>
      </trkpt>
      <trkpt lat="45.69971" lon="5.28294">
        <ele>305</ele>
        <time>2025-05-27T10:39:30Z</time>
      </trkpt>
      <trkpt lat="45.69973" lon="5.28293">
        <ele>305</ele>
        <time>2025-05-27T10:39:31Z</time>
      </trkpt>
      <trkpt lat="45.69974" lon="5.28292">
        <ele>305.6</ele>
        <time>2025-05-27T10:39:32Z</time>
      </trkpt>
      <trkpt lat="45.69975" lon="5.2829">
        <ele>305.6</ele>
        <time>2025-05-27T10:39:33Z</time>
      </trkpt>
      <trkpt lat="45.69977" lon="5.28289">
        <ele>305.8</ele>
        <time>2025-05-27T10:39:34Z</time>
      </trkpt>
      <trkpt lat="45.69978" lon="5.28288">
        <ele>305.8</ele>
        <time>2025-05-27T10:39:35Z</time>
      </trkpt>
      <trkpt lat="45.69979" lon="5.28287">
        <ele>305.8</ele>
        <time>2025-05-27T10:39:36Z</time>
      </trkpt>
      <trkpt lat="45.6998" lon="5.28285">
        <ele>306.2</ele>
        <time>2025-05-27T10:39:37Z</time>
      </trkpt>
      <trkpt lat="45.69981" lon="5.28283">
        <ele>306.2</ele>
        <time>2025-05-27T10:39:38Z</time>
      </trkpt>
      <trkpt lat="45.69982" lon="5.28282">
        <ele>306.8</ele>
        <time>2025-05-27T10:39:39Z</time>
      </trkpt>
      <trkpt lat="45.69983" lon="5.2828">
        <ele>306.8</ele>
        <time>2025-05-27T10:39:40Z</time>
      </trkpt>
      <trkpt lat="45.69984" lon="5.28279">
        <ele>307</ele>
        <time>2025-05-27T10:39:41Z</time>
      </trkpt>
      <trkpt lat="45.69985" lon="5.28277">
        <ele>307.4</ele>
        <time>2025-05-27T10:39:42Z</time>
      </trkpt>
      <trkpt lat="45.69986" lon="5.28276">
        <ele>307.4</ele>
        <time>2025-05-27T10:39:43Z</time>
      </trkpt>
      <trkpt lat="45.69986" lon="5.28274">
        <ele>307.8</ele>
        <time>2025-05-27T10:39:44Z</time>
      </trkpt>
      <trkpt lat="45.69987" lon="5.28272">
        <ele>307.8</ele>
        <time>2025-05-27T10:39:45Z</time>
      </trkpt>
      <trkpt lat="45.69988" lon="5.28271">
        <ele>308.2</ele>
        <time>2025-05-27T10:39:46Z</time>
      </trkpt>
      <trkpt lat="45.69989" lon="5.2827">
        <ele>308.2</ele>
        <time>2025-05-27T10:39:47Z</time>
      </trkpt>
      <trkpt lat="45.6999" lon="5.28269">
        <ele>308.2</ele>
        <time>2025-05-27T10:39:48Z</time>
      </trkpt>
      <trkpt lat="45.69991" lon="5.28267">
        <ele>308.2</ele>
        <time>2025-05-27T10:39:49Z</time>
      </trkpt>
      <trkpt lat="45.69992" lon="5.28265">
        <ele>308</ele>
        <time>2025-05-27T10:39:50Z</time>
      </trkpt>
      <trkpt lat="45.69993" lon="5.28263">
        <ele>308.2</ele>
        <time>2025-05-27T10:39:51Z</time>
      </trkpt>
      <trkpt lat="45.69994" lon="5.28262">
        <ele>308.4</ele>
        <time>2025-05-27T10:39:52Z</time>
      </trkpt>
      <trkpt lat="45.69995" lon="5.2826">
        <ele>308.8</ele>
        <time>2025-05-27T10:39:53Z</time>
      </trkpt>
      <trkpt lat="45.69996" lon="5.28257">
        <ele>308.8</ele>
        <time>2025-05-27T10:39:54Z</time>
      </trkpt>
      <trkpt lat="45.69998" lon="5.28255">
        <ele>308.8</ele>
        <time>2025-05-27T10:39:55Z</time>
      </trkpt>
      <trkpt lat="45.69999" lon="5.28252">
        <ele>308.8</ele>
        <time>2025-05-27T10:39:56Z</time>
      </trkpt>
      <trkpt lat="45.70001" lon="5.2825">
        <ele>308.8</ele>
        <time>2025-05-27T10:39:57Z</time>
      </trkpt>
      <trkpt lat="45.70002" lon="5.28248">
        <ele>308.6</ele>
        <time>2025-05-27T10:39:58Z</time>
      </trkpt>
      <trkpt lat="45.70003" lon="5.28247">
        <ele>309</ele>
        <time>2025-05-27T10:39:59Z</time>
      </trkpt>
      <trkpt lat="45.70004" lon="5.28246">
        <ele>309.2</ele>
        <time>2025-05-27T10:40:00Z</time>
      </trkpt>
      <trkpt lat="45.70006" lon="5.28244">
        <ele>309.2</ele>
        <time>2025-05-27T10:40:01Z</time>
      </trkpt>
      <trkpt lat="45.70007" lon="5.28243">
        <ele>309.2</ele>
        <time>2025-05-27T10:40:02Z</time>
      </trkpt>
      <trkpt lat="45.70008" lon="5.28241">
        <ele>309.4</ele>
        <time>2025-05-27T10:40:03Z</time>
      </trkpt>
      <trkpt lat="45.7001" lon="5.28239">
        <ele>309.8</ele>
        <time>2025-05-27T10:40:04Z</time>
      </trkpt>
      <trkpt lat="45.70011" lon="5.28237">
        <ele>310</ele>
        <time>2025-05-27T10:40:05Z</time>
      </trkpt>
      <trkpt lat="45.70014" lon="5.28233">
        <ele>310</ele>
        <time>2025-05-27T10:40:06Z</time>
      </trkpt>
      <trkpt lat="45.70015" lon="5.28231">
        <ele>310</ele>
        <time>2025-05-27T10:40:07Z</time>
      </trkpt>
      <trkpt lat="45.70017" lon="5.28229">
        <ele>310.4</ele>
        <time>2025-05-27T10:40:08Z</time>
      </trkpt>
      <trkpt lat="45.70019" lon="5.28227">
        <ele>310.4</ele>
        <time>2025-05-27T10:40:09Z</time>
      </trkpt>
      <trkpt lat="45.7002" lon="5.28225">
        <ele>310.8</ele>
        <time>2025-05-27T10:40:10Z</time>
      </trkpt>
      <trkpt lat="45.70022" lon="5.28224">
        <ele>310.8</ele>
        <time>2025-05-27T10:40:11Z</time>
      </trkpt>
      <trkpt lat="45.70023" lon="5.28222">
        <ele>310.4</ele>
        <time>2025-05-27T10:40:12Z</time>
      </trkpt>
      <trkpt lat="45.70024" lon="5.2822">
        <ele>310.4</ele>
        <time>2025-05-27T10:40:13Z</time>
      </trkpt>
      <trkpt lat="45.70026" lon="5.28218">
        <ele>310.4</ele>
        <time>2025-05-27T10:40:14Z</time>
      </trkpt>
      <trkpt lat="45.70027" lon="5.28216">
        <ele>310.4</ele>
        <time>2025-05-27T10:40:15Z</time>
      </trkpt>
      <trkpt lat="45.70028" lon="5.28214">
        <ele>310.8</ele>
        <time>2025-05-27T10:40:16Z</time>
      </trkpt>
      <trkpt lat="45.70029" lon="5.28212">
        <ele>310.8</ele>
        <time>2025-05-27T10:40:17Z</time>
      </trkpt>
      <trkpt lat="45.70031" lon="5.2821">
        <ele>311</ele>
        <time>2025-05-27T10:40:18Z</time>
      </trkpt>
      <trkpt lat="45.70032" lon="5.28208">
        <ele>311</ele>
        <time>2025-05-27T10:40:19Z</time>
      </trkpt>
      <trkpt lat="45.70033" lon="5.28206">
        <ele>311</ele>
        <time>2025-05-27T10:40:20Z</time>
      </trkpt>
      <trkpt lat="45.70034" lon="5.28204">
        <ele>311.6</ele>
        <time>2025-05-27T10:40:21Z</time>
      </trkpt>
      <trkpt lat="45.70034" lon="5.28204">
        <ele>312</ele>
        <time>2025-05-27T10:40:22Z</time>
      </trkpt>
      <trkpt lat="45.70036" lon="5.28202">
        <ele>312</ele>
        <time>2025-05-27T10:40:23Z</time>
      </trkpt>
      <trkpt lat="45.70037" lon="5.28201">
        <ele>312.4</ele>
        <time>2025-05-27T10:40:24Z</time>
      </trkpt>
      <trkpt lat="45.70038" lon="5.28199">
        <ele>312.4</ele>
        <time>2025-05-27T10:40:25Z</time>
      </trkpt>
      <trkpt lat="45.7004" lon="5.28196">
        <ele>312.6</ele>
        <time>2025-05-27T10:40:26Z</time>
      </trkpt>
      <trkpt lat="45.7004" lon="5.28195">
        <ele>313</ele>
        <time>2025-05-27T10:40:27Z</time>
      </trkpt>
      <trkpt lat="45.70041" lon="5.28193">
        <ele>313</ele>
        <time>2025-05-27T10:40:28Z</time>
      </trkpt>
      <trkpt lat="45.70042" lon="5.28191">
        <ele>313</ele>
        <time>2025-05-27T10:40:29Z</time>
      </trkpt>
      <trkpt lat="45.70043" lon="5.28189">
        <ele>313</ele>
        <time>2025-05-27T10:40:30Z</time>
      </trkpt>
      <trkpt lat="45.70043" lon="5.28186">
        <ele>313</ele>
        <time>2025-05-27T10:40:31Z</time>
      </trkpt>
      <trkpt lat="45.70044" lon="5.28184">
        <ele>313</ele>
        <time>2025-05-27T10:40:32Z</time>
      </trkpt>
      <trkpt lat="45.70045" lon="5.28181">
        <ele>313</ele>
        <time>2025-05-27T10:40:33Z</time>
      </trkpt>
      <trkpt lat="45.70046" lon="5.28178">
        <ele>313.2</ele>
        <time>2025-05-27T10:40:34Z</time>
      </trkpt>
      <trkpt lat="45.70046" lon="5.28177">
        <ele>313.2</ele>
        <time>2025-05-27T10:40:35Z</time>
      </trkpt>
      <trkpt lat="45.70047" lon="5.28175">
        <ele>313.2</ele>
        <time>2025-05-27T10:40:36Z</time>
      </trkpt>
      <trkpt lat="45.70047" lon="5.28172">
        <ele>313.6</ele>
        <time>2025-05-27T10:40:37Z</time>
      </trkpt>
      <trkpt lat="45.70048" lon="5.2817">
        <ele>313.6</ele>
        <time>2025-05-27T10:40:38Z</time>
      </trkpt>
      <trkpt lat="45.70048" lon="5.28168">
        <ele>313.8</ele>
        <time>2025-05-27T10:40:39Z</time>
      </trkpt>
      <trkpt lat="45.70048" lon="5.28165">
        <ele>313.8</ele>
        <time>2025-05-27T10:40:40Z</time>
      </trkpt>
      <trkpt lat="45.70048" lon="5.28163">
        <ele>314</ele>
        <time>2025-05-27T10:40:41Z</time>
      </trkpt>
      <trkpt lat="45.70049" lon="5.2816">
        <ele>314</ele>
        <time>2025-05-27T10:40:42Z</time>
      </trkpt>
      <trkpt lat="45.7005" lon="5.28157">
        <ele>314</ele>
        <time>2025-05-27T10:40:43Z</time>
      </trkpt>
      <trkpt lat="45.7005" lon="5.28155">
        <ele>314</ele>
        <time>2025-05-27T10:40:44Z</time>
      </trkpt>
      <trkpt lat="45.70051" lon="5.28152">
        <ele>314</ele>
        <time>2025-05-27T10:40:45Z</time>
      </trkpt>
      <trkpt lat="45.70052" lon="5.28149">
        <ele>314</ele>
        <time>2025-05-27T10:40:46Z</time>
      </trkpt>
      <trkpt lat="45.70053" lon="5.28146">
        <ele>314.4</ele>
        <time>2025-05-27T10:40:47Z</time>
      </trkpt>
      <trkpt lat="45.70053" lon="5.28144">
        <ele>314.4</ele>
        <time>2025-05-27T10:40:48Z</time>
      </trkpt>
      <trkpt lat="45.70053" lon="5.28142">
        <ele>314.4</ele>
        <time>2025-05-27T10:40:49Z</time>
      </trkpt>
      <trkpt lat="45.70053" lon="5.28139">
        <ele>314.6</ele>
        <time>2025-05-27T10:40:50Z</time>
      </trkpt>
      <trkpt lat="45.70053" lon="5.28136">
        <ele>314.6</ele>
        <time>2025-05-27T10:40:51Z</time>
      </trkpt>
      <trkpt lat="45.70053" lon="5.28134">
        <ele>315</ele>
        <time>2025-05-27T10:40:52Z</time>
      </trkpt>
      <trkpt lat="45.70053" lon="5.28131">
        <ele>315.2</ele>
        <time>2025-05-27T10:40:53Z</time>
      </trkpt>
      <trkpt lat="45.70053" lon="5.28128">
        <ele>315.2</ele>
        <time>2025-05-27T10:40:54Z</time>
      </trkpt>
      <trkpt lat="45.70053" lon="5.28126">
        <ele>315.4</ele>
        <time>2025-05-27T10:40:55Z</time>
      </trkpt>
      <trkpt lat="45.70053" lon="5.28124">
        <ele>315.6</ele>
        <time>2025-05-27T10:40:56Z</time>
      </trkpt>
      <trkpt lat="45.70053" lon="5.28122">
        <ele>315.4</ele>
        <time>2025-05-27T10:40:57Z</time>
      </trkpt>
      <trkpt lat="45.70053" lon="5.2812">
        <ele>315.8</ele>
        <time>2025-05-27T10:40:58Z</time>
      </trkpt>
      <trkpt lat="45.70053" lon="5.28117">
        <ele>316.2</ele>
        <time>2025-05-27T10:40:59Z</time>
      </trkpt>
      <trkpt lat="45.70052" lon="5.28114">
        <ele>316.2</ele>
        <time>2025-05-27T10:41:00Z</time>
      </trkpt>
      <trkpt lat="45.70052" lon="5.2811">
        <ele>316.4</ele>
        <time>2025-05-27T10:41:01Z</time>
      </trkpt>
      <trkpt lat="45.70052" lon="5.28107">
        <ele>316.4</ele>
        <time>2025-05-27T10:41:02Z</time>
      </trkpt>
      <trkpt lat="45.70052" lon="5.28105">
        <ele>317</ele>
        <time>2025-05-27T10:41:03Z</time>
      </trkpt>
      <trkpt lat="45.70052" lon="5.28103">
        <ele>317</ele>
        <time>2025-05-27T10:41:04Z</time>
      </trkpt>
      <trkpt lat="45.70053" lon="5.281">
        <ele>317</ele>
        <time>2025-05-27T10:41:05Z</time>
      </trkpt>
      <trkpt lat="45.70053" lon="5.28099">
        <ele>317.4</ele>
        <time>2025-05-27T10:41:06Z</time>
      </trkpt>
      <trkpt lat="45.70054" lon="5.28096">
        <ele>317.4</ele>
        <time>2025-05-27T10:41:07Z</time>
      </trkpt>
      <trkpt lat="45.70054" lon="5.28095">
        <ele>318</ele>
        <time>2025-05-27T10:41:08Z</time>
      </trkpt>
      <trkpt lat="45.70055" lon="5.28092">
        <ele>318.2</ele>
        <time>2025-05-27T10:41:09Z</time>
      </trkpt>
      <trkpt lat="45.70055" lon="5.28091">
        <ele>318.2</ele>
        <time>2025-05-27T10:41:10Z</time>
      </trkpt>
      <trkpt lat="45.70056" lon="5.28088">
        <ele>318.2</ele>
        <time>2025-05-27T10:41:11Z</time>
      </trkpt>
      <trkpt lat="45.70057" lon="5.28086">
        <ele>318.6</ele>
        <time>2025-05-27T10:41:12Z</time>
      </trkpt>
      <trkpt lat="45.70057" lon="5.28084">
        <ele>318.6</ele>
        <time>2025-05-27T10:41:13Z</time>
      </trkpt>
      <trkpt lat="45.70058" lon="5.28082">
        <ele>318.4</ele>
        <time>2025-05-27T10:41:14Z</time>
      </trkpt>
      <trkpt lat="45.70058" lon="5.28079">
        <ele>318.8</ele>
        <time>2025-05-27T10:41:15Z</time>
      </trkpt>
      <trkpt lat="45.70059" lon="5.28078">
        <ele>318.8</ele>
        <time>2025-05-27T10:41:16Z</time>
      </trkpt>
      <trkpt lat="45.70059" lon="5.28076">
        <ele>318.8</ele>
        <time>2025-05-27T10:41:17Z</time>
      </trkpt>
      <trkpt lat="45.7006" lon="5.28074">
        <ele>319.2</ele>
        <time>2025-05-27T10:41:18Z</time>
      </trkpt>
      <trkpt lat="45.7006" lon="5.28072">
        <ele>319.6</ele>
        <time>2025-05-27T10:41:19Z</time>
      </trkpt>
      <trkpt lat="45.70061" lon="5.2807">
        <ele>320.2</ele>
        <time>2025-05-27T10:41:20Z</time>
      </trkpt>
      <trkpt lat="45.70061" lon="5.28069">
        <ele>320.6</ele>
        <time>2025-05-27T10:41:21Z</time>
      </trkpt>
      <trkpt lat="45.70061" lon="5.28067">
        <ele>320.6</ele>
        <time>2025-05-27T10:41:22Z</time>
      </trkpt>
      <trkpt lat="45.70061" lon="5.28065">
        <ele>320.8</ele>
        <time>2025-05-27T10:41:23Z</time>
      </trkpt>
      <trkpt lat="45.70061" lon="5.28063">
        <ele>320.8</ele>
        <time>2025-05-27T10:41:24Z</time>
      </trkpt>
      <trkpt lat="45.70061" lon="5.28061">
        <ele>320.8</ele>
        <time>2025-05-27T10:41:25Z</time>
      </trkpt>
      <trkpt lat="45.7006" lon="5.28059">
        <ele>321.2</ele>
        <time>2025-05-27T10:41:26Z</time>
      </trkpt>
      <trkpt lat="45.7006" lon="5.28057">
        <ele>321.6</ele>
        <time>2025-05-27T10:41:27Z</time>
      </trkpt>
      <trkpt lat="45.70059" lon="5.28055">
        <ele>321.8</ele>
        <time>2025-05-27T10:41:28Z</time>
      </trkpt>
      <trkpt lat="45.70058" lon="5.28053">
        <ele>321.4</ele>
        <time>2025-05-27T10:41:29Z</time>
      </trkpt>
      <trkpt lat="45.70058" lon="5.28051">
        <ele>321.4</ele>
        <time>2025-05-27T10:41:30Z</time>
      </trkpt>
      <trkpt lat="45.70057" lon="5.28049">
        <ele>321.6</ele>
        <time>2025-05-27T10:41:31Z</time>
      </trkpt>
      <trkpt lat="45.70057" lon="5.28048">
        <ele>321.6</ele>
        <time>2025-05-27T10:41:32Z</time>
      </trkpt>
      <trkpt lat="45.70056" lon="5.28045">
        <ele>321.6</ele>
        <time>2025-05-27T10:41:33Z</time>
      </trkpt>
      <trkpt lat="45.70056" lon="5.28043">
        <ele>322</ele>
        <time>2025-05-27T10:41:34Z</time>
      </trkpt>
      <trkpt lat="45.70055" lon="5.28041">
        <ele>322</ele>
        <time>2025-05-27T10:41:35Z</time>
      </trkpt>
      <trkpt lat="45.70055" lon="5.28039">
        <ele>322.6</ele>
        <time>2025-05-27T10:41:36Z</time>
      </trkpt>
      <trkpt lat="45.70055" lon="5.28036">
        <ele>322.6</ele>
        <time>2025-05-27T10:41:37Z</time>
      </trkpt>
      <trkpt lat="45.70055" lon="5.28033">
        <ele>322.8</ele>
        <time>2025-05-27T10:41:38Z</time>
      </trkpt>
      <trkpt lat="45.70054" lon="5.28031">
        <ele>322.6</ele>
        <time>2025-05-27T10:41:39Z</time>
      </trkpt>
      <trkpt lat="45.70053" lon="5.28029">
        <ele>323.2</ele>
        <time>2025-05-27T10:41:40Z</time>
      </trkpt>
      <trkpt lat="45.70052" lon="5.28027">
        <ele>323.2</ele>
        <time>2025-05-27T10:41:41Z</time>
      </trkpt>
      <trkpt lat="45.70052" lon="5.28024">
        <ele>323.4</ele>
        <time>2025-05-27T10:41:42Z</time>
      </trkpt>
      <trkpt lat="45.70051" lon="5.28022">
        <ele>323.4</ele>
        <time>2025-05-27T10:41:43Z</time>
      </trkpt>
      <trkpt lat="45.7005" lon="5.28019">
        <ele>323.4</ele>
        <time>2025-05-27T10:41:44Z</time>
      </trkpt>
      <trkpt lat="45.70049" lon="5.28017">
        <ele>323.4</ele>
        <time>2025-05-27T10:41:45Z</time>
      </trkpt>
      <trkpt lat="45.70048" lon="5.28014">
        <ele>323</ele>
        <time>2025-05-27T10:41:46Z</time>
      </trkpt>
      <trkpt lat="45.70047" lon="5.28011">
        <ele>323</ele>
        <time>2025-05-27T10:41:47Z</time>
      </trkpt>
      <trkpt lat="45.70047" lon="5.28009">
        <ele>323.8</ele>
        <time>2025-05-27T10:41:48Z</time>
      </trkpt>
      <trkpt lat="45.70046" lon="5.28006">
        <ele>323.8</ele>
        <time>2025-05-27T10:41:49Z</time>
      </trkpt>
      <trkpt lat="45.70045" lon="5.28003">
        <ele>323.8</ele>
        <time>2025-05-27T10:41:50Z</time>
      </trkpt>
      <trkpt lat="45.70044" lon="5.28">
        <ele>323.8</ele>
        <time>2025-05-27T10:41:51Z</time>
      </trkpt>
      <trkpt lat="45.70043" lon="5.27997">
        <ele>323.8</ele>
        <time>2025-05-27T10:41:52Z</time>
      </trkpt>
      <trkpt lat="45.70042" lon="5.27994">
        <ele>323.8</ele>
        <time>2025-05-27T10:41:53Z</time>
      </trkpt>
      <trkpt lat="45.70042" lon="5.27991">
        <ele>323.8</ele>
        <time>2025-05-27T10:41:54Z</time>
      </trkpt>
      <trkpt lat="45.70041" lon="5.27988">
        <ele>323.8</ele>
        <time>2025-05-27T10:41:55Z</time>
      </trkpt>
      <trkpt lat="45.7004" lon="5.27985">
        <ele>324.2</ele>
        <time>2025-05-27T10:41:56Z</time>
      </trkpt>
      <trkpt lat="45.7004" lon="5.27982">
        <ele>324.2</ele>
        <time>2025-05-27T10:41:57Z</time>
      </trkpt>
      <trkpt lat="45.70039" lon="5.27979">
        <ele>324.2</ele>
        <time>2025-05-27T10:41:58Z</time>
      </trkpt>
      <trkpt lat="45.70038" lon="5.27977">
        <ele>324.2</ele>
        <time>2025-05-27T10:41:59Z</time>
      </trkpt>
      <trkpt lat="45.70037" lon="5.27974">
        <ele>324.4</ele>
        <time>2025-05-27T10:42:00Z</time>
      </trkpt>
      <trkpt lat="45.70036" lon="5.27972">
        <ele>324.4</ele>
        <time>2025-05-27T10:42:01Z</time>
      </trkpt>
      <trkpt lat="45.70036" lon="5.2797">
        <ele>324.4</ele>
        <time>2025-05-27T10:42:02Z</time>
      </trkpt>
      <trkpt lat="45.70035" lon="5.27967">
        <ele>324.4</ele>
        <time>2025-05-27T10:42:03Z</time>
      </trkpt>
      <trkpt lat="45.70035" lon="5.27965">
        <ele>324.4</ele>
        <time>2025-05-27T10:42:04Z</time>
      </trkpt>
      <trkpt lat="45.70034" lon="5.27962">
        <ele>324.4</ele>
        <time>2025-05-27T10:42:05Z</time>
      </trkpt>
      <trkpt lat="45.70034" lon="5.27959">
        <ele>324.4</ele>
        <time>2025-05-27T10:42:06Z</time>
      </trkpt>
      <trkpt lat="45.70034" lon="5.27957">
        <ele>324.4</ele>
        <time>2025-05-27T10:42:07Z</time>
      </trkpt>
      <trkpt lat="45.70033" lon="5.27954">
        <ele>324.4</ele>
        <time>2025-05-27T10:42:08Z</time>
      </trkpt>
      <trkpt lat="45.70033" lon="5.27952">
        <ele>324.6</ele>
        <time>2025-05-27T10:42:09Z</time>
      </trkpt>
      <trkpt lat="45.70033" lon="5.27949">
        <ele>325</ele>
        <time>2025-05-27T10:42:10Z</time>
      </trkpt>
      <trkpt lat="45.70033" lon="5.27946">
        <ele>325</ele>
        <time>2025-05-27T10:42:11Z</time>
      </trkpt>
      <trkpt lat="45.70033" lon="5.27943">
        <ele>325</ele>
        <time>2025-05-27T10:42:12Z</time>
      </trkpt>
      <trkpt lat="45.70033" lon="5.27941">
        <ele>325.2</ele>
        <time>2025-05-27T10:42:13Z</time>
      </trkpt>
      <trkpt lat="45.70033" lon="5.27938">
        <ele>325.6</ele>
        <time>2025-05-27T10:42:14Z</time>
      </trkpt>
      <trkpt lat="45.70034" lon="5.27935">
        <ele>325.6</ele>
        <time>2025-05-27T10:42:15Z</time>
      </trkpt>
      <trkpt lat="45.70034" lon="5.27932">
        <ele>326</ele>
        <time>2025-05-27T10:42:16Z</time>
      </trkpt>
      <trkpt lat="45.70034" lon="5.27929">
        <ele>326</ele>
        <time>2025-05-27T10:42:17Z</time>
      </trkpt>
      <trkpt lat="45.70035" lon="5.27926">
        <ele>326</ele>
        <time>2025-05-27T10:42:18Z</time>
      </trkpt>
      <trkpt lat="45.70036" lon="5.27924">
        <ele>326.6</ele>
        <time>2025-05-27T10:42:19Z</time>
      </trkpt>
      <trkpt lat="45.70037" lon="5.27922">
        <ele>326.6</ele>
        <time>2025-05-27T10:42:20Z</time>
      </trkpt>
      <trkpt lat="45.70038" lon="5.2792">
        <ele>326.6</ele>
        <time>2025-05-27T10:42:21Z</time>
      </trkpt>
      <trkpt lat="45.70039" lon="5.27918">
        <ele>326.8</ele>
        <time>2025-05-27T10:42:22Z</time>
      </trkpt>
      <trkpt lat="45.7004" lon="5.27915">
        <ele>326.6</ele>
        <time>2025-05-27T10:42:23Z</time>
      </trkpt>
      <trkpt lat="45.70041" lon="5.27913">
        <ele>326.8</ele>
        <time>2025-05-27T10:42:24Z</time>
      </trkpt>
      <trkpt lat="45.70042" lon="5.27911">
        <ele>327</ele>
        <time>2025-05-27T10:42:25Z</time>
      </trkpt>
      <trkpt lat="45.70043" lon="5.27909">
        <ele>327.2</ele>
        <time>2025-05-27T10:42:26Z</time>
      </trkpt>
      <trkpt lat="45.70044" lon="5.27907">
        <ele>327.2</ele>
        <time>2025-05-27T10:42:27Z</time>
      </trkpt>
      <trkpt lat="45.70044" lon="5.27905">
        <ele>327.8</ele>
        <time>2025-05-27T10:42:28Z</time>
      </trkpt>
      <trkpt lat="45.70045" lon="5.27902">
        <ele>327.8</ele>
        <time>2025-05-27T10:42:29Z</time>
      </trkpt>
      <trkpt lat="45.70045" lon="5.279">
        <ele>327.8</ele>
        <time>2025-05-27T10:42:30Z</time>
      </trkpt>
      <trkpt lat="45.70045" lon="5.27898">
        <ele>328.2</ele>
        <time>2025-05-27T10:42:31Z</time>
      </trkpt>
      <trkpt lat="45.70046" lon="5.27895">
        <ele>328.2</ele>
        <time>2025-05-27T10:42:32Z</time>
      </trkpt>
      <trkpt lat="45.70046" lon="5.27892">
        <ele>328.6</ele>
        <time>2025-05-27T10:42:33Z</time>
      </trkpt>
      <trkpt lat="45.70047" lon="5.2789">
        <ele>328.6</ele>
        <time>2025-05-27T10:42:34Z</time>
      </trkpt>
      <trkpt lat="45.70047" lon="5.27886">
        <ele>328.6</ele>
        <time>2025-05-27T10:42:35Z</time>
      </trkpt>
      <trkpt lat="45.70047" lon="5.27883">
        <ele>328.8</ele>
        <time>2025-05-27T10:42:36Z</time>
      </trkpt>
      <trkpt lat="45.70046" lon="5.27881">
        <ele>329.2</ele>
        <time>2025-05-27T10:42:37Z</time>
      </trkpt>
      <trkpt lat="45.70046" lon="5.27878">
        <ele>329.4</ele>
        <time>2025-05-27T10:42:38Z</time>
      </trkpt>
      <trkpt lat="45.70046" lon="5.27875">
        <ele>329.8</ele>
        <time>2025-05-27T10:42:39Z</time>
      </trkpt>
      <trkpt lat="45.70046" lon="5.27873">
        <ele>329.4</ele>
        <time>2025-05-27T10:42:40Z</time>
      </trkpt>
      <trkpt lat="45.70046" lon="5.27871">
        <ele>329.8</ele>
        <time>2025-05-27T10:42:41Z</time>
      </trkpt>
      <trkpt lat="45.70045" lon="5.27869">
        <ele>329.8</ele>
        <time>2025-05-27T10:42:42Z</time>
      </trkpt>
      <trkpt lat="45.70045" lon="5.27868">
        <ele>329.8</ele>
        <time>2025-05-27T10:42:43Z</time>
      </trkpt>
      <trkpt lat="45.70045" lon="5.27866">
        <ele>329.8</ele>
        <time>2025-05-27T10:42:44Z</time>
      </trkpt>
      <trkpt lat="45.70045" lon="5.27866">
        <ele>329.6</ele>
        <time>2025-05-27T10:42:45Z</time>
      </trkpt>
      <trkpt lat="45.70045" lon="5.27864">
        <ele>329.8</ele>
        <time>2025-05-27T10:42:46Z</time>
      </trkpt>
      <trkpt lat="45.70045" lon="5.27863">
        <ele>329.8</ele>
        <time>2025-05-27T10:42:47Z</time>
      </trkpt>
      <trkpt lat="45.70045" lon="5.27864">
        <ele>329.2</ele>
        <time>2025-05-27T10:42:48Z</time>
      </trkpt>
      <trkpt lat="45.70042" lon="5.2786">
        <ele>330.6</ele>
        <time>2025-05-27T10:43:08Z</time>
      </trkpt>
      <trkpt lat="45.70041" lon="5.27859">
        <ele>330.6</ele>
        <time>2025-05-27T10:43:09Z</time>
      </trkpt>
      <trkpt lat="45.70041" lon="5.27859">
        <ele>330.6</ele>
        <time>2025-05-27T10:43:10Z</time>
      </trkpt>
      <trkpt lat="45.70041" lon="5.2786">
        <ele>330.6</ele>
        <time>2025-05-27T10:43:11Z</time>
      </trkpt>
      <trkpt lat="45.70041" lon="5.2786">
        <ele>330.6</ele>
        <time>2025-05-27T10:43:12Z</time>
      </trkpt>
      <trkpt lat="45.70041" lon="5.27861">
        <ele>330.6</ele>
        <time>2025-05-27T10:43:13Z</time>
      </trkpt>
      <trkpt lat="45.70041" lon="5.27862">
        <ele>330.6</ele>
        <time>2025-05-27T10:43:14Z</time>
      </trkpt>
      <trkpt lat="45.7004" lon="5.27864">
        <ele>330.6</ele>
        <time>2025-05-27T10:43:15Z</time>
      </trkpt>
      <trkpt lat="45.7004" lon="5.27866">
        <ele>330.4</ele>
        <time>2025-05-27T10:43:16Z</time>
      </trkpt>
      <trkpt lat="45.70041" lon="5.27869">
        <ele>330.4</ele>
        <time>2025-05-27T10:43:17Z</time>
      </trkpt>
      <trkpt lat="45.70041" lon="5.27872">
        <ele>330.4</ele>
        <time>2025-05-27T10:43:18Z</time>
      </trkpt>
      <trkpt lat="45.70042" lon="5.27875">
        <ele>330.4</ele>
        <time>2025-05-27T10:43:19Z</time>
      </trkpt>
      <trkpt lat="45.70042" lon="5.27879">
        <ele>330</ele>
        <time>2025-05-27T10:43:20Z</time>
      </trkpt>
      <trkpt lat="45.70043" lon="5.27883">
        <ele>329.6</ele>
        <time>2025-05-27T10:43:21Z</time>
      </trkpt>
      <trkpt lat="45.70043" lon="5.27886">
        <ele>329.2</ele>
        <time>2025-05-27T10:43:22Z</time>
      </trkpt>
      <trkpt lat="45.70043" lon="5.2789">
        <ele>328.8</ele>
        <time>2025-05-27T10:43:23Z</time>
      </trkpt>
      <trkpt lat="45.70042" lon="5.27894">
        <ele>328.4</ele>
        <time>2025-05-27T10:43:24Z</time>
      </trkpt>
      <trkpt lat="45.70041" lon="5.27899">
        <ele>327.8</ele>
        <time>2025-05-27T10:43:25Z</time>
      </trkpt>
      <trkpt lat="45.7004" lon="5.27903">
        <ele>326.6</ele>
        <time>2025-05-27T10:43:26Z</time>
      </trkpt>
      <trkpt lat="45.70039" lon="5.27907">
        <ele>327</ele>
        <time>2025-05-27T10:43:27Z</time>
      </trkpt>
      <trkpt lat="45.70038" lon="5.27912">
        <ele>327</ele>
        <time>2025-05-27T10:43:28Z</time>
      </trkpt>
      <trkpt lat="45.70036" lon="5.27915">
        <ele>326.6</ele>
        <time>2025-05-27T10:43:29Z</time>
      </trkpt>
      <trkpt lat="45.70034" lon="5.27917">
        <ele>326.6</ele>
        <time>2025-05-27T10:43:30Z</time>
      </trkpt>
      <trkpt lat="45.70032" lon="5.2792">
        <ele>326.4</ele>
        <time>2025-05-27T10:43:31Z</time>
      </trkpt>
      <trkpt lat="45.70031" lon="5.27925">
        <ele>326</ele>
        <time>2025-05-27T10:43:32Z</time>
      </trkpt>
      <trkpt lat="45.70033" lon="5.27935">
        <ele>325.2</ele>
        <time>2025-05-27T10:43:33Z</time>
      </trkpt>
      <trkpt lat="45.70033" lon="5.27941">
        <ele>324.4</ele>
        <time>2025-05-27T10:43:34Z</time>
      </trkpt>
      <trkpt lat="45.70032" lon="5.27949">
        <ele>324</ele>
        <time>2025-05-27T10:43:35Z</time>
      </trkpt>
      <trkpt lat="45.70032" lon="5.27955">
        <ele>324</ele>
        <time>2025-05-27T10:43:36Z</time>
      </trkpt>
      <trkpt lat="45.70034" lon="5.27966">
        <ele>323.8</ele>
        <time>2025-05-27T10:43:37Z</time>
      </trkpt>
      <trkpt lat="45.70035" lon="5.27972">
        <ele>322.8</ele>
        <time>2025-05-27T10:43:38Z</time>
      </trkpt>
      <trkpt lat="45.70036" lon="5.27976">
        <ele>323.4</ele>
        <time>2025-05-27T10:43:39Z</time>
      </trkpt>
      <trkpt lat="45.70037" lon="5.27978">
        <ele>323.4</ele>
        <time>2025-05-27T10:43:40Z</time>
      </trkpt>
      <trkpt lat="45.70038" lon="5.27981">
        <ele>323.4</ele>
        <time>2025-05-27T10:43:41Z</time>
      </trkpt>
      <trkpt lat="45.70036" lon="5.27983">
        <ele>323.4</ele>
        <time>2025-05-27T10:43:42Z</time>
      </trkpt>
      <trkpt lat="45.70037" lon="5.2798">
        <ele>323.4</ele>
        <time>2025-05-27T10:43:43Z</time>
      </trkpt>
      <trkpt lat="45.70038" lon="5.27982">
        <ele>323.4</ele>
        <time>2025-05-27T10:43:44Z</time>
      </trkpt>
      <trkpt lat="45.70038" lon="5.27982">
        <ele>323.6</ele>
        <time>2025-05-27T10:43:45Z</time>
      </trkpt>
      <trkpt lat="45.70035" lon="5.27985">
        <ele>323.4</ele>
        <time>2025-05-27T10:43:54Z</time>
      </trkpt>
      <trkpt lat="45.70033" lon="5.27984">
        <ele>323.4</ele>
        <time>2025-05-27T10:43:55Z</time>
      </trkpt>
      <trkpt lat="45.70031" lon="5.27983">
        <ele>323.4</ele>
        <time>2025-05-27T10:43:56Z</time>
      </trkpt>
      <trkpt lat="45.70029" lon="5.27982">
        <ele>323.4</ele>
        <time>2025-05-27T10:43:57Z</time>
      </trkpt>
      <trkpt lat="45.70027" lon="5.27982">
        <ele>323.4</ele>
        <time>2025-05-27T10:43:58Z</time>
      </trkpt>
      <trkpt lat="45.70027" lon="5.27982">
        <ele>323.4</ele>
        <time>2025-05-27T10:43:59Z</time>
      </trkpt>
      <trkpt lat="45.70027" lon="5.27982">
        <ele>323.4</ele>
        <time>2025-05-27T10:44:00Z</time>
      </trkpt>
      <trkpt lat="45.70028" lon="5.27983">
        <ele>323.4</ele>
        <time>2025-05-27T10:44:01Z</time>
      </trkpt>
      <trkpt lat="45.70026" lon="5.27981">
        <ele>323.4</ele>
        <time>2025-05-27T10:44:04Z</time>
      </trkpt>
      <trkpt lat="45.70023" lon="5.2798">
        <ele>323.4</ele>
        <time>2025-05-27T10:44:05Z</time>
      </trkpt>
      <trkpt lat="45.70021" lon="5.27979">
        <ele>323.4</ele>
        <time>2025-05-27T10:44:06Z</time>
      </trkpt>
      <trkpt lat="45.70019" lon="5.27978">
        <ele>323.4</ele>
        <time>2025-05-27T10:44:07Z</time>
      </trkpt>
      <trkpt lat="45.70018" lon="5.27976">
        <ele>323.4</ele>
        <time>2025-05-27T10:44:08Z</time>
      </trkpt>
      <trkpt lat="45.70015" lon="5.27975">
        <ele>323.6</ele>
        <time>2025-05-27T10:44:09Z</time>
      </trkpt>
      <trkpt lat="45.70013" lon="5.27973">
        <ele>323.6</ele>
        <time>2025-05-27T10:44:10Z</time>
      </trkpt>
      <trkpt lat="45.70011" lon="5.27972">
        <ele>324</ele>
        <time>2025-05-27T10:44:11Z</time>
      </trkpt>
      <trkpt lat="45.70008" lon="5.2797">
        <ele>324</ele>
        <time>2025-05-27T10:44:12Z</time>
      </trkpt>
      <trkpt lat="45.70006" lon="5.27968">
        <ele>324</ele>
        <time>2025-05-27T10:44:13Z</time>
      </trkpt>
      <trkpt lat="45.70003" lon="5.27966">
        <ele>324</ele>
        <time>2025-05-27T10:44:14Z</time>
      </trkpt>
      <trkpt lat="45.70001" lon="5.27964">
        <ele>323.6</ele>
        <time>2025-05-27T10:44:15Z</time>
      </trkpt>
      <trkpt lat="45.69998" lon="5.27963">
        <ele>323.6</ele>
        <time>2025-05-27T10:44:16Z</time>
      </trkpt>
      <trkpt lat="45.69995" lon="5.27962">
        <ele>323.4</ele>
        <time>2025-05-27T10:44:17Z</time>
      </trkpt>
      <trkpt lat="45.69993" lon="5.27962">
        <ele>323.4</ele>
        <time>2025-05-27T10:44:18Z</time>
      </trkpt>
      <trkpt lat="45.6999" lon="5.27962">
        <ele>323.4</ele>
        <time>2025-05-27T10:44:19Z</time>
      </trkpt>
      <trkpt lat="45.69986" lon="5.27962">
        <ele>323</ele>
        <time>2025-05-27T10:44:20Z</time>
      </trkpt>
      <trkpt lat="45.69982" lon="5.27961">
        <ele>322.2</ele>
        <time>2025-05-27T10:44:21Z</time>
      </trkpt>
      <trkpt lat="45.69979" lon="5.27961">
        <ele>322.2</ele>
        <time>2025-05-27T10:44:22Z</time>
      </trkpt>
      <trkpt lat="45.69977" lon="5.2796">
        <ele>322.6</ele>
        <time>2025-05-27T10:44:23Z</time>
      </trkpt>
      <trkpt lat="45.69974" lon="5.27959">
        <ele>322.2</ele>
        <time>2025-05-27T10:44:24Z</time>
      </trkpt>
      <trkpt lat="45.69972" lon="5.27957">
        <ele>322.2</ele>
        <time>2025-05-27T10:44:25Z</time>
      </trkpt>
      <trkpt lat="45.69969" lon="5.27955">
        <ele>321.8</ele>
        <time>2025-05-27T10:44:26Z</time>
      </trkpt>
      <trkpt lat="45.69966" lon="5.27952">
        <ele>321.4</ele>
        <time>2025-05-27T10:44:27Z</time>
      </trkpt>
      <trkpt lat="45.69964" lon="5.2795">
        <ele>321.4</ele>
        <time>2025-05-27T10:44:28Z</time>
      </trkpt>
      <trkpt lat="45.69962" lon="5.27948">
        <ele>321.4</ele>
        <time>2025-05-27T10:44:29Z</time>
      </trkpt>
      <trkpt lat="45.6996" lon="5.27946">
        <ele>321.4</ele>
        <time>2025-05-27T10:44:30Z</time>
      </trkpt>
      <trkpt lat="45.6996" lon="5.27944">
        <ele>321.2</ele>
        <time>2025-05-27T10:44:31Z</time>
      </trkpt>
      <trkpt lat="45.69958" lon="5.27942">
        <ele>321.2</ele>
        <time>2025-05-27T10:44:32Z</time>
      </trkpt>
      <trkpt lat="45.69957" lon="5.27939">
        <ele>321.2</ele>
        <time>2025-05-27T10:44:33Z</time>
      </trkpt>
      <trkpt lat="45.69955" lon="5.27935">
        <ele>321.2</ele>
        <time>2025-05-27T10:44:34Z</time>
      </trkpt>
      <trkpt lat="45.69953" lon="5.27932">
        <ele>321.2</ele>
        <time>2025-05-27T10:44:35Z</time>
      </trkpt>
      <trkpt lat="45.69951" lon="5.27929">
        <ele>320.8</ele>
        <time>2025-05-27T10:44:36Z</time>
      </trkpt>
      <trkpt lat="45.69948" lon="5.27926">
        <ele>321.2</ele>
        <time>2025-05-27T10:44:37Z</time>
      </trkpt>
      <trkpt lat="45.69946" lon="5.27923">
        <ele>321.2</ele>
        <time>2025-05-27T10:44:38Z</time>
      </trkpt>
      <trkpt lat="45.69943" lon="5.2792">
        <ele>321.2</ele>
        <time>2025-05-27T10:44:39Z</time>
      </trkpt>
      <trkpt lat="45.6994" lon="5.27918">
        <ele>321.2</ele>
        <time>2025-05-27T10:44:40Z</time>
      </trkpt>
      <trkpt lat="45.69936" lon="5.27915">
        <ele>321.2</ele>
        <time>2025-05-27T10:44:41Z</time>
      </trkpt>
      <trkpt lat="45.69933" lon="5.27913">
        <ele>321.2</ele>
        <time>2025-05-27T10:44:42Z</time>
      </trkpt>
      <trkpt lat="45.69931" lon="5.27911">
        <ele>321.2</ele>
        <time>2025-05-27T10:44:43Z</time>
      </trkpt>
      <trkpt lat="45.69929" lon="5.27909">
        <ele>322</ele>
        <time>2025-05-27T10:44:44Z</time>
      </trkpt>
      <trkpt lat="45.69927" lon="5.27908">
        <ele>322</ele>
        <time>2025-05-27T10:44:45Z</time>
      </trkpt>
      <trkpt lat="45.69928" lon="5.27908">
        <ele>322.4</ele>
        <time>2025-05-27T10:44:46Z</time>
      </trkpt>
      <trkpt lat="45.69928" lon="5.27908">
        <ele>323</ele>
        <time>2025-05-27T10:44:47Z</time>
      </trkpt>
      <trkpt lat="45.69925" lon="5.27907">
        <ele>323</ele>
        <time>2025-05-27T10:44:48Z</time>
      </trkpt>
      <trkpt lat="45.69922" lon="5.27906">
        <ele>323.2</ele>
        <time>2025-05-27T10:44:49Z</time>
      </trkpt>
      <trkpt lat="45.6992" lon="5.27905">
        <ele>323.2</ele>
        <time>2025-05-27T10:44:50Z</time>
      </trkpt>
      <trkpt lat="45.69917" lon="5.27904">
        <ele>323.8</ele>
        <time>2025-05-27T10:44:51Z</time>
      </trkpt>
      <trkpt lat="45.69914" lon="5.27902">
        <ele>324.2</ele>
        <time>2025-05-27T10:44:52Z</time>
      </trkpt>
      <trkpt lat="45.69912" lon="5.27902">
        <ele>324.2</ele>
        <time>2025-05-27T10:44:53Z</time>
      </trkpt>
      <trkpt lat="45.69911" lon="5.27901">
        <ele>324.4</ele>
        <time>2025-05-27T10:44:54Z</time>
      </trkpt>
      <trkpt lat="45.69909" lon="5.279">
        <ele>324.4</ele>
        <time>2025-05-27T10:44:55Z</time>
      </trkpt>
      <trkpt lat="45.69906" lon="5.27898">
        <ele>325</ele>
        <time>2025-05-27T10:44:56Z</time>
      </trkpt>
      <trkpt lat="45.69905" lon="5.27897">
        <ele>325.4</ele>
        <time>2025-05-27T10:44:57Z</time>
      </trkpt>
      <trkpt lat="45.69902" lon="5.27896">
        <ele>325.8</ele>
        <time>2025-05-27T10:44:58Z</time>
      </trkpt>
      <trkpt lat="45.699" lon="5.27896">
        <ele>326</ele>
        <time>2025-05-27T10:44:59Z</time>
      </trkpt>
      <trkpt lat="45.69898" lon="5.27895">
        <ele>326</ele>
        <time>2025-05-27T10:45:00Z</time>
      </trkpt>
      <trkpt lat="45.69895" lon="5.27894">
        <ele>326</ele>
        <time>2025-05-27T10:45:01Z</time>
      </trkpt>
      <trkpt lat="45.69893" lon="5.27894">
        <ele>326.4</ele>
        <time>2025-05-27T10:45:02Z</time>
      </trkpt>
      <trkpt lat="45.6989" lon="5.27893">
        <ele>326.4</ele>
        <time>2025-05-27T10:45:03Z</time>
      </trkpt>
      <trkpt lat="45.69887" lon="5.27894">
        <ele>326.4</ele>
        <time>2025-05-27T10:45:04Z</time>
      </trkpt>
      <trkpt lat="45.69885" lon="5.27895">
        <ele>326.4</ele>
        <time>2025-05-27T10:45:05Z</time>
      </trkpt>
      <trkpt lat="45.69882" lon="5.27896">
        <ele>326.4</ele>
        <time>2025-05-27T10:45:06Z</time>
      </trkpt>
      <trkpt lat="45.69879" lon="5.27897">
        <ele>326.4</ele>
        <time>2025-05-27T10:45:07Z</time>
      </trkpt>
      <trkpt lat="45.69874" lon="5.27899">
        <ele>326.4</ele>
        <time>2025-05-27T10:45:08Z</time>
      </trkpt>
      <trkpt lat="45.69871" lon="5.279">
        <ele>326.2</ele>
        <time>2025-05-27T10:45:09Z</time>
      </trkpt>
      <trkpt lat="45.69868" lon="5.27901">
        <ele>325.2</ele>
        <time>2025-05-27T10:45:10Z</time>
      </trkpt>
      <trkpt lat="45.69864" lon="5.27904">
        <ele>325.2</ele>
        <time>2025-05-27T10:45:11Z</time>
      </trkpt>
      <trkpt lat="45.69858" lon="5.27907">
        <ele>324.4</ele>
        <time>2025-05-27T10:45:12Z</time>
      </trkpt>
      <trkpt lat="45.69853" lon="5.27909">
        <ele>324.8</ele>
        <time>2025-05-27T10:45:13Z</time>
      </trkpt>
      <trkpt lat="45.69846" lon="5.27912">
        <ele>324</ele>
        <time>2025-05-27T10:45:14Z</time>
      </trkpt>
      <trkpt lat="45.69841" lon="5.27914">
        <ele>323.8</ele>
        <time>2025-05-27T10:45:15Z</time>
      </trkpt>
      <trkpt lat="45.6984" lon="5.27914">
        <ele>323.4</ele>
        <time>2025-05-27T10:45:16Z</time>
      </trkpt>
      <trkpt lat="45.69834" lon="5.27911">
        <ele>321.6</ele>
        <time>2025-05-27T10:45:17Z</time>
      </trkpt>
      <trkpt lat="45.69828" lon="5.27912">
        <ele>321.6</ele>
        <time>2025-05-27T10:45:18Z</time>
      </trkpt>
      <trkpt lat="45.69823" lon="5.27914">
        <ele>321.6</ele>
        <time>2025-05-27T10:45:19Z</time>
      </trkpt>
      <trkpt lat="45.69815" lon="5.27916">
        <ele>321.2</ele>
        <time>2025-05-27T10:45:20Z</time>
      </trkpt>
      <trkpt lat="45.69811" lon="5.27918">
        <ele>321.2</ele>
        <time>2025-05-27T10:45:21Z</time>
      </trkpt>
      <trkpt lat="45.69803" lon="5.27918">
        <ele>321.2</ele>
        <time>2025-05-27T10:45:22Z</time>
      </trkpt>
      <trkpt lat="45.69797" lon="5.27918">
        <ele>321.2</ele>
        <time>2025-05-27T10:45:23Z</time>
      </trkpt>
      <trkpt lat="45.69791" lon="5.27918">
        <ele>322</ele>
        <time>2025-05-27T10:45:24Z</time>
      </trkpt>
      <trkpt lat="45.6979" lon="5.2792">
        <ele>322.6</ele>
        <time>2025-05-27T10:45:25Z</time>
      </trkpt>
      <trkpt lat="45.69786" lon="5.27921">
        <ele>323</ele>
        <time>2025-05-27T10:45:26Z</time>
      </trkpt>
      <trkpt lat="45.69785" lon="5.27924">
        <ele>323.2</ele>
        <time>2025-05-27T10:45:27Z</time>
      </trkpt>
      <trkpt lat="45.69782" lon="5.27926">
        <ele>323.2</ele>
        <time>2025-05-27T10:45:28Z</time>
      </trkpt>
      <trkpt lat="45.6978" lon="5.27926">
        <ele>323.6</ele>
        <time>2025-05-27T10:45:29Z</time>
      </trkpt>
      <trkpt lat="45.6978" lon="5.27929">
        <ele>323.8</ele>
        <time>2025-05-27T10:45:30Z</time>
      </trkpt>
      <trkpt lat="45.69776" lon="5.27932">
        <ele>323.8</ele>
        <time>2025-05-27T10:45:31Z</time>
      </trkpt>
      <trkpt lat="45.69774" lon="5.27935">
        <ele>324.2</ele>
        <time>2025-05-27T10:45:32Z</time>
      </trkpt>
      <trkpt lat="45.69772" lon="5.27938">
        <ele>324.4</ele>
        <time>2025-05-27T10:45:33Z</time>
      </trkpt>
      <trkpt lat="45.69769" lon="5.27941">
        <ele>324.2</ele>
        <time>2025-05-27T10:45:34Z</time>
      </trkpt>
      <trkpt lat="45.69768" lon="5.27946">
        <ele>324.2</ele>
        <time>2025-05-27T10:45:35Z</time>
      </trkpt>
      <trkpt lat="45.69767" lon="5.2795">
        <ele>324.2</ele>
        <time>2025-05-27T10:45:36Z</time>
      </trkpt>
      <trkpt lat="45.69765" lon="5.27954">
        <ele>324.2</ele>
        <time>2025-05-27T10:45:37Z</time>
      </trkpt>
      <trkpt lat="45.69759" lon="5.2796">
        <ele>324.2</ele>
        <time>2025-05-27T10:45:38Z</time>
      </trkpt>
      <trkpt lat="45.69758" lon="5.27964">
        <ele>324.2</ele>
        <time>2025-05-27T10:45:39Z</time>
      </trkpt>
      <trkpt lat="45.69754" lon="5.27968">
        <ele>323.8</ele>
        <time>2025-05-27T10:45:40Z</time>
      </trkpt>
      <trkpt lat="45.69752" lon="5.27971">
        <ele>323.8</ele>
        <time>2025-05-27T10:45:41Z</time>
      </trkpt>
      <trkpt lat="45.69748" lon="5.27976">
        <ele>323.6</ele>
        <time>2025-05-27T10:45:42Z</time>
      </trkpt>
      <trkpt lat="45.69744" lon="5.2798">
        <ele>324.2</ele>
        <time>2025-05-27T10:45:43Z</time>
      </trkpt>
      <trkpt lat="45.6974" lon="5.27985">
        <ele>324.2</ele>
        <time>2025-05-27T10:45:44Z</time>
      </trkpt>
      <trkpt lat="45.69738" lon="5.27989">
        <ele>323.8</ele>
        <time>2025-05-27T10:45:45Z</time>
      </trkpt>
      <trkpt lat="45.69734" lon="5.2799">
        <ele>323.4</ele>
        <time>2025-05-27T10:45:46Z</time>
      </trkpt>
      <trkpt lat="45.69731" lon="5.27996">
        <ele>323</ele>
        <time>2025-05-27T10:45:47Z</time>
      </trkpt>
      <trkpt lat="45.69728" lon="5.28002">
        <ele>322.8</ele>
        <time>2025-05-27T10:45:48Z</time>
      </trkpt>
      <trkpt lat="45.69725" lon="5.28008">
        <ele>322.4</ele>
        <time>2025-05-27T10:45:49Z</time>
      </trkpt>
      <trkpt lat="45.69719" lon="5.28013">
        <ele>322.4</ele>
        <time>2025-05-27T10:45:50Z</time>
      </trkpt>
      <trkpt lat="45.69715" lon="5.28018">
        <ele>322.2</ele>
        <time>2025-05-27T10:45:51Z</time>
      </trkpt>
      <trkpt lat="45.69712" lon="5.28023">
        <ele>322.2</ele>
        <time>2025-05-27T10:45:52Z</time>
      </trkpt>
      <trkpt lat="45.69708" lon="5.28028">
        <ele>322.2</ele>
        <time>2025-05-27T10:45:53Z</time>
      </trkpt>
      <trkpt lat="45.69704" lon="5.28034">
        <ele>321.8</ele>
        <time>2025-05-27T10:45:54Z</time>
      </trkpt>
      <trkpt lat="45.697" lon="5.28038">
        <ele>321.8</ele>
        <time>2025-05-27T10:45:55Z</time>
      </trkpt>
      <trkpt lat="45.69699" lon="5.28042">
        <ele>321.8</ele>
        <time>2025-05-27T10:45:56Z</time>
      </trkpt>
      <trkpt lat="45.69695" lon="5.28046">
        <ele>322</ele>
        <time>2025-05-27T10:45:57Z</time>
      </trkpt>
      <trkpt lat="45.69693" lon="5.28045">
        <ele>322.2</ele>
        <time>2025-05-27T10:45:58Z</time>
      </trkpt>
      <trkpt lat="45.69692" lon="5.28049">
        <ele>320.4</ele>
        <time>2025-05-27T10:45:59Z</time>
      </trkpt>
      <trkpt lat="45.69688" lon="5.28053">
        <ele>320.2</ele>
        <time>2025-05-27T10:46:00Z</time>
      </trkpt>
      <trkpt lat="45.69687" lon="5.28057">
        <ele>319.8</ele>
        <time>2025-05-27T10:46:01Z</time>
      </trkpt>
      <trkpt lat="45.69681" lon="5.28065">
        <ele>319.8</ele>
        <time>2025-05-27T10:46:02Z</time>
      </trkpt>
      <trkpt lat="45.69675" lon="5.28076">
        <ele>319.6</ele>
        <time>2025-05-27T10:46:03Z</time>
      </trkpt>
      <trkpt lat="45.69674" lon="5.28084">
        <ele>319.2</ele>
        <time>2025-05-27T10:46:04Z</time>
      </trkpt>
      <trkpt lat="45.69667" lon="5.28094">
        <ele>318.8</ele>
        <time>2025-05-27T10:46:05Z</time>
      </trkpt>
      <trkpt lat="45.69662" lon="5.28102">
        <ele>318</ele>
        <time>2025-05-27T10:46:06Z</time>
      </trkpt>
      <trkpt lat="45.6966" lon="5.28109">
        <ele>317.4</ele>
        <time>2025-05-27T10:46:07Z</time>
      </trkpt>
      <trkpt lat="45.69656" lon="5.28118">
        <ele>317.4</ele>
        <time>2025-05-27T10:46:08Z</time>
      </trkpt>
      <trkpt lat="45.69651" lon="5.28126">
        <ele>316.4</ele>
        <time>2025-05-27T10:46:09Z</time>
      </trkpt>
      <trkpt lat="45.69648" lon="5.28133">
        <ele>315.8</ele>
        <time>2025-05-27T10:46:10Z</time>
      </trkpt>
      <trkpt lat="45.69644" lon="5.28139">
        <ele>315.2</ele>
        <time>2025-05-27T10:46:11Z</time>
      </trkpt>
      <trkpt lat="45.69638" lon="5.28144">
        <ele>314.8</ele>
        <time>2025-05-27T10:46:12Z</time>
      </trkpt>
      <trkpt lat="45.69632" lon="5.28149">
        <ele>314.6</ele>
        <time>2025-05-27T10:46:13Z</time>
      </trkpt>
      <trkpt lat="45.69627" lon="5.28156">
        <ele>315</ele>
        <time>2025-05-27T10:46:14Z</time>
      </trkpt>
      <trkpt lat="45.69621" lon="5.2816">
        <ele>315.6</ele>
        <time>2025-05-27T10:46:15Z</time>
      </trkpt>
      <trkpt lat="45.69616" lon="5.28167">
        <ele>315</ele>
        <time>2025-05-27T10:46:16Z</time>
      </trkpt>
      <trkpt lat="45.69612" lon="5.28172">
        <ele>314.4</ele>
        <time>2025-05-27T10:46:17Z</time>
      </trkpt>
      <trkpt lat="45.6961" lon="5.28175">
        <ele>314.4</ele>
        <time>2025-05-27T10:46:18Z</time>
      </trkpt>
      <trkpt lat="45.69607" lon="5.28178">
        <ele>314</ele>
        <time>2025-05-27T10:46:19Z</time>
      </trkpt>
      <trkpt lat="45.69603" lon="5.2818">
        <ele>313.8</ele>
        <time>2025-05-27T10:46:20Z</time>
      </trkpt>
      <trkpt lat="45.69599" lon="5.28187">
        <ele>313.4</ele>
        <time>2025-05-27T10:46:21Z</time>
      </trkpt>
      <trkpt lat="45.69596" lon="5.28188">
        <ele>313.4</ele>
        <time>2025-05-27T10:46:22Z</time>
      </trkpt>
      <trkpt lat="45.69592" lon="5.28192">
        <ele>312.8</ele>
        <time>2025-05-27T10:46:23Z</time>
      </trkpt>
      <trkpt lat="45.69586" lon="5.28198">
        <ele>312.8</ele>
        <time>2025-05-27T10:46:24Z</time>
      </trkpt>
      <trkpt lat="45.69583" lon="5.28201">
        <ele>312.8</ele>
        <time>2025-05-27T10:46:25Z</time>
      </trkpt>
      <trkpt lat="45.69579" lon="5.28205">
        <ele>312.4</ele>
        <time>2025-05-27T10:46:26Z</time>
      </trkpt>
      <trkpt lat="45.69576" lon="5.28209">
        <ele>312.4</ele>
        <time>2025-05-27T10:46:27Z</time>
      </trkpt>
      <trkpt lat="45.69573" lon="5.28211">
        <ele>312.4</ele>
        <time>2025-05-27T10:46:28Z</time>
      </trkpt>
      <trkpt lat="45.69571" lon="5.28211">
        <ele>312</ele>
        <time>2025-05-27T10:46:29Z</time>
      </trkpt>
      <trkpt lat="45.69567" lon="5.28214">
        <ele>311.6</ele>
        <time>2025-05-27T10:46:30Z</time>
      </trkpt>
      <trkpt lat="45.69563" lon="5.28216">
        <ele>311.6</ele>
        <time>2025-05-27T10:46:31Z</time>
      </trkpt>
      <trkpt lat="45.69559" lon="5.2822">
        <ele>311.4</ele>
        <time>2025-05-27T10:46:32Z</time>
      </trkpt>
      <trkpt lat="45.69554" lon="5.28223">
        <ele>311</ele>
        <time>2025-05-27T10:46:33Z</time>
      </trkpt>
      <trkpt lat="45.69551" lon="5.28228">
        <ele>310.6</ele>
        <time>2025-05-27T10:46:34Z</time>
      </trkpt>
      <trkpt lat="45.69548" lon="5.28233">
        <ele>310.6</ele>
        <time>2025-05-27T10:46:35Z</time>
      </trkpt>
      <trkpt lat="45.69547" lon="5.28236">
        <ele>310.4</ele>
        <time>2025-05-27T10:46:36Z</time>
      </trkpt>
      <trkpt lat="45.69545" lon="5.28237">
        <ele>310</ele>
        <time>2025-05-27T10:46:37Z</time>
      </trkpt>
      <trkpt lat="45.69543" lon="5.28239">
        <ele>309.6</ele>
        <time>2025-05-27T10:46:38Z</time>
      </trkpt>
      <trkpt lat="45.69541" lon="5.28241">
        <ele>309.2</ele>
        <time>2025-05-27T10:46:39Z</time>
      </trkpt>
      <trkpt lat="45.69538" lon="5.28244">
        <ele>308.6</ele>
        <time>2025-05-27T10:46:40Z</time>
      </trkpt>
      <trkpt lat="45.69535" lon="5.28248">
        <ele>308</ele>
        <time>2025-05-27T10:46:41Z</time>
      </trkpt>
      <trkpt lat="45.69532" lon="5.2825">
        <ele>307.4</ele>
        <time>2025-05-27T10:46:42Z</time>
      </trkpt>
      <trkpt lat="45.69529" lon="5.28253">
        <ele>306.6</ele>
        <time>2025-05-27T10:46:43Z</time>
      </trkpt>
      <trkpt lat="45.69525" lon="5.28264">
        <ele>305.6</ele>
        <time>2025-05-27T10:46:44Z</time>
      </trkpt>
      <trkpt lat="45.69521" lon="5.28271">
        <ele>305.4</ele>
        <time>2025-05-27T10:46:45Z</time>
      </trkpt>
      <trkpt lat="45.69519" lon="5.28278">
        <ele>304.8</ele>
        <time>2025-05-27T10:46:46Z</time>
      </trkpt>
      <trkpt lat="45.69519" lon="5.2828">
        <ele>304.2</ele>
        <time>2025-05-27T10:46:47Z</time>
      </trkpt>
      <trkpt lat="45.69519" lon="5.28285">
        <ele>303.2</ele>
        <time>2025-05-27T10:46:48Z</time>
      </trkpt>
      <trkpt lat="45.6952" lon="5.2829">
        <ele>302.8</ele>
        <time>2025-05-27T10:46:49Z</time>
      </trkpt>
      <trkpt lat="45.69523" lon="5.28291">
        <ele>302.8</ele>
        <time>2025-05-27T10:46:50Z</time>
      </trkpt>
      <trkpt lat="45.69527" lon="5.28293">
        <ele>301.8</ele>
        <time>2025-05-27T10:46:51Z</time>
      </trkpt>
      <trkpt lat="45.69528" lon="5.28297">
        <ele>301</ele>
        <time>2025-05-27T10:46:52Z</time>
      </trkpt>
      <trkpt lat="45.69528" lon="5.28299">
        <ele>300.4</ele>
        <time>2025-05-27T10:46:53Z</time>
      </trkpt>
      <trkpt lat="45.69527" lon="5.28301">
        <ele>299.6</ele>
        <time>2025-05-27T10:46:54Z</time>
      </trkpt>
      <trkpt lat="45.69526" lon="5.28303">
        <ele>299.4</ele>
        <time>2025-05-27T10:46:55Z</time>
      </trkpt>
      <trkpt lat="45.69524" lon="5.28304">
        <ele>299.4</ele>
        <time>2025-05-27T10:46:56Z</time>
      </trkpt>
      <trkpt lat="45.69523" lon="5.28304">
        <ele>299</ele>
        <time>2025-05-27T10:46:57Z</time>
      </trkpt>
      <trkpt lat="45.69521" lon="5.28303">
        <ele>298.4</ele>
        <time>2025-05-27T10:46:58Z</time>
      </trkpt>
      <trkpt lat="45.6952" lon="5.28302">
        <ele>298.4</ele>
        <time>2025-05-27T10:46:59Z</time>
      </trkpt>
      <trkpt lat="45.69517" lon="5.28301">
        <ele>298.4</ele>
        <time>2025-05-27T10:47:00Z</time>
      </trkpt>
      <trkpt lat="45.69516" lon="5.283">
        <ele>298.4</ele>
        <time>2025-05-27T10:47:01Z</time>
      </trkpt>
      <trkpt lat="45.69515" lon="5.283">
        <ele>299</ele>
        <time>2025-05-27T10:47:02Z</time>
      </trkpt>
      <trkpt lat="45.69513" lon="5.283">
        <ele>299</ele>
        <time>2025-05-27T10:47:03Z</time>
      </trkpt>
      <trkpt lat="45.69512" lon="5.28299">
        <ele>299.2</ele>
        <time>2025-05-27T10:47:04Z</time>
      </trkpt>
      <trkpt lat="45.6951" lon="5.28299">
        <ele>299.2</ele>
        <time>2025-05-27T10:47:05Z</time>
      </trkpt>
      <trkpt lat="45.69509" lon="5.28298">
        <ele>299.8</ele>
        <time>2025-05-27T10:47:06Z</time>
      </trkpt>
      <trkpt lat="45.69508" lon="5.28298">
        <ele>300</ele>
        <time>2025-05-27T10:47:07Z</time>
      </trkpt>
      <trkpt lat="45.69507" lon="5.28296">
        <ele>300</ele>
        <time>2025-05-27T10:47:08Z</time>
      </trkpt>
      <trkpt lat="45.69506" lon="5.28296">
        <ele>300.2</ele>
        <time>2025-05-27T10:47:09Z</time>
      </trkpt>
      <trkpt lat="45.69505" lon="5.28296">
        <ele>300.6</ele>
        <time>2025-05-27T10:47:10Z</time>
      </trkpt>
      <trkpt lat="45.69504" lon="5.28296">
        <ele>300.6</ele>
        <time>2025-05-27T10:47:11Z</time>
      </trkpt>
      <trkpt lat="45.69502" lon="5.28296">
        <ele>301</ele>
        <time>2025-05-27T10:47:12Z</time>
      </trkpt>
      <trkpt lat="45.695" lon="5.28295">
        <ele>301.2</ele>
        <time>2025-05-27T10:47:13Z</time>
      </trkpt>
      <trkpt lat="45.695" lon="5.28296">
        <ele>301.6</ele>
        <time>2025-05-27T10:47:14Z</time>
      </trkpt>
      <trkpt lat="45.69499" lon="5.28296">
        <ele>302</ele>
        <time>2025-05-27T10:47:15Z</time>
      </trkpt>
      <trkpt lat="45.69498" lon="5.28296">
        <ele>302.2</ele>
        <time>2025-05-27T10:47:16Z</time>
      </trkpt>
      <trkpt lat="45.69496" lon="5.28295">
        <ele>302.2</ele>
        <time>2025-05-27T10:47:17Z</time>
      </trkpt>
      <trkpt lat="45.69494" lon="5.28294">
        <ele>302.6</ele>
        <time>2025-05-27T10:47:18Z</time>
      </trkpt>
      <trkpt lat="45.69492" lon="5.28293">
        <ele>302.8</ele>
        <time>2025-05-27T10:47:19Z</time>
      </trkpt>
      <trkpt lat="45.6949" lon="5.28292">
        <ele>303.2</ele>
        <time>2025-05-27T10:47:20Z</time>
      </trkpt>
      <trkpt lat="45.69489" lon="5.28291">
        <ele>303.6</ele>
        <time>2025-05-27T10:47:21Z</time>
      </trkpt>
      <trkpt lat="45.69488" lon="5.2829">
        <ele>303.6</ele>
        <time>2025-05-27T10:47:22Z</time>
      </trkpt>
      <trkpt lat="45.69487" lon="5.2829">
        <ele>303.8</ele>
        <time>2025-05-27T10:47:23Z</time>
      </trkpt>
      <trkpt lat="45.69485" lon="5.28291">
        <ele>304.2</ele>
        <time>2025-05-27T10:47:24Z</time>
      </trkpt>
      <trkpt lat="45.69484" lon="5.28292">
        <ele>304.4</ele>
        <time>2025-05-27T10:47:25Z</time>
      </trkpt>
      <trkpt lat="45.69483" lon="5.28292">
        <ele>304.4</ele>
        <time>2025-05-27T10:47:26Z</time>
      </trkpt>
      <trkpt lat="45.69481" lon="5.28291">
        <ele>304.4</ele>
        <time>2025-05-27T10:47:27Z</time>
      </trkpt>
      <trkpt lat="45.69479" lon="5.28291">
        <ele>304.6</ele>
        <time>2025-05-27T10:47:28Z</time>
      </trkpt>
      <trkpt lat="45.69478" lon="5.2829">
        <ele>304.6</ele>
        <time>2025-05-27T10:47:29Z</time>
      </trkpt>
      <trkpt lat="45.69477" lon="5.28289">
        <ele>305</ele>
        <time>2025-05-27T10:47:30Z</time>
      </trkpt>
      <trkpt lat="45.69476" lon="5.28288">
        <ele>305.2</ele>
        <time>2025-05-27T10:47:31Z</time>
      </trkpt>
      <trkpt lat="45.69475" lon="5.28286">
        <ele>305.6</ele>
        <time>2025-05-27T10:47:32Z</time>
      </trkpt>
      <trkpt lat="45.69473" lon="5.28286">
        <ele>305.6</ele>
        <time>2025-05-27T10:47:33Z</time>
      </trkpt>
      <trkpt lat="45.69473" lon="5.28287">
        <ele>306</ele>
        <time>2025-05-27T10:47:34Z</time>
      </trkpt>
      <trkpt lat="45.69472" lon="5.28288">
        <ele>306.2</ele>
        <time>2025-05-27T10:47:35Z</time>
      </trkpt>
      <trkpt lat="45.69471" lon="5.28288">
        <ele>306.2</ele>
        <time>2025-05-27T10:47:36Z</time>
      </trkpt>
      <trkpt lat="45.6947" lon="5.28288">
        <ele>306.8</ele>
        <time>2025-05-27T10:47:37Z</time>
      </trkpt>
      <trkpt lat="45.69469" lon="5.28288">
        <ele>307</ele>
        <time>2025-05-27T10:47:38Z</time>
      </trkpt>
      <trkpt lat="45.69467" lon="5.28286">
        <ele>307</ele>
        <time>2025-05-27T10:47:39Z</time>
      </trkpt>
      <trkpt lat="45.69465" lon="5.28286">
        <ele>307.4</ele>
        <time>2025-05-27T10:47:40Z</time>
      </trkpt>
      <trkpt lat="45.69464" lon="5.28285">
        <ele>307.4</ele>
        <time>2025-05-27T10:47:41Z</time>
      </trkpt>
      <trkpt lat="45.69463" lon="5.28285">
        <ele>308</ele>
        <time>2025-05-27T10:47:42Z</time>
      </trkpt>
      <trkpt lat="45.69461" lon="5.28284">
        <ele>308</ele>
        <time>2025-05-27T10:47:43Z</time>
      </trkpt>
      <trkpt lat="45.69459" lon="5.28283">
        <ele>308.2</ele>
        <time>2025-05-27T10:47:44Z</time>
      </trkpt>
      <trkpt lat="45.69458" lon="5.28282">
        <ele>308.2</ele>
        <time>2025-05-27T10:47:45Z</time>
      </trkpt>
      <trkpt lat="45.69457" lon="5.28281">
        <ele>308.6</ele>
        <time>2025-05-27T10:47:46Z</time>
      </trkpt>
      <trkpt lat="45.69456" lon="5.2828">
        <ele>308.8</ele>
        <time>2025-05-27T10:47:47Z</time>
      </trkpt>
      <trkpt lat="45.69455" lon="5.28279">
        <ele>308.8</ele>
        <time>2025-05-27T10:47:48Z</time>
      </trkpt>
      <trkpt lat="45.69454" lon="5.28279">
        <ele>308.8</ele>
        <time>2025-05-27T10:47:49Z</time>
      </trkpt>
      <trkpt lat="45.69453" lon="5.28278">
        <ele>309.2</ele>
        <time>2025-05-27T10:47:50Z</time>
      </trkpt>
      <trkpt lat="45.69451" lon="5.28278">
        <ele>309.2</ele>
        <time>2025-05-27T10:47:51Z</time>
      </trkpt>
      <trkpt lat="45.6945" lon="5.28277">
        <ele>309.4</ele>
        <time>2025-05-27T10:47:52Z</time>
      </trkpt>
      <trkpt lat="45.69449" lon="5.28276">
        <ele>309.6</ele>
        <time>2025-05-27T10:47:53Z</time>
      </trkpt>
      <trkpt lat="45.69448" lon="5.28276">
        <ele>310</ele>
        <time>2025-05-27T10:47:54Z</time>
      </trkpt>
      <trkpt lat="45.69447" lon="5.28276">
        <ele>310</ele>
        <time>2025-05-27T10:47:55Z</time>
      </trkpt>
      <trkpt lat="45.69447" lon="5.28276">
        <ele>310</ele>
        <time>2025-05-27T10:47:56Z</time>
      </trkpt>
      <trkpt lat="45.69447" lon="5.28276">
        <ele>310</ele>
        <time>2025-05-27T10:47:57Z</time>
      </trkpt>
      <trkpt lat="45.69445" lon="5.28277">
        <ele>310.6</ele>
        <time>2025-05-27T10:47:58Z</time>
      </trkpt>
      <trkpt lat="45.69444" lon="5.28277">
        <ele>310.8</ele>
        <time>2025-05-27T10:47:59Z</time>
      </trkpt>
      <trkpt lat="45.69442" lon="5.28277">
        <ele>310.8</ele>
        <time>2025-05-27T10:48:00Z</time>
      </trkpt>
      <trkpt lat="45.69442" lon="5.28277">
        <ele>311.2</ele>
        <time>2025-05-27T10:48:01Z</time>
      </trkpt>
      <trkpt lat="45.69441" lon="5.28277">
        <ele>311.2</ele>
        <time>2025-05-27T10:48:02Z</time>
      </trkpt>
      <trkpt lat="45.69439" lon="5.28277">
        <ele>311.4</ele>
        <time>2025-05-27T10:48:03Z</time>
      </trkpt>
      <trkpt lat="45.69438" lon="5.28276">
        <ele>311.4</ele>
        <time>2025-05-27T10:48:04Z</time>
      </trkpt>
      <trkpt lat="45.69436" lon="5.28275">
        <ele>311.8</ele>
        <time>2025-05-27T10:48:05Z</time>
      </trkpt>
      <trkpt lat="45.69435" lon="5.28274">
        <ele>311.8</ele>
        <time>2025-05-27T10:48:06Z</time>
      </trkpt>
      <trkpt lat="45.69433" lon="5.28273">
        <ele>312</ele>
        <time>2025-05-27T10:48:07Z</time>
      </trkpt>
      <trkpt lat="45.69432" lon="5.28272">
        <ele>312</ele>
        <time>2025-05-27T10:48:08Z</time>
      </trkpt>
      <trkpt lat="45.6943" lon="5.2827">
        <ele>312.4</ele>
        <time>2025-05-27T10:48:09Z</time>
      </trkpt>
      <trkpt lat="45.69429" lon="5.28269">
        <ele>312.4</ele>
        <time>2025-05-27T10:48:10Z</time>
      </trkpt>
      <trkpt lat="45.69428" lon="5.28268">
        <ele>312.4</ele>
        <time>2025-05-27T10:48:11Z</time>
      </trkpt>
      <trkpt lat="45.69426" lon="5.28268">
        <ele>312.8</ele>
        <time>2025-05-27T10:48:12Z</time>
      </trkpt>
      <trkpt lat="45.69425" lon="5.28269">
        <ele>312.8</ele>
        <time>2025-05-27T10:48:13Z</time>
      </trkpt>
      <trkpt lat="45.69423" lon="5.28269">
        <ele>313.2</ele>
        <time>2025-05-27T10:48:14Z</time>
      </trkpt>
      <trkpt lat="45.69422" lon="5.28269">
        <ele>313.2</ele>
        <time>2025-05-27T10:48:15Z</time>
      </trkpt>
      <trkpt lat="45.69421" lon="5.28268">
        <ele>313.4</ele>
        <time>2025-05-27T10:48:16Z</time>
      </trkpt>
      <trkpt lat="45.69421" lon="5.28267">
        <ele>313.4</ele>
        <time>2025-05-27T10:48:17Z</time>
      </trkpt>
      <trkpt lat="45.6942" lon="5.28266">
        <ele>313.8</ele>
        <time>2025-05-27T10:48:18Z</time>
      </trkpt>
      <trkpt lat="45.69418" lon="5.28265">
        <ele>314</ele>
        <time>2025-05-27T10:48:19Z</time>
      </trkpt>
      <trkpt lat="45.69417" lon="5.28265">
        <ele>314</ele>
        <time>2025-05-27T10:48:20Z</time>
      </trkpt>
      <trkpt lat="45.69416" lon="5.28265">
        <ele>314.4</ele>
        <time>2025-05-27T10:48:21Z</time>
      </trkpt>
      <trkpt lat="45.69415" lon="5.28264">
        <ele>314.4</ele>
        <time>2025-05-27T10:48:22Z</time>
      </trkpt>
      <trkpt lat="45.69413" lon="5.28263">
        <ele>314.8</ele>
        <time>2025-05-27T10:48:23Z</time>
      </trkpt>
      <trkpt lat="45.69412" lon="5.28262">
        <ele>315</ele>
        <time>2025-05-27T10:48:24Z</time>
      </trkpt>
      <trkpt lat="45.69412" lon="5.2826">
        <ele>315</ele>
        <time>2025-05-27T10:48:25Z</time>
      </trkpt>
      <trkpt lat="45.69411" lon="5.28258">
        <ele>315.4</ele>
        <time>2025-05-27T10:48:26Z</time>
      </trkpt>
      <trkpt lat="45.69409" lon="5.28257">
        <ele>315.4</ele>
        <time>2025-05-27T10:48:27Z</time>
      </trkpt>
      <trkpt lat="45.69408" lon="5.28257">
        <ele>315.4</ele>
        <time>2025-05-27T10:48:28Z</time>
      </trkpt>
      <trkpt lat="45.69407" lon="5.28257">
        <ele>315.6</ele>
        <time>2025-05-27T10:48:29Z</time>
      </trkpt>
      <trkpt lat="45.69405" lon="5.28257">
        <ele>316.2</ele>
        <time>2025-05-27T10:48:30Z</time>
      </trkpt>
      <trkpt lat="45.69404" lon="5.28256">
        <ele>316.2</ele>
        <time>2025-05-27T10:48:31Z</time>
      </trkpt>
      <trkpt lat="45.69401" lon="5.28255">
        <ele>316.4</ele>
        <time>2025-05-27T10:48:32Z</time>
      </trkpt>
      <trkpt lat="45.694" lon="5.28254">
        <ele>316.4</ele>
        <time>2025-05-27T10:48:33Z</time>
      </trkpt>
      <trkpt lat="45.69398" lon="5.28253">
        <ele>316.4</ele>
        <time>2025-05-27T10:48:34Z</time>
      </trkpt>
      <trkpt lat="45.69397" lon="5.28252">
        <ele>316.4</ele>
        <time>2025-05-27T10:48:35Z</time>
      </trkpt>
      <trkpt lat="45.69397" lon="5.28252">
        <ele>316.2</ele>
        <time>2025-05-27T10:48:36Z</time>
      </trkpt>
      <trkpt lat="45.69395" lon="5.28251">
        <ele>316.2</ele>
        <time>2025-05-27T10:48:37Z</time>
      </trkpt>
      <trkpt lat="45.69393" lon="5.28249">
        <ele>316.2</ele>
        <time>2025-05-27T10:48:38Z</time>
      </trkpt>
      <trkpt lat="45.69392" lon="5.28248">
        <ele>316.2</ele>
        <time>2025-05-27T10:48:39Z</time>
      </trkpt>
      <trkpt lat="45.69391" lon="5.28245">
        <ele>316.2</ele>
        <time>2025-05-27T10:48:40Z</time>
      </trkpt>
      <trkpt lat="45.69389" lon="5.28243">
        <ele>316.2</ele>
        <time>2025-05-27T10:48:41Z</time>
      </trkpt>
      <trkpt lat="45.69387" lon="5.28241">
        <ele>316.2</ele>
        <time>2025-05-27T10:48:42Z</time>
      </trkpt>
      <trkpt lat="45.69384" lon="5.28239">
        <ele>316.2</ele>
        <time>2025-05-27T10:48:43Z</time>
      </trkpt>
      <trkpt lat="45.69383" lon="5.28236">
        <ele>316.2</ele>
        <time>2025-05-27T10:48:44Z</time>
      </trkpt>
      <trkpt lat="45.69381" lon="5.28233">
        <ele>316</ele>
        <time>2025-05-27T10:48:45Z</time>
      </trkpt>
      <trkpt lat="45.69379" lon="5.28231">
        <ele>316</ele>
        <time>2025-05-27T10:48:46Z</time>
      </trkpt>
      <trkpt lat="45.69374" lon="5.28225">
        <ele>315.6</ele>
        <time>2025-05-27T10:48:47Z</time>
      </trkpt>
      <trkpt lat="45.69371" lon="5.28222">
        <ele>316</ele>
        <time>2025-05-27T10:48:48Z</time>
      </trkpt>
      <trkpt lat="45.69368" lon="5.28218">
        <ele>315.6</ele>
        <time>2025-05-27T10:48:49Z</time>
      </trkpt>
      <trkpt lat="45.69364" lon="5.28214">
        <ele>316.2</ele>
        <time>2025-05-27T10:48:50Z</time>
      </trkpt>
      <trkpt lat="45.69358" lon="5.28208">
        <ele>315.4</ele>
        <time>2025-05-27T10:48:51Z</time>
      </trkpt>
      <trkpt lat="45.69354" lon="5.28203">
        <ele>315.2</ele>
        <time>2025-05-27T10:48:52Z</time>
      </trkpt>
      <trkpt lat="45.69352" lon="5.28198">
        <ele>315.2</ele>
        <time>2025-05-27T10:48:53Z</time>
      </trkpt>
      <trkpt lat="45.6935" lon="5.28193">
        <ele>314.6</ele>
        <time>2025-05-27T10:48:54Z</time>
      </trkpt>
      <trkpt lat="45.69347" lon="5.28189">
        <ele>314.4</ele>
        <time>2025-05-27T10:48:55Z</time>
      </trkpt>
      <trkpt lat="45.69345" lon="5.28184">
        <ele>314.4</ele>
        <time>2025-05-27T10:48:56Z</time>
      </trkpt>
      <trkpt lat="45.69344" lon="5.28178">
        <ele>314</ele>
        <time>2025-05-27T10:48:57Z</time>
      </trkpt>
      <trkpt lat="45.69343" lon="5.28174">
        <ele>313.4</ele>
        <time>2025-05-27T10:48:58Z</time>
      </trkpt>
      <trkpt lat="45.69339" lon="5.28168">
        <ele>313</ele>
        <time>2025-05-27T10:48:59Z</time>
      </trkpt>
      <trkpt lat="45.69337" lon="5.28163">
        <ele>312.6</ele>
        <time>2025-05-27T10:49:00Z</time>
      </trkpt>
      <trkpt lat="45.69333" lon="5.28158">
        <ele>312.6</ele>
        <time>2025-05-27T10:49:01Z</time>
      </trkpt>
      <trkpt lat="45.6933" lon="5.28154">
        <ele>312.2</ele>
        <time>2025-05-27T10:49:02Z</time>
      </trkpt>
      <trkpt lat="45.69326" lon="5.2815">
        <ele>312</ele>
        <time>2025-05-27T10:49:03Z</time>
      </trkpt>
      <trkpt lat="45.69323" lon="5.28147">
        <ele>311.2</ele>
        <time>2025-05-27T10:49:04Z</time>
      </trkpt>
      <trkpt lat="45.69319" lon="5.28145">
        <ele>311.2</ele>
        <time>2025-05-27T10:49:05Z</time>
      </trkpt>
      <trkpt lat="45.69314" lon="5.2814">
        <ele>311.6</ele>
        <time>2025-05-27T10:49:06Z</time>
      </trkpt>
      <trkpt lat="45.6931" lon="5.28135">
        <ele>312.2</ele>
        <time>2025-05-27T10:49:07Z</time>
      </trkpt>
      <trkpt lat="45.69306" lon="5.28129">
        <ele>312.2</ele>
        <time>2025-05-27T10:49:08Z</time>
      </trkpt>
      <trkpt lat="45.69305" lon="5.28126">
        <ele>312.2</ele>
        <time>2025-05-27T10:49:09Z</time>
      </trkpt>
      <trkpt lat="45.69301" lon="5.28121">
        <ele>312.2</ele>
        <time>2025-05-27T10:49:10Z</time>
      </trkpt>
      <trkpt lat="45.69299" lon="5.28116">
        <ele>312.2</ele>
        <time>2025-05-27T10:49:11Z</time>
      </trkpt>
      <trkpt lat="45.69295" lon="5.28113">
        <ele>312.8</ele>
        <time>2025-05-27T10:49:12Z</time>
      </trkpt>
      <trkpt lat="45.69295" lon="5.28113">
        <ele>313.6</ele>
        <time>2025-05-27T10:49:13Z</time>
      </trkpt>
      <trkpt lat="45.69295" lon="5.28113">
        <ele>314.2</ele>
        <time>2025-05-27T10:49:14Z</time>
      </trkpt>
      <trkpt lat="45.69288" lon="5.28106">
        <ele>315.2</ele>
        <time>2025-05-27T10:49:17Z</time>
      </trkpt>
      <trkpt lat="45.69288" lon="5.28104">
        <ele>315.8</ele>
        <time>2025-05-27T10:49:18Z</time>
      </trkpt>
      <trkpt lat="45.69286" lon="5.28103">
        <ele>316</ele>
        <time>2025-05-27T10:49:19Z</time>
      </trkpt>
      <trkpt lat="45.69285" lon="5.28102">
        <ele>316.4</ele>
        <time>2025-05-27T10:49:20Z</time>
      </trkpt>
      <trkpt lat="45.69284" lon="5.28101">
        <ele>316.8</ele>
        <time>2025-05-27T10:49:21Z</time>
      </trkpt>
      <trkpt lat="45.69282" lon="5.281">
        <ele>316.8</ele>
        <time>2025-05-27T10:49:22Z</time>
      </trkpt>
      <trkpt lat="45.69281" lon="5.28098">
        <ele>317.2</ele>
        <time>2025-05-27T10:49:23Z</time>
      </trkpt>
      <trkpt lat="45.6928" lon="5.28097">
        <ele>317.6</ele>
        <time>2025-05-27T10:49:24Z</time>
      </trkpt>
      <trkpt lat="45.69278" lon="5.28096">
        <ele>317.8</ele>
        <time>2025-05-27T10:49:25Z</time>
      </trkpt>
      <trkpt lat="45.69276" lon="5.28096">
        <ele>318.2</ele>
        <time>2025-05-27T10:49:26Z</time>
      </trkpt>
      <trkpt lat="45.69274" lon="5.28095">
        <ele>318.2</ele>
        <time>2025-05-27T10:49:27Z</time>
      </trkpt>
      <trkpt lat="45.69273" lon="5.28094">
        <ele>318.4</ele>
        <time>2025-05-27T10:49:28Z</time>
      </trkpt>
      <trkpt lat="45.69271" lon="5.28094">
        <ele>318.6</ele>
        <time>2025-05-27T10:49:29Z</time>
      </trkpt>
      <trkpt lat="45.69269" lon="5.28093">
        <ele>319</ele>
        <time>2025-05-27T10:49:30Z</time>
      </trkpt>
      <trkpt lat="45.69268" lon="5.28092">
        <ele>319.2</ele>
        <time>2025-05-27T10:49:31Z</time>
      </trkpt>
      <trkpt lat="45.69266" lon="5.28091">
        <ele>319.2</ele>
        <time>2025-05-27T10:49:32Z</time>
      </trkpt>
      <trkpt lat="45.69265" lon="5.2809">
        <ele>320</ele>
        <time>2025-05-27T10:49:33Z</time>
      </trkpt>
      <trkpt lat="45.69264" lon="5.2809">
        <ele>320.4</ele>
        <time>2025-05-27T10:49:34Z</time>
      </trkpt>
      <trkpt lat="45.69263" lon="5.28089">
        <ele>320.6</ele>
        <time>2025-05-27T10:49:35Z</time>
      </trkpt>
      <trkpt lat="45.69262" lon="5.28089">
        <ele>320.8</ele>
        <time>2025-05-27T10:49:36Z</time>
      </trkpt>
      <trkpt lat="45.69262" lon="5.28089">
        <ele>321.4</ele>
        <time>2025-05-27T10:49:37Z</time>
      </trkpt>
      <trkpt lat="45.69258" lon="5.28088">
        <ele>321.2</ele>
        <time>2025-05-27T10:49:38Z</time>
      </trkpt>
      <trkpt lat="45.69257" lon="5.28088">
        <ele>320.8</ele>
        <time>2025-05-27T10:49:39Z</time>
      </trkpt>
      <trkpt lat="45.69255" lon="5.28089">
        <ele>321.2</ele>
        <time>2025-05-27T10:49:40Z</time>
      </trkpt>
      <trkpt lat="45.69253" lon="5.28091">
        <ele>321.2</ele>
        <time>2025-05-27T10:49:41Z</time>
      </trkpt>
      <trkpt lat="45.69253" lon="5.28091">
        <ele>320.8</ele>
        <time>2025-05-27T10:49:42Z</time>
      </trkpt>
      <trkpt lat="45.69252" lon="5.28092">
        <ele>320.6</ele>
        <time>2025-05-27T10:49:43Z</time>
      </trkpt>
      <trkpt lat="45.69251" lon="5.28092">
        <ele>320.6</ele>
        <time>2025-05-27T10:49:44Z</time>
      </trkpt>
      <trkpt lat="45.69249" lon="5.28092">
        <ele>320.6</ele>
        <time>2025-05-27T10:49:45Z</time>
      </trkpt>
      <trkpt lat="45.69246" lon="5.28091">
        <ele>320.4</ele>
        <time>2025-05-27T10:49:46Z</time>
      </trkpt>
      <trkpt lat="45.69243" lon="5.28091">
        <ele>320.4</ele>
        <time>2025-05-27T10:49:47Z</time>
      </trkpt>
      <trkpt lat="45.6924" lon="5.28091">
        <ele>320.4</ele>
        <time>2025-05-27T10:49:48Z</time>
      </trkpt>
      <trkpt lat="45.69238" lon="5.28092">
        <ele>320.4</ele>
        <time>2025-05-27T10:49:49Z</time>
      </trkpt>
      <trkpt lat="45.69235" lon="5.28093">
        <ele>320</ele>
        <time>2025-05-27T10:49:50Z</time>
      </trkpt>
      <trkpt lat="45.69231" lon="5.28094">
        <ele>320</ele>
        <time>2025-05-27T10:49:51Z</time>
      </trkpt>
      <trkpt lat="45.69228" lon="5.28095">
        <ele>320</ele>
        <time>2025-05-27T10:49:52Z</time>
      </trkpt>
      <trkpt lat="45.69226" lon="5.28095">
        <ele>320.2</ele>
        <time>2025-05-27T10:49:53Z</time>
      </trkpt>
      <trkpt lat="45.69224" lon="5.28095">
        <ele>320.2</ele>
        <time>2025-05-27T10:49:54Z</time>
      </trkpt>
      <trkpt lat="45.69221" lon="5.28095">
        <ele>320.2</ele>
        <time>2025-05-27T10:49:55Z</time>
      </trkpt>
      <trkpt lat="45.69215" lon="5.28096">
        <ele>320.2</ele>
        <time>2025-05-27T10:49:56Z</time>
      </trkpt>
      <trkpt lat="45.69212" lon="5.28096">
        <ele>319.4</ele>
        <time>2025-05-27T10:49:57Z</time>
      </trkpt>
      <trkpt lat="45.69209" lon="5.28096">
        <ele>319.6</ele>
        <time>2025-05-27T10:49:58Z</time>
      </trkpt>
      <trkpt lat="45.69206" lon="5.28095">
        <ele>320</ele>
        <time>2025-05-27T10:49:59Z</time>
      </trkpt>
      <trkpt lat="45.69204" lon="5.28094">
        <ele>320.6</ele>
        <time>2025-05-27T10:50:00Z</time>
      </trkpt>
      <trkpt lat="45.69202" lon="5.28093">
        <ele>321</ele>
        <time>2025-05-27T10:50:01Z</time>
      </trkpt>
      <trkpt lat="45.69198" lon="5.28095">
        <ele>321.2</ele>
        <time>2025-05-27T10:50:02Z</time>
      </trkpt>
      <trkpt lat="45.69196" lon="5.28095">
        <ele>321.6</ele>
        <time>2025-05-27T10:50:03Z</time>
      </trkpt>
      <trkpt lat="45.69192" lon="5.28097">
        <ele>321.6</ele>
        <time>2025-05-27T10:50:04Z</time>
      </trkpt>
      <trkpt lat="45.6919" lon="5.28098">
        <ele>322</ele>
        <time>2025-05-27T10:50:05Z</time>
      </trkpt>
      <trkpt lat="45.69186" lon="5.28099">
        <ele>322.2</ele>
        <time>2025-05-27T10:50:06Z</time>
      </trkpt>
      <trkpt lat="45.69181" lon="5.281">
        <ele>322.2</ele>
        <time>2025-05-27T10:50:07Z</time>
      </trkpt>
      <trkpt lat="45.69177" lon="5.28102">
        <ele>322.2</ele>
        <time>2025-05-27T10:50:08Z</time>
      </trkpt>
      <trkpt lat="45.69173" lon="5.28104">
        <ele>322</ele>
        <time>2025-05-27T10:50:09Z</time>
      </trkpt>
      <trkpt lat="45.69172" lon="5.281">
        <ele>322</ele>
        <time>2025-05-27T10:50:10Z</time>
      </trkpt>
      <trkpt lat="45.69168" lon="5.28103">
        <ele>322.2</ele>
        <time>2025-05-27T10:50:11Z</time>
      </trkpt>
      <trkpt lat="45.69165" lon="5.28102">
        <ele>322.2</ele>
        <time>2025-05-27T10:50:12Z</time>
      </trkpt>
      <trkpt lat="45.69161" lon="5.28103">
        <ele>322.2</ele>
        <time>2025-05-27T10:50:13Z</time>
      </trkpt>
      <trkpt lat="45.69156" lon="5.28103">
        <ele>322.2</ele>
        <time>2025-05-27T10:50:14Z</time>
      </trkpt>
      <trkpt lat="45.69153" lon="5.28103">
        <ele>322.2</ele>
        <time>2025-05-27T10:50:15Z</time>
      </trkpt>
      <trkpt lat="45.6915" lon="5.28106">
        <ele>322.2</ele>
        <time>2025-05-27T10:50:16Z</time>
      </trkpt>
      <trkpt lat="45.69145" lon="5.28108">
        <ele>322.2</ele>
        <time>2025-05-27T10:50:17Z</time>
      </trkpt>
      <trkpt lat="45.69142" lon="5.28106">
        <ele>321.8</ele>
        <time>2025-05-27T10:50:18Z</time>
      </trkpt>
      <trkpt lat="45.69138" lon="5.28104">
        <ele>321.8</ele>
        <time>2025-05-27T10:50:19Z</time>
      </trkpt>
      <trkpt lat="45.69135" lon="5.28101">
        <ele>321.8</ele>
        <time>2025-05-27T10:50:20Z</time>
      </trkpt>
      <trkpt lat="45.69134" lon="5.28097">
        <ele>321.8</ele>
        <time>2025-05-27T10:50:21Z</time>
      </trkpt>
      <trkpt lat="45.69132" lon="5.28094">
        <ele>322</ele>
        <time>2025-05-27T10:50:22Z</time>
      </trkpt>
      <trkpt lat="45.69127" lon="5.28089">
        <ele>321.6</ele>
        <time>2025-05-27T10:50:23Z</time>
      </trkpt>
      <trkpt lat="45.69124" lon="5.28085">
        <ele>321.8</ele>
        <time>2025-05-27T10:50:24Z</time>
      </trkpt>
      <trkpt lat="45.6912" lon="5.28084">
        <ele>322</ele>
        <time>2025-05-27T10:50:25Z</time>
      </trkpt>
      <trkpt lat="45.69119" lon="5.28081">
        <ele>322</ele>
        <time>2025-05-27T10:50:26Z</time>
      </trkpt>
      <trkpt lat="45.69118" lon="5.28076">
        <ele>322.4</ele>
        <time>2025-05-27T10:50:27Z</time>
      </trkpt>
      <trkpt lat="45.69116" lon="5.28076">
        <ele>323</ele>
        <time>2025-05-27T10:50:28Z</time>
      </trkpt>
      <trkpt lat="45.69115" lon="5.28075">
        <ele>323.4</ele>
        <time>2025-05-27T10:50:29Z</time>
      </trkpt>
      <trkpt lat="45.69112" lon="5.28074">
        <ele>323.8</ele>
        <time>2025-05-27T10:50:30Z</time>
      </trkpt>
      <trkpt lat="45.6911" lon="5.28073">
        <ele>324.2</ele>
        <time>2025-05-27T10:50:31Z</time>
      </trkpt>
      <trkpt lat="45.69108" lon="5.28073">
        <ele>324.2</ele>
        <time>2025-05-27T10:50:32Z</time>
      </trkpt>
      <trkpt lat="45.69107" lon="5.28072">
        <ele>324.6</ele>
        <time>2025-05-27T10:50:33Z</time>
      </trkpt>
      <trkpt lat="45.69106" lon="5.28071">
        <ele>325</ele>
        <time>2025-05-27T10:50:34Z</time>
      </trkpt>
      <trkpt lat="45.69105" lon="5.28071">
        <ele>325.4</ele>
        <time>2025-05-27T10:50:35Z</time>
      </trkpt>
      <trkpt lat="45.69104" lon="5.28071">
        <ele>325.8</ele>
        <time>2025-05-27T10:50:36Z</time>
      </trkpt>
      <trkpt lat="45.69103" lon="5.2807">
        <ele>326</ele>
        <time>2025-05-27T10:50:37Z</time>
      </trkpt>
      <trkpt lat="45.69101" lon="5.2807">
        <ele>326.4</ele>
        <time>2025-05-27T10:50:38Z</time>
      </trkpt>
      <trkpt lat="45.69099" lon="5.2807">
        <ele>326.6</ele>
        <time>2025-05-27T10:50:39Z</time>
      </trkpt>
      <trkpt lat="45.69097" lon="5.28069">
        <ele>326.6</ele>
        <time>2025-05-27T10:50:40Z</time>
      </trkpt>
      <trkpt lat="45.69094" lon="5.28068">
        <ele>326.8</ele>
        <time>2025-05-27T10:50:41Z</time>
      </trkpt>
      <trkpt lat="45.69092" lon="5.28067">
        <ele>326.8</ele>
        <time>2025-05-27T10:50:42Z</time>
      </trkpt>
      <trkpt lat="45.69091" lon="5.28067">
        <ele>327.2</ele>
        <time>2025-05-27T10:50:43Z</time>
      </trkpt>
      <trkpt lat="45.69091" lon="5.28066">
        <ele>327.2</ele>
        <time>2025-05-27T10:50:44Z</time>
      </trkpt>
      <trkpt lat="45.69091" lon="5.28066">
        <ele>327.4</ele>
        <time>2025-05-27T10:50:45Z</time>
      </trkpt>
      <trkpt lat="45.69092" lon="5.28066">
        <ele>327.4</ele>
        <time>2025-05-27T10:50:46Z</time>
      </trkpt>
      <trkpt lat="45.69084" lon="5.28075">
        <ele>327.8</ele>
        <time>2025-05-27T10:52:42Z</time>
      </trkpt>
      <trkpt lat="45.69083" lon="5.28074">
        <ele>327.8</ele>
        <time>2025-05-27T10:52:43Z</time>
      </trkpt>
      <trkpt lat="45.69082" lon="5.28073">
        <ele>327.6</ele>
        <time>2025-05-27T10:52:44Z</time>
      </trkpt>
      <trkpt lat="45.6908" lon="5.28072">
        <ele>327.4</ele>
        <time>2025-05-27T10:52:45Z</time>
      </trkpt>
      <trkpt lat="45.69079" lon="5.28071">
        <ele>327.4</ele>
        <time>2025-05-27T10:52:46Z</time>
      </trkpt>
      <trkpt lat="45.69078" lon="5.2807">
        <ele>327.4</ele>
        <time>2025-05-27T10:52:47Z</time>
      </trkpt>
      <trkpt lat="45.69076" lon="5.2807">
        <ele>327.4</ele>
        <time>2025-05-27T10:52:48Z</time>
      </trkpt>
      <trkpt lat="45.69073" lon="5.28069">
        <ele>327.8</ele>
        <time>2025-05-27T10:52:49Z</time>
      </trkpt>
      <trkpt lat="45.69071" lon="5.2807">
        <ele>327.8</ele>
        <time>2025-05-27T10:52:50Z</time>
      </trkpt>
      <trkpt lat="45.69069" lon="5.2807">
        <ele>327.8</ele>
        <time>2025-05-27T10:52:51Z</time>
      </trkpt>
      <trkpt lat="45.69066" lon="5.28071">
        <ele>327.8</ele>
        <time>2025-05-27T10:52:52Z</time>
      </trkpt>
      <trkpt lat="45.69063" lon="5.28071">
        <ele>328</ele>
        <time>2025-05-27T10:52:53Z</time>
      </trkpt>
      <trkpt lat="45.69061" lon="5.28071">
        <ele>328.2</ele>
        <time>2025-05-27T10:52:54Z</time>
      </trkpt>
      <trkpt lat="45.69059" lon="5.2807">
        <ele>328.2</ele>
        <time>2025-05-27T10:52:55Z</time>
      </trkpt>
      <trkpt lat="45.69056" lon="5.28069">
        <ele>328.2</ele>
        <time>2025-05-27T10:52:56Z</time>
      </trkpt>
      <trkpt lat="45.69054" lon="5.28069">
        <ele>328.6</ele>
        <time>2025-05-27T10:52:57Z</time>
      </trkpt>
      <trkpt lat="45.69052" lon="5.28068">
        <ele>328.6</ele>
        <time>2025-05-27T10:52:58Z</time>
      </trkpt>
      <trkpt lat="45.69051" lon="5.28068">
        <ele>329</ele>
        <time>2025-05-27T10:52:59Z</time>
      </trkpt>
      <trkpt lat="45.69048" lon="5.28068">
        <ele>329</ele>
        <time>2025-05-27T10:53:00Z</time>
      </trkpt>
      <trkpt lat="45.69046" lon="5.28067">
        <ele>329.2</ele>
        <time>2025-05-27T10:53:01Z</time>
      </trkpt>
      <trkpt lat="45.69043" lon="5.28066">
        <ele>329.2</ele>
        <time>2025-05-27T10:53:02Z</time>
      </trkpt>
      <trkpt lat="45.69041" lon="5.28065">
        <ele>329.6</ele>
        <time>2025-05-27T10:53:03Z</time>
      </trkpt>
      <trkpt lat="45.69039" lon="5.28064">
        <ele>329.8</ele>
        <time>2025-05-27T10:53:04Z</time>
      </trkpt>
      <trkpt lat="45.69037" lon="5.28064">
        <ele>330</ele>
        <time>2025-05-27T10:53:05Z</time>
      </trkpt>
      <trkpt lat="45.69036" lon="5.28064">
        <ele>330</ele>
        <time>2025-05-27T10:53:06Z</time>
      </trkpt>
      <trkpt lat="45.69035" lon="5.28064">
        <ele>330.4</ele>
        <time>2025-05-27T10:53:07Z</time>
      </trkpt>
      <trkpt lat="45.69033" lon="5.28065">
        <ele>330.4</ele>
        <time>2025-05-27T10:53:08Z</time>
      </trkpt>
      <trkpt lat="45.69031" lon="5.28067">
        <ele>330.6</ele>
        <time>2025-05-27T10:53:09Z</time>
      </trkpt>
      <trkpt lat="45.6903" lon="5.28067">
        <ele>331</ele>
        <time>2025-05-27T10:53:10Z</time>
      </trkpt>
      <trkpt lat="45.69028" lon="5.28067">
        <ele>331.4</ele>
        <time>2025-05-27T10:53:11Z</time>
      </trkpt>
      <trkpt lat="45.69026" lon="5.28066">
        <ele>331.4</ele>
        <time>2025-05-27T10:53:12Z</time>
      </trkpt>
      <trkpt lat="45.69024" lon="5.28066">
        <ele>331.8</ele>
        <time>2025-05-27T10:53:13Z</time>
      </trkpt>
      <trkpt lat="45.69022" lon="5.28067">
        <ele>332</ele>
        <time>2025-05-27T10:53:14Z</time>
      </trkpt>
      <trkpt lat="45.6902" lon="5.28068">
        <ele>332</ele>
        <time>2025-05-27T10:53:15Z</time>
      </trkpt>
      <trkpt lat="45.69017" lon="5.28069">
        <ele>332</ele>
        <time>2025-05-27T10:53:16Z</time>
      </trkpt>
      <trkpt lat="45.69016" lon="5.2807">
        <ele>332.2</ele>
        <time>2025-05-27T10:53:17Z</time>
      </trkpt>
      <trkpt lat="45.69015" lon="5.28069">
        <ele>332.8</ele>
        <time>2025-05-27T10:53:18Z</time>
      </trkpt>
      <trkpt lat="45.69014" lon="5.28067">
        <ele>333.2</ele>
        <time>2025-05-27T10:53:19Z</time>
      </trkpt>
      <trkpt lat="45.69013" lon="5.28065">
        <ele>333.4</ele>
        <time>2025-05-27T10:53:20Z</time>
      </trkpt>
      <trkpt lat="45.69012" lon="5.28064">
        <ele>333.8</ele>
        <time>2025-05-27T10:53:21Z</time>
      </trkpt>
      <trkpt lat="45.69011" lon="5.28063">
        <ele>334</ele>
        <time>2025-05-27T10:53:22Z</time>
      </trkpt>
      <trkpt lat="45.6901" lon="5.28062">
        <ele>334</ele>
        <time>2025-05-27T10:53:23Z</time>
      </trkpt>
      <trkpt lat="45.69009" lon="5.28062">
        <ele>334.4</ele>
        <time>2025-05-27T10:53:24Z</time>
      </trkpt>
      <trkpt lat="45.69007" lon="5.28062">
        <ele>335</ele>
        <time>2025-05-27T10:53:25Z</time>
      </trkpt>
      <trkpt lat="45.69006" lon="5.28063">
        <ele>335.4</ele>
        <time>2025-05-27T10:53:26Z</time>
      </trkpt>
      <trkpt lat="45.69005" lon="5.28063">
        <ele>335.8</ele>
        <time>2025-05-27T10:53:27Z</time>
      </trkpt>
      <trkpt lat="45.69004" lon="5.28063">
        <ele>336</ele>
        <time>2025-05-27T10:53:28Z</time>
      </trkpt>
      <trkpt lat="45.69002" lon="5.28062">
        <ele>336.6</ele>
        <time>2025-05-27T10:53:29Z</time>
      </trkpt>
      <trkpt lat="45.69001" lon="5.28062">
        <ele>337.2</ele>
        <time>2025-05-27T10:53:30Z</time>
      </trkpt>
      <trkpt lat="45.69" lon="5.28061">
        <ele>337.2</ele>
        <time>2025-05-27T10:53:31Z</time>
      </trkpt>
      <trkpt lat="45.68997" lon="5.28061">
        <ele>337.2</ele>
        <time>2025-05-27T10:53:32Z</time>
      </trkpt>
      <trkpt lat="45.68995" lon="5.2806">
        <ele>337.4</ele>
        <time>2025-05-27T10:53:33Z</time>
      </trkpt>
      <trkpt lat="45.68993" lon="5.28059">
        <ele>337.4</ele>
        <time>2025-05-27T10:53:34Z</time>
      </trkpt>
      <trkpt lat="45.68991" lon="5.28058">
        <ele>337.4</ele>
        <time>2025-05-27T10:53:35Z</time>
      </trkpt>
      <trkpt lat="45.6899" lon="5.28058">
        <ele>337.8</ele>
        <time>2025-05-27T10:53:36Z</time>
      </trkpt>
      <trkpt lat="45.68989" lon="5.28058">
        <ele>338</ele>
        <time>2025-05-27T10:53:37Z</time>
      </trkpt>
      <trkpt lat="45.68988" lon="5.28058">
        <ele>338</ele>
        <time>2025-05-27T10:53:38Z</time>
      </trkpt>
      <trkpt lat="45.68987" lon="5.28059">
        <ele>338</ele>
        <time>2025-05-27T10:53:39Z</time>
      </trkpt>
      <trkpt lat="45.68985" lon="5.2806">
        <ele>338.4</ele>
        <time>2025-05-27T10:53:40Z</time>
      </trkpt>
      <trkpt lat="45.68984" lon="5.2806">
        <ele>338.4</ele>
        <time>2025-05-27T10:53:41Z</time>
      </trkpt>
      <trkpt lat="45.68983" lon="5.2806">
        <ele>338.4</ele>
        <time>2025-05-27T10:53:42Z</time>
      </trkpt>
      <trkpt lat="45.68982" lon="5.2806">
        <ele>338.6</ele>
        <time>2025-05-27T10:53:43Z</time>
      </trkpt>
      <trkpt lat="45.68981" lon="5.2806">
        <ele>338.6</ele>
        <time>2025-05-27T10:53:44Z</time>
      </trkpt>
      <trkpt lat="45.6898" lon="5.2806">
        <ele>339</ele>
        <time>2025-05-27T10:53:45Z</time>
      </trkpt>
      <trkpt lat="45.68978" lon="5.2806">
        <ele>339</ele>
        <time>2025-05-27T10:53:46Z</time>
      </trkpt>
      <trkpt lat="45.68976" lon="5.28059">
        <ele>339.4</ele>
        <time>2025-05-27T10:53:47Z</time>
      </trkpt>
      <trkpt lat="45.68975" lon="5.28058">
        <ele>339.4</ele>
        <time>2025-05-27T10:53:48Z</time>
      </trkpt>
      <trkpt lat="45.68974" lon="5.28058">
        <ele>339.6</ele>
        <time>2025-05-27T10:53:49Z</time>
      </trkpt>
      <trkpt lat="45.68972" lon="5.28057">
        <ele>339.6</ele>
        <time>2025-05-27T10:53:50Z</time>
      </trkpt>
      <trkpt lat="45.68971" lon="5.28056">
        <ele>340</ele>
        <time>2025-05-27T10:53:51Z</time>
      </trkpt>
      <trkpt lat="45.6897" lon="5.28055">
        <ele>340</ele>
        <time>2025-05-27T10:53:52Z</time>
      </trkpt>
      <trkpt lat="45.68969" lon="5.28055">
        <ele>340.2</ele>
        <time>2025-05-27T10:53:53Z</time>
      </trkpt>
      <trkpt lat="45.68967" lon="5.28054">
        <ele>340</ele>
        <time>2025-05-27T10:53:54Z</time>
      </trkpt>
      <trkpt lat="45.68965" lon="5.28054">
        <ele>340.6</ele>
        <time>2025-05-27T10:53:55Z</time>
      </trkpt>
      <trkpt lat="45.68964" lon="5.28054">
        <ele>340.6</ele>
        <time>2025-05-27T10:53:56Z</time>
      </trkpt>
      <trkpt lat="45.68963" lon="5.28054">
        <ele>341</ele>
        <time>2025-05-27T10:53:57Z</time>
      </trkpt>
      <trkpt lat="45.68962" lon="5.28053">
        <ele>341</ele>
        <time>2025-05-27T10:53:58Z</time>
      </trkpt>
      <trkpt lat="45.68961" lon="5.28052">
        <ele>341.2</ele>
        <time>2025-05-27T10:53:59Z</time>
      </trkpt>
      <trkpt lat="45.68961" lon="5.28051">
        <ele>341.4</ele>
        <time>2025-05-27T10:54:00Z</time>
      </trkpt>
      <trkpt lat="45.6896" lon="5.28051">
        <ele>341.4</ele>
        <time>2025-05-27T10:54:01Z</time>
      </trkpt>
      <trkpt lat="45.68959" lon="5.2805">
        <ele>341.8</ele>
        <time>2025-05-27T10:54:02Z</time>
      </trkpt>
      <trkpt lat="45.68958" lon="5.28049">
        <ele>342.2</ele>
        <time>2025-05-27T10:54:03Z</time>
      </trkpt>
      <trkpt lat="45.68957" lon="5.28048">
        <ele>342.4</ele>
        <time>2025-05-27T10:54:04Z</time>
      </trkpt>
      <trkpt lat="45.68956" lon="5.28048">
        <ele>342.4</ele>
        <time>2025-05-27T10:54:05Z</time>
      </trkpt>
      <trkpt lat="45.68955" lon="5.28047">
        <ele>342.8</ele>
        <time>2025-05-27T10:54:06Z</time>
      </trkpt>
      <trkpt lat="45.68954" lon="5.28046">
        <ele>342.8</ele>
        <time>2025-05-27T10:54:07Z</time>
      </trkpt>
      <trkpt lat="45.68953" lon="5.28045">
        <ele>342.8</ele>
        <time>2025-05-27T10:54:08Z</time>
      </trkpt>
      <trkpt lat="45.68951" lon="5.28044">
        <ele>343</ele>
        <time>2025-05-27T10:54:09Z</time>
      </trkpt>
      <trkpt lat="45.68949" lon="5.28043">
        <ele>343</ele>
        <time>2025-05-27T10:54:10Z</time>
      </trkpt>
      <trkpt lat="45.68947" lon="5.28041">
        <ele>343</ele>
        <time>2025-05-27T10:54:11Z</time>
      </trkpt>
      <trkpt lat="45.68946" lon="5.28039">
        <ele>343</ele>
        <time>2025-05-27T10:54:12Z</time>
      </trkpt>
      <trkpt lat="45.68944" lon="5.28038">
        <ele>343</ele>
        <time>2025-05-27T10:54:13Z</time>
      </trkpt>
      <trkpt lat="45.68943" lon="5.28037">
        <ele>343</ele>
        <time>2025-05-27T10:54:14Z</time>
      </trkpt>
      <trkpt lat="45.68941" lon="5.28035">
        <ele>343</ele>
        <time>2025-05-27T10:54:15Z</time>
      </trkpt>
      <trkpt lat="45.68939" lon="5.28032">
        <ele>342.8</ele>
        <time>2025-05-27T10:54:16Z</time>
      </trkpt>
      <trkpt lat="45.68934" lon="5.28028">
        <ele>342.8</ele>
        <time>2025-05-27T10:54:17Z</time>
      </trkpt>
      <trkpt lat="45.68933" lon="5.28025">
        <ele>342.8</ele>
        <time>2025-05-27T10:54:18Z</time>
      </trkpt>
      <trkpt lat="45.6893" lon="5.28022">
        <ele>342.8</ele>
        <time>2025-05-27T10:54:19Z</time>
      </trkpt>
      <trkpt lat="45.68929" lon="5.28019">
        <ele>342.8</ele>
        <time>2025-05-27T10:54:20Z</time>
      </trkpt>
      <trkpt lat="45.68927" lon="5.28017">
        <ele>342.8</ele>
        <time>2025-05-27T10:54:21Z</time>
      </trkpt>
      <trkpt lat="45.68922" lon="5.28015">
        <ele>342.8</ele>
        <time>2025-05-27T10:54:22Z</time>
      </trkpt>
      <trkpt lat="45.68919" lon="5.28012">
        <ele>342.8</ele>
        <time>2025-05-27T10:54:23Z</time>
      </trkpt>
      <trkpt lat="45.68915" lon="5.2801">
        <ele>342.8</ele>
        <time>2025-05-27T10:54:24Z</time>
      </trkpt>
      <trkpt lat="45.68912" lon="5.28007">
        <ele>343.6</ele>
        <time>2025-05-27T10:54:25Z</time>
      </trkpt>
      <trkpt lat="45.68909" lon="5.28002">
        <ele>343.6</ele>
        <time>2025-05-27T10:54:26Z</time>
      </trkpt>
      <trkpt lat="45.68905" lon="5.27999">
        <ele>343.8</ele>
        <time>2025-05-27T10:54:27Z</time>
      </trkpt>
      <trkpt lat="45.68902" lon="5.27996">
        <ele>343.8</ele>
        <time>2025-05-27T10:54:28Z</time>
      </trkpt>
      <trkpt lat="45.68899" lon="5.27994">
        <ele>344.2</ele>
        <time>2025-05-27T10:54:29Z</time>
      </trkpt>
      <trkpt lat="45.68896" lon="5.27991">
        <ele>344</ele>
        <time>2025-05-27T10:54:30Z</time>
      </trkpt>
      <trkpt lat="45.68893" lon="5.27987">
        <ele>344.2</ele>
        <time>2025-05-27T10:54:31Z</time>
      </trkpt>
      <trkpt lat="45.68891" lon="5.27984">
        <ele>344.2</ele>
        <time>2025-05-27T10:54:32Z</time>
      </trkpt>
      <trkpt lat="45.68891" lon="5.27981">
        <ele>344.2</ele>
        <time>2025-05-27T10:54:33Z</time>
      </trkpt>
      <trkpt lat="45.68889" lon="5.27978">
        <ele>344.6</ele>
        <time>2025-05-27T10:54:34Z</time>
      </trkpt>
      <trkpt lat="45.68887" lon="5.27973">
        <ele>344.6</ele>
        <time>2025-05-27T10:54:35Z</time>
      </trkpt>
      <trkpt lat="45.68884" lon="5.27969">
        <ele>344.6</ele>
        <time>2025-05-27T10:54:36Z</time>
      </trkpt>
      <trkpt lat="45.68882" lon="5.27966">
        <ele>344.6</ele>
        <time>2025-05-27T10:54:37Z</time>
      </trkpt>
      <trkpt lat="45.68879" lon="5.27962">
        <ele>344.6</ele>
        <time>2025-05-27T10:54:38Z</time>
      </trkpt>
      <trkpt lat="45.68876" lon="5.27959">
        <ele>344.6</ele>
        <time>2025-05-27T10:54:39Z</time>
      </trkpt>
      <trkpt lat="45.68872" lon="5.27958">
        <ele>344.6</ele>
        <time>2025-05-27T10:54:40Z</time>
      </trkpt>
      <trkpt lat="45.68873" lon="5.27949">
        <ele>344.6</ele>
        <time>2025-05-27T10:54:41Z</time>
      </trkpt>
      <trkpt lat="45.68871" lon="5.27945">
        <ele>344.6</ele>
        <time>2025-05-27T10:54:42Z</time>
      </trkpt>
      <trkpt lat="45.6887" lon="5.27938">
        <ele>345.2</ele>
        <time>2025-05-27T10:54:43Z</time>
      </trkpt>
      <trkpt lat="45.68868" lon="5.27932">
        <ele>345.2</ele>
        <time>2025-05-27T10:54:44Z</time>
      </trkpt>
      <trkpt lat="45.68866" lon="5.27929">
        <ele>345.2</ele>
        <time>2025-05-27T10:54:45Z</time>
      </trkpt>
      <trkpt lat="45.68864" lon="5.27925">
        <ele>345.2</ele>
        <time>2025-05-27T10:54:46Z</time>
      </trkpt>
      <trkpt lat="45.68861" lon="5.27922">
        <ele>345.2</ele>
        <time>2025-05-27T10:54:47Z</time>
      </trkpt>
      <trkpt lat="45.68858" lon="5.27919">
        <ele>345.6</ele>
        <time>2025-05-27T10:54:48Z</time>
      </trkpt>
      <trkpt lat="45.68855" lon="5.27915">
        <ele>345.8</ele>
        <time>2025-05-27T10:54:49Z</time>
      </trkpt>
      <trkpt lat="45.68851" lon="5.27911">
        <ele>346.4</ele>
        <time>2025-05-27T10:54:50Z</time>
      </trkpt>
      <trkpt lat="45.68849" lon="5.27908">
        <ele>346.4</ele>
        <time>2025-05-27T10:54:51Z</time>
      </trkpt>
      <trkpt lat="45.68846" lon="5.27904">
        <ele>346.4</ele>
        <time>2025-05-27T10:54:52Z</time>
      </trkpt>
      <trkpt lat="45.68844" lon="5.27899">
        <ele>346.6</ele>
        <time>2025-05-27T10:54:53Z</time>
      </trkpt>
      <trkpt lat="45.68842" lon="5.27895">
        <ele>346.6</ele>
        <time>2025-05-27T10:54:54Z</time>
      </trkpt>
      <trkpt lat="45.6884" lon="5.27891">
        <ele>346.8</ele>
        <time>2025-05-27T10:54:55Z</time>
      </trkpt>
      <trkpt lat="45.68837" lon="5.27887">
        <ele>346.8</ele>
        <time>2025-05-27T10:54:56Z</time>
      </trkpt>
      <trkpt lat="45.68835" lon="5.27884">
        <ele>347.2</ele>
        <time>2025-05-27T10:54:57Z</time>
      </trkpt>
      <trkpt lat="45.68833" lon="5.2788">
        <ele>347.2</ele>
        <time>2025-05-27T10:54:58Z</time>
      </trkpt>
      <trkpt lat="45.68831" lon="5.27876">
        <ele>347.6</ele>
        <time>2025-05-27T10:54:59Z</time>
      </trkpt>
      <trkpt lat="45.68829" lon="5.27873">
        <ele>347.6</ele>
        <time>2025-05-27T10:55:00Z</time>
      </trkpt>
      <trkpt lat="45.68826" lon="5.27869">
        <ele>347.6</ele>
        <time>2025-05-27T10:55:01Z</time>
      </trkpt>
      <trkpt lat="45.68825" lon="5.27867">
        <ele>348</ele>
        <time>2025-05-27T10:55:02Z</time>
      </trkpt>
      <trkpt lat="45.68823" lon="5.27865">
        <ele>348</ele>
        <time>2025-05-27T10:55:03Z</time>
      </trkpt>
      <trkpt lat="45.68822" lon="5.27863">
        <ele>348.2</ele>
        <time>2025-05-27T10:55:04Z</time>
      </trkpt>
      <trkpt lat="45.6882" lon="5.2786">
        <ele>348.2</ele>
        <time>2025-05-27T10:55:05Z</time>
      </trkpt>
      <trkpt lat="45.68818" lon="5.27858">
        <ele>348.2</ele>
        <time>2025-05-27T10:55:06Z</time>
      </trkpt>
      <trkpt lat="45.68816" lon="5.27855">
        <ele>348.8</ele>
        <time>2025-05-27T10:55:07Z</time>
      </trkpt>
      <trkpt lat="45.68814" lon="5.27853">
        <ele>349.2</ele>
        <time>2025-05-27T10:55:08Z</time>
      </trkpt>
      <trkpt lat="45.68812" lon="5.27852">
        <ele>349.4</ele>
        <time>2025-05-27T10:55:09Z</time>
      </trkpt>
      <trkpt lat="45.68811" lon="5.27851">
        <ele>349.4</ele>
        <time>2025-05-27T10:55:10Z</time>
      </trkpt>
      <trkpt lat="45.68809" lon="5.2785">
        <ele>349.4</ele>
        <time>2025-05-27T10:55:11Z</time>
      </trkpt>
      <trkpt lat="45.68807" lon="5.27848">
        <ele>349.6</ele>
        <time>2025-05-27T10:55:12Z</time>
      </trkpt>
      <trkpt lat="45.68805" lon="5.27846">
        <ele>349.6</ele>
        <time>2025-05-27T10:55:13Z</time>
      </trkpt>
      <trkpt lat="45.68803" lon="5.27844">
        <ele>350</ele>
        <time>2025-05-27T10:55:14Z</time>
      </trkpt>
      <trkpt lat="45.68799" lon="5.2784">
        <ele>349.6</ele>
        <time>2025-05-27T10:55:15Z</time>
      </trkpt>
      <trkpt lat="45.68798" lon="5.27837">
        <ele>349.8</ele>
        <time>2025-05-27T10:55:16Z</time>
      </trkpt>
      <trkpt lat="45.68797" lon="5.27835">
        <ele>349.8</ele>
        <time>2025-05-27T10:55:17Z</time>
      </trkpt>
      <trkpt lat="45.68796" lon="5.27833">
        <ele>350</ele>
        <time>2025-05-27T10:55:18Z</time>
      </trkpt>
      <trkpt lat="45.68795" lon="5.27831">
        <ele>350.4</ele>
        <time>2025-05-27T10:55:19Z</time>
      </trkpt>
      <trkpt lat="45.68793" lon="5.27829">
        <ele>350.6</ele>
        <time>2025-05-27T10:55:20Z</time>
      </trkpt>
      <trkpt lat="45.68792" lon="5.27827">
        <ele>350.6</ele>
        <time>2025-05-27T10:55:21Z</time>
      </trkpt>
      <trkpt lat="45.6879" lon="5.27825">
        <ele>350.6</ele>
        <time>2025-05-27T10:55:22Z</time>
      </trkpt>
      <trkpt lat="45.6879" lon="5.27824">
        <ele>350.8</ele>
        <time>2025-05-27T10:55:23Z</time>
      </trkpt>
      <trkpt lat="45.68789" lon="5.27822">
        <ele>350.8</ele>
        <time>2025-05-27T10:55:24Z</time>
      </trkpt>
      <trkpt lat="45.68787" lon="5.27819">
        <ele>351.2</ele>
        <time>2025-05-27T10:55:25Z</time>
      </trkpt>
      <trkpt lat="45.68786" lon="5.27817">
        <ele>351.6</ele>
        <time>2025-05-27T10:55:26Z</time>
      </trkpt>
      <trkpt lat="45.68785" lon="5.27815">
        <ele>351.6</ele>
        <time>2025-05-27T10:55:27Z</time>
      </trkpt>
      <trkpt lat="45.68784" lon="5.27813">
        <ele>352</ele>
        <time>2025-05-27T10:55:28Z</time>
      </trkpt>
      <trkpt lat="45.68782" lon="5.27811">
        <ele>352</ele>
        <time>2025-05-27T10:55:29Z</time>
      </trkpt>
      <trkpt lat="45.68779" lon="5.27808">
        <ele>352</ele>
        <time>2025-05-27T10:55:30Z</time>
      </trkpt>
      <trkpt lat="45.68777" lon="5.27806">
        <ele>352</ele>
        <time>2025-05-27T10:55:31Z</time>
      </trkpt>
      <trkpt lat="45.68775" lon="5.27804">
        <ele>352.2</ele>
        <time>2025-05-27T10:55:32Z</time>
      </trkpt>
      <trkpt lat="45.68775" lon="5.27804">
        <ele>352.2</ele>
        <time>2025-05-27T10:55:33Z</time>
      </trkpt>
      <trkpt lat="45.68774" lon="5.27803">
        <ele>352.2</ele>
        <time>2025-05-27T10:55:34Z</time>
      </trkpt>
      <trkpt lat="45.68773" lon="5.27802">
        <ele>352.6</ele>
        <time>2025-05-27T10:55:35Z</time>
      </trkpt>
      <trkpt lat="45.68772" lon="5.27801">
        <ele>352.6</ele>
        <time>2025-05-27T10:55:36Z</time>
      </trkpt>
      <trkpt lat="45.68771" lon="5.27799">
        <ele>353</ele>
        <time>2025-05-27T10:55:37Z</time>
      </trkpt>
      <trkpt lat="45.68769" lon="5.27798">
        <ele>353</ele>
        <time>2025-05-27T10:55:38Z</time>
      </trkpt>
      <trkpt lat="45.68768" lon="5.27795">
        <ele>353</ele>
        <time>2025-05-27T10:55:39Z</time>
      </trkpt>
      <trkpt lat="45.68766" lon="5.27794">
        <ele>352</ele>
        <time>2025-05-27T10:55:40Z</time>
      </trkpt>
      <trkpt lat="45.68764" lon="5.27792">
        <ele>352</ele>
        <time>2025-05-27T10:55:41Z</time>
      </trkpt>
      <trkpt lat="45.68763" lon="5.27791">
        <ele>352.2</ele>
        <time>2025-05-27T10:55:42Z</time>
      </trkpt>
      <trkpt lat="45.68761" lon="5.2779">
        <ele>352.2</ele>
        <time>2025-05-27T10:55:43Z</time>
      </trkpt>
      <trkpt lat="45.6876" lon="5.27789">
        <ele>352.2</ele>
        <time>2025-05-27T10:55:44Z</time>
      </trkpt>
      <trkpt lat="45.68759" lon="5.27787">
        <ele>352.6</ele>
        <time>2025-05-27T10:55:45Z</time>
      </trkpt>
      <trkpt lat="45.68758" lon="5.27786">
        <ele>352.6</ele>
        <time>2025-05-27T10:55:46Z</time>
      </trkpt>
      <trkpt lat="45.68757" lon="5.27783">
        <ele>352.6</ele>
        <time>2025-05-27T10:55:47Z</time>
      </trkpt>
      <trkpt lat="45.68755" lon="5.27781">
        <ele>352.6</ele>
        <time>2025-05-27T10:55:48Z</time>
      </trkpt>
      <trkpt lat="45.68753" lon="5.27779">
        <ele>352.6</ele>
        <time>2025-05-27T10:55:49Z</time>
      </trkpt>
      <trkpt lat="45.68751" lon="5.27778">
        <ele>353</ele>
        <time>2025-05-27T10:55:50Z</time>
      </trkpt>
      <trkpt lat="45.68749" lon="5.27776">
        <ele>353</ele>
        <time>2025-05-27T10:55:51Z</time>
      </trkpt>
      <trkpt lat="45.68747" lon="5.27773">
        <ele>353</ele>
        <time>2025-05-27T10:55:52Z</time>
      </trkpt>
      <trkpt lat="45.68746" lon="5.2777">
        <ele>353.4</ele>
        <time>2025-05-27T10:55:53Z</time>
      </trkpt>
      <trkpt lat="45.68745" lon="5.27767">
        <ele>353.4</ele>
        <time>2025-05-27T10:55:54Z</time>
      </trkpt>
      <trkpt lat="45.68743" lon="5.27766">
        <ele>353</ele>
        <time>2025-05-27T10:55:55Z</time>
      </trkpt>
      <trkpt lat="45.68742" lon="5.27765">
        <ele>353.6</ele>
        <time>2025-05-27T10:55:56Z</time>
      </trkpt>
      <trkpt lat="45.68741" lon="5.27763">
        <ele>353.6</ele>
        <time>2025-05-27T10:55:57Z</time>
      </trkpt>
      <trkpt lat="45.68739" lon="5.2776">
        <ele>354.2</ele>
        <time>2025-05-27T10:55:58Z</time>
      </trkpt>
      <trkpt lat="45.68737" lon="5.27758">
        <ele>354.2</ele>
        <time>2025-05-27T10:55:59Z</time>
      </trkpt>
      <trkpt lat="45.68735" lon="5.27756">
        <ele>354.2</ele>
        <time>2025-05-27T10:56:00Z</time>
      </trkpt>
      <trkpt lat="45.68733" lon="5.27752">
        <ele>354.2</ele>
        <time>2025-05-27T10:56:01Z</time>
      </trkpt>
      <trkpt lat="45.68731" lon="5.27749">
        <ele>354.2</ele>
        <time>2025-05-27T10:56:02Z</time>
      </trkpt>
      <trkpt lat="45.68729" lon="5.27746">
        <ele>354.8</ele>
        <time>2025-05-27T10:56:03Z</time>
      </trkpt>
      <trkpt lat="45.68727" lon="5.27743">
        <ele>355</ele>
        <time>2025-05-27T10:56:04Z</time>
      </trkpt>
      <trkpt lat="45.68725" lon="5.2774">
        <ele>355</ele>
        <time>2025-05-27T10:56:05Z</time>
      </trkpt>
      <trkpt lat="45.68724" lon="5.27738">
        <ele>355.2</ele>
        <time>2025-05-27T10:56:06Z</time>
      </trkpt>
      <trkpt lat="45.68723" lon="5.27735">
        <ele>355.4</ele>
        <time>2025-05-27T10:56:07Z</time>
      </trkpt>
      <trkpt lat="45.68722" lon="5.27732">
        <ele>355.4</ele>
        <time>2025-05-27T10:56:08Z</time>
      </trkpt>
      <trkpt lat="45.6872" lon="5.27729">
        <ele>355.8</ele>
        <time>2025-05-27T10:56:09Z</time>
      </trkpt>
      <trkpt lat="45.68717" lon="5.27726">
        <ele>356</ele>
        <time>2025-05-27T10:56:10Z</time>
      </trkpt>
      <trkpt lat="45.68715" lon="5.27723">
        <ele>356</ele>
        <time>2025-05-27T10:56:11Z</time>
      </trkpt>
      <trkpt lat="45.68713" lon="5.27721">
        <ele>356</ele>
        <time>2025-05-27T10:56:12Z</time>
      </trkpt>
      <trkpt lat="45.68711" lon="5.27718">
        <ele>356</ele>
        <time>2025-05-27T10:56:13Z</time>
      </trkpt>
      <trkpt lat="45.68708" lon="5.27715">
        <ele>356</ele>
        <time>2025-05-27T10:56:14Z</time>
      </trkpt>
      <trkpt lat="45.68706" lon="5.27712">
        <ele>356.4</ele>
        <time>2025-05-27T10:56:15Z</time>
      </trkpt>
      <trkpt lat="45.68704" lon="5.27709">
        <ele>356.4</ele>
        <time>2025-05-27T10:56:16Z</time>
      </trkpt>
      <trkpt lat="45.68702" lon="5.27702">
        <ele>356.4</ele>
        <time>2025-05-27T10:56:17Z</time>
      </trkpt>
      <trkpt lat="45.68701" lon="5.27699">
        <ele>356.4</ele>
        <time>2025-05-27T10:56:18Z</time>
      </trkpt>
      <trkpt lat="45.687" lon="5.27696">
        <ele>356.4</ele>
        <time>2025-05-27T10:56:19Z</time>
      </trkpt>
      <trkpt lat="45.68699" lon="5.27691">
        <ele>356.4</ele>
        <time>2025-05-27T10:56:20Z</time>
      </trkpt>
      <trkpt lat="45.68699" lon="5.27687">
        <ele>357.2</ele>
        <time>2025-05-27T10:56:21Z</time>
      </trkpt>
      <trkpt lat="45.68699" lon="5.27684">
        <ele>357.2</ele>
        <time>2025-05-27T10:56:22Z</time>
      </trkpt>
      <trkpt lat="45.687" lon="5.2768">
        <ele>357.2</ele>
        <time>2025-05-27T10:56:23Z</time>
      </trkpt>
      <trkpt lat="45.68701" lon="5.27676">
        <ele>357.4</ele>
        <time>2025-05-27T10:56:24Z</time>
      </trkpt>
      <trkpt lat="45.68701" lon="5.27673">
        <ele>357.4</ele>
        <time>2025-05-27T10:56:25Z</time>
      </trkpt>
      <trkpt lat="45.68701" lon="5.27669">
        <ele>357.6</ele>
        <time>2025-05-27T10:56:26Z</time>
      </trkpt>
      <trkpt lat="45.68701" lon="5.27669">
        <ele>357.8</ele>
        <time>2025-05-27T10:56:27Z</time>
      </trkpt>
      <trkpt lat="45.687" lon="5.27664">
        <ele>357.8</ele>
        <time>2025-05-27T10:56:28Z</time>
      </trkpt>
      <trkpt lat="45.687" lon="5.27661">
        <ele>358</ele>
        <time>2025-05-27T10:56:29Z</time>
      </trkpt>
      <trkpt lat="45.68699" lon="5.27657">
        <ele>358</ele>
        <time>2025-05-27T10:56:30Z</time>
      </trkpt>
      <trkpt lat="45.68698" lon="5.27653">
        <ele>358</ele>
        <time>2025-05-27T10:56:31Z</time>
      </trkpt>
      <trkpt lat="45.68697" lon="5.27649">
        <ele>358.4</ele>
        <time>2025-05-27T10:56:32Z</time>
      </trkpt>
      <trkpt lat="45.68696" lon="5.27645">
        <ele>358.4</ele>
        <time>2025-05-27T10:56:33Z</time>
      </trkpt>
      <trkpt lat="45.68696" lon="5.27641">
        <ele>358.4</ele>
        <time>2025-05-27T10:56:34Z</time>
      </trkpt>
      <trkpt lat="45.68695" lon="5.27638">
        <ele>358.6</ele>
        <time>2025-05-27T10:56:35Z</time>
      </trkpt>
      <trkpt lat="45.68695" lon="5.27633">
        <ele>358.6</ele>
        <time>2025-05-27T10:56:36Z</time>
      </trkpt>
      <trkpt lat="45.68695" lon="5.2763">
        <ele>358.6</ele>
        <time>2025-05-27T10:56:37Z</time>
      </trkpt>
      <trkpt lat="45.68695" lon="5.27628">
        <ele>358.4</ele>
        <time>2025-05-27T10:56:38Z</time>
      </trkpt>
      <trkpt lat="45.68695" lon="5.27625">
        <ele>358.4</ele>
        <time>2025-05-27T10:56:39Z</time>
      </trkpt>
      <trkpt lat="45.68696" lon="5.27624">
        <ele>358.4</ele>
        <time>2025-05-27T10:56:40Z</time>
      </trkpt>
      <trkpt lat="45.68698" lon="5.27623">
        <ele>359</ele>
        <time>2025-05-27T10:56:41Z</time>
      </trkpt>
      <trkpt lat="45.68701" lon="5.27623">
        <ele>359</ele>
        <time>2025-05-27T10:56:42Z</time>
      </trkpt>
      <trkpt lat="45.68704" lon="5.27626">
        <ele>359</ele>
        <time>2025-05-27T10:56:43Z</time>
      </trkpt>
      <trkpt lat="45.68706" lon="5.27629">
        <ele>359</ele>
        <time>2025-05-27T10:56:44Z</time>
      </trkpt>
      <trkpt lat="45.68708" lon="5.27632">
        <ele>359</ele>
        <time>2025-05-27T10:56:45Z</time>
      </trkpt>
      <trkpt lat="45.6871" lon="5.27634">
        <ele>358.8</ele>
        <time>2025-05-27T10:56:46Z</time>
      </trkpt>
      <trkpt lat="45.68713" lon="5.27636">
        <ele>358.8</ele>
        <time>2025-05-27T10:56:47Z</time>
      </trkpt>
      <trkpt lat="45.68715" lon="5.27638">
        <ele>358.8</ele>
        <time>2025-05-27T10:56:48Z</time>
      </trkpt>
      <trkpt lat="45.68716" lon="5.27639">
        <ele>359</ele>
        <time>2025-05-27T10:56:49Z</time>
      </trkpt>
      <trkpt lat="45.68718" lon="5.2764">
        <ele>359</ele>
        <time>2025-05-27T10:56:50Z</time>
      </trkpt>
      <trkpt lat="45.68719" lon="5.27641">
        <ele>359.4</ele>
        <time>2025-05-27T10:56:51Z</time>
      </trkpt>
      <trkpt lat="45.68721" lon="5.27641">
        <ele>359.8</ele>
        <time>2025-05-27T10:56:52Z</time>
      </trkpt>
      <trkpt lat="45.68724" lon="5.27642">
        <ele>359.8</ele>
        <time>2025-05-27T10:56:53Z</time>
      </trkpt>
      <trkpt lat="45.68725" lon="5.27643">
        <ele>360</ele>
        <time>2025-05-27T10:56:54Z</time>
      </trkpt>
      <trkpt lat="45.68726" lon="5.27645">
        <ele>360.2</ele>
        <time>2025-05-27T10:56:55Z</time>
      </trkpt>
      <trkpt lat="45.68727" lon="5.27646">
        <ele>360.2</ele>
        <time>2025-05-27T10:56:56Z</time>
      </trkpt>
      <trkpt lat="45.68728" lon="5.27646">
        <ele>360.8</ele>
        <time>2025-05-27T10:56:57Z</time>
      </trkpt>
      <trkpt lat="45.6873" lon="5.27647">
        <ele>360.8</ele>
        <time>2025-05-27T10:56:58Z</time>
      </trkpt>
      <trkpt lat="45.68732" lon="5.27648">
        <ele>360.8</ele>
        <time>2025-05-27T10:56:59Z</time>
      </trkpt>
      <trkpt lat="45.68734" lon="5.27649">
        <ele>361.2</ele>
        <time>2025-05-27T10:57:00Z</time>
      </trkpt>
      <trkpt lat="45.68737" lon="5.2765">
        <ele>361.6</ele>
        <time>2025-05-27T10:57:01Z</time>
      </trkpt>
      <trkpt lat="45.6874" lon="5.2765">
        <ele>361.6</ele>
        <time>2025-05-27T10:57:02Z</time>
      </trkpt>
      <trkpt lat="45.68742" lon="5.27649">
        <ele>361.8</ele>
        <time>2025-05-27T10:57:03Z</time>
      </trkpt>
      <trkpt lat="45.68745" lon="5.27649">
        <ele>362.4</ele>
        <time>2025-05-27T10:57:04Z</time>
      </trkpt>
      <trkpt lat="45.68747" lon="5.27648">
        <ele>362.4</ele>
        <time>2025-05-27T10:57:05Z</time>
      </trkpt>
      <trkpt lat="45.68749" lon="5.27648">
        <ele>362.8</ele>
        <time>2025-05-27T10:57:06Z</time>
      </trkpt>
      <trkpt lat="45.68752" lon="5.27648">
        <ele>362.8</ele>
        <time>2025-05-27T10:57:07Z</time>
      </trkpt>
      <trkpt lat="45.68754" lon="5.27649">
        <ele>363.2</ele>
        <time>2025-05-27T10:57:08Z</time>
      </trkpt>
      <trkpt lat="45.68754" lon="5.27649">
        <ele>363.2</ele>
        <time>2025-05-27T10:57:09Z</time>
      </trkpt>
      <trkpt lat="45.68754" lon="5.27648">
        <ele>363.2</ele>
        <time>2025-05-27T10:57:10Z</time>
      </trkpt>
      <trkpt lat="45.68755" lon="5.27648">
        <ele>363.6</ele>
        <time>2025-05-27T10:57:11Z</time>
      </trkpt>
      <trkpt lat="45.68756" lon="5.27648">
        <ele>363.8</ele>
        <time>2025-05-27T10:57:12Z</time>
      </trkpt>
      <trkpt lat="45.68758" lon="5.27648">
        <ele>364.2</ele>
        <time>2025-05-27T10:57:13Z</time>
      </trkpt>
      <trkpt lat="45.6876" lon="5.27648">
        <ele>364.2</ele>
        <time>2025-05-27T10:57:14Z</time>
      </trkpt>
      <trkpt lat="45.68762" lon="5.27648">
        <ele>364.6</ele>
        <time>2025-05-27T10:57:15Z</time>
      </trkpt>
      <trkpt lat="45.68764" lon="5.27648">
        <ele>364.8</ele>
        <time>2025-05-27T10:57:16Z</time>
      </trkpt>
      <trkpt lat="45.68765" lon="5.27648">
        <ele>364.8</ele>
        <time>2025-05-27T10:57:17Z</time>
      </trkpt>
      <trkpt lat="45.68767" lon="5.27649">
        <ele>365</ele>
        <time>2025-05-27T10:57:18Z</time>
      </trkpt>
      <trkpt lat="45.68768" lon="5.27649">
        <ele>365.2</ele>
        <time>2025-05-27T10:57:19Z</time>
      </trkpt>
      <trkpt lat="45.6877" lon="5.2765">
        <ele>365.8</ele>
        <time>2025-05-27T10:57:20Z</time>
      </trkpt>
      <trkpt lat="45.68772" lon="5.2765">
        <ele>366.2</ele>
        <time>2025-05-27T10:57:21Z</time>
      </trkpt>
      <trkpt lat="45.68773" lon="5.27651">
        <ele>366.6</ele>
        <time>2025-05-27T10:57:22Z</time>
      </trkpt>
      <trkpt lat="45.68775" lon="5.27652">
        <ele>366.8</ele>
        <time>2025-05-27T10:57:23Z</time>
      </trkpt>
      <trkpt lat="45.68776" lon="5.27653">
        <ele>366.8</ele>
        <time>2025-05-27T10:57:24Z</time>
      </trkpt>
      <trkpt lat="45.68777" lon="5.27654">
        <ele>367.2</ele>
        <time>2025-05-27T10:57:25Z</time>
      </trkpt>
      <trkpt lat="45.68778" lon="5.27654">
        <ele>367.4</ele>
        <time>2025-05-27T10:57:26Z</time>
      </trkpt>
      <trkpt lat="45.68779" lon="5.27655">
        <ele>368</ele>
        <time>2025-05-27T10:57:27Z</time>
      </trkpt>
      <trkpt lat="45.6878" lon="5.27656">
        <ele>368.2</ele>
        <time>2025-05-27T10:57:28Z</time>
      </trkpt>
      <trkpt lat="45.68781" lon="5.27657">
        <ele>368.2</ele>
        <time>2025-05-27T10:57:29Z</time>
      </trkpt>
      <trkpt lat="45.68782" lon="5.27658">
        <ele>368.2</ele>
        <time>2025-05-27T10:57:30Z</time>
      </trkpt>
      <trkpt lat="45.68782" lon="5.27659">
        <ele>368.6</ele>
        <time>2025-05-27T10:57:31Z</time>
      </trkpt>
      <trkpt lat="45.68783" lon="5.27661">
        <ele>368.6</ele>
        <time>2025-05-27T10:57:32Z</time>
      </trkpt>
      <trkpt lat="45.68784" lon="5.27662">
        <ele>369</ele>
        <time>2025-05-27T10:57:33Z</time>
      </trkpt>
      <trkpt lat="45.68785" lon="5.27663">
        <ele>369</ele>
        <time>2025-05-27T10:57:34Z</time>
      </trkpt>
      <trkpt lat="45.68786" lon="5.27664">
        <ele>369.4</ele>
        <time>2025-05-27T10:57:35Z</time>
      </trkpt>
      <trkpt lat="45.68787" lon="5.27666">
        <ele>369.4</ele>
        <time>2025-05-27T10:57:36Z</time>
      </trkpt>
      <trkpt lat="45.68788" lon="5.27667">
        <ele>369.6</ele>
        <time>2025-05-27T10:57:37Z</time>
      </trkpt>
      <trkpt lat="45.68789" lon="5.27668">
        <ele>369.6</ele>
        <time>2025-05-27T10:57:38Z</time>
      </trkpt>
      <trkpt lat="45.6879" lon="5.27668">
        <ele>369.6</ele>
        <time>2025-05-27T10:57:39Z</time>
      </trkpt>
      <trkpt lat="45.68791" lon="5.27669">
        <ele>370</ele>
        <time>2025-05-27T10:57:40Z</time>
      </trkpt>
      <trkpt lat="45.68793" lon="5.2767">
        <ele>370</ele>
        <time>2025-05-27T10:57:41Z</time>
      </trkpt>
      <trkpt lat="45.68794" lon="5.2767">
        <ele>370</ele>
        <time>2025-05-27T10:57:42Z</time>
      </trkpt>
      <trkpt lat="45.68796" lon="5.2767">
        <ele>370</ele>
        <time>2025-05-27T10:57:43Z</time>
      </trkpt>
      <trkpt lat="45.68797" lon="5.2767">
        <ele>370</ele>
        <time>2025-05-27T10:57:44Z</time>
      </trkpt>
      <trkpt lat="45.68798" lon="5.27671">
        <ele>370.4</ele>
        <time>2025-05-27T10:57:45Z</time>
      </trkpt>
      <trkpt lat="45.688" lon="5.27671">
        <ele>370.4</ele>
        <time>2025-05-27T10:57:46Z</time>
      </trkpt>
      <trkpt lat="45.68801" lon="5.27671">
        <ele>370.4</ele>
        <time>2025-05-27T10:57:47Z</time>
      </trkpt>
      <trkpt lat="45.68802" lon="5.27672">
        <ele>370.4</ele>
        <time>2025-05-27T10:57:48Z</time>
      </trkpt>
      <trkpt lat="45.68804" lon="5.27672">
        <ele>370.4</ele>
        <time>2025-05-27T10:57:49Z</time>
      </trkpt>
      <trkpt lat="45.68805" lon="5.27672">
        <ele>370.4</ele>
        <time>2025-05-27T10:57:50Z</time>
      </trkpt>
      <trkpt lat="45.68807" lon="5.27672">
        <ele>370.8</ele>
        <time>2025-05-27T10:57:51Z</time>
      </trkpt>
      <trkpt lat="45.68809" lon="5.27671">
        <ele>371</ele>
        <time>2025-05-27T10:57:52Z</time>
      </trkpt>
      <trkpt lat="45.68811" lon="5.27671">
        <ele>371</ele>
        <time>2025-05-27T10:57:53Z</time>
      </trkpt>
      <trkpt lat="45.68813" lon="5.27671">
        <ele>371</ele>
        <time>2025-05-27T10:57:54Z</time>
      </trkpt>
      <trkpt lat="45.68815" lon="5.27671">
        <ele>371.4</ele>
        <time>2025-05-27T10:57:55Z</time>
      </trkpt>
      <trkpt lat="45.68817" lon="5.2767">
        <ele>371.6</ele>
        <time>2025-05-27T10:57:56Z</time>
      </trkpt>
      <trkpt lat="45.68818" lon="5.27671">
        <ele>371.6</ele>
        <time>2025-05-27T10:57:57Z</time>
      </trkpt>
      <trkpt lat="45.68818" lon="5.27671">
        <ele>372</ele>
        <time>2025-05-27T10:57:58Z</time>
      </trkpt>
      <trkpt lat="45.6882" lon="5.27671">
        <ele>372</ele>
        <time>2025-05-27T10:57:59Z</time>
      </trkpt>
      <trkpt lat="45.68822" lon="5.27672">
        <ele>372.4</ele>
        <time>2025-05-27T10:58:00Z</time>
      </trkpt>
      <trkpt lat="45.68824" lon="5.27672">
        <ele>372.6</ele>
        <time>2025-05-27T10:58:01Z</time>
      </trkpt>
      <trkpt lat="45.68826" lon="5.27672">
        <ele>372.8</ele>
        <time>2025-05-27T10:58:02Z</time>
      </trkpt>
      <trkpt lat="45.68828" lon="5.27672">
        <ele>372.8</ele>
        <time>2025-05-27T10:58:03Z</time>
      </trkpt>
      <trkpt lat="45.68829" lon="5.27673">
        <ele>373</ele>
        <time>2025-05-27T10:58:04Z</time>
      </trkpt>
      <trkpt lat="45.68831" lon="5.27673">
        <ele>373</ele>
        <time>2025-05-27T10:58:05Z</time>
      </trkpt>
      <trkpt lat="45.68832" lon="5.27674">
        <ele>373.4</ele>
        <time>2025-05-27T10:58:06Z</time>
      </trkpt>
      <trkpt lat="45.68834" lon="5.27675">
        <ele>373.4</ele>
        <time>2025-05-27T10:58:07Z</time>
      </trkpt>
      <trkpt lat="45.68835" lon="5.27675">
        <ele>373.8</ele>
        <time>2025-05-27T10:58:08Z</time>
      </trkpt>
      <trkpt lat="45.68836" lon="5.27676">
        <ele>373.8</ele>
        <time>2025-05-27T10:58:09Z</time>
      </trkpt>
      <trkpt lat="45.68838" lon="5.27677">
        <ele>373.8</ele>
        <time>2025-05-27T10:58:10Z</time>
      </trkpt>
      <trkpt lat="45.68839" lon="5.27677">
        <ele>374</ele>
        <time>2025-05-27T10:58:11Z</time>
      </trkpt>
      <trkpt lat="45.68841" lon="5.27678">
        <ele>374.4</ele>
        <time>2025-05-27T10:58:12Z</time>
      </trkpt>
      <trkpt lat="45.68842" lon="5.27679">
        <ele>374.6</ele>
        <time>2025-05-27T10:58:13Z</time>
      </trkpt>
      <trkpt lat="45.68843" lon="5.2768">
        <ele>374.6</ele>
        <time>2025-05-27T10:58:14Z</time>
      </trkpt>
      <trkpt lat="45.68844" lon="5.27682">
        <ele>374.6</ele>
        <time>2025-05-27T10:58:15Z</time>
      </trkpt>
      <trkpt lat="45.68845" lon="5.27685">
        <ele>374.8</ele>
        <time>2025-05-27T10:58:16Z</time>
      </trkpt>
      <trkpt lat="45.68846" lon="5.27686">
        <ele>375.2</ele>
        <time>2025-05-27T10:58:17Z</time>
      </trkpt>
      <trkpt lat="45.68848" lon="5.27686">
        <ele>375.2</ele>
        <time>2025-05-27T10:58:18Z</time>
      </trkpt>
      <trkpt lat="45.6885" lon="5.27688">
        <ele>375.2</ele>
        <time>2025-05-27T10:58:19Z</time>
      </trkpt>
      <trkpt lat="45.68852" lon="5.27689">
        <ele>375.2</ele>
        <time>2025-05-27T10:58:20Z</time>
      </trkpt>
      <trkpt lat="45.68854" lon="5.27691">
        <ele>375.4</ele>
        <time>2025-05-27T10:58:21Z</time>
      </trkpt>
      <trkpt lat="45.68856" lon="5.27692">
        <ele>375.4</ele>
        <time>2025-05-27T10:58:22Z</time>
      </trkpt>
      <trkpt lat="45.68859" lon="5.27693">
        <ele>375.4</ele>
        <time>2025-05-27T10:58:23Z</time>
      </trkpt>
      <trkpt lat="45.68861" lon="5.27695">
        <ele>375.4</ele>
        <time>2025-05-27T10:58:24Z</time>
      </trkpt>
      <trkpt lat="45.68863" lon="5.27696">
        <ele>375.4</ele>
        <time>2025-05-27T10:58:25Z</time>
      </trkpt>
      <trkpt lat="45.68866" lon="5.27698">
        <ele>375.6</ele>
        <time>2025-05-27T10:58:26Z</time>
      </trkpt>
      <trkpt lat="45.68868" lon="5.277">
        <ele>375.6</ele>
        <time>2025-05-27T10:58:27Z</time>
      </trkpt>
      <trkpt lat="45.68871" lon="5.27701">
        <ele>375.4</ele>
        <time>2025-05-27T10:58:28Z</time>
      </trkpt>
      <trkpt lat="45.68873" lon="5.27703">
        <ele>375.4</ele>
        <time>2025-05-27T10:58:29Z</time>
      </trkpt>
      <trkpt lat="45.68874" lon="5.27704">
        <ele>375.6</ele>
        <time>2025-05-27T10:58:30Z</time>
      </trkpt>
      <trkpt lat="45.68876" lon="5.27705">
        <ele>375.6</ele>
        <time>2025-05-27T10:58:31Z</time>
      </trkpt>
      <trkpt lat="45.68877" lon="5.27706">
        <ele>375.2</ele>
        <time>2025-05-27T10:58:32Z</time>
      </trkpt>
      <trkpt lat="45.68879" lon="5.27706">
        <ele>375.6</ele>
        <time>2025-05-27T10:58:33Z</time>
      </trkpt>
      <trkpt lat="45.68882" lon="5.27706">
        <ele>375.2</ele>
        <time>2025-05-27T10:58:34Z</time>
      </trkpt>
      <trkpt lat="45.68884" lon="5.27706">
        <ele>375.2</ele>
        <time>2025-05-27T10:58:35Z</time>
      </trkpt>
      <trkpt lat="45.68886" lon="5.27706">
        <ele>375.2</ele>
        <time>2025-05-27T10:58:36Z</time>
      </trkpt>
      <trkpt lat="45.68888" lon="5.27706">
        <ele>375.2</ele>
        <time>2025-05-27T10:58:37Z</time>
      </trkpt>
      <trkpt lat="45.68891" lon="5.27707">
        <ele>374.8</ele>
        <time>2025-05-27T10:58:38Z</time>
      </trkpt>
      <trkpt lat="45.68893" lon="5.27708">
        <ele>374.8</ele>
        <time>2025-05-27T10:58:39Z</time>
      </trkpt>
      <trkpt lat="45.68896" lon="5.27708">
        <ele>374.8</ele>
        <time>2025-05-27T10:58:40Z</time>
      </trkpt>
      <trkpt lat="45.68899" lon="5.27709">
        <ele>374.8</ele>
        <time>2025-05-27T10:58:41Z</time>
      </trkpt>
      <trkpt lat="45.68901" lon="5.27707">
        <ele>375.4</ele>
        <time>2025-05-27T10:58:42Z</time>
      </trkpt>
      <trkpt lat="45.68904" lon="5.27704">
        <ele>375.6</ele>
        <time>2025-05-27T10:58:43Z</time>
      </trkpt>
      <trkpt lat="45.68906" lon="5.27702">
        <ele>375.6</ele>
        <time>2025-05-27T10:58:44Z</time>
      </trkpt>
      <trkpt lat="45.68907" lon="5.277">
        <ele>375.8</ele>
        <time>2025-05-27T10:58:45Z</time>
      </trkpt>
      <trkpt lat="45.68908" lon="5.27698">
        <ele>375.8</ele>
        <time>2025-05-27T10:58:46Z</time>
      </trkpt>
      <trkpt lat="45.6891" lon="5.27695">
        <ele>376</ele>
        <time>2025-05-27T10:58:47Z</time>
      </trkpt>
      <trkpt lat="45.68912" lon="5.27692">
        <ele>376</ele>
        <time>2025-05-27T10:58:48Z</time>
      </trkpt>
      <trkpt lat="45.68913" lon="5.27689">
        <ele>376.4</ele>
        <time>2025-05-27T10:58:49Z</time>
      </trkpt>
      <trkpt lat="45.68915" lon="5.27687">
        <ele>376.6</ele>
        <time>2025-05-27T10:58:50Z</time>
      </trkpt>
      <trkpt lat="45.68916" lon="5.27684">
        <ele>377</ele>
        <time>2025-05-27T10:58:51Z</time>
      </trkpt>
      <trkpt lat="45.68918" lon="5.27681">
        <ele>377</ele>
        <time>2025-05-27T10:58:52Z</time>
      </trkpt>
      <trkpt lat="45.6892" lon="5.27679">
        <ele>377.4</ele>
        <time>2025-05-27T10:58:53Z</time>
      </trkpt>
      <trkpt lat="45.68922" lon="5.27677">
        <ele>377.4</ele>
        <time>2025-05-27T10:58:54Z</time>
      </trkpt>
      <trkpt lat="45.68924" lon="5.27676">
        <ele>377.4</ele>
        <time>2025-05-27T10:58:55Z</time>
      </trkpt>
      <trkpt lat="45.68925" lon="5.27675">
        <ele>377.6</ele>
        <time>2025-05-27T10:58:56Z</time>
      </trkpt>
      <trkpt lat="45.68926" lon="5.27674">
        <ele>377.6</ele>
        <time>2025-05-27T10:58:57Z</time>
      </trkpt>
      <trkpt lat="45.68928" lon="5.27673">
        <ele>378</ele>
        <time>2025-05-27T10:58:58Z</time>
      </trkpt>
      <trkpt lat="45.68929" lon="5.27672">
        <ele>378.4</ele>
        <time>2025-05-27T10:58:59Z</time>
      </trkpt>
      <trkpt lat="45.68931" lon="5.27671">
        <ele>378.4</ele>
        <time>2025-05-27T10:59:00Z</time>
      </trkpt>
      <trkpt lat="45.68932" lon="5.27669">
        <ele>378.8</ele>
        <time>2025-05-27T10:59:01Z</time>
      </trkpt>
      <trkpt lat="45.68933" lon="5.27667">
        <ele>379.2</ele>
        <time>2025-05-27T10:59:02Z</time>
      </trkpt>
      <trkpt lat="45.68935" lon="5.27665">
        <ele>379.2</ele>
        <time>2025-05-27T10:59:03Z</time>
      </trkpt>
      <trkpt lat="45.68936" lon="5.27664">
        <ele>379.6</ele>
        <time>2025-05-27T10:59:04Z</time>
      </trkpt>
      <trkpt lat="45.68937" lon="5.27664">
        <ele>379.6</ele>
        <time>2025-05-27T10:59:05Z</time>
      </trkpt>
      <trkpt lat="45.6894" lon="5.27663">
        <ele>380</ele>
        <time>2025-05-27T10:59:06Z</time>
      </trkpt>
      <trkpt lat="45.68942" lon="5.27662">
        <ele>380.6</ele>
        <time>2025-05-27T10:59:07Z</time>
      </trkpt>
      <trkpt lat="45.68944" lon="5.27661">
        <ele>380.6</ele>
        <time>2025-05-27T10:59:08Z</time>
      </trkpt>
      <trkpt lat="45.68945" lon="5.27661">
        <ele>381.2</ele>
        <time>2025-05-27T10:59:09Z</time>
      </trkpt>
      <trkpt lat="45.68946" lon="5.27661">
        <ele>381.6</ele>
        <time>2025-05-27T10:59:10Z</time>
      </trkpt>
      <trkpt lat="45.68946" lon="5.2766">
        <ele>382</ele>
        <time>2025-05-27T10:59:11Z</time>
      </trkpt>
      <trkpt lat="45.68947" lon="5.2766">
        <ele>382</ele>
        <time>2025-05-27T10:59:12Z</time>
      </trkpt>
      <trkpt lat="45.68947" lon="5.27659">
        <ele>382.4</ele>
        <time>2025-05-27T10:59:13Z</time>
      </trkpt>
      <trkpt lat="45.68948" lon="5.2766">
        <ele>382.6</ele>
        <time>2025-05-27T10:59:14Z</time>
      </trkpt>
      <trkpt lat="45.6895" lon="5.27661">
        <ele>382.6</ele>
        <time>2025-05-27T10:59:15Z</time>
      </trkpt>
      <trkpt lat="45.6895" lon="5.27661">
        <ele>382.6</ele>
        <time>2025-05-27T10:59:16Z</time>
      </trkpt>
      <trkpt lat="45.6895" lon="5.27661">
        <ele>383.2</ele>
        <time>2025-05-27T10:59:17Z</time>
      </trkpt>
      <trkpt lat="45.68956" lon="5.27664">
        <ele>383.4</ele>
        <time>2025-05-27T10:59:19Z</time>
      </trkpt>
      <trkpt lat="45.68957" lon="5.27664">
        <ele>382.8</ele>
        <time>2025-05-27T10:59:20Z</time>
      </trkpt>
      <trkpt lat="45.68959" lon="5.27664">
        <ele>383.2</ele>
        <time>2025-05-27T10:59:21Z</time>
      </trkpt>
      <trkpt lat="45.68961" lon="5.27662">
        <ele>383.2</ele>
        <time>2025-05-27T10:59:22Z</time>
      </trkpt>
      <trkpt lat="45.68963" lon="5.27661">
        <ele>383.2</ele>
        <time>2025-05-27T10:59:23Z</time>
      </trkpt>
      <trkpt lat="45.68965" lon="5.27659">
        <ele>383.4</ele>
        <time>2025-05-27T10:59:24Z</time>
      </trkpt>
      <trkpt lat="45.68966" lon="5.27658">
        <ele>383.4</ele>
        <time>2025-05-27T10:59:25Z</time>
      </trkpt>
      <trkpt lat="45.68968" lon="5.27657">
        <ele>383.8</ele>
        <time>2025-05-27T10:59:26Z</time>
      </trkpt>
      <trkpt lat="45.6897" lon="5.27656">
        <ele>383.8</ele>
        <time>2025-05-27T10:59:27Z</time>
      </trkpt>
      <trkpt lat="45.68972" lon="5.27656">
        <ele>383.8</ele>
        <time>2025-05-27T10:59:28Z</time>
      </trkpt>
      <trkpt lat="45.68974" lon="5.27657">
        <ele>384</ele>
        <time>2025-05-27T10:59:29Z</time>
      </trkpt>
      <trkpt lat="45.68975" lon="5.27658">
        <ele>384.2</ele>
        <time>2025-05-27T10:59:30Z</time>
      </trkpt>
      <trkpt lat="45.68976" lon="5.27659">
        <ele>384.2</ele>
        <time>2025-05-27T10:59:31Z</time>
      </trkpt>
      <trkpt lat="45.68978" lon="5.27661">
        <ele>384.2</ele>
        <time>2025-05-27T10:59:32Z</time>
      </trkpt>
      <trkpt lat="45.68979" lon="5.27663">
        <ele>384.2</ele>
        <time>2025-05-27T10:59:33Z</time>
      </trkpt>
      <trkpt lat="45.6898" lon="5.27665">
        <ele>384.2</ele>
        <time>2025-05-27T10:59:34Z</time>
      </trkpt>
      <trkpt lat="45.68981" lon="5.27667">
        <ele>384.2</ele>
        <time>2025-05-27T10:59:35Z</time>
      </trkpt>
      <trkpt lat="45.68983" lon="5.27669">
        <ele>383.8</ele>
        <time>2025-05-27T10:59:36Z</time>
      </trkpt>
      <trkpt lat="45.68984" lon="5.27672">
        <ele>383.8</ele>
        <time>2025-05-27T10:59:37Z</time>
      </trkpt>
      <trkpt lat="45.68986" lon="5.27675">
        <ele>383.6</ele>
        <time>2025-05-27T10:59:38Z</time>
      </trkpt>
      <trkpt lat="45.68987" lon="5.27678">
        <ele>383.6</ele>
        <time>2025-05-27T10:59:39Z</time>
      </trkpt>
      <trkpt lat="45.68989" lon="5.27681">
        <ele>383.6</ele>
        <time>2025-05-27T10:59:40Z</time>
      </trkpt>
      <trkpt lat="45.6899" lon="5.27684">
        <ele>383.4</ele>
        <time>2025-05-27T10:59:41Z</time>
      </trkpt>
      <trkpt lat="45.68992" lon="5.27686">
        <ele>383.4</ele>
        <time>2025-05-27T10:59:42Z</time>
      </trkpt>
      <trkpt lat="45.68992" lon="5.27687">
        <ele>383.4</ele>
        <time>2025-05-27T10:59:43Z</time>
      </trkpt>
      <trkpt lat="45.68993" lon="5.27687">
        <ele>383.4</ele>
        <time>2025-05-27T10:59:44Z</time>
      </trkpt>
      <trkpt lat="45.68993" lon="5.27687">
        <ele>383.6</ele>
        <time>2025-05-27T10:59:45Z</time>
      </trkpt>
      <trkpt lat="45.68994" lon="5.27684">
        <ele>384.2</ele>
        <time>2025-05-27T11:04:04Z</time>
      </trkpt>
      <trkpt lat="45.68995" lon="5.27684">
        <ele>384.2</ele>
        <time>2025-05-27T11:04:05Z</time>
      </trkpt>
      <trkpt lat="45.68996" lon="5.27686">
        <ele>384.2</ele>
        <time>2025-05-27T11:04:06Z</time>
      </trkpt>
      <trkpt lat="45.68999" lon="5.27691">
        <ele>383.8</ele>
        <time>2025-05-27T11:04:07Z</time>
      </trkpt>
      <trkpt lat="45.69001" lon="5.27694">
        <ele>383.8</ele>
        <time>2025-05-27T11:04:08Z</time>
      </trkpt>
      <trkpt lat="45.69004" lon="5.27697">
        <ele>383.6</ele>
        <time>2025-05-27T11:04:09Z</time>
      </trkpt>
      <trkpt lat="45.69007" lon="5.27701">
        <ele>383.4</ele>
        <time>2025-05-27T11:04:10Z</time>
      </trkpt>
      <trkpt lat="45.6901" lon="5.27704">
        <ele>383.4</ele>
        <time>2025-05-27T11:04:11Z</time>
      </trkpt>
      <trkpt lat="45.69012" lon="5.27708">
        <ele>382.8</ele>
        <time>2025-05-27T11:04:12Z</time>
      </trkpt>
      <trkpt lat="45.69015" lon="5.27712">
        <ele>382.4</ele>
        <time>2025-05-27T11:04:13Z</time>
      </trkpt>
      <trkpt lat="45.69018" lon="5.27717">
        <ele>381.6</ele>
        <time>2025-05-27T11:04:14Z</time>
      </trkpt>
      <trkpt lat="45.6902" lon="5.2772">
        <ele>381.6</ele>
        <time>2025-05-27T11:04:15Z</time>
      </trkpt>
      <trkpt lat="45.69021" lon="5.27724">
        <ele>381.2</ele>
        <time>2025-05-27T11:04:16Z</time>
      </trkpt>
      <trkpt lat="45.69025" lon="5.27726">
        <ele>381.8</ele>
        <time>2025-05-27T11:04:17Z</time>
      </trkpt>
      <trkpt lat="45.69028" lon="5.27729">
        <ele>381.8</ele>
        <time>2025-05-27T11:04:18Z</time>
      </trkpt>
      <trkpt lat="45.69028" lon="5.27731">
        <ele>381.8</ele>
        <time>2025-05-27T11:04:19Z</time>
      </trkpt>
      <trkpt lat="45.69027" lon="5.27733">
        <ele>381.8</ele>
        <time>2025-05-27T11:04:20Z</time>
      </trkpt>
      <trkpt lat="45.6903" lon="5.27733">
        <ele>381.8</ele>
        <time>2025-05-27T11:04:21Z</time>
      </trkpt>
      <trkpt lat="45.69033" lon="5.27734">
        <ele>381.2</ele>
        <time>2025-05-27T11:04:22Z</time>
      </trkpt>
      <trkpt lat="45.69037" lon="5.27733">
        <ele>381.2</ele>
        <time>2025-05-27T11:04:23Z</time>
      </trkpt>
      <trkpt lat="45.69037" lon="5.27733">
        <ele>381.2</ele>
        <time>2025-05-27T11:04:24Z</time>
      </trkpt>
      <trkpt lat="45.69039" lon="5.27733">
        <ele>381.2</ele>
        <time>2025-05-27T11:04:25Z</time>
      </trkpt>
      <trkpt lat="45.69042" lon="5.27733">
        <ele>381.2</ele>
        <time>2025-05-27T11:04:26Z</time>
      </trkpt>
      <trkpt lat="45.69046" lon="5.27732">
        <ele>381.2</ele>
        <time>2025-05-27T11:04:27Z</time>
      </trkpt>
      <trkpt lat="45.69049" lon="5.2773">
        <ele>381.8</ele>
        <time>2025-05-27T11:04:28Z</time>
      </trkpt>
      <trkpt lat="45.69053" lon="5.27729">
        <ele>381.8</ele>
        <time>2025-05-27T11:04:29Z</time>
      </trkpt>
      <trkpt lat="45.69057" lon="5.27727">
        <ele>382.2</ele>
        <time>2025-05-27T11:04:30Z</time>
      </trkpt>
      <trkpt lat="45.6906" lon="5.27725">
        <ele>382.2</ele>
        <time>2025-05-27T11:04:31Z</time>
      </trkpt>
      <trkpt lat="45.69063" lon="5.27722">
        <ele>382</ele>
        <time>2025-05-27T11:04:32Z</time>
      </trkpt>
      <trkpt lat="45.69066" lon="5.27719">
        <ele>381.2</ele>
        <time>2025-05-27T11:04:33Z</time>
      </trkpt>
      <trkpt lat="45.6907" lon="5.27716">
        <ele>381.4</ele>
        <time>2025-05-27T11:04:34Z</time>
      </trkpt>
      <trkpt lat="45.69073" lon="5.27713">
        <ele>381.4</ele>
        <time>2025-05-27T11:04:35Z</time>
      </trkpt>
      <trkpt lat="45.69077" lon="5.27711">
        <ele>381.2</ele>
        <time>2025-05-27T11:04:36Z</time>
      </trkpt>
      <trkpt lat="45.6908" lon="5.2771">
        <ele>380.4</ele>
        <time>2025-05-27T11:04:37Z</time>
      </trkpt>
      <trkpt lat="45.69084" lon="5.27709">
        <ele>380.4</ele>
        <time>2025-05-27T11:04:38Z</time>
      </trkpt>
      <trkpt lat="45.69087" lon="5.27707">
        <ele>380.2</ele>
        <time>2025-05-27T11:04:39Z</time>
      </trkpt>
      <trkpt lat="45.6909" lon="5.27706">
        <ele>380.2</ele>
        <time>2025-05-27T11:04:40Z</time>
      </trkpt>
      <trkpt lat="45.69096" lon="5.27703">
        <ele>380.2</ele>
        <time>2025-05-27T11:04:41Z</time>
      </trkpt>
      <trkpt lat="45.69099" lon="5.27702">
        <ele>380.2</ele>
        <time>2025-05-27T11:04:42Z</time>
      </trkpt>
      <trkpt lat="45.69101" lon="5.27702">
        <ele>380.4</ele>
        <time>2025-05-27T11:04:43Z</time>
      </trkpt>
      <trkpt lat="45.69103" lon="5.277">
        <ele>380.4</ele>
        <time>2025-05-27T11:04:44Z</time>
      </trkpt>
      <trkpt lat="45.69106" lon="5.27697">
        <ele>380.4</ele>
        <time>2025-05-27T11:04:45Z</time>
      </trkpt>
      <trkpt lat="45.69109" lon="5.27695">
        <ele>380.4</ele>
        <time>2025-05-27T11:04:46Z</time>
      </trkpt>
      <trkpt lat="45.69111" lon="5.27692">
        <ele>380.6</ele>
        <time>2025-05-27T11:04:47Z</time>
      </trkpt>
      <trkpt lat="45.69112" lon="5.2769">
        <ele>380.6</ele>
        <time>2025-05-27T11:04:48Z</time>
      </trkpt>
      <trkpt lat="45.69115" lon="5.27688">
        <ele>380.2</ele>
        <time>2025-05-27T11:04:49Z</time>
      </trkpt>
      <trkpt lat="45.69118" lon="5.27686">
        <ele>380.4</ele>
        <time>2025-05-27T11:04:50Z</time>
      </trkpt>
      <trkpt lat="45.69121" lon="5.27684">
        <ele>381</ele>
        <time>2025-05-27T11:04:51Z</time>
      </trkpt>
      <trkpt lat="45.69123" lon="5.2768">
        <ele>381</ele>
        <time>2025-05-27T11:04:52Z</time>
      </trkpt>
      <trkpt lat="45.69123" lon="5.27678">
        <ele>380.6</ele>
        <time>2025-05-27T11:04:53Z</time>
      </trkpt>
      <trkpt lat="45.69122" lon="5.27676">
        <ele>381</ele>
        <time>2025-05-27T11:04:54Z</time>
      </trkpt>
      <trkpt lat="45.69121" lon="5.27673">
        <ele>380.6</ele>
        <time>2025-05-27T11:04:55Z</time>
      </trkpt>
      <trkpt lat="45.69119" lon="5.2767">
        <ele>380.8</ele>
        <time>2025-05-27T11:04:56Z</time>
      </trkpt>
      <trkpt lat="45.69118" lon="5.27668">
        <ele>380.8</ele>
        <time>2025-05-27T11:04:57Z</time>
      </trkpt>
      <trkpt lat="45.69117" lon="5.27665">
        <ele>381.2</ele>
        <time>2025-05-27T11:04:58Z</time>
      </trkpt>
      <trkpt lat="45.69115" lon="5.27662">
        <ele>381.2</ele>
        <time>2025-05-27T11:04:59Z</time>
      </trkpt>
      <trkpt lat="45.69112" lon="5.27659">
        <ele>381.2</ele>
        <time>2025-05-27T11:05:00Z</time>
      </trkpt>
      <trkpt lat="45.69109" lon="5.27657">
        <ele>381.2</ele>
        <time>2025-05-27T11:05:01Z</time>
      </trkpt>
      <trkpt lat="45.69106" lon="5.27655">
        <ele>381.2</ele>
        <time>2025-05-27T11:05:02Z</time>
      </trkpt>
      <trkpt lat="45.69101" lon="5.27653">
        <ele>381.6</ele>
        <time>2025-05-27T11:05:03Z</time>
      </trkpt>
      <trkpt lat="45.69098" lon="5.27649">
        <ele>381.8</ele>
        <time>2025-05-27T11:05:04Z</time>
      </trkpt>
      <trkpt lat="45.69095" lon="5.27644">
        <ele>381.8</ele>
        <time>2025-05-27T11:05:05Z</time>
      </trkpt>
      <trkpt lat="45.69095" lon="5.27641">
        <ele>381.2</ele>
        <time>2025-05-27T11:05:06Z</time>
      </trkpt>
      <trkpt lat="45.69091" lon="5.27638">
        <ele>380.4</ele>
        <time>2025-05-27T11:05:07Z</time>
      </trkpt>
      <trkpt lat="45.6909" lon="5.27636">
        <ele>380</ele>
        <time>2025-05-27T11:05:08Z</time>
      </trkpt>
      <trkpt lat="45.69089" lon="5.27634">
        <ele>380.8</ele>
        <time>2025-05-27T11:05:09Z</time>
      </trkpt>
      <trkpt lat="45.69087" lon="5.27629">
        <ele>379.2</ele>
        <time>2025-05-27T11:05:10Z</time>
      </trkpt>
      <trkpt lat="45.69086" lon="5.27624">
        <ele>378.8</ele>
        <time>2025-05-27T11:05:11Z</time>
      </trkpt>
      <trkpt lat="45.69085" lon="5.27619">
        <ele>378.4</ele>
        <time>2025-05-27T11:05:12Z</time>
      </trkpt>
      <trkpt lat="45.69089" lon="5.27615">
        <ele>377.8</ele>
        <time>2025-05-27T11:05:13Z</time>
      </trkpt>
      <trkpt lat="45.69089" lon="5.27611">
        <ele>377.4</ele>
        <time>2025-05-27T11:05:14Z</time>
      </trkpt>
      <trkpt lat="45.69088" lon="5.27608">
        <ele>376.8</ele>
        <time>2025-05-27T11:05:15Z</time>
      </trkpt>
      <trkpt lat="45.69088" lon="5.27606">
        <ele>376.6</ele>
        <time>2025-05-27T11:05:16Z</time>
      </trkpt>
      <trkpt lat="45.69088" lon="5.27602">
        <ele>376.2</ele>
        <time>2025-05-27T11:05:17Z</time>
      </trkpt>
      <trkpt lat="45.6909" lon="5.27598">
        <ele>375.4</ele>
        <time>2025-05-27T11:05:18Z</time>
      </trkpt>
      <trkpt lat="45.69093" lon="5.27594">
        <ele>375.8</ele>
        <time>2025-05-27T11:05:19Z</time>
      </trkpt>
      <trkpt lat="45.69095" lon="5.2759">
        <ele>375.2</ele>
        <time>2025-05-27T11:05:20Z</time>
      </trkpt>
      <trkpt lat="45.69096" lon="5.27584">
        <ele>374.2</ele>
        <time>2025-05-27T11:05:21Z</time>
      </trkpt>
      <trkpt lat="45.69098" lon="5.27578">
        <ele>373</ele>
        <time>2025-05-27T11:05:22Z</time>
      </trkpt>
      <trkpt lat="45.691" lon="5.27572">
        <ele>371.6</ele>
        <time>2025-05-27T11:05:23Z</time>
      </trkpt>
      <trkpt lat="45.69104" lon="5.27561">
        <ele>372</ele>
        <time>2025-05-27T11:05:24Z</time>
      </trkpt>
      <trkpt lat="45.69107" lon="5.27556">
        <ele>371.6</ele>
        <time>2025-05-27T11:05:25Z</time>
      </trkpt>
      <trkpt lat="45.69111" lon="5.27554">
        <ele>371.2</ele>
        <time>2025-05-27T11:05:26Z</time>
      </trkpt>
      <trkpt lat="45.69112" lon="5.27551">
        <ele>371.4</ele>
        <time>2025-05-27T11:05:27Z</time>
      </trkpt>
      <trkpt lat="45.69115" lon="5.27545">
        <ele>371.4</ele>
        <time>2025-05-27T11:05:28Z</time>
      </trkpt>
      <trkpt lat="45.69119" lon="5.27541">
        <ele>371.6</ele>
        <time>2025-05-27T11:05:29Z</time>
      </trkpt>
      <trkpt lat="45.69122" lon="5.27537">
        <ele>371.6</ele>
        <time>2025-05-27T11:05:30Z</time>
      </trkpt>
      <trkpt lat="45.69125" lon="5.27531">
        <ele>371.8</ele>
        <time>2025-05-27T11:05:31Z</time>
      </trkpt>
      <trkpt lat="45.6913" lon="5.27527">
        <ele>372.2</ele>
        <time>2025-05-27T11:05:32Z</time>
      </trkpt>
      <trkpt lat="45.69132" lon="5.27524">
        <ele>372.2</ele>
        <time>2025-05-27T11:05:33Z</time>
      </trkpt>
      <trkpt lat="45.69136" lon="5.2752">
        <ele>372.6</ele>
        <time>2025-05-27T11:05:34Z</time>
      </trkpt>
      <trkpt lat="45.69139" lon="5.27517">
        <ele>372.8</ele>
        <time>2025-05-27T11:05:35Z</time>
      </trkpt>
      <trkpt lat="45.69143" lon="5.27513">
        <ele>373</ele>
        <time>2025-05-27T11:05:36Z</time>
      </trkpt>
      <trkpt lat="45.69146" lon="5.27509">
        <ele>373</ele>
        <time>2025-05-27T11:05:37Z</time>
      </trkpt>
      <trkpt lat="45.69149" lon="5.27504">
        <ele>373.6</ele>
        <time>2025-05-27T11:05:38Z</time>
      </trkpt>
      <trkpt lat="45.69153" lon="5.275">
        <ele>373.6</ele>
        <time>2025-05-27T11:05:39Z</time>
      </trkpt>
      <trkpt lat="45.69155" lon="5.27496">
        <ele>373.6</ele>
        <time>2025-05-27T11:05:40Z</time>
      </trkpt>
      <trkpt lat="45.69159" lon="5.27493">
        <ele>373.6</ele>
        <time>2025-05-27T11:05:41Z</time>
      </trkpt>
      <trkpt lat="45.69162" lon="5.27488">
        <ele>373.6</ele>
        <time>2025-05-27T11:05:42Z</time>
      </trkpt>
      <trkpt lat="45.69165" lon="5.27484">
        <ele>373.6</ele>
        <time>2025-05-27T11:05:43Z</time>
      </trkpt>
      <trkpt lat="45.69166" lon="5.27479">
        <ele>373.6</ele>
        <time>2025-05-27T11:05:44Z</time>
      </trkpt>
      <trkpt lat="45.69169" lon="5.27474">
        <ele>373.8</ele>
        <time>2025-05-27T11:05:45Z</time>
      </trkpt>
      <trkpt lat="45.69171" lon="5.2747">
        <ele>373.8</ele>
        <time>2025-05-27T11:05:46Z</time>
      </trkpt>
      <trkpt lat="45.69174" lon="5.27465">
        <ele>373.8</ele>
        <time>2025-05-27T11:05:47Z</time>
      </trkpt>
      <trkpt lat="45.69179" lon="5.27463">
        <ele>373.8</ele>
        <time>2025-05-27T11:05:48Z</time>
      </trkpt>
      <trkpt lat="45.69182" lon="5.27461">
        <ele>374.2</ele>
        <time>2025-05-27T11:05:49Z</time>
      </trkpt>
      <trkpt lat="45.69184" lon="5.27459">
        <ele>374.2</ele>
        <time>2025-05-27T11:05:50Z</time>
      </trkpt>
      <trkpt lat="45.69187" lon="5.27456">
        <ele>374.2</ele>
        <time>2025-05-27T11:05:51Z</time>
      </trkpt>
      <trkpt lat="45.6919" lon="5.27455">
        <ele>374.2</ele>
        <time>2025-05-27T11:05:52Z</time>
      </trkpt>
      <trkpt lat="45.69193" lon="5.27455">
        <ele>374.8</ele>
        <time>2025-05-27T11:05:53Z</time>
      </trkpt>
      <trkpt lat="45.69195" lon="5.27455">
        <ele>375.2</ele>
        <time>2025-05-27T11:05:54Z</time>
      </trkpt>
      <trkpt lat="45.69197" lon="5.27456">
        <ele>375.8</ele>
        <time>2025-05-27T11:05:55Z</time>
      </trkpt>
      <trkpt lat="45.692" lon="5.27457">
        <ele>376</ele>
        <time>2025-05-27T11:05:56Z</time>
      </trkpt>
      <trkpt lat="45.69202" lon="5.27458">
        <ele>376.4</ele>
        <time>2025-05-27T11:05:57Z</time>
      </trkpt>
      <trkpt lat="45.69203" lon="5.27458">
        <ele>377</ele>
        <time>2025-05-27T11:05:58Z</time>
      </trkpt>
      <trkpt lat="45.69205" lon="5.27459">
        <ele>377</ele>
        <time>2025-05-27T11:05:59Z</time>
      </trkpt>
      <trkpt lat="45.69207" lon="5.27461">
        <ele>377.2</ele>
        <time>2025-05-27T11:06:00Z</time>
      </trkpt>
      <trkpt lat="45.69209" lon="5.27462">
        <ele>377.6</ele>
        <time>2025-05-27T11:06:01Z</time>
      </trkpt>
      <trkpt lat="45.69211" lon="5.27463">
        <ele>377.6</ele>
        <time>2025-05-27T11:06:02Z</time>
      </trkpt>
      <trkpt lat="45.69213" lon="5.27463">
        <ele>377.8</ele>
        <time>2025-05-27T11:06:03Z</time>
      </trkpt>
      <trkpt lat="45.69215" lon="5.27464">
        <ele>377.8</ele>
        <time>2025-05-27T11:06:04Z</time>
      </trkpt>
      <trkpt lat="45.69217" lon="5.27464">
        <ele>377.8</ele>
        <time>2025-05-27T11:06:05Z</time>
      </trkpt>
      <trkpt lat="45.6922" lon="5.27464">
        <ele>378</ele>
        <time>2025-05-27T11:06:06Z</time>
      </trkpt>
      <trkpt lat="45.69222" lon="5.27464">
        <ele>378.2</ele>
        <time>2025-05-27T11:06:07Z</time>
      </trkpt>
      <trkpt lat="45.69224" lon="5.27465">
        <ele>378.4</ele>
        <time>2025-05-27T11:06:08Z</time>
      </trkpt>
      <trkpt lat="45.69226" lon="5.27465">
        <ele>378.4</ele>
        <time>2025-05-27T11:06:09Z</time>
      </trkpt>
      <trkpt lat="45.69227" lon="5.27465">
        <ele>378.8</ele>
        <time>2025-05-27T11:06:10Z</time>
      </trkpt>
      <trkpt lat="45.6923" lon="5.27465">
        <ele>378.8</ele>
        <time>2025-05-27T11:06:11Z</time>
      </trkpt>
      <trkpt lat="45.69233" lon="5.27465">
        <ele>378.8</ele>
        <time>2025-05-27T11:06:12Z</time>
      </trkpt>
      <trkpt lat="45.69236" lon="5.27465">
        <ele>378.8</ele>
        <time>2025-05-27T11:06:13Z</time>
      </trkpt>
      <trkpt lat="45.69238" lon="5.27464">
        <ele>379.2</ele>
        <time>2025-05-27T11:06:14Z</time>
      </trkpt>
      <trkpt lat="45.69239" lon="5.27464">
        <ele>379.8</ele>
        <time>2025-05-27T11:06:15Z</time>
      </trkpt>
      <trkpt lat="45.6924" lon="5.27464">
        <ele>379.8</ele>
        <time>2025-05-27T11:06:16Z</time>
      </trkpt>
      <trkpt lat="45.69243" lon="5.27463">
        <ele>379.8</ele>
        <time>2025-05-27T11:06:17Z</time>
      </trkpt>
      <trkpt lat="45.69245" lon="5.27462">
        <ele>380</ele>
        <time>2025-05-27T11:06:18Z</time>
      </trkpt>
      <trkpt lat="45.69248" lon="5.27462">
        <ele>380.2</ele>
        <time>2025-05-27T11:06:19Z</time>
      </trkpt>
      <trkpt lat="45.69249" lon="5.27462">
        <ele>380.2</ele>
        <time>2025-05-27T11:06:20Z</time>
      </trkpt>
      <trkpt lat="45.6925" lon="5.27462">
        <ele>380.6</ele>
        <time>2025-05-27T11:06:21Z</time>
      </trkpt>
      <trkpt lat="45.6925" lon="5.27462">
        <ele>380.6</ele>
        <time>2025-05-27T11:06:22Z</time>
      </trkpt>
      <trkpt lat="45.69253" lon="5.27462">
        <ele>380.8</ele>
        <time>2025-05-27T11:06:23Z</time>
      </trkpt>
      <trkpt lat="45.69255" lon="5.27462">
        <ele>380.8</ele>
        <time>2025-05-27T11:06:24Z</time>
      </trkpt>
      <trkpt lat="45.69257" lon="5.27462">
        <ele>381</ele>
        <time>2025-05-27T11:06:25Z</time>
      </trkpt>
      <trkpt lat="45.69259" lon="5.27462">
        <ele>381</ele>
        <time>2025-05-27T11:06:26Z</time>
      </trkpt>
      <trkpt lat="45.69261" lon="5.27462">
        <ele>381</ele>
        <time>2025-05-27T11:06:27Z</time>
      </trkpt>
      <trkpt lat="45.69263" lon="5.27461">
        <ele>381.4</ele>
        <time>2025-05-27T11:06:28Z</time>
      </trkpt>
      <trkpt lat="45.69265" lon="5.27461">
        <ele>381.6</ele>
        <time>2025-05-27T11:06:29Z</time>
      </trkpt>
      <trkpt lat="45.69268" lon="5.2746">
        <ele>382.2</ele>
        <time>2025-05-27T11:06:30Z</time>
      </trkpt>
      <trkpt lat="45.69271" lon="5.2746">
        <ele>382.4</ele>
        <time>2025-05-27T11:06:31Z</time>
      </trkpt>
      <trkpt lat="45.69273" lon="5.2746">
        <ele>382.4</ele>
        <time>2025-05-27T11:06:32Z</time>
      </trkpt>
      <trkpt lat="45.69276" lon="5.2746">
        <ele>382.4</ele>
        <time>2025-05-27T11:06:33Z</time>
      </trkpt>
      <trkpt lat="45.69278" lon="5.27459">
        <ele>382.4</ele>
        <time>2025-05-27T11:06:34Z</time>
      </trkpt>
      <trkpt lat="45.69281" lon="5.27458">
        <ele>382.4</ele>
        <time>2025-05-27T11:06:35Z</time>
      </trkpt>
      <trkpt lat="45.69284" lon="5.27458">
        <ele>382.6</ele>
        <time>2025-05-27T11:06:36Z</time>
      </trkpt>
      <trkpt lat="45.69287" lon="5.27458">
        <ele>382.6</ele>
        <time>2025-05-27T11:06:37Z</time>
      </trkpt>
      <trkpt lat="45.69289" lon="5.27458">
        <ele>383</ele>
        <time>2025-05-27T11:06:38Z</time>
      </trkpt>
      <trkpt lat="45.69292" lon="5.27458">
        <ele>382.8</ele>
        <time>2025-05-27T11:06:39Z</time>
      </trkpt>
      <trkpt lat="45.69295" lon="5.27459">
        <ele>382.8</ele>
        <time>2025-05-27T11:06:40Z</time>
      </trkpt>
      <trkpt lat="45.69298" lon="5.27459">
        <ele>382.8</ele>
        <time>2025-05-27T11:06:41Z</time>
      </trkpt>
      <trkpt lat="45.69301" lon="5.27461">
        <ele>382.8</ele>
        <time>2025-05-27T11:06:42Z</time>
      </trkpt>
      <trkpt lat="45.69304" lon="5.27462">
        <ele>383</ele>
        <time>2025-05-27T11:06:43Z</time>
      </trkpt>
      <trkpt lat="45.69307" lon="5.27463">
        <ele>383</ele>
        <time>2025-05-27T11:06:44Z</time>
      </trkpt>
      <trkpt lat="45.6931" lon="5.27464">
        <ele>383</ele>
        <time>2025-05-27T11:06:45Z</time>
      </trkpt>
      <trkpt lat="45.69313" lon="5.27465">
        <ele>383</ele>
        <time>2025-05-27T11:06:46Z</time>
      </trkpt>
      <trkpt lat="45.69316" lon="5.27465">
        <ele>383</ele>
        <time>2025-05-27T11:06:47Z</time>
      </trkpt>
      <trkpt lat="45.69319" lon="5.27466">
        <ele>382.6</ele>
        <time>2025-05-27T11:06:48Z</time>
      </trkpt>
      <trkpt lat="45.69323" lon="5.27467">
        <ele>382.8</ele>
        <time>2025-05-27T11:06:49Z</time>
      </trkpt>
      <trkpt lat="45.69325" lon="5.27468">
        <ele>382.8</ele>
        <time>2025-05-27T11:06:50Z</time>
      </trkpt>
      <trkpt lat="45.69329" lon="5.27469">
        <ele>382.8</ele>
        <time>2025-05-27T11:06:51Z</time>
      </trkpt>
      <trkpt lat="45.69332" lon="5.2747">
        <ele>382.6</ele>
        <time>2025-05-27T11:06:52Z</time>
      </trkpt>
      <trkpt lat="45.69335" lon="5.27471">
        <ele>382</ele>
        <time>2025-05-27T11:06:53Z</time>
      </trkpt>
      <trkpt lat="45.69339" lon="5.27472">
        <ele>382.4</ele>
        <time>2025-05-27T11:06:54Z</time>
      </trkpt>
      <trkpt lat="45.69342" lon="5.27473">
        <ele>382</ele>
        <time>2025-05-27T11:06:55Z</time>
      </trkpt>
      <trkpt lat="45.69346" lon="5.27474">
        <ele>382.4</ele>
        <time>2025-05-27T11:06:56Z</time>
      </trkpt>
      <trkpt lat="45.69349" lon="5.27476">
        <ele>382.4</ele>
        <time>2025-05-27T11:06:57Z</time>
      </trkpt>
      <trkpt lat="45.69353" lon="5.2748">
        <ele>382.2</ele>
        <time>2025-05-27T11:06:58Z</time>
      </trkpt>
      <trkpt lat="45.69359" lon="5.27483">
        <ele>382.2</ele>
        <time>2025-05-27T11:06:59Z</time>
      </trkpt>
      <trkpt lat="45.69363" lon="5.27486">
        <ele>381.4</ele>
        <time>2025-05-27T11:07:00Z</time>
      </trkpt>
      <trkpt lat="45.69367" lon="5.27488">
        <ele>381.4</ele>
        <time>2025-05-27T11:07:01Z</time>
      </trkpt>
      <trkpt lat="45.6937" lon="5.27491">
        <ele>381.4</ele>
        <time>2025-05-27T11:07:02Z</time>
      </trkpt>
      <trkpt lat="45.69374" lon="5.27494">
        <ele>381.2</ele>
        <time>2025-05-27T11:07:03Z</time>
      </trkpt>
      <trkpt lat="45.69378" lon="5.27497">
        <ele>381.4</ele>
        <time>2025-05-27T11:07:04Z</time>
      </trkpt>
      <trkpt lat="45.69381" lon="5.27499">
        <ele>381.8</ele>
        <time>2025-05-27T11:07:05Z</time>
      </trkpt>
      <trkpt lat="45.69385" lon="5.27501">
        <ele>381.4</ele>
        <time>2025-05-27T11:07:06Z</time>
      </trkpt>
      <trkpt lat="45.69389" lon="5.27503">
        <ele>382</ele>
        <time>2025-05-27T11:07:07Z</time>
      </trkpt>
      <trkpt lat="45.69393" lon="5.27507">
        <ele>382.2</ele>
        <time>2025-05-27T11:07:08Z</time>
      </trkpt>
      <trkpt lat="45.69397" lon="5.27507">
        <ele>381.4</ele>
        <time>2025-05-27T11:07:09Z</time>
      </trkpt>
      <trkpt lat="45.69402" lon="5.27509">
        <ele>381.4</ele>
        <time>2025-05-27T11:07:10Z</time>
      </trkpt>
      <trkpt lat="45.69407" lon="5.27508">
        <ele>381.8</ele>
        <time>2025-05-27T11:07:11Z</time>
      </trkpt>
      <trkpt lat="45.6941" lon="5.27506">
        <ele>381.8</ele>
        <time>2025-05-27T11:07:12Z</time>
      </trkpt>
      <trkpt lat="45.69414" lon="5.27504">
        <ele>381.8</ele>
        <time>2025-05-27T11:07:13Z</time>
      </trkpt>
      <trkpt lat="45.69418" lon="5.27502">
        <ele>382.2</ele>
        <time>2025-05-27T11:07:14Z</time>
      </trkpt>
      <trkpt lat="45.69422" lon="5.27499">
        <ele>381.4</ele>
        <time>2025-05-27T11:07:15Z</time>
      </trkpt>
      <trkpt lat="45.69425" lon="5.27497">
        <ele>381.4</ele>
        <time>2025-05-27T11:07:16Z</time>
      </trkpt>
      <trkpt lat="45.6943" lon="5.27495">
        <ele>381.4</ele>
        <time>2025-05-27T11:07:17Z</time>
      </trkpt>
      <trkpt lat="45.69434" lon="5.27494">
        <ele>382</ele>
        <time>2025-05-27T11:07:18Z</time>
      </trkpt>
      <trkpt lat="45.69438" lon="5.27492">
        <ele>382</ele>
        <time>2025-05-27T11:07:19Z</time>
      </trkpt>
      <trkpt lat="45.69442" lon="5.2749">
        <ele>382</ele>
        <time>2025-05-27T11:07:20Z</time>
      </trkpt>
      <trkpt lat="45.69446" lon="5.27489">
        <ele>382.4</ele>
        <time>2025-05-27T11:07:21Z</time>
      </trkpt>
      <trkpt lat="45.6945" lon="5.27488">
        <ele>382.6</ele>
        <time>2025-05-27T11:07:22Z</time>
      </trkpt>
      <trkpt lat="45.69454" lon="5.27487">
        <ele>382.6</ele>
        <time>2025-05-27T11:07:23Z</time>
      </trkpt>
      <trkpt lat="45.69458" lon="5.27486">
        <ele>383</ele>
        <time>2025-05-27T11:07:24Z</time>
      </trkpt>
      <trkpt lat="45.69462" lon="5.27485">
        <ele>383.8</ele>
        <time>2025-05-27T11:07:25Z</time>
      </trkpt>
      <trkpt lat="45.69465" lon="5.27483">
        <ele>383.8</ele>
        <time>2025-05-27T11:07:26Z</time>
      </trkpt>
      <trkpt lat="45.69469" lon="5.27482">
        <ele>383.6</ele>
        <time>2025-05-27T11:07:27Z</time>
      </trkpt>
      <trkpt lat="45.69474" lon="5.2748">
        <ele>383.4</ele>
        <time>2025-05-27T11:07:28Z</time>
      </trkpt>
      <trkpt lat="45.69476" lon="5.27477">
        <ele>383.2</ele>
        <time>2025-05-27T11:07:29Z</time>
      </trkpt>
      <trkpt lat="45.69481" lon="5.27476">
        <ele>383.2</ele>
        <time>2025-05-27T11:07:30Z</time>
      </trkpt>
      <trkpt lat="45.69485" lon="5.27474">
        <ele>383.8</ele>
        <time>2025-05-27T11:07:31Z</time>
      </trkpt>
      <trkpt lat="45.69488" lon="5.27472">
        <ele>383.4</ele>
        <time>2025-05-27T11:07:32Z</time>
      </trkpt>
      <trkpt lat="45.69492" lon="5.2747">
        <ele>382.6</ele>
        <time>2025-05-27T11:07:33Z</time>
      </trkpt>
      <trkpt lat="45.69496" lon="5.27469">
        <ele>382.6</ele>
        <time>2025-05-27T11:07:34Z</time>
      </trkpt>
      <trkpt lat="45.695" lon="5.27467">
        <ele>382.6</ele>
        <time>2025-05-27T11:07:35Z</time>
      </trkpt>
      <trkpt lat="45.69503" lon="5.27467">
        <ele>382.6</ele>
        <time>2025-05-27T11:07:36Z</time>
      </trkpt>
      <trkpt lat="45.69508" lon="5.27465">
        <ele>382.6</ele>
        <time>2025-05-27T11:07:37Z</time>
      </trkpt>
      <trkpt lat="45.69513" lon="5.27464">
        <ele>383.4</ele>
        <time>2025-05-27T11:07:38Z</time>
      </trkpt>
      <trkpt lat="45.69518" lon="5.27463">
        <ele>383.4</ele>
        <time>2025-05-27T11:07:39Z</time>
      </trkpt>
      <trkpt lat="45.69522" lon="5.27462">
        <ele>383.4</ele>
        <time>2025-05-27T11:07:40Z</time>
      </trkpt>
      <trkpt lat="45.69526" lon="5.27462">
        <ele>383</ele>
        <time>2025-05-27T11:07:41Z</time>
      </trkpt>
      <trkpt lat="45.69531" lon="5.27461">
        <ele>383</ele>
        <time>2025-05-27T11:07:42Z</time>
      </trkpt>
      <trkpt lat="45.6954" lon="5.27459">
        <ele>383</ele>
        <time>2025-05-27T11:07:43Z</time>
      </trkpt>
      <trkpt lat="45.69545" lon="5.27459">
        <ele>382.8</ele>
        <time>2025-05-27T11:07:44Z</time>
      </trkpt>
      <trkpt lat="45.6955" lon="5.27459">
        <ele>383</ele>
        <time>2025-05-27T11:07:45Z</time>
      </trkpt>
      <trkpt lat="45.69554" lon="5.27459">
        <ele>382.4</ele>
        <time>2025-05-27T11:07:46Z</time>
      </trkpt>
      <trkpt lat="45.69557" lon="5.27459">
        <ele>382.8</ele>
        <time>2025-05-27T11:07:47Z</time>
      </trkpt>
      <trkpt lat="45.69559" lon="5.27459">
        <ele>382.6</ele>
        <time>2025-05-27T11:07:48Z</time>
      </trkpt>
      <trkpt lat="45.69561" lon="5.27459">
        <ele>382.6</ele>
        <time>2025-05-27T11:07:49Z</time>
      </trkpt>
      <trkpt lat="45.69566" lon="5.27458">
        <ele>381.8</ele>
        <time>2025-05-27T11:07:50Z</time>
      </trkpt>
      <trkpt lat="45.69569" lon="5.27457">
        <ele>382</ele>
        <time>2025-05-27T11:07:51Z</time>
      </trkpt>
      <trkpt lat="45.69572" lon="5.27456">
        <ele>381.6</ele>
        <time>2025-05-27T11:07:52Z</time>
      </trkpt>
      <trkpt lat="45.69575" lon="5.27455">
        <ele>381.2</ele>
        <time>2025-05-27T11:07:53Z</time>
      </trkpt>
      <trkpt lat="45.69578" lon="5.27452">
        <ele>380.8</ele>
        <time>2025-05-27T11:07:54Z</time>
      </trkpt>
      <trkpt lat="45.6958" lon="5.27451">
        <ele>380.4</ele>
        <time>2025-05-27T11:07:55Z</time>
      </trkpt>
      <trkpt lat="45.6958" lon="5.2745">
        <ele>379.8</ele>
        <time>2025-05-27T11:07:56Z</time>
      </trkpt>
      <trkpt lat="45.69581" lon="5.2745">
        <ele>379.8</ele>
        <time>2025-05-27T11:07:57Z</time>
      </trkpt>
      <trkpt lat="45.6958" lon="5.2745">
        <ele>379.4</ele>
        <time>2025-05-27T11:07:58Z</time>
      </trkpt>
      <trkpt lat="45.69582" lon="5.27448">
        <ele>378.8</ele>
        <time>2025-05-27T11:08:05Z</time>
      </trkpt>
      <trkpt lat="45.69584" lon="5.27447">
        <ele>378</ele>
        <time>2025-05-27T11:08:06Z</time>
      </trkpt>
      <trkpt lat="45.69585" lon="5.27446">
        <ele>378</ele>
        <time>2025-05-27T11:08:07Z</time>
      </trkpt>
      <trkpt lat="45.69587" lon="5.27446">
        <ele>378</ele>
        <time>2025-05-27T11:08:08Z</time>
      </trkpt>
      <trkpt lat="45.69591" lon="5.27445">
        <ele>377.4</ele>
        <time>2025-05-27T11:08:09Z</time>
      </trkpt>
      <trkpt lat="45.69594" lon="5.27444">
        <ele>377.2</ele>
        <time>2025-05-27T11:08:10Z</time>
      </trkpt>
      <trkpt lat="45.696" lon="5.27443">
        <ele>376.8</ele>
        <time>2025-05-27T11:08:11Z</time>
      </trkpt>
      <trkpt lat="45.69604" lon="5.27441">
        <ele>376.4</ele>
        <time>2025-05-27T11:08:12Z</time>
      </trkpt>
      <trkpt lat="45.69606" lon="5.27439">
        <ele>376</ele>
        <time>2025-05-27T11:08:13Z</time>
      </trkpt>
      <trkpt lat="45.69611" lon="5.27438">
        <ele>375.6</ele>
        <time>2025-05-27T11:08:14Z</time>
      </trkpt>
      <trkpt lat="45.69614" lon="5.27435">
        <ele>375.4</ele>
        <time>2025-05-27T11:08:15Z</time>
      </trkpt>
      <trkpt lat="45.69622" lon="5.27434">
        <ele>375.2</ele>
        <time>2025-05-27T11:08:16Z</time>
      </trkpt>
      <trkpt lat="45.69622" lon="5.27432">
        <ele>374.8</ele>
        <time>2025-05-27T11:08:17Z</time>
      </trkpt>
      <trkpt lat="45.69629" lon="5.27432">
        <ele>374.8</ele>
        <time>2025-05-27T11:08:18Z</time>
      </trkpt>
      <trkpt lat="45.69632" lon="5.27433">
        <ele>374.6</ele>
        <time>2025-05-27T11:08:19Z</time>
      </trkpt>
      <trkpt lat="45.69635" lon="5.27435">
        <ele>375</ele>
        <time>2025-05-27T11:08:20Z</time>
      </trkpt>
      <trkpt lat="45.69638" lon="5.27439">
        <ele>375</ele>
        <time>2025-05-27T11:08:21Z</time>
      </trkpt>
      <trkpt lat="45.69642" lon="5.2744">
        <ele>374</ele>
        <time>2025-05-27T11:08:22Z</time>
      </trkpt>
      <trkpt lat="45.69647" lon="5.2744">
        <ele>374</ele>
        <time>2025-05-27T11:08:23Z</time>
      </trkpt>
      <trkpt lat="45.69652" lon="5.27439">
        <ele>374</ele>
        <time>2025-05-27T11:08:24Z</time>
      </trkpt>
      <trkpt lat="45.69655" lon="5.27437">
        <ele>373.8</ele>
        <time>2025-05-27T11:08:25Z</time>
      </trkpt>
      <trkpt lat="45.69662" lon="5.27436">
        <ele>373.6</ele>
        <time>2025-05-27T11:08:26Z</time>
      </trkpt>
      <trkpt lat="45.69668" lon="5.27434">
        <ele>373</ele>
        <time>2025-05-27T11:08:27Z</time>
      </trkpt>
      <trkpt lat="45.69671" lon="5.27435">
        <ele>373</ele>
        <time>2025-05-27T11:08:28Z</time>
      </trkpt>
      <trkpt lat="45.69676" lon="5.27433">
        <ele>373</ele>
        <time>2025-05-27T11:08:29Z</time>
      </trkpt>
      <trkpt lat="45.69676" lon="5.27432">
        <ele>373.4</ele>
        <time>2025-05-27T11:08:30Z</time>
      </trkpt>
      <trkpt lat="45.69679" lon="5.27433">
        <ele>373.4</ele>
        <time>2025-05-27T11:08:31Z</time>
      </trkpt>
      <trkpt lat="45.69682" lon="5.27433">
        <ele>373.4</ele>
        <time>2025-05-27T11:08:32Z</time>
      </trkpt>
      <trkpt lat="45.69684" lon="5.27432">
        <ele>373.2</ele>
        <time>2025-05-27T11:08:33Z</time>
      </trkpt>
      <trkpt lat="45.69687" lon="5.27433">
        <ele>372.8</ele>
        <time>2025-05-27T11:08:34Z</time>
      </trkpt>
      <trkpt lat="45.6969" lon="5.27435">
        <ele>372.8</ele>
        <time>2025-05-27T11:08:35Z</time>
      </trkpt>
      <trkpt lat="45.69693" lon="5.27435">
        <ele>372.8</ele>
        <time>2025-05-27T11:08:36Z</time>
      </trkpt>
      <trkpt lat="45.69696" lon="5.27435">
        <ele>372.8</ele>
        <time>2025-05-27T11:08:37Z</time>
      </trkpt>
      <trkpt lat="45.697" lon="5.27434">
        <ele>372.8</ele>
        <time>2025-05-27T11:08:38Z</time>
      </trkpt>
      <trkpt lat="45.69704" lon="5.27434">
        <ele>372.8</ele>
        <time>2025-05-27T11:08:39Z</time>
      </trkpt>
      <trkpt lat="45.6971" lon="5.27434">
        <ele>372.8</ele>
        <time>2025-05-27T11:08:40Z</time>
      </trkpt>
      <trkpt lat="45.69715" lon="5.27433">
        <ele>372.8</ele>
        <time>2025-05-27T11:08:41Z</time>
      </trkpt>
      <trkpt lat="45.69719" lon="5.27432">
        <ele>372.6</ele>
        <time>2025-05-27T11:08:42Z</time>
      </trkpt>
      <trkpt lat="45.69721" lon="5.27432">
        <ele>372.8</ele>
        <time>2025-05-27T11:08:43Z</time>
      </trkpt>
      <trkpt lat="45.69726" lon="5.27429">
        <ele>372.4</ele>
        <time>2025-05-27T11:08:44Z</time>
      </trkpt>
      <trkpt lat="45.69731" lon="5.27427">
        <ele>372.6</ele>
        <time>2025-05-27T11:08:45Z</time>
      </trkpt>
      <trkpt lat="45.69734" lon="5.27423">
        <ele>372.6</ele>
        <time>2025-05-27T11:08:46Z</time>
      </trkpt>
      <trkpt lat="45.69738" lon="5.2742">
        <ele>373.2</ele>
        <time>2025-05-27T11:08:47Z</time>
      </trkpt>
      <trkpt lat="45.69742" lon="5.27418">
        <ele>373.4</ele>
        <time>2025-05-27T11:08:48Z</time>
      </trkpt>
      <trkpt lat="45.69747" lon="5.27415">
        <ele>373.2</ele>
        <time>2025-05-27T11:08:49Z</time>
      </trkpt>
      <trkpt lat="45.69751" lon="5.27412">
        <ele>373.2</ele>
        <time>2025-05-27T11:08:50Z</time>
      </trkpt>
      <trkpt lat="45.69754" lon="5.27409">
        <ele>373.2</ele>
        <time>2025-05-27T11:08:51Z</time>
      </trkpt>
      <trkpt lat="45.69758" lon="5.27407">
        <ele>373.2</ele>
        <time>2025-05-27T11:08:52Z</time>
      </trkpt>
      <trkpt lat="45.6976" lon="5.27404">
        <ele>373</ele>
        <time>2025-05-27T11:08:53Z</time>
      </trkpt>
      <trkpt lat="45.69765" lon="5.27402">
        <ele>373</ele>
        <time>2025-05-27T11:08:54Z</time>
      </trkpt>
      <trkpt lat="45.69768" lon="5.274">
        <ele>373</ele>
        <time>2025-05-27T11:08:55Z</time>
      </trkpt>
      <trkpt lat="45.69772" lon="5.27397">
        <ele>373</ele>
        <time>2025-05-27T11:08:56Z</time>
      </trkpt>
      <trkpt lat="45.69776" lon="5.27395">
        <ele>373.2</ele>
        <time>2025-05-27T11:08:57Z</time>
      </trkpt>
      <trkpt lat="45.69779" lon="5.27393">
        <ele>373.2</ele>
        <time>2025-05-27T11:08:58Z</time>
      </trkpt>
      <trkpt lat="45.69783" lon="5.27392">
        <ele>373.4</ele>
        <time>2025-05-27T11:08:59Z</time>
      </trkpt>
      <trkpt lat="45.69788" lon="5.2739">
        <ele>373.8</ele>
        <time>2025-05-27T11:09:00Z</time>
      </trkpt>
      <trkpt lat="45.69791" lon="5.27389">
        <ele>374</ele>
        <time>2025-05-27T11:09:01Z</time>
      </trkpt>
      <trkpt lat="45.69794" lon="5.27387">
        <ele>374</ele>
        <time>2025-05-27T11:09:02Z</time>
      </trkpt>
      <trkpt lat="45.69799" lon="5.27386">
        <ele>374</ele>
        <time>2025-05-27T11:09:03Z</time>
      </trkpt>
      <trkpt lat="45.69803" lon="5.27385">
        <ele>374.4</ele>
        <time>2025-05-27T11:09:04Z</time>
      </trkpt>
      <trkpt lat="45.69807" lon="5.27384">
        <ele>374.6</ele>
        <time>2025-05-27T11:09:05Z</time>
      </trkpt>
      <trkpt lat="45.69811" lon="5.27384">
        <ele>374.6</ele>
        <time>2025-05-27T11:09:06Z</time>
      </trkpt>
      <trkpt lat="45.69815" lon="5.27383">
        <ele>375.2</ele>
        <time>2025-05-27T11:09:07Z</time>
      </trkpt>
      <trkpt lat="45.69819" lon="5.27382">
        <ele>374.8</ele>
        <time>2025-05-27T11:09:08Z</time>
      </trkpt>
      <trkpt lat="45.69823" lon="5.2738">
        <ele>375.2</ele>
        <time>2025-05-27T11:09:09Z</time>
      </trkpt>
      <trkpt lat="45.69827" lon="5.27379">
        <ele>375.2</ele>
        <time>2025-05-27T11:09:10Z</time>
      </trkpt>
      <trkpt lat="45.6983" lon="5.27379">
        <ele>375.2</ele>
        <time>2025-05-27T11:09:11Z</time>
      </trkpt>
      <trkpt lat="45.69835" lon="5.27378">
        <ele>375.6</ele>
        <time>2025-05-27T11:09:12Z</time>
      </trkpt>
      <trkpt lat="45.69839" lon="5.27376">
        <ele>375.6</ele>
        <time>2025-05-27T11:09:13Z</time>
      </trkpt>
      <trkpt lat="45.69843" lon="5.27374">
        <ele>375.2</ele>
        <time>2025-05-27T11:09:14Z</time>
      </trkpt>
      <trkpt lat="45.69848" lon="5.27372">
        <ele>375.2</ele>
        <time>2025-05-27T11:09:15Z</time>
      </trkpt>
      <trkpt lat="45.69851" lon="5.2737">
        <ele>375.6</ele>
        <time>2025-05-27T11:09:16Z</time>
      </trkpt>
      <trkpt lat="45.69857" lon="5.27369">
        <ele>375.6</ele>
        <time>2025-05-27T11:09:17Z</time>
      </trkpt>
      <trkpt lat="45.69857" lon="5.27369">
        <ele>375</ele>
        <time>2025-05-27T11:09:18Z</time>
      </trkpt>
      <trkpt lat="45.69857" lon="5.27369">
        <ele>375</ele>
        <time>2025-05-27T11:09:19Z</time>
      </trkpt>
      <trkpt lat="45.69871" lon="5.2736">
        <ele>375</ele>
        <time>2025-05-27T11:09:21Z</time>
      </trkpt>
      <trkpt lat="45.69875" lon="5.27357">
        <ele>375</ele>
        <time>2025-05-27T11:09:22Z</time>
      </trkpt>
      <trkpt lat="45.69879" lon="5.27354">
        <ele>374.4</ele>
        <time>2025-05-27T11:09:23Z</time>
      </trkpt>
      <trkpt lat="45.69883" lon="5.27351">
        <ele>374.8</ele>
        <time>2025-05-27T11:09:24Z</time>
      </trkpt>
      <trkpt lat="45.69888" lon="5.27348">
        <ele>374.8</ele>
        <time>2025-05-27T11:09:25Z</time>
      </trkpt>
      <trkpt lat="45.69891" lon="5.27344">
        <ele>374.8</ele>
        <time>2025-05-27T11:09:26Z</time>
      </trkpt>
      <trkpt lat="45.69895" lon="5.27341">
        <ele>374.8</ele>
        <time>2025-05-27T11:09:27Z</time>
      </trkpt>
      <trkpt lat="45.69899" lon="5.27337">
        <ele>374.8</ele>
        <time>2025-05-27T11:09:28Z</time>
      </trkpt>
      <trkpt lat="45.699" lon="5.27333">
        <ele>374.8</ele>
        <time>2025-05-27T11:09:29Z</time>
      </trkpt>
      <trkpt lat="45.69905" lon="5.27328">
        <ele>374.8</ele>
        <time>2025-05-27T11:09:30Z</time>
      </trkpt>
      <trkpt lat="45.69911" lon="5.27324">
        <ele>375</ele>
        <time>2025-05-27T11:09:31Z</time>
      </trkpt>
      <trkpt lat="45.69916" lon="5.27321">
        <ele>375</ele>
        <time>2025-05-27T11:09:32Z</time>
      </trkpt>
      <trkpt lat="45.69919" lon="5.27318">
        <ele>375</ele>
        <time>2025-05-27T11:09:33Z</time>
      </trkpt>
      <trkpt lat="45.69926" lon="5.27316">
        <ele>375</ele>
        <time>2025-05-27T11:09:34Z</time>
      </trkpt>
      <trkpt lat="45.69932" lon="5.27313">
        <ele>375.4</ele>
        <time>2025-05-27T11:09:35Z</time>
      </trkpt>
      <trkpt lat="45.69937" lon="5.2731">
        <ele>375.4</ele>
        <time>2025-05-27T11:09:36Z</time>
      </trkpt>
      <trkpt lat="45.69941" lon="5.27307">
        <ele>375.6</ele>
        <time>2025-05-27T11:09:37Z</time>
      </trkpt>
      <trkpt lat="45.69945" lon="5.27304">
        <ele>375.6</ele>
        <time>2025-05-27T11:09:38Z</time>
      </trkpt>
      <trkpt lat="45.69949" lon="5.27301">
        <ele>375.6</ele>
        <time>2025-05-27T11:09:39Z</time>
      </trkpt>
      <trkpt lat="45.69953" lon="5.27296">
        <ele>375.6</ele>
        <time>2025-05-27T11:09:40Z</time>
      </trkpt>
      <trkpt lat="45.69956" lon="5.27292">
        <ele>375.6</ele>
        <time>2025-05-27T11:09:41Z</time>
      </trkpt>
      <trkpt lat="45.69958" lon="5.27288">
        <ele>375.6</ele>
        <time>2025-05-27T11:09:42Z</time>
      </trkpt>
      <trkpt lat="45.69961" lon="5.27284">
        <ele>376</ele>
        <time>2025-05-27T11:09:43Z</time>
      </trkpt>
      <trkpt lat="45.69964" lon="5.27281">
        <ele>377</ele>
        <time>2025-05-27T11:09:44Z</time>
      </trkpt>
      <trkpt lat="45.69966" lon="5.27276">
        <ele>377.2</ele>
        <time>2025-05-27T11:09:45Z</time>
      </trkpt>
      <trkpt lat="45.69967" lon="5.27273">
        <ele>377</ele>
        <time>2025-05-27T11:09:46Z</time>
      </trkpt>
      <trkpt lat="45.69971" lon="5.27271">
        <ele>377.2</ele>
        <time>2025-05-27T11:09:47Z</time>
      </trkpt>
      <trkpt lat="45.69974" lon="5.27269">
        <ele>377.2</ele>
        <time>2025-05-27T11:09:48Z</time>
      </trkpt>
      <trkpt lat="45.69977" lon="5.27267">
        <ele>377.6</ele>
        <time>2025-05-27T11:09:49Z</time>
      </trkpt>
      <trkpt lat="45.69978" lon="5.27265">
        <ele>377.6</ele>
        <time>2025-05-27T11:09:50Z</time>
      </trkpt>
      <trkpt lat="45.6998" lon="5.27263">
        <ele>377.6</ele>
        <time>2025-05-27T11:09:51Z</time>
      </trkpt>
      <trkpt lat="45.69985" lon="5.27261">
        <ele>378.2</ele>
        <time>2025-05-27T11:09:52Z</time>
      </trkpt>
      <trkpt lat="45.69988" lon="5.27258">
        <ele>378.2</ele>
        <time>2025-05-27T11:09:53Z</time>
      </trkpt>
      <trkpt lat="45.69991" lon="5.27257">
        <ele>378</ele>
        <time>2025-05-27T11:09:54Z</time>
      </trkpt>
      <trkpt lat="45.69989" lon="5.27254">
        <ele>378.2</ele>
        <time>2025-05-27T11:09:55Z</time>
      </trkpt>
      <trkpt lat="45.69991" lon="5.27252">
        <ele>378.2</ele>
        <time>2025-05-27T11:09:56Z</time>
      </trkpt>
      <trkpt lat="45.69994" lon="5.2725">
        <ele>378.2</ele>
        <time>2025-05-27T11:09:57Z</time>
      </trkpt>
      <trkpt lat="45.69996" lon="5.27247">
        <ele>378.2</ele>
        <time>2025-05-27T11:09:58Z</time>
      </trkpt>
      <trkpt lat="45.69998" lon="5.27245">
        <ele>378.2</ele>
        <time>2025-05-27T11:09:59Z</time>
      </trkpt>
      <trkpt lat="45.7" lon="5.27243">
        <ele>378.8</ele>
        <time>2025-05-27T11:10:00Z</time>
      </trkpt>
      <trkpt lat="45.70003" lon="5.2724">
        <ele>379.4</ele>
        <time>2025-05-27T11:10:01Z</time>
      </trkpt>
      <trkpt lat="45.70005" lon="5.27238">
        <ele>379.8</ele>
        <time>2025-05-27T11:10:02Z</time>
      </trkpt>
      <trkpt lat="45.70005" lon="5.27237">
        <ele>380</ele>
        <time>2025-05-27T11:10:03Z</time>
      </trkpt>
      <trkpt lat="45.70006" lon="5.27236">
        <ele>380.4</ele>
        <time>2025-05-27T11:10:04Z</time>
      </trkpt>
      <trkpt lat="45.70007" lon="5.27235">
        <ele>381</ele>
        <time>2025-05-27T11:10:05Z</time>
      </trkpt>
      <trkpt lat="45.70008" lon="5.27233">
        <ele>381</ele>
        <time>2025-05-27T11:10:06Z</time>
      </trkpt>
      <trkpt lat="45.70009" lon="5.27232">
        <ele>381.2</ele>
        <time>2025-05-27T11:10:07Z</time>
      </trkpt>
      <trkpt lat="45.7001" lon="5.27231">
        <ele>381.2</ele>
        <time>2025-05-27T11:10:08Z</time>
      </trkpt>
      <trkpt lat="45.70012" lon="5.2723">
        <ele>381.6</ele>
        <time>2025-05-27T11:10:09Z</time>
      </trkpt>
      <trkpt lat="45.70016" lon="5.2723">
        <ele>381.4</ele>
        <time>2025-05-27T11:10:10Z</time>
      </trkpt>
      <trkpt lat="45.70019" lon="5.27229">
        <ele>381.8</ele>
        <time>2025-05-27T11:10:11Z</time>
      </trkpt>
      <trkpt lat="45.70022" lon="5.27228">
        <ele>382</ele>
        <time>2025-05-27T11:10:12Z</time>
      </trkpt>
      <trkpt lat="45.70024" lon="5.27227">
        <ele>382.2</ele>
        <time>2025-05-27T11:10:13Z</time>
      </trkpt>
      <trkpt lat="45.70026" lon="5.27226">
        <ele>382.2</ele>
        <time>2025-05-27T11:10:14Z</time>
      </trkpt>
      <trkpt lat="45.70028" lon="5.27225">
        <ele>382.6</ele>
        <time>2025-05-27T11:10:15Z</time>
      </trkpt>
      <trkpt lat="45.70031" lon="5.27224">
        <ele>383</ele>
        <time>2025-05-27T11:10:16Z</time>
      </trkpt>
      <trkpt lat="45.70033" lon="5.27223">
        <ele>383</ele>
        <time>2025-05-27T11:10:17Z</time>
      </trkpt>
      <trkpt lat="45.70034" lon="5.27222">
        <ele>383</ele>
        <time>2025-05-27T11:10:18Z</time>
      </trkpt>
      <trkpt lat="45.70036" lon="5.27222">
        <ele>383</ele>
        <time>2025-05-27T11:10:19Z</time>
      </trkpt>
      <trkpt lat="45.70038" lon="5.27221">
        <ele>383.2</ele>
        <time>2025-05-27T11:10:20Z</time>
      </trkpt>
      <trkpt lat="45.70039" lon="5.27221">
        <ele>383.6</ele>
        <time>2025-05-27T11:10:21Z</time>
      </trkpt>
      <trkpt lat="45.70042" lon="5.2722">
        <ele>383.8</ele>
        <time>2025-05-27T11:10:22Z</time>
      </trkpt>
      <trkpt lat="45.70044" lon="5.27219">
        <ele>384.2</ele>
        <time>2025-05-27T11:10:23Z</time>
      </trkpt>
      <trkpt lat="45.70046" lon="5.27219">
        <ele>384.6</ele>
        <time>2025-05-27T11:10:24Z</time>
      </trkpt>
      <trkpt lat="45.70048" lon="5.27219">
        <ele>384.6</ele>
        <time>2025-05-27T11:10:25Z</time>
      </trkpt>
      <trkpt lat="45.7005" lon="5.27218">
        <ele>384.8</ele>
        <time>2025-05-27T11:10:26Z</time>
      </trkpt>
      <trkpt lat="45.70051" lon="5.27217">
        <ele>385</ele>
        <time>2025-05-27T11:10:27Z</time>
      </trkpt>
      <trkpt lat="45.70053" lon="5.27216">
        <ele>385</ele>
        <time>2025-05-27T11:10:28Z</time>
      </trkpt>
      <trkpt lat="45.70054" lon="5.27215">
        <ele>385.4</ele>
        <time>2025-05-27T11:10:29Z</time>
      </trkpt>
      <trkpt lat="45.70054" lon="5.27215">
        <ele>385.8</ele>
        <time>2025-05-27T11:10:30Z</time>
      </trkpt>
      <trkpt lat="45.70056" lon="5.27215">
        <ele>385.8</ele>
        <time>2025-05-27T11:10:31Z</time>
      </trkpt>
      <trkpt lat="45.70057" lon="5.27214">
        <ele>386.2</ele>
        <time>2025-05-27T11:10:32Z</time>
      </trkpt>
      <trkpt lat="45.70059" lon="5.27213">
        <ele>386.4</ele>
        <time>2025-05-27T11:10:33Z</time>
      </trkpt>
      <trkpt lat="45.7006" lon="5.27213">
        <ele>386.4</ele>
        <time>2025-05-27T11:10:34Z</time>
      </trkpt>
      <trkpt lat="45.70062" lon="5.27212">
        <ele>386.4</ele>
        <time>2025-05-27T11:10:35Z</time>
      </trkpt>
      <trkpt lat="45.70064" lon="5.27211">
        <ele>386.6</ele>
        <time>2025-05-27T11:10:36Z</time>
      </trkpt>
      <trkpt lat="45.70066" lon="5.27211">
        <ele>386.6</ele>
        <time>2025-05-27T11:10:37Z</time>
      </trkpt>
      <trkpt lat="45.70068" lon="5.2721">
        <ele>386.6</ele>
        <time>2025-05-27T11:10:38Z</time>
      </trkpt>
      <trkpt lat="45.70069" lon="5.27209">
        <ele>387</ele>
        <time>2025-05-27T11:10:39Z</time>
      </trkpt>
      <trkpt lat="45.70071" lon="5.27208">
        <ele>387</ele>
        <time>2025-05-27T11:10:40Z</time>
      </trkpt>
      <trkpt lat="45.70072" lon="5.27207">
        <ele>387</ele>
        <time>2025-05-27T11:10:41Z</time>
      </trkpt>
      <trkpt lat="45.70074" lon="5.27206">
        <ele>386.6</ele>
        <time>2025-05-27T11:10:42Z</time>
      </trkpt>
      <trkpt lat="45.70077" lon="5.27205">
        <ele>386.6</ele>
        <time>2025-05-27T11:10:43Z</time>
      </trkpt>
      <trkpt lat="45.70079" lon="5.27204">
        <ele>386.6</ele>
        <time>2025-05-27T11:10:44Z</time>
      </trkpt>
      <trkpt lat="45.70081" lon="5.27203">
        <ele>386.8</ele>
        <time>2025-05-27T11:10:45Z</time>
      </trkpt>
      <trkpt lat="45.70082" lon="5.27202">
        <ele>386.8</ele>
        <time>2025-05-27T11:10:46Z</time>
      </trkpt>
      <trkpt lat="45.70084" lon="5.27201">
        <ele>386.6</ele>
        <time>2025-05-27T11:10:47Z</time>
      </trkpt>
      <trkpt lat="45.70087" lon="5.272">
        <ele>386.8</ele>
        <time>2025-05-27T11:10:48Z</time>
      </trkpt>
      <trkpt lat="45.70088" lon="5.272">
        <ele>387</ele>
        <time>2025-05-27T11:10:49Z</time>
      </trkpt>
      <trkpt lat="45.7009" lon="5.272">
        <ele>387</ele>
        <time>2025-05-27T11:10:50Z</time>
      </trkpt>
      <trkpt lat="45.70093" lon="5.27201">
        <ele>387.4</ele>
        <time>2025-05-27T11:10:51Z</time>
      </trkpt>
      <trkpt lat="45.70095" lon="5.27202">
        <ele>387.6</ele>
        <time>2025-05-27T11:10:52Z</time>
      </trkpt>
      <trkpt lat="45.70096" lon="5.27203">
        <ele>387.6</ele>
        <time>2025-05-27T11:10:53Z</time>
      </trkpt>
      <trkpt lat="45.70098" lon="5.27203">
        <ele>387.6</ele>
        <time>2025-05-27T11:10:54Z</time>
      </trkpt>
      <trkpt lat="45.701" lon="5.27203">
        <ele>388</ele>
        <time>2025-05-27T11:10:55Z</time>
      </trkpt>
      <trkpt lat="45.70101" lon="5.27203">
        <ele>388.4</ele>
        <time>2025-05-27T11:10:56Z</time>
      </trkpt>
      <trkpt lat="45.70102" lon="5.27202">
        <ele>388.8</ele>
        <time>2025-05-27T11:10:57Z</time>
      </trkpt>
      <trkpt lat="45.70105" lon="5.27201">
        <ele>388.8</ele>
        <time>2025-05-27T11:10:58Z</time>
      </trkpt>
      <trkpt lat="45.70108" lon="5.27201">
        <ele>388.8</ele>
        <time>2025-05-27T11:10:59Z</time>
      </trkpt>
      <trkpt lat="45.70112" lon="5.272">
        <ele>388.8</ele>
        <time>2025-05-27T11:11:00Z</time>
      </trkpt>
      <trkpt lat="45.70115" lon="5.272">
        <ele>389.2</ele>
        <time>2025-05-27T11:11:01Z</time>
      </trkpt>
      <trkpt lat="45.70117" lon="5.272">
        <ele>389.2</ele>
        <time>2025-05-27T11:11:02Z</time>
      </trkpt>
      <trkpt lat="45.70119" lon="5.272">
        <ele>389.4</ele>
        <time>2025-05-27T11:11:03Z</time>
      </trkpt>
      <trkpt lat="45.70122" lon="5.272">
        <ele>389.6</ele>
        <time>2025-05-27T11:11:04Z</time>
      </trkpt>
      <trkpt lat="45.70124" lon="5.272">
        <ele>389.2</ele>
        <time>2025-05-27T11:11:05Z</time>
      </trkpt>
      <trkpt lat="45.70127" lon="5.272">
        <ele>389.6</ele>
        <time>2025-05-27T11:11:06Z</time>
      </trkpt>
      <trkpt lat="45.70129" lon="5.272">
        <ele>389.8</ele>
        <time>2025-05-27T11:11:07Z</time>
      </trkpt>
      <trkpt lat="45.70131" lon="5.272">
        <ele>389.8</ele>
        <time>2025-05-27T11:11:08Z</time>
      </trkpt>
      <trkpt lat="45.70133" lon="5.27201">
        <ele>389.8</ele>
        <time>2025-05-27T11:11:09Z</time>
      </trkpt>
      <trkpt lat="45.70135" lon="5.27201">
        <ele>389.8</ele>
        <time>2025-05-27T11:11:10Z</time>
      </trkpt>
      <trkpt lat="45.70139" lon="5.27201">
        <ele>389.8</ele>
        <time>2025-05-27T11:11:11Z</time>
      </trkpt>
      <trkpt lat="45.70142" lon="5.27202">
        <ele>390.2</ele>
        <time>2025-05-27T11:11:12Z</time>
      </trkpt>
      <trkpt lat="45.70148" lon="5.27204">
        <ele>390.2</ele>
        <time>2025-05-27T11:11:13Z</time>
      </trkpt>
      <trkpt lat="45.70152" lon="5.27205">
        <ele>390.6</ele>
        <time>2025-05-27T11:11:14Z</time>
      </trkpt>
      <trkpt lat="45.70152" lon="5.27205">
        <ele>390.6</ele>
        <time>2025-05-27T11:11:15Z</time>
      </trkpt>
      <trkpt lat="45.70157" lon="5.27206">
        <ele>390.4</ele>
        <time>2025-05-27T11:11:16Z</time>
      </trkpt>
      <trkpt lat="45.70159" lon="5.27206">
        <ele>390.4</ele>
        <time>2025-05-27T11:11:17Z</time>
      </trkpt>
      <trkpt lat="45.70162" lon="5.27207">
        <ele>390.4</ele>
        <time>2025-05-27T11:11:18Z</time>
      </trkpt>
      <trkpt lat="45.70166" lon="5.2721">
        <ele>390.4</ele>
        <time>2025-05-27T11:11:19Z</time>
      </trkpt>
      <trkpt lat="45.7017" lon="5.27212">
        <ele>390.2</ele>
        <time>2025-05-27T11:11:20Z</time>
      </trkpt>
      <trkpt lat="45.70172" lon="5.27213">
        <ele>390.2</ele>
        <time>2025-05-27T11:11:21Z</time>
      </trkpt>
      <trkpt lat="45.70176" lon="5.27214">
        <ele>390.6</ele>
        <time>2025-05-27T11:11:22Z</time>
      </trkpt>
      <trkpt lat="45.70178" lon="5.27215">
        <ele>390.6</ele>
        <time>2025-05-27T11:11:23Z</time>
      </trkpt>
      <trkpt lat="45.70181" lon="5.27216">
        <ele>390.6</ele>
        <time>2025-05-27T11:11:24Z</time>
      </trkpt>
      <trkpt lat="45.70184" lon="5.27216">
        <ele>390.6</ele>
        <time>2025-05-27T11:11:25Z</time>
      </trkpt>
      <trkpt lat="45.70186" lon="5.27217">
        <ele>390.6</ele>
        <time>2025-05-27T11:11:26Z</time>
      </trkpt>
      <trkpt lat="45.70189" lon="5.27217">
        <ele>390.6</ele>
        <time>2025-05-27T11:11:27Z</time>
      </trkpt>
      <trkpt lat="45.70191" lon="5.27217">
        <ele>391</ele>
        <time>2025-05-27T11:11:28Z</time>
      </trkpt>
      <trkpt lat="45.70193" lon="5.27218">
        <ele>391</ele>
        <time>2025-05-27T11:11:29Z</time>
      </trkpt>
      <trkpt lat="45.70195" lon="5.27218">
        <ele>391</ele>
        <time>2025-05-27T11:11:30Z</time>
      </trkpt>
      <trkpt lat="45.70197" lon="5.27218">
        <ele>391</ele>
        <time>2025-05-27T11:11:31Z</time>
      </trkpt>
      <trkpt lat="45.70199" lon="5.27219">
        <ele>391.4</ele>
        <time>2025-05-27T11:11:32Z</time>
      </trkpt>
      <trkpt lat="45.70201" lon="5.27218">
        <ele>391.4</ele>
        <time>2025-05-27T11:11:33Z</time>
      </trkpt>
      <trkpt lat="45.70203" lon="5.27218">
        <ele>391</ele>
        <time>2025-05-27T11:11:34Z</time>
      </trkpt>
      <trkpt lat="45.70204" lon="5.27218">
        <ele>391.6</ele>
        <time>2025-05-27T11:11:35Z</time>
      </trkpt>
      <trkpt lat="45.70206" lon="5.27218">
        <ele>391.6</ele>
        <time>2025-05-27T11:11:36Z</time>
      </trkpt>
      <trkpt lat="45.70208" lon="5.2722">
        <ele>391.4</ele>
        <time>2025-05-27T11:11:37Z</time>
      </trkpt>
      <trkpt lat="45.70209" lon="5.27222">
        <ele>391.4</ele>
        <time>2025-05-27T11:11:38Z</time>
      </trkpt>
      <trkpt lat="45.70212" lon="5.27224">
        <ele>391</ele>
        <time>2025-05-27T11:11:39Z</time>
      </trkpt>
      <trkpt lat="45.70216" lon="5.27226">
        <ele>391</ele>
        <time>2025-05-27T11:11:40Z</time>
      </trkpt>
      <trkpt lat="45.70221" lon="5.27229">
        <ele>391</ele>
        <time>2025-05-27T11:11:41Z</time>
      </trkpt>
      <trkpt lat="45.70223" lon="5.27231">
        <ele>391</ele>
        <time>2025-05-27T11:11:42Z</time>
      </trkpt>
      <trkpt lat="45.70224" lon="5.27232">
        <ele>391</ele>
        <time>2025-05-27T11:11:43Z</time>
      </trkpt>
      <trkpt lat="45.70227" lon="5.27234">
        <ele>391</ele>
        <time>2025-05-27T11:11:44Z</time>
      </trkpt>
      <trkpt lat="45.7023" lon="5.27236">
        <ele>390.8</ele>
        <time>2025-05-27T11:11:45Z</time>
      </trkpt>
      <trkpt lat="45.70237" lon="5.27238">
        <ele>390.8</ele>
        <time>2025-05-27T11:11:46Z</time>
      </trkpt>
      <trkpt lat="45.70239" lon="5.27239">
        <ele>391</ele>
        <time>2025-05-27T11:11:47Z</time>
      </trkpt>
      <trkpt lat="45.70247" lon="5.2724">
        <ele>391</ele>
        <time>2025-05-27T11:11:48Z</time>
      </trkpt>
      <trkpt lat="45.70249" lon="5.2724">
        <ele>391</ele>
        <time>2025-05-27T11:11:49Z</time>
      </trkpt>
      <trkpt lat="45.70251" lon="5.27241">
        <ele>391</ele>
        <time>2025-05-27T11:11:50Z</time>
      </trkpt>
      <trkpt lat="45.70255" lon="5.27242">
        <ele>390.6</ele>
        <time>2025-05-27T11:11:51Z</time>
      </trkpt>
      <trkpt lat="45.70257" lon="5.27241">
        <ele>390.6</ele>
        <time>2025-05-27T11:11:52Z</time>
      </trkpt>
      <trkpt lat="45.7026" lon="5.27243">
        <ele>390.4</ele>
        <time>2025-05-27T11:11:53Z</time>
      </trkpt>
      <trkpt lat="45.70262" lon="5.27244">
        <ele>390.4</ele>
        <time>2025-05-27T11:11:54Z</time>
      </trkpt>
      <trkpt lat="45.70266" lon="5.27245">
        <ele>390.4</ele>
        <time>2025-05-27T11:11:55Z</time>
      </trkpt>
      <trkpt lat="45.7027" lon="5.27245">
        <ele>390</ele>
        <time>2025-05-27T11:11:56Z</time>
      </trkpt>
      <trkpt lat="45.70276" lon="5.27247">
        <ele>390</ele>
        <time>2025-05-27T11:11:57Z</time>
      </trkpt>
      <trkpt lat="45.70281" lon="5.27247">
        <ele>389.8</ele>
        <time>2025-05-27T11:11:58Z</time>
      </trkpt>
      <trkpt lat="45.70286" lon="5.27248">
        <ele>390</ele>
        <time>2025-05-27T11:11:59Z</time>
      </trkpt>
      <trkpt lat="45.7029" lon="5.2725">
        <ele>389.8</ele>
        <time>2025-05-27T11:12:00Z</time>
      </trkpt>
      <trkpt lat="45.70294" lon="5.27251">
        <ele>389.2</ele>
        <time>2025-05-27T11:12:01Z</time>
      </trkpt>
      <trkpt lat="45.70297" lon="5.27254">
        <ele>389</ele>
        <time>2025-05-27T11:12:02Z</time>
      </trkpt>
      <trkpt lat="45.70302" lon="5.27254">
        <ele>389</ele>
        <time>2025-05-27T11:12:03Z</time>
      </trkpt>
      <trkpt lat="45.70306" lon="5.27256">
        <ele>389</ele>
        <time>2025-05-27T11:12:04Z</time>
      </trkpt>
      <trkpt lat="45.7031" lon="5.27256">
        <ele>389</ele>
        <time>2025-05-27T11:12:05Z</time>
      </trkpt>
      <trkpt lat="45.70319" lon="5.27256">
        <ele>388.4</ele>
        <time>2025-05-27T11:12:06Z</time>
      </trkpt>
      <trkpt lat="45.70323" lon="5.27255">
        <ele>387.8</ele>
        <time>2025-05-27T11:12:07Z</time>
      </trkpt>
      <trkpt lat="45.70329" lon="5.27254">
        <ele>387.8</ele>
        <time>2025-05-27T11:12:08Z</time>
      </trkpt>
      <trkpt lat="45.70336" lon="5.27252">
        <ele>387.4</ele>
        <time>2025-05-27T11:12:09Z</time>
      </trkpt>
      <trkpt lat="45.7034" lon="5.27251">
        <ele>386.8</ele>
        <time>2025-05-27T11:12:10Z</time>
      </trkpt>
      <trkpt lat="45.70347" lon="5.27248">
        <ele>386.8</ele>
        <time>2025-05-27T11:12:11Z</time>
      </trkpt>
      <trkpt lat="45.70355" lon="5.27247">
        <ele>386.4</ele>
        <time>2025-05-27T11:12:12Z</time>
      </trkpt>
      <trkpt lat="45.70362" lon="5.27248">
        <ele>385.8</ele>
        <time>2025-05-27T11:12:13Z</time>
      </trkpt>
      <trkpt lat="45.70366" lon="5.27248">
        <ele>385.8</ele>
        <time>2025-05-27T11:12:14Z</time>
      </trkpt>
      <trkpt lat="45.70368" lon="5.27247">
        <ele>385.8</ele>
        <time>2025-05-27T11:12:15Z</time>
      </trkpt>
      <trkpt lat="45.70373" lon="5.27245">
        <ele>385.8</ele>
        <time>2025-05-27T11:12:16Z</time>
      </trkpt>
      <trkpt lat="45.70377" lon="5.27243">
        <ele>385.8</ele>
        <time>2025-05-27T11:12:17Z</time>
      </trkpt>
      <trkpt lat="45.70377" lon="5.2724">
        <ele>386</ele>
        <time>2025-05-27T11:12:18Z</time>
      </trkpt>
      <trkpt lat="45.70385" lon="5.27238">
        <ele>386</ele>
        <time>2025-05-27T11:12:19Z</time>
      </trkpt>
      <trkpt lat="45.70387" lon="5.27237">
        <ele>386</ele>
        <time>2025-05-27T11:12:20Z</time>
      </trkpt>
      <trkpt lat="45.70389" lon="5.27237">
        <ele>386</ele>
        <time>2025-05-27T11:12:21Z</time>
      </trkpt>
      <trkpt lat="45.7039" lon="5.27234">
        <ele>385.8</ele>
        <time>2025-05-27T11:12:22Z</time>
      </trkpt>
      <trkpt lat="45.70388" lon="5.2723">
        <ele>386.2</ele>
        <time>2025-05-27T11:12:23Z</time>
      </trkpt>
      <trkpt lat="45.70391" lon="5.27227">
        <ele>385.8</ele>
        <time>2025-05-27T11:12:24Z</time>
      </trkpt>
      <trkpt lat="45.70393" lon="5.27224">
        <ele>385.8</ele>
        <time>2025-05-27T11:12:25Z</time>
      </trkpt>
      <trkpt lat="45.70394" lon="5.2722">
        <ele>385.4</ele>
        <time>2025-05-27T11:12:26Z</time>
      </trkpt>
      <trkpt lat="45.70396" lon="5.27214">
        <ele>385.2</ele>
        <time>2025-05-27T11:12:27Z</time>
      </trkpt>
      <trkpt lat="45.70398" lon="5.2721">
        <ele>385.2</ele>
        <time>2025-05-27T11:12:28Z</time>
      </trkpt>
      <trkpt lat="45.70399" lon="5.27205">
        <ele>385.2</ele>
        <time>2025-05-27T11:12:29Z</time>
      </trkpt>
      <trkpt lat="45.70391" lon="5.27199">
        <ele>385.2</ele>
        <time>2025-05-27T11:12:30Z</time>
      </trkpt>
      <trkpt lat="45.7039" lon="5.27193">
        <ele>385.2</ele>
        <time>2025-05-27T11:12:31Z</time>
      </trkpt>
      <trkpt lat="45.7039" lon="5.27186">
        <ele>385</ele>
        <time>2025-05-27T11:12:32Z</time>
      </trkpt>
      <trkpt lat="45.70388" lon="5.2718">
        <ele>384.6</ele>
        <time>2025-05-27T11:12:33Z</time>
      </trkpt>
      <trkpt lat="45.70387" lon="5.27175">
        <ele>384.6</ele>
        <time>2025-05-27T11:12:34Z</time>
      </trkpt>
      <trkpt lat="45.70386" lon="5.27169">
        <ele>384.6</ele>
        <time>2025-05-27T11:12:35Z</time>
      </trkpt>
      <trkpt lat="45.70385" lon="5.27165">
        <ele>384.6</ele>
        <time>2025-05-27T11:12:36Z</time>
      </trkpt>
      <trkpt lat="45.70386" lon="5.27164">
        <ele>384.6</ele>
        <time>2025-05-27T11:12:37Z</time>
      </trkpt>
      <trkpt lat="45.70386" lon="5.27161">
        <ele>384.6</ele>
        <time>2025-05-27T11:12:38Z</time>
      </trkpt>
      <trkpt lat="45.70384" lon="5.27157">
        <ele>384</ele>
        <time>2025-05-27T11:12:39Z</time>
      </trkpt>
      <trkpt lat="45.70383" lon="5.27154">
        <ele>383.4</ele>
        <time>2025-05-27T11:12:40Z</time>
      </trkpt>
      <trkpt lat="45.70382" lon="5.27152">
        <ele>383</ele>
        <time>2025-05-27T11:12:41Z</time>
      </trkpt>
      <trkpt lat="45.70381" lon="5.27149">
        <ele>382.8</ele>
        <time>2025-05-27T11:12:42Z</time>
      </trkpt>
      <trkpt lat="45.7038" lon="5.27147">
        <ele>382.6</ele>
        <time>2025-05-27T11:12:43Z</time>
      </trkpt>
      <trkpt lat="45.7038" lon="5.27147">
        <ele>382.6</ele>
        <time>2025-05-27T11:12:44Z</time>
      </trkpt>
      <trkpt lat="45.7038" lon="5.27146">
        <ele>382.6</ele>
        <time>2025-05-27T11:12:45Z</time>
      </trkpt>
      <trkpt lat="45.70374" lon="5.27143">
        <ele>381.4</ele>
        <time>2025-05-27T11:13:48Z</time>
      </trkpt>
      <trkpt lat="45.70374" lon="5.27142">
        <ele>381.4</ele>
        <time>2025-05-27T11:13:49Z</time>
      </trkpt>
      <trkpt lat="45.70374" lon="5.27141">
        <ele>381.4</ele>
        <time>2025-05-27T11:13:50Z</time>
      </trkpt>
      <trkpt lat="45.70374" lon="5.27141">
        <ele>381.4</ele>
        <time>2025-05-27T11:13:51Z</time>
      </trkpt>
      <trkpt lat="45.70379" lon="5.27135">
        <ele>381.8</ele>
        <time>2025-05-27T11:15:08Z</time>
      </trkpt>
      <trkpt lat="45.70379" lon="5.27133">
        <ele>381.8</ele>
        <time>2025-05-27T11:15:09Z</time>
      </trkpt>
      <trkpt lat="45.70378" lon="5.27129">
        <ele>381.6</ele>
        <time>2025-05-27T11:15:10Z</time>
      </trkpt>
      <trkpt lat="45.70378" lon="5.27123">
        <ele>381.4</ele>
        <time>2025-05-27T11:15:11Z</time>
      </trkpt>
      <trkpt lat="45.70379" lon="5.27118">
        <ele>380.8</ele>
        <time>2025-05-27T11:15:12Z</time>
      </trkpt>
      <trkpt lat="45.70379" lon="5.27118">
        <ele>380.2</ele>
        <time>2025-05-27T11:15:13Z</time>
      </trkpt>
      <trkpt lat="45.70381" lon="5.27112">
        <ele>380.2</ele>
        <time>2025-05-27T11:15:14Z</time>
      </trkpt>
      <trkpt lat="45.70383" lon="5.27107">
        <ele>380</ele>
        <time>2025-05-27T11:15:15Z</time>
      </trkpt>
      <trkpt lat="45.70385" lon="5.27103">
        <ele>380</ele>
        <time>2025-05-27T11:15:16Z</time>
      </trkpt>
      <trkpt lat="45.70388" lon="5.27098">
        <ele>380</ele>
        <time>2025-05-27T11:15:17Z</time>
      </trkpt>
      <trkpt lat="45.7039" lon="5.27093">
        <ele>379.2</ele>
        <time>2025-05-27T11:15:18Z</time>
      </trkpt>
      <trkpt lat="45.70392" lon="5.27089">
        <ele>379</ele>
        <time>2025-05-27T11:15:19Z</time>
      </trkpt>
      <trkpt lat="45.70394" lon="5.27085">
        <ele>378.6</ele>
        <time>2025-05-27T11:15:20Z</time>
      </trkpt>
      <trkpt lat="45.70399" lon="5.27077">
        <ele>378.6</ele>
        <time>2025-05-27T11:15:21Z</time>
      </trkpt>
      <trkpt lat="45.70402" lon="5.27074">
        <ele>378.6</ele>
        <time>2025-05-27T11:15:22Z</time>
      </trkpt>
      <trkpt lat="45.70401" lon="5.27069">
        <ele>378.6</ele>
        <time>2025-05-27T11:15:23Z</time>
      </trkpt>
      <trkpt lat="45.704" lon="5.27067">
        <ele>378.4</ele>
        <time>2025-05-27T11:15:24Z</time>
      </trkpt>
      <trkpt lat="45.70401" lon="5.27064">
        <ele>378.4</ele>
        <time>2025-05-27T11:15:25Z</time>
      </trkpt>
      <trkpt lat="45.70401" lon="5.27061">
        <ele>378.4</ele>
        <time>2025-05-27T11:15:26Z</time>
      </trkpt>
      <trkpt lat="45.70402" lon="5.27058">
        <ele>378</ele>
        <time>2025-05-27T11:15:27Z</time>
      </trkpt>
      <trkpt lat="45.70405" lon="5.27057">
        <ele>377.4</ele>
        <time>2025-05-27T11:15:28Z</time>
      </trkpt>
      <trkpt lat="45.70407" lon="5.27054">
        <ele>376.8</ele>
        <time>2025-05-27T11:15:29Z</time>
      </trkpt>
      <trkpt lat="45.70409" lon="5.27051">
        <ele>376.8</ele>
        <time>2025-05-27T11:15:30Z</time>
      </trkpt>
      <trkpt lat="45.70414" lon="5.27051">
        <ele>376.4</ele>
        <time>2025-05-27T11:15:31Z</time>
      </trkpt>
      <trkpt lat="45.70415" lon="5.27048">
        <ele>375.6</ele>
        <time>2025-05-27T11:15:32Z</time>
      </trkpt>
      <trkpt lat="45.70415" lon="5.27046">
        <ele>375</ele>
        <time>2025-05-27T11:15:33Z</time>
      </trkpt>
      <trkpt lat="45.70415" lon="5.27043">
        <ele>374.6</ele>
        <time>2025-05-27T11:15:34Z</time>
      </trkpt>
      <trkpt lat="45.70416" lon="5.27041">
        <ele>374.6</ele>
        <time>2025-05-27T11:15:35Z</time>
      </trkpt>
      <trkpt lat="45.70417" lon="5.27039">
        <ele>373.6</ele>
        <time>2025-05-27T11:15:36Z</time>
      </trkpt>
      <trkpt lat="45.7042" lon="5.27035">
        <ele>372</ele>
        <time>2025-05-27T11:15:37Z</time>
      </trkpt>
      <trkpt lat="45.70423" lon="5.2703">
        <ele>371.2</ele>
        <time>2025-05-27T11:15:38Z</time>
      </trkpt>
      <trkpt lat="45.70425" lon="5.27026">
        <ele>370.8</ele>
        <time>2025-05-27T11:15:39Z</time>
      </trkpt>
      <trkpt lat="45.70427" lon="5.27024">
        <ele>370.4</ele>
        <time>2025-05-27T11:15:40Z</time>
      </trkpt>
      <trkpt lat="45.70429" lon="5.2702">
        <ele>369.4</ele>
        <time>2025-05-27T11:15:41Z</time>
      </trkpt>
      <trkpt lat="45.70431" lon="5.27015">
        <ele>369.4</ele>
        <time>2025-05-27T11:15:42Z</time>
      </trkpt>
      <trkpt lat="45.70434" lon="5.27012">
        <ele>368.2</ele>
        <time>2025-05-27T11:15:43Z</time>
      </trkpt>
      <trkpt lat="45.7044" lon="5.27004">
        <ele>367.8</ele>
        <time>2025-05-27T11:15:44Z</time>
      </trkpt>
      <trkpt lat="45.70448" lon="5.26998">
        <ele>366.2</ele>
        <time>2025-05-27T11:15:45Z</time>
      </trkpt>
      <trkpt lat="45.70455" lon="5.26991">
        <ele>367</ele>
        <time>2025-05-27T11:15:46Z</time>
      </trkpt>
      <trkpt lat="45.7046" lon="5.26987">
        <ele>366.2</ele>
        <time>2025-05-27T11:15:47Z</time>
      </trkpt>
      <trkpt lat="45.70466" lon="5.26984">
        <ele>365.2</ele>
        <time>2025-05-27T11:15:48Z</time>
      </trkpt>
      <trkpt lat="45.70472" lon="5.2698">
        <ele>364.2</ele>
        <time>2025-05-27T11:15:49Z</time>
      </trkpt>
      <trkpt lat="45.70478" lon="5.26977">
        <ele>364.6</ele>
        <time>2025-05-27T11:15:50Z</time>
      </trkpt>
      <trkpt lat="45.70485" lon="5.26971">
        <ele>365.2</ele>
        <time>2025-05-27T11:15:51Z</time>
      </trkpt>
      <trkpt lat="45.7049" lon="5.2697">
        <ele>364.6</ele>
        <time>2025-05-27T11:15:52Z</time>
      </trkpt>
      <trkpt lat="45.70494" lon="5.26965">
        <ele>364.6</ele>
        <time>2025-05-27T11:15:53Z</time>
      </trkpt>
      <trkpt lat="45.70497" lon="5.26959">
        <ele>365</ele>
        <time>2025-05-27T11:15:54Z</time>
      </trkpt>
      <trkpt lat="45.70503" lon="5.26954">
        <ele>364</ele>
        <time>2025-05-27T11:15:55Z</time>
      </trkpt>
      <trkpt lat="45.70506" lon="5.26948">
        <ele>363.2</ele>
        <time>2025-05-27T11:15:56Z</time>
      </trkpt>
      <trkpt lat="45.70506" lon="5.26945">
        <ele>362</ele>
        <time>2025-05-27T11:15:57Z</time>
      </trkpt>
      <trkpt lat="45.70506" lon="5.2694">
        <ele>362</ele>
        <time>2025-05-27T11:15:58Z</time>
      </trkpt>
      <trkpt lat="45.70508" lon="5.26933">
        <ele>361.8</ele>
        <time>2025-05-27T11:15:59Z</time>
      </trkpt>
      <trkpt lat="45.70509" lon="5.26924">
        <ele>361</ele>
        <time>2025-05-27T11:16:00Z</time>
      </trkpt>
      <trkpt lat="45.70513" lon="5.26917">
        <ele>360.4</ele>
        <time>2025-05-27T11:16:01Z</time>
      </trkpt>
      <trkpt lat="45.70515" lon="5.26908">
        <ele>360.4</ele>
        <time>2025-05-27T11:16:02Z</time>
      </trkpt>
      <trkpt lat="45.70518" lon="5.26901">
        <ele>359</ele>
        <time>2025-05-27T11:16:03Z</time>
      </trkpt>
      <trkpt lat="45.70522" lon="5.26891">
        <ele>358.2</ele>
        <time>2025-05-27T11:16:04Z</time>
      </trkpt>
      <trkpt lat="45.7053" lon="5.26887">
        <ele>356.8</ele>
        <time>2025-05-27T11:16:05Z</time>
      </trkpt>
      <trkpt lat="45.70533" lon="5.2688">
        <ele>356.8</ele>
        <time>2025-05-27T11:16:06Z</time>
      </trkpt>
      <trkpt lat="45.70537" lon="5.26872">
        <ele>356.4</ele>
        <time>2025-05-27T11:16:07Z</time>
      </trkpt>
      <trkpt lat="45.70542" lon="5.26865">
        <ele>355.4</ele>
        <time>2025-05-27T11:16:08Z</time>
      </trkpt>
      <trkpt lat="45.70544" lon="5.26858">
        <ele>355</ele>
        <time>2025-05-27T11:16:09Z</time>
      </trkpt>
      <trkpt lat="45.70546" lon="5.26848">
        <ele>355</ele>
        <time>2025-05-27T11:16:10Z</time>
      </trkpt>
      <trkpt lat="45.70548" lon="5.26843">
        <ele>355</ele>
        <time>2025-05-27T11:16:11Z</time>
      </trkpt>
      <trkpt lat="45.7055" lon="5.26835">
        <ele>355.4</ele>
        <time>2025-05-27T11:16:12Z</time>
      </trkpt>
      <trkpt lat="45.70551" lon="5.26832">
        <ele>355</ele>
        <time>2025-05-27T11:16:13Z</time>
      </trkpt>
      <trkpt lat="45.70553" lon="5.26828">
        <ele>354.6</ele>
        <time>2025-05-27T11:16:14Z</time>
      </trkpt>
      <trkpt lat="45.70553" lon="5.26822">
        <ele>353.8</ele>
        <time>2025-05-27T11:16:15Z</time>
      </trkpt>
      <trkpt lat="45.70554" lon="5.26815">
        <ele>354.2</ele>
        <time>2025-05-27T11:16:16Z</time>
      </trkpt>
      <trkpt lat="45.70556" lon="5.26808">
        <ele>354</ele>
        <time>2025-05-27T11:16:17Z</time>
      </trkpt>
      <trkpt lat="45.70562" lon="5.26806">
        <ele>354</ele>
        <time>2025-05-27T11:16:18Z</time>
      </trkpt>
      <trkpt lat="45.70567" lon="5.26802">
        <ele>354</ele>
        <time>2025-05-27T11:16:19Z</time>
      </trkpt>
      <trkpt lat="45.70572" lon="5.26797">
        <ele>353.2</ele>
        <time>2025-05-27T11:16:20Z</time>
      </trkpt>
      <trkpt lat="45.7057" lon="5.2679">
        <ele>351.8</ele>
        <time>2025-05-27T11:16:21Z</time>
      </trkpt>
      <trkpt lat="45.70573" lon="5.26782">
        <ele>351.8</ele>
        <time>2025-05-27T11:16:22Z</time>
      </trkpt>
      <trkpt lat="45.70576" lon="5.26775">
        <ele>351.8</ele>
        <time>2025-05-27T11:16:23Z</time>
      </trkpt>
      <trkpt lat="45.70578" lon="5.26769">
        <ele>351.8</ele>
        <time>2025-05-27T11:16:24Z</time>
      </trkpt>
      <trkpt lat="45.70581" lon="5.26762">
        <ele>351.8</ele>
        <time>2025-05-27T11:16:25Z</time>
      </trkpt>
      <trkpt lat="45.70584" lon="5.26755">
        <ele>351</ele>
        <time>2025-05-27T11:16:26Z</time>
      </trkpt>
      <trkpt lat="45.70587" lon="5.26745">
        <ele>351</ele>
        <time>2025-05-27T11:16:27Z</time>
      </trkpt>
      <trkpt lat="45.70591" lon="5.26739">
        <ele>350.6</ele>
        <time>2025-05-27T11:16:28Z</time>
      </trkpt>
      <trkpt lat="45.70594" lon="5.26733">
        <ele>350.6</ele>
        <time>2025-05-27T11:16:29Z</time>
      </trkpt>
      <trkpt lat="45.70597" lon="5.26729">
        <ele>350.4</ele>
        <time>2025-05-27T11:16:30Z</time>
      </trkpt>
      <trkpt lat="45.706" lon="5.2672">
        <ele>350.4</ele>
        <time>2025-05-27T11:16:31Z</time>
      </trkpt>
      <trkpt lat="45.70603" lon="5.26713">
        <ele>350.4</ele>
        <time>2025-05-27T11:16:32Z</time>
      </trkpt>
      <trkpt lat="45.70605" lon="5.26706">
        <ele>350.4</ele>
        <time>2025-05-27T11:16:33Z</time>
      </trkpt>
      <trkpt lat="45.70608" lon="5.26703">
        <ele>350.4</ele>
        <time>2025-05-27T11:16:34Z</time>
      </trkpt>
      <trkpt lat="45.70611" lon="5.26698">
        <ele>350</ele>
        <time>2025-05-27T11:16:35Z</time>
      </trkpt>
      <trkpt lat="45.70614" lon="5.26693">
        <ele>349.4</ele>
        <time>2025-05-27T11:16:36Z</time>
      </trkpt>
      <trkpt lat="45.70615" lon="5.26688">
        <ele>349.4</ele>
        <time>2025-05-27T11:16:37Z</time>
      </trkpt>
      <trkpt lat="45.70617" lon="5.2668">
        <ele>349.4</ele>
        <time>2025-05-27T11:16:38Z</time>
      </trkpt>
      <trkpt lat="45.70618" lon="5.26674">
        <ele>349.6</ele>
        <time>2025-05-27T11:16:39Z</time>
      </trkpt>
      <trkpt lat="45.7062" lon="5.26667">
        <ele>348.8</ele>
        <time>2025-05-27T11:16:40Z</time>
      </trkpt>
      <trkpt lat="45.70621" lon="5.26661">
        <ele>349.2</ele>
        <time>2025-05-27T11:16:41Z</time>
      </trkpt>
      <trkpt lat="45.70621" lon="5.26654">
        <ele>349.4</ele>
        <time>2025-05-27T11:16:42Z</time>
      </trkpt>
      <trkpt lat="45.70623" lon="5.26647">
        <ele>349.4</ele>
        <time>2025-05-27T11:16:43Z</time>
      </trkpt>
      <trkpt lat="45.70624" lon="5.26641">
        <ele>349.4</ele>
        <time>2025-05-27T11:16:44Z</time>
      </trkpt>
      <trkpt lat="45.70625" lon="5.26636">
        <ele>349.6</ele>
        <time>2025-05-27T11:16:45Z</time>
      </trkpt>
      <trkpt lat="45.70628" lon="5.26633">
        <ele>350</ele>
        <time>2025-05-27T11:16:46Z</time>
      </trkpt>
      <trkpt lat="45.70629" lon="5.26629">
        <ele>350</ele>
        <time>2025-05-27T11:16:47Z</time>
      </trkpt>
      <trkpt lat="45.70629" lon="5.26624">
        <ele>349.6</ele>
        <time>2025-05-27T11:16:48Z</time>
      </trkpt>
      <trkpt lat="45.7063" lon="5.26619">
        <ele>349.6</ele>
        <time>2025-05-27T11:16:49Z</time>
      </trkpt>
      <trkpt lat="45.7063" lon="5.26614">
        <ele>349.4</ele>
        <time>2025-05-27T11:16:50Z</time>
      </trkpt>
      <trkpt lat="45.7063" lon="5.26609">
        <ele>349.4</ele>
        <time>2025-05-27T11:16:51Z</time>
      </trkpt>
      <trkpt lat="45.70631" lon="5.26605">
        <ele>349</ele>
        <time>2025-05-27T11:16:52Z</time>
      </trkpt>
      <trkpt lat="45.70632" lon="5.26605">
        <ele>349.4</ele>
        <time>2025-05-27T11:16:53Z</time>
      </trkpt>
      <trkpt lat="45.70632" lon="5.26602">
        <ele>349.2</ele>
        <time>2025-05-27T11:16:54Z</time>
      </trkpt>
      <trkpt lat="45.70632" lon="5.26601">
        <ele>349.2</ele>
        <time>2025-05-27T11:16:55Z</time>
      </trkpt>
      <trkpt lat="45.70632" lon="5.26601">
        <ele>349.2</ele>
        <time>2025-05-27T11:16:56Z</time>
      </trkpt>
      <trkpt lat="45.70632" lon="5.26599">
        <ele>348.8</ele>
        <time>2025-05-27T11:16:59Z</time>
      </trkpt>
      <trkpt lat="45.70632" lon="5.26596">
        <ele>348.6</ele>
        <time>2025-05-27T11:17:00Z</time>
      </trkpt>
      <trkpt lat="45.70633" lon="5.26592">
        <ele>348.2</ele>
        <time>2025-05-27T11:17:01Z</time>
      </trkpt>
      <trkpt lat="45.70633" lon="5.26588">
        <ele>347.6</ele>
        <time>2025-05-27T11:17:02Z</time>
      </trkpt>
      <trkpt lat="45.70632" lon="5.26583">
        <ele>346.4</ele>
        <time>2025-05-27T11:17:03Z</time>
      </trkpt>
      <trkpt lat="45.70631" lon="5.26578">
        <ele>345.4</ele>
        <time>2025-05-27T11:17:04Z</time>
      </trkpt>
      <trkpt lat="45.7063" lon="5.26573">
        <ele>345.2</ele>
        <time>2025-05-27T11:17:05Z</time>
      </trkpt>
      <trkpt lat="45.70626" lon="5.26569">
        <ele>345.2</ele>
        <time>2025-05-27T11:17:06Z</time>
      </trkpt>
      <trkpt lat="45.70625" lon="5.26563">
        <ele>345.6</ele>
        <time>2025-05-27T11:17:07Z</time>
      </trkpt>
      <trkpt lat="45.70623" lon="5.26558">
        <ele>345.2</ele>
        <time>2025-05-27T11:17:08Z</time>
      </trkpt>
      <trkpt lat="45.70623" lon="5.26553">
        <ele>345.4</ele>
        <time>2025-05-27T11:17:09Z</time>
      </trkpt>
      <trkpt lat="45.70623" lon="5.26545">
        <ele>344.8</ele>
        <time>2025-05-27T11:17:10Z</time>
      </trkpt>
      <trkpt lat="45.70622" lon="5.26538">
        <ele>343.6</ele>
        <time>2025-05-27T11:17:11Z</time>
      </trkpt>
      <trkpt lat="45.70621" lon="5.2653">
        <ele>343.8</ele>
        <time>2025-05-27T11:17:12Z</time>
      </trkpt>
      <trkpt lat="45.7062" lon="5.26521">
        <ele>344.8</ele>
        <time>2025-05-27T11:17:13Z</time>
      </trkpt>
      <trkpt lat="45.70618" lon="5.26513">
        <ele>344.6</ele>
        <time>2025-05-27T11:17:14Z</time>
      </trkpt>
      <trkpt lat="45.70619" lon="5.26505">
        <ele>344.6</ele>
        <time>2025-05-27T11:17:15Z</time>
      </trkpt>
      <trkpt lat="45.70618" lon="5.26497">
        <ele>344</ele>
        <time>2025-05-27T11:17:16Z</time>
      </trkpt>
      <trkpt lat="45.70618" lon="5.26491">
        <ele>343</ele>
        <time>2025-05-27T11:17:17Z</time>
      </trkpt>
      <trkpt lat="45.70617" lon="5.26485">
        <ele>342.4</ele>
        <time>2025-05-27T11:17:18Z</time>
      </trkpt>
      <trkpt lat="45.70618" lon="5.2648">
        <ele>341.2</ele>
        <time>2025-05-27T11:17:19Z</time>
      </trkpt>
      <trkpt lat="45.70618" lon="5.26474">
        <ele>341.8</ele>
        <time>2025-05-27T11:17:20Z</time>
      </trkpt>
      <trkpt lat="45.70617" lon="5.2647">
        <ele>342</ele>
        <time>2025-05-27T11:17:21Z</time>
      </trkpt>
      <trkpt lat="45.70617" lon="5.26464">
        <ele>341.4</ele>
        <time>2025-05-27T11:17:22Z</time>
      </trkpt>
      <trkpt lat="45.70616" lon="5.26456">
        <ele>341.4</ele>
        <time>2025-05-27T11:17:23Z</time>
      </trkpt>
      <trkpt lat="45.70616" lon="5.26451">
        <ele>340.8</ele>
        <time>2025-05-27T11:17:24Z</time>
      </trkpt>
      <trkpt lat="45.70616" lon="5.26447">
        <ele>340.4</ele>
        <time>2025-05-27T11:17:25Z</time>
      </trkpt>
      <trkpt lat="45.70616" lon="5.26443">
        <ele>340.4</ele>
        <time>2025-05-27T11:17:26Z</time>
      </trkpt>
      <trkpt lat="45.70614" lon="5.26438">
        <ele>340.4</ele>
        <time>2025-05-27T11:17:27Z</time>
      </trkpt>
      <trkpt lat="45.70613" lon="5.26433">
        <ele>339.6</ele>
        <time>2025-05-27T11:17:28Z</time>
      </trkpt>
      <trkpt lat="45.7061" lon="5.26427">
        <ele>339.6</ele>
        <time>2025-05-27T11:17:29Z</time>
      </trkpt>
      <trkpt lat="45.70608" lon="5.26423">
        <ele>339.6</ele>
        <time>2025-05-27T11:17:30Z</time>
      </trkpt>
      <trkpt lat="45.70602" lon="5.26418">
        <ele>339.4</ele>
        <time>2025-05-27T11:17:31Z</time>
      </trkpt>
      <trkpt lat="45.70598" lon="5.26414">
        <ele>338.8</ele>
        <time>2025-05-27T11:17:32Z</time>
      </trkpt>
      <trkpt lat="45.70595" lon="5.26409">
        <ele>339.2</ele>
        <time>2025-05-27T11:17:33Z</time>
      </trkpt>
      <trkpt lat="45.70592" lon="5.26405">
        <ele>338</ele>
        <time>2025-05-27T11:17:34Z</time>
      </trkpt>
      <trkpt lat="45.70586" lon="5.26399">
        <ele>337.6</ele>
        <time>2025-05-27T11:17:35Z</time>
      </trkpt>
      <trkpt lat="45.70581" lon="5.26396">
        <ele>337</ele>
        <time>2025-05-27T11:17:36Z</time>
      </trkpt>
      <trkpt lat="45.70576" lon="5.26392">
        <ele>337</ele>
        <time>2025-05-27T11:17:37Z</time>
      </trkpt>
      <trkpt lat="45.7057" lon="5.26389">
        <ele>336.4</ele>
        <time>2025-05-27T11:17:38Z</time>
      </trkpt>
      <trkpt lat="45.70566" lon="5.26389">
        <ele>336.8</ele>
        <time>2025-05-27T11:17:39Z</time>
      </trkpt>
      <trkpt lat="45.70562" lon="5.26388">
        <ele>336.8</ele>
        <time>2025-05-27T11:17:40Z</time>
      </trkpt>
      <trkpt lat="45.70559" lon="5.26387">
        <ele>336.4</ele>
        <time>2025-05-27T11:17:41Z</time>
      </trkpt>
      <trkpt lat="45.70556" lon="5.26385">
        <ele>336.2</ele>
        <time>2025-05-27T11:17:42Z</time>
      </trkpt>
      <trkpt lat="45.70554" lon="5.26383">
        <ele>336.6</ele>
        <time>2025-05-27T11:17:43Z</time>
      </trkpt>
      <trkpt lat="45.7055" lon="5.26384">
        <ele>336.6</ele>
        <time>2025-05-27T11:17:44Z</time>
      </trkpt>
      <trkpt lat="45.70549" lon="5.26383">
        <ele>336</ele>
        <time>2025-05-27T11:17:45Z</time>
      </trkpt>
      <trkpt lat="45.70548" lon="5.26382">
        <ele>335.4</ele>
        <time>2025-05-27T11:17:46Z</time>
      </trkpt>
      <trkpt lat="45.70546" lon="5.2638">
        <ele>335</ele>
        <time>2025-05-27T11:17:47Z</time>
      </trkpt>
      <trkpt lat="45.70546" lon="5.26378">
        <ele>334.8</ele>
        <time>2025-05-27T11:17:48Z</time>
      </trkpt>
      <trkpt lat="45.70546" lon="5.26377">
        <ele>334.8</ele>
        <time>2025-05-27T11:17:49Z</time>
      </trkpt>
      <trkpt lat="45.70545" lon="5.26377">
        <ele>334.4</ele>
        <time>2025-05-27T11:17:50Z</time>
      </trkpt>
      <trkpt lat="45.70548" lon="5.26374">
        <ele>334</ele>
        <time>2025-05-27T11:17:56Z</time>
      </trkpt>
      <trkpt lat="45.70551" lon="5.26374">
        <ele>333.4</ele>
        <time>2025-05-27T11:17:57Z</time>
      </trkpt>
      <trkpt lat="45.70553" lon="5.26374">
        <ele>333.4</ele>
        <time>2025-05-27T11:17:58Z</time>
      </trkpt>
      <trkpt lat="45.70556" lon="5.26373">
        <ele>332.8</ele>
        <time>2025-05-27T11:17:59Z</time>
      </trkpt>
      <trkpt lat="45.70558" lon="5.26373">
        <ele>332.8</ele>
        <time>2025-05-27T11:18:00Z</time>
      </trkpt>
      <trkpt lat="45.7056" lon="5.26372">
        <ele>332.8</ele>
        <time>2025-05-27T11:18:01Z</time>
      </trkpt>
      <trkpt lat="45.70562" lon="5.26372">
        <ele>332.8</ele>
        <time>2025-05-27T11:18:02Z</time>
      </trkpt>
      <trkpt lat="45.70562" lon="5.26371">
        <ele>332.8</ele>
        <time>2025-05-27T11:18:03Z</time>
      </trkpt>
      <trkpt lat="45.70562" lon="5.26371">
        <ele>332.8</ele>
        <time>2025-05-27T11:18:04Z</time>
      </trkpt>
      <trkpt lat="45.70561" lon="5.26371">
        <ele>332.2</ele>
        <time>2025-05-27T11:18:20Z</time>
      </trkpt>
      <trkpt lat="45.70563" lon="5.2637">
        <ele>332.2</ele>
        <time>2025-05-27T11:18:21Z</time>
      </trkpt>
      <trkpt lat="45.70565" lon="5.2637">
        <ele>331.4</ele>
        <time>2025-05-27T11:18:22Z</time>
      </trkpt>
      <trkpt lat="45.70569" lon="5.26369">
        <ele>331</ele>
        <time>2025-05-27T11:18:23Z</time>
      </trkpt>
      <trkpt lat="45.70572" lon="5.26369">
        <ele>331</ele>
        <time>2025-05-27T11:18:24Z</time>
      </trkpt>
      <trkpt lat="45.70575" lon="5.26369">
        <ele>331</ele>
        <time>2025-05-27T11:18:25Z</time>
      </trkpt>
      <trkpt lat="45.70577" lon="5.26369">
        <ele>330.6</ele>
        <time>2025-05-27T11:18:26Z</time>
      </trkpt>
      <trkpt lat="45.70579" lon="5.26369">
        <ele>330.6</ele>
        <time>2025-05-27T11:18:27Z</time>
      </trkpt>
      <trkpt lat="45.70583" lon="5.26369">
        <ele>330</ele>
        <time>2025-05-27T11:18:28Z</time>
      </trkpt>
      <trkpt lat="45.70586" lon="5.26369">
        <ele>329.4</ele>
        <time>2025-05-27T11:18:29Z</time>
      </trkpt>
      <trkpt lat="45.70589" lon="5.26368">
        <ele>329</ele>
        <time>2025-05-27T11:18:30Z</time>
      </trkpt>
      <trkpt lat="45.70592" lon="5.26368">
        <ele>328.4</ele>
        <time>2025-05-27T11:18:31Z</time>
      </trkpt>
      <trkpt lat="45.70595" lon="5.26367">
        <ele>327.8</ele>
        <time>2025-05-27T11:18:32Z</time>
      </trkpt>
      <trkpt lat="45.70599" lon="5.26365">
        <ele>327.8</ele>
        <time>2025-05-27T11:18:33Z</time>
      </trkpt>
      <trkpt lat="45.70602" lon="5.26363">
        <ele>327.4</ele>
        <time>2025-05-27T11:18:34Z</time>
      </trkpt>
      <trkpt lat="45.70604" lon="5.26362">
        <ele>327.2</ele>
        <time>2025-05-27T11:18:35Z</time>
      </trkpt>
      <trkpt lat="45.70608" lon="5.26358">
        <ele>326.8</ele>
        <time>2025-05-27T11:18:36Z</time>
      </trkpt>
      <trkpt lat="45.70609" lon="5.26356">
        <ele>326.8</ele>
        <time>2025-05-27T11:18:37Z</time>
      </trkpt>
      <trkpt lat="45.7061" lon="5.26353">
        <ele>326.2</ele>
        <time>2025-05-27T11:18:38Z</time>
      </trkpt>
      <trkpt lat="45.70611" lon="5.26351">
        <ele>325.8</ele>
        <time>2025-05-27T11:18:39Z</time>
      </trkpt>
      <trkpt lat="45.70612" lon="5.26349">
        <ele>325.4</ele>
        <time>2025-05-27T11:18:40Z</time>
      </trkpt>
      <trkpt lat="45.70614" lon="5.26348">
        <ele>325.2</ele>
        <time>2025-05-27T11:18:41Z</time>
      </trkpt>
      <trkpt lat="45.70615" lon="5.26347">
        <ele>324.8</ele>
        <time>2025-05-27T11:18:42Z</time>
      </trkpt>
      <trkpt lat="45.70615" lon="5.26346">
        <ele>324.6</ele>
        <time>2025-05-27T11:18:43Z</time>
      </trkpt>
      <trkpt lat="45.70616" lon="5.26344">
        <ele>324.2</ele>
        <time>2025-05-27T11:18:44Z</time>
      </trkpt>
      <trkpt lat="45.70618" lon="5.26342">
        <ele>324</ele>
        <time>2025-05-27T11:18:45Z</time>
      </trkpt>
      <trkpt lat="45.70619" lon="5.2634">
        <ele>323.4</ele>
        <time>2025-05-27T11:18:46Z</time>
      </trkpt>
      <trkpt lat="45.7062" lon="5.26339">
        <ele>323</ele>
        <time>2025-05-27T11:18:47Z</time>
      </trkpt>
      <trkpt lat="45.70622" lon="5.26337">
        <ele>322.6</ele>
        <time>2025-05-27T11:18:48Z</time>
      </trkpt>
      <trkpt lat="45.70622" lon="5.26336">
        <ele>322.4</ele>
        <time>2025-05-27T11:18:49Z</time>
      </trkpt>
      <trkpt lat="45.70622" lon="5.26334">
        <ele>322.2</ele>
        <time>2025-05-27T11:18:50Z</time>
      </trkpt>
      <trkpt lat="45.70621" lon="5.26333">
        <ele>321.8</ele>
        <time>2025-05-27T11:18:51Z</time>
      </trkpt>
      <trkpt lat="45.70621" lon="5.26332">
        <ele>321.8</ele>
        <time>2025-05-27T11:18:52Z</time>
      </trkpt>
      <trkpt lat="45.70622" lon="5.26332">
        <ele>321.4</ele>
        <time>2025-05-27T11:18:53Z</time>
      </trkpt>
      <trkpt lat="45.70622" lon="5.26332">
        <ele>320.8</ele>
        <time>2025-05-27T11:18:54Z</time>
      </trkpt>
      <trkpt lat="45.70623" lon="5.2633">
        <ele>321</ele>
        <time>2025-05-27T11:19:01Z</time>
      </trkpt>
      <trkpt lat="45.70622" lon="5.26328">
        <ele>320.6</ele>
        <time>2025-05-27T11:19:02Z</time>
      </trkpt>
      <trkpt lat="45.70621" lon="5.26326">
        <ele>320.6</ele>
        <time>2025-05-27T11:19:03Z</time>
      </trkpt>
      <trkpt lat="45.70621" lon="5.26323">
        <ele>320</ele>
        <time>2025-05-27T11:19:04Z</time>
      </trkpt>
      <trkpt lat="45.70622" lon="5.2632">
        <ele>319.6</ele>
        <time>2025-05-27T11:19:05Z</time>
      </trkpt>
      <trkpt lat="45.70622" lon="5.26315">
        <ele>319.2</ele>
        <time>2025-05-27T11:19:06Z</time>
      </trkpt>
      <trkpt lat="45.70623" lon="5.26311">
        <ele>318.6</ele>
        <time>2025-05-27T11:19:07Z</time>
      </trkpt>
      <trkpt lat="45.70625" lon="5.26308">
        <ele>317.8</ele>
        <time>2025-05-27T11:19:08Z</time>
      </trkpt>
      <trkpt lat="45.70628" lon="5.26304">
        <ele>317.6</ele>
        <time>2025-05-27T11:19:09Z</time>
      </trkpt>
      <trkpt lat="45.7063" lon="5.263">
        <ele>317.4</ele>
        <time>2025-05-27T11:19:10Z</time>
      </trkpt>
      <trkpt lat="45.70631" lon="5.26298">
        <ele>316.2</ele>
        <time>2025-05-27T11:19:11Z</time>
      </trkpt>
      <trkpt lat="45.70631" lon="5.26294">
        <ele>315.6</ele>
        <time>2025-05-27T11:19:12Z</time>
      </trkpt>
      <trkpt lat="45.70632" lon="5.2629">
        <ele>315.2</ele>
        <time>2025-05-27T11:19:13Z</time>
      </trkpt>
      <trkpt lat="45.70632" lon="5.26285">
        <ele>315</ele>
        <time>2025-05-27T11:19:14Z</time>
      </trkpt>
      <trkpt lat="45.70632" lon="5.2628">
        <ele>314.2</ele>
        <time>2025-05-27T11:19:15Z</time>
      </trkpt>
      <trkpt lat="45.70631" lon="5.26275">
        <ele>314.2</ele>
        <time>2025-05-27T11:19:16Z</time>
      </trkpt>
      <trkpt lat="45.70631" lon="5.2627">
        <ele>313.8</ele>
        <time>2025-05-27T11:19:17Z</time>
      </trkpt>
      <trkpt lat="45.70631" lon="5.26265">
        <ele>313.4</ele>
        <time>2025-05-27T11:19:18Z</time>
      </trkpt>
      <trkpt lat="45.70631" lon="5.2626">
        <ele>313.4</ele>
        <time>2025-05-27T11:19:19Z</time>
      </trkpt>
      <trkpt lat="45.70632" lon="5.26256">
        <ele>313.2</ele>
        <time>2025-05-27T11:19:20Z</time>
      </trkpt>
      <trkpt lat="45.70632" lon="5.26251">
        <ele>312.4</ele>
        <time>2025-05-27T11:19:21Z</time>
      </trkpt>
      <trkpt lat="45.70632" lon="5.26245">
        <ele>312</ele>
        <time>2025-05-27T11:19:22Z</time>
      </trkpt>
      <trkpt lat="45.70633" lon="5.26241">
        <ele>311.6</ele>
        <time>2025-05-27T11:19:23Z</time>
      </trkpt>
      <trkpt lat="45.70634" lon="5.26237">
        <ele>311.2</ele>
        <time>2025-05-27T11:19:24Z</time>
      </trkpt>
      <trkpt lat="45.70635" lon="5.26234">
        <ele>311</ele>
        <time>2025-05-27T11:19:25Z</time>
      </trkpt>
      <trkpt lat="45.70636" lon="5.26231">
        <ele>310.6</ele>
        <time>2025-05-27T11:19:26Z</time>
      </trkpt>
      <trkpt lat="45.70639" lon="5.26228">
        <ele>310.2</ele>
        <time>2025-05-27T11:19:27Z</time>
      </trkpt>
      <trkpt lat="45.7064" lon="5.26225">
        <ele>309.6</ele>
        <time>2025-05-27T11:19:28Z</time>
      </trkpt>
      <trkpt lat="45.70642" lon="5.26223">
        <ele>309</ele>
        <time>2025-05-27T11:19:29Z</time>
      </trkpt>
      <trkpt lat="45.70643" lon="5.2622">
        <ele>308.6</ele>
        <time>2025-05-27T11:19:30Z</time>
      </trkpt>
      <trkpt lat="45.70644" lon="5.26217">
        <ele>308</ele>
        <time>2025-05-27T11:19:31Z</time>
      </trkpt>
      <trkpt lat="45.70644" lon="5.26213">
        <ele>308</ele>
        <time>2025-05-27T11:19:32Z</time>
      </trkpt>
      <trkpt lat="45.70643" lon="5.26209">
        <ele>307.6</ele>
        <time>2025-05-27T11:19:33Z</time>
      </trkpt>
      <trkpt lat="45.70642" lon="5.26205">
        <ele>306.4</ele>
        <time>2025-05-27T11:19:34Z</time>
      </trkpt>
      <trkpt lat="45.70642" lon="5.26202">
        <ele>305.8</ele>
        <time>2025-05-27T11:19:35Z</time>
      </trkpt>
      <trkpt lat="45.70642" lon="5.262">
        <ele>305.2</ele>
        <time>2025-05-27T11:19:36Z</time>
      </trkpt>
      <trkpt lat="45.70643" lon="5.26198">
        <ele>305</ele>
        <time>2025-05-27T11:19:37Z</time>
      </trkpt>
      <trkpt lat="45.70645" lon="5.26195">
        <ele>304.6</ele>
        <time>2025-05-27T11:19:38Z</time>
      </trkpt>
      <trkpt lat="45.70646" lon="5.26192">
        <ele>303.4</ele>
        <time>2025-05-27T11:19:39Z</time>
      </trkpt>
      <trkpt lat="45.70647" lon="5.26189">
        <ele>302.8</ele>
        <time>2025-05-27T11:19:40Z</time>
      </trkpt>
      <trkpt lat="45.70648" lon="5.26186">
        <ele>302.6</ele>
        <time>2025-05-27T11:19:41Z</time>
      </trkpt>
      <trkpt lat="45.7065" lon="5.26182">
        <ele>302</ele>
        <time>2025-05-27T11:19:42Z</time>
      </trkpt>
      <trkpt lat="45.70652" lon="5.26178">
        <ele>301.4</ele>
        <time>2025-05-27T11:19:43Z</time>
      </trkpt>
      <trkpt lat="45.70655" lon="5.26174">
        <ele>301</ele>
        <time>2025-05-27T11:19:44Z</time>
      </trkpt>
      <trkpt lat="45.70658" lon="5.2617">
        <ele>300.2</ele>
        <time>2025-05-27T11:19:45Z</time>
      </trkpt>
      <trkpt lat="45.70661" lon="5.26168">
        <ele>299.4</ele>
        <time>2025-05-27T11:19:46Z</time>
      </trkpt>
      <trkpt lat="45.70662" lon="5.26164">
        <ele>298.8</ele>
        <time>2025-05-27T11:19:47Z</time>
      </trkpt>
      <trkpt lat="45.70663" lon="5.26162">
        <ele>298.2</ele>
        <time>2025-05-27T11:19:48Z</time>
      </trkpt>
      <trkpt lat="45.70665" lon="5.26159">
        <ele>297.8</ele>
        <time>2025-05-27T11:19:49Z</time>
      </trkpt>
      <trkpt lat="45.70667" lon="5.26156">
        <ele>298</ele>
        <time>2025-05-27T11:19:50Z</time>
      </trkpt>
      <trkpt lat="45.70668" lon="5.26153">
        <ele>297.4</ele>
        <time>2025-05-27T11:19:51Z</time>
      </trkpt>
      <trkpt lat="45.70669" lon="5.2615">
        <ele>297</ele>
        <time>2025-05-27T11:19:52Z</time>
      </trkpt>
      <trkpt lat="45.70671" lon="5.26148">
        <ele>296.4</ele>
        <time>2025-05-27T11:19:53Z</time>
      </trkpt>
      <trkpt lat="45.70673" lon="5.26146">
        <ele>296.2</ele>
        <time>2025-05-27T11:19:54Z</time>
      </trkpt>
      <trkpt lat="45.70674" lon="5.26144">
        <ele>295.8</ele>
        <time>2025-05-27T11:19:55Z</time>
      </trkpt>
      <trkpt lat="45.70675" lon="5.26142">
        <ele>295.2</ele>
        <time>2025-05-27T11:19:56Z</time>
      </trkpt>
      <trkpt lat="45.70676" lon="5.2614">
        <ele>294.8</ele>
        <time>2025-05-27T11:19:57Z</time>
      </trkpt>
      <trkpt lat="45.70676" lon="5.26138">
        <ele>294.8</ele>
        <time>2025-05-27T11:19:58Z</time>
      </trkpt>
      <trkpt lat="45.70676" lon="5.26137">
        <ele>294.6</ele>
        <time>2025-05-27T11:19:59Z</time>
      </trkpt>
      <trkpt lat="45.70676" lon="5.26137">
        <ele>294.6</ele>
        <time>2025-05-27T11:20:00Z</time>
      </trkpt>
      <trkpt lat="45.70676" lon="5.26137">
        <ele>294.6</ele>
        <time>2025-05-27T11:20:01Z</time>
      </trkpt>
      <trkpt lat="45.70676" lon="5.26137">
        <ele>294.6</ele>
        <time>2025-05-27T11:20:02Z</time>
      </trkpt>
      <trkpt lat="45.70679" lon="5.26136">
        <ele>294.4</ele>
        <time>2025-05-27T11:20:07Z</time>
      </trkpt>
      <trkpt lat="45.7068" lon="5.26135">
        <ele>293.6</ele>
        <time>2025-05-27T11:20:08Z</time>
      </trkpt>
      <trkpt lat="45.70681" lon="5.26132">
        <ele>294</ele>
        <time>2025-05-27T11:20:09Z</time>
      </trkpt>
      <trkpt lat="45.70682" lon="5.26129">
        <ele>294</ele>
        <time>2025-05-27T11:20:10Z</time>
      </trkpt>
      <trkpt lat="45.70683" lon="5.26127">
        <ele>293.4</ele>
        <time>2025-05-27T11:20:11Z</time>
      </trkpt>
      <trkpt lat="45.70685" lon="5.26124">
        <ele>293.4</ele>
        <time>2025-05-27T11:20:12Z</time>
      </trkpt>
      <trkpt lat="45.70685" lon="5.26121">
        <ele>293</ele>
        <time>2025-05-27T11:20:13Z</time>
      </trkpt>
      <trkpt lat="45.70685" lon="5.26118">
        <ele>292.8</ele>
        <time>2025-05-27T11:20:14Z</time>
      </trkpt>
      <trkpt lat="45.70685" lon="5.26116">
        <ele>292.6</ele>
        <time>2025-05-27T11:20:15Z</time>
      </trkpt>
      <trkpt lat="45.70685" lon="5.26113">
        <ele>292.2</ele>
        <time>2025-05-27T11:20:16Z</time>
      </trkpt>
      <trkpt lat="45.70686" lon="5.2611">
        <ele>291.8</ele>
        <time>2025-05-27T11:20:17Z</time>
      </trkpt>
      <trkpt lat="45.70686" lon="5.26107">
        <ele>291.2</ele>
        <time>2025-05-27T11:20:18Z</time>
      </trkpt>
      <trkpt lat="45.70684" lon="5.26104">
        <ele>290.8</ele>
        <time>2025-05-27T11:20:19Z</time>
      </trkpt>
      <trkpt lat="45.70682" lon="5.26104">
        <ele>290.4</ele>
        <time>2025-05-27T11:20:20Z</time>
      </trkpt>
      <trkpt lat="45.7068" lon="5.26105">
        <ele>290</ele>
        <time>2025-05-27T11:20:21Z</time>
      </trkpt>
      <trkpt lat="45.70677" lon="5.26107">
        <ele>290</ele>
        <time>2025-05-27T11:20:22Z</time>
      </trkpt>
      <trkpt lat="45.70675" lon="5.26111">
        <ele>289.6</ele>
        <time>2025-05-27T11:20:23Z</time>
      </trkpt>
      <trkpt lat="45.70675" lon="5.26111">
        <ele>289.2</ele>
        <time>2025-05-27T11:20:24Z</time>
      </trkpt>
      <trkpt lat="45.70668" lon="5.26121">
        <ele>289.2</ele>
        <time>2025-05-27T11:20:25Z</time>
      </trkpt>
      <trkpt lat="45.70664" lon="5.26126">
        <ele>288.6</ele>
        <time>2025-05-27T11:20:26Z</time>
      </trkpt>
      <trkpt lat="45.7066" lon="5.26131">
        <ele>288.2</ele>
        <time>2025-05-27T11:20:27Z</time>
      </trkpt>
      <trkpt lat="45.70656" lon="5.26136">
        <ele>287</ele>
        <time>2025-05-27T11:20:28Z</time>
      </trkpt>
      <trkpt lat="45.70652" lon="5.2614">
        <ele>287</ele>
        <time>2025-05-27T11:20:29Z</time>
      </trkpt>
      <trkpt lat="45.7065" lon="5.26146">
        <ele>287</ele>
        <time>2025-05-27T11:20:30Z</time>
      </trkpt>
      <trkpt lat="45.70647" lon="5.26151">
        <ele>287</ele>
        <time>2025-05-27T11:20:31Z</time>
      </trkpt>
      <trkpt lat="45.70643" lon="5.26156">
        <ele>287</ele>
        <time>2025-05-27T11:20:32Z</time>
      </trkpt>
      <trkpt lat="45.70639" lon="5.2616">
        <ele>287</ele>
        <time>2025-05-27T11:20:33Z</time>
      </trkpt>
      <trkpt lat="45.70635" lon="5.26164">
        <ele>287</ele>
        <time>2025-05-27T11:20:34Z</time>
      </trkpt>
      <trkpt lat="45.70632" lon="5.26169">
        <ele>287</ele>
        <time>2025-05-27T11:20:35Z</time>
      </trkpt>
      <trkpt lat="45.70629" lon="5.26174">
        <ele>287</ele>
        <time>2025-05-27T11:20:36Z</time>
      </trkpt>
      <trkpt lat="45.70625" lon="5.26177">
        <ele>287.2</ele>
        <time>2025-05-27T11:20:37Z</time>
      </trkpt>
      <trkpt lat="45.70622" lon="5.26181">
        <ele>287.6</ele>
        <time>2025-05-27T11:20:38Z</time>
      </trkpt>
      <trkpt lat="45.70617" lon="5.26183">
        <ele>287.6</ele>
        <time>2025-05-27T11:20:39Z</time>
      </trkpt>
      <trkpt lat="45.70614" lon="5.26186">
        <ele>287.8</ele>
        <time>2025-05-27T11:20:40Z</time>
      </trkpt>
      <trkpt lat="45.70611" lon="5.26189">
        <ele>288</ele>
        <time>2025-05-27T11:20:41Z</time>
      </trkpt>
      <trkpt lat="45.7061" lon="5.26192">
        <ele>288.4</ele>
        <time>2025-05-27T11:20:42Z</time>
      </trkpt>
      <trkpt lat="45.70608" lon="5.26195">
        <ele>288.6</ele>
        <time>2025-05-27T11:20:43Z</time>
      </trkpt>
      <trkpt lat="45.70607" lon="5.26198">
        <ele>289</ele>
        <time>2025-05-27T11:20:44Z</time>
      </trkpt>
      <trkpt lat="45.70604" lon="5.26201">
        <ele>289.2</ele>
        <time>2025-05-27T11:20:45Z</time>
      </trkpt>
      <trkpt lat="45.70603" lon="5.26204">
        <ele>289.6</ele>
        <time>2025-05-27T11:20:46Z</time>
      </trkpt>
      <trkpt lat="45.70601" lon="5.26208">
        <ele>290</ele>
        <time>2025-05-27T11:20:47Z</time>
      </trkpt>
      <trkpt lat="45.70599" lon="5.26211">
        <ele>290.4</ele>
        <time>2025-05-27T11:20:48Z</time>
      </trkpt>
      <trkpt lat="45.70598" lon="5.26213">
        <ele>290.6</ele>
        <time>2025-05-27T11:20:49Z</time>
      </trkpt>
      <trkpt lat="45.70596" lon="5.26216">
        <ele>291</ele>
        <time>2025-05-27T11:20:50Z</time>
      </trkpt>
      <trkpt lat="45.70594" lon="5.26219">
        <ele>291</ele>
        <time>2025-05-27T11:20:51Z</time>
      </trkpt>
      <trkpt lat="45.70593" lon="5.26222">
        <ele>291.4</ele>
        <time>2025-05-27T11:20:52Z</time>
      </trkpt>
      <trkpt lat="45.70592" lon="5.26225">
        <ele>291.4</ele>
        <time>2025-05-27T11:20:53Z</time>
      </trkpt>
      <trkpt lat="45.7059" lon="5.26229">
        <ele>291.4</ele>
        <time>2025-05-27T11:20:54Z</time>
      </trkpt>
      <trkpt lat="45.70588" lon="5.26234">
        <ele>291.4</ele>
        <time>2025-05-27T11:20:55Z</time>
      </trkpt>
      <trkpt lat="45.70586" lon="5.26238">
        <ele>291.6</ele>
        <time>2025-05-27T11:20:56Z</time>
      </trkpt>
      <trkpt lat="45.70583" lon="5.26242">
        <ele>291.6</ele>
        <time>2025-05-27T11:20:57Z</time>
      </trkpt>
      <trkpt lat="45.7058" lon="5.26246">
        <ele>291.6</ele>
        <time>2025-05-27T11:20:58Z</time>
      </trkpt>
      <trkpt lat="45.70578" lon="5.2625">
        <ele>291.6</ele>
        <time>2025-05-27T11:20:59Z</time>
      </trkpt>
      <trkpt lat="45.70575" lon="5.26254">
        <ele>291.6</ele>
        <time>2025-05-27T11:21:00Z</time>
      </trkpt>
      <trkpt lat="45.70572" lon="5.26258">
        <ele>291.6</ele>
        <time>2025-05-27T11:21:01Z</time>
      </trkpt>
      <trkpt lat="45.70569" lon="5.26261">
        <ele>291.4</ele>
        <time>2025-05-27T11:21:02Z</time>
      </trkpt>
      <trkpt lat="45.70564" lon="5.26264">
        <ele>291.2</ele>
        <time>2025-05-27T11:21:03Z</time>
      </trkpt>
      <trkpt lat="45.70561" lon="5.26266">
        <ele>291.2</ele>
        <time>2025-05-27T11:21:04Z</time>
      </trkpt>
      <trkpt lat="45.70557" lon="5.26267">
        <ele>291.2</ele>
        <time>2025-05-27T11:21:05Z</time>
      </trkpt>
      <trkpt lat="45.70553" lon="5.26269">
        <ele>290.8</ele>
        <time>2025-05-27T11:21:06Z</time>
      </trkpt>
      <trkpt lat="45.70549" lon="5.26269">
        <ele>290.8</ele>
        <time>2025-05-27T11:21:07Z</time>
      </trkpt>
      <trkpt lat="45.70544" lon="5.26269">
        <ele>290.8</ele>
        <time>2025-05-27T11:21:08Z</time>
      </trkpt>
      <trkpt lat="45.7054" lon="5.26269">
        <ele>290.8</ele>
        <time>2025-05-27T11:21:09Z</time>
      </trkpt>
      <trkpt lat="45.70537" lon="5.26268">
        <ele>290.8</ele>
        <time>2025-05-27T11:21:10Z</time>
      </trkpt>
      <trkpt lat="45.70532" lon="5.26267">
        <ele>291</ele>
        <time>2025-05-27T11:21:11Z</time>
      </trkpt>
      <trkpt lat="45.70529" lon="5.26267">
        <ele>291</ele>
        <time>2025-05-27T11:21:12Z</time>
      </trkpt>
      <trkpt lat="45.70526" lon="5.26266">
        <ele>291.6</ele>
        <time>2025-05-27T11:21:13Z</time>
      </trkpt>
      <trkpt lat="45.70523" lon="5.26265">
        <ele>292</ele>
        <time>2025-05-27T11:21:14Z</time>
      </trkpt>
      <trkpt lat="45.7052" lon="5.26266">
        <ele>292.4</ele>
        <time>2025-05-27T11:21:15Z</time>
      </trkpt>
      <trkpt lat="45.70518" lon="5.26265">
        <ele>292.6</ele>
        <time>2025-05-27T11:21:16Z</time>
      </trkpt>
      <trkpt lat="45.70516" lon="5.26264">
        <ele>292.8</ele>
        <time>2025-05-27T11:21:17Z</time>
      </trkpt>
      <trkpt lat="45.70514" lon="5.26263">
        <ele>293.2</ele>
        <time>2025-05-27T11:21:18Z</time>
      </trkpt>
      <trkpt lat="45.70512" lon="5.26263">
        <ele>293.6</ele>
        <time>2025-05-27T11:21:19Z</time>
      </trkpt>
      <trkpt lat="45.7051" lon="5.26263">
        <ele>294</ele>
        <time>2025-05-27T11:21:20Z</time>
      </trkpt>
      <trkpt lat="45.70508" lon="5.26262">
        <ele>294.4</ele>
        <time>2025-05-27T11:21:21Z</time>
      </trkpt>
      <trkpt lat="45.70506" lon="5.26261">
        <ele>294.8</ele>
        <time>2025-05-27T11:21:22Z</time>
      </trkpt>
      <trkpt lat="45.70503" lon="5.2626">
        <ele>295</ele>
        <time>2025-05-27T11:21:23Z</time>
      </trkpt>
      <trkpt lat="45.70501" lon="5.2626">
        <ele>295</ele>
        <time>2025-05-27T11:21:24Z</time>
      </trkpt>
      <trkpt lat="45.70495" lon="5.26259">
        <ele>295</ele>
        <time>2025-05-27T11:21:25Z</time>
      </trkpt>
      <trkpt lat="45.70492" lon="5.26259">
        <ele>295</ele>
        <time>2025-05-27T11:21:26Z</time>
      </trkpt>
      <trkpt lat="45.7049" lon="5.26259">
        <ele>295</ele>
        <time>2025-05-27T11:21:27Z</time>
      </trkpt>
      <trkpt lat="45.70486" lon="5.26259">
        <ele>295</ele>
        <time>2025-05-27T11:21:28Z</time>
      </trkpt>
      <trkpt lat="45.70483" lon="5.26259">
        <ele>295</ele>
        <time>2025-05-27T11:21:29Z</time>
      </trkpt>
      <trkpt lat="45.7048" lon="5.26259">
        <ele>295</ele>
        <time>2025-05-27T11:21:30Z</time>
      </trkpt>
      <trkpt lat="45.70476" lon="5.26259">
        <ele>295</ele>
        <time>2025-05-27T11:21:31Z</time>
      </trkpt>
      <trkpt lat="45.70472" lon="5.26259">
        <ele>295</ele>
        <time>2025-05-27T11:21:32Z</time>
      </trkpt>
      <trkpt lat="45.70468" lon="5.26259">
        <ele>295</ele>
        <time>2025-05-27T11:21:33Z</time>
      </trkpt>
      <trkpt lat="45.70464" lon="5.2626">
        <ele>295</ele>
        <time>2025-05-27T11:21:34Z</time>
      </trkpt>
      <trkpt lat="45.70461" lon="5.2626">
        <ele>294.8</ele>
        <time>2025-05-27T11:21:35Z</time>
      </trkpt>
      <trkpt lat="45.70456" lon="5.26261">
        <ele>294.8</ele>
        <time>2025-05-27T11:21:36Z</time>
      </trkpt>
      <trkpt lat="45.70452" lon="5.26261">
        <ele>294.6</ele>
        <time>2025-05-27T11:21:37Z</time>
      </trkpt>
      <trkpt lat="45.70447" lon="5.26262">
        <ele>294.8</ele>
        <time>2025-05-27T11:21:38Z</time>
      </trkpt>
      <trkpt lat="45.70443" lon="5.26262">
        <ele>294.8</ele>
        <time>2025-05-27T11:21:39Z</time>
      </trkpt>
      <trkpt lat="45.70439" lon="5.26261">
        <ele>294.8</ele>
        <time>2025-05-27T11:21:40Z</time>
      </trkpt>
      <trkpt lat="45.70435" lon="5.26259">
        <ele>294.6</ele>
        <time>2025-05-27T11:21:41Z</time>
      </trkpt>
      <trkpt lat="45.70431" lon="5.26259">
        <ele>294.8</ele>
        <time>2025-05-27T11:21:42Z</time>
      </trkpt>
      <trkpt lat="45.70427" lon="5.26258">
        <ele>294.8</ele>
        <time>2025-05-27T11:21:43Z</time>
      </trkpt>
      <trkpt lat="45.70427" lon="5.26258">
        <ele>294.8</ele>
        <time>2025-05-27T11:21:44Z</time>
      </trkpt>
      <trkpt lat="45.70422" lon="5.26257">
        <ele>294.8</ele>
        <time>2025-05-27T11:21:45Z</time>
      </trkpt>
      <trkpt lat="45.70419" lon="5.26256">
        <ele>295</ele>
        <time>2025-05-27T11:21:46Z</time>
      </trkpt>
      <trkpt lat="45.70414" lon="5.26255">
        <ele>295</ele>
        <time>2025-05-27T11:21:47Z</time>
      </trkpt>
      <trkpt lat="45.70409" lon="5.26254">
        <ele>294.4</ele>
        <time>2025-05-27T11:21:48Z</time>
      </trkpt>
      <trkpt lat="45.70405" lon="5.26253">
        <ele>294.6</ele>
        <time>2025-05-27T11:21:49Z</time>
      </trkpt>
      <trkpt lat="45.70401" lon="5.26251">
        <ele>294.6</ele>
        <time>2025-05-27T11:21:50Z</time>
      </trkpt>
      <trkpt lat="45.70397" lon="5.2625">
        <ele>295</ele>
        <time>2025-05-27T11:21:51Z</time>
      </trkpt>
      <trkpt lat="45.70393" lon="5.2625">
        <ele>295</ele>
        <time>2025-05-27T11:21:52Z</time>
      </trkpt>
      <trkpt lat="45.70387" lon="5.26248">
        <ele>295.8</ele>
        <time>2025-05-27T11:21:53Z</time>
      </trkpt>
      <trkpt lat="45.70386" lon="5.26246">
        <ele>296.6</ele>
        <time>2025-05-27T11:21:54Z</time>
      </trkpt>
      <trkpt lat="45.70381" lon="5.26243">
        <ele>295.6</ele>
        <time>2025-05-27T11:21:55Z</time>
      </trkpt>
      <trkpt lat="45.70377" lon="5.26243">
        <ele>295.8</ele>
        <time>2025-05-27T11:21:56Z</time>
      </trkpt>
      <trkpt lat="45.70373" lon="5.26242">
        <ele>295.8</ele>
        <time>2025-05-27T11:21:57Z</time>
      </trkpt>
      <trkpt lat="45.7037" lon="5.26242">
        <ele>296.4</ele>
        <time>2025-05-27T11:21:58Z</time>
      </trkpt>
      <trkpt lat="45.70366" lon="5.26241">
        <ele>296.4</ele>
        <time>2025-05-27T11:21:59Z</time>
      </trkpt>
      <trkpt lat="45.70362" lon="5.26242">
        <ele>296.8</ele>
        <time>2025-05-27T11:22:00Z</time>
      </trkpt>
      <trkpt lat="45.70359" lon="5.26242">
        <ele>297.2</ele>
        <time>2025-05-27T11:22:01Z</time>
      </trkpt>
      <trkpt lat="45.70355" lon="5.26242">
        <ele>297.2</ele>
        <time>2025-05-27T11:22:02Z</time>
      </trkpt>
      <trkpt lat="45.70351" lon="5.26242">
        <ele>297.4</ele>
        <time>2025-05-27T11:22:03Z</time>
      </trkpt>
      <trkpt lat="45.70349" lon="5.26243">
        <ele>297.4</ele>
        <time>2025-05-27T11:22:04Z</time>
      </trkpt>
      <trkpt lat="45.70346" lon="5.26244">
        <ele>297.4</ele>
        <time>2025-05-27T11:22:05Z</time>
      </trkpt>
      <trkpt lat="45.70341" lon="5.26244">
        <ele>297</ele>
        <time>2025-05-27T11:22:06Z</time>
      </trkpt>
      <trkpt lat="45.70338" lon="5.26246">
        <ele>297</ele>
        <time>2025-05-27T11:22:07Z</time>
      </trkpt>
      <trkpt lat="45.70333" lon="5.26246">
        <ele>297.2</ele>
        <time>2025-05-27T11:22:08Z</time>
      </trkpt>
      <trkpt lat="45.70329" lon="5.26247">
        <ele>297.2</ele>
        <time>2025-05-27T11:22:09Z</time>
      </trkpt>
      <trkpt lat="45.70323" lon="5.26247">
        <ele>297.2</ele>
        <time>2025-05-27T11:22:10Z</time>
      </trkpt>
      <trkpt lat="45.7032" lon="5.26248">
        <ele>297.2</ele>
        <time>2025-05-27T11:22:11Z</time>
      </trkpt>
      <trkpt lat="45.70314" lon="5.26249">
        <ele>297.2</ele>
        <time>2025-05-27T11:22:12Z</time>
      </trkpt>
      <trkpt lat="45.70311" lon="5.2625">
        <ele>297.2</ele>
        <time>2025-05-27T11:22:13Z</time>
      </trkpt>
      <trkpt lat="45.70306" lon="5.2625">
        <ele>297.2</ele>
        <time>2025-05-27T11:22:14Z</time>
      </trkpt>
      <trkpt lat="45.70304" lon="5.26251">
        <ele>297.8</ele>
        <time>2025-05-27T11:22:15Z</time>
      </trkpt>
      <trkpt lat="45.70301" lon="5.26252">
        <ele>297.8</ele>
        <time>2025-05-27T11:22:16Z</time>
      </trkpt>
      <trkpt lat="45.70299" lon="5.26253">
        <ele>298.2</ele>
        <time>2025-05-27T11:22:17Z</time>
      </trkpt>
      <trkpt lat="45.70297" lon="5.26253">
        <ele>298.2</ele>
        <time>2025-05-27T11:22:18Z</time>
      </trkpt>
      <trkpt lat="45.70296" lon="5.26253">
        <ele>298.4</ele>
        <time>2025-05-27T11:22:19Z</time>
      </trkpt>
      <trkpt lat="45.70295" lon="5.26254">
        <ele>298.4</ele>
        <time>2025-05-27T11:22:20Z</time>
      </trkpt>
      <trkpt lat="45.70295" lon="5.26254">
        <ele>298.4</ele>
        <time>2025-05-27T11:22:21Z</time>
      </trkpt>
      <trkpt lat="45.70295" lon="5.26255">
        <ele>298.4</ele>
        <time>2025-05-27T11:22:22Z</time>
      </trkpt>
      <trkpt lat="45.70296" lon="5.26255">
        <ele>298.4</ele>
        <time>2025-05-27T11:22:23Z</time>
      </trkpt>
      <trkpt lat="45.70295" lon="5.26255">
        <ele>298.4</ele>
        <time>2025-05-27T11:22:24Z</time>
      </trkpt>
      <trkpt lat="45.70293" lon="5.26256">
        <ele>298.4</ele>
        <time>2025-05-27T11:22:30Z</time>
      </trkpt>
      <trkpt lat="45.70291" lon="5.26256">
        <ele>298.4</ele>
        <time>2025-05-27T11:22:31Z</time>
      </trkpt>
      <trkpt lat="45.70289" lon="5.26257">
        <ele>298.4</ele>
        <time>2025-05-27T11:22:32Z</time>
      </trkpt>
      <trkpt lat="45.70287" lon="5.26258">
        <ele>298.6</ele>
        <time>2025-05-27T11:22:33Z</time>
      </trkpt>
      <trkpt lat="45.70286" lon="5.2626">
        <ele>298.4</ele>
        <time>2025-05-27T11:22:34Z</time>
      </trkpt>
      <trkpt lat="45.70283" lon="5.26262">
        <ele>298.4</ele>
        <time>2025-05-27T11:22:35Z</time>
      </trkpt>
      <trkpt lat="45.70281" lon="5.26264">
        <ele>298.8</ele>
        <time>2025-05-27T11:22:36Z</time>
      </trkpt>
      <trkpt lat="45.70279" lon="5.26265">
        <ele>298.8</ele>
        <time>2025-05-27T11:22:37Z</time>
      </trkpt>
      <trkpt lat="45.70277" lon="5.26267">
        <ele>298.8</ele>
        <time>2025-05-27T11:22:38Z</time>
      </trkpt>
      <trkpt lat="45.70274" lon="5.26269">
        <ele>297.6</ele>
        <time>2025-05-27T11:22:39Z</time>
      </trkpt>
      <trkpt lat="45.7027" lon="5.26271">
        <ele>297.6</ele>
        <time>2025-05-27T11:22:40Z</time>
      </trkpt>
      <trkpt lat="45.70267" lon="5.26273">
        <ele>297.6</ele>
        <time>2025-05-27T11:22:41Z</time>
      </trkpt>
      <trkpt lat="45.70264" lon="5.26275">
        <ele>297.6</ele>
        <time>2025-05-27T11:22:42Z</time>
      </trkpt>
      <trkpt lat="45.70261" lon="5.26277">
        <ele>297.6</ele>
        <time>2025-05-27T11:22:43Z</time>
      </trkpt>
      <trkpt lat="45.70257" lon="5.26278">
        <ele>297.6</ele>
        <time>2025-05-27T11:22:44Z</time>
      </trkpt>
      <trkpt lat="45.70253" lon="5.26279">
        <ele>297.4</ele>
        <time>2025-05-27T11:22:45Z</time>
      </trkpt>
      <trkpt lat="45.7025" lon="5.2628">
        <ele>297.8</ele>
        <time>2025-05-27T11:22:46Z</time>
      </trkpt>
      <trkpt lat="45.70247" lon="5.26281">
        <ele>297.8</ele>
        <time>2025-05-27T11:22:47Z</time>
      </trkpt>
      <trkpt lat="45.70243" lon="5.26281">
        <ele>298.2</ele>
        <time>2025-05-27T11:22:48Z</time>
      </trkpt>
      <trkpt lat="45.70238" lon="5.2628">
        <ele>297.8</ele>
        <time>2025-05-27T11:22:49Z</time>
      </trkpt>
      <trkpt lat="45.70234" lon="5.26277">
        <ele>297.4</ele>
        <time>2025-05-27T11:22:50Z</time>
      </trkpt>
      <trkpt lat="45.70231" lon="5.26274">
        <ele>297.4</ele>
        <time>2025-05-27T11:22:51Z</time>
      </trkpt>
      <trkpt lat="45.70227" lon="5.26271">
        <ele>297</ele>
        <time>2025-05-27T11:22:52Z</time>
      </trkpt>
      <trkpt lat="45.70223" lon="5.26268">
        <ele>297.2</ele>
        <time>2025-05-27T11:22:53Z</time>
      </trkpt>
      <trkpt lat="45.70219" lon="5.26266">
        <ele>297.8</ele>
        <time>2025-05-27T11:22:54Z</time>
      </trkpt>
      <trkpt lat="45.70216" lon="5.26265">
        <ele>297.8</ele>
        <time>2025-05-27T11:22:55Z</time>
      </trkpt>
      <trkpt lat="45.70213" lon="5.26263">
        <ele>297.4</ele>
        <time>2025-05-27T11:22:56Z</time>
      </trkpt>
      <trkpt lat="45.7021" lon="5.26261">
        <ele>298.2</ele>
        <time>2025-05-27T11:22:57Z</time>
      </trkpt>
      <trkpt lat="45.70209" lon="5.2626">
        <ele>298.6</ele>
        <time>2025-05-27T11:22:58Z</time>
      </trkpt>
      <trkpt lat="45.70204" lon="5.26258">
        <ele>299</ele>
        <time>2025-05-27T11:22:59Z</time>
      </trkpt>
      <trkpt lat="45.70203" lon="5.26257">
        <ele>299.2</ele>
        <time>2025-05-27T11:23:00Z</time>
      </trkpt>
      <trkpt lat="45.70201" lon="5.26255">
        <ele>299.2</ele>
        <time>2025-05-27T11:23:01Z</time>
      </trkpt>
      <trkpt lat="45.70198" lon="5.26254">
        <ele>299.6</ele>
        <time>2025-05-27T11:23:02Z</time>
      </trkpt>
      <trkpt lat="45.70197" lon="5.26252">
        <ele>299.6</ele>
        <time>2025-05-27T11:23:03Z</time>
      </trkpt>
      <trkpt lat="45.70196" lon="5.26252">
        <ele>299.6</ele>
        <time>2025-05-27T11:23:04Z</time>
      </trkpt>
      <trkpt lat="45.70193" lon="5.26251">
        <ele>299.6</ele>
        <time>2025-05-27T11:23:05Z</time>
      </trkpt>
      <trkpt lat="45.7019" lon="5.26251">
        <ele>299.2</ele>
        <time>2025-05-27T11:23:06Z</time>
      </trkpt>
      <trkpt lat="45.70187" lon="5.26251">
        <ele>298.6</ele>
        <time>2025-05-27T11:23:07Z</time>
      </trkpt>
      <trkpt lat="45.70183" lon="5.26252">
        <ele>298.2</ele>
        <time>2025-05-27T11:23:08Z</time>
      </trkpt>
      <trkpt lat="45.70179" lon="5.26252">
        <ele>298.4</ele>
        <time>2025-05-27T11:23:09Z</time>
      </trkpt>
      <trkpt lat="45.70175" lon="5.26252">
        <ele>298.2</ele>
        <time>2025-05-27T11:23:10Z</time>
      </trkpt>
      <trkpt lat="45.70173" lon="5.26253">
        <ele>297.6</ele>
        <time>2025-05-27T11:23:11Z</time>
      </trkpt>
      <trkpt lat="45.70171" lon="5.26253">
        <ele>297.4</ele>
        <time>2025-05-27T11:23:12Z</time>
      </trkpt>
      <trkpt lat="45.7017" lon="5.26253">
        <ele>297.4</ele>
        <time>2025-05-27T11:23:13Z</time>
      </trkpt>
      <trkpt lat="45.70169" lon="5.26253">
        <ele>297.4</ele>
        <time>2025-05-27T11:23:14Z</time>
      </trkpt>
      <trkpt lat="45.70169" lon="5.26253">
        <ele>297.4</ele>
        <time>2025-05-27T11:23:15Z</time>
      </trkpt>
      <trkpt lat="45.70169" lon="5.26254">
        <ele>297.4</ele>
        <time>2025-05-27T11:23:16Z</time>
      </trkpt>
      <trkpt lat="45.70168" lon="5.26253">
        <ele>296.8</ele>
        <time>2025-05-27T11:23:43Z</time>
      </trkpt>
      <trkpt lat="45.70167" lon="5.26251">
        <ele>296.6</ele>
        <time>2025-05-27T11:23:44Z</time>
      </trkpt>
      <trkpt lat="45.70166" lon="5.26249">
        <ele>296.6</ele>
        <time>2025-05-27T11:23:45Z</time>
      </trkpt>
      <trkpt lat="45.70164" lon="5.26245">
        <ele>296</ele>
        <time>2025-05-27T11:23:46Z</time>
      </trkpt>
      <trkpt lat="45.70162" lon="5.2624">
        <ele>295.8</ele>
        <time>2025-05-27T11:23:47Z</time>
      </trkpt>
      <trkpt lat="45.70161" lon="5.26237">
        <ele>295.8</ele>
        <time>2025-05-27T11:23:48Z</time>
      </trkpt>
      <trkpt lat="45.7016" lon="5.26233">
        <ele>295.4</ele>
        <time>2025-05-27T11:23:49Z</time>
      </trkpt>
      <trkpt lat="45.7016" lon="5.26228">
        <ele>294.6</ele>
        <time>2025-05-27T11:23:50Z</time>
      </trkpt>
      <trkpt lat="45.70161" lon="5.26223">
        <ele>293.8</ele>
        <time>2025-05-27T11:23:51Z</time>
      </trkpt>
      <trkpt lat="45.70162" lon="5.26218">
        <ele>293.4</ele>
        <time>2025-05-27T11:23:52Z</time>
      </trkpt>
      <trkpt lat="45.70163" lon="5.26212">
        <ele>293.4</ele>
        <time>2025-05-27T11:23:53Z</time>
      </trkpt>
      <trkpt lat="45.70165" lon="5.26207">
        <ele>292.8</ele>
        <time>2025-05-27T11:23:54Z</time>
      </trkpt>
      <trkpt lat="45.70168" lon="5.26203">
        <ele>292.4</ele>
        <time>2025-05-27T11:23:55Z</time>
      </trkpt>
      <trkpt lat="45.7017" lon="5.26198">
        <ele>292.6</ele>
        <time>2025-05-27T11:23:56Z</time>
      </trkpt>
      <trkpt lat="45.70176" lon="5.26193">
        <ele>293</ele>
        <time>2025-05-27T11:23:57Z</time>
      </trkpt>
      <trkpt lat="45.70179" lon="5.26188">
        <ele>293.6</ele>
        <time>2025-05-27T11:23:58Z</time>
      </trkpt>
      <trkpt lat="45.70182" lon="5.26184">
        <ele>292.4</ele>
        <time>2025-05-27T11:23:59Z</time>
      </trkpt>
      <trkpt lat="45.70184" lon="5.26181">
        <ele>292</ele>
        <time>2025-05-27T11:24:00Z</time>
      </trkpt>
      <trkpt lat="45.70188" lon="5.26178">
        <ele>292</ele>
        <time>2025-05-27T11:24:01Z</time>
      </trkpt>
      <trkpt lat="45.70191" lon="5.26173">
        <ele>292.4</ele>
        <time>2025-05-27T11:24:02Z</time>
      </trkpt>
      <trkpt lat="45.70195" lon="5.26168">
        <ele>291.8</ele>
        <time>2025-05-27T11:24:03Z</time>
      </trkpt>
      <trkpt lat="45.70198" lon="5.26163">
        <ele>292</ele>
        <time>2025-05-27T11:24:04Z</time>
      </trkpt>
      <trkpt lat="45.702" lon="5.26156">
        <ele>291.8</ele>
        <time>2025-05-27T11:24:05Z</time>
      </trkpt>
      <trkpt lat="45.70201" lon="5.26151">
        <ele>291.4</ele>
        <time>2025-05-27T11:24:06Z</time>
      </trkpt>
      <trkpt lat="45.70205" lon="5.26147">
        <ele>291.4</ele>
        <time>2025-05-27T11:24:07Z</time>
      </trkpt>
      <trkpt lat="45.70209" lon="5.26142">
        <ele>291.4</ele>
        <time>2025-05-27T11:24:08Z</time>
      </trkpt>
      <trkpt lat="45.70212" lon="5.26139">
        <ele>291</ele>
        <time>2025-05-27T11:24:09Z</time>
      </trkpt>
      <trkpt lat="45.70216" lon="5.26135">
        <ele>291</ele>
        <time>2025-05-27T11:24:10Z</time>
      </trkpt>
      <trkpt lat="45.7022" lon="5.26131">
        <ele>290.6</ele>
        <time>2025-05-27T11:24:11Z</time>
      </trkpt>
      <trkpt lat="45.7022" lon="5.26128">
        <ele>290.2</ele>
        <time>2025-05-27T11:24:12Z</time>
      </trkpt>
      <trkpt lat="45.70222" lon="5.26124">
        <ele>290.6</ele>
        <time>2025-05-27T11:24:13Z</time>
      </trkpt>
      <trkpt lat="45.70223" lon="5.26122">
        <ele>290.6</ele>
        <time>2025-05-27T11:24:14Z</time>
      </trkpt>
      <trkpt lat="45.70223" lon="5.2612">
        <ele>290.6</ele>
        <time>2025-05-27T11:24:15Z</time>
      </trkpt>
      <trkpt lat="45.70223" lon="5.2612">
        <ele>290.6</ele>
        <time>2025-05-27T11:24:16Z</time>
      </trkpt>
      <trkpt lat="45.70223" lon="5.26119">
        <ele>290.6</ele>
        <time>2025-05-27T11:24:17Z</time>
      </trkpt>
      <trkpt lat="45.70222" lon="5.26115">
        <ele>290.6</ele>
        <time>2025-05-27T11:24:35Z</time>
      </trkpt>
      <trkpt lat="45.70222" lon="5.26113">
        <ele>290.2</ele>
        <time>2025-05-27T11:24:36Z</time>
      </trkpt>
      <trkpt lat="45.70221" lon="5.26111">
        <ele>289.8</ele>
        <time>2025-05-27T11:24:37Z</time>
      </trkpt>
      <trkpt lat="45.70222" lon="5.26109">
        <ele>289.8</ele>
        <time>2025-05-27T11:24:38Z</time>
      </trkpt>
      <trkpt lat="45.70222" lon="5.26106">
        <ele>290</ele>
        <time>2025-05-27T11:24:39Z</time>
      </trkpt>
      <trkpt lat="45.70221" lon="5.26103">
        <ele>290</ele>
        <time>2025-05-27T11:24:40Z</time>
      </trkpt>
      <trkpt lat="45.70221" lon="5.26099">
        <ele>290</ele>
        <time>2025-05-27T11:24:41Z</time>
      </trkpt>
      <trkpt lat="45.70219" lon="5.26096">
        <ele>290.8</ele>
        <time>2025-05-27T11:24:42Z</time>
      </trkpt>
      <trkpt lat="45.70218" lon="5.26092">
        <ele>291.2</ele>
        <time>2025-05-27T11:24:43Z</time>
      </trkpt>
      <trkpt lat="45.70217" lon="5.26089">
        <ele>291.2</ele>
        <time>2025-05-27T11:24:44Z</time>
      </trkpt>
      <trkpt lat="45.70216" lon="5.26087">
        <ele>291.8</ele>
        <time>2025-05-27T11:24:45Z</time>
      </trkpt>
      <trkpt lat="45.70215" lon="5.26083">
        <ele>291.8</ele>
        <time>2025-05-27T11:24:46Z</time>
      </trkpt>
      <trkpt lat="45.70216" lon="5.2608">
        <ele>291.8</ele>
        <time>2025-05-27T11:24:47Z</time>
      </trkpt>
      <trkpt lat="45.70216" lon="5.26078">
        <ele>291.8</ele>
        <time>2025-05-27T11:24:48Z</time>
      </trkpt>
      <trkpt lat="45.70217" lon="5.26076">
        <ele>292</ele>
        <time>2025-05-27T11:24:49Z</time>
      </trkpt>
      <trkpt lat="45.70218" lon="5.26075">
        <ele>292.4</ele>
        <time>2025-05-27T11:24:50Z</time>
      </trkpt>
      <trkpt lat="45.70218" lon="5.26075">
        <ele>292.6</ele>
        <time>2025-05-27T11:24:51Z</time>
      </trkpt>
      <trkpt lat="45.70219" lon="5.26076">
        <ele>292.6</ele>
        <time>2025-05-27T11:24:52Z</time>
      </trkpt>
      <trkpt lat="45.70222" lon="5.26073">
        <ele>293</ele>
        <time>2025-05-27T11:25:08Z</time>
      </trkpt>
      <trkpt lat="45.70224" lon="5.26071">
        <ele>293.4</ele>
        <time>2025-05-27T11:25:09Z</time>
      </trkpt>
      <trkpt lat="45.70225" lon="5.26069">
        <ele>293.4</ele>
        <time>2025-05-27T11:25:10Z</time>
      </trkpt>
      <trkpt lat="45.70227" lon="5.26066">
        <ele>293.4</ele>
        <time>2025-05-27T11:25:11Z</time>
      </trkpt>
      <trkpt lat="45.70227" lon="5.26065">
        <ele>293.4</ele>
        <time>2025-05-27T11:25:12Z</time>
      </trkpt>
      <trkpt lat="45.70228" lon="5.26063">
        <ele>293.8</ele>
        <time>2025-05-27T11:25:13Z</time>
      </trkpt>
      <trkpt lat="45.70229" lon="5.26061">
        <ele>293.8</ele>
        <time>2025-05-27T11:25:14Z</time>
      </trkpt>
      <trkpt lat="45.7023" lon="5.26059">
        <ele>294</ele>
        <time>2025-05-27T11:25:15Z</time>
      </trkpt>
      <trkpt lat="45.7023" lon="5.26057">
        <ele>294</ele>
        <time>2025-05-27T11:25:16Z</time>
      </trkpt>
      <trkpt lat="45.7023" lon="5.26054">
        <ele>294.4</ele>
        <time>2025-05-27T11:25:17Z</time>
      </trkpt>
      <trkpt lat="45.7023" lon="5.26053">
        <ele>294.4</ele>
        <time>2025-05-27T11:25:18Z</time>
      </trkpt>
      <trkpt lat="45.7023" lon="5.26051">
        <ele>294.8</ele>
        <time>2025-05-27T11:25:19Z</time>
      </trkpt>
      <trkpt lat="45.7023" lon="5.26048">
        <ele>294.8</ele>
        <time>2025-05-27T11:25:20Z</time>
      </trkpt>
      <trkpt lat="45.7023" lon="5.26045">
        <ele>294.8</ele>
        <time>2025-05-27T11:25:21Z</time>
      </trkpt>
      <trkpt lat="45.70232" lon="5.26041">
        <ele>295.4</ele>
        <time>2025-05-27T11:25:22Z</time>
      </trkpt>
      <trkpt lat="45.70233" lon="5.26039">
        <ele>295.4</ele>
        <time>2025-05-27T11:25:23Z</time>
      </trkpt>
      <trkpt lat="45.70234" lon="5.26037">
        <ele>295.8</ele>
        <time>2025-05-27T11:25:24Z</time>
      </trkpt>
      <trkpt lat="45.70235" lon="5.26035">
        <ele>296.2</ele>
        <time>2025-05-27T11:25:25Z</time>
      </trkpt>
      <trkpt lat="45.70236" lon="5.26033">
        <ele>296.2</ele>
        <time>2025-05-27T11:25:26Z</time>
      </trkpt>
      <trkpt lat="45.70238" lon="5.26032">
        <ele>296.2</ele>
        <time>2025-05-27T11:25:27Z</time>
      </trkpt>
      <trkpt lat="45.70239" lon="5.26031">
        <ele>296.6</ele>
        <time>2025-05-27T11:25:28Z</time>
      </trkpt>
      <trkpt lat="45.70241" lon="5.26029">
        <ele>296.6</ele>
        <time>2025-05-27T11:25:29Z</time>
      </trkpt>
      <trkpt lat="45.70242" lon="5.26028">
        <ele>297.4</ele>
        <time>2025-05-27T11:25:30Z</time>
      </trkpt>
      <trkpt lat="45.70243" lon="5.26026">
        <ele>297.6</ele>
        <time>2025-05-27T11:25:31Z</time>
      </trkpt>
      <trkpt lat="45.70243" lon="5.26024">
        <ele>297.8</ele>
        <time>2025-05-27T11:25:32Z</time>
      </trkpt>
      <trkpt lat="45.70245" lon="5.26022">
        <ele>297.8</ele>
        <time>2025-05-27T11:25:33Z</time>
      </trkpt>
      <trkpt lat="45.70246" lon="5.26022">
        <ele>298.4</ele>
        <time>2025-05-27T11:25:34Z</time>
      </trkpt>
      <trkpt lat="45.70247" lon="5.26022">
        <ele>298.4</ele>
        <time>2025-05-27T11:25:35Z</time>
      </trkpt>
      <trkpt lat="45.70248" lon="5.2602">
        <ele>298.8</ele>
        <time>2025-05-27T11:25:36Z</time>
      </trkpt>
      <trkpt lat="45.70248" lon="5.26018">
        <ele>298.8</ele>
        <time>2025-05-27T11:25:37Z</time>
      </trkpt>
      <trkpt lat="45.70248" lon="5.26016">
        <ele>299.2</ele>
        <time>2025-05-27T11:25:38Z</time>
      </trkpt>
      <trkpt lat="45.70248" lon="5.26015">
        <ele>299.2</ele>
        <time>2025-05-27T11:25:39Z</time>
      </trkpt>
      <trkpt lat="45.70249" lon="5.26014">
        <ele>299.6</ele>
        <time>2025-05-27T11:25:40Z</time>
      </trkpt>
      <trkpt lat="45.7025" lon="5.26013">
        <ele>299.8</ele>
        <time>2025-05-27T11:25:41Z</time>
      </trkpt>
      <trkpt lat="45.70251" lon="5.26012">
        <ele>299.8</ele>
        <time>2025-05-27T11:25:42Z</time>
      </trkpt>
      <trkpt lat="45.70251" lon="5.26012">
        <ele>300</ele>
        <time>2025-05-27T11:25:43Z</time>
      </trkpt>
      <trkpt lat="45.70252" lon="5.26011">
        <ele>300.4</ele>
        <time>2025-05-27T11:25:44Z</time>
      </trkpt>
      <trkpt lat="45.70253" lon="5.2601">
        <ele>300.6</ele>
        <time>2025-05-27T11:25:45Z</time>
      </trkpt>
      <trkpt lat="45.70254" lon="5.2601">
        <ele>300.6</ele>
        <time>2025-05-27T11:25:46Z</time>
      </trkpt>
      <trkpt lat="45.70255" lon="5.26009">
        <ele>301</ele>
        <time>2025-05-27T11:25:47Z</time>
      </trkpt>
      <trkpt lat="45.70256" lon="5.26008">
        <ele>301.4</ele>
        <time>2025-05-27T11:25:48Z</time>
      </trkpt>
      <trkpt lat="45.70258" lon="5.26007">
        <ele>302</ele>
        <time>2025-05-27T11:25:49Z</time>
      </trkpt>
      <trkpt lat="45.70259" lon="5.26006">
        <ele>302.2</ele>
        <time>2025-05-27T11:25:50Z</time>
      </trkpt>
      <trkpt lat="45.7026" lon="5.26004">
        <ele>302.6</ele>
        <time>2025-05-27T11:25:51Z</time>
      </trkpt>
      <trkpt lat="45.7026" lon="5.26002">
        <ele>302.6</ele>
        <time>2025-05-27T11:25:52Z</time>
      </trkpt>
      <trkpt lat="45.7026" lon="5.26">
        <ele>302.8</ele>
        <time>2025-05-27T11:25:53Z</time>
      </trkpt>
      <trkpt lat="45.70259" lon="5.25999">
        <ele>303.4</ele>
        <time>2025-05-27T11:25:54Z</time>
      </trkpt>
      <trkpt lat="45.70259" lon="5.25997">
        <ele>303.4</ele>
        <time>2025-05-27T11:25:55Z</time>
      </trkpt>
      <trkpt lat="45.7026" lon="5.25995">
        <ele>303.6</ele>
        <time>2025-05-27T11:25:56Z</time>
      </trkpt>
      <trkpt lat="45.7026" lon="5.25994">
        <ele>303.6</ele>
        <time>2025-05-27T11:25:57Z</time>
      </trkpt>
      <trkpt lat="45.7026" lon="5.25993">
        <ele>303.6</ele>
        <time>2025-05-27T11:25:58Z</time>
      </trkpt>
      <trkpt lat="45.70261" lon="5.25992">
        <ele>304</ele>
        <time>2025-05-27T11:25:59Z</time>
      </trkpt>
      <trkpt lat="45.70262" lon="5.25991">
        <ele>304</ele>
        <time>2025-05-27T11:26:00Z</time>
      </trkpt>
      <trkpt lat="45.70262" lon="5.2599">
        <ele>304</ele>
        <time>2025-05-27T11:26:01Z</time>
      </trkpt>
      <trkpt lat="45.70263" lon="5.25989">
        <ele>304.4</ele>
        <time>2025-05-27T11:26:02Z</time>
      </trkpt>
      <trkpt lat="45.70263" lon="5.25989">
        <ele>304.6</ele>
        <time>2025-05-27T11:26:03Z</time>
      </trkpt>
      <trkpt lat="45.70263" lon="5.25988">
        <ele>304.6</ele>
        <time>2025-05-27T11:26:04Z</time>
      </trkpt>
      <trkpt lat="45.70264" lon="5.25986">
        <ele>305</ele>
        <time>2025-05-27T11:26:05Z</time>
      </trkpt>
      <trkpt lat="45.70264" lon="5.25985">
        <ele>305</ele>
        <time>2025-05-27T11:26:06Z</time>
      </trkpt>
      <trkpt lat="45.70265" lon="5.25984">
        <ele>305.2</ele>
        <time>2025-05-27T11:26:07Z</time>
      </trkpt>
      <trkpt lat="45.70266" lon="5.25982">
        <ele>305.2</ele>
        <time>2025-05-27T11:26:08Z</time>
      </trkpt>
      <trkpt lat="45.70266" lon="5.2598">
        <ele>305.6</ele>
        <time>2025-05-27T11:26:09Z</time>
      </trkpt>
      <trkpt lat="45.70267" lon="5.25979">
        <ele>305.6</ele>
        <time>2025-05-27T11:26:10Z</time>
      </trkpt>
      <trkpt lat="45.70267" lon="5.25977">
        <ele>305.8</ele>
        <time>2025-05-27T11:26:11Z</time>
      </trkpt>
      <trkpt lat="45.70268" lon="5.25975">
        <ele>306.2</ele>
        <time>2025-05-27T11:26:12Z</time>
      </trkpt>
      <trkpt lat="45.70268" lon="5.25973">
        <ele>306.2</ele>
        <time>2025-05-27T11:26:13Z</time>
      </trkpt>
      <trkpt lat="45.70268" lon="5.25972">
        <ele>306.6</ele>
        <time>2025-05-27T11:26:14Z</time>
      </trkpt>
      <trkpt lat="45.70268" lon="5.2597">
        <ele>307</ele>
        <time>2025-05-27T11:26:15Z</time>
      </trkpt>
      <trkpt lat="45.70269" lon="5.25968">
        <ele>307.2</ele>
        <time>2025-05-27T11:26:16Z</time>
      </trkpt>
      <trkpt lat="45.7027" lon="5.25968">
        <ele>307.2</ele>
        <time>2025-05-27T11:26:17Z</time>
      </trkpt>
      <trkpt lat="45.70271" lon="5.25967">
        <ele>307.8</ele>
        <time>2025-05-27T11:26:18Z</time>
      </trkpt>
      <trkpt lat="45.70271" lon="5.25966">
        <ele>308</ele>
        <time>2025-05-27T11:26:19Z</time>
      </trkpt>
      <trkpt lat="45.70272" lon="5.25965">
        <ele>308.2</ele>
        <time>2025-05-27T11:26:20Z</time>
      </trkpt>
      <trkpt lat="45.70272" lon="5.25964">
        <ele>308.2</ele>
        <time>2025-05-27T11:26:24Z</time>
      </trkpt>
      <trkpt lat="45.70273" lon="5.25963">
        <ele>308.2</ele>
        <time>2025-05-27T11:26:25Z</time>
      </trkpt>
      <trkpt lat="45.70273" lon="5.25963">
        <ele>308.4</ele>
        <time>2025-05-27T11:26:26Z</time>
      </trkpt>
      <trkpt lat="45.70274" lon="5.25962">
        <ele>308.6</ele>
        <time>2025-05-27T11:26:27Z</time>
      </trkpt>
      <trkpt lat="45.70274" lon="5.25961">
        <ele>308.6</ele>
        <time>2025-05-27T11:26:28Z</time>
      </trkpt>
      <trkpt lat="45.70275" lon="5.25959">
        <ele>309</ele>
        <time>2025-05-27T11:26:29Z</time>
      </trkpt>
      <trkpt lat="45.70275" lon="5.25958">
        <ele>309</ele>
        <time>2025-05-27T11:26:30Z</time>
      </trkpt>
      <trkpt lat="45.70275" lon="5.25956">
        <ele>309.4</ele>
        <time>2025-05-27T11:26:31Z</time>
      </trkpt>
      <trkpt lat="45.70275" lon="5.25955">
        <ele>309.6</ele>
        <time>2025-05-27T11:26:32Z</time>
      </trkpt>
      <trkpt lat="45.70275" lon="5.25955">
        <ele>309.8</ele>
        <time>2025-05-27T11:26:33Z</time>
      </trkpt>
      <trkpt lat="45.70275" lon="5.25955">
        <ele>310</ele>
        <time>2025-05-27T11:26:34Z</time>
      </trkpt>
      <trkpt lat="45.70275" lon="5.25954">
        <ele>310.2</ele>
        <time>2025-05-27T11:26:35Z</time>
      </trkpt>
      <trkpt lat="45.70276" lon="5.25954">
        <ele>310.2</ele>
        <time>2025-05-27T11:26:36Z</time>
      </trkpt>
      <trkpt lat="45.70276" lon="5.25953">
        <ele>310.6</ele>
        <time>2025-05-27T11:26:37Z</time>
      </trkpt>
      <trkpt lat="45.70277" lon="5.25952">
        <ele>310.6</ele>
        <time>2025-05-27T11:26:38Z</time>
      </trkpt>
      <trkpt lat="45.70277" lon="5.25951">
        <ele>310.8</ele>
        <time>2025-05-27T11:26:39Z</time>
      </trkpt>
      <trkpt lat="45.70279" lon="5.2595">
        <ele>311</ele>
        <time>2025-05-27T11:26:40Z</time>
      </trkpt>
      <trkpt lat="45.7028" lon="5.25949">
        <ele>311</ele>
        <time>2025-05-27T11:26:41Z</time>
      </trkpt>
      <trkpt lat="45.70281" lon="5.25948">
        <ele>311.2</ele>
        <time>2025-05-27T11:26:42Z</time>
      </trkpt>
      <trkpt lat="45.70282" lon="5.25947">
        <ele>311.4</ele>
        <time>2025-05-27T11:26:43Z</time>
      </trkpt>
      <trkpt lat="45.70283" lon="5.25946">
        <ele>311.8</ele>
        <time>2025-05-27T11:26:44Z</time>
      </trkpt>
      <trkpt lat="45.70284" lon="5.25944">
        <ele>311.8</ele>
        <time>2025-05-27T11:26:45Z</time>
      </trkpt>
      <trkpt lat="45.70285" lon="5.25943">
        <ele>312</ele>
        <time>2025-05-27T11:26:46Z</time>
      </trkpt>
      <trkpt lat="45.70285" lon="5.25942">
        <ele>312</ele>
        <time>2025-05-27T11:26:47Z</time>
      </trkpt>
      <trkpt lat="45.70286" lon="5.25941">
        <ele>312.2</ele>
        <time>2025-05-27T11:26:48Z</time>
      </trkpt>
      <trkpt lat="45.70287" lon="5.2594">
        <ele>312.2</ele>
        <time>2025-05-27T11:26:49Z</time>
      </trkpt>
      <trkpt lat="45.70288" lon="5.25939">
        <ele>312.2</ele>
        <time>2025-05-27T11:26:50Z</time>
      </trkpt>
      <trkpt lat="45.70288" lon="5.25938">
        <ele>312.4</ele>
        <time>2025-05-27T11:26:51Z</time>
      </trkpt>
      <trkpt lat="45.70289" lon="5.25937">
        <ele>312.4</ele>
        <time>2025-05-27T11:26:52Z</time>
      </trkpt>
      <trkpt lat="45.7029" lon="5.25936">
        <ele>312.8</ele>
        <time>2025-05-27T11:26:53Z</time>
      </trkpt>
      <trkpt lat="45.70291" lon="5.25935">
        <ele>312.8</ele>
        <time>2025-05-27T11:26:54Z</time>
      </trkpt>
      <trkpt lat="45.70292" lon="5.25934">
        <ele>313</ele>
        <time>2025-05-27T11:26:55Z</time>
      </trkpt>
      <trkpt lat="45.70293" lon="5.25933">
        <ele>313</ele>
        <time>2025-05-27T11:26:56Z</time>
      </trkpt>
      <trkpt lat="45.70293" lon="5.25932">
        <ele>313.4</ele>
        <time>2025-05-27T11:26:57Z</time>
      </trkpt>
      <trkpt lat="45.70294" lon="5.2593">
        <ele>313.4</ele>
        <time>2025-05-27T11:26:58Z</time>
      </trkpt>
      <trkpt lat="45.70294" lon="5.25929">
        <ele>313.8</ele>
        <time>2025-05-27T11:26:59Z</time>
      </trkpt>
      <trkpt lat="45.70295" lon="5.25928">
        <ele>314</ele>
        <time>2025-05-27T11:27:00Z</time>
      </trkpt>
      <trkpt lat="45.70296" lon="5.25927">
        <ele>314.2</ele>
        <time>2025-05-27T11:27:01Z</time>
      </trkpt>
      <trkpt lat="45.70296" lon="5.25926">
        <ele>314.2</ele>
        <time>2025-05-27T11:27:02Z</time>
      </trkpt>
      <trkpt lat="45.70296" lon="5.25925">
        <ele>314.6</ele>
        <time>2025-05-27T11:27:03Z</time>
      </trkpt>
      <trkpt lat="45.70297" lon="5.25923">
        <ele>314.6</ele>
        <time>2025-05-27T11:27:04Z</time>
      </trkpt>
      <trkpt lat="45.70298" lon="5.25922">
        <ele>314.8</ele>
        <time>2025-05-27T11:27:05Z</time>
      </trkpt>
      <trkpt lat="45.70298" lon="5.25921">
        <ele>315</ele>
        <time>2025-05-27T11:27:06Z</time>
      </trkpt>
      <trkpt lat="45.70298" lon="5.2592">
        <ele>315</ele>
        <time>2025-05-27T11:27:07Z</time>
      </trkpt>
      <trkpt lat="45.70298" lon="5.25919">
        <ele>315</ele>
        <time>2025-05-27T11:27:08Z</time>
      </trkpt>
      <trkpt lat="45.70298" lon="5.25919">
        <ele>315.4</ele>
        <time>2025-05-27T11:27:09Z</time>
      </trkpt>
      <trkpt lat="45.70298" lon="5.25918">
        <ele>315.4</ele>
        <time>2025-05-27T11:27:10Z</time>
      </trkpt>
      <trkpt lat="45.70299" lon="5.25918">
        <ele>315.6</ele>
        <time>2025-05-27T11:27:11Z</time>
      </trkpt>
      <trkpt lat="45.70299" lon="5.25917">
        <ele>315.6</ele>
        <time>2025-05-27T11:27:12Z</time>
      </trkpt>
      <trkpt lat="45.70299" lon="5.25916">
        <ele>315.6</ele>
        <time>2025-05-27T11:27:13Z</time>
      </trkpt>
      <trkpt lat="45.70299" lon="5.25915">
        <ele>315.6</ele>
        <time>2025-05-27T11:27:14Z</time>
      </trkpt>
      <trkpt lat="45.70298" lon="5.25914">
        <ele>315.6</ele>
        <time>2025-05-27T11:27:15Z</time>
      </trkpt>
      <trkpt lat="45.70298" lon="5.25915">
        <ele>316</ele>
        <time>2025-05-27T11:27:16Z</time>
      </trkpt>
      <trkpt lat="45.70299" lon="5.25914">
        <ele>316.4</ele>
        <time>2025-05-27T11:27:44Z</time>
      </trkpt>
      <trkpt lat="45.70299" lon="5.25913">
        <ele>316.4</ele>
        <time>2025-05-27T11:27:45Z</time>
      </trkpt>
      <trkpt lat="45.703" lon="5.25911">
        <ele>316.4</ele>
        <time>2025-05-27T11:27:46Z</time>
      </trkpt>
      <trkpt lat="45.703" lon="5.25909">
        <ele>316.4</ele>
        <time>2025-05-27T11:27:47Z</time>
      </trkpt>
      <trkpt lat="45.70301" lon="5.25907">
        <ele>316.4</ele>
        <time>2025-05-27T11:27:48Z</time>
      </trkpt>
      <trkpt lat="45.70304" lon="5.25904">
        <ele>316.2</ele>
        <time>2025-05-27T11:27:49Z</time>
      </trkpt>
      <trkpt lat="45.70306" lon="5.25902">
        <ele>316.2</ele>
        <time>2025-05-27T11:27:50Z</time>
      </trkpt>
      <trkpt lat="45.70307" lon="5.259">
        <ele>316.2</ele>
        <time>2025-05-27T11:27:51Z</time>
      </trkpt>
      <trkpt lat="45.70308" lon="5.259">
        <ele>316.2</ele>
        <time>2025-05-27T11:27:52Z</time>
      </trkpt>
      <trkpt lat="45.70307" lon="5.259">
        <ele>316.4</ele>
        <time>2025-05-27T11:27:53Z</time>
      </trkpt>
      <trkpt lat="45.70306" lon="5.25902">
        <ele>317</ele>
        <time>2025-05-27T11:29:07Z</time>
      </trkpt>
      <trkpt lat="45.70307" lon="5.25901">
        <ele>317</ele>
        <time>2025-05-27T11:29:08Z</time>
      </trkpt>
      <trkpt lat="45.70308" lon="5.25899">
        <ele>317</ele>
        <time>2025-05-27T11:29:09Z</time>
      </trkpt>
      <trkpt lat="45.7031" lon="5.25897">
        <ele>316.8</ele>
        <time>2025-05-27T11:29:10Z</time>
      </trkpt>
      <trkpt lat="45.70311" lon="5.25894">
        <ele>316.8</ele>
        <time>2025-05-27T11:29:11Z</time>
      </trkpt>
      <trkpt lat="45.70313" lon="5.25892">
        <ele>316.8</ele>
        <time>2025-05-27T11:29:12Z</time>
      </trkpt>
      <trkpt lat="45.70313" lon="5.25889">
        <ele>317</ele>
        <time>2025-05-27T11:29:13Z</time>
      </trkpt>
      <trkpt lat="45.70314" lon="5.25887">
        <ele>317</ele>
        <time>2025-05-27T11:29:14Z</time>
      </trkpt>
      <trkpt lat="45.70314" lon="5.25886">
        <ele>317.4</ele>
        <time>2025-05-27T11:29:15Z</time>
      </trkpt>
      <trkpt lat="45.70317" lon="5.25882">
        <ele>317.4</ele>
        <time>2025-05-27T11:29:16Z</time>
      </trkpt>
      <trkpt lat="45.70319" lon="5.25881">
        <ele>317.4</ele>
        <time>2025-05-27T11:29:17Z</time>
      </trkpt>
      <trkpt lat="45.7032" lon="5.25879">
        <ele>317.6</ele>
        <time>2025-05-27T11:29:18Z</time>
      </trkpt>
      <trkpt lat="45.70322" lon="5.25877">
        <ele>317.6</ele>
        <time>2025-05-27T11:29:19Z</time>
      </trkpt>
      <trkpt lat="45.70323" lon="5.25875">
        <ele>318</ele>
        <time>2025-05-27T11:29:20Z</time>
      </trkpt>
      <trkpt lat="45.70325" lon="5.25873">
        <ele>318.4</ele>
        <time>2025-05-27T11:29:21Z</time>
      </trkpt>
      <trkpt lat="45.70327" lon="5.25871">
        <ele>318.4</ele>
        <time>2025-05-27T11:29:22Z</time>
      </trkpt>
      <trkpt lat="45.70329" lon="5.25869">
        <ele>318.6</ele>
        <time>2025-05-27T11:29:23Z</time>
      </trkpt>
      <trkpt lat="45.7033" lon="5.25867">
        <ele>318.8</ele>
        <time>2025-05-27T11:29:24Z</time>
      </trkpt>
      <trkpt lat="45.70332" lon="5.25865">
        <ele>318.8</ele>
        <time>2025-05-27T11:29:25Z</time>
      </trkpt>
      <trkpt lat="45.70333" lon="5.25863">
        <ele>318.8</ele>
        <time>2025-05-27T11:29:26Z</time>
      </trkpt>
      <trkpt lat="45.70336" lon="5.25859">
        <ele>318.8</ele>
        <time>2025-05-27T11:29:27Z</time>
      </trkpt>
      <trkpt lat="45.70338" lon="5.25856">
        <ele>319</ele>
        <time>2025-05-27T11:29:28Z</time>
      </trkpt>
      <trkpt lat="45.7034" lon="5.25853">
        <ele>319</ele>
        <time>2025-05-27T11:29:29Z</time>
      </trkpt>
      <trkpt lat="45.70341" lon="5.25851">
        <ele>319</ele>
        <time>2025-05-27T11:29:30Z</time>
      </trkpt>
      <trkpt lat="45.70341" lon="5.25851">
        <ele>318.6</ele>
        <time>2025-05-27T11:29:31Z</time>
      </trkpt>
      <trkpt lat="45.70342" lon="5.25848">
        <ele>318.6</ele>
        <time>2025-05-27T11:29:32Z</time>
      </trkpt>
      <trkpt lat="45.70342" lon="5.25845">
        <ele>318.6</ele>
        <time>2025-05-27T11:29:33Z</time>
      </trkpt>
      <trkpt lat="45.70342" lon="5.25841">
        <ele>319.2</ele>
        <time>2025-05-27T11:29:34Z</time>
      </trkpt>
      <trkpt lat="45.70343" lon="5.25837">
        <ele>319.2</ele>
        <time>2025-05-27T11:29:35Z</time>
      </trkpt>
      <trkpt lat="45.70344" lon="5.25834">
        <ele>319.2</ele>
        <time>2025-05-27T11:29:36Z</time>
      </trkpt>
      <trkpt lat="45.70345" lon="5.2583">
        <ele>319.2</ele>
        <time>2025-05-27T11:29:37Z</time>
      </trkpt>
      <trkpt lat="45.70347" lon="5.25827">
        <ele>319.2</ele>
        <time>2025-05-27T11:29:38Z</time>
      </trkpt>
      <trkpt lat="45.70349" lon="5.25824">
        <ele>319.2</ele>
        <time>2025-05-27T11:29:39Z</time>
      </trkpt>
      <trkpt lat="45.70352" lon="5.25821">
        <ele>319.4</ele>
        <time>2025-05-27T11:29:40Z</time>
      </trkpt>
      <trkpt lat="45.70355" lon="5.25819">
        <ele>319.4</ele>
        <time>2025-05-27T11:29:41Z</time>
      </trkpt>
      <trkpt lat="45.70357" lon="5.25816">
        <ele>319.4</ele>
        <time>2025-05-27T11:29:42Z</time>
      </trkpt>
      <trkpt lat="45.7036" lon="5.25814">
        <ele>319</ele>
        <time>2025-05-27T11:29:43Z</time>
      </trkpt>
      <trkpt lat="45.70364" lon="5.25812">
        <ele>318</ele>
        <time>2025-05-27T11:29:44Z</time>
      </trkpt>
      <trkpt lat="45.70369" lon="5.25811">
        <ele>317</ele>
        <time>2025-05-27T11:29:45Z</time>
      </trkpt>
      <trkpt lat="45.7038" lon="5.25808">
        <ele>316.6</ele>
        <time>2025-05-27T11:29:46Z</time>
      </trkpt>
      <trkpt lat="45.70383" lon="5.25805">
        <ele>316.2</ele>
        <time>2025-05-27T11:29:47Z</time>
      </trkpt>
      <trkpt lat="45.70389" lon="5.25804">
        <ele>316.6</ele>
        <time>2025-05-27T11:29:48Z</time>
      </trkpt>
      <trkpt lat="45.70392" lon="5.25802">
        <ele>316.6</ele>
        <time>2025-05-27T11:29:49Z</time>
      </trkpt>
      <trkpt lat="45.70395" lon="5.258">
        <ele>316.6</ele>
        <time>2025-05-27T11:29:50Z</time>
      </trkpt>
      <trkpt lat="45.70398" lon="5.25799">
        <ele>316.2</ele>
        <time>2025-05-27T11:29:51Z</time>
      </trkpt>
      <trkpt lat="45.704" lon="5.25798">
        <ele>316.4</ele>
        <time>2025-05-27T11:29:52Z</time>
      </trkpt>
      <trkpt lat="45.70403" lon="5.25796">
        <ele>315.8</ele>
        <time>2025-05-27T11:29:53Z</time>
      </trkpt>
      <trkpt lat="45.70406" lon="5.2579">
        <ele>315.4</ele>
        <time>2025-05-27T11:29:54Z</time>
      </trkpt>
      <trkpt lat="45.70411" lon="5.2579">
        <ele>315.2</ele>
        <time>2025-05-27T11:29:55Z</time>
      </trkpt>
      <trkpt lat="45.7041" lon="5.25787">
        <ele>315.2</ele>
        <time>2025-05-27T11:29:56Z</time>
      </trkpt>
      <trkpt lat="45.70413" lon="5.25785">
        <ele>315.2</ele>
        <time>2025-05-27T11:29:57Z</time>
      </trkpt>
      <trkpt lat="45.70413" lon="5.25785">
        <ele>315.2</ele>
        <time>2025-05-27T11:29:58Z</time>
      </trkpt>
      <trkpt lat="45.70415" lon="5.25784">
        <ele>315.2</ele>
        <time>2025-05-27T11:29:59Z</time>
      </trkpt>
      <trkpt lat="45.70415" lon="5.25782">
        <ele>314.8</ele>
        <time>2025-05-27T11:30:00Z</time>
      </trkpt>
      <trkpt lat="45.70415" lon="5.2578">
        <ele>314.8</ele>
        <time>2025-05-27T11:30:01Z</time>
      </trkpt>
      <trkpt lat="45.70415" lon="5.25777">
        <ele>314.6</ele>
        <time>2025-05-27T11:30:02Z</time>
      </trkpt>
      <trkpt lat="45.70417" lon="5.25774">
        <ele>314.6</ele>
        <time>2025-05-27T11:30:03Z</time>
      </trkpt>
      <trkpt lat="45.70419" lon="5.25772">
        <ele>314.2</ele>
        <time>2025-05-27T11:30:04Z</time>
      </trkpt>
      <trkpt lat="45.7042" lon="5.2577">
        <ele>314</ele>
        <time>2025-05-27T11:30:05Z</time>
      </trkpt>
      <trkpt lat="45.70423" lon="5.25767">
        <ele>312.8</ele>
        <time>2025-05-27T11:30:06Z</time>
      </trkpt>
      <trkpt lat="45.70431" lon="5.25765">
        <ele>312.4</ele>
        <time>2025-05-27T11:30:07Z</time>
      </trkpt>
      <trkpt lat="45.70439" lon="5.25758">
        <ele>311.8</ele>
        <time>2025-05-27T11:30:08Z</time>
      </trkpt>
      <trkpt lat="45.70444" lon="5.25756">
        <ele>310.8</ele>
        <time>2025-05-27T11:30:09Z</time>
      </trkpt>
      <trkpt lat="45.70446" lon="5.25752">
        <ele>310</ele>
        <time>2025-05-27T11:30:10Z</time>
      </trkpt>
      <trkpt lat="45.70451" lon="5.25748">
        <ele>307.8</ele>
        <time>2025-05-27T11:30:11Z</time>
      </trkpt>
      <trkpt lat="45.70455" lon="5.25744">
        <ele>309</ele>
        <time>2025-05-27T11:30:12Z</time>
      </trkpt>
      <trkpt lat="45.7046" lon="5.2574">
        <ele>309.8</ele>
        <time>2025-05-27T11:30:13Z</time>
      </trkpt>
      <trkpt lat="45.70474" lon="5.25736">
        <ele>309.2</ele>
        <time>2025-05-27T11:30:14Z</time>
      </trkpt>
      <trkpt lat="45.70476" lon="5.2573">
        <ele>309</ele>
        <time>2025-05-27T11:30:15Z</time>
      </trkpt>
      <trkpt lat="45.70479" lon="5.25724">
        <ele>308.2</ele>
        <time>2025-05-27T11:30:16Z</time>
      </trkpt>
      <trkpt lat="45.70482" lon="5.25717">
        <ele>307.6</ele>
        <time>2025-05-27T11:30:17Z</time>
      </trkpt>
      <trkpt lat="45.70482" lon="5.2571">
        <ele>307.6</ele>
        <time>2025-05-27T11:30:18Z</time>
      </trkpt>
      <trkpt lat="45.70486" lon="5.25705">
        <ele>307.2</ele>
        <time>2025-05-27T11:30:19Z</time>
      </trkpt>
      <trkpt lat="45.70488" lon="5.25699">
        <ele>306.4</ele>
        <time>2025-05-27T11:30:20Z</time>
      </trkpt>
      <trkpt lat="45.70487" lon="5.25693">
        <ele>306.4</ele>
        <time>2025-05-27T11:30:21Z</time>
      </trkpt>
      <trkpt lat="45.7049" lon="5.25688">
        <ele>306.4</ele>
        <time>2025-05-27T11:30:22Z</time>
      </trkpt>
      <trkpt lat="45.7049" lon="5.25684">
        <ele>306</ele>
        <time>2025-05-27T11:30:23Z</time>
      </trkpt>
      <trkpt lat="45.70495" lon="5.25681">
        <ele>305.6</ele>
        <time>2025-05-27T11:30:24Z</time>
      </trkpt>
      <trkpt lat="45.70499" lon="5.25677">
        <ele>304.8</ele>
        <time>2025-05-27T11:30:25Z</time>
      </trkpt>
      <trkpt lat="45.70503" lon="5.25674">
        <ele>304</ele>
        <time>2025-05-27T11:30:26Z</time>
      </trkpt>
      <trkpt lat="45.70507" lon="5.25669">
        <ele>303.6</ele>
        <time>2025-05-27T11:30:27Z</time>
      </trkpt>
      <trkpt lat="45.7051" lon="5.25664">
        <ele>302.4</ele>
        <time>2025-05-27T11:30:28Z</time>
      </trkpt>
      <trkpt lat="45.70514" lon="5.25658">
        <ele>301.4</ele>
        <time>2025-05-27T11:30:29Z</time>
      </trkpt>
      <trkpt lat="45.70519" lon="5.25652">
        <ele>301.2</ele>
        <time>2025-05-27T11:30:30Z</time>
      </trkpt>
      <trkpt lat="45.70521" lon="5.25649">
        <ele>300.8</ele>
        <time>2025-05-27T11:30:31Z</time>
      </trkpt>
      <trkpt lat="45.70526" lon="5.25644">
        <ele>301.2</ele>
        <time>2025-05-27T11:30:32Z</time>
      </trkpt>
      <trkpt lat="45.70526" lon="5.25644">
        <ele>301</ele>
        <time>2025-05-27T11:30:33Z</time>
      </trkpt>
      <trkpt lat="45.70526" lon="5.25644">
        <ele>300.4</ele>
        <time>2025-05-27T11:30:34Z</time>
      </trkpt>
      <trkpt lat="45.70538" lon="5.25625">
        <ele>300.2</ele>
        <time>2025-05-27T11:30:36Z</time>
      </trkpt>
      <trkpt lat="45.70542" lon="5.25618">
        <ele>300.2</ele>
        <time>2025-05-27T11:30:37Z</time>
      </trkpt>
      <trkpt lat="45.70545" lon="5.25609">
        <ele>299.6</ele>
        <time>2025-05-27T11:30:38Z</time>
      </trkpt>
      <trkpt lat="45.70547" lon="5.25604">
        <ele>298.4</ele>
        <time>2025-05-27T11:30:39Z</time>
      </trkpt>
      <trkpt lat="45.70553" lon="5.25598">
        <ele>298.4</ele>
        <time>2025-05-27T11:30:40Z</time>
      </trkpt>
      <trkpt lat="45.70555" lon="5.25592">
        <ele>298.2</ele>
        <time>2025-05-27T11:30:41Z</time>
      </trkpt>
      <trkpt lat="45.70556" lon="5.2559">
        <ele>297</ele>
        <time>2025-05-27T11:30:42Z</time>
      </trkpt>
      <trkpt lat="45.70558" lon="5.25583">
        <ele>296.2</ele>
        <time>2025-05-27T11:30:43Z</time>
      </trkpt>
      <trkpt lat="45.7056" lon="5.25576">
        <ele>296.2</ele>
        <time>2025-05-27T11:30:44Z</time>
      </trkpt>
      <trkpt lat="45.70561" lon="5.25572">
        <ele>295.8</ele>
        <time>2025-05-27T11:30:45Z</time>
      </trkpt>
      <trkpt lat="45.70561" lon="5.25565">
        <ele>295.8</ele>
        <time>2025-05-27T11:30:46Z</time>
      </trkpt>
      <trkpt lat="45.70562" lon="5.25561">
        <ele>295.4</ele>
        <time>2025-05-27T11:30:47Z</time>
      </trkpt>
      <trkpt lat="45.70563" lon="5.25554">
        <ele>295.4</ele>
        <time>2025-05-27T11:30:48Z</time>
      </trkpt>
      <trkpt lat="45.70563" lon="5.2555">
        <ele>294.6</ele>
        <time>2025-05-27T11:30:49Z</time>
      </trkpt>
      <trkpt lat="45.70567" lon="5.25544">
        <ele>293.8</ele>
        <time>2025-05-27T11:30:50Z</time>
      </trkpt>
      <trkpt lat="45.70573" lon="5.25535">
        <ele>292.4</ele>
        <time>2025-05-27T11:30:51Z</time>
      </trkpt>
      <trkpt lat="45.70579" lon="5.25526">
        <ele>292.4</ele>
        <time>2025-05-27T11:30:52Z</time>
      </trkpt>
      <trkpt lat="45.70582" lon="5.2552">
        <ele>289.8</ele>
        <time>2025-05-27T11:30:53Z</time>
      </trkpt>
      <trkpt lat="45.70585" lon="5.25516">
        <ele>288.8</ele>
        <time>2025-05-27T11:30:54Z</time>
      </trkpt>
      <trkpt lat="45.70589" lon="5.25512">
        <ele>288.8</ele>
        <time>2025-05-27T11:30:55Z</time>
      </trkpt>
      <trkpt lat="45.70592" lon="5.25507">
        <ele>288</ele>
        <time>2025-05-27T11:30:56Z</time>
      </trkpt>
      <trkpt lat="45.70593" lon="5.255">
        <ele>286.8</ele>
        <time>2025-05-27T11:30:57Z</time>
      </trkpt>
      <trkpt lat="45.70588" lon="5.25494">
        <ele>286</ele>
        <time>2025-05-27T11:30:58Z</time>
      </trkpt>
      <trkpt lat="45.70589" lon="5.25488">
        <ele>286</ele>
        <time>2025-05-27T11:30:59Z</time>
      </trkpt>
      <trkpt lat="45.7059" lon="5.2548">
        <ele>285.2</ele>
        <time>2025-05-27T11:31:00Z</time>
      </trkpt>
      <trkpt lat="45.70588" lon="5.25469">
        <ele>284.6</ele>
        <time>2025-05-27T11:31:01Z</time>
      </trkpt>
      <trkpt lat="45.70585" lon="5.25462">
        <ele>283.6</ele>
        <time>2025-05-27T11:31:02Z</time>
      </trkpt>
      <trkpt lat="45.70587" lon="5.25454">
        <ele>282.6</ele>
        <time>2025-05-27T11:31:03Z</time>
      </trkpt>
      <trkpt lat="45.70586" lon="5.25445">
        <ele>282.2</ele>
        <time>2025-05-27T11:31:04Z</time>
      </trkpt>
      <trkpt lat="45.70584" lon="5.25434">
        <ele>280.6</ele>
        <time>2025-05-27T11:31:05Z</time>
      </trkpt>
      <trkpt lat="45.70583" lon="5.25419">
        <ele>280.2</ele>
        <time>2025-05-27T11:31:06Z</time>
      </trkpt>
      <trkpt lat="45.70579" lon="5.25412">
        <ele>280</ele>
        <time>2025-05-27T11:31:07Z</time>
      </trkpt>
      <trkpt lat="45.70579" lon="5.25406">
        <ele>279</ele>
        <time>2025-05-27T11:31:08Z</time>
      </trkpt>
      <trkpt lat="45.70577" lon="5.25403">
        <ele>279</ele>
        <time>2025-05-27T11:31:09Z</time>
      </trkpt>
      <trkpt lat="45.70574" lon="5.25399">
        <ele>279</ele>
        <time>2025-05-27T11:31:10Z</time>
      </trkpt>
      <trkpt lat="45.70572" lon="5.25396">
        <ele>279</ele>
        <time>2025-05-27T11:31:11Z</time>
      </trkpt>
      <trkpt lat="45.70571" lon="5.25395">
        <ele>279</ele>
        <time>2025-05-27T11:31:12Z</time>
      </trkpt>
      <trkpt lat="45.70573" lon="5.25394">
        <ele>279</ele>
        <time>2025-05-27T11:31:13Z</time>
      </trkpt>
      <trkpt lat="45.70572" lon="5.25392">
        <ele>279</ele>
        <time>2025-05-27T11:31:14Z</time>
      </trkpt>
      <trkpt lat="45.70573" lon="5.25391">
        <ele>279.4</ele>
        <time>2025-05-27T11:31:15Z</time>
      </trkpt>
      <trkpt lat="45.70572" lon="5.25391">
        <ele>279.4</ele>
        <time>2025-05-27T11:31:16Z</time>
      </trkpt>
      <trkpt lat="45.70572" lon="5.25391">
        <ele>279.4</ele>
        <time>2025-05-27T11:31:17Z</time>
      </trkpt>
      <trkpt lat="45.70567" lon="5.25383">
        <ele>278.4</ele>
        <time>2025-05-27T11:31:51Z</time>
      </trkpt>
      <trkpt lat="45.70565" lon="5.25376">
        <ele>277.8</ele>
        <time>2025-05-27T11:31:52Z</time>
      </trkpt>
      <trkpt lat="45.70564" lon="5.25371">
        <ele>276.6</ele>
        <time>2025-05-27T11:31:53Z</time>
      </trkpt>
      <trkpt lat="45.7056" lon="5.25364">
        <ele>275.8</ele>
        <time>2025-05-27T11:31:54Z</time>
      </trkpt>
      <trkpt lat="45.70557" lon="5.25356">
        <ele>275.8</ele>
        <time>2025-05-27T11:31:55Z</time>
      </trkpt>
      <trkpt lat="45.70553" lon="5.2535">
        <ele>275.8</ele>
        <time>2025-05-27T11:31:56Z</time>
      </trkpt>
      <trkpt lat="45.70548" lon="5.25342">
        <ele>275.4</ele>
        <time>2025-05-27T11:31:57Z</time>
      </trkpt>
      <trkpt lat="45.70544" lon="5.25333">
        <ele>275.4</ele>
        <time>2025-05-27T11:31:58Z</time>
      </trkpt>
      <trkpt lat="45.70541" lon="5.25326">
        <ele>275</ele>
        <time>2025-05-27T11:31:59Z</time>
      </trkpt>
      <trkpt lat="45.70541" lon="5.25328">
        <ele>274</ele>
        <time>2025-05-27T11:32:00Z</time>
      </trkpt>
      <trkpt lat="45.70539" lon="5.25324">
        <ele>273.8</ele>
        <time>2025-05-27T11:32:01Z</time>
      </trkpt>
      <trkpt lat="45.70534" lon="5.25316">
        <ele>273.2</ele>
        <time>2025-05-27T11:32:02Z</time>
      </trkpt>
      <trkpt lat="45.70529" lon="5.2531">
        <ele>272.6</ele>
        <time>2025-05-27T11:32:03Z</time>
      </trkpt>
      <trkpt lat="45.70526" lon="5.25303">
        <ele>272.2</ele>
        <time>2025-05-27T11:32:04Z</time>
      </trkpt>
      <trkpt lat="45.70522" lon="5.25297">
        <ele>272.4</ele>
        <time>2025-05-27T11:32:05Z</time>
      </trkpt>
      <trkpt lat="45.70519" lon="5.25295">
        <ele>272</ele>
        <time>2025-05-27T11:32:06Z</time>
      </trkpt>
      <trkpt lat="45.70516" lon="5.25289">
        <ele>272</ele>
        <time>2025-05-27T11:32:07Z</time>
      </trkpt>
      <trkpt lat="45.70514" lon="5.25287">
        <ele>271.6</ele>
        <time>2025-05-27T11:32:08Z</time>
      </trkpt>
      <trkpt lat="45.70511" lon="5.25286">
        <ele>271.4</ele>
        <time>2025-05-27T11:32:09Z</time>
      </trkpt>
      <trkpt lat="45.70508" lon="5.25282">
        <ele>271</ele>
        <time>2025-05-27T11:32:10Z</time>
      </trkpt>
      <trkpt lat="45.70506" lon="5.25278">
        <ele>270.4</ele>
        <time>2025-05-27T11:32:11Z</time>
      </trkpt>
      <trkpt lat="45.70504" lon="5.25276">
        <ele>269.8</ele>
        <time>2025-05-27T11:32:12Z</time>
      </trkpt>
      <trkpt lat="45.70503" lon="5.25274">
        <ele>269.4</ele>
        <time>2025-05-27T11:32:13Z</time>
      </trkpt>
      <trkpt lat="45.70503" lon="5.25274">
        <ele>268.6</ele>
        <time>2025-05-27T11:32:14Z</time>
      </trkpt>
      <trkpt lat="45.70503" lon="5.25272">
        <ele>268</ele>
        <time>2025-05-27T11:32:15Z</time>
      </trkpt>
      <trkpt lat="45.70501" lon="5.2527">
        <ele>267.6</ele>
        <time>2025-05-27T11:32:16Z</time>
      </trkpt>
      <trkpt lat="45.705" lon="5.25269">
        <ele>267.6</ele>
        <time>2025-05-27T11:32:17Z</time>
      </trkpt>
      <trkpt lat="45.705" lon="5.25268">
        <ele>267.2</ele>
        <time>2025-05-27T11:32:18Z</time>
      </trkpt>
      <trkpt lat="45.705" lon="5.25268">
        <ele>267</ele>
        <time>2025-05-27T11:32:19Z</time>
      </trkpt>
      <trkpt lat="45.70505" lon="5.25265">
        <ele>266</ele>
        <time>2025-05-27T11:32:59Z</time>
      </trkpt>
      <trkpt lat="45.70505" lon="5.2526">
        <ele>265.6</ele>
        <time>2025-05-27T11:33:00Z</time>
      </trkpt>
      <trkpt lat="45.70505" lon="5.25254">
        <ele>264.8</ele>
        <time>2025-05-27T11:33:01Z</time>
      </trkpt>
      <trkpt lat="45.70505" lon="5.25249">
        <ele>263.8</ele>
        <time>2025-05-27T11:33:02Z</time>
      </trkpt>
      <trkpt lat="45.70504" lon="5.25245">
        <ele>263.2</ele>
        <time>2025-05-27T11:33:03Z</time>
      </trkpt>
      <trkpt lat="45.70502" lon="5.2524">
        <ele>262</ele>
        <time>2025-05-27T11:33:04Z</time>
      </trkpt>
      <trkpt lat="45.70501" lon="5.25237">
        <ele>261.4</ele>
        <time>2025-05-27T11:33:05Z</time>
      </trkpt>
      <trkpt lat="45.70499" lon="5.25233">
        <ele>260.8</ele>
        <time>2025-05-27T11:33:06Z</time>
      </trkpt>
      <trkpt lat="45.70496" lon="5.25223">
        <ele>260</ele>
        <time>2025-05-27T11:33:07Z</time>
      </trkpt>
      <trkpt lat="45.70497" lon="5.25221">
        <ele>259.4</ele>
        <time>2025-05-27T11:33:08Z</time>
      </trkpt>
      <trkpt lat="45.70497" lon="5.25213">
        <ele>258</ele>
        <time>2025-05-27T11:33:09Z</time>
      </trkpt>
      <trkpt lat="45.70495" lon="5.25206">
        <ele>257.4</ele>
        <time>2025-05-27T11:33:10Z</time>
      </trkpt>
      <trkpt lat="45.70495" lon="5.252">
        <ele>256.8</ele>
        <time>2025-05-27T11:33:11Z</time>
      </trkpt>
      <trkpt lat="45.70495" lon="5.25194">
        <ele>256.2</ele>
        <time>2025-05-27T11:33:12Z</time>
      </trkpt>
      <trkpt lat="45.70497" lon="5.25187">
        <ele>255.6</ele>
        <time>2025-05-27T11:33:13Z</time>
      </trkpt>
      <trkpt lat="45.70496" lon="5.25182">
        <ele>255.2</ele>
        <time>2025-05-27T11:33:14Z</time>
      </trkpt>
      <trkpt lat="45.70496" lon="5.25177">
        <ele>255</ele>
        <time>2025-05-27T11:33:15Z</time>
      </trkpt>
      <trkpt lat="45.70498" lon="5.25171">
        <ele>254.4</ele>
        <time>2025-05-27T11:33:16Z</time>
      </trkpt>
      <trkpt lat="45.70497" lon="5.25168">
        <ele>254.4</ele>
        <time>2025-05-27T11:33:17Z</time>
      </trkpt>
      <trkpt lat="45.70496" lon="5.25164">
        <ele>254.4</ele>
        <time>2025-05-27T11:33:18Z</time>
      </trkpt>
      <trkpt lat="45.70496" lon="5.2516">
        <ele>253.8</ele>
        <time>2025-05-27T11:33:19Z</time>
      </trkpt>
      <trkpt lat="45.70495" lon="5.25157">
        <ele>253.8</ele>
        <time>2025-05-27T11:33:20Z</time>
      </trkpt>
      <trkpt lat="45.70493" lon="5.25154">
        <ele>253.8</ele>
        <time>2025-05-27T11:33:21Z</time>
      </trkpt>
      <trkpt lat="45.70492" lon="5.25148">
        <ele>253.8</ele>
        <time>2025-05-27T11:33:22Z</time>
      </trkpt>
      <trkpt lat="45.70491" lon="5.25144">
        <ele>253.2</ele>
        <time>2025-05-27T11:33:23Z</time>
      </trkpt>
      <trkpt lat="45.7049" lon="5.2514">
        <ele>252.8</ele>
        <time>2025-05-27T11:33:24Z</time>
      </trkpt>
      <trkpt lat="45.7049" lon="5.25138">
        <ele>252.6</ele>
        <time>2025-05-27T11:33:25Z</time>
      </trkpt>
      <trkpt lat="45.7049" lon="5.25137">
        <ele>252.2</ele>
        <time>2025-05-27T11:33:26Z</time>
      </trkpt>
      <trkpt lat="45.7049" lon="5.25136">
        <ele>251.8</ele>
        <time>2025-05-27T11:33:27Z</time>
      </trkpt>
      <trkpt lat="45.70491" lon="5.25131">
        <ele>251</ele>
        <time>2025-05-27T11:33:35Z</time>
      </trkpt>
      <trkpt lat="45.70492" lon="5.25129">
        <ele>250.6</ele>
        <time>2025-05-27T11:33:36Z</time>
      </trkpt>
      <trkpt lat="45.70493" lon="5.25127">
        <ele>250.4</ele>
        <time>2025-05-27T11:33:37Z</time>
      </trkpt>
      <trkpt lat="45.70494" lon="5.25125">
        <ele>250.4</ele>
        <time>2025-05-27T11:33:38Z</time>
      </trkpt>
      <trkpt lat="45.70496" lon="5.25123">
        <ele>250.4</ele>
        <time>2025-05-27T11:33:39Z</time>
      </trkpt>
      <trkpt lat="45.70497" lon="5.2512">
        <ele>250.4</ele>
        <time>2025-05-27T11:33:40Z</time>
      </trkpt>
      <trkpt lat="45.70496" lon="5.25117">
        <ele>250</ele>
        <time>2025-05-27T11:33:41Z</time>
      </trkpt>
      <trkpt lat="45.70496" lon="5.25114">
        <ele>249.6</ele>
        <time>2025-05-27T11:33:42Z</time>
      </trkpt>
      <trkpt lat="45.70494" lon="5.2511">
        <ele>249.4</ele>
        <time>2025-05-27T11:33:43Z</time>
      </trkpt>
      <trkpt lat="45.70492" lon="5.25106">
        <ele>249.4</ele>
        <time>2025-05-27T11:33:44Z</time>
      </trkpt>
      <trkpt lat="45.70491" lon="5.25103">
        <ele>249.4</ele>
        <time>2025-05-27T11:33:45Z</time>
      </trkpt>
      <trkpt lat="45.70489" lon="5.251">
        <ele>249.4</ele>
        <time>2025-05-27T11:33:46Z</time>
      </trkpt>
      <trkpt lat="45.70487" lon="5.25098">
        <ele>249.8</ele>
        <time>2025-05-27T11:33:47Z</time>
      </trkpt>
      <trkpt lat="45.70486" lon="5.25097">
        <ele>249.8</ele>
        <time>2025-05-27T11:33:48Z</time>
      </trkpt>
      <trkpt lat="45.70485" lon="5.25096">
        <ele>250</ele>
        <time>2025-05-27T11:33:49Z</time>
      </trkpt>
      <trkpt lat="45.70484" lon="5.25095">
        <ele>250</ele>
        <time>2025-05-27T11:33:50Z</time>
      </trkpt>
      <trkpt lat="45.70483" lon="5.25093">
        <ele>250.4</ele>
        <time>2025-05-27T11:33:51Z</time>
      </trkpt>
      <trkpt lat="45.70483" lon="5.2509">
        <ele>250.4</ele>
        <time>2025-05-27T11:33:52Z</time>
      </trkpt>
      <trkpt lat="45.70482" lon="5.25088">
        <ele>251</ele>
        <time>2025-05-27T11:33:53Z</time>
      </trkpt>
      <trkpt lat="45.70482" lon="5.25085">
        <ele>251.4</ele>
        <time>2025-05-27T11:33:54Z</time>
      </trkpt>
      <trkpt lat="45.70481" lon="5.25084">
        <ele>251.4</ele>
        <time>2025-05-27T11:33:55Z</time>
      </trkpt>
      <trkpt lat="45.70481" lon="5.25082">
        <ele>251.4</ele>
        <time>2025-05-27T11:33:56Z</time>
      </trkpt>
      <trkpt lat="45.70481" lon="5.2508">
        <ele>252</ele>
        <time>2025-05-27T11:33:57Z</time>
      </trkpt>
      <trkpt lat="45.70481" lon="5.25077">
        <ele>252.2</ele>
        <time>2025-05-27T11:33:58Z</time>
      </trkpt>
      <trkpt lat="45.70481" lon="5.25075">
        <ele>252.2</ele>
        <time>2025-05-27T11:33:59Z</time>
      </trkpt>
      <trkpt lat="45.70481" lon="5.25073">
        <ele>252.2</ele>
        <time>2025-05-27T11:34:00Z</time>
      </trkpt>
      <trkpt lat="45.70481" lon="5.25071">
        <ele>252.6</ele>
        <time>2025-05-27T11:34:01Z</time>
      </trkpt>
      <trkpt lat="45.7048" lon="5.2507">
        <ele>253</ele>
        <time>2025-05-27T11:34:02Z</time>
      </trkpt>
      <trkpt lat="45.70481" lon="5.25067">
        <ele>253.6</ele>
        <time>2025-05-27T11:34:03Z</time>
      </trkpt>
      <trkpt lat="45.70481" lon="5.25065">
        <ele>253.6</ele>
        <time>2025-05-27T11:34:04Z</time>
      </trkpt>
      <trkpt lat="45.70481" lon="5.25064">
        <ele>254</ele>
        <time>2025-05-27T11:34:05Z</time>
      </trkpt>
      <trkpt lat="45.70481" lon="5.25063">
        <ele>254</ele>
        <time>2025-05-27T11:34:06Z</time>
      </trkpt>
      <trkpt lat="45.70481" lon="5.25063">
        <ele>254.4</ele>
        <time>2025-05-27T11:34:07Z</time>
      </trkpt>
      <trkpt lat="45.70481" lon="5.25063">
        <ele>254.4</ele>
        <time>2025-05-27T11:34:08Z</time>
      </trkpt>
      <trkpt lat="45.70483" lon="5.25062">
        <ele>255</ele>
        <time>2025-05-27T11:34:31Z</time>
      </trkpt>
      <trkpt lat="45.70481" lon="5.25062">
        <ele>255.4</ele>
        <time>2025-05-27T11:34:32Z</time>
      </trkpt>
      <trkpt lat="45.7048" lon="5.25061">
        <ele>255.4</ele>
        <time>2025-05-27T11:34:33Z</time>
      </trkpt>
      <trkpt lat="45.70479" lon="5.25062">
        <ele>255.8</ele>
        <time>2025-05-27T11:34:34Z</time>
      </trkpt>
      <trkpt lat="45.70479" lon="5.25062">
        <ele>255.8</ele>
        <time>2025-05-27T11:34:35Z</time>
      </trkpt>
      <trkpt lat="45.70479" lon="5.25062">
        <ele>256</ele>
        <time>2025-05-27T11:34:36Z</time>
      </trkpt>
      <trkpt lat="45.7048" lon="5.25062">
        <ele>256</ele>
        <time>2025-05-27T11:34:37Z</time>
      </trkpt>
      <trkpt lat="45.70482" lon="5.25062">
        <ele>256</ele>
        <time>2025-05-27T11:34:38Z</time>
      </trkpt>
      <trkpt lat="45.70482" lon="5.25062">
        <ele>255.8</ele>
        <time>2025-05-27T11:34:39Z</time>
      </trkpt>
      <trkpt lat="45.70482" lon="5.25061">
        <ele>255.8</ele>
        <time>2025-05-27T11:34:40Z</time>
      </trkpt>
      <trkpt lat="45.70483" lon="5.2506">
        <ele>255.4</ele>
        <time>2025-05-27T11:34:41Z</time>
      </trkpt>
      <trkpt lat="45.70483" lon="5.25059">
        <ele>255.4</ele>
        <time>2025-05-27T11:34:42Z</time>
      </trkpt>
      <trkpt lat="45.70486" lon="5.25059">
        <ele>255.6</ele>
        <time>2025-05-27T11:35:00Z</time>
      </trkpt>
      <trkpt lat="45.70487" lon="5.25058">
        <ele>255.6</ele>
        <time>2025-05-27T11:35:01Z</time>
      </trkpt>
      <trkpt lat="45.70487" lon="5.25057">
        <ele>255.6</ele>
        <time>2025-05-27T11:35:02Z</time>
      </trkpt>
      <trkpt lat="45.70487" lon="5.25057">
        <ele>255.8</ele>
        <time>2025-05-27T11:35:03Z</time>
      </trkpt>
      <trkpt lat="45.70487" lon="5.25057">
        <ele>255.8</ele>
        <time>2025-05-27T11:35:04Z</time>
      </trkpt>
      <trkpt lat="45.70486" lon="5.25056">
        <ele>256.8</ele>
        <time>2025-05-27T11:35:10Z</time>
      </trkpt>
      <trkpt lat="45.70487" lon="5.25055">
        <ele>256.8</ele>
        <time>2025-05-27T11:35:11Z</time>
      </trkpt>
      <trkpt lat="45.70488" lon="5.25053">
        <ele>256.8</ele>
        <time>2025-05-27T11:35:12Z</time>
      </trkpt>
      <trkpt lat="45.70487" lon="5.25051">
        <ele>256.8</ele>
        <time>2025-05-27T11:35:13Z</time>
      </trkpt>
      <trkpt lat="45.70487" lon="5.2505">
        <ele>257</ele>
        <time>2025-05-27T11:35:14Z</time>
      </trkpt>
      <trkpt lat="45.70487" lon="5.25048">
        <ele>257.4</ele>
        <time>2025-05-27T11:35:15Z</time>
      </trkpt>
      <trkpt lat="45.70486" lon="5.25047">
        <ele>257.4</ele>
        <time>2025-05-27T11:35:16Z</time>
      </trkpt>
      <trkpt lat="45.70486" lon="5.25045">
        <ele>257.4</ele>
        <time>2025-05-27T11:35:17Z</time>
      </trkpt>
      <trkpt lat="45.70486" lon="5.25044">
        <ele>257.8</ele>
        <time>2025-05-27T11:35:18Z</time>
      </trkpt>
      <trkpt lat="45.70486" lon="5.25041">
        <ele>257.8</ele>
        <time>2025-05-27T11:35:19Z</time>
      </trkpt>
      <trkpt lat="45.70486" lon="5.25039">
        <ele>258.4</ele>
        <time>2025-05-27T11:35:20Z</time>
      </trkpt>
      <trkpt lat="45.70486" lon="5.25038">
        <ele>258.6</ele>
        <time>2025-05-27T11:35:21Z</time>
      </trkpt>
      <trkpt lat="45.70486" lon="5.25036">
        <ele>258.6</ele>
        <time>2025-05-27T11:35:22Z</time>
      </trkpt>
      <trkpt lat="45.70487" lon="5.25035">
        <ele>258.6</ele>
        <time>2025-05-27T11:35:23Z</time>
      </trkpt>
      <trkpt lat="45.70488" lon="5.25035">
        <ele>258.6</ele>
        <time>2025-05-27T11:35:24Z</time>
      </trkpt>
      <trkpt lat="45.70488" lon="5.25033">
        <ele>259.2</ele>
        <time>2025-05-27T11:35:25Z</time>
      </trkpt>
      <trkpt lat="45.70488" lon="5.25032">
        <ele>259.6</ele>
        <time>2025-05-27T11:35:26Z</time>
      </trkpt>
      <trkpt lat="45.70488" lon="5.25031">
        <ele>259.6</ele>
        <time>2025-05-27T11:35:27Z</time>
      </trkpt>
      <trkpt lat="45.70487" lon="5.2503">
        <ele>260</ele>
        <time>2025-05-27T11:35:28Z</time>
      </trkpt>
      <trkpt lat="45.70488" lon="5.25028">
        <ele>260</ele>
        <time>2025-05-27T11:35:29Z</time>
      </trkpt>
      <trkpt lat="45.70488" lon="5.25028">
        <ele>260.2</ele>
        <time>2025-05-27T11:35:30Z</time>
      </trkpt>
      <trkpt lat="45.70488" lon="5.25028">
        <ele>260.2</ele>
        <time>2025-05-27T11:35:31Z</time>
      </trkpt>
      <trkpt lat="45.70489" lon="5.25026">
        <ele>260.2</ele>
        <time>2025-05-27T11:35:34Z</time>
      </trkpt>
      <trkpt lat="45.70489" lon="5.25024">
        <ele>260.4</ele>
        <time>2025-05-27T11:35:35Z</time>
      </trkpt>
      <trkpt lat="45.7049" lon="5.25022">
        <ele>260.4</ele>
        <time>2025-05-27T11:35:36Z</time>
      </trkpt>
      <trkpt lat="45.7049" lon="5.2502">
        <ele>260.4</ele>
        <time>2025-05-27T11:35:37Z</time>
      </trkpt>
      <trkpt lat="45.70491" lon="5.25019">
        <ele>260.4</ele>
        <time>2025-05-27T11:35:38Z</time>
      </trkpt>
      <trkpt lat="45.70491" lon="5.25018">
        <ele>260.8</ele>
        <time>2025-05-27T11:35:39Z</time>
      </trkpt>
      <trkpt lat="45.70491" lon="5.25016">
        <ele>260.8</ele>
        <time>2025-05-27T11:35:40Z</time>
      </trkpt>
      <trkpt lat="45.70491" lon="5.25014">
        <ele>261</ele>
        <time>2025-05-27T11:35:41Z</time>
      </trkpt>
      <trkpt lat="45.70491" lon="5.25011">
        <ele>261</ele>
        <time>2025-05-27T11:35:42Z</time>
      </trkpt>
      <trkpt lat="45.70491" lon="5.25009">
        <ele>262.2</ele>
        <time>2025-05-27T11:35:43Z</time>
      </trkpt>
      <trkpt lat="45.70491" lon="5.25008">
        <ele>262.2</ele>
        <time>2025-05-27T11:35:44Z</time>
      </trkpt>
      <trkpt lat="45.7049" lon="5.25006">
        <ele>262.2</ele>
        <time>2025-05-27T11:35:45Z</time>
      </trkpt>
      <trkpt lat="45.7049" lon="5.25004">
        <ele>262.2</ele>
        <time>2025-05-27T11:35:46Z</time>
      </trkpt>
      <trkpt lat="45.7049" lon="5.25002">
        <ele>262.4</ele>
        <time>2025-05-27T11:35:47Z</time>
      </trkpt>
      <trkpt lat="45.70489" lon="5.25">
        <ele>262.4</ele>
        <time>2025-05-27T11:35:48Z</time>
      </trkpt>
      <trkpt lat="45.70489" lon="5.24999">
        <ele>263</ele>
        <time>2025-05-27T11:35:49Z</time>
      </trkpt>
      <trkpt lat="45.70489" lon="5.24998">
        <ele>263.2</ele>
        <time>2025-05-27T11:35:50Z</time>
      </trkpt>
      <trkpt lat="45.70489" lon="5.24996">
        <ele>263.6</ele>
        <time>2025-05-27T11:35:51Z</time>
      </trkpt>
      <trkpt lat="45.70488" lon="5.24994">
        <ele>263.6</ele>
        <time>2025-05-27T11:35:52Z</time>
      </trkpt>
      <trkpt lat="45.70488" lon="5.24993">
        <ele>264</ele>
        <time>2025-05-27T11:35:53Z</time>
      </trkpt>
      <trkpt lat="45.70488" lon="5.24992">
        <ele>264.4</ele>
        <time>2025-05-27T11:35:54Z</time>
      </trkpt>
      <trkpt lat="45.70487" lon="5.24991">
        <ele>264.8</ele>
        <time>2025-05-27T11:35:55Z</time>
      </trkpt>
      <trkpt lat="45.70487" lon="5.24991">
        <ele>264.8</ele>
        <time>2025-05-27T11:35:56Z</time>
      </trkpt>
      <trkpt lat="45.70486" lon="5.24989">
        <ele>264.8</ele>
        <time>2025-05-27T11:35:57Z</time>
      </trkpt>
      <trkpt lat="45.70485" lon="5.24987">
        <ele>265.2</ele>
        <time>2025-05-27T11:35:58Z</time>
      </trkpt>
      <trkpt lat="45.70484" lon="5.24985">
        <ele>265.6</ele>
        <time>2025-05-27T11:35:59Z</time>
      </trkpt>
      <trkpt lat="45.70484" lon="5.24984">
        <ele>265.8</ele>
        <time>2025-05-27T11:36:00Z</time>
      </trkpt>
      <trkpt lat="45.70485" lon="5.24981">
        <ele>266.2</ele>
        <time>2025-05-27T11:36:01Z</time>
      </trkpt>
      <trkpt lat="45.70485" lon="5.24978">
        <ele>266.2</ele>
        <time>2025-05-27T11:36:02Z</time>
      </trkpt>
      <trkpt lat="45.70485" lon="5.24976">
        <ele>266.6</ele>
        <time>2025-05-27T11:36:03Z</time>
      </trkpt>
      <trkpt lat="45.70484" lon="5.24973">
        <ele>267</ele>
        <time>2025-05-27T11:36:04Z</time>
      </trkpt>
      <trkpt lat="45.70483" lon="5.24972">
        <ele>267</ele>
        <time>2025-05-27T11:36:05Z</time>
      </trkpt>
      <trkpt lat="45.70482" lon="5.24973">
        <ele>267.4</ele>
        <time>2025-05-27T11:36:06Z</time>
      </trkpt>
      <trkpt lat="45.70482" lon="5.24973">
        <ele>267.6</ele>
        <time>2025-05-27T11:36:07Z</time>
      </trkpt>
      <trkpt lat="45.70482" lon="5.24972">
        <ele>267.6</ele>
        <time>2025-05-27T11:36:08Z</time>
      </trkpt>
      <trkpt lat="45.70483" lon="5.24971">
        <ele>267.8</ele>
        <time>2025-05-27T11:36:09Z</time>
      </trkpt>
      <trkpt lat="45.70483" lon="5.2497">
        <ele>268.2</ele>
        <time>2025-05-27T11:36:10Z</time>
      </trkpt>
      <trkpt lat="45.70483" lon="5.24968">
        <ele>268.2</ele>
        <time>2025-05-27T11:36:11Z</time>
      </trkpt>
      <trkpt lat="45.70482" lon="5.24966">
        <ele>268.6</ele>
        <time>2025-05-27T11:36:12Z</time>
      </trkpt>
      <trkpt lat="45.70482" lon="5.24966">
        <ele>269</ele>
        <time>2025-05-27T11:36:13Z</time>
      </trkpt>
      <trkpt lat="45.70482" lon="5.24964">
        <ele>269</ele>
        <time>2025-05-27T11:36:14Z</time>
      </trkpt>
      <trkpt lat="45.70482" lon="5.24963">
        <ele>269</ele>
        <time>2025-05-27T11:36:15Z</time>
      </trkpt>
      <trkpt lat="45.70482" lon="5.24962">
        <ele>269</ele>
        <time>2025-05-27T11:36:16Z</time>
      </trkpt>
      <trkpt lat="45.70482" lon="5.24963">
        <ele>269.2</ele>
        <time>2025-05-27T11:36:17Z</time>
      </trkpt>
      <trkpt lat="45.70482" lon="5.24963">
        <ele>269.2</ele>
        <time>2025-05-27T11:36:18Z</time>
      </trkpt>
      <trkpt lat="45.70483" lon="5.24962">
        <ele>269.2</ele>
        <time>2025-05-27T11:36:19Z</time>
      </trkpt>
      <trkpt lat="45.70485" lon="5.24961">
        <ele>269.6</ele>
        <time>2025-05-27T11:36:20Z</time>
      </trkpt>
      <trkpt lat="45.70485" lon="5.2496">
        <ele>269.6</ele>
        <time>2025-05-27T11:36:21Z</time>
      </trkpt>
      <trkpt lat="45.70485" lon="5.24959">
        <ele>269.6</ele>
        <time>2025-05-27T11:36:22Z</time>
      </trkpt>
      <trkpt lat="45.70484" lon="5.24958">
        <ele>269.8</ele>
        <time>2025-05-27T11:36:23Z</time>
      </trkpt>
      <trkpt lat="45.70484" lon="5.24956">
        <ele>270</ele>
        <time>2025-05-27T11:36:24Z</time>
      </trkpt>
      <trkpt lat="45.70483" lon="5.24956">
        <ele>270.2</ele>
        <time>2025-05-27T11:36:25Z</time>
      </trkpt>
      <trkpt lat="45.70482" lon="5.24956">
        <ele>270.2</ele>
        <time>2025-05-27T11:36:26Z</time>
      </trkpt>
      <trkpt lat="45.70482" lon="5.24952">
        <ele>270.6</ele>
        <time>2025-05-27T11:36:36Z</time>
      </trkpt>
      <trkpt lat="45.70482" lon="5.24951">
        <ele>270.6</ele>
        <time>2025-05-27T11:36:37Z</time>
      </trkpt>
      <trkpt lat="45.70482" lon="5.2495">
        <ele>270.8</ele>
        <time>2025-05-27T11:36:38Z</time>
      </trkpt>
      <trkpt lat="45.70481" lon="5.24948">
        <ele>271</ele>
        <time>2025-05-27T11:36:39Z</time>
      </trkpt>
      <trkpt lat="45.70481" lon="5.24948">
        <ele>271</ele>
        <time>2025-05-27T11:36:40Z</time>
      </trkpt>
      <trkpt lat="45.70481" lon="5.24947">
        <ele>271</ele>
        <time>2025-05-27T11:36:41Z</time>
      </trkpt>
      <trkpt lat="45.70481" lon="5.24945">
        <ele>271</ele>
        <time>2025-05-27T11:36:42Z</time>
      </trkpt>
      <trkpt lat="45.70481" lon="5.24943">
        <ele>271.4</ele>
        <time>2025-05-27T11:36:43Z</time>
      </trkpt>
      <trkpt lat="45.70481" lon="5.24942">
        <ele>271.4</ele>
        <time>2025-05-27T11:36:44Z</time>
      </trkpt>
      <trkpt lat="45.70481" lon="5.24941">
        <ele>271.8</ele>
        <time>2025-05-27T11:36:45Z</time>
      </trkpt>
      <trkpt lat="45.7048" lon="5.2494">
        <ele>271.8</ele>
        <time>2025-05-27T11:36:46Z</time>
      </trkpt>
      <trkpt lat="45.7048" lon="5.2494">
        <ele>272</ele>
        <time>2025-05-27T11:36:47Z</time>
      </trkpt>
      <trkpt lat="45.70479" lon="5.2494">
        <ele>272.4</ele>
        <time>2025-05-27T11:36:48Z</time>
      </trkpt>
      <trkpt lat="45.70479" lon="5.24938">
        <ele>272.4</ele>
        <time>2025-05-27T11:36:49Z</time>
      </trkpt>
      <trkpt lat="45.70479" lon="5.24937">
        <ele>272.6</ele>
        <time>2025-05-27T11:36:50Z</time>
      </trkpt>
      <trkpt lat="45.70479" lon="5.24936">
        <ele>272.6</ele>
        <time>2025-05-27T11:36:51Z</time>
      </trkpt>
      <trkpt lat="45.70479" lon="5.24935">
        <ele>273</ele>
        <time>2025-05-27T11:36:52Z</time>
      </trkpt>
      <trkpt lat="45.70479" lon="5.24934">
        <ele>273</ele>
        <time>2025-05-27T11:36:53Z</time>
      </trkpt>
      <trkpt lat="45.70479" lon="5.24932">
        <ele>273.2</ele>
        <time>2025-05-27T11:36:54Z</time>
      </trkpt>
      <trkpt lat="45.70479" lon="5.24931">
        <ele>273.2</ele>
        <time>2025-05-27T11:36:55Z</time>
      </trkpt>
      <trkpt lat="45.70479" lon="5.2493">
        <ele>273.4</ele>
        <time>2025-05-27T11:36:56Z</time>
      </trkpt>
      <trkpt lat="45.70479" lon="5.24929">
        <ele>273.4</ele>
        <time>2025-05-27T11:36:57Z</time>
      </trkpt>
      <trkpt lat="45.70479" lon="5.24928">
        <ele>273.4</ele>
        <time>2025-05-27T11:36:58Z</time>
      </trkpt>
      <trkpt lat="45.70479" lon="5.24928">
        <ele>273.4</ele>
        <time>2025-05-27T11:36:59Z</time>
      </trkpt>
      <trkpt lat="45.70479" lon="5.24926">
        <ele>274</ele>
        <time>2025-05-27T11:37:00Z</time>
      </trkpt>
      <trkpt lat="45.70479" lon="5.24925">
        <ele>274</ele>
        <time>2025-05-27T11:37:01Z</time>
      </trkpt>
      <trkpt lat="45.70479" lon="5.24923">
        <ele>274.4</ele>
        <time>2025-05-27T11:37:02Z</time>
      </trkpt>
      <trkpt lat="45.7048" lon="5.24922">
        <ele>274.8</ele>
        <time>2025-05-27T11:37:03Z</time>
      </trkpt>
      <trkpt lat="45.7048" lon="5.24921">
        <ele>275.2</ele>
        <time>2025-05-27T11:37:04Z</time>
      </trkpt>
      <trkpt lat="45.7048" lon="5.2492">
        <ele>275.4</ele>
        <time>2025-05-27T11:37:05Z</time>
      </trkpt>
      <trkpt lat="45.70479" lon="5.24918">
        <ele>275.6</ele>
        <time>2025-05-27T11:37:06Z</time>
      </trkpt>
      <trkpt lat="45.70478" lon="5.24917">
        <ele>275.6</ele>
        <time>2025-05-27T11:37:07Z</time>
      </trkpt>
      <trkpt lat="45.70477" lon="5.24917">
        <ele>276.2</ele>
        <time>2025-05-27T11:37:08Z</time>
      </trkpt>
      <trkpt lat="45.70477" lon="5.24916">
        <ele>276.4</ele>
        <time>2025-05-27T11:37:09Z</time>
      </trkpt>
      <trkpt lat="45.70477" lon="5.24915">
        <ele>276.6</ele>
        <time>2025-05-27T11:37:10Z</time>
      </trkpt>
      <trkpt lat="45.70477" lon="5.24915">
        <ele>277</ele>
        <time>2025-05-27T11:37:11Z</time>
      </trkpt>
      <trkpt lat="45.70477" lon="5.24914">
        <ele>277</ele>
        <time>2025-05-27T11:37:12Z</time>
      </trkpt>
      <trkpt lat="45.70478" lon="5.24913">
        <ele>277</ele>
        <time>2025-05-27T11:37:13Z</time>
      </trkpt>
      <trkpt lat="45.70478" lon="5.24912">
        <ele>277.2</ele>
        <time>2025-05-27T11:37:14Z</time>
      </trkpt>
      <trkpt lat="45.70477" lon="5.24911">
        <ele>277.4</ele>
        <time>2025-05-27T11:37:15Z</time>
      </trkpt>
      <trkpt lat="45.70477" lon="5.2491">
        <ele>277.8</ele>
        <time>2025-05-27T11:37:16Z</time>
      </trkpt>
      <trkpt lat="45.70477" lon="5.24908">
        <ele>277.8</ele>
        <time>2025-05-27T11:37:17Z</time>
      </trkpt>
      <trkpt lat="45.70476" lon="5.24907">
        <ele>277.8</ele>
        <time>2025-05-27T11:37:18Z</time>
      </trkpt>
      <trkpt lat="45.70477" lon="5.24906">
        <ele>278</ele>
        <time>2025-05-27T11:37:19Z</time>
      </trkpt>
      <trkpt lat="45.70477" lon="5.24905">
        <ele>278.4</ele>
        <time>2025-05-27T11:37:20Z</time>
      </trkpt>
      <trkpt lat="45.70477" lon="5.24904">
        <ele>278.6</ele>
        <time>2025-05-27T11:37:21Z</time>
      </trkpt>
      <trkpt lat="45.70478" lon="5.24902">
        <ele>278.6</ele>
        <time>2025-05-27T11:37:22Z</time>
      </trkpt>
      <trkpt lat="45.70479" lon="5.249">
        <ele>278.8</ele>
        <time>2025-05-27T11:37:23Z</time>
      </trkpt>
      <trkpt lat="45.70479" lon="5.24899">
        <ele>279</ele>
        <time>2025-05-27T11:37:24Z</time>
      </trkpt>
      <trkpt lat="45.70479" lon="5.24898">
        <ele>279</ele>
        <time>2025-05-27T11:37:25Z</time>
      </trkpt>
      <trkpt lat="45.70479" lon="5.24896">
        <ele>279</ele>
        <time>2025-05-27T11:37:26Z</time>
      </trkpt>
      <trkpt lat="45.70479" lon="5.24895">
        <ele>279.2</ele>
        <time>2025-05-27T11:37:27Z</time>
      </trkpt>
      <trkpt lat="45.70479" lon="5.24894">
        <ele>279.2</ele>
        <time>2025-05-27T11:37:28Z</time>
      </trkpt>
      <trkpt lat="45.70479" lon="5.24893">
        <ele>279.6</ele>
        <time>2025-05-27T11:37:29Z</time>
      </trkpt>
      <trkpt lat="45.70478" lon="5.24891">
        <ele>279.6</ele>
        <time>2025-05-27T11:37:30Z</time>
      </trkpt>
      <trkpt lat="45.70478" lon="5.24889">
        <ele>279.6</ele>
        <time>2025-05-27T11:37:31Z</time>
      </trkpt>
      <trkpt lat="45.70478" lon="5.24888">
        <ele>280</ele>
        <time>2025-05-27T11:37:32Z</time>
      </trkpt>
      <trkpt lat="45.70478" lon="5.24887">
        <ele>280</ele>
        <time>2025-05-27T11:37:33Z</time>
      </trkpt>
      <trkpt lat="45.70477" lon="5.24886">
        <ele>280</ele>
        <time>2025-05-27T11:37:34Z</time>
      </trkpt>
      <trkpt lat="45.70476" lon="5.24887">
        <ele>280</ele>
        <time>2025-05-27T11:37:35Z</time>
      </trkpt>
      <trkpt lat="45.70475" lon="5.24886">
        <ele>280.4</ele>
        <time>2025-05-27T11:37:38Z</time>
      </trkpt>
      <trkpt lat="45.70474" lon="5.24885">
        <ele>280.6</ele>
        <time>2025-05-27T11:37:39Z</time>
      </trkpt>
      <trkpt lat="45.70474" lon="5.24884">
        <ele>280.8</ele>
        <time>2025-05-27T11:37:40Z</time>
      </trkpt>
      <trkpt lat="45.70474" lon="5.24882">
        <ele>280.8</ele>
        <time>2025-05-27T11:37:41Z</time>
      </trkpt>
      <trkpt lat="45.70474" lon="5.24881">
        <ele>281</ele>
        <time>2025-05-27T11:37:42Z</time>
      </trkpt>
      <trkpt lat="45.70474" lon="5.2488">
        <ele>281</ele>
        <time>2025-05-27T11:37:43Z</time>
      </trkpt>
      <trkpt lat="45.70474" lon="5.2488">
        <ele>281</ele>
        <time>2025-05-27T11:37:44Z</time>
      </trkpt>
      <trkpt lat="45.70474" lon="5.24878">
        <ele>281.4</ele>
        <time>2025-05-27T11:37:45Z</time>
      </trkpt>
      <trkpt lat="45.70475" lon="5.24877">
        <ele>281.6</ele>
        <time>2025-05-27T11:37:46Z</time>
      </trkpt>
      <trkpt lat="45.70475" lon="5.24876">
        <ele>282</ele>
        <time>2025-05-27T11:37:47Z</time>
      </trkpt>
      <trkpt lat="45.70475" lon="5.24876">
        <ele>282</ele>
        <time>2025-05-27T11:37:48Z</time>
      </trkpt>
      <trkpt lat="45.70475" lon="5.24874">
        <ele>282.4</ele>
        <time>2025-05-27T11:37:49Z</time>
      </trkpt>
      <trkpt lat="45.70475" lon="5.24873">
        <ele>282.6</ele>
        <time>2025-05-27T11:37:50Z</time>
      </trkpt>
      <trkpt lat="45.70475" lon="5.24872">
        <ele>282.8</ele>
        <time>2025-05-27T11:37:51Z</time>
      </trkpt>
      <trkpt lat="45.70475" lon="5.24871">
        <ele>282.8</ele>
        <time>2025-05-27T11:37:52Z</time>
      </trkpt>
      <trkpt lat="45.70475" lon="5.2487">
        <ele>282.8</ele>
        <time>2025-05-27T11:37:53Z</time>
      </trkpt>
      <trkpt lat="45.70477" lon="5.24868">
        <ele>283.2</ele>
        <time>2025-05-27T11:37:57Z</time>
      </trkpt>
      <trkpt lat="45.70477" lon="5.24866">
        <ele>283.2</ele>
        <time>2025-05-27T11:37:58Z</time>
      </trkpt>
      <trkpt lat="45.70478" lon="5.24864">
        <ele>283.2</ele>
        <time>2025-05-27T11:37:59Z</time>
      </trkpt>
      <trkpt lat="45.70479" lon="5.24861">
        <ele>283.2</ele>
        <time>2025-05-27T11:38:00Z</time>
      </trkpt>
      <trkpt lat="45.70479" lon="5.24859">
        <ele>283.4</ele>
        <time>2025-05-27T11:38:01Z</time>
      </trkpt>
      <trkpt lat="45.70478" lon="5.24857">
        <ele>283.4</ele>
        <time>2025-05-27T11:38:02Z</time>
      </trkpt>
      <trkpt lat="45.70477" lon="5.24855">
        <ele>283.6</ele>
        <time>2025-05-27T11:38:03Z</time>
      </trkpt>
      <trkpt lat="45.70477" lon="5.24853">
        <ele>284</ele>
        <time>2025-05-27T11:38:04Z</time>
      </trkpt>
      <trkpt lat="45.70477" lon="5.24852">
        <ele>284</ele>
        <time>2025-05-27T11:38:05Z</time>
      </trkpt>
      <trkpt lat="45.70477" lon="5.2485">
        <ele>284.2</ele>
        <time>2025-05-27T11:38:06Z</time>
      </trkpt>
      <trkpt lat="45.70477" lon="5.24848">
        <ele>284.2</ele>
        <time>2025-05-27T11:38:07Z</time>
      </trkpt>
      <trkpt lat="45.70477" lon="5.24847">
        <ele>284.4</ele>
        <time>2025-05-27T11:38:08Z</time>
      </trkpt>
      <trkpt lat="45.70477" lon="5.24845">
        <ele>284.6</ele>
        <time>2025-05-27T11:38:09Z</time>
      </trkpt>
      <trkpt lat="45.70478" lon="5.24843">
        <ele>284.6</ele>
        <time>2025-05-27T11:38:10Z</time>
      </trkpt>
      <trkpt lat="45.70479" lon="5.24841">
        <ele>284.6</ele>
        <time>2025-05-27T11:38:11Z</time>
      </trkpt>
      <trkpt lat="45.70479" lon="5.24839">
        <ele>284.6</ele>
        <time>2025-05-27T11:38:12Z</time>
      </trkpt>
      <trkpt lat="45.70479" lon="5.24838">
        <ele>285.2</ele>
        <time>2025-05-27T11:38:13Z</time>
      </trkpt>
      <trkpt lat="45.70479" lon="5.24836">
        <ele>285.2</ele>
        <time>2025-05-27T11:38:14Z</time>
      </trkpt>
      <trkpt lat="45.70479" lon="5.24833">
        <ele>285.4</ele>
        <time>2025-05-27T11:38:15Z</time>
      </trkpt>
      <trkpt lat="45.7048" lon="5.24831">
        <ele>285.4</ele>
        <time>2025-05-27T11:38:16Z</time>
      </trkpt>
      <trkpt lat="45.7048" lon="5.2483">
        <ele>285.8</ele>
        <time>2025-05-27T11:38:17Z</time>
      </trkpt>
      <trkpt lat="45.70479" lon="5.24827">
        <ele>285.8</ele>
        <time>2025-05-27T11:38:18Z</time>
      </trkpt>
      <trkpt lat="45.70479" lon="5.24824">
        <ele>286.4</ele>
        <time>2025-05-27T11:38:19Z</time>
      </trkpt>
      <trkpt lat="45.70479" lon="5.24822">
        <ele>286.6</ele>
        <time>2025-05-27T11:38:20Z</time>
      </trkpt>
      <trkpt lat="45.70479" lon="5.24821">
        <ele>287</ele>
        <time>2025-05-27T11:38:21Z</time>
      </trkpt>
      <trkpt lat="45.70479" lon="5.2482">
        <ele>287.4</ele>
        <time>2025-05-27T11:38:22Z</time>
      </trkpt>
      <trkpt lat="45.70478" lon="5.2482">
        <ele>287.8</ele>
        <time>2025-05-27T11:38:23Z</time>
      </trkpt>
      <trkpt lat="45.70479" lon="5.2482">
        <ele>288</ele>
        <time>2025-05-27T11:38:24Z</time>
      </trkpt>
      <trkpt lat="45.70479" lon="5.2482">
        <ele>288.2</ele>
        <time>2025-05-27T11:38:25Z</time>
      </trkpt>
      <trkpt lat="45.70481" lon="5.24817">
        <ele>288.2</ele>
        <time>2025-05-27T11:38:33Z</time>
      </trkpt>
      <trkpt lat="45.70482" lon="5.24816">
        <ele>288.2</ele>
        <time>2025-05-27T11:38:34Z</time>
      </trkpt>
      <trkpt lat="45.70483" lon="5.24815">
        <ele>288.2</ele>
        <time>2025-05-27T11:38:35Z</time>
      </trkpt>
      <trkpt lat="45.70485" lon="5.24814">
        <ele>288.4</ele>
        <time>2025-05-27T11:38:36Z</time>
      </trkpt>
      <trkpt lat="45.70486" lon="5.24813">
        <ele>288.8</ele>
        <time>2025-05-27T11:38:37Z</time>
      </trkpt>
      <trkpt lat="45.70486" lon="5.24812">
        <ele>288.8</ele>
        <time>2025-05-27T11:38:38Z</time>
      </trkpt>
      <trkpt lat="45.70486" lon="5.2481">
        <ele>289.2</ele>
        <time>2025-05-27T11:38:39Z</time>
      </trkpt>
      <trkpt lat="45.70486" lon="5.24808">
        <ele>289.2</ele>
        <time>2025-05-27T11:38:40Z</time>
      </trkpt>
      <trkpt lat="45.70487" lon="5.24807">
        <ele>289.6</ele>
        <time>2025-05-27T11:38:41Z</time>
      </trkpt>
      <trkpt lat="45.70487" lon="5.24806">
        <ele>289.8</ele>
        <time>2025-05-27T11:38:42Z</time>
      </trkpt>
      <trkpt lat="45.70486" lon="5.24804">
        <ele>289.8</ele>
        <time>2025-05-27T11:38:43Z</time>
      </trkpt>
      <trkpt lat="45.70485" lon="5.24803">
        <ele>290.2</ele>
        <time>2025-05-27T11:38:44Z</time>
      </trkpt>
      <trkpt lat="45.70485" lon="5.24802">
        <ele>290.2</ele>
        <time>2025-05-27T11:38:45Z</time>
      </trkpt>
      <trkpt lat="45.70484" lon="5.24801">
        <ele>290.6</ele>
        <time>2025-05-27T11:38:46Z</time>
      </trkpt>
      <trkpt lat="45.70484" lon="5.248">
        <ele>290.8</ele>
        <time>2025-05-27T11:38:47Z</time>
      </trkpt>
      <trkpt lat="45.70484" lon="5.24799">
        <ele>290.8</ele>
        <time>2025-05-27T11:38:48Z</time>
      </trkpt>
      <trkpt lat="45.70484" lon="5.24798">
        <ele>291.2</ele>
        <time>2025-05-27T11:38:49Z</time>
      </trkpt>
      <trkpt lat="45.70485" lon="5.24797">
        <ele>291.4</ele>
        <time>2025-05-27T11:38:50Z</time>
      </trkpt>
      <trkpt lat="45.70486" lon="5.24796">
        <ele>291.4</ele>
        <time>2025-05-27T11:38:51Z</time>
      </trkpt>
      <trkpt lat="45.70486" lon="5.24795">
        <ele>291.4</ele>
        <time>2025-05-27T11:38:52Z</time>
      </trkpt>
      <trkpt lat="45.70486" lon="5.24795">
        <ele>292.4</ele>
        <time>2025-05-27T11:38:53Z</time>
      </trkpt>
      <trkpt lat="45.70486" lon="5.24794">
        <ele>292.4</ele>
        <time>2025-05-27T11:38:54Z</time>
      </trkpt>
      <trkpt lat="45.70487" lon="5.24792">
        <ele>292.8</ele>
        <time>2025-05-27T11:38:55Z</time>
      </trkpt>
      <trkpt lat="45.70487" lon="5.24791">
        <ele>293.2</ele>
        <time>2025-05-27T11:38:56Z</time>
      </trkpt>
      <trkpt lat="45.70487" lon="5.24791">
        <ele>293.4</ele>
        <time>2025-05-27T11:38:57Z</time>
      </trkpt>
      <trkpt lat="45.70487" lon="5.24789">
        <ele>293.4</ele>
        <time>2025-05-27T11:38:58Z</time>
      </trkpt>
      <trkpt lat="45.70487" lon="5.24788">
        <ele>293.8</ele>
        <time>2025-05-27T11:38:59Z</time>
      </trkpt>
      <trkpt lat="45.70487" lon="5.24786">
        <ele>294</ele>
        <time>2025-05-27T11:39:00Z</time>
      </trkpt>
      <trkpt lat="45.70487" lon="5.24786">
        <ele>294.2</ele>
        <time>2025-05-27T11:39:01Z</time>
      </trkpt>
      <trkpt lat="45.70487" lon="5.24785">
        <ele>294.2</ele>
        <time>2025-05-27T11:39:02Z</time>
      </trkpt>
      <trkpt lat="45.70487" lon="5.24783">
        <ele>294.4</ele>
        <time>2025-05-27T11:39:03Z</time>
      </trkpt>
      <trkpt lat="45.70488" lon="5.24782">
        <ele>294.4</ele>
        <time>2025-05-27T11:39:04Z</time>
      </trkpt>
      <trkpt lat="45.70488" lon="5.2478">
        <ele>294.8</ele>
        <time>2025-05-27T11:39:05Z</time>
      </trkpt>
      <trkpt lat="45.70488" lon="5.24779">
        <ele>294.8</ele>
        <time>2025-05-27T11:39:06Z</time>
      </trkpt>
      <trkpt lat="45.70488" lon="5.24778">
        <ele>294.8</ele>
        <time>2025-05-27T11:39:07Z</time>
      </trkpt>
      <trkpt lat="45.70489" lon="5.24777">
        <ele>295</ele>
        <time>2025-05-27T11:39:08Z</time>
      </trkpt>
      <trkpt lat="45.70489" lon="5.24773">
        <ele>295.4</ele>
        <time>2025-05-27T11:39:51Z</time>
      </trkpt>
      <trkpt lat="45.70489" lon="5.24773">
        <ele>295.4</ele>
        <time>2025-05-27T11:39:52Z</time>
      </trkpt>
      <trkpt lat="45.7049" lon="5.24769">
        <ele>295.2</ele>
        <time>2025-05-27T11:40:09Z</time>
      </trkpt>
      <trkpt lat="45.70491" lon="5.24767">
        <ele>295.2</ele>
        <time>2025-05-27T11:40:10Z</time>
      </trkpt>
      <trkpt lat="45.70491" lon="5.24765">
        <ele>295.4</ele>
        <time>2025-05-27T11:40:11Z</time>
      </trkpt>
      <trkpt lat="45.70492" lon="5.24763">
        <ele>295.4</ele>
        <time>2025-05-27T11:40:12Z</time>
      </trkpt>
      <trkpt lat="45.70493" lon="5.2476">
        <ele>295.4</ele>
        <time>2025-05-27T11:40:13Z</time>
      </trkpt>
      <trkpt lat="45.70493" lon="5.24757">
        <ele>295</ele>
        <time>2025-05-27T11:40:14Z</time>
      </trkpt>
      <trkpt lat="45.70493" lon="5.24753">
        <ele>295</ele>
        <time>2025-05-27T11:40:15Z</time>
      </trkpt>
      <trkpt lat="45.70493" lon="5.24749">
        <ele>294.8</ele>
        <time>2025-05-27T11:40:16Z</time>
      </trkpt>
      <trkpt lat="45.70492" lon="5.24745">
        <ele>294.2</ele>
        <time>2025-05-27T11:40:17Z</time>
      </trkpt>
      <trkpt lat="45.70492" lon="5.24741">
        <ele>294.2</ele>
        <time>2025-05-27T11:40:18Z</time>
      </trkpt>
      <trkpt lat="45.70492" lon="5.24736">
        <ele>293.8</ele>
        <time>2025-05-27T11:40:19Z</time>
      </trkpt>
      <trkpt lat="45.70493" lon="5.24732">
        <ele>293.6</ele>
        <time>2025-05-27T11:40:20Z</time>
      </trkpt>
      <trkpt lat="45.70493" lon="5.24727">
        <ele>293.6</ele>
        <time>2025-05-27T11:40:21Z</time>
      </trkpt>
      <trkpt lat="45.70493" lon="5.24723">
        <ele>293.6</ele>
        <time>2025-05-27T11:40:22Z</time>
      </trkpt>
      <trkpt lat="45.7049" lon="5.24714">
        <ele>293.6</ele>
        <time>2025-05-27T11:40:23Z</time>
      </trkpt>
      <trkpt lat="45.7049" lon="5.24709">
        <ele>294</ele>
        <time>2025-05-27T11:40:24Z</time>
      </trkpt>
      <trkpt lat="45.70489" lon="5.24703">
        <ele>294</ele>
        <time>2025-05-27T11:40:25Z</time>
      </trkpt>
      <trkpt lat="45.70489" lon="5.24698">
        <ele>294.2</ele>
        <time>2025-05-27T11:40:26Z</time>
      </trkpt>
      <trkpt lat="45.70491" lon="5.24693">
        <ele>294.2</ele>
        <time>2025-05-27T11:40:27Z</time>
      </trkpt>
      <trkpt lat="45.7049" lon="5.24689">
        <ele>294.4</ele>
        <time>2025-05-27T11:40:28Z</time>
      </trkpt>
      <trkpt lat="45.7049" lon="5.24685">
        <ele>294.8</ele>
        <time>2025-05-27T11:40:29Z</time>
      </trkpt>
      <trkpt lat="45.70489" lon="5.2468">
        <ele>295.2</ele>
        <time>2025-05-27T11:40:30Z</time>
      </trkpt>
      <trkpt lat="45.70488" lon="5.24677">
        <ele>295.4</ele>
        <time>2025-05-27T11:40:31Z</time>
      </trkpt>
      <trkpt lat="45.7049" lon="5.24675">
        <ele>295.8</ele>
        <time>2025-05-27T11:40:32Z</time>
      </trkpt>
      <trkpt lat="45.7049" lon="5.24672">
        <ele>296</ele>
        <time>2025-05-27T11:40:33Z</time>
      </trkpt>
      <trkpt lat="45.70489" lon="5.24669">
        <ele>296.4</ele>
        <time>2025-05-27T11:40:34Z</time>
      </trkpt>
      <trkpt lat="45.70488" lon="5.24666">
        <ele>295.8</ele>
        <time>2025-05-27T11:40:35Z</time>
      </trkpt>
      <trkpt lat="45.70488" lon="5.24664">
        <ele>296.4</ele>
        <time>2025-05-27T11:40:36Z</time>
      </trkpt>
      <trkpt lat="45.70487" lon="5.24664">
        <ele>297</ele>
        <time>2025-05-27T11:40:37Z</time>
      </trkpt>
      <trkpt lat="45.70486" lon="5.24662">
        <ele>297.4</ele>
        <time>2025-05-27T11:40:38Z</time>
      </trkpt>
      <trkpt lat="45.70485" lon="5.2466">
        <ele>297.8</ele>
        <time>2025-05-27T11:40:39Z</time>
      </trkpt>
      <trkpt lat="45.70484" lon="5.24658">
        <ele>298</ele>
        <time>2025-05-27T11:40:40Z</time>
      </trkpt>
      <trkpt lat="45.70483" lon="5.24655">
        <ele>298</ele>
        <time>2025-05-27T11:40:41Z</time>
      </trkpt>
      <trkpt lat="45.70481" lon="5.24653">
        <ele>298</ele>
        <time>2025-05-27T11:40:42Z</time>
      </trkpt>
      <trkpt lat="45.7048" lon="5.24652">
        <ele>298.4</ele>
        <time>2025-05-27T11:40:43Z</time>
      </trkpt>
      <trkpt lat="45.7048" lon="5.24651">
        <ele>298.6</ele>
        <time>2025-05-27T11:40:44Z</time>
      </trkpt>
      <trkpt lat="45.70479" lon="5.24649">
        <ele>298.8</ele>
        <time>2025-05-27T11:40:45Z</time>
      </trkpt>
      <trkpt lat="45.70479" lon="5.24648">
        <ele>298.8</ele>
        <time>2025-05-27T11:40:46Z</time>
      </trkpt>
      <trkpt lat="45.70477" lon="5.24645">
        <ele>298.8</ele>
        <time>2025-05-27T11:40:47Z</time>
      </trkpt>
      <trkpt lat="45.70476" lon="5.24643">
        <ele>299.2</ele>
        <time>2025-05-27T11:40:48Z</time>
      </trkpt>
      <trkpt lat="45.70475" lon="5.24642">
        <ele>299.4</ele>
        <time>2025-05-27T11:40:49Z</time>
      </trkpt>
      <trkpt lat="45.70475" lon="5.24642">
        <ele>299.4</ele>
        <time>2025-05-27T11:40:50Z</time>
      </trkpt>
      <trkpt lat="45.70475" lon="5.24642">
        <ele>299.8</ele>
        <time>2025-05-27T11:40:51Z</time>
      </trkpt>
      <trkpt lat="45.70473" lon="5.24635">
        <ele>300.2</ele>
        <time>2025-05-27T11:40:53Z</time>
      </trkpt>
      <trkpt lat="45.70472" lon="5.24633">
        <ele>300.6</ele>
        <time>2025-05-27T11:40:54Z</time>
      </trkpt>
      <trkpt lat="45.70471" lon="5.24631">
        <ele>301</ele>
        <time>2025-05-27T11:40:55Z</time>
      </trkpt>
      <trkpt lat="45.70471" lon="5.2463">
        <ele>301</ele>
        <time>2025-05-27T11:40:56Z</time>
      </trkpt>
      <trkpt lat="45.70471" lon="5.24629">
        <ele>301.4</ele>
        <time>2025-05-27T11:40:57Z</time>
      </trkpt>
      <trkpt lat="45.70471" lon="5.24627">
        <ele>301.4</ele>
        <time>2025-05-27T11:40:58Z</time>
      </trkpt>
      <trkpt lat="45.70471" lon="5.24625">
        <ele>301.6</ele>
        <time>2025-05-27T11:40:59Z</time>
      </trkpt>
      <trkpt lat="45.70471" lon="5.24623">
        <ele>301.6</ele>
        <time>2025-05-27T11:41:00Z</time>
      </trkpt>
      <trkpt lat="45.7047" lon="5.24621">
        <ele>302</ele>
        <time>2025-05-27T11:41:01Z</time>
      </trkpt>
      <trkpt lat="45.7047" lon="5.24619">
        <ele>302</ele>
        <time>2025-05-27T11:41:02Z</time>
      </trkpt>
      <trkpt lat="45.7047" lon="5.24616">
        <ele>302.2</ele>
        <time>2025-05-27T11:41:03Z</time>
      </trkpt>
      <trkpt lat="45.70471" lon="5.24613">
        <ele>302.2</ele>
        <time>2025-05-27T11:41:04Z</time>
      </trkpt>
      <trkpt lat="45.70471" lon="5.2461">
        <ele>302.2</ele>
        <time>2025-05-27T11:41:05Z</time>
      </trkpt>
      <trkpt lat="45.7047" lon="5.24608">
        <ele>302.4</ele>
        <time>2025-05-27T11:41:06Z</time>
      </trkpt>
      <trkpt lat="45.7047" lon="5.24606">
        <ele>302.4</ele>
        <time>2025-05-27T11:41:07Z</time>
      </trkpt>
      <trkpt lat="45.7047" lon="5.24604">
        <ele>302.8</ele>
        <time>2025-05-27T11:41:08Z</time>
      </trkpt>
      <trkpt lat="45.7047" lon="5.24602">
        <ele>302.8</ele>
        <time>2025-05-27T11:41:09Z</time>
      </trkpt>
      <trkpt lat="45.70471" lon="5.24601">
        <ele>303.2</ele>
        <time>2025-05-27T11:41:10Z</time>
      </trkpt>
      <trkpt lat="45.70471" lon="5.246">
        <ele>303.2</ele>
        <time>2025-05-27T11:41:11Z</time>
      </trkpt>
      <trkpt lat="45.70471" lon="5.24598">
        <ele>303.2</ele>
        <time>2025-05-27T11:41:12Z</time>
      </trkpt>
      <trkpt lat="45.70471" lon="5.24598">
        <ele>303.6</ele>
        <time>2025-05-27T11:41:13Z</time>
      </trkpt>
      <trkpt lat="45.7047" lon="5.24596">
        <ele>304</ele>
        <time>2025-05-27T11:41:14Z</time>
      </trkpt>
      <trkpt lat="45.7047" lon="5.24594">
        <ele>304</ele>
        <time>2025-05-27T11:41:15Z</time>
      </trkpt>
      <trkpt lat="45.70469" lon="5.24593">
        <ele>304.2</ele>
        <time>2025-05-27T11:41:16Z</time>
      </trkpt>
      <trkpt lat="45.70469" lon="5.24591">
        <ele>304.2</ele>
        <time>2025-05-27T11:41:17Z</time>
      </trkpt>
      <trkpt lat="45.70468" lon="5.24588">
        <ele>305</ele>
        <time>2025-05-27T11:41:18Z</time>
      </trkpt>
      <trkpt lat="45.70467" lon="5.24585">
        <ele>305</ele>
        <time>2025-05-27T11:41:19Z</time>
      </trkpt>
      <trkpt lat="45.70467" lon="5.24583">
        <ele>305</ele>
        <time>2025-05-27T11:41:20Z</time>
      </trkpt>
      <trkpt lat="45.70467" lon="5.24581">
        <ele>305</ele>
        <time>2025-05-27T11:41:21Z</time>
      </trkpt>
      <trkpt lat="45.70468" lon="5.2458">
        <ele>305</ele>
        <time>2025-05-27T11:41:22Z</time>
      </trkpt>
      <trkpt lat="45.70467" lon="5.24579">
        <ele>304.2</ele>
        <time>2025-05-27T11:41:23Z</time>
      </trkpt>
      <trkpt lat="45.70466" lon="5.24574">
        <ele>305.6</ele>
        <time>2025-05-27T11:41:36Z</time>
      </trkpt>
      <trkpt lat="45.70467" lon="5.24573">
        <ele>305</ele>
        <time>2025-05-27T11:41:37Z</time>
      </trkpt>
      <trkpt lat="45.70469" lon="5.24572">
        <ele>304.6</ele>
        <time>2025-05-27T11:41:38Z</time>
      </trkpt>
      <trkpt lat="45.70472" lon="5.24564">
        <ele>303.2</ele>
        <time>2025-05-27T11:41:39Z</time>
      </trkpt>
      <trkpt lat="45.70478" lon="5.24561">
        <ele>302.4</ele>
        <time>2025-05-27T11:41:40Z</time>
      </trkpt>
      <trkpt lat="45.7048" lon="5.24558">
        <ele>302</ele>
        <time>2025-05-27T11:41:41Z</time>
      </trkpt>
      <trkpt lat="45.70484" lon="5.24557">
        <ele>302</ele>
        <time>2025-05-27T11:41:42Z</time>
      </trkpt>
      <trkpt lat="45.70486" lon="5.24554">
        <ele>302</ele>
        <time>2025-05-27T11:41:43Z</time>
      </trkpt>
      <trkpt lat="45.70491" lon="5.24551">
        <ele>301.4</ele>
        <time>2025-05-27T11:41:44Z</time>
      </trkpt>
      <trkpt lat="45.70494" lon="5.24547">
        <ele>301.2</ele>
        <time>2025-05-27T11:41:45Z</time>
      </trkpt>
      <trkpt lat="45.70497" lon="5.24543">
        <ele>301.4</ele>
        <time>2025-05-27T11:41:46Z</time>
      </trkpt>
      <trkpt lat="45.70501" lon="5.2454">
        <ele>301.4</ele>
        <time>2025-05-27T11:41:47Z</time>
      </trkpt>
      <trkpt lat="45.70503" lon="5.24538">
        <ele>301.6</ele>
        <time>2025-05-27T11:41:48Z</time>
      </trkpt>
      <trkpt lat="45.70506" lon="5.24535">
        <ele>301.6</ele>
        <time>2025-05-27T11:41:49Z</time>
      </trkpt>
      <trkpt lat="45.70509" lon="5.24532">
        <ele>302</ele>
        <time>2025-05-27T11:41:50Z</time>
      </trkpt>
      <trkpt lat="45.70511" lon="5.24529">
        <ele>302</ele>
        <time>2025-05-27T11:41:51Z</time>
      </trkpt>
      <trkpt lat="45.70515" lon="5.24525">
        <ele>301</ele>
        <time>2025-05-27T11:41:52Z</time>
      </trkpt>
      <trkpt lat="45.70519" lon="5.24522">
        <ele>301</ele>
        <time>2025-05-27T11:41:53Z</time>
      </trkpt>
      <trkpt lat="45.70523" lon="5.24519">
        <ele>301.4</ele>
        <time>2025-05-27T11:41:54Z</time>
      </trkpt>
      <trkpt lat="45.70525" lon="5.24515">
        <ele>301.6</ele>
        <time>2025-05-27T11:41:55Z</time>
      </trkpt>
      <trkpt lat="45.70528" lon="5.24512">
        <ele>302</ele>
        <time>2025-05-27T11:41:56Z</time>
      </trkpt>
      <trkpt lat="45.7053" lon="5.2451">
        <ele>302.4</ele>
        <time>2025-05-27T11:41:57Z</time>
      </trkpt>
      <trkpt lat="45.70532" lon="5.24508">
        <ele>302.6</ele>
        <time>2025-05-27T11:41:58Z</time>
      </trkpt>
      <trkpt lat="45.70536" lon="5.24506">
        <ele>302.6</ele>
        <time>2025-05-27T11:41:59Z</time>
      </trkpt>
      <trkpt lat="45.70538" lon="5.24504">
        <ele>303</ele>
        <time>2025-05-27T11:42:00Z</time>
      </trkpt>
      <trkpt lat="45.70539" lon="5.24503">
        <ele>303.2</ele>
        <time>2025-05-27T11:42:01Z</time>
      </trkpt>
      <trkpt lat="45.70541" lon="5.245">
        <ele>303.2</ele>
        <time>2025-05-27T11:42:02Z</time>
      </trkpt>
      <trkpt lat="45.70544" lon="5.24498">
        <ele>303.2</ele>
        <time>2025-05-27T11:42:03Z</time>
      </trkpt>
      <trkpt lat="45.70546" lon="5.24496">
        <ele>303.2</ele>
        <time>2025-05-27T11:42:04Z</time>
      </trkpt>
      <trkpt lat="45.70548" lon="5.24495">
        <ele>303.2</ele>
        <time>2025-05-27T11:42:05Z</time>
      </trkpt>
      <trkpt lat="45.70549" lon="5.24494">
        <ele>303</ele>
        <time>2025-05-27T11:42:06Z</time>
      </trkpt>
      <trkpt lat="45.7055" lon="5.24492">
        <ele>303</ele>
        <time>2025-05-27T11:42:07Z</time>
      </trkpt>
      <trkpt lat="45.70553" lon="5.24489">
        <ele>303.2</ele>
        <time>2025-05-27T11:42:08Z</time>
      </trkpt>
      <trkpt lat="45.70557" lon="5.24486">
        <ele>303.2</ele>
        <time>2025-05-27T11:42:09Z</time>
      </trkpt>
      <trkpt lat="45.7056" lon="5.24483">
        <ele>302.8</ele>
        <time>2025-05-27T11:42:10Z</time>
      </trkpt>
      <trkpt lat="45.70562" lon="5.24481">
        <ele>302.8</ele>
        <time>2025-05-27T11:42:11Z</time>
      </trkpt>
      <trkpt lat="45.70565" lon="5.24479">
        <ele>302.8</ele>
        <time>2025-05-27T11:42:12Z</time>
      </trkpt>
      <trkpt lat="45.70567" lon="5.24477">
        <ele>302.8</ele>
        <time>2025-05-27T11:42:13Z</time>
      </trkpt>
      <trkpt lat="45.7057" lon="5.24475">
        <ele>302.2</ele>
        <time>2025-05-27T11:42:14Z</time>
      </trkpt>
      <trkpt lat="45.70573" lon="5.24474">
        <ele>302</ele>
        <time>2025-05-27T11:42:15Z</time>
      </trkpt>
      <trkpt lat="45.70576" lon="5.24472">
        <ele>302</ele>
        <time>2025-05-27T11:42:16Z</time>
      </trkpt>
      <trkpt lat="45.70579" lon="5.24471">
        <ele>301.4</ele>
        <time>2025-05-27T11:42:17Z</time>
      </trkpt>
      <trkpt lat="45.7058" lon="5.24471">
        <ele>301.4</ele>
        <time>2025-05-27T11:42:18Z</time>
      </trkpt>
      <trkpt lat="45.70582" lon="5.24469">
        <ele>301.2</ele>
        <time>2025-05-27T11:42:19Z</time>
      </trkpt>
      <trkpt lat="45.70584" lon="5.24467">
        <ele>300.8</ele>
        <time>2025-05-27T11:42:20Z</time>
      </trkpt>
      <trkpt lat="45.70586" lon="5.24466">
        <ele>300.6</ele>
        <time>2025-05-27T11:42:21Z</time>
      </trkpt>
      <trkpt lat="45.70588" lon="5.24464">
        <ele>299.8</ele>
        <time>2025-05-27T11:42:22Z</time>
      </trkpt>
      <trkpt lat="45.70588" lon="5.24464">
        <ele>299.2</ele>
        <time>2025-05-27T11:42:23Z</time>
      </trkpt>
      <trkpt lat="45.7059" lon="5.24463">
        <ele>298.6</ele>
        <time>2025-05-27T11:42:24Z</time>
      </trkpt>
      <trkpt lat="45.70592" lon="5.24462">
        <ele>298.4</ele>
        <time>2025-05-27T11:42:25Z</time>
      </trkpt>
      <trkpt lat="45.70593" lon="5.24461">
        <ele>298</ele>
        <time>2025-05-27T11:42:26Z</time>
      </trkpt>
      <trkpt lat="45.70594" lon="5.2446">
        <ele>298</ele>
        <time>2025-05-27T11:42:27Z</time>
      </trkpt>
      <trkpt lat="45.70596" lon="5.24458">
        <ele>297</ele>
        <time>2025-05-27T11:42:34Z</time>
      </trkpt>
      <trkpt lat="45.70597" lon="5.24458">
        <ele>297</ele>
        <time>2025-05-27T11:42:35Z</time>
      </trkpt>
      <trkpt lat="45.70598" lon="5.24458">
        <ele>296.8</ele>
        <time>2025-05-27T11:42:36Z</time>
      </trkpt>
      <trkpt lat="45.70599" lon="5.24458">
        <ele>296.8</ele>
        <time>2025-05-27T11:42:37Z</time>
      </trkpt>
      <trkpt lat="45.706" lon="5.24457">
        <ele>296.2</ele>
        <time>2025-05-27T11:42:38Z</time>
      </trkpt>
      <trkpt lat="45.70601" lon="5.24456">
        <ele>296.2</ele>
        <time>2025-05-27T11:42:39Z</time>
      </trkpt>
      <trkpt lat="45.70602" lon="5.24456">
        <ele>296</ele>
        <time>2025-05-27T11:42:40Z</time>
      </trkpt>
      <trkpt lat="45.70602" lon="5.24455">
        <ele>296</ele>
        <time>2025-05-27T11:42:41Z</time>
      </trkpt>
      <trkpt lat="45.70602" lon="5.24455">
        <ele>296</ele>
        <time>2025-05-27T11:42:42Z</time>
      </trkpt>
      <trkpt lat="45.70604" lon="5.24454">
        <ele>295.2</ele>
        <time>2025-05-27T11:42:46Z</time>
      </trkpt>
      <trkpt lat="45.70606" lon="5.24453">
        <ele>294.8</ele>
        <time>2025-05-27T11:42:47Z</time>
      </trkpt>
      <trkpt lat="45.70608" lon="5.24452">
        <ele>294.8</ele>
        <time>2025-05-27T11:42:48Z</time>
      </trkpt>
      <trkpt lat="45.70611" lon="5.24451">
        <ele>294.4</ele>
        <time>2025-05-27T11:42:49Z</time>
      </trkpt>
      <trkpt lat="45.70613" lon="5.24448">
        <ele>293.6</ele>
        <time>2025-05-27T11:42:50Z</time>
      </trkpt>
      <trkpt lat="45.70615" lon="5.24447">
        <ele>292.8</ele>
        <time>2025-05-27T11:42:51Z</time>
      </trkpt>
      <trkpt lat="45.70617" lon="5.24444">
        <ele>291.6</ele>
        <time>2025-05-27T11:42:52Z</time>
      </trkpt>
      <trkpt lat="45.70619" lon="5.24443">
        <ele>290.8</ele>
        <time>2025-05-27T11:42:53Z</time>
      </trkpt>
      <trkpt lat="45.70621" lon="5.2444">
        <ele>290</ele>
        <time>2025-05-27T11:42:54Z</time>
      </trkpt>
      <trkpt lat="45.70623" lon="5.24437">
        <ele>289.4</ele>
        <time>2025-05-27T11:42:55Z</time>
      </trkpt>
      <trkpt lat="45.70625" lon="5.24435">
        <ele>289</ele>
        <time>2025-05-27T11:42:56Z</time>
      </trkpt>
      <trkpt lat="45.70627" lon="5.24432">
        <ele>288.6</ele>
        <time>2025-05-27T11:42:57Z</time>
      </trkpt>
      <trkpt lat="45.70629" lon="5.24429">
        <ele>287.8</ele>
        <time>2025-05-27T11:42:58Z</time>
      </trkpt>
      <trkpt lat="45.7063" lon="5.24426">
        <ele>287.2</ele>
        <time>2025-05-27T11:42:59Z</time>
      </trkpt>
      <trkpt lat="45.70631" lon="5.24421">
        <ele>287</ele>
        <time>2025-05-27T11:43:00Z</time>
      </trkpt>
      <trkpt lat="45.70632" lon="5.24416">
        <ele>286.2</ele>
        <time>2025-05-27T11:43:01Z</time>
      </trkpt>
      <trkpt lat="45.70634" lon="5.24412">
        <ele>285.8</ele>
        <time>2025-05-27T11:43:02Z</time>
      </trkpt>
      <trkpt lat="45.70635" lon="5.24408">
        <ele>285.2</ele>
        <time>2025-05-27T11:43:03Z</time>
      </trkpt>
      <trkpt lat="45.70638" lon="5.24405">
        <ele>284.8</ele>
        <time>2025-05-27T11:43:04Z</time>
      </trkpt>
      <trkpt lat="45.70641" lon="5.24401">
        <ele>283.8</ele>
        <time>2025-05-27T11:43:05Z</time>
      </trkpt>
      <trkpt lat="45.70643" lon="5.24399">
        <ele>283.2</ele>
        <time>2025-05-27T11:43:06Z</time>
      </trkpt>
      <trkpt lat="45.70645" lon="5.24395">
        <ele>282.8</ele>
        <time>2025-05-27T11:43:07Z</time>
      </trkpt>
      <trkpt lat="45.70647" lon="5.24391">
        <ele>281.6</ele>
        <time>2025-05-27T11:43:08Z</time>
      </trkpt>
      <trkpt lat="45.70649" lon="5.24387">
        <ele>281.4</ele>
        <time>2025-05-27T11:43:09Z</time>
      </trkpt>
      <trkpt lat="45.70649" lon="5.24383">
        <ele>281.2</ele>
        <time>2025-05-27T11:43:10Z</time>
      </trkpt>
      <trkpt lat="45.7065" lon="5.2438">
        <ele>281.2</ele>
        <time>2025-05-27T11:43:11Z</time>
      </trkpt>
      <trkpt lat="45.70651" lon="5.24377">
        <ele>280.2</ele>
        <time>2025-05-27T11:43:12Z</time>
      </trkpt>
      <trkpt lat="45.70652" lon="5.24374">
        <ele>279.8</ele>
        <time>2025-05-27T11:43:13Z</time>
      </trkpt>
      <trkpt lat="45.70654" lon="5.2437">
        <ele>279.8</ele>
        <time>2025-05-27T11:43:14Z</time>
      </trkpt>
      <trkpt lat="45.70655" lon="5.24367">
        <ele>278.4</ele>
        <time>2025-05-27T11:43:15Z</time>
      </trkpt>
      <trkpt lat="45.70656" lon="5.24364">
        <ele>277.6</ele>
        <time>2025-05-27T11:43:16Z</time>
      </trkpt>
      <trkpt lat="45.70658" lon="5.24361">
        <ele>277.6</ele>
        <time>2025-05-27T11:43:17Z</time>
      </trkpt>
      <trkpt lat="45.7066" lon="5.24359">
        <ele>277.2</ele>
        <time>2025-05-27T11:43:18Z</time>
      </trkpt>
      <trkpt lat="45.70662" lon="5.24357">
        <ele>276.4</ele>
        <time>2025-05-27T11:43:19Z</time>
      </trkpt>
      <trkpt lat="45.70664" lon="5.24354">
        <ele>276.4</ele>
        <time>2025-05-27T11:43:20Z</time>
      </trkpt>
      <trkpt lat="45.70666" lon="5.24352">
        <ele>275.8</ele>
        <time>2025-05-27T11:43:21Z</time>
      </trkpt>
      <trkpt lat="45.70667" lon="5.2435">
        <ele>275.8</ele>
        <time>2025-05-27T11:43:22Z</time>
      </trkpt>
      <trkpt lat="45.70668" lon="5.24348">
        <ele>275.6</ele>
        <time>2025-05-27T11:43:23Z</time>
      </trkpt>
      <trkpt lat="45.70668" lon="5.24347">
        <ele>275.4</ele>
        <time>2025-05-27T11:43:24Z</time>
      </trkpt>
      <trkpt lat="45.7067" lon="5.24345">
        <ele>275</ele>
        <time>2025-05-27T11:43:25Z</time>
      </trkpt>
      <trkpt lat="45.70671" lon="5.24343">
        <ele>274.4</ele>
        <time>2025-05-27T11:43:26Z</time>
      </trkpt>
      <trkpt lat="45.70673" lon="5.2434">
        <ele>274.4</ele>
        <time>2025-05-27T11:43:27Z</time>
      </trkpt>
      <trkpt lat="45.70675" lon="5.24336">
        <ele>274</ele>
        <time>2025-05-27T11:43:28Z</time>
      </trkpt>
      <trkpt lat="45.70677" lon="5.24333">
        <ele>273.6</ele>
        <time>2025-05-27T11:43:29Z</time>
      </trkpt>
      <trkpt lat="45.70679" lon="5.2433">
        <ele>273.2</ele>
        <time>2025-05-27T11:43:30Z</time>
      </trkpt>
      <trkpt lat="45.7068" lon="5.24327">
        <ele>273</ele>
        <time>2025-05-27T11:43:31Z</time>
      </trkpt>
      <trkpt lat="45.70682" lon="5.24326">
        <ele>272.4</ele>
        <time>2025-05-27T11:43:32Z</time>
      </trkpt>
      <trkpt lat="45.70684" lon="5.24325">
        <ele>272</ele>
        <time>2025-05-27T11:43:33Z</time>
      </trkpt>
      <trkpt lat="45.70686" lon="5.24323">
        <ele>271.4</ele>
        <time>2025-05-27T11:43:34Z</time>
      </trkpt>
      <trkpt lat="45.70688" lon="5.24322">
        <ele>270.8</ele>
        <time>2025-05-27T11:43:35Z</time>
      </trkpt>
      <trkpt lat="45.7069" lon="5.2432">
        <ele>270.4</ele>
        <time>2025-05-27T11:43:36Z</time>
      </trkpt>
      <trkpt lat="45.70692" lon="5.24317">
        <ele>270.2</ele>
        <time>2025-05-27T11:43:37Z</time>
      </trkpt>
      <trkpt lat="45.70694" lon="5.24314">
        <ele>269.6</ele>
        <time>2025-05-27T11:43:38Z</time>
      </trkpt>
      <trkpt lat="45.70697" lon="5.2431">
        <ele>269.4</ele>
        <time>2025-05-27T11:43:39Z</time>
      </trkpt>
      <trkpt lat="45.70699" lon="5.24309">
        <ele>269.4</ele>
        <time>2025-05-27T11:43:40Z</time>
      </trkpt>
      <trkpt lat="45.70701" lon="5.24307">
        <ele>269</ele>
        <time>2025-05-27T11:43:41Z</time>
      </trkpt>
      <trkpt lat="45.70703" lon="5.24305">
        <ele>268</ele>
        <time>2025-05-27T11:43:42Z</time>
      </trkpt>
      <trkpt lat="45.70706" lon="5.24304">
        <ele>267.8</ele>
        <time>2025-05-27T11:43:43Z</time>
      </trkpt>
      <trkpt lat="45.70709" lon="5.24302">
        <ele>267.4</ele>
        <time>2025-05-27T11:43:44Z</time>
      </trkpt>
      <trkpt lat="45.70711" lon="5.243">
        <ele>266.8</ele>
        <time>2025-05-27T11:43:45Z</time>
      </trkpt>
      <trkpt lat="45.70713" lon="5.24298">
        <ele>266.2</ele>
        <time>2025-05-27T11:43:46Z</time>
      </trkpt>
      <trkpt lat="45.70715" lon="5.24296">
        <ele>266.2</ele>
        <time>2025-05-27T11:43:47Z</time>
      </trkpt>
      <trkpt lat="45.70717" lon="5.24295">
        <ele>266.2</ele>
        <time>2025-05-27T11:43:48Z</time>
      </trkpt>
      <trkpt lat="45.70719" lon="5.24293">
        <ele>265.6</ele>
        <time>2025-05-27T11:43:49Z</time>
      </trkpt>
      <trkpt lat="45.70721" lon="5.24292">
        <ele>265.2</ele>
        <time>2025-05-27T11:43:50Z</time>
      </trkpt>
      <trkpt lat="45.70722" lon="5.2429">
        <ele>264.8</ele>
        <time>2025-05-27T11:43:51Z</time>
      </trkpt>
      <trkpt lat="45.70723" lon="5.24289">
        <ele>264.6</ele>
        <time>2025-05-27T11:43:52Z</time>
      </trkpt>
      <trkpt lat="45.70725" lon="5.24288">
        <ele>264</ele>
        <time>2025-05-27T11:43:53Z</time>
      </trkpt>
      <trkpt lat="45.70726" lon="5.24287">
        <ele>263.8</ele>
        <time>2025-05-27T11:43:54Z</time>
      </trkpt>
      <trkpt lat="45.70727" lon="5.24286">
        <ele>263.4</ele>
        <time>2025-05-27T11:43:55Z</time>
      </trkpt>
      <trkpt lat="45.70728" lon="5.24286">
        <ele>263.4</ele>
        <time>2025-05-27T11:43:56Z</time>
      </trkpt>
      <trkpt lat="45.70728" lon="5.24286">
        <ele>263</ele>
        <time>2025-05-27T11:43:57Z</time>
      </trkpt>
      <trkpt lat="45.70728" lon="5.24286">
        <ele>263</ele>
        <time>2025-05-27T11:43:58Z</time>
      </trkpt>
      <trkpt lat="45.70728" lon="5.24285">
        <ele>262.8</ele>
        <time>2025-05-27T11:43:59Z</time>
      </trkpt>
      <trkpt lat="45.70728" lon="5.24285">
        <ele>262.4</ele>
        <time>2025-05-27T11:44:00Z</time>
      </trkpt>
      <trkpt lat="45.70728" lon="5.24284">
        <ele>262.2</ele>
        <time>2025-05-27T11:44:01Z</time>
      </trkpt>
      <trkpt lat="45.70728" lon="5.24284">
        <ele>262.2</ele>
        <time>2025-05-27T11:44:02Z</time>
      </trkpt>
      <trkpt lat="45.70726" lon="5.24285">
        <ele>261.6</ele>
        <time>2025-05-27T11:45:02Z</time>
      </trkpt>
      <trkpt lat="45.70726" lon="5.24285">
        <ele>261.6</ele>
        <time>2025-05-27T11:45:03Z</time>
      </trkpt>
      <trkpt lat="45.70727" lon="5.24284">
        <ele>261.6</ele>
        <time>2025-05-27T11:45:04Z</time>
      </trkpt>
      <trkpt lat="45.70728" lon="5.24283">
        <ele>261.4</ele>
        <time>2025-05-27T11:45:05Z</time>
      </trkpt>
      <trkpt lat="45.7073" lon="5.24282">
        <ele>261.4</ele>
        <time>2025-05-27T11:45:06Z</time>
      </trkpt>
      <trkpt lat="45.70731" lon="5.24281">
        <ele>261</ele>
        <time>2025-05-27T11:45:07Z</time>
      </trkpt>
      <trkpt lat="45.70732" lon="5.24281">
        <ele>260.8</ele>
        <time>2025-05-27T11:45:08Z</time>
      </trkpt>
      <trkpt lat="45.70734" lon="5.2428">
        <ele>260.4</ele>
        <time>2025-05-27T11:45:09Z</time>
      </trkpt>
      <trkpt lat="45.70735" lon="5.2428">
        <ele>260.2</ele>
        <time>2025-05-27T11:45:10Z</time>
      </trkpt>
      <trkpt lat="45.70736" lon="5.24279">
        <ele>260</ele>
        <time>2025-05-27T11:45:11Z</time>
      </trkpt>
      <trkpt lat="45.70737" lon="5.24279">
        <ele>259.8</ele>
        <time>2025-05-27T11:45:12Z</time>
      </trkpt>
      <trkpt lat="45.70738" lon="5.24279">
        <ele>259.4</ele>
        <time>2025-05-27T11:45:13Z</time>
      </trkpt>
      <trkpt lat="45.70739" lon="5.24279">
        <ele>259</ele>
        <time>2025-05-27T11:45:14Z</time>
      </trkpt>
      <trkpt lat="45.70739" lon="5.24278">
        <ele>259</ele>
        <time>2025-05-27T11:45:15Z</time>
      </trkpt>
      <trkpt lat="45.70739" lon="5.24278">
        <ele>258.8</ele>
        <time>2025-05-27T11:45:16Z</time>
      </trkpt>
      <trkpt lat="45.7074" lon="5.24277">
        <ele>257.6</ele>
        <time>2025-05-27T11:45:20Z</time>
      </trkpt>
      <trkpt lat="45.70741" lon="5.24276">
        <ele>257.4</ele>
        <time>2025-05-27T11:45:21Z</time>
      </trkpt>
      <trkpt lat="45.70742" lon="5.24276">
        <ele>257.4</ele>
        <time>2025-05-27T11:45:22Z</time>
      </trkpt>
      <trkpt lat="45.70744" lon="5.24275">
        <ele>257</ele>
        <time>2025-05-27T11:45:23Z</time>
      </trkpt>
      <trkpt lat="45.70745" lon="5.24274">
        <ele>257</ele>
        <time>2025-05-27T11:45:24Z</time>
      </trkpt>
      <trkpt lat="45.70746" lon="5.24274">
        <ele>256</ele>
        <time>2025-05-27T11:45:25Z</time>
      </trkpt>
      <trkpt lat="45.70747" lon="5.24274">
        <ele>255.6</ele>
        <time>2025-05-27T11:45:26Z</time>
      </trkpt>
      <trkpt lat="45.70748" lon="5.24273">
        <ele>255.6</ele>
        <time>2025-05-27T11:45:27Z</time>
      </trkpt>
      <trkpt lat="45.70749" lon="5.24273">
        <ele>255.2</ele>
        <time>2025-05-27T11:45:28Z</time>
      </trkpt>
      <trkpt lat="45.7075" lon="5.24272">
        <ele>254.8</ele>
        <time>2025-05-27T11:45:29Z</time>
      </trkpt>
      <trkpt lat="45.70751" lon="5.24271">
        <ele>254.6</ele>
        <time>2025-05-27T11:45:30Z</time>
      </trkpt>
      <trkpt lat="45.70752" lon="5.2427">
        <ele>254.4</ele>
        <time>2025-05-27T11:45:31Z</time>
      </trkpt>
      <trkpt lat="45.70753" lon="5.2427">
        <ele>254</ele>
        <time>2025-05-27T11:45:32Z</time>
      </trkpt>
      <trkpt lat="45.70755" lon="5.24269">
        <ele>253.8</ele>
        <time>2025-05-27T11:45:33Z</time>
      </trkpt>
      <trkpt lat="45.70756" lon="5.24267">
        <ele>253.4</ele>
        <time>2025-05-27T11:45:34Z</time>
      </trkpt>
      <trkpt lat="45.70758" lon="5.24267">
        <ele>253.4</ele>
        <time>2025-05-27T11:45:35Z</time>
      </trkpt>
      <trkpt lat="45.70759" lon="5.24266">
        <ele>253.2</ele>
        <time>2025-05-27T11:45:36Z</time>
      </trkpt>
      <trkpt lat="45.7076" lon="5.24266">
        <ele>252.8</ele>
        <time>2025-05-27T11:45:37Z</time>
      </trkpt>
      <trkpt lat="45.70761" lon="5.24266">
        <ele>252.8</ele>
        <time>2025-05-27T11:45:38Z</time>
      </trkpt>
      <trkpt lat="45.70762" lon="5.24266">
        <ele>252.4</ele>
        <time>2025-05-27T11:45:39Z</time>
      </trkpt>
      <trkpt lat="45.70764" lon="5.24265">
        <ele>251.8</ele>
        <time>2025-05-27T11:45:40Z</time>
      </trkpt>
      <trkpt lat="45.70765" lon="5.24265">
        <ele>251.4</ele>
        <time>2025-05-27T11:45:41Z</time>
      </trkpt>
      <trkpt lat="45.70767" lon="5.24264">
        <ele>250.4</ele>
        <time>2025-05-27T11:45:42Z</time>
      </trkpt>
      <trkpt lat="45.70768" lon="5.24264">
        <ele>250.4</ele>
        <time>2025-05-27T11:45:43Z</time>
      </trkpt>
      <trkpt lat="45.7077" lon="5.24263">
        <ele>250</ele>
        <time>2025-05-27T11:45:44Z</time>
      </trkpt>
      <trkpt lat="45.70772" lon="5.24263">
        <ele>250</ele>
        <time>2025-05-27T11:45:45Z</time>
      </trkpt>
      <trkpt lat="45.70774" lon="5.24263">
        <ele>249.6</ele>
        <time>2025-05-27T11:45:46Z</time>
      </trkpt>
      <trkpt lat="45.70775" lon="5.24263">
        <ele>249.2</ele>
        <time>2025-05-27T11:45:47Z</time>
      </trkpt>
      <trkpt lat="45.70777" lon="5.24261">
        <ele>247.8</ele>
        <time>2025-05-27T11:45:48Z</time>
      </trkpt>
      <trkpt lat="45.70779" lon="5.2426">
        <ele>247.8</ele>
        <time>2025-05-27T11:45:49Z</time>
      </trkpt>
      <trkpt lat="45.70781" lon="5.24259">
        <ele>247.2</ele>
        <time>2025-05-27T11:45:50Z</time>
      </trkpt>
      <trkpt lat="45.70784" lon="5.24257">
        <ele>247.2</ele>
        <time>2025-05-27T11:45:51Z</time>
      </trkpt>
      <trkpt lat="45.70785" lon="5.24256">
        <ele>247.2</ele>
        <time>2025-05-27T11:45:52Z</time>
      </trkpt>
      <trkpt lat="45.70788" lon="5.24255">
        <ele>246.8</ele>
        <time>2025-05-27T11:45:53Z</time>
      </trkpt>
      <trkpt lat="45.7079" lon="5.24252">
        <ele>245.6</ele>
        <time>2025-05-27T11:45:54Z</time>
      </trkpt>
      <trkpt lat="45.70793" lon="5.2425">
        <ele>245</ele>
        <time>2025-05-27T11:45:55Z</time>
      </trkpt>
      <trkpt lat="45.70795" lon="5.24247">
        <ele>244.8</ele>
        <time>2025-05-27T11:45:56Z</time>
      </trkpt>
      <trkpt lat="45.70798" lon="5.24243">
        <ele>244.2</ele>
        <time>2025-05-27T11:45:57Z</time>
      </trkpt>
      <trkpt lat="45.708" lon="5.24241">
        <ele>244</ele>
        <time>2025-05-27T11:45:58Z</time>
      </trkpt>
      <trkpt lat="45.70803" lon="5.24239">
        <ele>243.2</ele>
        <time>2025-05-27T11:45:59Z</time>
      </trkpt>
      <trkpt lat="45.70808" lon="5.24235">
        <ele>243.2</ele>
        <time>2025-05-27T11:46:00Z</time>
      </trkpt>
      <trkpt lat="45.7081" lon="5.24232">
        <ele>242.6</ele>
        <time>2025-05-27T11:46:01Z</time>
      </trkpt>
      <trkpt lat="45.70813" lon="5.24227">
        <ele>242</ele>
        <time>2025-05-27T11:46:02Z</time>
      </trkpt>
      <trkpt lat="45.70815" lon="5.24221">
        <ele>242</ele>
        <time>2025-05-27T11:46:03Z</time>
      </trkpt>
      <trkpt lat="45.70817" lon="5.24218">
        <ele>241.6</ele>
        <time>2025-05-27T11:46:04Z</time>
      </trkpt>
      <trkpt lat="45.70818" lon="5.24213">
        <ele>240.8</ele>
        <time>2025-05-27T11:46:05Z</time>
      </trkpt>
      <trkpt lat="45.70822" lon="5.24207">
        <ele>240.6</ele>
        <time>2025-05-27T11:46:06Z</time>
      </trkpt>
      <trkpt lat="45.70826" lon="5.24201">
        <ele>240.2</ele>
        <time>2025-05-27T11:46:07Z</time>
      </trkpt>
      <trkpt lat="45.7083" lon="5.24198">
        <ele>239.6</ele>
        <time>2025-05-27T11:46:08Z</time>
      </trkpt>
      <trkpt lat="45.70833" lon="5.24195">
        <ele>239</ele>
        <time>2025-05-27T11:46:09Z</time>
      </trkpt>
      <trkpt lat="45.70836" lon="5.24191">
        <ele>238.6</ele>
        <time>2025-05-27T11:46:10Z</time>
      </trkpt>
      <trkpt lat="45.70837" lon="5.24187">
        <ele>238</ele>
        <time>2025-05-27T11:46:11Z</time>
      </trkpt>
      <trkpt lat="45.70839" lon="5.24182">
        <ele>237.8</ele>
        <time>2025-05-27T11:46:12Z</time>
      </trkpt>
      <trkpt lat="45.7084" lon="5.24177">
        <ele>237.8</ele>
        <time>2025-05-27T11:46:13Z</time>
      </trkpt>
      <trkpt lat="45.70842" lon="5.24172">
        <ele>237.8</ele>
        <time>2025-05-27T11:46:14Z</time>
      </trkpt>
      <trkpt lat="45.70845" lon="5.24167">
        <ele>237.2</ele>
        <time>2025-05-27T11:46:15Z</time>
      </trkpt>
      <trkpt lat="45.70847" lon="5.24161">
        <ele>236.4</ele>
        <time>2025-05-27T11:46:16Z</time>
      </trkpt>
      <trkpt lat="45.70849" lon="5.24157">
        <ele>236.2</ele>
        <time>2025-05-27T11:46:17Z</time>
      </trkpt>
      <trkpt lat="45.70851" lon="5.24153">
        <ele>236.2</ele>
        <time>2025-05-27T11:46:18Z</time>
      </trkpt>
      <trkpt lat="45.70852" lon="5.24151">
        <ele>235.8</ele>
        <time>2025-05-27T11:46:19Z</time>
      </trkpt>
      <trkpt lat="45.70854" lon="5.24148">
        <ele>235.8</ele>
        <time>2025-05-27T11:46:20Z</time>
      </trkpt>
      <trkpt lat="45.70858" lon="5.24145">
        <ele>235.6</ele>
        <time>2025-05-27T11:46:21Z</time>
      </trkpt>
      <trkpt lat="45.7086" lon="5.24141">
        <ele>235.2</ele>
        <time>2025-05-27T11:46:22Z</time>
      </trkpt>
      <trkpt lat="45.70862" lon="5.24138">
        <ele>235.2</ele>
        <time>2025-05-27T11:46:23Z</time>
      </trkpt>
      <trkpt lat="45.70864" lon="5.24134">
        <ele>234.8</ele>
        <time>2025-05-27T11:46:24Z</time>
      </trkpt>
      <trkpt lat="45.70867" lon="5.24129">
        <ele>234.8</ele>
        <time>2025-05-27T11:46:25Z</time>
      </trkpt>
      <trkpt lat="45.7087" lon="5.24124">
        <ele>234.8</ele>
        <time>2025-05-27T11:46:26Z</time>
      </trkpt>
      <trkpt lat="45.70874" lon="5.24119">
        <ele>234.6</ele>
        <time>2025-05-27T11:46:27Z</time>
      </trkpt>
      <trkpt lat="45.70879" lon="5.24115">
        <ele>234</ele>
        <time>2025-05-27T11:46:28Z</time>
      </trkpt>
      <trkpt lat="45.70883" lon="5.24111">
        <ele>233.6</ele>
        <time>2025-05-27T11:46:29Z</time>
      </trkpt>
      <trkpt lat="45.70888" lon="5.24109">
        <ele>233.4</ele>
        <time>2025-05-27T11:46:30Z</time>
      </trkpt>
      <trkpt lat="45.70893" lon="5.24105">
        <ele>232.8</ele>
        <time>2025-05-27T11:46:31Z</time>
      </trkpt>
      <trkpt lat="45.70897" lon="5.24101">
        <ele>232</ele>
        <time>2025-05-27T11:46:32Z</time>
      </trkpt>
      <trkpt lat="45.70902" lon="5.24097">
        <ele>231.8</ele>
        <time>2025-05-27T11:46:33Z</time>
      </trkpt>
      <trkpt lat="45.70906" lon="5.24092">
        <ele>231.4</ele>
        <time>2025-05-27T11:46:34Z</time>
      </trkpt>
      <trkpt lat="45.70909" lon="5.24086">
        <ele>231.6</ele>
        <time>2025-05-27T11:46:35Z</time>
      </trkpt>
      <trkpt lat="45.70913" lon="5.24082">
        <ele>231.6</ele>
        <time>2025-05-27T11:46:36Z</time>
      </trkpt>
      <trkpt lat="45.70917" lon="5.24079">
        <ele>231.6</ele>
        <time>2025-05-27T11:46:37Z</time>
      </trkpt>
      <trkpt lat="45.70924" lon="5.24079">
        <ele>231.2</ele>
        <time>2025-05-27T11:46:38Z</time>
      </trkpt>
      <trkpt lat="45.70932" lon="5.24083">
        <ele>231.2</ele>
        <time>2025-05-27T11:46:39Z</time>
      </trkpt>
      <trkpt lat="45.70936" lon="5.24082">
        <ele>230.8</ele>
        <time>2025-05-27T11:46:40Z</time>
      </trkpt>
      <trkpt lat="45.70942" lon="5.24081">
        <ele>230.8</ele>
        <time>2025-05-27T11:46:41Z</time>
      </trkpt>
      <trkpt lat="45.70948" lon="5.24081">
        <ele>231.2</ele>
        <time>2025-05-27T11:46:42Z</time>
      </trkpt>
      <trkpt lat="45.70954" lon="5.24081">
        <ele>230.8</ele>
        <time>2025-05-27T11:46:43Z</time>
      </trkpt>
      <trkpt lat="45.70958" lon="5.24082">
        <ele>230.6</ele>
        <time>2025-05-27T11:46:44Z</time>
      </trkpt>
      <trkpt lat="45.70965" lon="5.24082">
        <ele>230.6</ele>
        <time>2025-05-27T11:46:45Z</time>
      </trkpt>
      <trkpt lat="45.70971" lon="5.24081">
        <ele>230.6</ele>
        <time>2025-05-27T11:46:46Z</time>
      </trkpt>
      <trkpt lat="45.70975" lon="5.24077">
        <ele>230.2</ele>
        <time>2025-05-27T11:46:47Z</time>
      </trkpt>
      <trkpt lat="45.70978" lon="5.24073">
        <ele>230.6</ele>
        <time>2025-05-27T11:46:48Z</time>
      </trkpt>
      <trkpt lat="45.70981" lon="5.24068">
        <ele>231</ele>
        <time>2025-05-27T11:46:49Z</time>
      </trkpt>
      <trkpt lat="45.70981" lon="5.24065">
        <ele>231.2</ele>
        <time>2025-05-27T11:46:50Z</time>
      </trkpt>
      <trkpt lat="45.70982" lon="5.24062">
        <ele>231.6</ele>
        <time>2025-05-27T11:46:51Z</time>
      </trkpt>
      <trkpt lat="45.70981" lon="5.2406">
        <ele>232</ele>
        <time>2025-05-27T11:46:52Z</time>
      </trkpt>
      <trkpt lat="45.70981" lon="5.24056">
        <ele>232.2</ele>
        <time>2025-05-27T11:46:53Z</time>
      </trkpt>
      <trkpt lat="45.7098" lon="5.24052">
        <ele>232.6</ele>
        <time>2025-05-27T11:46:54Z</time>
      </trkpt>
      <trkpt lat="45.70981" lon="5.24049">
        <ele>233</ele>
        <time>2025-05-27T11:46:55Z</time>
      </trkpt>
      <trkpt lat="45.70981" lon="5.24046">
        <ele>233.2</ele>
        <time>2025-05-27T11:46:56Z</time>
      </trkpt>
      <trkpt lat="45.7098" lon="5.24043">
        <ele>233.6</ele>
        <time>2025-05-27T11:46:57Z</time>
      </trkpt>
      <trkpt lat="45.7098" lon="5.24039">
        <ele>233.8</ele>
        <time>2025-05-27T11:46:58Z</time>
      </trkpt>
      <trkpt lat="45.7098" lon="5.24036">
        <ele>234.2</ele>
        <time>2025-05-27T11:46:59Z</time>
      </trkpt>
      <trkpt lat="45.7098" lon="5.24033">
        <ele>234.2</ele>
        <time>2025-05-27T11:47:00Z</time>
      </trkpt>
      <trkpt lat="45.7098" lon="5.2403">
        <ele>234.6</ele>
        <time>2025-05-27T11:47:01Z</time>
      </trkpt>
      <trkpt lat="45.70981" lon="5.24027">
        <ele>235</ele>
        <time>2025-05-27T11:47:02Z</time>
      </trkpt>
      <trkpt lat="45.70981" lon="5.24024">
        <ele>235.2</ele>
        <time>2025-05-27T11:47:03Z</time>
      </trkpt>
      <trkpt lat="45.70981" lon="5.24021">
        <ele>235.6</ele>
        <time>2025-05-27T11:47:04Z</time>
      </trkpt>
      <trkpt lat="45.70981" lon="5.24019">
        <ele>235.6</ele>
        <time>2025-05-27T11:47:05Z</time>
      </trkpt>
      <trkpt lat="45.70981" lon="5.24017">
        <ele>235.8</ele>
        <time>2025-05-27T11:47:06Z</time>
      </trkpt>
      <trkpt lat="45.70982" lon="5.24014">
        <ele>236.2</ele>
        <time>2025-05-27T11:47:07Z</time>
      </trkpt>
      <trkpt lat="45.70983" lon="5.24012">
        <ele>236.2</ele>
        <time>2025-05-27T11:47:08Z</time>
      </trkpt>
      <trkpt lat="45.70984" lon="5.2401">
        <ele>236.2</ele>
        <time>2025-05-27T11:47:09Z</time>
      </trkpt>
      <trkpt lat="45.70986" lon="5.24007">
        <ele>236.4</ele>
        <time>2025-05-27T11:47:10Z</time>
      </trkpt>
      <trkpt lat="45.70987" lon="5.24004">
        <ele>236.4</ele>
        <time>2025-05-27T11:47:11Z</time>
      </trkpt>
      <trkpt lat="45.70987" lon="5.24001">
        <ele>236.4</ele>
        <time>2025-05-27T11:47:12Z</time>
      </trkpt>
      <trkpt lat="45.70988" lon="5.23998">
        <ele>236.8</ele>
        <time>2025-05-27T11:47:13Z</time>
      </trkpt>
      <trkpt lat="45.70989" lon="5.23996">
        <ele>236.8</ele>
        <time>2025-05-27T11:47:14Z</time>
      </trkpt>
      <trkpt lat="45.70991" lon="5.23993">
        <ele>236.8</ele>
        <time>2025-05-27T11:47:15Z</time>
      </trkpt>
      <trkpt lat="45.70992" lon="5.2399">
        <ele>236.8</ele>
        <time>2025-05-27T11:47:16Z</time>
      </trkpt>
      <trkpt lat="45.70994" lon="5.23987">
        <ele>236.8</ele>
        <time>2025-05-27T11:47:17Z</time>
      </trkpt>
      <trkpt lat="45.70995" lon="5.23985">
        <ele>237</ele>
        <time>2025-05-27T11:47:18Z</time>
      </trkpt>
      <trkpt lat="45.70996" lon="5.23982">
        <ele>237</ele>
        <time>2025-05-27T11:47:19Z</time>
      </trkpt>
      <trkpt lat="45.70998" lon="5.2398">
        <ele>237.4</ele>
        <time>2025-05-27T11:47:20Z</time>
      </trkpt>
      <trkpt lat="45.70999" lon="5.23977">
        <ele>237.4</ele>
        <time>2025-05-27T11:47:21Z</time>
      </trkpt>
      <trkpt lat="45.71001" lon="5.23975">
        <ele>237.4</ele>
        <time>2025-05-27T11:47:22Z</time>
      </trkpt>
      <trkpt lat="45.71003" lon="5.23973">
        <ele>237.6</ele>
        <time>2025-05-27T11:47:23Z</time>
      </trkpt>
      <trkpt lat="45.71005" lon="5.2397">
        <ele>237.6</ele>
        <time>2025-05-27T11:47:24Z</time>
      </trkpt>
      <trkpt lat="45.71007" lon="5.23967">
        <ele>237.6</ele>
        <time>2025-05-27T11:47:25Z</time>
      </trkpt>
      <trkpt lat="45.71008" lon="5.23964">
        <ele>237.6</ele>
        <time>2025-05-27T11:47:26Z</time>
      </trkpt>
      <trkpt lat="45.71009" lon="5.23961">
        <ele>238</ele>
        <time>2025-05-27T11:47:27Z</time>
      </trkpt>
      <trkpt lat="45.71011" lon="5.23958">
        <ele>238.2</ele>
        <time>2025-05-27T11:47:28Z</time>
      </trkpt>
      <trkpt lat="45.71013" lon="5.23955">
        <ele>238.6</ele>
        <time>2025-05-27T11:47:29Z</time>
      </trkpt>
      <trkpt lat="45.71015" lon="5.23952">
        <ele>238.6</ele>
        <time>2025-05-27T11:47:30Z</time>
      </trkpt>
      <trkpt lat="45.71018" lon="5.23948">
        <ele>238.6</ele>
        <time>2025-05-27T11:47:31Z</time>
      </trkpt>
      <trkpt lat="45.71021" lon="5.23945">
        <ele>238</ele>
        <time>2025-05-27T11:47:32Z</time>
      </trkpt>
      <trkpt lat="45.71027" lon="5.23945">
        <ele>237.6</ele>
        <time>2025-05-27T11:47:33Z</time>
      </trkpt>
      <trkpt lat="45.71031" lon="5.23943">
        <ele>237.2</ele>
        <time>2025-05-27T11:47:34Z</time>
      </trkpt>
      <trkpt lat="45.71035" lon="5.23941">
        <ele>236.6</ele>
        <time>2025-05-27T11:47:35Z</time>
      </trkpt>
      <trkpt lat="45.71039" lon="5.23938">
        <ele>236</ele>
        <time>2025-05-27T11:47:36Z</time>
      </trkpt>
      <trkpt lat="45.71044" lon="5.23935">
        <ele>235.8</ele>
        <time>2025-05-27T11:47:37Z</time>
      </trkpt>
      <trkpt lat="45.71049" lon="5.23933">
        <ele>235.8</ele>
        <time>2025-05-27T11:47:38Z</time>
      </trkpt>
      <trkpt lat="45.71054" lon="5.23931">
        <ele>235.4</ele>
        <time>2025-05-27T11:47:39Z</time>
      </trkpt>
      <trkpt lat="45.71059" lon="5.23928">
        <ele>235</ele>
        <time>2025-05-27T11:47:40Z</time>
      </trkpt>
      <trkpt lat="45.71063" lon="5.23926">
        <ele>235</ele>
        <time>2025-05-27T11:47:41Z</time>
      </trkpt>
      <trkpt lat="45.71067" lon="5.23924">
        <ele>234.6</ele>
        <time>2025-05-27T11:47:42Z</time>
      </trkpt>
      <trkpt lat="45.71069" lon="5.23923">
        <ele>234.6</ele>
        <time>2025-05-27T11:47:43Z</time>
      </trkpt>
      <trkpt lat="45.71071" lon="5.23922">
        <ele>234.6</ele>
        <time>2025-05-27T11:47:44Z</time>
      </trkpt>
      <trkpt lat="45.71073" lon="5.23921">
        <ele>234.6</ele>
        <time>2025-05-27T11:47:45Z</time>
      </trkpt>
      <trkpt lat="45.71076" lon="5.2392">
        <ele>234.6</ele>
        <time>2025-05-27T11:47:46Z</time>
      </trkpt>
      <trkpt lat="45.71077" lon="5.2392">
        <ele>234.2</ele>
        <time>2025-05-27T11:47:47Z</time>
      </trkpt>
      <trkpt lat="45.71078" lon="5.2392">
        <ele>234.2</ele>
        <time>2025-05-27T11:47:48Z</time>
      </trkpt>
      <trkpt lat="45.7108" lon="5.2392">
        <ele>234.2</ele>
        <time>2025-05-27T11:47:49Z</time>
      </trkpt>
      <trkpt lat="45.7108" lon="5.2392">
        <ele>234.2</ele>
        <time>2025-05-27T11:47:50Z</time>
      </trkpt>
      <trkpt lat="45.7108" lon="5.2392">
        <ele>234.2</ele>
        <time>2025-05-27T11:47:51Z</time>
      </trkpt>
      <trkpt lat="45.7108" lon="5.23922">
        <ele>235.2</ele>
        <time>2025-05-27T11:48:47Z</time>
      </trkpt>
      <trkpt lat="45.71082" lon="5.23922">
        <ele>235.2</ele>
        <time>2025-05-27T11:48:48Z</time>
      </trkpt>
      <trkpt lat="45.71085" lon="5.23922">
        <ele>235.2</ele>
        <time>2025-05-27T11:48:49Z</time>
      </trkpt>
      <trkpt lat="45.71088" lon="5.23921">
        <ele>235.2</ele>
        <time>2025-05-27T11:48:50Z</time>
      </trkpt>
      <trkpt lat="45.71092" lon="5.23919">
        <ele>235.2</ele>
        <time>2025-05-27T11:48:51Z</time>
      </trkpt>
      <trkpt lat="45.71095" lon="5.23917">
        <ele>235.2</ele>
        <time>2025-05-27T11:48:52Z</time>
      </trkpt>
      <trkpt lat="45.71099" lon="5.23915">
        <ele>234.8</ele>
        <time>2025-05-27T11:48:53Z</time>
      </trkpt>
      <trkpt lat="45.71103" lon="5.23913">
        <ele>234.8</ele>
        <time>2025-05-27T11:48:54Z</time>
      </trkpt>
      <trkpt lat="45.71109" lon="5.23912">
        <ele>234.8</ele>
        <time>2025-05-27T11:48:55Z</time>
      </trkpt>
      <trkpt lat="45.71114" lon="5.23912">
        <ele>234.2</ele>
        <time>2025-05-27T11:48:56Z</time>
      </trkpt>
      <trkpt lat="45.71118" lon="5.2391">
        <ele>233.8</ele>
        <time>2025-05-27T11:48:57Z</time>
      </trkpt>
      <trkpt lat="45.71123" lon="5.23908">
        <ele>233.8</ele>
        <time>2025-05-27T11:48:58Z</time>
      </trkpt>
      <trkpt lat="45.71128" lon="5.23905">
        <ele>233.8</ele>
        <time>2025-05-27T11:48:59Z</time>
      </trkpt>
      <trkpt lat="45.71132" lon="5.23901">
        <ele>233.2</ele>
        <time>2025-05-27T11:49:00Z</time>
      </trkpt>
      <trkpt lat="45.71136" lon="5.23897">
        <ele>233</ele>
        <time>2025-05-27T11:49:01Z</time>
      </trkpt>
      <trkpt lat="45.7114" lon="5.23893">
        <ele>232.2</ele>
        <time>2025-05-27T11:49:02Z</time>
      </trkpt>
      <trkpt lat="45.71146" lon="5.23891">
        <ele>233</ele>
        <time>2025-05-27T11:49:03Z</time>
      </trkpt>
      <trkpt lat="45.7115" lon="5.23887">
        <ele>233.2</ele>
        <time>2025-05-27T11:49:04Z</time>
      </trkpt>
      <trkpt lat="45.71154" lon="5.23884">
        <ele>233.2</ele>
        <time>2025-05-27T11:49:05Z</time>
      </trkpt>
      <trkpt lat="45.71159" lon="5.2388">
        <ele>233.6</ele>
        <time>2025-05-27T11:49:06Z</time>
      </trkpt>
      <trkpt lat="45.71163" lon="5.23878">
        <ele>233.6</ele>
        <time>2025-05-27T11:49:07Z</time>
      </trkpt>
      <trkpt lat="45.71165" lon="5.23874">
        <ele>233.6</ele>
        <time>2025-05-27T11:49:08Z</time>
      </trkpt>
      <trkpt lat="45.71166" lon="5.23872">
        <ele>234.2</ele>
        <time>2025-05-27T11:49:09Z</time>
      </trkpt>
      <trkpt lat="45.7117" lon="5.23868">
        <ele>234.2</ele>
        <time>2025-05-27T11:49:10Z</time>
      </trkpt>
      <trkpt lat="45.71174" lon="5.23866">
        <ele>234.2</ele>
        <time>2025-05-27T11:49:11Z</time>
      </trkpt>
      <trkpt lat="45.71178" lon="5.23863">
        <ele>234.2</ele>
        <time>2025-05-27T11:49:12Z</time>
      </trkpt>
      <trkpt lat="45.71183" lon="5.23862">
        <ele>234.6</ele>
        <time>2025-05-27T11:49:13Z</time>
      </trkpt>
      <trkpt lat="45.71185" lon="5.23858">
        <ele>234.6</ele>
        <time>2025-05-27T11:49:14Z</time>
      </trkpt>
      <trkpt lat="45.71189" lon="5.23854">
        <ele>234.8</ele>
        <time>2025-05-27T11:49:15Z</time>
      </trkpt>
      <trkpt lat="45.71192" lon="5.23851">
        <ele>234.8</ele>
        <time>2025-05-27T11:49:16Z</time>
      </trkpt>
      <trkpt lat="45.71196" lon="5.23848">
        <ele>235.2</ele>
        <time>2025-05-27T11:49:17Z</time>
      </trkpt>
      <trkpt lat="45.71199" lon="5.23846">
        <ele>235.4</ele>
        <time>2025-05-27T11:49:18Z</time>
      </trkpt>
      <trkpt lat="45.71203" lon="5.23843">
        <ele>235.4</ele>
        <time>2025-05-27T11:49:19Z</time>
      </trkpt>
      <trkpt lat="45.71207" lon="5.23839">
        <ele>235.6</ele>
        <time>2025-05-27T11:49:20Z</time>
      </trkpt>
      <trkpt lat="45.71211" lon="5.23836">
        <ele>235.6</ele>
        <time>2025-05-27T11:49:21Z</time>
      </trkpt>
      <trkpt lat="45.71215" lon="5.23833">
        <ele>235.8</ele>
        <time>2025-05-27T11:49:22Z</time>
      </trkpt>
      <trkpt lat="45.71218" lon="5.23829">
        <ele>235.8</ele>
        <time>2025-05-27T11:49:23Z</time>
      </trkpt>
      <trkpt lat="45.71221" lon="5.23826">
        <ele>235.8</ele>
        <time>2025-05-27T11:49:24Z</time>
      </trkpt>
      <trkpt lat="45.71225" lon="5.23824">
        <ele>236</ele>
        <time>2025-05-27T11:49:25Z</time>
      </trkpt>
      <trkpt lat="45.71228" lon="5.23822">
        <ele>236.2</ele>
        <time>2025-05-27T11:49:26Z</time>
      </trkpt>
      <trkpt lat="45.7123" lon="5.2382">
        <ele>236.4</ele>
        <time>2025-05-27T11:49:27Z</time>
      </trkpt>
      <trkpt lat="45.71233" lon="5.23818">
        <ele>237</ele>
        <time>2025-05-27T11:49:28Z</time>
      </trkpt>
      <trkpt lat="45.71235" lon="5.23816">
        <ele>237.4</ele>
        <time>2025-05-27T11:49:29Z</time>
      </trkpt>
      <trkpt lat="45.71238" lon="5.23814">
        <ele>237.8</ele>
        <time>2025-05-27T11:49:30Z</time>
      </trkpt>
      <trkpt lat="45.7124" lon="5.23811">
        <ele>238</ele>
        <time>2025-05-27T11:49:31Z</time>
      </trkpt>
      <trkpt lat="45.71241" lon="5.23808">
        <ele>238.4</ele>
        <time>2025-05-27T11:49:32Z</time>
      </trkpt>
      <trkpt lat="45.71242" lon="5.23805">
        <ele>238.4</ele>
        <time>2025-05-27T11:49:33Z</time>
      </trkpt>
      <trkpt lat="45.71244" lon="5.23801">
        <ele>239</ele>
        <time>2025-05-27T11:49:34Z</time>
      </trkpt>
      <trkpt lat="45.71246" lon="5.23798">
        <ele>239.4</ele>
        <time>2025-05-27T11:49:35Z</time>
      </trkpt>
      <trkpt lat="45.71248" lon="5.23796">
        <ele>239.6</ele>
        <time>2025-05-27T11:49:36Z</time>
      </trkpt>
      <trkpt lat="45.71249" lon="5.23793">
        <ele>239.6</ele>
        <time>2025-05-27T11:49:37Z</time>
      </trkpt>
      <trkpt lat="45.71251" lon="5.2379">
        <ele>239.8</ele>
        <time>2025-05-27T11:49:38Z</time>
      </trkpt>
      <trkpt lat="45.71252" lon="5.23786">
        <ele>239.8</ele>
        <time>2025-05-27T11:49:39Z</time>
      </trkpt>
      <trkpt lat="45.71254" lon="5.23783">
        <ele>239.8</ele>
        <time>2025-05-27T11:49:40Z</time>
      </trkpt>
      <trkpt lat="45.71256" lon="5.2378">
        <ele>239.8</ele>
        <time>2025-05-27T11:49:41Z</time>
      </trkpt>
      <trkpt lat="45.71258" lon="5.23777">
        <ele>240.2</ele>
        <time>2025-05-27T11:49:42Z</time>
      </trkpt>
      <trkpt lat="45.7126" lon="5.23774">
        <ele>240.2</ele>
        <time>2025-05-27T11:49:43Z</time>
      </trkpt>
      <trkpt lat="45.71263" lon="5.2377">
        <ele>240.2</ele>
        <time>2025-05-27T11:49:44Z</time>
      </trkpt>
      <trkpt lat="45.71265" lon="5.23766">
        <ele>240.2</ele>
        <time>2025-05-27T11:49:45Z</time>
      </trkpt>
      <trkpt lat="45.71267" lon="5.23763">
        <ele>240</ele>
        <time>2025-05-27T11:49:46Z</time>
      </trkpt>
      <trkpt lat="45.7127" lon="5.23759">
        <ele>239.6</ele>
        <time>2025-05-27T11:49:47Z</time>
      </trkpt>
      <trkpt lat="45.71273" lon="5.23755">
        <ele>239.6</ele>
        <time>2025-05-27T11:49:48Z</time>
      </trkpt>
      <trkpt lat="45.71275" lon="5.23752">
        <ele>239.6</ele>
        <time>2025-05-27T11:49:49Z</time>
      </trkpt>
      <trkpt lat="45.71277" lon="5.23749">
        <ele>239</ele>
        <time>2025-05-27T11:49:50Z</time>
      </trkpt>
      <trkpt lat="45.71279" lon="5.23743">
        <ele>239</ele>
        <time>2025-05-27T11:49:51Z</time>
      </trkpt>
      <trkpt lat="45.71281" lon="5.23737">
        <ele>239.4</ele>
        <time>2025-05-27T11:49:52Z</time>
      </trkpt>
      <trkpt lat="45.71283" lon="5.23731">
        <ele>239.4</ele>
        <time>2025-05-27T11:49:53Z</time>
      </trkpt>
      <trkpt lat="45.71288" lon="5.23727">
        <ele>239</ele>
        <time>2025-05-27T11:49:54Z</time>
      </trkpt>
      <trkpt lat="45.71289" lon="5.2372">
        <ele>238.4</ele>
        <time>2025-05-27T11:49:55Z</time>
      </trkpt>
      <trkpt lat="45.71292" lon="5.23715">
        <ele>238.4</ele>
        <time>2025-05-27T11:49:56Z</time>
      </trkpt>
      <trkpt lat="45.71294" lon="5.2371">
        <ele>238</ele>
        <time>2025-05-27T11:49:57Z</time>
      </trkpt>
      <trkpt lat="45.71297" lon="5.23704">
        <ele>238.2</ele>
        <time>2025-05-27T11:49:58Z</time>
      </trkpt>
      <trkpt lat="45.71298" lon="5.23698">
        <ele>237.8</ele>
        <time>2025-05-27T11:49:59Z</time>
      </trkpt>
      <trkpt lat="45.71299" lon="5.23693">
        <ele>237.8</ele>
        <time>2025-05-27T11:50:00Z</time>
      </trkpt>
      <trkpt lat="45.71301" lon="5.23688">
        <ele>237.8</ele>
        <time>2025-05-27T11:50:01Z</time>
      </trkpt>
      <trkpt lat="45.71304" lon="5.23683">
        <ele>237.8</ele>
        <time>2025-05-27T11:50:02Z</time>
      </trkpt>
      <trkpt lat="45.71307" lon="5.23677">
        <ele>237.2</ele>
        <time>2025-05-27T11:50:03Z</time>
      </trkpt>
      <trkpt lat="45.71308" lon="5.23671">
        <ele>237.2</ele>
        <time>2025-05-27T11:50:04Z</time>
      </trkpt>
      <trkpt lat="45.7131" lon="5.23664">
        <ele>237.2</ele>
        <time>2025-05-27T11:50:05Z</time>
      </trkpt>
      <trkpt lat="45.71312" lon="5.23659">
        <ele>237.2</ele>
        <time>2025-05-27T11:50:06Z</time>
      </trkpt>
      <trkpt lat="45.71314" lon="5.23652">
        <ele>237.2</ele>
        <time>2025-05-27T11:50:07Z</time>
      </trkpt>
      <trkpt lat="45.71317" lon="5.23646">
        <ele>237.2</ele>
        <time>2025-05-27T11:50:08Z</time>
      </trkpt>
      <trkpt lat="45.71319" lon="5.2364">
        <ele>236.6</ele>
        <time>2025-05-27T11:50:09Z</time>
      </trkpt>
      <trkpt lat="45.71322" lon="5.23634">
        <ele>236.6</ele>
        <time>2025-05-27T11:50:10Z</time>
      </trkpt>
      <trkpt lat="45.71325" lon="5.23628">
        <ele>236.6</ele>
        <time>2025-05-27T11:50:11Z</time>
      </trkpt>
      <trkpt lat="45.71327" lon="5.23621">
        <ele>236.6</ele>
        <time>2025-05-27T11:50:12Z</time>
      </trkpt>
      <trkpt lat="45.71329" lon="5.23615">
        <ele>236.6</ele>
        <time>2025-05-27T11:50:13Z</time>
      </trkpt>
      <trkpt lat="45.71331" lon="5.23609">
        <ele>236</ele>
        <time>2025-05-27T11:50:14Z</time>
      </trkpt>
      <trkpt lat="45.71333" lon="5.23603">
        <ele>236.4</ele>
        <time>2025-05-27T11:50:15Z</time>
      </trkpt>
      <trkpt lat="45.71336" lon="5.23598">
        <ele>236.4</ele>
        <time>2025-05-27T11:50:16Z</time>
      </trkpt>
      <trkpt lat="45.71338" lon="5.23591">
        <ele>236.8</ele>
        <time>2025-05-27T11:50:17Z</time>
      </trkpt>
      <trkpt lat="45.7134" lon="5.23585">
        <ele>236.8</ele>
        <time>2025-05-27T11:50:18Z</time>
      </trkpt>
      <trkpt lat="45.71343" lon="5.23581">
        <ele>236.8</ele>
        <time>2025-05-27T11:50:19Z</time>
      </trkpt>
      <trkpt lat="45.71345" lon="5.23575">
        <ele>236.8</ele>
        <time>2025-05-27T11:50:20Z</time>
      </trkpt>
      <trkpt lat="45.71347" lon="5.23569">
        <ele>237.2</ele>
        <time>2025-05-27T11:50:21Z</time>
      </trkpt>
      <trkpt lat="45.71349" lon="5.23563">
        <ele>237.4</ele>
        <time>2025-05-27T11:50:22Z</time>
      </trkpt>
      <trkpt lat="45.71352" lon="5.23558">
        <ele>237.4</ele>
        <time>2025-05-27T11:50:23Z</time>
      </trkpt>
      <trkpt lat="45.71355" lon="5.23552">
        <ele>237.4</ele>
        <time>2025-05-27T11:50:24Z</time>
      </trkpt>
      <trkpt lat="45.71357" lon="5.23548">
        <ele>237.6</ele>
        <time>2025-05-27T11:50:25Z</time>
      </trkpt>
      <trkpt lat="45.71361" lon="5.23546">
        <ele>237.6</ele>
        <time>2025-05-27T11:50:26Z</time>
      </trkpt>
      <trkpt lat="45.71365" lon="5.23544">
        <ele>238</ele>
        <time>2025-05-27T11:50:27Z</time>
      </trkpt>
      <trkpt lat="45.7137" lon="5.23544">
        <ele>238</ele>
        <time>2025-05-27T11:50:28Z</time>
      </trkpt>
      <trkpt lat="45.71375" lon="5.23544">
        <ele>238</ele>
        <time>2025-05-27T11:50:29Z</time>
      </trkpt>
      <trkpt lat="45.71379" lon="5.23546">
        <ele>237.8</ele>
        <time>2025-05-27T11:50:30Z</time>
      </trkpt>
      <trkpt lat="45.71385" lon="5.23548">
        <ele>237.6</ele>
        <time>2025-05-27T11:50:31Z</time>
      </trkpt>
      <trkpt lat="45.7139" lon="5.23551">
        <ele>237.6</ele>
        <time>2025-05-27T11:50:32Z</time>
      </trkpt>
      <trkpt lat="45.71395" lon="5.23552">
        <ele>237.2</ele>
        <time>2025-05-27T11:50:33Z</time>
      </trkpt>
      <trkpt lat="45.714" lon="5.23554">
        <ele>237</ele>
        <time>2025-05-27T11:50:34Z</time>
      </trkpt>
      <trkpt lat="45.71408" lon="5.23557">
        <ele>236.6</ele>
        <time>2025-05-27T11:50:35Z</time>
      </trkpt>
      <trkpt lat="45.71414" lon="5.2356">
        <ele>236.4</ele>
        <time>2025-05-27T11:50:36Z</time>
      </trkpt>
      <trkpt lat="45.71421" lon="5.23563">
        <ele>235.6</ele>
        <time>2025-05-27T11:50:37Z</time>
      </trkpt>
      <trkpt lat="45.71428" lon="5.23566">
        <ele>235.4</ele>
        <time>2025-05-27T11:50:38Z</time>
      </trkpt>
      <trkpt lat="45.71435" lon="5.2357">
        <ele>235</ele>
        <time>2025-05-27T11:50:39Z</time>
      </trkpt>
      <trkpt lat="45.71441" lon="5.23573">
        <ele>235</ele>
        <time>2025-05-27T11:50:40Z</time>
      </trkpt>
      <trkpt lat="45.71447" lon="5.23575">
        <ele>234.4</ele>
        <time>2025-05-27T11:50:41Z</time>
      </trkpt>
      <trkpt lat="45.71454" lon="5.23578">
        <ele>234.4</ele>
        <time>2025-05-27T11:50:42Z</time>
      </trkpt>
      <trkpt lat="45.7146" lon="5.23581">
        <ele>234.4</ele>
        <time>2025-05-27T11:50:43Z</time>
      </trkpt>
      <trkpt lat="45.71466" lon="5.23584">
        <ele>234.4</ele>
        <time>2025-05-27T11:50:44Z</time>
      </trkpt>
      <trkpt lat="45.71474" lon="5.23586">
        <ele>234</ele>
        <time>2025-05-27T11:50:45Z</time>
      </trkpt>
      <trkpt lat="45.7148" lon="5.23589">
        <ele>234</ele>
        <time>2025-05-27T11:50:46Z</time>
      </trkpt>
      <trkpt lat="45.71486" lon="5.23592">
        <ele>233.6</ele>
        <time>2025-05-27T11:50:47Z</time>
      </trkpt>
      <trkpt lat="45.71492" lon="5.23595">
        <ele>233.6</ele>
        <time>2025-05-27T11:50:48Z</time>
        <extensions>
          <visugpx:TrkExtension xmlns:visugpx="https://www.visugpx.com/editgpx/">
            <visugpx:node>1</visugpx:node>
            </visugpx:TrkExtension>
        </extensions>
      </trkpt>
    </trkseg>
  </trk>
</gpx>